<?xml version="1.0" encoding="UTF-8" standalone="no" ?>
<gpx xmlns="http://www.topografix.com/GPX/1/1" xmlns:xsi="http://www.w3.org/2001/XMLSchema-instance" xsi:schemaLocation="http://www.topografix.com/GPX/1/1 http://www.topografix.com/GPX/1/1/gpx.xsd" version="1.1" creator="VisuGPX - https://www.visugpx.com">
  <metadata>
    <name>Chanois St Hubert</name>
    <desc><![CDATA[passage spécial JF dans le Chanois]]></desc>
  </metadata>
  <trk>
    <name><![CDATA[Chanois St Hubert on GPSies.com]]></name>
    <trkseg>
      <trkpt lat="47.66488" lon="5.96795">
        <ele>172</ele>
        <time>2010-01-01T00:00:00Z</time>
      </trkpt>
      <trkpt lat="47.66488" lon="5.96795">
        <ele>172</ele>
        <time>2010-01-01T00:00:00Z</time>
      </trkpt>
      <trkpt lat="47.66489" lon="5.96796">
        <ele>172</ele>
        <time>2010-01-01T00:00:00Z</time>
      </trkpt>
      <trkpt lat="47.66491" lon="5.96797">
        <ele>172</ele>
        <time>2010-01-01T00:00:01Z</time>
      </trkpt>
      <trkpt lat="47.66494" lon="5.96798">
        <ele>172</ele>
        <time>2010-01-01T00:00:02Z</time>
      </trkpt>
      <trkpt lat="47.66496" lon="5.968">
        <ele>172</ele>
        <time>2010-01-01T00:00:03Z</time>
      </trkpt>
      <trkpt lat="47.66498" lon="5.96802">
        <ele>172</ele>
        <time>2010-01-01T00:00:04Z</time>
      </trkpt>
      <trkpt lat="47.66498" lon="5.96804">
        <ele>172</ele>
        <time>2010-01-01T00:00:05Z</time>
      </trkpt>
      <trkpt lat="47.66498" lon="5.96805">
        <ele>172</ele>
        <time>2010-01-01T00:00:05Z</time>
      </trkpt>
      <trkpt lat="47.66498" lon="5.96805">
        <ele>172</ele>
        <time>2010-01-01T00:00:05Z</time>
      </trkpt>
      <trkpt lat="47.66497" lon="5.96806">
        <ele>172</ele>
        <time>2010-01-01T00:00:06Z</time>
      </trkpt>
      <trkpt lat="47.66495" lon="5.96807">
        <ele>172</ele>
        <time>2010-01-01T00:00:07Z</time>
      </trkpt>
      <trkpt lat="47.66494" lon="5.96809">
        <ele>172</ele>
        <time>2010-01-01T00:00:07Z</time>
      </trkpt>
      <trkpt lat="47.66492" lon="5.96811">
        <ele>172</ele>
        <time>2010-01-01T00:00:08Z</time>
      </trkpt>
      <trkpt lat="47.66491" lon="5.96814">
        <ele>172</ele>
        <time>2010-01-01T00:00:09Z</time>
      </trkpt>
      <trkpt lat="47.66489" lon="5.96817">
        <ele>172</ele>
        <time>2010-01-01T00:00:10Z</time>
      </trkpt>
      <trkpt lat="47.66488" lon="5.9682">
        <ele>172</ele>
        <time>2010-01-01T00:00:11Z</time>
      </trkpt>
      <trkpt lat="47.66487" lon="5.96823">
        <ele>172</ele>
        <time>2010-01-01T00:00:12Z</time>
      </trkpt>
      <trkpt lat="47.66485" lon="5.96826">
        <ele>172</ele>
        <time>2010-01-01T00:00:13Z</time>
      </trkpt>
      <trkpt lat="47.66484" lon="5.96829">
        <ele>172</ele>
        <time>2010-01-01T00:00:14Z</time>
      </trkpt>
      <trkpt lat="47.66481" lon="5.96832">
        <ele>172</ele>
        <time>2010-01-01T00:00:15Z</time>
      </trkpt>
      <trkpt lat="47.66479" lon="5.96835">
        <ele>172</ele>
        <time>2010-01-01T00:00:17Z</time>
      </trkpt>
      <trkpt lat="47.66477" lon="5.96839">
        <ele>172</ele>
        <time>2010-01-01T00:00:18Z</time>
      </trkpt>
      <trkpt lat="47.66475" lon="5.96842">
        <ele>172</ele>
        <time>2010-01-01T00:00:19Z</time>
      </trkpt>
      <trkpt lat="47.66473" lon="5.96846">
        <ele>172</ele>
        <time>2010-01-01T00:00:20Z</time>
      </trkpt>
      <trkpt lat="47.66471" lon="5.96849">
        <ele>172</ele>
        <time>2010-01-01T00:00:21Z</time>
      </trkpt>
      <trkpt lat="47.66469" lon="5.96852">
        <ele>172</ele>
        <time>2010-01-01T00:00:23Z</time>
      </trkpt>
      <trkpt lat="47.66467" lon="5.96856">
        <ele>172</ele>
        <time>2010-01-01T00:00:24Z</time>
      </trkpt>
      <trkpt lat="47.66465" lon="5.9686">
        <ele>172</ele>
        <time>2010-01-01T00:00:25Z</time>
      </trkpt>
      <trkpt lat="47.66463" lon="5.96864">
        <ele>172</ele>
        <time>2010-01-01T00:00:27Z</time>
      </trkpt>
      <trkpt lat="47.66461" lon="5.96868">
        <ele>172</ele>
        <time>2010-01-01T00:00:28Z</time>
      </trkpt>
      <trkpt lat="47.66458" lon="5.96872">
        <ele>172</ele>
        <time>2010-01-01T00:00:30Z</time>
      </trkpt>
      <trkpt lat="47.66456" lon="5.96875">
        <ele>172</ele>
        <time>2010-01-01T00:00:31Z</time>
      </trkpt>
      <trkpt lat="47.66453" lon="5.96879">
        <ele>172</ele>
        <time>2010-01-01T00:00:32Z</time>
      </trkpt>
      <trkpt lat="47.6645" lon="5.96884">
        <ele>172</ele>
        <time>2010-01-01T00:00:34Z</time>
      </trkpt>
      <trkpt lat="47.66448" lon="5.96888">
        <ele>172</ele>
        <time>2010-01-01T00:00:35Z</time>
      </trkpt>
      <trkpt lat="47.66446" lon="5.96892">
        <ele>172</ele>
        <time>2010-01-01T00:00:37Z</time>
      </trkpt>
      <trkpt lat="47.66444" lon="5.96897">
        <ele>172</ele>
        <time>2010-01-01T00:00:38Z</time>
      </trkpt>
      <trkpt lat="47.66442" lon="5.96901">
        <ele>172</ele>
        <time>2010-01-01T00:00:40Z</time>
      </trkpt>
      <trkpt lat="47.6644" lon="5.96906">
        <ele>172</ele>
        <time>2010-01-01T00:00:41Z</time>
      </trkpt>
      <trkpt lat="47.66438" lon="5.96911">
        <ele>172</ele>
        <time>2010-01-01T00:00:43Z</time>
      </trkpt>
      <trkpt lat="47.66437" lon="5.96917">
        <ele>172</ele>
        <time>2010-01-01T00:00:44Z</time>
      </trkpt>
      <trkpt lat="47.66437" lon="5.96923">
        <ele>172</ele>
        <time>2010-01-01T00:00:46Z</time>
      </trkpt>
      <trkpt lat="47.66437" lon="5.96929">
        <ele>172</ele>
        <time>2010-01-01T00:00:48Z</time>
      </trkpt>
      <trkpt lat="47.66438" lon="5.96936">
        <ele>172</ele>
        <time>2010-01-01T00:00:50Z</time>
      </trkpt>
      <trkpt lat="47.66439" lon="5.96942">
        <ele>172</ele>
        <time>2010-01-01T00:00:51Z</time>
      </trkpt>
      <trkpt lat="47.66441" lon="5.96948">
        <ele>172</ele>
        <time>2010-01-01T00:00:53Z</time>
      </trkpt>
      <trkpt lat="47.66442" lon="5.96954">
        <ele>172</ele>
        <time>2010-01-01T00:00:55Z</time>
      </trkpt>
      <trkpt lat="47.66444" lon="5.9696">
        <ele>172</ele>
        <time>2010-01-01T00:00:57Z</time>
      </trkpt>
      <trkpt lat="47.66446" lon="5.96967">
        <ele>172</ele>
        <time>2010-01-01T00:00:59Z</time>
      </trkpt>
      <trkpt lat="47.66448" lon="5.96973">
        <ele>172</ele>
        <time>2010-01-01T00:01:00Z</time>
      </trkpt>
      <trkpt lat="47.66449" lon="5.96979">
        <ele>172</ele>
        <time>2010-01-01T00:01:02Z</time>
      </trkpt>
      <trkpt lat="47.66451" lon="5.96985">
        <ele>172</ele>
        <time>2010-01-01T00:01:04Z</time>
      </trkpt>
      <trkpt lat="47.66452" lon="5.96991">
        <ele>172</ele>
        <time>2010-01-01T00:01:06Z</time>
      </trkpt>
      <trkpt lat="47.66454" lon="5.96998">
        <ele>172</ele>
        <time>2010-01-01T00:01:08Z</time>
      </trkpt>
      <trkpt lat="47.66456" lon="5.97005">
        <ele>172</ele>
        <time>2010-01-01T00:01:09Z</time>
      </trkpt>
      <trkpt lat="47.66458" lon="5.97011">
        <ele>172</ele>
        <time>2010-01-01T00:01:11Z</time>
      </trkpt>
      <trkpt lat="47.66459" lon="5.97018">
        <ele>172</ele>
        <time>2010-01-01T00:01:13Z</time>
      </trkpt>
      <trkpt lat="47.66461" lon="5.97025">
        <ele>172</ele>
        <time>2010-01-01T00:01:15Z</time>
      </trkpt>
      <trkpt lat="47.66463" lon="5.9703">
        <ele>172</ele>
        <time>2010-01-01T00:01:17Z</time>
      </trkpt>
      <trkpt lat="47.66465" lon="5.97037">
        <ele>172</ele>
        <time>2010-01-01T00:01:19Z</time>
      </trkpt>
      <trkpt lat="47.66466" lon="5.97043">
        <ele>172</ele>
        <time>2010-01-01T00:01:21Z</time>
      </trkpt>
      <trkpt lat="47.66468" lon="5.97049">
        <ele>172</ele>
        <time>2010-01-01T00:01:22Z</time>
      </trkpt>
      <trkpt lat="47.66469" lon="5.97055">
        <ele>172</ele>
        <time>2010-01-01T00:01:24Z</time>
      </trkpt>
      <trkpt lat="47.66471" lon="5.97062">
        <ele>172</ele>
        <time>2010-01-01T00:01:26Z</time>
      </trkpt>
      <trkpt lat="47.66472" lon="5.97068">
        <ele>172</ele>
        <time>2010-01-01T00:01:28Z</time>
      </trkpt>
      <trkpt lat="47.66473" lon="5.97074">
        <ele>172</ele>
        <time>2010-01-01T00:01:29Z</time>
      </trkpt>
      <trkpt lat="47.66474" lon="5.9708">
        <ele>172</ele>
        <time>2010-01-01T00:01:31Z</time>
      </trkpt>
      <trkpt lat="47.66476" lon="5.97086">
        <ele>172</ele>
        <time>2010-01-01T00:01:33Z</time>
      </trkpt>
      <trkpt lat="47.66477" lon="5.97092">
        <ele>172</ele>
        <time>2010-01-01T00:01:34Z</time>
      </trkpt>
      <trkpt lat="47.66478" lon="5.97098">
        <ele>172</ele>
        <time>2010-01-01T00:01:36Z</time>
      </trkpt>
      <trkpt lat="47.66479" lon="5.97104">
        <ele>172</ele>
        <time>2010-01-01T00:01:38Z</time>
      </trkpt>
      <trkpt lat="47.6648" lon="5.9711">
        <ele>172</ele>
        <time>2010-01-01T00:01:39Z</time>
      </trkpt>
      <trkpt lat="47.66481" lon="5.97116">
        <ele>172</ele>
        <time>2010-01-01T00:01:41Z</time>
      </trkpt>
      <trkpt lat="47.66481" lon="5.97121">
        <ele>172</ele>
        <time>2010-01-01T00:01:43Z</time>
      </trkpt>
      <trkpt lat="47.6648" lon="5.97127">
        <ele>172</ele>
        <time>2010-01-01T00:01:44Z</time>
      </trkpt>
      <trkpt lat="47.66479" lon="5.97132">
        <ele>172</ele>
        <time>2010-01-01T00:01:46Z</time>
      </trkpt>
      <trkpt lat="47.66478" lon="5.97137">
        <ele>172</ele>
        <time>2010-01-01T00:01:47Z</time>
      </trkpt>
      <trkpt lat="47.66476" lon="5.97142">
        <ele>172</ele>
        <time>2010-01-01T00:01:49Z</time>
      </trkpt>
      <trkpt lat="47.66474" lon="5.97147">
        <ele>172</ele>
        <time>2010-01-01T00:01:50Z</time>
      </trkpt>
      <trkpt lat="47.66471" lon="5.97151">
        <ele>172</ele>
        <time>2010-01-01T00:01:52Z</time>
      </trkpt>
      <trkpt lat="47.66468" lon="5.97154">
        <ele>172</ele>
        <time>2010-01-01T00:01:53Z</time>
      </trkpt>
      <trkpt lat="47.66465" lon="5.97156">
        <ele>172</ele>
        <time>2010-01-01T00:01:55Z</time>
      </trkpt>
      <trkpt lat="47.66461" lon="5.97157">
        <ele>173</ele>
        <time>2010-01-01T00:01:56Z</time>
      </trkpt>
      <trkpt lat="47.66457" lon="5.97158">
        <ele>173</ele>
        <time>2010-01-01T00:01:58Z</time>
      </trkpt>
      <trkpt lat="47.66453" lon="5.9716">
        <ele>173</ele>
        <time>2010-01-01T00:01:59Z</time>
      </trkpt>
      <trkpt lat="47.66449" lon="5.9716">
        <ele>174</ele>
        <time>2010-01-01T00:02:01Z</time>
      </trkpt>
      <trkpt lat="47.66446" lon="5.97161">
        <ele>174</ele>
        <time>2010-01-01T00:02:02Z</time>
      </trkpt>
      <trkpt lat="47.66443" lon="5.97163">
        <ele>174</ele>
        <time>2010-01-01T00:02:04Z</time>
      </trkpt>
      <trkpt lat="47.66442" lon="5.97167">
        <ele>174</ele>
        <time>2010-01-01T00:02:05Z</time>
      </trkpt>
      <trkpt lat="47.66441" lon="5.97173">
        <ele>174</ele>
        <time>2010-01-01T00:02:06Z</time>
      </trkpt>
      <trkpt lat="47.66441" lon="5.97179">
        <ele>174</ele>
        <time>2010-01-01T00:02:08Z</time>
      </trkpt>
      <trkpt lat="47.6644" lon="5.97185">
        <ele>174</ele>
        <time>2010-01-01T00:02:10Z</time>
      </trkpt>
      <trkpt lat="47.6644" lon="5.97192">
        <ele>174</ele>
        <time>2010-01-01T00:02:11Z</time>
      </trkpt>
      <trkpt lat="47.66439" lon="5.97198">
        <ele>174</ele>
        <time>2010-01-01T00:02:13Z</time>
      </trkpt>
      <trkpt lat="47.66437" lon="5.97204">
        <ele>174</ele>
        <time>2010-01-01T00:02:15Z</time>
      </trkpt>
      <trkpt lat="47.66436" lon="5.97209">
        <ele>174</ele>
        <time>2010-01-01T00:02:16Z</time>
      </trkpt>
      <trkpt lat="47.66435" lon="5.97215">
        <ele>174</ele>
        <time>2010-01-01T00:02:18Z</time>
      </trkpt>
      <trkpt lat="47.66434" lon="5.97221">
        <ele>174</ele>
        <time>2010-01-01T00:02:20Z</time>
      </trkpt>
      <trkpt lat="47.66433" lon="5.97226">
        <ele>174</ele>
        <time>2010-01-01T00:02:21Z</time>
      </trkpt>
      <trkpt lat="47.66432" lon="5.97232">
        <ele>174</ele>
        <time>2010-01-01T00:02:23Z</time>
      </trkpt>
      <trkpt lat="47.66431" lon="5.97237">
        <ele>174</ele>
        <time>2010-01-01T00:02:24Z</time>
      </trkpt>
      <trkpt lat="47.66431" lon="5.97243">
        <ele>174</ele>
        <time>2010-01-01T00:02:26Z</time>
      </trkpt>
      <trkpt lat="47.6643" lon="5.97248">
        <ele>174</ele>
        <time>2010-01-01T00:02:27Z</time>
      </trkpt>
      <trkpt lat="47.66429" lon="5.97254">
        <ele>174</ele>
        <time>2010-01-01T00:02:29Z</time>
      </trkpt>
      <trkpt lat="47.66428" lon="5.97259">
        <ele>174</ele>
        <time>2010-01-01T00:02:30Z</time>
      </trkpt>
      <trkpt lat="47.66428" lon="5.97265">
        <ele>174</ele>
        <time>2010-01-01T00:02:32Z</time>
      </trkpt>
      <trkpt lat="47.66426" lon="5.9727">
        <ele>174</ele>
        <time>2010-01-01T00:02:33Z</time>
      </trkpt>
      <trkpt lat="47.66425" lon="5.97275">
        <ele>174</ele>
        <time>2010-01-01T00:02:35Z</time>
      </trkpt>
      <trkpt lat="47.66424" lon="5.9728">
        <ele>174</ele>
        <time>2010-01-01T00:02:36Z</time>
      </trkpt>
      <trkpt lat="47.66423" lon="5.97285">
        <ele>174</ele>
        <time>2010-01-01T00:02:38Z</time>
      </trkpt>
      <trkpt lat="47.66421" lon="5.9729">
        <ele>174</ele>
        <time>2010-01-01T00:02:39Z</time>
      </trkpt>
      <trkpt lat="47.6642" lon="5.97295">
        <ele>174</ele>
        <time>2010-01-01T00:02:41Z</time>
      </trkpt>
      <trkpt lat="47.66418" lon="5.97299">
        <ele>174</ele>
        <time>2010-01-01T00:02:42Z</time>
      </trkpt>
      <trkpt lat="47.66417" lon="5.97304">
        <ele>175</ele>
        <time>2010-01-01T00:02:43Z</time>
      </trkpt>
      <trkpt lat="47.66414" lon="5.97309">
        <ele>175</ele>
        <time>2010-01-01T00:02:45Z</time>
      </trkpt>
      <trkpt lat="47.66413" lon="5.97313">
        <ele>176</ele>
        <time>2010-01-01T00:02:46Z</time>
      </trkpt>
      <trkpt lat="47.66411" lon="5.97318">
        <ele>176</ele>
        <time>2010-01-01T00:02:48Z</time>
      </trkpt>
      <trkpt lat="47.6641" lon="5.97322">
        <ele>176</ele>
        <time>2010-01-01T00:02:49Z</time>
      </trkpt>
      <trkpt lat="47.66409" lon="5.97325">
        <ele>176</ele>
        <time>2010-01-01T00:02:50Z</time>
      </trkpt>
      <trkpt lat="47.66407" lon="5.97329">
        <ele>176</ele>
        <time>2010-01-01T00:02:51Z</time>
      </trkpt>
      <trkpt lat="47.66406" lon="5.97332">
        <ele>176</ele>
        <time>2010-01-01T00:02:52Z</time>
      </trkpt>
      <trkpt lat="47.66405" lon="5.97334">
        <ele>176</ele>
        <time>2010-01-01T00:02:53Z</time>
      </trkpt>
      <trkpt lat="47.66403" lon="5.97337">
        <ele>176</ele>
        <time>2010-01-01T00:02:54Z</time>
      </trkpt>
      <trkpt lat="47.66401" lon="5.9734">
        <ele>176</ele>
        <time>2010-01-01T00:02:55Z</time>
      </trkpt>
      <trkpt lat="47.66399" lon="5.97345">
        <ele>176</ele>
        <time>2010-01-01T00:02:56Z</time>
      </trkpt>
      <trkpt lat="47.66396" lon="5.97349">
        <ele>176</ele>
        <time>2010-01-01T00:02:58Z</time>
      </trkpt>
      <trkpt lat="47.66394" lon="5.97353">
        <ele>176</ele>
        <time>2010-01-01T00:02:59Z</time>
      </trkpt>
      <trkpt lat="47.66391" lon="5.97357">
        <ele>176</ele>
        <time>2010-01-01T00:03:01Z</time>
      </trkpt>
      <trkpt lat="47.66389" lon="5.97361">
        <ele>176</ele>
        <time>2010-01-01T00:03:02Z</time>
      </trkpt>
      <trkpt lat="47.66387" lon="5.97365">
        <ele>176</ele>
        <time>2010-01-01T00:03:04Z</time>
      </trkpt>
      <trkpt lat="47.66384" lon="5.97368">
        <ele>176</ele>
        <time>2010-01-01T00:03:05Z</time>
      </trkpt>
      <trkpt lat="47.66381" lon="5.97372">
        <ele>176</ele>
        <time>2010-01-01T00:03:07Z</time>
      </trkpt>
      <trkpt lat="47.66378" lon="5.97375">
        <ele>176</ele>
        <time>2010-01-01T00:03:08Z</time>
      </trkpt>
      <trkpt lat="47.66375" lon="5.97379">
        <ele>176</ele>
        <time>2010-01-01T00:03:10Z</time>
      </trkpt>
      <trkpt lat="47.66373" lon="5.97382">
        <ele>176</ele>
        <time>2010-01-01T00:03:11Z</time>
      </trkpt>
      <trkpt lat="47.6637" lon="5.97386">
        <ele>176</ele>
        <time>2010-01-01T00:03:12Z</time>
      </trkpt>
      <trkpt lat="47.66368" lon="5.97389">
        <ele>176</ele>
        <time>2010-01-01T00:03:14Z</time>
      </trkpt>
      <trkpt lat="47.66365" lon="5.97392">
        <ele>176</ele>
        <time>2010-01-01T00:03:15Z</time>
      </trkpt>
      <trkpt lat="47.66362" lon="5.97396">
        <ele>176</ele>
        <time>2010-01-01T00:03:17Z</time>
      </trkpt>
      <trkpt lat="47.6636" lon="5.97399">
        <ele>176</ele>
        <time>2010-01-01T00:03:18Z</time>
      </trkpt>
      <trkpt lat="47.66357" lon="5.97403">
        <ele>176</ele>
        <time>2010-01-01T00:03:19Z</time>
      </trkpt>
      <trkpt lat="47.66354" lon="5.97406">
        <ele>176</ele>
        <time>2010-01-01T00:03:21Z</time>
      </trkpt>
      <trkpt lat="47.66352" lon="5.97409">
        <ele>176</ele>
        <time>2010-01-01T00:03:22Z</time>
      </trkpt>
      <trkpt lat="47.66348" lon="5.97411">
        <ele>176</ele>
        <time>2010-01-01T00:03:24Z</time>
      </trkpt>
      <trkpt lat="47.66345" lon="5.97414">
        <ele>176</ele>
        <time>2010-01-01T00:03:25Z</time>
      </trkpt>
      <trkpt lat="47.66342" lon="5.97415">
        <ele>176</ele>
        <time>2010-01-01T00:03:26Z</time>
      </trkpt>
      <trkpt lat="47.66338" lon="5.97416">
        <ele>176</ele>
        <time>2010-01-01T00:03:28Z</time>
      </trkpt>
      <trkpt lat="47.66335" lon="5.97417">
        <ele>176</ele>
        <time>2010-01-01T00:03:29Z</time>
      </trkpt>
      <trkpt lat="47.66331" lon="5.97417">
        <ele>176</ele>
        <time>2010-01-01T00:03:31Z</time>
      </trkpt>
      <trkpt lat="47.66327" lon="5.97417">
        <ele>176</ele>
        <time>2010-01-01T00:03:32Z</time>
      </trkpt>
      <trkpt lat="47.66323" lon="5.97417">
        <ele>176</ele>
        <time>2010-01-01T00:03:34Z</time>
      </trkpt>
      <trkpt lat="47.66319" lon="5.97417">
        <ele>176</ele>
        <time>2010-01-01T00:03:36Z</time>
      </trkpt>
      <trkpt lat="47.66315" lon="5.97416">
        <ele>176</ele>
        <time>2010-01-01T00:03:37Z</time>
      </trkpt>
      <trkpt lat="47.66311" lon="5.97415">
        <ele>176</ele>
        <time>2010-01-01T00:03:39Z</time>
      </trkpt>
      <trkpt lat="47.66307" lon="5.97414">
        <ele>176</ele>
        <time>2010-01-01T00:03:40Z</time>
      </trkpt>
      <trkpt lat="47.66303" lon="5.97413">
        <ele>176</ele>
        <time>2010-01-01T00:03:42Z</time>
      </trkpt>
      <trkpt lat="47.66299" lon="5.97413">
        <ele>176</ele>
        <time>2010-01-01T00:03:44Z</time>
      </trkpt>
      <trkpt lat="47.66295" lon="5.97414">
        <ele>176</ele>
        <time>2010-01-01T00:03:45Z</time>
      </trkpt>
      <trkpt lat="47.66292" lon="5.97416">
        <ele>176</ele>
        <time>2010-01-01T00:03:47Z</time>
      </trkpt>
      <trkpt lat="47.66289" lon="5.9742">
        <ele>176</ele>
        <time>2010-01-01T00:03:48Z</time>
      </trkpt>
      <trkpt lat="47.66284" lon="5.97431">
        <ele>176</ele>
        <time>2010-01-01T00:03:52Z</time>
      </trkpt>
      <trkpt lat="47.66283" lon="5.97436">
        <ele>176</ele>
        <time>2010-01-01T00:03:53Z</time>
      </trkpt>
      <trkpt lat="47.66282" lon="5.97442">
        <ele>176</ele>
        <time>2010-01-01T00:03:55Z</time>
      </trkpt>
      <trkpt lat="47.66281" lon="5.97447">
        <ele>176</ele>
        <time>2010-01-01T00:03:56Z</time>
      </trkpt>
      <trkpt lat="47.6628" lon="5.97452">
        <ele>176</ele>
        <time>2010-01-01T00:03:58Z</time>
      </trkpt>
      <trkpt lat="47.6628" lon="5.97457">
        <ele>176</ele>
        <time>2010-01-01T00:03:59Z</time>
      </trkpt>
      <trkpt lat="47.66279" lon="5.97462">
        <ele>176</ele>
        <time>2010-01-01T00:04:01Z</time>
      </trkpt>
      <trkpt lat="47.66278" lon="5.97467">
        <ele>176</ele>
        <time>2010-01-01T00:04:02Z</time>
      </trkpt>
      <trkpt lat="47.66277" lon="5.97472">
        <ele>176</ele>
        <time>2010-01-01T00:04:03Z</time>
      </trkpt>
      <trkpt lat="47.66276" lon="5.97478">
        <ele>176</ele>
        <time>2010-01-01T00:04:05Z</time>
      </trkpt>
      <trkpt lat="47.66276" lon="5.97484">
        <ele>176</ele>
        <time>2010-01-01T00:04:06Z</time>
      </trkpt>
      <trkpt lat="47.66275" lon="5.97489">
        <ele>176</ele>
        <time>2010-01-01T00:04:08Z</time>
      </trkpt>
      <trkpt lat="47.66274" lon="5.97495">
        <ele>176</ele>
        <time>2010-01-01T00:04:09Z</time>
      </trkpt>
      <trkpt lat="47.66274" lon="5.975">
        <ele>176</ele>
        <time>2010-01-01T00:04:11Z</time>
      </trkpt>
      <trkpt lat="47.66273" lon="5.97505">
        <ele>176</ele>
        <time>2010-01-01T00:04:12Z</time>
      </trkpt>
      <trkpt lat="47.66272" lon="5.97511">
        <ele>176</ele>
        <time>2010-01-01T00:04:14Z</time>
      </trkpt>
      <trkpt lat="47.66272" lon="5.97516">
        <ele>176</ele>
        <time>2010-01-01T00:04:15Z</time>
      </trkpt>
      <trkpt lat="47.66271" lon="5.97521">
        <ele>176</ele>
        <time>2010-01-01T00:04:17Z</time>
      </trkpt>
      <trkpt lat="47.6627" lon="5.97526">
        <ele>176</ele>
        <time>2010-01-01T00:04:18Z</time>
      </trkpt>
      <trkpt lat="47.66269" lon="5.97531">
        <ele>176</ele>
        <time>2010-01-01T00:04:20Z</time>
      </trkpt>
      <trkpt lat="47.66268" lon="5.97537">
        <ele>176</ele>
        <time>2010-01-01T00:04:21Z</time>
      </trkpt>
      <trkpt lat="47.66268" lon="5.97542">
        <ele>176</ele>
        <time>2010-01-01T00:04:22Z</time>
      </trkpt>
      <trkpt lat="47.66267" lon="5.97547">
        <ele>176</ele>
        <time>2010-01-01T00:04:24Z</time>
      </trkpt>
      <trkpt lat="47.66267" lon="5.97552">
        <ele>176</ele>
        <time>2010-01-01T00:04:25Z</time>
      </trkpt>
      <trkpt lat="47.66266" lon="5.97557">
        <ele>176</ele>
        <time>2010-01-01T00:04:27Z</time>
      </trkpt>
      <trkpt lat="47.66264" lon="5.97562">
        <ele>176</ele>
        <time>2010-01-01T00:04:28Z</time>
      </trkpt>
      <trkpt lat="47.66263" lon="5.97567">
        <ele>176</ele>
        <time>2010-01-01T00:04:29Z</time>
      </trkpt>
      <trkpt lat="47.66262" lon="5.97572">
        <ele>176</ele>
        <time>2010-01-01T00:04:31Z</time>
      </trkpt>
      <trkpt lat="47.6626" lon="5.97577">
        <ele>176</ele>
        <time>2010-01-01T00:04:32Z</time>
      </trkpt>
      <trkpt lat="47.66258" lon="5.97581">
        <ele>176</ele>
        <time>2010-01-01T00:04:34Z</time>
      </trkpt>
      <trkpt lat="47.66256" lon="5.97586">
        <ele>176</ele>
        <time>2010-01-01T00:04:36Z</time>
      </trkpt>
      <trkpt lat="47.66254" lon="5.97591">
        <ele>176</ele>
        <time>2010-01-01T00:04:37Z</time>
      </trkpt>
      <trkpt lat="47.66251" lon="5.97596">
        <ele>176</ele>
        <time>2010-01-01T00:04:39Z</time>
      </trkpt>
      <trkpt lat="47.66248" lon="5.976">
        <ele>176</ele>
        <time>2010-01-01T00:04:40Z</time>
      </trkpt>
      <trkpt lat="47.66246" lon="5.97604">
        <ele>176</ele>
        <time>2010-01-01T00:04:42Z</time>
      </trkpt>
      <trkpt lat="47.66243" lon="5.97608">
        <ele>176</ele>
        <time>2010-01-01T00:04:43Z</time>
      </trkpt>
      <trkpt lat="47.6624" lon="5.97612">
        <ele>176</ele>
        <time>2010-01-01T00:04:45Z</time>
      </trkpt>
      <trkpt lat="47.66237" lon="5.97617">
        <ele>176</ele>
        <time>2010-01-01T00:04:47Z</time>
      </trkpt>
      <trkpt lat="47.66234" lon="5.97621">
        <ele>176</ele>
        <time>2010-01-01T00:04:48Z</time>
      </trkpt>
      <trkpt lat="47.66231" lon="5.97625">
        <ele>176</ele>
        <time>2010-01-01T00:04:50Z</time>
      </trkpt>
      <trkpt lat="47.66228" lon="5.97629">
        <ele>176</ele>
        <time>2010-01-01T00:04:52Z</time>
      </trkpt>
      <trkpt lat="47.66226" lon="5.97633">
        <ele>176</ele>
        <time>2010-01-01T00:04:53Z</time>
      </trkpt>
      <trkpt lat="47.66223" lon="5.97637">
        <ele>176</ele>
        <time>2010-01-01T00:04:55Z</time>
      </trkpt>
      <trkpt lat="47.6622" lon="5.97642">
        <ele>176</ele>
        <time>2010-01-01T00:04:56Z</time>
      </trkpt>
      <trkpt lat="47.66217" lon="5.97646">
        <ele>176</ele>
        <time>2010-01-01T00:04:58Z</time>
      </trkpt>
      <trkpt lat="47.66215" lon="5.97649">
        <ele>176</ele>
        <time>2010-01-01T00:04:59Z</time>
      </trkpt>
      <trkpt lat="47.66212" lon="5.97653">
        <ele>176</ele>
        <time>2010-01-01T00:05:01Z</time>
      </trkpt>
      <trkpt lat="47.66209" lon="5.97656">
        <ele>176</ele>
        <time>2010-01-01T00:05:02Z</time>
      </trkpt>
      <trkpt lat="47.66207" lon="5.9766">
        <ele>176</ele>
        <time>2010-01-01T00:05:04Z</time>
      </trkpt>
      <trkpt lat="47.66204" lon="5.97664">
        <ele>176</ele>
        <time>2010-01-01T00:05:05Z</time>
      </trkpt>
      <trkpt lat="47.66202" lon="5.97667">
        <ele>176</ele>
        <time>2010-01-01T00:05:06Z</time>
      </trkpt>
      <trkpt lat="47.662" lon="5.97671">
        <ele>177</ele>
        <time>2010-01-01T00:05:08Z</time>
      </trkpt>
      <trkpt lat="47.66197" lon="5.97675">
        <ele>177</ele>
        <time>2010-01-01T00:05:09Z</time>
      </trkpt>
      <trkpt lat="47.66195" lon="5.97679">
        <ele>178</ele>
        <time>2010-01-01T00:05:11Z</time>
      </trkpt>
      <trkpt lat="47.66192" lon="5.97683">
        <ele>178</ele>
        <time>2010-01-01T00:05:12Z</time>
      </trkpt>
      <trkpt lat="47.6619" lon="5.97687">
        <ele>178</ele>
        <time>2010-01-01T00:05:13Z</time>
      </trkpt>
      <trkpt lat="47.66187" lon="5.9769">
        <ele>178</ele>
        <time>2010-01-01T00:05:15Z</time>
      </trkpt>
      <trkpt lat="47.66185" lon="5.97694">
        <ele>178</ele>
        <time>2010-01-01T00:05:16Z</time>
      </trkpt>
      <trkpt lat="47.66183" lon="5.97697">
        <ele>178</ele>
        <time>2010-01-01T00:05:18Z</time>
      </trkpt>
      <trkpt lat="47.6618" lon="5.97701">
        <ele>178</ele>
        <time>2010-01-01T00:05:19Z</time>
      </trkpt>
      <trkpt lat="47.66178" lon="5.97706">
        <ele>178</ele>
        <time>2010-01-01T00:05:20Z</time>
      </trkpt>
      <trkpt lat="47.66175" lon="5.9771">
        <ele>178</ele>
        <time>2010-01-01T00:05:22Z</time>
      </trkpt>
      <trkpt lat="47.66173" lon="5.97714">
        <ele>178</ele>
        <time>2010-01-01T00:05:23Z</time>
      </trkpt>
      <trkpt lat="47.66171" lon="5.97718">
        <ele>178</ele>
        <time>2010-01-01T00:05:25Z</time>
      </trkpt>
      <trkpt lat="47.66168" lon="5.97722">
        <ele>178</ele>
        <time>2010-01-01T00:05:26Z</time>
      </trkpt>
      <trkpt lat="47.66166" lon="5.97726">
        <ele>178</ele>
        <time>2010-01-01T00:05:28Z</time>
      </trkpt>
      <trkpt lat="47.66163" lon="5.97731">
        <ele>178</ele>
        <time>2010-01-01T00:05:29Z</time>
      </trkpt>
      <trkpt lat="47.66161" lon="5.97735">
        <ele>178</ele>
        <time>2010-01-01T00:05:31Z</time>
      </trkpt>
      <trkpt lat="47.66158" lon="5.9774">
        <ele>178</ele>
        <time>2010-01-01T00:05:33Z</time>
      </trkpt>
      <trkpt lat="47.66156" lon="5.97744">
        <ele>178</ele>
        <time>2010-01-01T00:05:34Z</time>
      </trkpt>
      <trkpt lat="47.66154" lon="5.97749">
        <ele>178</ele>
        <time>2010-01-01T00:05:36Z</time>
      </trkpt>
      <trkpt lat="47.66151" lon="5.97753">
        <ele>178</ele>
        <time>2010-01-01T00:05:37Z</time>
      </trkpt>
      <trkpt lat="47.66149" lon="5.97758">
        <ele>178</ele>
        <time>2010-01-01T00:05:39Z</time>
      </trkpt>
      <trkpt lat="47.66147" lon="5.97763">
        <ele>178</ele>
        <time>2010-01-01T00:05:40Z</time>
      </trkpt>
      <trkpt lat="47.66145" lon="5.97767">
        <ele>178</ele>
        <time>2010-01-01T00:05:42Z</time>
      </trkpt>
      <trkpt lat="47.66143" lon="5.97772">
        <ele>178</ele>
        <time>2010-01-01T00:05:43Z</time>
      </trkpt>
      <trkpt lat="47.6614" lon="5.97776">
        <ele>178</ele>
        <time>2010-01-01T00:05:45Z</time>
      </trkpt>
      <trkpt lat="47.66138" lon="5.97781">
        <ele>178</ele>
        <time>2010-01-01T00:05:46Z</time>
      </trkpt>
      <trkpt lat="47.66136" lon="5.97785">
        <ele>178</ele>
        <time>2010-01-01T00:05:48Z</time>
      </trkpt>
      <trkpt lat="47.66134" lon="5.9779">
        <ele>178</ele>
        <time>2010-01-01T00:05:49Z</time>
      </trkpt>
      <trkpt lat="47.66132" lon="5.97794">
        <ele>178</ele>
        <time>2010-01-01T00:05:51Z</time>
      </trkpt>
      <trkpt lat="47.66129" lon="5.97798">
        <ele>178</ele>
        <time>2010-01-01T00:05:52Z</time>
      </trkpt>
      <trkpt lat="47.66127" lon="5.97803">
        <ele>178</ele>
        <time>2010-01-01T00:05:54Z</time>
      </trkpt>
      <trkpt lat="47.66125" lon="5.97808">
        <ele>178</ele>
        <time>2010-01-01T00:05:55Z</time>
      </trkpt>
      <trkpt lat="47.66123" lon="5.97812">
        <ele>178</ele>
        <time>2010-01-01T00:05:57Z</time>
      </trkpt>
      <trkpt lat="47.66121" lon="5.97817">
        <ele>178</ele>
        <time>2010-01-01T00:05:58Z</time>
      </trkpt>
      <trkpt lat="47.66118" lon="5.97822">
        <ele>178</ele>
        <time>2010-01-01T00:06:00Z</time>
      </trkpt>
      <trkpt lat="47.66116" lon="5.97827">
        <ele>178</ele>
        <time>2010-01-01T00:06:01Z</time>
      </trkpt>
      <trkpt lat="47.66114" lon="5.97832">
        <ele>178</ele>
        <time>2010-01-01T00:06:03Z</time>
      </trkpt>
      <trkpt lat="47.66111" lon="5.97836">
        <ele>178</ele>
        <time>2010-01-01T00:06:05Z</time>
      </trkpt>
      <trkpt lat="47.66109" lon="5.97841">
        <ele>178</ele>
        <time>2010-01-01T00:06:06Z</time>
      </trkpt>
      <trkpt lat="47.66107" lon="5.97846">
        <ele>178</ele>
        <time>2010-01-01T00:06:08Z</time>
      </trkpt>
      <trkpt lat="47.66104" lon="5.97851">
        <ele>178</ele>
        <time>2010-01-01T00:06:09Z</time>
      </trkpt>
      <trkpt lat="47.66102" lon="5.97856">
        <ele>178</ele>
        <time>2010-01-01T00:06:11Z</time>
      </trkpt>
      <trkpt lat="47.66099" lon="5.9786">
        <ele>178</ele>
        <time>2010-01-01T00:06:13Z</time>
      </trkpt>
      <trkpt lat="47.66097" lon="5.97865">
        <ele>178</ele>
        <time>2010-01-01T00:06:14Z</time>
      </trkpt>
      <trkpt lat="47.66094" lon="5.9787">
        <ele>178</ele>
        <time>2010-01-01T00:06:16Z</time>
      </trkpt>
      <trkpt lat="47.66092" lon="5.97875">
        <ele>178</ele>
        <time>2010-01-01T00:06:18Z</time>
      </trkpt>
      <trkpt lat="47.66089" lon="5.9788">
        <ele>178</ele>
        <time>2010-01-01T00:06:19Z</time>
      </trkpt>
      <trkpt lat="47.66087" lon="5.97885">
        <ele>178</ele>
        <time>2010-01-01T00:06:21Z</time>
      </trkpt>
      <trkpt lat="47.66084" lon="5.9789">
        <ele>178</ele>
        <time>2010-01-01T00:06:23Z</time>
      </trkpt>
      <trkpt lat="47.66081" lon="5.97895">
        <ele>178</ele>
        <time>2010-01-01T00:06:24Z</time>
      </trkpt>
      <trkpt lat="47.66079" lon="5.979">
        <ele>178</ele>
        <time>2010-01-01T00:06:26Z</time>
      </trkpt>
      <trkpt lat="47.66077" lon="5.97905">
        <ele>178</ele>
        <time>2010-01-01T00:06:28Z</time>
      </trkpt>
      <trkpt lat="47.66075" lon="5.9791">
        <ele>178</ele>
        <time>2010-01-01T00:06:29Z</time>
      </trkpt>
      <trkpt lat="47.66072" lon="5.97915">
        <ele>178</ele>
        <time>2010-01-01T00:06:31Z</time>
      </trkpt>
      <trkpt lat="47.6607" lon="5.9792">
        <ele>178</ele>
        <time>2010-01-01T00:06:33Z</time>
      </trkpt>
      <trkpt lat="47.66068" lon="5.97925">
        <ele>178</ele>
        <time>2010-01-01T00:06:34Z</time>
      </trkpt>
      <trkpt lat="47.66065" lon="5.9793">
        <ele>178</ele>
        <time>2010-01-01T00:06:36Z</time>
      </trkpt>
      <trkpt lat="47.66063" lon="5.97934">
        <ele>178</ele>
        <time>2010-01-01T00:06:37Z</time>
      </trkpt>
      <trkpt lat="47.66061" lon="5.97939">
        <ele>178</ele>
        <time>2010-01-01T00:06:39Z</time>
      </trkpt>
      <trkpt lat="47.66058" lon="5.97944">
        <ele>178</ele>
        <time>2010-01-01T00:06:41Z</time>
      </trkpt>
      <trkpt lat="47.66056" lon="5.97949">
        <ele>178</ele>
        <time>2010-01-01T00:06:42Z</time>
      </trkpt>
      <trkpt lat="47.66054" lon="5.97954">
        <ele>178</ele>
        <time>2010-01-01T00:06:44Z</time>
      </trkpt>
      <trkpt lat="47.66052" lon="5.97959">
        <ele>178</ele>
        <time>2010-01-01T00:06:45Z</time>
      </trkpt>
      <trkpt lat="47.66049" lon="5.97963">
        <ele>178</ele>
        <time>2010-01-01T00:06:47Z</time>
      </trkpt>
      <trkpt lat="47.66047" lon="5.97968">
        <ele>178</ele>
        <time>2010-01-01T00:06:49Z</time>
      </trkpt>
      <trkpt lat="47.66044" lon="5.97973">
        <ele>178</ele>
        <time>2010-01-01T00:06:50Z</time>
      </trkpt>
      <trkpt lat="47.66042" lon="5.97978">
        <ele>178</ele>
        <time>2010-01-01T00:06:52Z</time>
      </trkpt>
      <trkpt lat="47.66039" lon="5.97983">
        <ele>178</ele>
        <time>2010-01-01T00:06:54Z</time>
      </trkpt>
      <trkpt lat="47.66037" lon="5.97988">
        <ele>178</ele>
        <time>2010-01-01T00:06:55Z</time>
      </trkpt>
      <trkpt lat="47.66034" lon="5.97993">
        <ele>178</ele>
        <time>2010-01-01T00:06:57Z</time>
      </trkpt>
      <trkpt lat="47.66032" lon="5.97999">
        <ele>178</ele>
        <time>2010-01-01T00:06:59Z</time>
      </trkpt>
      <trkpt lat="47.66029" lon="5.98004">
        <ele>178</ele>
        <time>2010-01-01T00:07:01Z</time>
      </trkpt>
      <trkpt lat="47.66026" lon="5.98009">
        <ele>178</ele>
        <time>2010-01-01T00:07:02Z</time>
      </trkpt>
      <trkpt lat="47.66024" lon="5.98015">
        <ele>178</ele>
        <time>2010-01-01T00:07:04Z</time>
      </trkpt>
      <trkpt lat="47.66021" lon="5.9802">
        <ele>178</ele>
        <time>2010-01-01T00:07:06Z</time>
      </trkpt>
      <trkpt lat="47.66018" lon="5.98026">
        <ele>178</ele>
        <time>2010-01-01T00:07:08Z</time>
      </trkpt>
      <trkpt lat="47.66015" lon="5.98031">
        <ele>178</ele>
        <time>2010-01-01T00:07:10Z</time>
      </trkpt>
      <trkpt lat="47.66012" lon="5.98037">
        <ele>178</ele>
        <time>2010-01-01T00:07:12Z</time>
      </trkpt>
      <trkpt lat="47.66009" lon="5.98042">
        <ele>178</ele>
        <time>2010-01-01T00:07:14Z</time>
      </trkpt>
      <trkpt lat="47.66006" lon="5.98048">
        <ele>178</ele>
        <time>2010-01-01T00:07:16Z</time>
      </trkpt>
      <trkpt lat="47.66003" lon="5.98054">
        <ele>178</ele>
        <time>2010-01-01T00:07:18Z</time>
      </trkpt>
      <trkpt lat="47.66" lon="5.98059">
        <ele>178</ele>
        <time>2010-01-01T00:07:19Z</time>
      </trkpt>
      <trkpt lat="47.65997" lon="5.98064">
        <ele>178</ele>
        <time>2010-01-01T00:07:21Z</time>
      </trkpt>
      <trkpt lat="47.65994" lon="5.9807">
        <ele>178</ele>
        <time>2010-01-01T00:07:23Z</time>
      </trkpt>
      <trkpt lat="47.65991" lon="5.98075">
        <ele>178</ele>
        <time>2010-01-01T00:07:25Z</time>
      </trkpt>
      <trkpt lat="47.65988" lon="5.98081">
        <ele>178</ele>
        <time>2010-01-01T00:07:27Z</time>
      </trkpt>
      <trkpt lat="47.65985" lon="5.98087">
        <ele>178</ele>
        <time>2010-01-01T00:07:29Z</time>
      </trkpt>
      <trkpt lat="47.65982" lon="5.98092">
        <ele>178</ele>
        <time>2010-01-01T00:07:31Z</time>
      </trkpt>
      <trkpt lat="47.65979" lon="5.98097">
        <ele>178</ele>
        <time>2010-01-01T00:07:33Z</time>
      </trkpt>
      <trkpt lat="47.65976" lon="5.98103">
        <ele>178</ele>
        <time>2010-01-01T00:07:35Z</time>
      </trkpt>
      <trkpt lat="47.65973" lon="5.98108">
        <ele>178</ele>
        <time>2010-01-01T00:07:37Z</time>
      </trkpt>
      <trkpt lat="47.6597" lon="5.98113">
        <ele>178</ele>
        <time>2010-01-01T00:07:38Z</time>
      </trkpt>
      <trkpt lat="47.65967" lon="5.98118">
        <ele>178</ele>
        <time>2010-01-01T00:07:40Z</time>
      </trkpt>
      <trkpt lat="47.65964" lon="5.98123">
        <ele>178</ele>
        <time>2010-01-01T00:07:42Z</time>
      </trkpt>
      <trkpt lat="47.65961" lon="5.98129">
        <ele>178</ele>
        <time>2010-01-01T00:07:44Z</time>
      </trkpt>
      <trkpt lat="47.65958" lon="5.98135">
        <ele>178</ele>
        <time>2010-01-01T00:07:46Z</time>
      </trkpt>
      <trkpt lat="47.65954" lon="5.9814">
        <ele>178</ele>
        <time>2010-01-01T00:07:48Z</time>
      </trkpt>
      <trkpt lat="47.65951" lon="5.98145">
        <ele>178</ele>
        <time>2010-01-01T00:07:50Z</time>
      </trkpt>
      <trkpt lat="47.65948" lon="5.98151">
        <ele>178</ele>
        <time>2010-01-01T00:07:52Z</time>
      </trkpt>
      <trkpt lat="47.65945" lon="5.98156">
        <ele>178</ele>
        <time>2010-01-01T00:07:54Z</time>
      </trkpt>
      <trkpt lat="47.65941" lon="5.98161">
        <ele>178</ele>
        <time>2010-01-01T00:07:56Z</time>
      </trkpt>
      <trkpt lat="47.65938" lon="5.98167">
        <ele>178</ele>
        <time>2010-01-01T00:07:58Z</time>
      </trkpt>
      <trkpt lat="47.65934" lon="5.98172">
        <ele>177</ele>
        <time>2010-01-01T00:08:00Z</time>
      </trkpt>
      <trkpt lat="47.65931" lon="5.98178">
        <ele>177</ele>
        <time>2010-01-01T00:08:02Z</time>
      </trkpt>
      <trkpt lat="47.65928" lon="5.98183">
        <ele>176</ele>
        <time>2010-01-01T00:08:04Z</time>
      </trkpt>
      <trkpt lat="47.65925" lon="5.98188">
        <ele>176</ele>
        <time>2010-01-01T00:08:06Z</time>
      </trkpt>
      <trkpt lat="47.65921" lon="5.98194">
        <ele>176</ele>
        <time>2010-01-01T00:08:08Z</time>
      </trkpt>
      <trkpt lat="47.65918" lon="5.98199">
        <ele>176</ele>
        <time>2010-01-01T00:08:10Z</time>
      </trkpt>
      <trkpt lat="47.65915" lon="5.98205">
        <ele>176</ele>
        <time>2010-01-01T00:08:12Z</time>
      </trkpt>
      <trkpt lat="47.65911" lon="5.98211">
        <ele>176</ele>
        <time>2010-01-01T00:08:14Z</time>
      </trkpt>
      <trkpt lat="47.65908" lon="5.98217">
        <ele>176</ele>
        <time>2010-01-01T00:08:16Z</time>
      </trkpt>
      <trkpt lat="47.65905" lon="5.98223">
        <ele>176</ele>
        <time>2010-01-01T00:08:18Z</time>
      </trkpt>
      <trkpt lat="47.65901" lon="5.9823">
        <ele>176</ele>
        <time>2010-01-01T00:08:20Z</time>
      </trkpt>
      <trkpt lat="47.65898" lon="5.98236">
        <ele>176</ele>
        <time>2010-01-01T00:08:22Z</time>
      </trkpt>
      <trkpt lat="47.65895" lon="5.98242">
        <ele>176</ele>
        <time>2010-01-01T00:08:24Z</time>
      </trkpt>
      <trkpt lat="47.65892" lon="5.98248">
        <ele>176</ele>
        <time>2010-01-01T00:08:26Z</time>
      </trkpt>
      <trkpt lat="47.65889" lon="5.98254">
        <ele>176</ele>
        <time>2010-01-01T00:08:28Z</time>
      </trkpt>
      <trkpt lat="47.65886" lon="5.98259">
        <ele>176</ele>
        <time>2010-01-01T00:08:30Z</time>
      </trkpt>
      <trkpt lat="47.65883" lon="5.98264">
        <ele>176</ele>
        <time>2010-01-01T00:08:32Z</time>
      </trkpt>
      <trkpt lat="47.6588" lon="5.9827">
        <ele>176</ele>
        <time>2010-01-01T00:08:34Z</time>
      </trkpt>
      <trkpt lat="47.65878" lon="5.98275">
        <ele>176</ele>
        <time>2010-01-01T00:08:36Z</time>
      </trkpt>
      <trkpt lat="47.65875" lon="5.98279">
        <ele>176</ele>
        <time>2010-01-01T00:08:37Z</time>
      </trkpt>
      <trkpt lat="47.65872" lon="5.98284">
        <ele>176</ele>
        <time>2010-01-01T00:08:39Z</time>
      </trkpt>
      <trkpt lat="47.65869" lon="5.98287">
        <ele>176</ele>
        <time>2010-01-01T00:08:40Z</time>
      </trkpt>
      <trkpt lat="47.65866" lon="5.98292">
        <ele>176</ele>
        <time>2010-01-01T00:08:42Z</time>
      </trkpt>
      <trkpt lat="47.65864" lon="5.98296">
        <ele>176</ele>
        <time>2010-01-01T00:08:44Z</time>
      </trkpt>
      <trkpt lat="47.65863" lon="5.98301">
        <ele>176</ele>
        <time>2010-01-01T00:08:45Z</time>
      </trkpt>
      <trkpt lat="47.65863" lon="5.98306">
        <ele>176</ele>
        <time>2010-01-01T00:08:46Z</time>
      </trkpt>
      <trkpt lat="47.65863" lon="5.98311">
        <ele>176</ele>
        <time>2010-01-01T00:08:48Z</time>
      </trkpt>
      <trkpt lat="47.65864" lon="5.98315">
        <ele>176</ele>
        <time>2010-01-01T00:08:49Z</time>
      </trkpt>
      <trkpt lat="47.65865" lon="5.98319">
        <ele>176</ele>
        <time>2010-01-01T00:08:50Z</time>
      </trkpt>
      <trkpt lat="47.65866" lon="5.98322">
        <ele>176</ele>
        <time>2010-01-01T00:08:51Z</time>
      </trkpt>
      <trkpt lat="47.65867" lon="5.98325">
        <ele>176</ele>
        <time>2010-01-01T00:08:52Z</time>
      </trkpt>
      <trkpt lat="47.65867" lon="5.98328">
        <ele>176</ele>
        <time>2010-01-01T00:08:52Z</time>
      </trkpt>
      <trkpt lat="47.65867" lon="5.98331">
        <ele>176</ele>
        <time>2010-01-01T00:08:53Z</time>
      </trkpt>
      <trkpt lat="47.65867" lon="5.98334">
        <ele>176</ele>
        <time>2010-01-01T00:08:54Z</time>
      </trkpt>
      <trkpt lat="47.65867" lon="5.98337">
        <ele>176</ele>
        <time>2010-01-01T00:08:55Z</time>
      </trkpt>
      <trkpt lat="47.65867" lon="5.9834">
        <ele>176</ele>
        <time>2010-01-01T00:08:56Z</time>
      </trkpt>
      <trkpt lat="47.65866" lon="5.98343">
        <ele>176</ele>
        <time>2010-01-01T00:08:57Z</time>
      </trkpt>
      <trkpt lat="47.65866" lon="5.98346">
        <ele>176</ele>
        <time>2010-01-01T00:08:57Z</time>
      </trkpt>
      <trkpt lat="47.65865" lon="5.98349">
        <ele>176</ele>
        <time>2010-01-01T00:08:58Z</time>
      </trkpt>
      <trkpt lat="47.65864" lon="5.98352">
        <ele>176</ele>
        <time>2010-01-01T00:08:59Z</time>
      </trkpt>
      <trkpt lat="47.65864" lon="5.98354">
        <ele>177</ele>
        <time>2010-01-01T00:09:00Z</time>
      </trkpt>
      <trkpt lat="47.65863" lon="5.98357">
        <ele>177</ele>
        <time>2010-01-01T00:09:00Z</time>
      </trkpt>
      <trkpt lat="47.65862" lon="5.98359">
        <ele>178</ele>
        <time>2010-01-01T00:09:01Z</time>
      </trkpt>
      <trkpt lat="47.65862" lon="5.98362">
        <ele>178</ele>
        <time>2010-01-01T00:09:02Z</time>
      </trkpt>
      <trkpt lat="47.65861" lon="5.98365">
        <ele>178</ele>
        <time>2010-01-01T00:09:03Z</time>
      </trkpt>
      <trkpt lat="47.6586" lon="5.98367">
        <ele>178</ele>
        <time>2010-01-01T00:09:03Z</time>
      </trkpt>
      <trkpt lat="47.6586" lon="5.9837">
        <ele>178</ele>
        <time>2010-01-01T00:09:04Z</time>
      </trkpt>
      <trkpt lat="47.65859" lon="5.98372">
        <ele>178</ele>
        <time>2010-01-01T00:09:05Z</time>
      </trkpt>
      <trkpt lat="47.65858" lon="5.98375">
        <ele>178</ele>
        <time>2010-01-01T00:09:06Z</time>
      </trkpt>
      <trkpt lat="47.65857" lon="5.98377">
        <ele>178</ele>
        <time>2010-01-01T00:09:07Z</time>
      </trkpt>
      <trkpt lat="47.65856" lon="5.9838">
        <ele>178</ele>
        <time>2010-01-01T00:09:07Z</time>
      </trkpt>
      <trkpt lat="47.65855" lon="5.98382">
        <ele>179</ele>
        <time>2010-01-01T00:09:08Z</time>
      </trkpt>
      <trkpt lat="47.65854" lon="5.98384">
        <ele>179</ele>
        <time>2010-01-01T00:09:09Z</time>
      </trkpt>
      <trkpt lat="47.65853" lon="5.98387">
        <ele>180</ele>
        <time>2010-01-01T00:09:09Z</time>
      </trkpt>
      <trkpt lat="47.65852" lon="5.98389">
        <ele>180</ele>
        <time>2010-01-01T00:09:10Z</time>
      </trkpt>
      <trkpt lat="47.65852" lon="5.98391">
        <ele>181</ele>
        <time>2010-01-01T00:09:11Z</time>
      </trkpt>
      <trkpt lat="47.65851" lon="5.98394">
        <ele>181</ele>
        <time>2010-01-01T00:09:12Z</time>
      </trkpt>
      <trkpt lat="47.6585" lon="5.98396">
        <ele>181</ele>
        <time>2010-01-01T00:09:12Z</time>
      </trkpt>
      <trkpt lat="47.65849" lon="5.98399">
        <ele>181</ele>
        <time>2010-01-01T00:09:13Z</time>
      </trkpt>
      <trkpt lat="47.65848" lon="5.98401">
        <ele>181</ele>
        <time>2010-01-01T00:09:14Z</time>
      </trkpt>
      <trkpt lat="47.65847" lon="5.98403">
        <ele>181</ele>
        <time>2010-01-01T00:09:15Z</time>
      </trkpt>
      <trkpt lat="47.65846" lon="5.98406">
        <ele>181</ele>
        <time>2010-01-01T00:09:15Z</time>
      </trkpt>
      <trkpt lat="47.65845" lon="5.98408">
        <ele>181</ele>
        <time>2010-01-01T00:09:16Z</time>
      </trkpt>
      <trkpt lat="47.65844" lon="5.9841">
        <ele>181</ele>
        <time>2010-01-01T00:09:17Z</time>
      </trkpt>
      <trkpt lat="47.65843" lon="5.98412">
        <ele>181</ele>
        <time>2010-01-01T00:09:18Z</time>
      </trkpt>
      <trkpt lat="47.65842" lon="5.98415">
        <ele>182</ele>
        <time>2010-01-01T00:09:18Z</time>
      </trkpt>
      <trkpt lat="47.65841" lon="5.98417">
        <ele>182</ele>
        <time>2010-01-01T00:09:19Z</time>
      </trkpt>
      <trkpt lat="47.6584" lon="5.98419">
        <ele>183</ele>
        <time>2010-01-01T00:09:20Z</time>
      </trkpt>
      <trkpt lat="47.65839" lon="5.98421">
        <ele>183</ele>
        <time>2010-01-01T00:09:21Z</time>
      </trkpt>
      <trkpt lat="47.65838" lon="5.98423">
        <ele>183</ele>
        <time>2010-01-01T00:09:21Z</time>
      </trkpt>
      <trkpt lat="47.65836" lon="5.98426">
        <ele>183</ele>
        <time>2010-01-01T00:09:22Z</time>
      </trkpt>
      <trkpt lat="47.65835" lon="5.98428">
        <ele>183</ele>
        <time>2010-01-01T00:09:23Z</time>
      </trkpt>
      <trkpt lat="47.65834" lon="5.9843">
        <ele>183</ele>
        <time>2010-01-01T00:09:24Z</time>
      </trkpt>
      <trkpt lat="47.65833" lon="5.98432">
        <ele>183</ele>
        <time>2010-01-01T00:09:24Z</time>
      </trkpt>
      <trkpt lat="47.65832" lon="5.98434">
        <ele>183</ele>
        <time>2010-01-01T00:09:25Z</time>
      </trkpt>
      <trkpt lat="47.65831" lon="5.98436">
        <ele>183</ele>
        <time>2010-01-01T00:09:25Z</time>
      </trkpt>
      <trkpt lat="47.6583" lon="5.98438">
        <ele>183</ele>
        <time>2010-01-01T00:09:26Z</time>
      </trkpt>
      <trkpt lat="47.65828" lon="5.98439">
        <ele>184</ele>
        <time>2010-01-01T00:09:27Z</time>
      </trkpt>
      <trkpt lat="47.65827" lon="5.98441">
        <ele>184</ele>
        <time>2010-01-01T00:09:27Z</time>
      </trkpt>
      <trkpt lat="47.65826" lon="5.98443">
        <ele>185</ele>
        <time>2010-01-01T00:09:28Z</time>
      </trkpt>
      <trkpt lat="47.65825" lon="5.98445">
        <ele>185</ele>
        <time>2010-01-01T00:09:29Z</time>
      </trkpt>
      <trkpt lat="47.65824" lon="5.98446">
        <ele>185</ele>
        <time>2010-01-01T00:09:29Z</time>
      </trkpt>
      <trkpt lat="47.65823" lon="5.98448">
        <ele>185</ele>
        <time>2010-01-01T00:09:30Z</time>
      </trkpt>
      <trkpt lat="47.65822" lon="5.9845">
        <ele>185</ele>
        <time>2010-01-01T00:09:31Z</time>
      </trkpt>
      <trkpt lat="47.6582" lon="5.98451">
        <ele>185</ele>
        <time>2010-01-01T00:09:31Z</time>
      </trkpt>
      <trkpt lat="47.65819" lon="5.98454">
        <ele>185</ele>
        <time>2010-01-01T00:09:32Z</time>
      </trkpt>
      <trkpt lat="47.65818" lon="5.98455">
        <ele>185</ele>
        <time>2010-01-01T00:09:33Z</time>
      </trkpt>
      <trkpt lat="47.65817" lon="5.98457">
        <ele>185</ele>
        <time>2010-01-01T00:09:33Z</time>
      </trkpt>
      <trkpt lat="47.65816" lon="5.98459">
        <ele>185</ele>
        <time>2010-01-01T00:09:34Z</time>
      </trkpt>
      <trkpt lat="47.65815" lon="5.98461">
        <ele>186</ele>
        <time>2010-01-01T00:09:35Z</time>
      </trkpt>
      <trkpt lat="47.65815" lon="5.98463">
        <ele>186</ele>
        <time>2010-01-01T00:09:35Z</time>
      </trkpt>
      <trkpt lat="47.65814" lon="5.98465">
        <ele>187</ele>
        <time>2010-01-01T00:09:36Z</time>
      </trkpt>
      <trkpt lat="47.65815" lon="5.98467">
        <ele>187</ele>
        <time>2010-01-01T00:09:37Z</time>
      </trkpt>
      <trkpt lat="47.65816" lon="5.98469">
        <ele>187</ele>
        <time>2010-01-01T00:09:37Z</time>
      </trkpt>
      <trkpt lat="47.65817" lon="5.9847">
        <ele>187</ele>
        <time>2010-01-01T00:09:38Z</time>
      </trkpt>
      <trkpt lat="47.65819" lon="5.98471">
        <ele>187</ele>
        <time>2010-01-01T00:09:38Z</time>
      </trkpt>
      <trkpt lat="47.6582" lon="5.98472">
        <ele>187</ele>
        <time>2010-01-01T00:09:39Z</time>
      </trkpt>
      <trkpt lat="47.65822" lon="5.98473">
        <ele>188</ele>
        <time>2010-01-01T00:09:40Z</time>
      </trkpt>
      <trkpt lat="47.65823" lon="5.98474">
        <ele>188</ele>
        <time>2010-01-01T00:09:40Z</time>
      </trkpt>
      <trkpt lat="47.65825" lon="5.98476">
        <ele>188</ele>
        <time>2010-01-01T00:09:41Z</time>
      </trkpt>
      <trkpt lat="47.65826" lon="5.98477">
        <ele>189</ele>
        <time>2010-01-01T00:09:42Z</time>
      </trkpt>
      <trkpt lat="47.65828" lon="5.98478">
        <ele>189</ele>
        <time>2010-01-01T00:09:42Z</time>
      </trkpt>
      <trkpt lat="47.65829" lon="5.98479">
        <ele>189</ele>
        <time>2010-01-01T00:09:43Z</time>
      </trkpt>
      <trkpt lat="47.6583" lon="5.9848">
        <ele>189</ele>
        <time>2010-01-01T00:09:44Z</time>
      </trkpt>
      <trkpt lat="47.65832" lon="5.98481">
        <ele>189</ele>
        <time>2010-01-01T00:09:44Z</time>
      </trkpt>
      <trkpt lat="47.65833" lon="5.98482">
        <ele>189</ele>
        <time>2010-01-01T00:09:45Z</time>
      </trkpt>
      <trkpt lat="47.65835" lon="5.98483">
        <ele>189</ele>
        <time>2010-01-01T00:09:46Z</time>
      </trkpt>
      <trkpt lat="47.65836" lon="5.98484">
        <ele>189</ele>
        <time>2010-01-01T00:09:46Z</time>
      </trkpt>
      <trkpt lat="47.65837" lon="5.98485">
        <ele>189</ele>
        <time>2010-01-01T00:09:47Z</time>
      </trkpt>
      <trkpt lat="47.65839" lon="5.98486">
        <ele>189</ele>
        <time>2010-01-01T00:09:47Z</time>
      </trkpt>
      <trkpt lat="47.6584" lon="5.98487">
        <ele>189</ele>
        <time>2010-01-01T00:09:48Z</time>
      </trkpt>
      <trkpt lat="47.65841" lon="5.98488">
        <ele>189</ele>
        <time>2010-01-01T00:09:48Z</time>
      </trkpt>
      <trkpt lat="47.65842" lon="5.98489">
        <ele>189</ele>
        <time>2010-01-01T00:09:49Z</time>
      </trkpt>
      <trkpt lat="47.65844" lon="5.9849">
        <ele>189</ele>
        <time>2010-01-01T00:09:50Z</time>
      </trkpt>
      <trkpt lat="47.65845" lon="5.98491">
        <ele>189</ele>
        <time>2010-01-01T00:09:50Z</time>
      </trkpt>
      <trkpt lat="47.65846" lon="5.98492">
        <ele>189</ele>
        <time>2010-01-01T00:09:51Z</time>
      </trkpt>
      <trkpt lat="47.65847" lon="5.98493">
        <ele>189</ele>
        <time>2010-01-01T00:09:51Z</time>
      </trkpt>
      <trkpt lat="47.65849" lon="5.98494">
        <ele>190</ele>
        <time>2010-01-01T00:09:52Z</time>
      </trkpt>
      <trkpt lat="47.6585" lon="5.98495">
        <ele>190</ele>
        <time>2010-01-01T00:09:52Z</time>
      </trkpt>
      <trkpt lat="47.65851" lon="5.98496">
        <ele>191</ele>
        <time>2010-01-01T00:09:53Z</time>
      </trkpt>
      <trkpt lat="47.65852" lon="5.98497">
        <ele>191</ele>
        <time>2010-01-01T00:09:54Z</time>
      </trkpt>
      <trkpt lat="47.65854" lon="5.98498">
        <ele>191</ele>
        <time>2010-01-01T00:09:54Z</time>
      </trkpt>
      <trkpt lat="47.65855" lon="5.98499">
        <ele>191</ele>
        <time>2010-01-01T00:09:55Z</time>
      </trkpt>
      <trkpt lat="47.65856" lon="5.985">
        <ele>191</ele>
        <time>2010-01-01T00:09:55Z</time>
      </trkpt>
      <trkpt lat="47.65858" lon="5.98501">
        <ele>191</ele>
        <time>2010-01-01T00:09:56Z</time>
      </trkpt>
      <trkpt lat="47.65859" lon="5.98502">
        <ele>191</ele>
        <time>2010-01-01T00:09:57Z</time>
      </trkpt>
      <trkpt lat="47.6586" lon="5.98503">
        <ele>191</ele>
        <time>2010-01-01T00:09:57Z</time>
      </trkpt>
      <trkpt lat="47.65861" lon="5.98504">
        <ele>191</ele>
        <time>2010-01-01T00:09:58Z</time>
      </trkpt>
      <trkpt lat="47.65862" lon="5.98505">
        <ele>191</ele>
        <time>2010-01-01T00:09:58Z</time>
      </trkpt>
      <trkpt lat="47.65864" lon="5.98506">
        <ele>191</ele>
        <time>2010-01-01T00:09:59Z</time>
      </trkpt>
      <trkpt lat="47.65865" lon="5.98507">
        <ele>191</ele>
        <time>2010-01-01T00:09:59Z</time>
      </trkpt>
      <trkpt lat="47.65866" lon="5.98508">
        <ele>191</ele>
        <time>2010-01-01T00:10:00Z</time>
      </trkpt>
      <trkpt lat="47.65867" lon="5.98509">
        <ele>191</ele>
        <time>2010-01-01T00:10:00Z</time>
      </trkpt>
      <trkpt lat="47.65869" lon="5.9851">
        <ele>191</ele>
        <time>2010-01-01T00:10:01Z</time>
      </trkpt>
      <trkpt lat="47.6587" lon="5.9851">
        <ele>191</ele>
        <time>2010-01-01T00:10:02Z</time>
      </trkpt>
      <trkpt lat="47.65871" lon="5.98512">
        <ele>192</ele>
        <time>2010-01-01T00:10:02Z</time>
      </trkpt>
      <trkpt lat="47.65873" lon="5.98513">
        <ele>192</ele>
        <time>2010-01-01T00:10:03Z</time>
      </trkpt>
      <trkpt lat="47.65874" lon="5.98513">
        <ele>193</ele>
        <time>2010-01-01T00:10:03Z</time>
      </trkpt>
      <trkpt lat="47.65876" lon="5.98514">
        <ele>193</ele>
        <time>2010-01-01T00:10:04Z</time>
      </trkpt>
      <trkpt lat="47.65877" lon="5.98515">
        <ele>193</ele>
        <time>2010-01-01T00:10:05Z</time>
      </trkpt>
      <trkpt lat="47.65878" lon="5.98516">
        <ele>193</ele>
        <time>2010-01-01T00:10:05Z</time>
      </trkpt>
      <trkpt lat="47.65879" lon="5.98517">
        <ele>193</ele>
        <time>2010-01-01T00:10:06Z</time>
      </trkpt>
      <trkpt lat="47.65881" lon="5.98518">
        <ele>193</ele>
        <time>2010-01-01T00:10:06Z</time>
      </trkpt>
      <trkpt lat="47.65882" lon="5.98518">
        <ele>193</ele>
        <time>2010-01-01T00:10:07Z</time>
      </trkpt>
      <trkpt lat="47.65883" lon="5.98519">
        <ele>193</ele>
        <time>2010-01-01T00:10:07Z</time>
      </trkpt>
      <trkpt lat="47.65885" lon="5.9852">
        <ele>193</ele>
        <time>2010-01-01T00:10:08Z</time>
      </trkpt>
      <trkpt lat="47.65886" lon="5.98521">
        <ele>193</ele>
        <time>2010-01-01T00:10:09Z</time>
      </trkpt>
      <trkpt lat="47.65888" lon="5.98522">
        <ele>193</ele>
        <time>2010-01-01T00:10:09Z</time>
      </trkpt>
      <trkpt lat="47.65889" lon="5.98522">
        <ele>193</ele>
        <time>2010-01-01T00:10:10Z</time>
      </trkpt>
      <trkpt lat="47.65891" lon="5.98523">
        <ele>193</ele>
        <time>2010-01-01T00:10:11Z</time>
      </trkpt>
      <trkpt lat="47.65892" lon="5.98524">
        <ele>193</ele>
        <time>2010-01-01T00:10:11Z</time>
      </trkpt>
      <trkpt lat="47.65893" lon="5.98525">
        <ele>193</ele>
        <time>2010-01-01T00:10:12Z</time>
      </trkpt>
      <trkpt lat="47.65894" lon="5.98526">
        <ele>193</ele>
        <time>2010-01-01T00:10:12Z</time>
      </trkpt>
      <trkpt lat="47.65896" lon="5.98527">
        <ele>193</ele>
        <time>2010-01-01T00:10:13Z</time>
      </trkpt>
      <trkpt lat="47.65897" lon="5.98528">
        <ele>193</ele>
        <time>2010-01-01T00:10:14Z</time>
      </trkpt>
      <trkpt lat="47.65898" lon="5.98529">
        <ele>193</ele>
        <time>2010-01-01T00:10:14Z</time>
      </trkpt>
      <trkpt lat="47.659" lon="5.9853">
        <ele>194</ele>
        <time>2010-01-01T00:10:15Z</time>
      </trkpt>
      <trkpt lat="47.65901" lon="5.98532">
        <ele>194</ele>
        <time>2010-01-01T00:10:15Z</time>
      </trkpt>
      <trkpt lat="47.65902" lon="5.98533">
        <ele>194</ele>
        <time>2010-01-01T00:10:16Z</time>
      </trkpt>
      <trkpt lat="47.65903" lon="5.98535">
        <ele>195</ele>
        <time>2010-01-01T00:10:17Z</time>
      </trkpt>
      <trkpt lat="47.65904" lon="5.98536">
        <ele>195</ele>
        <time>2010-01-01T00:10:17Z</time>
      </trkpt>
      <trkpt lat="47.65905" lon="5.98538">
        <ele>195</ele>
        <time>2010-01-01T00:10:18Z</time>
      </trkpt>
      <trkpt lat="47.65905" lon="5.9854">
        <ele>195</ele>
        <time>2010-01-01T00:10:18Z</time>
      </trkpt>
      <trkpt lat="47.65906" lon="5.98542">
        <ele>195</ele>
        <time>2010-01-01T00:10:19Z</time>
      </trkpt>
      <trkpt lat="47.65907" lon="5.98544">
        <ele>195</ele>
        <time>2010-01-01T00:10:19Z</time>
      </trkpt>
      <trkpt lat="47.65907" lon="5.98546">
        <ele>195</ele>
        <time>2010-01-01T00:10:20Z</time>
      </trkpt>
      <trkpt lat="47.65907" lon="5.98548">
        <ele>195</ele>
        <time>2010-01-01T00:10:20Z</time>
      </trkpt>
      <trkpt lat="47.65907" lon="5.9855">
        <ele>195</ele>
        <time>2010-01-01T00:10:21Z</time>
      </trkpt>
      <trkpt lat="47.65907" lon="5.98552">
        <ele>195</ele>
        <time>2010-01-01T00:10:22Z</time>
      </trkpt>
      <trkpt lat="47.65907" lon="5.98554">
        <ele>195</ele>
        <time>2010-01-01T00:10:22Z</time>
      </trkpt>
      <trkpt lat="47.65907" lon="5.98556">
        <ele>195</ele>
        <time>2010-01-01T00:10:23Z</time>
      </trkpt>
      <trkpt lat="47.65907" lon="5.98558">
        <ele>195</ele>
        <time>2010-01-01T00:10:23Z</time>
      </trkpt>
      <trkpt lat="47.65907" lon="5.9856">
        <ele>195</ele>
        <time>2010-01-01T00:10:24Z</time>
      </trkpt>
      <trkpt lat="47.65907" lon="5.98562">
        <ele>195</ele>
        <time>2010-01-01T00:10:24Z</time>
      </trkpt>
      <trkpt lat="47.65906" lon="5.98564">
        <ele>195</ele>
        <time>2010-01-01T00:10:25Z</time>
      </trkpt>
      <trkpt lat="47.65907" lon="5.98566">
        <ele>196</ele>
        <time>2010-01-01T00:10:25Z</time>
      </trkpt>
      <trkpt lat="47.65906" lon="5.98568">
        <ele>196</ele>
        <time>2010-01-01T00:10:26Z</time>
      </trkpt>
      <trkpt lat="47.65906" lon="5.9857">
        <ele>196</ele>
        <time>2010-01-01T00:10:26Z</time>
      </trkpt>
      <trkpt lat="47.65906" lon="5.98572">
        <ele>197</ele>
        <time>2010-01-01T00:10:27Z</time>
      </trkpt>
      <trkpt lat="47.65906" lon="5.98573">
        <ele>197</ele>
        <time>2010-01-01T00:10:27Z</time>
      </trkpt>
      <trkpt lat="47.65906" lon="5.98575">
        <ele>197</ele>
        <time>2010-01-01T00:10:28Z</time>
      </trkpt>
      <trkpt lat="47.65906" lon="5.98577">
        <ele>197</ele>
        <time>2010-01-01T00:10:28Z</time>
      </trkpt>
      <trkpt lat="47.65905" lon="5.98579">
        <ele>197</ele>
        <time>2010-01-01T00:10:29Z</time>
      </trkpt>
      <trkpt lat="47.65905" lon="5.98581">
        <ele>197</ele>
        <time>2010-01-01T00:10:29Z</time>
      </trkpt>
      <trkpt lat="47.65905" lon="5.98583">
        <ele>197</ele>
        <time>2010-01-01T00:10:30Z</time>
      </trkpt>
      <trkpt lat="47.65905" lon="5.98584">
        <ele>197</ele>
        <time>2010-01-01T00:10:30Z</time>
      </trkpt>
      <trkpt lat="47.65905" lon="5.98586">
        <ele>197</ele>
        <time>2010-01-01T00:10:31Z</time>
      </trkpt>
      <trkpt lat="47.65905" lon="5.98588">
        <ele>197</ele>
        <time>2010-01-01T00:10:31Z</time>
      </trkpt>
      <trkpt lat="47.65905" lon="5.9859">
        <ele>197</ele>
        <time>2010-01-01T00:10:32Z</time>
      </trkpt>
      <trkpt lat="47.65905" lon="5.98592">
        <ele>197</ele>
        <time>2010-01-01T00:10:32Z</time>
      </trkpt>
      <trkpt lat="47.65905" lon="5.98594">
        <ele>197</ele>
        <time>2010-01-01T00:10:33Z</time>
      </trkpt>
      <trkpt lat="47.65904" lon="5.98595">
        <ele>197</ele>
        <time>2010-01-01T00:10:33Z</time>
      </trkpt>
      <trkpt lat="47.65904" lon="5.98597">
        <ele>198</ele>
        <time>2010-01-01T00:10:34Z</time>
      </trkpt>
      <trkpt lat="47.65904" lon="5.98599">
        <ele>198</ele>
        <time>2010-01-01T00:10:34Z</time>
      </trkpt>
      <trkpt lat="47.65904" lon="5.98601">
        <ele>199</ele>
        <time>2010-01-01T00:10:35Z</time>
      </trkpt>
      <trkpt lat="47.65904" lon="5.98603">
        <ele>199</ele>
        <time>2010-01-01T00:10:35Z</time>
      </trkpt>
      <trkpt lat="47.65904" lon="5.98605">
        <ele>199</ele>
        <time>2010-01-01T00:10:36Z</time>
      </trkpt>
      <trkpt lat="47.65904" lon="5.98607">
        <ele>199</ele>
        <time>2010-01-01T00:10:36Z</time>
      </trkpt>
      <trkpt lat="47.65904" lon="5.98609">
        <ele>199</ele>
        <time>2010-01-01T00:10:37Z</time>
      </trkpt>
      <trkpt lat="47.65904" lon="5.98611">
        <ele>199</ele>
        <time>2010-01-01T00:10:38Z</time>
      </trkpt>
      <trkpt lat="47.65904" lon="5.98613">
        <ele>199</ele>
        <time>2010-01-01T00:10:38Z</time>
      </trkpt>
      <trkpt lat="47.65904" lon="5.98615">
        <ele>199</ele>
        <time>2010-01-01T00:10:39Z</time>
      </trkpt>
      <trkpt lat="47.65904" lon="5.98617">
        <ele>199</ele>
        <time>2010-01-01T00:10:39Z</time>
      </trkpt>
      <trkpt lat="47.65904" lon="5.98619">
        <ele>199</ele>
        <time>2010-01-01T00:10:40Z</time>
      </trkpt>
      <trkpt lat="47.65904" lon="5.98621">
        <ele>199</ele>
        <time>2010-01-01T00:10:40Z</time>
      </trkpt>
      <trkpt lat="47.65904" lon="5.98623">
        <ele>199</ele>
        <time>2010-01-01T00:10:41Z</time>
      </trkpt>
      <trkpt lat="47.65904" lon="5.98625">
        <ele>199</ele>
        <time>2010-01-01T00:10:41Z</time>
      </trkpt>
      <trkpt lat="47.65904" lon="5.98627">
        <ele>200</ele>
        <time>2010-01-01T00:10:42Z</time>
      </trkpt>
      <trkpt lat="47.65904" lon="5.98629">
        <ele>200</ele>
        <time>2010-01-01T00:10:43Z</time>
      </trkpt>
      <trkpt lat="47.65904" lon="5.98631">
        <ele>201</ele>
        <time>2010-01-01T00:10:43Z</time>
      </trkpt>
      <trkpt lat="47.65904" lon="5.98633">
        <ele>201</ele>
        <time>2010-01-01T00:10:44Z</time>
      </trkpt>
      <trkpt lat="47.65904" lon="5.98636">
        <ele>201</ele>
        <time>2010-01-01T00:10:44Z</time>
      </trkpt>
      <trkpt lat="47.65904" lon="5.98638">
        <ele>201</ele>
        <time>2010-01-01T00:10:45Z</time>
      </trkpt>
      <trkpt lat="47.65904" lon="5.9864">
        <ele>201</ele>
        <time>2010-01-01T00:10:45Z</time>
      </trkpt>
      <trkpt lat="47.65904" lon="5.98642">
        <ele>201</ele>
        <time>2010-01-01T00:10:46Z</time>
      </trkpt>
      <trkpt lat="47.65904" lon="5.98644">
        <ele>201</ele>
        <time>2010-01-01T00:10:46Z</time>
      </trkpt>
      <trkpt lat="47.65904" lon="5.98646">
        <ele>201</ele>
        <time>2010-01-01T00:10:47Z</time>
      </trkpt>
      <trkpt lat="47.65904" lon="5.98648">
        <ele>201</ele>
        <time>2010-01-01T00:10:48Z</time>
      </trkpt>
      <trkpt lat="47.65904" lon="5.9865">
        <ele>201</ele>
        <time>2010-01-01T00:10:48Z</time>
      </trkpt>
      <trkpt lat="47.65904" lon="5.98652">
        <ele>201</ele>
        <time>2010-01-01T00:10:49Z</time>
      </trkpt>
      <trkpt lat="47.65904" lon="5.98654">
        <ele>201</ele>
        <time>2010-01-01T00:10:49Z</time>
      </trkpt>
      <trkpt lat="47.65904" lon="5.98656">
        <ele>201</ele>
        <time>2010-01-01T00:10:50Z</time>
      </trkpt>
      <trkpt lat="47.65904" lon="5.98657">
        <ele>201</ele>
        <time>2010-01-01T00:10:50Z</time>
      </trkpt>
      <trkpt lat="47.65904" lon="5.98659">
        <ele>202</ele>
        <time>2010-01-01T00:10:51Z</time>
      </trkpt>
      <trkpt lat="47.65904" lon="5.98661">
        <ele>203</ele>
        <time>2010-01-01T00:10:51Z</time>
      </trkpt>
      <trkpt lat="47.65904" lon="5.98663">
        <ele>203</ele>
        <time>2010-01-01T00:10:52Z</time>
      </trkpt>
      <trkpt lat="47.65903" lon="5.98665">
        <ele>203</ele>
        <time>2010-01-01T00:10:52Z</time>
      </trkpt>
      <trkpt lat="47.65903" lon="5.98668">
        <ele>203</ele>
        <time>2010-01-01T00:10:53Z</time>
      </trkpt>
      <trkpt lat="47.65903" lon="5.98669">
        <ele>203</ele>
        <time>2010-01-01T00:10:53Z</time>
      </trkpt>
      <trkpt lat="47.65903" lon="5.98671">
        <ele>203</ele>
        <time>2010-01-01T00:10:54Z</time>
      </trkpt>
      <trkpt lat="47.65903" lon="5.98673">
        <ele>203</ele>
        <time>2010-01-01T00:10:55Z</time>
      </trkpt>
      <trkpt lat="47.65903" lon="5.98676">
        <ele>203</ele>
        <time>2010-01-01T00:10:55Z</time>
      </trkpt>
      <trkpt lat="47.65903" lon="5.98678">
        <ele>203</ele>
        <time>2010-01-01T00:10:56Z</time>
      </trkpt>
      <trkpt lat="47.65904" lon="5.98681">
        <ele>203</ele>
        <time>2010-01-01T00:10:56Z</time>
      </trkpt>
      <trkpt lat="47.65903" lon="5.98684">
        <ele>203</ele>
        <time>2010-01-01T00:10:57Z</time>
      </trkpt>
      <trkpt lat="47.65903" lon="5.98687">
        <ele>203</ele>
        <time>2010-01-01T00:10:58Z</time>
      </trkpt>
      <trkpt lat="47.65903" lon="5.9869">
        <ele>203</ele>
        <time>2010-01-01T00:10:59Z</time>
      </trkpt>
      <trkpt lat="47.65903" lon="5.98692">
        <ele>203</ele>
        <time>2010-01-01T00:11:00Z</time>
      </trkpt>
      <trkpt lat="47.65903" lon="5.98695">
        <ele>203</ele>
        <time>2010-01-01T00:11:00Z</time>
      </trkpt>
      <trkpt lat="47.65902" lon="5.98697">
        <ele>203</ele>
        <time>2010-01-01T00:11:01Z</time>
      </trkpt>
      <trkpt lat="47.65902" lon="5.98699">
        <ele>204</ele>
        <time>2010-01-01T00:11:02Z</time>
      </trkpt>
      <trkpt lat="47.65902" lon="5.98702">
        <ele>204</ele>
        <time>2010-01-01T00:11:02Z</time>
      </trkpt>
      <trkpt lat="47.65902" lon="5.98704">
        <ele>205</ele>
        <time>2010-01-01T00:11:03Z</time>
      </trkpt>
      <trkpt lat="47.65902" lon="5.98706">
        <ele>205</ele>
        <time>2010-01-01T00:11:03Z</time>
      </trkpt>
      <trkpt lat="47.65902" lon="5.98708">
        <ele>206</ele>
        <time>2010-01-01T00:11:04Z</time>
      </trkpt>
      <trkpt lat="47.65903" lon="5.98711">
        <ele>206</ele>
        <time>2010-01-01T00:11:05Z</time>
      </trkpt>
      <trkpt lat="47.65902" lon="5.98713">
        <ele>206</ele>
        <time>2010-01-01T00:11:05Z</time>
      </trkpt>
      <trkpt lat="47.65902" lon="5.98715">
        <ele>206</ele>
        <time>2010-01-01T00:11:06Z</time>
      </trkpt>
      <trkpt lat="47.65902" lon="5.98717">
        <ele>206</ele>
        <time>2010-01-01T00:11:06Z</time>
      </trkpt>
      <trkpt lat="47.65902" lon="5.98719">
        <ele>206</ele>
        <time>2010-01-01T00:11:07Z</time>
      </trkpt>
      <trkpt lat="47.65902" lon="5.98722">
        <ele>206</ele>
        <time>2010-01-01T00:11:08Z</time>
      </trkpt>
      <trkpt lat="47.65902" lon="5.98724">
        <ele>206</ele>
        <time>2010-01-01T00:11:08Z</time>
      </trkpt>
      <trkpt lat="47.65902" lon="5.98726">
        <ele>206</ele>
        <time>2010-01-01T00:11:09Z</time>
      </trkpt>
      <trkpt lat="47.65902" lon="5.98729">
        <ele>206</ele>
        <time>2010-01-01T00:11:09Z</time>
      </trkpt>
      <trkpt lat="47.65901" lon="5.98731">
        <ele>206</ele>
        <time>2010-01-01T00:11:10Z</time>
      </trkpt>
      <trkpt lat="47.65901" lon="5.98733">
        <ele>206</ele>
        <time>2010-01-01T00:11:11Z</time>
      </trkpt>
      <trkpt lat="47.65901" lon="5.98735">
        <ele>206</ele>
        <time>2010-01-01T00:11:11Z</time>
      </trkpt>
      <trkpt lat="47.65901" lon="5.98737">
        <ele>206</ele>
        <time>2010-01-01T00:11:12Z</time>
      </trkpt>
      <trkpt lat="47.659" lon="5.98739">
        <ele>206</ele>
        <time>2010-01-01T00:11:12Z</time>
      </trkpt>
      <trkpt lat="47.659" lon="5.98741">
        <ele>207</ele>
        <time>2010-01-01T00:11:13Z</time>
      </trkpt>
      <trkpt lat="47.659" lon="5.98744">
        <ele>207</ele>
        <time>2010-01-01T00:11:14Z</time>
      </trkpt>
      <trkpt lat="47.659" lon="5.98746">
        <ele>208</ele>
        <time>2010-01-01T00:11:14Z</time>
      </trkpt>
      <trkpt lat="47.659" lon="5.98748">
        <ele>208</ele>
        <time>2010-01-01T00:11:15Z</time>
      </trkpt>
      <trkpt lat="47.659" lon="5.98751">
        <ele>208</ele>
        <time>2010-01-01T00:11:15Z</time>
      </trkpt>
      <trkpt lat="47.65899" lon="5.98753">
        <ele>208</ele>
        <time>2010-01-01T00:11:16Z</time>
      </trkpt>
      <trkpt lat="47.65899" lon="5.98755">
        <ele>208</ele>
        <time>2010-01-01T00:11:17Z</time>
      </trkpt>
      <trkpt lat="47.65899" lon="5.98758">
        <ele>208</ele>
        <time>2010-01-01T00:11:17Z</time>
      </trkpt>
      <trkpt lat="47.65898" lon="5.9876">
        <ele>208</ele>
        <time>2010-01-01T00:11:18Z</time>
      </trkpt>
      <trkpt lat="47.65898" lon="5.98762">
        <ele>208</ele>
        <time>2010-01-01T00:11:19Z</time>
      </trkpt>
      <trkpt lat="47.65898" lon="5.98764">
        <ele>208</ele>
        <time>2010-01-01T00:11:19Z</time>
      </trkpt>
      <trkpt lat="47.65898" lon="5.98767">
        <ele>208</ele>
        <time>2010-01-01T00:11:20Z</time>
      </trkpt>
      <trkpt lat="47.65898" lon="5.98769">
        <ele>208</ele>
        <time>2010-01-01T00:11:20Z</time>
      </trkpt>
      <trkpt lat="47.65897" lon="5.98771">
        <ele>208</ele>
        <time>2010-01-01T00:11:21Z</time>
      </trkpt>
      <trkpt lat="47.65897" lon="5.98773">
        <ele>208</ele>
        <time>2010-01-01T00:11:22Z</time>
      </trkpt>
      <trkpt lat="47.65897" lon="5.98776">
        <ele>208</ele>
        <time>2010-01-01T00:11:22Z</time>
      </trkpt>
      <trkpt lat="47.65897" lon="5.98778">
        <ele>208</ele>
        <time>2010-01-01T00:11:23Z</time>
      </trkpt>
      <trkpt lat="47.65896" lon="5.9878">
        <ele>208</ele>
        <time>2010-01-01T00:11:24Z</time>
      </trkpt>
      <trkpt lat="47.65896" lon="5.98782">
        <ele>208</ele>
        <time>2010-01-01T00:11:24Z</time>
      </trkpt>
      <trkpt lat="47.65895" lon="5.98784">
        <ele>209</ele>
        <time>2010-01-01T00:11:25Z</time>
      </trkpt>
      <trkpt lat="47.65895" lon="5.98786">
        <ele>209</ele>
        <time>2010-01-01T00:11:25Z</time>
      </trkpt>
      <trkpt lat="47.65895" lon="5.98788">
        <ele>210</ele>
        <time>2010-01-01T00:11:26Z</time>
      </trkpt>
      <trkpt lat="47.65895" lon="5.9879">
        <ele>210</ele>
        <time>2010-01-01T00:11:26Z</time>
      </trkpt>
      <trkpt lat="47.65894" lon="5.98792">
        <ele>210</ele>
        <time>2010-01-01T00:11:27Z</time>
      </trkpt>
      <trkpt lat="47.65894" lon="5.98795">
        <ele>210</ele>
        <time>2010-01-01T00:11:28Z</time>
      </trkpt>
      <trkpt lat="47.65894" lon="5.98797">
        <ele>210</ele>
        <time>2010-01-01T00:11:28Z</time>
      </trkpt>
      <trkpt lat="47.65894" lon="5.98799">
        <ele>210</ele>
        <time>2010-01-01T00:11:29Z</time>
      </trkpt>
      <trkpt lat="47.65893" lon="5.98801">
        <ele>210</ele>
        <time>2010-01-01T00:11:29Z</time>
      </trkpt>
      <trkpt lat="47.65893" lon="5.98803">
        <ele>210</ele>
        <time>2010-01-01T00:11:30Z</time>
      </trkpt>
      <trkpt lat="47.65893" lon="5.98805">
        <ele>210</ele>
        <time>2010-01-01T00:11:30Z</time>
      </trkpt>
      <trkpt lat="47.65893" lon="5.98807">
        <ele>210</ele>
        <time>2010-01-01T00:11:31Z</time>
      </trkpt>
      <trkpt lat="47.65893" lon="5.98809">
        <ele>210</ele>
        <time>2010-01-01T00:11:32Z</time>
      </trkpt>
      <trkpt lat="47.65892" lon="5.98811">
        <ele>210</ele>
        <time>2010-01-01T00:11:32Z</time>
      </trkpt>
      <trkpt lat="47.65892" lon="5.98813">
        <ele>210</ele>
        <time>2010-01-01T00:11:33Z</time>
      </trkpt>
      <trkpt lat="47.65892" lon="5.98815">
        <ele>210</ele>
        <time>2010-01-01T00:11:33Z</time>
      </trkpt>
      <trkpt lat="47.65892" lon="5.98817">
        <ele>210</ele>
        <time>2010-01-01T00:11:34Z</time>
      </trkpt>
      <trkpt lat="47.65892" lon="5.98819">
        <ele>210</ele>
        <time>2010-01-01T00:11:34Z</time>
      </trkpt>
      <trkpt lat="47.65891" lon="5.98821">
        <ele>210</ele>
        <time>2010-01-01T00:11:35Z</time>
      </trkpt>
      <trkpt lat="47.65891" lon="5.98823">
        <ele>211</ele>
        <time>2010-01-01T00:11:35Z</time>
      </trkpt>
      <trkpt lat="47.65891" lon="5.98826">
        <ele>212</ele>
        <time>2010-01-01T00:11:36Z</time>
      </trkpt>
      <trkpt lat="47.6589" lon="5.98828">
        <ele>212</ele>
        <time>2010-01-01T00:11:37Z</time>
      </trkpt>
      <trkpt lat="47.6589" lon="5.9883">
        <ele>212</ele>
        <time>2010-01-01T00:11:37Z</time>
      </trkpt>
      <trkpt lat="47.6589" lon="5.98832">
        <ele>212</ele>
        <time>2010-01-01T00:11:38Z</time>
      </trkpt>
      <trkpt lat="47.6589" lon="5.98834">
        <ele>212</ele>
        <time>2010-01-01T00:11:38Z</time>
      </trkpt>
      <trkpt lat="47.65889" lon="5.98836">
        <ele>212</ele>
        <time>2010-01-01T00:11:39Z</time>
      </trkpt>
      <trkpt lat="47.65889" lon="5.98838">
        <ele>212</ele>
        <time>2010-01-01T00:11:40Z</time>
      </trkpt>
      <trkpt lat="47.65889" lon="5.98841">
        <ele>212</ele>
        <time>2010-01-01T00:11:40Z</time>
      </trkpt>
      <trkpt lat="47.65888" lon="5.98843">
        <ele>212</ele>
        <time>2010-01-01T00:11:41Z</time>
      </trkpt>
      <trkpt lat="47.65888" lon="5.98845">
        <ele>212</ele>
        <time>2010-01-01T00:11:41Z</time>
      </trkpt>
      <trkpt lat="47.65888" lon="5.98847">
        <ele>212</ele>
        <time>2010-01-01T00:11:42Z</time>
      </trkpt>
      <trkpt lat="47.65888" lon="5.98849">
        <ele>212</ele>
        <time>2010-01-01T00:11:43Z</time>
      </trkpt>
      <trkpt lat="47.65887" lon="5.98851">
        <ele>212</ele>
        <time>2010-01-01T00:11:43Z</time>
      </trkpt>
      <trkpt lat="47.65887" lon="5.98854">
        <ele>212</ele>
        <time>2010-01-01T00:11:44Z</time>
      </trkpt>
      <trkpt lat="47.65887" lon="5.98856">
        <ele>212</ele>
        <time>2010-01-01T00:11:44Z</time>
      </trkpt>
      <trkpt lat="47.65887" lon="5.98858">
        <ele>212</ele>
        <time>2010-01-01T00:11:45Z</time>
      </trkpt>
      <trkpt lat="47.65886" lon="5.9886">
        <ele>212</ele>
        <time>2010-01-01T00:11:45Z</time>
      </trkpt>
      <trkpt lat="47.65886" lon="5.98862">
        <ele>212</ele>
        <time>2010-01-01T00:11:46Z</time>
      </trkpt>
      <trkpt lat="47.65886" lon="5.98864">
        <ele>213</ele>
        <time>2010-01-01T00:11:47Z</time>
      </trkpt>
      <trkpt lat="47.65886" lon="5.98866">
        <ele>213</ele>
        <time>2010-01-01T00:11:47Z</time>
      </trkpt>
      <trkpt lat="47.65885" lon="5.98869">
        <ele>214</ele>
        <time>2010-01-01T00:11:48Z</time>
      </trkpt>
      <trkpt lat="47.65885" lon="5.98871">
        <ele>214</ele>
        <time>2010-01-01T00:11:48Z</time>
      </trkpt>
      <trkpt lat="47.65885" lon="5.98873">
        <ele>214</ele>
        <time>2010-01-01T00:11:49Z</time>
      </trkpt>
      <trkpt lat="47.65884" lon="5.98875">
        <ele>214</ele>
        <time>2010-01-01T00:11:50Z</time>
      </trkpt>
      <trkpt lat="47.65884" lon="5.98877">
        <ele>214</ele>
        <time>2010-01-01T00:11:50Z</time>
      </trkpt>
      <trkpt lat="47.65884" lon="5.9888">
        <ele>214</ele>
        <time>2010-01-01T00:11:51Z</time>
      </trkpt>
      <trkpt lat="47.65883" lon="5.98882">
        <ele>214</ele>
        <time>2010-01-01T00:11:51Z</time>
      </trkpt>
      <trkpt lat="47.65883" lon="5.98884">
        <ele>214</ele>
        <time>2010-01-01T00:11:52Z</time>
      </trkpt>
      <trkpt lat="47.65883" lon="5.98886">
        <ele>214</ele>
        <time>2010-01-01T00:11:53Z</time>
      </trkpt>
      <trkpt lat="47.65883" lon="5.98888">
        <ele>214</ele>
        <time>2010-01-01T00:11:53Z</time>
      </trkpt>
      <trkpt lat="47.65883" lon="5.98891">
        <ele>214</ele>
        <time>2010-01-01T00:11:54Z</time>
      </trkpt>
      <trkpt lat="47.65882" lon="5.98893">
        <ele>214</ele>
        <time>2010-01-01T00:11:54Z</time>
      </trkpt>
      <trkpt lat="47.65882" lon="5.98895">
        <ele>214</ele>
        <time>2010-01-01T00:11:55Z</time>
      </trkpt>
      <trkpt lat="47.65882" lon="5.98898">
        <ele>214</ele>
        <time>2010-01-01T00:11:56Z</time>
      </trkpt>
      <trkpt lat="47.65881" lon="5.989">
        <ele>214</ele>
        <time>2010-01-01T00:11:57Z</time>
      </trkpt>
      <trkpt lat="47.65881" lon="5.98902">
        <ele>214</ele>
        <time>2010-01-01T00:11:57Z</time>
      </trkpt>
      <trkpt lat="47.65881" lon="5.98905">
        <ele>214</ele>
        <time>2010-01-01T00:11:58Z</time>
      </trkpt>
      <trkpt lat="47.65881" lon="5.98907">
        <ele>214</ele>
        <time>2010-01-01T00:11:58Z</time>
      </trkpt>
      <trkpt lat="47.65881" lon="5.98909">
        <ele>214</ele>
        <time>2010-01-01T00:11:59Z</time>
      </trkpt>
      <trkpt lat="47.6588" lon="5.98911">
        <ele>214</ele>
        <time>2010-01-01T00:12:00Z</time>
      </trkpt>
      <trkpt lat="47.6588" lon="5.98914">
        <ele>215</ele>
        <time>2010-01-01T00:12:00Z</time>
      </trkpt>
      <trkpt lat="47.6588" lon="5.98916">
        <ele>215</ele>
        <time>2010-01-01T00:12:01Z</time>
      </trkpt>
      <trkpt lat="47.65879" lon="5.98919">
        <ele>215</ele>
        <time>2010-01-01T00:12:02Z</time>
      </trkpt>
      <trkpt lat="47.65879" lon="5.98921">
        <ele>216</ele>
        <time>2010-01-01T00:12:02Z</time>
      </trkpt>
      <trkpt lat="47.65878" lon="5.98924">
        <ele>216</ele>
        <time>2010-01-01T00:12:03Z</time>
      </trkpt>
      <trkpt lat="47.65878" lon="5.98926">
        <ele>216</ele>
        <time>2010-01-01T00:12:04Z</time>
      </trkpt>
      <trkpt lat="47.65878" lon="5.98929">
        <ele>216</ele>
        <time>2010-01-01T00:12:04Z</time>
      </trkpt>
      <trkpt lat="47.65878" lon="5.98931">
        <ele>216</ele>
        <time>2010-01-01T00:12:05Z</time>
      </trkpt>
      <trkpt lat="47.65877" lon="5.98934">
        <ele>216</ele>
        <time>2010-01-01T00:12:06Z</time>
      </trkpt>
      <trkpt lat="47.65877" lon="5.98937">
        <ele>216</ele>
        <time>2010-01-01T00:12:07Z</time>
      </trkpt>
      <trkpt lat="47.65877" lon="5.9894">
        <ele>216</ele>
        <time>2010-01-01T00:12:07Z</time>
      </trkpt>
      <trkpt lat="47.65876" lon="5.98942">
        <ele>216</ele>
        <time>2010-01-01T00:12:08Z</time>
      </trkpt>
      <trkpt lat="47.65876" lon="5.98945">
        <ele>216</ele>
        <time>2010-01-01T00:12:09Z</time>
      </trkpt>
      <trkpt lat="47.65876" lon="5.98948">
        <ele>216</ele>
        <time>2010-01-01T00:12:10Z</time>
      </trkpt>
      <trkpt lat="47.65875" lon="5.98951">
        <ele>216</ele>
        <time>2010-01-01T00:12:10Z</time>
      </trkpt>
      <trkpt lat="47.65875" lon="5.98954">
        <ele>216</ele>
        <time>2010-01-01T00:12:11Z</time>
      </trkpt>
      <trkpt lat="47.65874" lon="5.98957">
        <ele>216</ele>
        <time>2010-01-01T00:12:12Z</time>
      </trkpt>
      <trkpt lat="47.65874" lon="5.9896">
        <ele>216</ele>
        <time>2010-01-01T00:12:13Z</time>
      </trkpt>
      <trkpt lat="47.65874" lon="5.98963">
        <ele>216</ele>
        <time>2010-01-01T00:12:14Z</time>
      </trkpt>
      <trkpt lat="47.65874" lon="5.98966">
        <ele>216</ele>
        <time>2010-01-01T00:12:15Z</time>
      </trkpt>
      <trkpt lat="47.65875" lon="5.98969">
        <ele>216</ele>
        <time>2010-01-01T00:12:15Z</time>
      </trkpt>
      <trkpt lat="47.65876" lon="5.98972">
        <ele>216</ele>
        <time>2010-01-01T00:12:16Z</time>
      </trkpt>
      <trkpt lat="47.65877" lon="5.98974">
        <ele>216</ele>
        <time>2010-01-01T00:12:17Z</time>
      </trkpt>
      <trkpt lat="47.65878" lon="5.98976">
        <ele>216</ele>
        <time>2010-01-01T00:12:18Z</time>
      </trkpt>
      <trkpt lat="47.6588" lon="5.98978">
        <ele>216</ele>
        <time>2010-01-01T00:12:19Z</time>
      </trkpt>
      <trkpt lat="47.65882" lon="5.98979">
        <ele>216</ele>
        <time>2010-01-01T00:12:19Z</time>
      </trkpt>
      <trkpt lat="47.65883" lon="5.98981">
        <ele>216</ele>
        <time>2010-01-01T00:12:20Z</time>
      </trkpt>
      <trkpt lat="47.65885" lon="5.98982">
        <ele>216</ele>
        <time>2010-01-01T00:12:21Z</time>
      </trkpt>
      <trkpt lat="47.65887" lon="5.98982">
        <ele>216</ele>
        <time>2010-01-01T00:12:22Z</time>
      </trkpt>
      <trkpt lat="47.65889" lon="5.98983">
        <ele>216</ele>
        <time>2010-01-01T00:12:22Z</time>
      </trkpt>
      <trkpt lat="47.65891" lon="5.98984">
        <ele>216</ele>
        <time>2010-01-01T00:12:23Z</time>
      </trkpt>
      <trkpt lat="47.65893" lon="5.98985">
        <ele>216</ele>
        <time>2010-01-01T00:12:24Z</time>
      </trkpt>
      <trkpt lat="47.65894" lon="5.98985">
        <ele>217</ele>
        <time>2010-01-01T00:12:25Z</time>
      </trkpt>
      <trkpt lat="47.65896" lon="5.98986">
        <ele>217</ele>
        <time>2010-01-01T00:12:26Z</time>
      </trkpt>
      <trkpt lat="47.65898" lon="5.98986">
        <ele>217</ele>
        <time>2010-01-01T00:12:26Z</time>
      </trkpt>
      <trkpt lat="47.65901" lon="5.98987">
        <ele>218</ele>
        <time>2010-01-01T00:12:27Z</time>
      </trkpt>
      <trkpt lat="47.65903" lon="5.98988">
        <ele>218</ele>
        <time>2010-01-01T00:12:28Z</time>
      </trkpt>
      <trkpt lat="47.65905" lon="5.98988">
        <ele>218</ele>
        <time>2010-01-01T00:12:29Z</time>
      </trkpt>
      <trkpt lat="47.65907" lon="5.98989">
        <ele>218</ele>
        <time>2010-01-01T00:12:30Z</time>
      </trkpt>
      <trkpt lat="47.65909" lon="5.9899">
        <ele>218</ele>
        <time>2010-01-01T00:12:31Z</time>
      </trkpt>
      <trkpt lat="47.65911" lon="5.98991">
        <ele>218</ele>
        <time>2010-01-01T00:12:32Z</time>
      </trkpt>
      <trkpt lat="47.65913" lon="5.98992">
        <ele>218</ele>
        <time>2010-01-01T00:12:33Z</time>
      </trkpt>
      <trkpt lat="47.65915" lon="5.98993">
        <ele>218</ele>
        <time>2010-01-01T00:12:33Z</time>
      </trkpt>
      <trkpt lat="47.65917" lon="5.98993">
        <ele>218</ele>
        <time>2010-01-01T00:12:34Z</time>
      </trkpt>
      <trkpt lat="47.65919" lon="5.98994">
        <ele>218</ele>
        <time>2010-01-01T00:12:35Z</time>
      </trkpt>
      <trkpt lat="47.65921" lon="5.98995">
        <ele>218</ele>
        <time>2010-01-01T00:12:36Z</time>
      </trkpt>
      <trkpt lat="47.65924" lon="5.98996">
        <ele>218</ele>
        <time>2010-01-01T00:12:37Z</time>
      </trkpt>
      <trkpt lat="47.65926" lon="5.98997">
        <ele>218</ele>
        <time>2010-01-01T00:12:38Z</time>
      </trkpt>
      <trkpt lat="47.65928" lon="5.98998">
        <ele>218</ele>
        <time>2010-01-01T00:12:38Z</time>
      </trkpt>
      <trkpt lat="47.6593" lon="5.98999">
        <ele>218</ele>
        <time>2010-01-01T00:12:39Z</time>
      </trkpt>
      <trkpt lat="47.65931" lon="5.99">
        <ele>218</ele>
        <time>2010-01-01T00:12:40Z</time>
      </trkpt>
      <trkpt lat="47.65934" lon="5.99">
        <ele>218</ele>
        <time>2010-01-01T00:12:41Z</time>
      </trkpt>
      <trkpt lat="47.65936" lon="5.99001">
        <ele>218</ele>
        <time>2010-01-01T00:12:42Z</time>
      </trkpt>
      <trkpt lat="47.65938" lon="5.99002">
        <ele>218</ele>
        <time>2010-01-01T00:12:43Z</time>
      </trkpt>
      <trkpt lat="47.6594" lon="5.99003">
        <ele>218</ele>
        <time>2010-01-01T00:12:44Z</time>
      </trkpt>
      <trkpt lat="47.65943" lon="5.99003">
        <ele>218</ele>
        <time>2010-01-01T00:12:45Z</time>
      </trkpt>
      <trkpt lat="47.65945" lon="5.99004">
        <ele>218</ele>
        <time>2010-01-01T00:12:46Z</time>
      </trkpt>
      <trkpt lat="47.65947" lon="5.99005">
        <ele>218</ele>
        <time>2010-01-01T00:12:47Z</time>
      </trkpt>
      <trkpt lat="47.65949" lon="5.99006">
        <ele>218</ele>
        <time>2010-01-01T00:12:47Z</time>
      </trkpt>
      <trkpt lat="47.65951" lon="5.99007">
        <ele>218</ele>
        <time>2010-01-01T00:12:48Z</time>
      </trkpt>
      <trkpt lat="47.65953" lon="5.99008">
        <ele>218</ele>
        <time>2010-01-01T00:12:49Z</time>
      </trkpt>
      <trkpt lat="47.65955" lon="5.99008">
        <ele>218</ele>
        <time>2010-01-01T00:12:50Z</time>
      </trkpt>
      <trkpt lat="47.65958" lon="5.99009">
        <ele>218</ele>
        <time>2010-01-01T00:12:51Z</time>
      </trkpt>
      <trkpt lat="47.6596" lon="5.9901">
        <ele>218</ele>
        <time>2010-01-01T00:12:52Z</time>
      </trkpt>
      <trkpt lat="47.65962" lon="5.99011">
        <ele>218</ele>
        <time>2010-01-01T00:12:53Z</time>
      </trkpt>
      <trkpt lat="47.65964" lon="5.99012">
        <ele>218</ele>
        <time>2010-01-01T00:12:54Z</time>
      </trkpt>
      <trkpt lat="47.65966" lon="5.99013">
        <ele>218</ele>
        <time>2010-01-01T00:12:55Z</time>
      </trkpt>
      <trkpt lat="47.65969" lon="5.99014">
        <ele>218</ele>
        <time>2010-01-01T00:12:56Z</time>
      </trkpt>
      <trkpt lat="47.65971" lon="5.99016">
        <ele>218</ele>
        <time>2010-01-01T00:12:57Z</time>
      </trkpt>
      <trkpt lat="47.65974" lon="5.99017">
        <ele>218</ele>
        <time>2010-01-01T00:12:58Z</time>
      </trkpt>
      <trkpt lat="47.65976" lon="5.99019">
        <ele>219</ele>
        <time>2010-01-01T00:12:59Z</time>
      </trkpt>
      <trkpt lat="47.65978" lon="5.9902">
        <ele>219</ele>
        <time>2010-01-01T00:13:00Z</time>
      </trkpt>
      <trkpt lat="47.6598" lon="5.99022">
        <ele>219</ele>
        <time>2010-01-01T00:13:01Z</time>
      </trkpt>
      <trkpt lat="47.65982" lon="5.99023">
        <ele>220</ele>
        <time>2010-01-01T00:13:02Z</time>
      </trkpt>
      <trkpt lat="47.65984" lon="5.99025">
        <ele>220</ele>
        <time>2010-01-01T00:13:03Z</time>
      </trkpt>
      <trkpt lat="47.65986" lon="5.99028">
        <ele>220</ele>
        <time>2010-01-01T00:13:04Z</time>
      </trkpt>
      <trkpt lat="47.65988" lon="5.99031">
        <ele>220</ele>
        <time>2010-01-01T00:13:05Z</time>
      </trkpt>
      <trkpt lat="47.6599" lon="5.99034">
        <ele>220</ele>
        <time>2010-01-01T00:13:06Z</time>
      </trkpt>
      <trkpt lat="47.65991" lon="5.99037">
        <ele>220</ele>
        <time>2010-01-01T00:13:07Z</time>
      </trkpt>
      <trkpt lat="47.65993" lon="5.99039">
        <ele>220</ele>
        <time>2010-01-01T00:13:08Z</time>
      </trkpt>
      <trkpt lat="47.65995" lon="5.99042">
        <ele>220</ele>
        <time>2010-01-01T00:13:09Z</time>
      </trkpt>
      <trkpt lat="47.65996" lon="5.99045">
        <ele>220</ele>
        <time>2010-01-01T00:13:10Z</time>
      </trkpt>
      <trkpt lat="47.65998" lon="5.99048">
        <ele>220</ele>
        <time>2010-01-01T00:13:11Z</time>
      </trkpt>
      <trkpt lat="47.65999" lon="5.99052">
        <ele>220</ele>
        <time>2010-01-01T00:13:12Z</time>
      </trkpt>
      <trkpt lat="47.66001" lon="5.99055">
        <ele>220</ele>
        <time>2010-01-01T00:13:13Z</time>
      </trkpt>
      <trkpt lat="47.66003" lon="5.99058">
        <ele>220</ele>
        <time>2010-01-01T00:13:14Z</time>
      </trkpt>
      <trkpt lat="47.66005" lon="5.99062">
        <ele>220</ele>
        <time>2010-01-01T00:13:15Z</time>
      </trkpt>
      <trkpt lat="47.66006" lon="5.99065">
        <ele>220</ele>
        <time>2010-01-01T00:13:16Z</time>
      </trkpt>
      <trkpt lat="47.66008" lon="5.99068">
        <ele>220</ele>
        <time>2010-01-01T00:13:17Z</time>
      </trkpt>
      <trkpt lat="47.66009" lon="5.99071">
        <ele>220</ele>
        <time>2010-01-01T00:13:18Z</time>
      </trkpt>
      <trkpt lat="47.66011" lon="5.99074">
        <ele>220</ele>
        <time>2010-01-01T00:13:19Z</time>
      </trkpt>
      <trkpt lat="47.66012" lon="5.99077">
        <ele>220</ele>
        <time>2010-01-01T00:13:20Z</time>
      </trkpt>
      <trkpt lat="47.66014" lon="5.9908">
        <ele>220</ele>
        <time>2010-01-01T00:13:21Z</time>
      </trkpt>
      <trkpt lat="47.66015" lon="5.99083">
        <ele>220</ele>
        <time>2010-01-01T00:13:22Z</time>
      </trkpt>
      <trkpt lat="47.66017" lon="5.99086">
        <ele>220</ele>
        <time>2010-01-01T00:13:23Z</time>
      </trkpt>
      <trkpt lat="47.66019" lon="5.99089">
        <ele>220</ele>
        <time>2010-01-01T00:13:25Z</time>
      </trkpt>
      <trkpt lat="47.6602" lon="5.99092">
        <ele>220</ele>
        <time>2010-01-01T00:13:26Z</time>
      </trkpt>
      <trkpt lat="47.66022" lon="5.99095">
        <ele>220</ele>
        <time>2010-01-01T00:13:27Z</time>
      </trkpt>
      <trkpt lat="47.66023" lon="5.99098">
        <ele>220</ele>
        <time>2010-01-01T00:13:28Z</time>
      </trkpt>
      <trkpt lat="47.66025" lon="5.99101">
        <ele>220</ele>
        <time>2010-01-01T00:13:29Z</time>
      </trkpt>
      <trkpt lat="47.66027" lon="5.99104">
        <ele>220</ele>
        <time>2010-01-01T00:13:30Z</time>
      </trkpt>
      <trkpt lat="47.66028" lon="5.99107">
        <ele>220</ele>
        <time>2010-01-01T00:13:31Z</time>
      </trkpt>
      <trkpt lat="47.6603" lon="5.99111">
        <ele>220</ele>
        <time>2010-01-01T00:13:32Z</time>
      </trkpt>
      <trkpt lat="47.66031" lon="5.99114">
        <ele>220</ele>
        <time>2010-01-01T00:13:33Z</time>
      </trkpt>
      <trkpt lat="47.66033" lon="5.99117">
        <ele>220</ele>
        <time>2010-01-01T00:13:34Z</time>
      </trkpt>
      <trkpt lat="47.66035" lon="5.9912">
        <ele>220</ele>
        <time>2010-01-01T00:13:35Z</time>
      </trkpt>
      <trkpt lat="47.66036" lon="5.99124">
        <ele>220</ele>
        <time>2010-01-01T00:13:36Z</time>
      </trkpt>
      <trkpt lat="47.66038" lon="5.99127">
        <ele>220</ele>
        <time>2010-01-01T00:13:37Z</time>
      </trkpt>
      <trkpt lat="47.6604" lon="5.9913">
        <ele>220</ele>
        <time>2010-01-01T00:13:39Z</time>
      </trkpt>
      <trkpt lat="47.66042" lon="5.99133">
        <ele>220</ele>
        <time>2010-01-01T00:13:40Z</time>
      </trkpt>
      <trkpt lat="47.66043" lon="5.99136">
        <ele>220</ele>
        <time>2010-01-01T00:13:41Z</time>
      </trkpt>
      <trkpt lat="47.66045" lon="5.99139">
        <ele>220</ele>
        <time>2010-01-01T00:13:42Z</time>
      </trkpt>
      <trkpt lat="47.66047" lon="5.99143">
        <ele>220</ele>
        <time>2010-01-01T00:13:43Z</time>
      </trkpt>
      <trkpt lat="47.66048" lon="5.99146">
        <ele>220</ele>
        <time>2010-01-01T00:13:44Z</time>
      </trkpt>
      <trkpt lat="47.6605" lon="5.99149">
        <ele>220</ele>
        <time>2010-01-01T00:13:45Z</time>
      </trkpt>
      <trkpt lat="47.66052" lon="5.99153">
        <ele>220</ele>
        <time>2010-01-01T00:13:46Z</time>
      </trkpt>
      <trkpt lat="47.66053" lon="5.99156">
        <ele>220</ele>
        <time>2010-01-01T00:13:47Z</time>
      </trkpt>
      <trkpt lat="47.66055" lon="5.99159">
        <ele>220</ele>
        <time>2010-01-01T00:13:48Z</time>
      </trkpt>
      <trkpt lat="47.66057" lon="5.99162">
        <ele>220</ele>
        <time>2010-01-01T00:13:50Z</time>
      </trkpt>
      <trkpt lat="47.66059" lon="5.99166">
        <ele>220</ele>
        <time>2010-01-01T00:13:51Z</time>
      </trkpt>
      <trkpt lat="47.6606" lon="5.99169">
        <ele>220</ele>
        <time>2010-01-01T00:13:52Z</time>
      </trkpt>
      <trkpt lat="47.66062" lon="5.99172">
        <ele>220</ele>
        <time>2010-01-01T00:13:53Z</time>
      </trkpt>
      <trkpt lat="47.66064" lon="5.99176">
        <ele>220</ele>
        <time>2010-01-01T00:13:54Z</time>
      </trkpt>
      <trkpt lat="47.66065" lon="5.99179">
        <ele>220</ele>
        <time>2010-01-01T00:13:55Z</time>
      </trkpt>
      <trkpt lat="47.66067" lon="5.99183">
        <ele>220</ele>
        <time>2010-01-01T00:13:56Z</time>
      </trkpt>
      <trkpt lat="47.66069" lon="5.99186">
        <ele>220</ele>
        <time>2010-01-01T00:13:57Z</time>
      </trkpt>
      <trkpt lat="47.6607" lon="5.99189">
        <ele>220</ele>
        <time>2010-01-01T00:13:59Z</time>
      </trkpt>
      <trkpt lat="47.66072" lon="5.99193">
        <ele>220</ele>
        <time>2010-01-01T00:14:00Z</time>
      </trkpt>
      <trkpt lat="47.66074" lon="5.99196">
        <ele>220</ele>
        <time>2010-01-01T00:14:01Z</time>
      </trkpt>
      <trkpt lat="47.66076" lon="5.99199">
        <ele>220</ele>
        <time>2010-01-01T00:14:02Z</time>
      </trkpt>
      <trkpt lat="47.66078" lon="5.99203">
        <ele>220</ele>
        <time>2010-01-01T00:14:03Z</time>
      </trkpt>
      <trkpt lat="47.6608" lon="5.99206">
        <ele>220</ele>
        <time>2010-01-01T00:14:05Z</time>
      </trkpt>
      <trkpt lat="47.66081" lon="5.9921">
        <ele>220</ele>
        <time>2010-01-01T00:14:06Z</time>
      </trkpt>
      <trkpt lat="47.66083" lon="5.99213">
        <ele>220</ele>
        <time>2010-01-01T00:14:07Z</time>
      </trkpt>
      <trkpt lat="47.66085" lon="5.99216">
        <ele>220</ele>
        <time>2010-01-01T00:14:08Z</time>
      </trkpt>
      <trkpt lat="47.66086" lon="5.99219">
        <ele>220</ele>
        <time>2010-01-01T00:14:09Z</time>
      </trkpt>
      <trkpt lat="47.66088" lon="5.99223">
        <ele>221</ele>
        <time>2010-01-01T00:14:10Z</time>
      </trkpt>
      <trkpt lat="47.6609" lon="5.99226">
        <ele>221</ele>
        <time>2010-01-01T00:14:11Z</time>
      </trkpt>
      <trkpt lat="47.66092" lon="5.99229">
        <ele>222</ele>
        <time>2010-01-01T00:14:12Z</time>
      </trkpt>
      <trkpt lat="47.66093" lon="5.99233">
        <ele>222</ele>
        <time>2010-01-01T00:14:14Z</time>
      </trkpt>
      <trkpt lat="47.66095" lon="5.99236">
        <ele>222</ele>
        <time>2010-01-01T00:14:15Z</time>
      </trkpt>
      <trkpt lat="47.66097" lon="5.99239">
        <ele>222</ele>
        <time>2010-01-01T00:14:16Z</time>
      </trkpt>
      <trkpt lat="47.66099" lon="5.99242">
        <ele>222</ele>
        <time>2010-01-01T00:14:17Z</time>
      </trkpt>
      <trkpt lat="47.66101" lon="5.99246">
        <ele>222</ele>
        <time>2010-01-01T00:14:18Z</time>
      </trkpt>
      <trkpt lat="47.66103" lon="5.99249">
        <ele>222</ele>
        <time>2010-01-01T00:14:19Z</time>
      </trkpt>
      <trkpt lat="47.66104" lon="5.99253">
        <ele>222</ele>
        <time>2010-01-01T00:14:21Z</time>
      </trkpt>
      <trkpt lat="47.66106" lon="5.99256">
        <ele>222</ele>
        <time>2010-01-01T00:14:22Z</time>
      </trkpt>
      <trkpt lat="47.66108" lon="5.9926">
        <ele>222</ele>
        <time>2010-01-01T00:14:23Z</time>
      </trkpt>
      <trkpt lat="47.6611" lon="5.99263">
        <ele>222</ele>
        <time>2010-01-01T00:14:24Z</time>
      </trkpt>
      <trkpt lat="47.66112" lon="5.99266">
        <ele>222</ele>
        <time>2010-01-01T00:14:25Z</time>
      </trkpt>
      <trkpt lat="47.66114" lon="5.9927">
        <ele>222</ele>
        <time>2010-01-01T00:14:26Z</time>
      </trkpt>
      <trkpt lat="47.66115" lon="5.99273">
        <ele>222</ele>
        <time>2010-01-01T00:14:28Z</time>
      </trkpt>
      <trkpt lat="47.66117" lon="5.99276">
        <ele>222</ele>
        <time>2010-01-01T00:14:29Z</time>
      </trkpt>
      <trkpt lat="47.66119" lon="5.9928">
        <ele>222</ele>
        <time>2010-01-01T00:14:30Z</time>
      </trkpt>
      <trkpt lat="47.6612" lon="5.99283">
        <ele>222</ele>
        <time>2010-01-01T00:14:31Z</time>
      </trkpt>
      <trkpt lat="47.66122" lon="5.99286">
        <ele>222</ele>
        <time>2010-01-01T00:14:32Z</time>
      </trkpt>
      <trkpt lat="47.66124" lon="5.99289">
        <ele>222</ele>
        <time>2010-01-01T00:14:33Z</time>
      </trkpt>
      <trkpt lat="47.66126" lon="5.99293">
        <ele>222</ele>
        <time>2010-01-01T00:14:34Z</time>
      </trkpt>
      <trkpt lat="47.66127" lon="5.99296">
        <ele>222</ele>
        <time>2010-01-01T00:14:35Z</time>
      </trkpt>
      <trkpt lat="47.66129" lon="5.99299">
        <ele>222</ele>
        <time>2010-01-01T00:14:37Z</time>
      </trkpt>
      <trkpt lat="47.66131" lon="5.99303">
        <ele>222</ele>
        <time>2010-01-01T00:14:38Z</time>
      </trkpt>
      <trkpt lat="47.66132" lon="5.99306">
        <ele>222</ele>
        <time>2010-01-01T00:14:39Z</time>
      </trkpt>
      <trkpt lat="47.66134" lon="5.99309">
        <ele>222</ele>
        <time>2010-01-01T00:14:40Z</time>
      </trkpt>
      <trkpt lat="47.66136" lon="5.99312">
        <ele>222</ele>
        <time>2010-01-01T00:14:41Z</time>
      </trkpt>
      <trkpt lat="47.66137" lon="5.99315">
        <ele>222</ele>
        <time>2010-01-01T00:14:42Z</time>
      </trkpt>
      <trkpt lat="47.66139" lon="5.99318">
        <ele>222</ele>
        <time>2010-01-01T00:14:43Z</time>
      </trkpt>
      <trkpt lat="47.66141" lon="5.99322">
        <ele>222</ele>
        <time>2010-01-01T00:14:44Z</time>
      </trkpt>
      <trkpt lat="47.66142" lon="5.99325">
        <ele>222</ele>
        <time>2010-01-01T00:14:45Z</time>
      </trkpt>
      <trkpt lat="47.66144" lon="5.99329">
        <ele>222</ele>
        <time>2010-01-01T00:14:46Z</time>
      </trkpt>
      <trkpt lat="47.66146" lon="5.99332">
        <ele>222</ele>
        <time>2010-01-01T00:14:48Z</time>
      </trkpt>
      <trkpt lat="47.66148" lon="5.99335">
        <ele>222</ele>
        <time>2010-01-01T00:14:49Z</time>
      </trkpt>
      <trkpt lat="47.66149" lon="5.99339">
        <ele>222</ele>
        <time>2010-01-01T00:14:50Z</time>
      </trkpt>
      <trkpt lat="47.66151" lon="5.99342">
        <ele>222</ele>
        <time>2010-01-01T00:14:51Z</time>
      </trkpt>
      <trkpt lat="47.66153" lon="5.99345">
        <ele>222</ele>
        <time>2010-01-01T00:14:52Z</time>
      </trkpt>
      <trkpt lat="47.66155" lon="5.99348">
        <ele>222</ele>
        <time>2010-01-01T00:14:53Z</time>
      </trkpt>
      <trkpt lat="47.66157" lon="5.99351">
        <ele>222</ele>
        <time>2010-01-01T00:14:54Z</time>
      </trkpt>
      <trkpt lat="47.66159" lon="5.99355">
        <ele>222</ele>
        <time>2010-01-01T00:14:56Z</time>
      </trkpt>
      <trkpt lat="47.6616" lon="5.99358">
        <ele>222</ele>
        <time>2010-01-01T00:14:57Z</time>
      </trkpt>
      <trkpt lat="47.66162" lon="5.99362">
        <ele>222</ele>
        <time>2010-01-01T00:14:58Z</time>
      </trkpt>
      <trkpt lat="47.66163" lon="5.99365">
        <ele>222</ele>
        <time>2010-01-01T00:14:59Z</time>
      </trkpt>
      <trkpt lat="47.66165" lon="5.99369">
        <ele>222</ele>
        <time>2010-01-01T00:15:00Z</time>
      </trkpt>
      <trkpt lat="47.66167" lon="5.99372">
        <ele>222</ele>
        <time>2010-01-01T00:15:01Z</time>
      </trkpt>
      <trkpt lat="47.66169" lon="5.99375">
        <ele>222</ele>
        <time>2010-01-01T00:15:03Z</time>
      </trkpt>
      <trkpt lat="47.66171" lon="5.99378">
        <ele>223</ele>
        <time>2010-01-01T00:15:04Z</time>
      </trkpt>
      <trkpt lat="47.66173" lon="5.99381">
        <ele>222</ele>
        <time>2010-01-01T00:15:05Z</time>
      </trkpt>
      <trkpt lat="47.66174" lon="5.99384">
        <ele>222</ele>
        <time>2010-01-01T00:15:06Z</time>
      </trkpt>
      <trkpt lat="47.66176" lon="5.99387">
        <ele>222</ele>
        <time>2010-01-01T00:15:07Z</time>
      </trkpt>
      <trkpt lat="47.66178" lon="5.99391">
        <ele>222</ele>
        <time>2010-01-01T00:15:08Z</time>
      </trkpt>
      <trkpt lat="47.6618" lon="5.99394">
        <ele>222</ele>
        <time>2010-01-01T00:15:09Z</time>
      </trkpt>
      <trkpt lat="47.66181" lon="5.99398">
        <ele>222</ele>
        <time>2010-01-01T00:15:10Z</time>
      </trkpt>
      <trkpt lat="47.66183" lon="5.99401">
        <ele>223</ele>
        <time>2010-01-01T00:15:12Z</time>
      </trkpt>
      <trkpt lat="47.66185" lon="5.99405">
        <ele>224</ele>
        <time>2010-01-01T00:15:13Z</time>
      </trkpt>
      <trkpt lat="47.66187" lon="5.99408">
        <ele>224</ele>
        <time>2010-01-01T00:15:14Z</time>
      </trkpt>
      <trkpt lat="47.66188" lon="5.99411">
        <ele>225</ele>
        <time>2010-01-01T00:15:15Z</time>
      </trkpt>
      <trkpt lat="47.6619" lon="5.99414">
        <ele>225</ele>
        <time>2010-01-01T00:15:16Z</time>
      </trkpt>
      <trkpt lat="47.66192" lon="5.99417">
        <ele>225</ele>
        <time>2010-01-01T00:15:17Z</time>
      </trkpt>
      <trkpt lat="47.66194" lon="5.9942">
        <ele>225</ele>
        <time>2010-01-01T00:15:18Z</time>
      </trkpt>
      <trkpt lat="47.66195" lon="5.99424">
        <ele>225</ele>
        <time>2010-01-01T00:15:19Z</time>
      </trkpt>
      <trkpt lat="47.66197" lon="5.99427">
        <ele>225</ele>
        <time>2010-01-01T00:15:21Z</time>
      </trkpt>
      <trkpt lat="47.66199" lon="5.9943">
        <ele>225</ele>
        <time>2010-01-01T00:15:22Z</time>
      </trkpt>
      <trkpt lat="47.66201" lon="5.99434">
        <ele>225</ele>
        <time>2010-01-01T00:15:23Z</time>
      </trkpt>
      <trkpt lat="47.66202" lon="5.99437">
        <ele>225</ele>
        <time>2010-01-01T00:15:24Z</time>
      </trkpt>
      <trkpt lat="47.66204" lon="5.9944">
        <ele>225</ele>
        <time>2010-01-01T00:15:25Z</time>
      </trkpt>
      <trkpt lat="47.66206" lon="5.99444">
        <ele>225</ele>
        <time>2010-01-01T00:15:26Z</time>
      </trkpt>
      <trkpt lat="47.66207" lon="5.99447">
        <ele>225</ele>
        <time>2010-01-01T00:15:27Z</time>
      </trkpt>
      <trkpt lat="47.66209" lon="5.9945">
        <ele>225</ele>
        <time>2010-01-01T00:15:28Z</time>
      </trkpt>
      <trkpt lat="47.6621" lon="5.99453">
        <ele>225</ele>
        <time>2010-01-01T00:15:29Z</time>
      </trkpt>
      <trkpt lat="47.66212" lon="5.99457">
        <ele>225</ele>
        <time>2010-01-01T00:15:30Z</time>
      </trkpt>
      <trkpt lat="47.66214" lon="5.99459">
        <ele>225</ele>
        <time>2010-01-01T00:15:32Z</time>
      </trkpt>
      <trkpt lat="47.66218" lon="5.99458">
        <ele>225</ele>
        <time>2010-01-01T00:15:33Z</time>
      </trkpt>
      <trkpt lat="47.66221" lon="5.99455">
        <ele>225</ele>
        <time>2010-01-01T00:15:34Z</time>
      </trkpt>
      <trkpt lat="47.66223" lon="5.99451">
        <ele>225</ele>
        <time>2010-01-01T00:15:36Z</time>
      </trkpt>
      <trkpt lat="47.66227" lon="5.99447">
        <ele>225</ele>
        <time>2010-01-01T00:15:38Z</time>
      </trkpt>
      <trkpt lat="47.6623" lon="5.99442">
        <ele>225</ele>
        <time>2010-01-01T00:15:39Z</time>
      </trkpt>
      <trkpt lat="47.66233" lon="5.99438">
        <ele>225</ele>
        <time>2010-01-01T00:15:41Z</time>
      </trkpt>
      <trkpt lat="47.66236" lon="5.99433">
        <ele>225</ele>
        <time>2010-01-01T00:15:43Z</time>
      </trkpt>
      <trkpt lat="47.66239" lon="5.99428">
        <ele>225</ele>
        <time>2010-01-01T00:15:45Z</time>
      </trkpt>
      <trkpt lat="47.66242" lon="5.99423">
        <ele>224</ele>
        <time>2010-01-01T00:15:47Z</time>
      </trkpt>
      <trkpt lat="47.66246" lon="5.99418">
        <ele>224</ele>
        <time>2010-01-01T00:15:49Z</time>
      </trkpt>
      <trkpt lat="47.6625" lon="5.99413">
        <ele>223</ele>
        <time>2010-01-01T00:15:51Z</time>
      </trkpt>
      <trkpt lat="47.66253" lon="5.99407">
        <ele>223</ele>
        <time>2010-01-01T00:15:53Z</time>
      </trkpt>
      <trkpt lat="47.66257" lon="5.99402">
        <ele>223</ele>
        <time>2010-01-01T00:15:55Z</time>
      </trkpt>
      <trkpt lat="47.66261" lon="5.99397">
        <ele>223</ele>
        <time>2010-01-01T00:15:57Z</time>
      </trkpt>
      <trkpt lat="47.66264" lon="5.99392">
        <ele>223</ele>
        <time>2010-01-01T00:15:59Z</time>
      </trkpt>
      <trkpt lat="47.66268" lon="5.99386">
        <ele>222</ele>
        <time>2010-01-01T00:16:01Z</time>
      </trkpt>
      <trkpt lat="47.66271" lon="5.99381">
        <ele>222</ele>
        <time>2010-01-01T00:16:03Z</time>
      </trkpt>
      <trkpt lat="47.66275" lon="5.99376">
        <ele>222</ele>
        <time>2010-01-01T00:16:05Z</time>
      </trkpt>
      <trkpt lat="47.66278" lon="5.99371">
        <ele>221</ele>
        <time>2010-01-01T00:16:07Z</time>
      </trkpt>
      <trkpt lat="47.66281" lon="5.99365">
        <ele>221</ele>
        <time>2010-01-01T00:16:09Z</time>
      </trkpt>
      <trkpt lat="47.66284" lon="5.99358">
        <ele>221</ele>
        <time>2010-01-01T00:16:11Z</time>
      </trkpt>
      <trkpt lat="47.66286" lon="5.99351">
        <ele>221</ele>
        <time>2010-01-01T00:16:13Z</time>
      </trkpt>
      <trkpt lat="47.66288" lon="5.99345">
        <ele>220</ele>
        <time>2010-01-01T00:16:15Z</time>
      </trkpt>
      <trkpt lat="47.66291" lon="5.99339">
        <ele>220</ele>
        <time>2010-01-01T00:16:17Z</time>
      </trkpt>
      <trkpt lat="47.66294" lon="5.99333">
        <ele>219</ele>
        <time>2010-01-01T00:16:19Z</time>
      </trkpt>
      <trkpt lat="47.66297" lon="5.99328">
        <ele>219</ele>
        <time>2010-01-01T00:16:21Z</time>
      </trkpt>
      <trkpt lat="47.663" lon="5.99322">
        <ele>219</ele>
        <time>2010-01-01T00:16:23Z</time>
      </trkpt>
      <trkpt lat="47.66303" lon="5.99316">
        <ele>218</ele>
        <time>2010-01-01T00:16:25Z</time>
      </trkpt>
      <trkpt lat="47.66305" lon="5.9931">
        <ele>218</ele>
        <time>2010-01-01T00:16:26Z</time>
      </trkpt>
      <trkpt lat="47.66307" lon="5.99305">
        <ele>218</ele>
        <time>2010-01-01T00:16:28Z</time>
      </trkpt>
      <trkpt lat="47.66309" lon="5.993">
        <ele>217</ele>
        <time>2010-01-01T00:16:30Z</time>
      </trkpt>
      <trkpt lat="47.66311" lon="5.99294">
        <ele>217</ele>
        <time>2010-01-01T00:16:31Z</time>
      </trkpt>
      <trkpt lat="47.66313" lon="5.99289">
        <ele>217</ele>
        <time>2010-01-01T00:16:33Z</time>
      </trkpt>
      <trkpt lat="47.66315" lon="5.99284">
        <ele>217</ele>
        <time>2010-01-01T00:16:35Z</time>
      </trkpt>
      <trkpt lat="47.66317" lon="5.9928">
        <ele>217</ele>
        <time>2010-01-01T00:16:36Z</time>
      </trkpt>
      <trkpt lat="47.66319" lon="5.99277">
        <ele>217</ele>
        <time>2010-01-01T00:16:37Z</time>
      </trkpt>
      <trkpt lat="47.66321" lon="5.99274">
        <ele>217</ele>
        <time>2010-01-01T00:16:38Z</time>
      </trkpt>
      <trkpt lat="47.66323" lon="5.99271">
        <ele>217</ele>
        <time>2010-01-01T00:16:39Z</time>
      </trkpt>
      <trkpt lat="47.66325" lon="5.99269">
        <ele>217</ele>
        <time>2010-01-01T00:16:40Z</time>
      </trkpt>
      <trkpt lat="47.66326" lon="5.99268">
        <ele>217</ele>
        <time>2010-01-01T00:16:41Z</time>
      </trkpt>
      <trkpt lat="47.66327" lon="5.99267">
        <ele>217</ele>
        <time>2010-01-01T00:16:41Z</time>
      </trkpt>
      <trkpt lat="47.66329" lon="5.99265">
        <ele>217</ele>
        <time>2010-01-01T00:16:42Z</time>
      </trkpt>
      <trkpt lat="47.6633" lon="5.99264">
        <ele>217</ele>
        <time>2010-01-01T00:16:43Z</time>
      </trkpt>
      <trkpt lat="47.66331" lon="5.99263">
        <ele>217</ele>
        <time>2010-01-01T00:16:43Z</time>
      </trkpt>
      <trkpt lat="47.66332" lon="5.99262">
        <ele>217</ele>
        <time>2010-01-01T00:16:44Z</time>
      </trkpt>
      <trkpt lat="47.66333" lon="5.99261">
        <ele>217</ele>
        <time>2010-01-01T00:16:44Z</time>
      </trkpt>
      <trkpt lat="47.66334" lon="5.9926">
        <ele>217</ele>
        <time>2010-01-01T00:16:45Z</time>
      </trkpt>
      <trkpt lat="47.66336" lon="5.99259">
        <ele>217</ele>
        <time>2010-01-01T00:16:45Z</time>
      </trkpt>
      <trkpt lat="47.66337" lon="5.99258">
        <ele>217</ele>
        <time>2010-01-01T00:16:46Z</time>
      </trkpt>
      <trkpt lat="47.66338" lon="5.99257">
        <ele>218</ele>
        <time>2010-01-01T00:16:47Z</time>
      </trkpt>
      <trkpt lat="47.66339" lon="5.99258">
        <ele>218</ele>
        <time>2010-01-01T00:16:47Z</time>
      </trkpt>
      <trkpt lat="47.6634" lon="5.99257">
        <ele>218</ele>
        <time>2010-01-01T00:16:47Z</time>
      </trkpt>
      <trkpt lat="47.66341" lon="5.99256">
        <ele>219</ele>
        <time>2010-01-01T00:16:48Z</time>
      </trkpt>
      <trkpt lat="47.66342" lon="5.99256">
        <ele>219</ele>
        <time>2010-01-01T00:16:48Z</time>
      </trkpt>
      <trkpt lat="47.66343" lon="5.99256">
        <ele>219</ele>
        <time>2010-01-01T00:16:49Z</time>
      </trkpt>
      <trkpt lat="47.66344" lon="5.99255">
        <ele>219</ele>
        <time>2010-01-01T00:16:49Z</time>
      </trkpt>
      <trkpt lat="47.66345" lon="5.99254">
        <ele>219</ele>
        <time>2010-01-01T00:16:49Z</time>
      </trkpt>
      <trkpt lat="47.66346" lon="5.99254">
        <ele>219</ele>
        <time>2010-01-01T00:16:50Z</time>
      </trkpt>
      <trkpt lat="47.66347" lon="5.99253">
        <ele>219</ele>
        <time>2010-01-01T00:16:50Z</time>
      </trkpt>
      <trkpt lat="47.66348" lon="5.99253">
        <ele>219</ele>
        <time>2010-01-01T00:16:51Z</time>
      </trkpt>
      <trkpt lat="47.66349" lon="5.99252">
        <ele>219</ele>
        <time>2010-01-01T00:16:51Z</time>
      </trkpt>
      <trkpt lat="47.66351" lon="5.99252">
        <ele>219</ele>
        <time>2010-01-01T00:16:52Z</time>
      </trkpt>
      <trkpt lat="47.66352" lon="5.99251">
        <ele>219</ele>
        <time>2010-01-01T00:16:52Z</time>
      </trkpt>
      <trkpt lat="47.66353" lon="5.9925">
        <ele>219</ele>
        <time>2010-01-01T00:16:53Z</time>
      </trkpt>
      <trkpt lat="47.66354" lon="5.99249">
        <ele>219</ele>
        <time>2010-01-01T00:16:53Z</time>
      </trkpt>
      <trkpt lat="47.66355" lon="5.99248">
        <ele>219</ele>
        <time>2010-01-01T00:16:54Z</time>
      </trkpt>
      <trkpt lat="47.66356" lon="5.99246">
        <ele>219</ele>
        <time>2010-01-01T00:16:54Z</time>
      </trkpt>
      <trkpt lat="47.66357" lon="5.99245">
        <ele>219</ele>
        <time>2010-01-01T00:16:55Z</time>
      </trkpt>
      <trkpt lat="47.66358" lon="5.99244">
        <ele>220</ele>
        <time>2010-01-01T00:16:55Z</time>
      </trkpt>
      <trkpt lat="47.66359" lon="5.99242">
        <ele>220</ele>
        <time>2010-01-01T00:16:56Z</time>
      </trkpt>
      <trkpt lat="47.66361" lon="5.99241">
        <ele>220</ele>
        <time>2010-01-01T00:16:57Z</time>
      </trkpt>
      <trkpt lat="47.66362" lon="5.9924">
        <ele>221</ele>
        <time>2010-01-01T00:16:57Z</time>
      </trkpt>
      <trkpt lat="47.66363" lon="5.99239">
        <ele>221</ele>
        <time>2010-01-01T00:16:58Z</time>
      </trkpt>
      <trkpt lat="47.66365" lon="5.99238">
        <ele>221</ele>
        <time>2010-01-01T00:16:59Z</time>
      </trkpt>
      <trkpt lat="47.66366" lon="5.99237">
        <ele>221</ele>
        <time>2010-01-01T00:16:59Z</time>
      </trkpt>
      <trkpt lat="47.66368" lon="5.99235">
        <ele>221</ele>
        <time>2010-01-01T00:17:00Z</time>
      </trkpt>
      <trkpt lat="47.66369" lon="5.99234">
        <ele>221</ele>
        <time>2010-01-01T00:17:01Z</time>
      </trkpt>
      <trkpt lat="47.66371" lon="5.99232">
        <ele>221</ele>
        <time>2010-01-01T00:17:02Z</time>
      </trkpt>
      <trkpt lat="47.66372" lon="5.9923">
        <ele>221</ele>
        <time>2010-01-01T00:17:02Z</time>
      </trkpt>
      <trkpt lat="47.66373" lon="5.99229">
        <ele>221</ele>
        <time>2010-01-01T00:17:03Z</time>
      </trkpt>
      <trkpt lat="47.66375" lon="5.99228">
        <ele>221</ele>
        <time>2010-01-01T00:17:03Z</time>
      </trkpt>
      <trkpt lat="47.66376" lon="5.99226">
        <ele>221</ele>
        <time>2010-01-01T00:17:04Z</time>
      </trkpt>
      <trkpt lat="47.66377" lon="5.99224">
        <ele>221</ele>
        <time>2010-01-01T00:17:05Z</time>
      </trkpt>
      <trkpt lat="47.66378" lon="5.99223">
        <ele>221</ele>
        <time>2010-01-01T00:17:05Z</time>
      </trkpt>
      <trkpt lat="47.66379" lon="5.99223">
        <ele>221</ele>
        <time>2010-01-01T00:17:06Z</time>
      </trkpt>
      <trkpt lat="47.66381" lon="5.99222">
        <ele>221</ele>
        <time>2010-01-01T00:17:06Z</time>
      </trkpt>
      <trkpt lat="47.66382" lon="5.9922">
        <ele>221</ele>
        <time>2010-01-01T00:17:07Z</time>
      </trkpt>
      <trkpt lat="47.66384" lon="5.99219">
        <ele>221</ele>
        <time>2010-01-01T00:17:08Z</time>
      </trkpt>
      <trkpt lat="47.66385" lon="5.99218">
        <ele>221</ele>
        <time>2010-01-01T00:17:08Z</time>
      </trkpt>
      <trkpt lat="47.66386" lon="5.99215">
        <ele>221</ele>
        <time>2010-01-01T00:17:09Z</time>
      </trkpt>
      <trkpt lat="47.66387" lon="5.99213">
        <ele>221</ele>
        <time>2010-01-01T00:17:10Z</time>
      </trkpt>
      <trkpt lat="47.66389" lon="5.9921">
        <ele>221</ele>
        <time>2010-01-01T00:17:11Z</time>
      </trkpt>
      <trkpt lat="47.6639" lon="5.99208">
        <ele>221</ele>
        <time>2010-01-01T00:17:12Z</time>
      </trkpt>
      <trkpt lat="47.66392" lon="5.99206">
        <ele>221</ele>
        <time>2010-01-01T00:17:13Z</time>
      </trkpt>
      <trkpt lat="47.66394" lon="5.99204">
        <ele>221</ele>
        <time>2010-01-01T00:17:14Z</time>
      </trkpt>
      <trkpt lat="47.66397" lon="5.99203">
        <ele>222</ele>
        <time>2010-01-01T00:17:15Z</time>
      </trkpt>
      <trkpt lat="47.66399" lon="5.99203">
        <ele>222</ele>
        <time>2010-01-01T00:17:16Z</time>
      </trkpt>
      <trkpt lat="47.66401" lon="5.99202">
        <ele>222</ele>
        <time>2010-01-01T00:17:16Z</time>
      </trkpt>
      <trkpt lat="47.66402" lon="5.99202">
        <ele>223</ele>
        <time>2010-01-01T00:17:17Z</time>
      </trkpt>
      <trkpt lat="47.66404" lon="5.99202">
        <ele>223</ele>
        <time>2010-01-01T00:17:18Z</time>
      </trkpt>
      <trkpt lat="47.66406" lon="5.99203">
        <ele>223</ele>
        <time>2010-01-01T00:17:18Z</time>
      </trkpt>
      <trkpt lat="47.66407" lon="5.99204">
        <ele>223</ele>
        <time>2010-01-01T00:17:19Z</time>
      </trkpt>
      <trkpt lat="47.66408" lon="5.99204">
        <ele>223</ele>
        <time>2010-01-01T00:17:20Z</time>
      </trkpt>
      <trkpt lat="47.6641" lon="5.99205">
        <ele>223</ele>
        <time>2010-01-01T00:17:20Z</time>
      </trkpt>
      <trkpt lat="47.66411" lon="5.99206">
        <ele>223</ele>
        <time>2010-01-01T00:17:21Z</time>
      </trkpt>
      <trkpt lat="47.66412" lon="5.99207">
        <ele>223</ele>
        <time>2010-01-01T00:17:21Z</time>
      </trkpt>
      <trkpt lat="47.66413" lon="5.99209">
        <ele>223</ele>
        <time>2010-01-01T00:17:22Z</time>
      </trkpt>
      <trkpt lat="47.66416" lon="5.9921">
        <ele>223</ele>
        <time>2010-01-01T00:17:23Z</time>
      </trkpt>
      <trkpt lat="47.66418" lon="5.99211">
        <ele>223</ele>
        <time>2010-01-01T00:17:24Z</time>
      </trkpt>
      <trkpt lat="47.6642" lon="5.99212">
        <ele>223</ele>
        <time>2010-01-01T00:17:25Z</time>
      </trkpt>
      <trkpt lat="47.66421" lon="5.99213">
        <ele>223</ele>
        <time>2010-01-01T00:17:25Z</time>
      </trkpt>
      <trkpt lat="47.66424" lon="5.99214">
        <ele>223</ele>
        <time>2010-01-01T00:17:26Z</time>
      </trkpt>
      <trkpt lat="47.66426" lon="5.99215">
        <ele>223</ele>
        <time>2010-01-01T00:17:27Z</time>
      </trkpt>
      <trkpt lat="47.66427" lon="5.99216">
        <ele>223</ele>
        <time>2010-01-01T00:17:28Z</time>
      </trkpt>
      <trkpt lat="47.66428" lon="5.99218">
        <ele>223</ele>
        <time>2010-01-01T00:17:28Z</time>
      </trkpt>
      <trkpt lat="47.66429" lon="5.9922">
        <ele>223</ele>
        <time>2010-01-01T00:17:29Z</time>
      </trkpt>
      <trkpt lat="47.6643" lon="5.99223">
        <ele>223</ele>
        <time>2010-01-01T00:17:30Z</time>
      </trkpt>
      <trkpt lat="47.66431" lon="5.99225">
        <ele>223</ele>
        <time>2010-01-01T00:17:31Z</time>
      </trkpt>
      <trkpt lat="47.66431" lon="5.99227">
        <ele>223</ele>
        <time>2010-01-01T00:17:31Z</time>
      </trkpt>
      <trkpt lat="47.66432" lon="5.99229">
        <ele>224</ele>
        <time>2010-01-01T00:17:32Z</time>
      </trkpt>
      <trkpt lat="47.66433" lon="5.99231">
        <ele>224</ele>
        <time>2010-01-01T00:17:32Z</time>
      </trkpt>
      <trkpt lat="47.66434" lon="5.99233">
        <ele>224</ele>
        <time>2010-01-01T00:17:33Z</time>
      </trkpt>
      <trkpt lat="47.66434" lon="5.99235">
        <ele>225</ele>
        <time>2010-01-01T00:17:34Z</time>
      </trkpt>
      <trkpt lat="47.66435" lon="5.99235">
        <ele>225</ele>
        <time>2010-01-01T00:17:34Z</time>
      </trkpt>
      <trkpt lat="47.66435" lon="5.99237">
        <ele>225</ele>
        <time>2010-01-01T00:17:35Z</time>
      </trkpt>
      <trkpt lat="47.66437" lon="5.99239">
        <ele>225</ele>
        <time>2010-01-01T00:17:35Z</time>
      </trkpt>
      <trkpt lat="47.66438" lon="5.99242">
        <ele>225</ele>
        <time>2010-01-01T00:17:36Z</time>
      </trkpt>
      <trkpt lat="47.6644" lon="5.99244">
        <ele>225</ele>
        <time>2010-01-01T00:17:37Z</time>
      </trkpt>
      <trkpt lat="47.6644" lon="5.99245">
        <ele>225</ele>
        <time>2010-01-01T00:17:37Z</time>
      </trkpt>
      <trkpt lat="47.66441" lon="5.99247">
        <ele>225</ele>
        <time>2010-01-01T00:17:38Z</time>
      </trkpt>
      <trkpt lat="47.66442" lon="5.99248">
        <ele>225</ele>
        <time>2010-01-01T00:17:38Z</time>
      </trkpt>
      <trkpt lat="47.66443" lon="5.99249">
        <ele>225</ele>
        <time>2010-01-01T00:17:39Z</time>
      </trkpt>
      <trkpt lat="47.66444" lon="5.9925">
        <ele>225</ele>
        <time>2010-01-01T00:17:39Z</time>
      </trkpt>
      <trkpt lat="47.66446" lon="5.99252">
        <ele>225</ele>
        <time>2010-01-01T00:17:40Z</time>
      </trkpt>
      <trkpt lat="47.66448" lon="5.99255">
        <ele>225</ele>
        <time>2010-01-01T00:17:41Z</time>
      </trkpt>
      <trkpt lat="47.66449" lon="5.99257">
        <ele>225</ele>
        <time>2010-01-01T00:17:42Z</time>
      </trkpt>
      <trkpt lat="47.6645" lon="5.99258">
        <ele>225</ele>
        <time>2010-01-01T00:17:43Z</time>
      </trkpt>
      <trkpt lat="47.66451" lon="5.9926">
        <ele>225</ele>
        <time>2010-01-01T00:17:43Z</time>
      </trkpt>
      <trkpt lat="47.66452" lon="5.99261">
        <ele>225</ele>
        <time>2010-01-01T00:17:44Z</time>
      </trkpt>
      <trkpt lat="47.66453" lon="5.99262">
        <ele>226</ele>
        <time>2010-01-01T00:17:44Z</time>
      </trkpt>
      <trkpt lat="47.66454" lon="5.99263">
        <ele>226</ele>
        <time>2010-01-01T00:17:45Z</time>
      </trkpt>
      <trkpt lat="47.66456" lon="5.99265">
        <ele>226</ele>
        <time>2010-01-01T00:17:46Z</time>
      </trkpt>
      <trkpt lat="47.66457" lon="5.99266">
        <ele>227</ele>
        <time>2010-01-01T00:17:46Z</time>
      </trkpt>
      <trkpt lat="47.66459" lon="5.99268">
        <ele>227</ele>
        <time>2010-01-01T00:17:47Z</time>
      </trkpt>
      <trkpt lat="47.6646" lon="5.99269">
        <ele>227</ele>
        <time>2010-01-01T00:17:48Z</time>
      </trkpt>
      <trkpt lat="47.66461" lon="5.9927">
        <ele>227</ele>
        <time>2010-01-01T00:17:48Z</time>
      </trkpt>
      <trkpt lat="47.66462" lon="5.99271">
        <ele>227</ele>
        <time>2010-01-01T00:17:49Z</time>
      </trkpt>
      <trkpt lat="47.66463" lon="5.99272">
        <ele>227</ele>
        <time>2010-01-01T00:17:49Z</time>
      </trkpt>
      <trkpt lat="47.66466" lon="5.99274">
        <ele>227</ele>
        <time>2010-01-01T00:17:50Z</time>
      </trkpt>
      <trkpt lat="47.66467" lon="5.99275">
        <ele>227</ele>
        <time>2010-01-01T00:17:51Z</time>
      </trkpt>
      <trkpt lat="47.66469" lon="5.99276">
        <ele>227</ele>
        <time>2010-01-01T00:17:52Z</time>
      </trkpt>
      <trkpt lat="47.66471" lon="5.99277">
        <ele>227</ele>
        <time>2010-01-01T00:17:53Z</time>
      </trkpt>
      <trkpt lat="47.66472" lon="5.99278">
        <ele>227</ele>
        <time>2010-01-01T00:17:53Z</time>
      </trkpt>
      <trkpt lat="47.66473" lon="5.99279">
        <ele>227</ele>
        <time>2010-01-01T00:17:54Z</time>
      </trkpt>
      <trkpt lat="47.66475" lon="5.9928">
        <ele>227</ele>
        <time>2010-01-01T00:17:54Z</time>
      </trkpt>
      <trkpt lat="47.66476" lon="5.99281">
        <ele>227</ele>
        <time>2010-01-01T00:17:55Z</time>
      </trkpt>
      <trkpt lat="47.66478" lon="5.99282">
        <ele>227</ele>
        <time>2010-01-01T00:17:56Z</time>
      </trkpt>
      <trkpt lat="47.66479" lon="5.99283">
        <ele>227</ele>
        <time>2010-01-01T00:17:56Z</time>
      </trkpt>
      <trkpt lat="47.66481" lon="5.99283">
        <ele>227</ele>
        <time>2010-01-01T00:17:57Z</time>
      </trkpt>
      <trkpt lat="47.66482" lon="5.99283">
        <ele>228</ele>
        <time>2010-01-01T00:17:57Z</time>
      </trkpt>
      <trkpt lat="47.66483" lon="5.99284">
        <ele>228</ele>
        <time>2010-01-01T00:17:58Z</time>
      </trkpt>
      <trkpt lat="47.66485" lon="5.99284">
        <ele>229</ele>
        <time>2010-01-01T00:17:58Z</time>
      </trkpt>
      <trkpt lat="47.66486" lon="5.99285">
        <ele>229</ele>
        <time>2010-01-01T00:17:59Z</time>
      </trkpt>
      <trkpt lat="47.66487" lon="5.99286">
        <ele>229</ele>
        <time>2010-01-01T00:18:00Z</time>
      </trkpt>
      <trkpt lat="47.66488" lon="5.99287">
        <ele>229</ele>
        <time>2010-01-01T00:18:00Z</time>
      </trkpt>
      <trkpt lat="47.66489" lon="5.99288">
        <ele>229</ele>
        <time>2010-01-01T00:18:01Z</time>
      </trkpt>
      <trkpt lat="47.66491" lon="5.99289">
        <ele>229</ele>
        <time>2010-01-01T00:18:01Z</time>
      </trkpt>
      <trkpt lat="47.66492" lon="5.99289">
        <ele>229</ele>
        <time>2010-01-01T00:18:02Z</time>
      </trkpt>
      <trkpt lat="47.66493" lon="5.9929">
        <ele>229</ele>
        <time>2010-01-01T00:18:02Z</time>
      </trkpt>
      <trkpt lat="47.66495" lon="5.9929">
        <ele>229</ele>
        <time>2010-01-01T00:18:03Z</time>
      </trkpt>
      <trkpt lat="47.66496" lon="5.99291">
        <ele>229</ele>
        <time>2010-01-01T00:18:03Z</time>
      </trkpt>
      <trkpt lat="47.66498" lon="5.99291">
        <ele>229</ele>
        <time>2010-01-01T00:18:04Z</time>
      </trkpt>
      <trkpt lat="47.66499" lon="5.99292">
        <ele>229</ele>
        <time>2010-01-01T00:18:05Z</time>
      </trkpt>
      <trkpt lat="47.66499" lon="5.99292">
        <ele>229</ele>
        <time>2010-01-01T00:18:05Z</time>
      </trkpt>
      <trkpt lat="47.66501" lon="5.99292">
        <ele>229</ele>
        <time>2010-01-01T00:18:05Z</time>
      </trkpt>
      <trkpt lat="47.66502" lon="5.99293">
        <ele>229</ele>
        <time>2010-01-01T00:18:06Z</time>
      </trkpt>
      <trkpt lat="47.66503" lon="5.99294">
        <ele>229</ele>
        <time>2010-01-01T00:18:06Z</time>
      </trkpt>
      <trkpt lat="47.66503" lon="5.99294">
        <ele>229</ele>
        <time>2010-01-01T00:18:06Z</time>
      </trkpt>
      <trkpt lat="47.66504" lon="5.99294">
        <ele>229</ele>
        <time>2010-01-01T00:18:07Z</time>
      </trkpt>
      <trkpt lat="47.66504" lon="5.99294">
        <ele>230</ele>
        <time>2010-01-01T00:18:07Z</time>
      </trkpt>
      <trkpt lat="47.66505" lon="5.99295">
        <ele>230</ele>
        <time>2010-01-01T00:18:07Z</time>
      </trkpt>
      <trkpt lat="47.66506" lon="5.99295">
        <ele>231</ele>
        <time>2010-01-01T00:18:08Z</time>
      </trkpt>
      <trkpt lat="47.66508" lon="5.99296">
        <ele>231</ele>
        <time>2010-01-01T00:18:08Z</time>
      </trkpt>
      <trkpt lat="47.6651" lon="5.99297">
        <ele>231</ele>
        <time>2010-01-01T00:18:09Z</time>
      </trkpt>
      <trkpt lat="47.66511" lon="5.99297">
        <ele>231</ele>
        <time>2010-01-01T00:18:10Z</time>
      </trkpt>
      <trkpt lat="47.66512" lon="5.99297">
        <ele>231</ele>
        <time>2010-01-01T00:18:10Z</time>
      </trkpt>
      <trkpt lat="47.66512" lon="5.99297">
        <ele>231</ele>
        <time>2010-01-01T00:18:10Z</time>
      </trkpt>
      <trkpt lat="47.66514" lon="5.99297">
        <ele>231</ele>
        <time>2010-01-01T00:18:11Z</time>
      </trkpt>
      <trkpt lat="47.66514" lon="5.99297">
        <ele>231</ele>
        <time>2010-01-01T00:18:11Z</time>
      </trkpt>
      <trkpt lat="47.66515" lon="5.99296">
        <ele>231</ele>
        <time>2010-01-01T00:18:11Z</time>
      </trkpt>
      <trkpt lat="47.66517" lon="5.99295">
        <ele>231</ele>
        <time>2010-01-01T00:18:12Z</time>
      </trkpt>
      <trkpt lat="47.66518" lon="5.99295">
        <ele>231</ele>
        <time>2010-01-01T00:18:12Z</time>
      </trkpt>
      <trkpt lat="47.66519" lon="5.99294">
        <ele>231</ele>
        <time>2010-01-01T00:18:13Z</time>
      </trkpt>
      <trkpt lat="47.66521" lon="5.99294">
        <ele>231</ele>
        <time>2010-01-01T00:18:14Z</time>
      </trkpt>
      <trkpt lat="47.66523" lon="5.99294">
        <ele>231</ele>
        <time>2010-01-01T00:18:15Z</time>
      </trkpt>
      <trkpt lat="47.66525" lon="5.99294">
        <ele>231</ele>
        <time>2010-01-01T00:18:15Z</time>
      </trkpt>
      <trkpt lat="47.66526" lon="5.99295">
        <ele>231</ele>
        <time>2010-01-01T00:18:16Z</time>
      </trkpt>
      <trkpt lat="47.66528" lon="5.99296">
        <ele>231</ele>
        <time>2010-01-01T00:18:17Z</time>
      </trkpt>
      <trkpt lat="47.66529" lon="5.99297">
        <ele>231</ele>
        <time>2010-01-01T00:18:17Z</time>
      </trkpt>
      <trkpt lat="47.66531" lon="5.99297">
        <ele>231</ele>
        <time>2010-01-01T00:18:18Z</time>
      </trkpt>
      <trkpt lat="47.66532" lon="5.99298">
        <ele>231</ele>
        <time>2010-01-01T00:18:18Z</time>
      </trkpt>
      <trkpt lat="47.66534" lon="5.99299">
        <ele>231</ele>
        <time>2010-01-01T00:18:19Z</time>
      </trkpt>
      <trkpt lat="47.66537" lon="5.99299">
        <ele>231</ele>
        <time>2010-01-01T00:18:20Z</time>
      </trkpt>
      <trkpt lat="47.66538" lon="5.993">
        <ele>231</ele>
        <time>2010-01-01T00:18:21Z</time>
      </trkpt>
      <trkpt lat="47.6654" lon="5.99301">
        <ele>231</ele>
        <time>2010-01-01T00:18:22Z</time>
      </trkpt>
      <trkpt lat="47.66541" lon="5.99302">
        <ele>231</ele>
        <time>2010-01-01T00:18:22Z</time>
      </trkpt>
      <trkpt lat="47.66541" lon="5.99302">
        <ele>231</ele>
        <time>2010-01-01T00:18:22Z</time>
      </trkpt>
      <trkpt lat="47.66542" lon="5.99302">
        <ele>231</ele>
        <time>2010-01-01T00:18:22Z</time>
      </trkpt>
      <trkpt lat="47.66543" lon="5.99302">
        <ele>231</ele>
        <time>2010-01-01T00:18:23Z</time>
      </trkpt>
      <trkpt lat="47.66544" lon="5.99304">
        <ele>231</ele>
        <time>2010-01-01T00:18:24Z</time>
      </trkpt>
      <trkpt lat="47.66546" lon="5.99304">
        <ele>231</ele>
        <time>2010-01-01T00:18:24Z</time>
      </trkpt>
      <trkpt lat="47.66548" lon="5.99305">
        <ele>231</ele>
        <time>2010-01-01T00:18:25Z</time>
      </trkpt>
      <trkpt lat="47.6655" lon="5.99307">
        <ele>231</ele>
        <time>2010-01-01T00:18:26Z</time>
      </trkpt>
      <trkpt lat="47.66552" lon="5.99308">
        <ele>231</ele>
        <time>2010-01-01T00:18:27Z</time>
      </trkpt>
      <trkpt lat="47.66554" lon="5.99309">
        <ele>231</ele>
        <time>2010-01-01T00:18:28Z</time>
      </trkpt>
      <trkpt lat="47.66556" lon="5.9931">
        <ele>231</ele>
        <time>2010-01-01T00:18:29Z</time>
      </trkpt>
      <trkpt lat="47.66558" lon="5.9931">
        <ele>231</ele>
        <time>2010-01-01T00:18:30Z</time>
      </trkpt>
      <trkpt lat="47.6656" lon="5.9931">
        <ele>231</ele>
        <time>2010-01-01T00:18:30Z</time>
      </trkpt>
      <trkpt lat="47.66562" lon="5.9931">
        <ele>231</ele>
        <time>2010-01-01T00:18:31Z</time>
      </trkpt>
      <trkpt lat="47.66563" lon="5.99309">
        <ele>231</ele>
        <time>2010-01-01T00:18:32Z</time>
      </trkpt>
      <trkpt lat="47.66565" lon="5.9931">
        <ele>231</ele>
        <time>2010-01-01T00:18:32Z</time>
      </trkpt>
      <trkpt lat="47.66566" lon="5.9931">
        <ele>231</ele>
        <time>2010-01-01T00:18:33Z</time>
      </trkpt>
      <trkpt lat="47.66568" lon="5.99311">
        <ele>231</ele>
        <time>2010-01-01T00:18:33Z</time>
      </trkpt>
      <trkpt lat="47.6657" lon="5.99311">
        <ele>232</ele>
        <time>2010-01-01T00:18:34Z</time>
      </trkpt>
      <trkpt lat="47.66572" lon="5.99311">
        <ele>232</ele>
        <time>2010-01-01T00:18:35Z</time>
      </trkpt>
      <trkpt lat="47.66573" lon="5.9931">
        <ele>233</ele>
        <time>2010-01-01T00:18:36Z</time>
      </trkpt>
      <trkpt lat="47.66575" lon="5.99309">
        <ele>233</ele>
        <time>2010-01-01T00:18:36Z</time>
      </trkpt>
      <trkpt lat="47.66577" lon="5.99309">
        <ele>233</ele>
        <time>2010-01-01T00:18:37Z</time>
      </trkpt>
      <trkpt lat="47.66579" lon="5.99309">
        <ele>233</ele>
        <time>2010-01-01T00:18:38Z</time>
      </trkpt>
      <trkpt lat="47.66581" lon="5.99309">
        <ele>233</ele>
        <time>2010-01-01T00:18:39Z</time>
      </trkpt>
      <trkpt lat="47.66583" lon="5.99309">
        <ele>233</ele>
        <time>2010-01-01T00:18:40Z</time>
      </trkpt>
      <trkpt lat="47.66586" lon="5.9931">
        <ele>233</ele>
        <time>2010-01-01T00:18:41Z</time>
      </trkpt>
      <trkpt lat="47.66588" lon="5.99311">
        <ele>233</ele>
        <time>2010-01-01T00:18:42Z</time>
      </trkpt>
      <trkpt lat="47.6659" lon="5.99312">
        <ele>233</ele>
        <time>2010-01-01T00:18:42Z</time>
      </trkpt>
      <trkpt lat="47.66592" lon="5.99314">
        <ele>233</ele>
        <time>2010-01-01T00:18:43Z</time>
      </trkpt>
      <trkpt lat="47.66593" lon="5.99315">
        <ele>233</ele>
        <time>2010-01-01T00:18:44Z</time>
      </trkpt>
      <trkpt lat="47.66595" lon="5.99316">
        <ele>233</ele>
        <time>2010-01-01T00:18:45Z</time>
      </trkpt>
      <trkpt lat="47.66597" lon="5.99317">
        <ele>233</ele>
        <time>2010-01-01T00:18:45Z</time>
      </trkpt>
      <trkpt lat="47.66599" lon="5.99318">
        <ele>233</ele>
        <time>2010-01-01T00:18:46Z</time>
      </trkpt>
      <trkpt lat="47.666" lon="5.9932">
        <ele>233</ele>
        <time>2010-01-01T00:18:47Z</time>
      </trkpt>
      <trkpt lat="47.66602" lon="5.99321">
        <ele>233</ele>
        <time>2010-01-01T00:18:48Z</time>
      </trkpt>
      <trkpt lat="47.66604" lon="5.99322">
        <ele>233</ele>
        <time>2010-01-01T00:18:49Z</time>
      </trkpt>
      <trkpt lat="47.66605" lon="5.99323">
        <ele>233</ele>
        <time>2010-01-01T00:18:49Z</time>
      </trkpt>
      <trkpt lat="47.66608" lon="5.99324">
        <ele>233</ele>
        <time>2010-01-01T00:18:50Z</time>
      </trkpt>
      <trkpt lat="47.6661" lon="5.99325">
        <ele>233</ele>
        <time>2010-01-01T00:18:51Z</time>
      </trkpt>
      <trkpt lat="47.66611" lon="5.99326">
        <ele>233</ele>
        <time>2010-01-01T00:18:52Z</time>
      </trkpt>
      <trkpt lat="47.66612" lon="5.99328">
        <ele>233</ele>
        <time>2010-01-01T00:18:52Z</time>
      </trkpt>
      <trkpt lat="47.66614" lon="5.99329">
        <ele>233</ele>
        <time>2010-01-01T00:18:53Z</time>
      </trkpt>
      <trkpt lat="47.66616" lon="5.9933">
        <ele>233</ele>
        <time>2010-01-01T00:18:54Z</time>
      </trkpt>
      <trkpt lat="47.66618" lon="5.99331">
        <ele>233</ele>
        <time>2010-01-01T00:18:55Z</time>
      </trkpt>
      <trkpt lat="47.6662" lon="5.99332">
        <ele>233</ele>
        <time>2010-01-01T00:18:56Z</time>
      </trkpt>
      <trkpt lat="47.66621" lon="5.99334">
        <ele>234</ele>
        <time>2010-01-01T00:18:56Z</time>
      </trkpt>
      <trkpt lat="47.66623" lon="5.99336">
        <ele>234</ele>
        <time>2010-01-01T00:18:57Z</time>
      </trkpt>
      <trkpt lat="47.66624" lon="5.99337">
        <ele>235</ele>
        <time>2010-01-01T00:18:58Z</time>
      </trkpt>
      <trkpt lat="47.66626" lon="5.99338">
        <ele>235</ele>
        <time>2010-01-01T00:18:58Z</time>
      </trkpt>
      <trkpt lat="47.66627" lon="5.99339">
        <ele>235</ele>
        <time>2010-01-01T00:18:59Z</time>
      </trkpt>
      <trkpt lat="47.66628" lon="5.9934">
        <ele>235</ele>
        <time>2010-01-01T00:19:00Z</time>
      </trkpt>
      <trkpt lat="47.6663" lon="5.99342">
        <ele>235</ele>
        <time>2010-01-01T00:19:00Z</time>
      </trkpt>
      <trkpt lat="47.66631" lon="5.99344">
        <ele>235</ele>
        <time>2010-01-01T00:19:01Z</time>
      </trkpt>
      <trkpt lat="47.66632" lon="5.99345">
        <ele>235</ele>
        <time>2010-01-01T00:19:02Z</time>
      </trkpt>
      <trkpt lat="47.66633" lon="5.99347">
        <ele>235</ele>
        <time>2010-01-01T00:19:02Z</time>
      </trkpt>
      <trkpt lat="47.66634" lon="5.99348">
        <ele>235</ele>
        <time>2010-01-01T00:19:03Z</time>
      </trkpt>
      <trkpt lat="47.66635" lon="5.9935">
        <ele>236</ele>
        <time>2010-01-01T00:19:03Z</time>
      </trkpt>
      <trkpt lat="47.66636" lon="5.99351">
        <ele>236</ele>
        <time>2010-01-01T00:19:04Z</time>
      </trkpt>
      <trkpt lat="47.66637" lon="5.99352">
        <ele>236</ele>
        <time>2010-01-01T00:19:04Z</time>
      </trkpt>
      <trkpt lat="47.66638" lon="5.99353">
        <ele>237</ele>
        <time>2010-01-01T00:19:05Z</time>
      </trkpt>
      <trkpt lat="47.66639" lon="5.99355">
        <ele>237</ele>
        <time>2010-01-01T00:19:06Z</time>
      </trkpt>
      <trkpt lat="47.66641" lon="5.99356">
        <ele>237</ele>
        <time>2010-01-01T00:19:06Z</time>
      </trkpt>
      <trkpt lat="47.66642" lon="5.99358">
        <ele>237</ele>
        <time>2010-01-01T00:19:07Z</time>
      </trkpt>
      <trkpt lat="47.66642" lon="5.99359">
        <ele>237</ele>
        <time>2010-01-01T00:19:07Z</time>
      </trkpt>
      <trkpt lat="47.66643" lon="5.9936">
        <ele>237</ele>
        <time>2010-01-01T00:19:08Z</time>
      </trkpt>
      <trkpt lat="47.66644" lon="5.99361">
        <ele>237</ele>
        <time>2010-01-01T00:19:08Z</time>
      </trkpt>
      <trkpt lat="47.66644" lon="5.99361">
        <ele>237</ele>
        <time>2010-01-01T00:19:08Z</time>
      </trkpt>
      <trkpt lat="47.66645" lon="5.99363">
        <ele>237</ele>
        <time>2010-01-01T00:19:09Z</time>
      </trkpt>
      <trkpt lat="47.66646" lon="5.99365">
        <ele>237</ele>
        <time>2010-01-01T00:19:10Z</time>
      </trkpt>
      <trkpt lat="47.66647" lon="5.99367">
        <ele>237</ele>
        <time>2010-01-01T00:19:10Z</time>
      </trkpt>
      <trkpt lat="47.66648" lon="5.99368">
        <ele>237</ele>
        <time>2010-01-01T00:19:11Z</time>
      </trkpt>
      <trkpt lat="47.66649" lon="5.99369">
        <ele>237</ele>
        <time>2010-01-01T00:19:11Z</time>
      </trkpt>
      <trkpt lat="47.6665" lon="5.99371">
        <ele>237</ele>
        <time>2010-01-01T00:19:12Z</time>
      </trkpt>
      <trkpt lat="47.66651" lon="5.99372">
        <ele>237</ele>
        <time>2010-01-01T00:19:12Z</time>
      </trkpt>
      <trkpt lat="47.66651" lon="5.99374">
        <ele>237</ele>
        <time>2010-01-01T00:19:13Z</time>
      </trkpt>
      <trkpt lat="47.66652" lon="5.99376">
        <ele>237</ele>
        <time>2010-01-01T00:19:13Z</time>
      </trkpt>
      <trkpt lat="47.66653" lon="5.99377">
        <ele>237</ele>
        <time>2010-01-01T00:19:14Z</time>
      </trkpt>
      <trkpt lat="47.66654" lon="5.99379">
        <ele>237</ele>
        <time>2010-01-01T00:19:14Z</time>
      </trkpt>
      <trkpt lat="47.66655" lon="5.9938">
        <ele>237</ele>
        <time>2010-01-01T00:19:15Z</time>
      </trkpt>
      <trkpt lat="47.66656" lon="5.99381">
        <ele>237</ele>
        <time>2010-01-01T00:19:15Z</time>
      </trkpt>
      <trkpt lat="47.66656" lon="5.99383">
        <ele>238</ele>
        <time>2010-01-01T00:19:16Z</time>
      </trkpt>
      <trkpt lat="47.66657" lon="5.99384">
        <ele>238</ele>
        <time>2010-01-01T00:19:16Z</time>
      </trkpt>
      <trkpt lat="47.66658" lon="5.99385">
        <ele>238</ele>
        <time>2010-01-01T00:19:17Z</time>
      </trkpt>
      <trkpt lat="47.66659" lon="5.99387">
        <ele>239</ele>
        <time>2010-01-01T00:19:17Z</time>
      </trkpt>
      <trkpt lat="47.6666" lon="5.99387">
        <ele>239</ele>
        <time>2010-01-01T00:19:18Z</time>
      </trkpt>
      <trkpt lat="47.66661" lon="5.99388">
        <ele>239</ele>
        <time>2010-01-01T00:19:18Z</time>
      </trkpt>
      <trkpt lat="47.66662" lon="5.99389">
        <ele>239</ele>
        <time>2010-01-01T00:19:19Z</time>
      </trkpt>
      <trkpt lat="47.66662" lon="5.99391">
        <ele>239</ele>
        <time>2010-01-01T00:19:19Z</time>
      </trkpt>
      <trkpt lat="47.66663" lon="5.99392">
        <ele>239</ele>
        <time>2010-01-01T00:19:20Z</time>
      </trkpt>
      <trkpt lat="47.66664" lon="5.99395">
        <ele>239</ele>
        <time>2010-01-01T00:19:20Z</time>
      </trkpt>
      <trkpt lat="47.66665" lon="5.99396">
        <ele>239</ele>
        <time>2010-01-01T00:19:21Z</time>
      </trkpt>
      <trkpt lat="47.66666" lon="5.99398">
        <ele>239</ele>
        <time>2010-01-01T00:19:22Z</time>
      </trkpt>
      <trkpt lat="47.66668" lon="5.994">
        <ele>239</ele>
        <time>2010-01-01T00:19:22Z</time>
      </trkpt>
      <trkpt lat="47.66669" lon="5.99401">
        <ele>239</ele>
        <time>2010-01-01T00:19:23Z</time>
      </trkpt>
      <trkpt lat="47.66671" lon="5.99402">
        <ele>239</ele>
        <time>2010-01-01T00:19:24Z</time>
      </trkpt>
      <trkpt lat="47.66671" lon="5.99403">
        <ele>239</ele>
        <time>2010-01-01T00:19:24Z</time>
      </trkpt>
      <trkpt lat="47.66672" lon="5.99404">
        <ele>239</ele>
        <time>2010-01-01T00:19:25Z</time>
      </trkpt>
      <trkpt lat="47.66673" lon="5.99406">
        <ele>239</ele>
        <time>2010-01-01T00:19:25Z</time>
      </trkpt>
      <trkpt lat="47.66673" lon="5.99408">
        <ele>239</ele>
        <time>2010-01-01T00:19:26Z</time>
      </trkpt>
      <trkpt lat="47.66674" lon="5.99409">
        <ele>239</ele>
        <time>2010-01-01T00:19:26Z</time>
      </trkpt>
      <trkpt lat="47.66675" lon="5.99411">
        <ele>239</ele>
        <time>2010-01-01T00:19:27Z</time>
      </trkpt>
      <trkpt lat="47.66676" lon="5.99413">
        <ele>239</ele>
        <time>2010-01-01T00:19:27Z</time>
      </trkpt>
      <trkpt lat="47.66677" lon="5.99414">
        <ele>240</ele>
        <time>2010-01-01T00:19:28Z</time>
      </trkpt>
      <trkpt lat="47.66677" lon="5.99415">
        <ele>240</ele>
        <time>2010-01-01T00:19:28Z</time>
      </trkpt>
      <trkpt lat="47.66678" lon="5.99416">
        <ele>240</ele>
        <time>2010-01-01T00:19:29Z</time>
      </trkpt>
      <trkpt lat="47.66679" lon="5.99418">
        <ele>241</ele>
        <time>2010-01-01T00:19:29Z</time>
      </trkpt>
      <trkpt lat="47.6668" lon="5.99419">
        <ele>241</ele>
        <time>2010-01-01T00:19:30Z</time>
      </trkpt>
      <trkpt lat="47.66681" lon="5.99421">
        <ele>241</ele>
        <time>2010-01-01T00:19:30Z</time>
      </trkpt>
      <trkpt lat="47.66681" lon="5.99422">
        <ele>241</ele>
        <time>2010-01-01T00:19:31Z</time>
      </trkpt>
      <trkpt lat="47.66682" lon="5.99424">
        <ele>241</ele>
        <time>2010-01-01T00:19:31Z</time>
      </trkpt>
      <trkpt lat="47.66683" lon="5.99425">
        <ele>241</ele>
        <time>2010-01-01T00:19:32Z</time>
      </trkpt>
      <trkpt lat="47.66683" lon="5.99426">
        <ele>241</ele>
        <time>2010-01-01T00:19:32Z</time>
      </trkpt>
      <trkpt lat="47.66685" lon="5.99427">
        <ele>241</ele>
        <time>2010-01-01T00:19:33Z</time>
      </trkpt>
      <trkpt lat="47.66685" lon="5.99429">
        <ele>241</ele>
        <time>2010-01-01T00:19:33Z</time>
      </trkpt>
      <trkpt lat="47.66686" lon="5.9943">
        <ele>241</ele>
        <time>2010-01-01T00:19:34Z</time>
      </trkpt>
      <trkpt lat="47.66687" lon="5.99431">
        <ele>241</ele>
        <time>2010-01-01T00:19:34Z</time>
      </trkpt>
      <trkpt lat="47.66688" lon="5.99433">
        <ele>241</ele>
        <time>2010-01-01T00:19:35Z</time>
      </trkpt>
      <trkpt lat="47.66689" lon="5.99434">
        <ele>241</ele>
        <time>2010-01-01T00:19:35Z</time>
      </trkpt>
      <trkpt lat="47.6669" lon="5.99435">
        <ele>241</ele>
        <time>2010-01-01T00:19:36Z</time>
      </trkpt>
      <trkpt lat="47.66691" lon="5.99436">
        <ele>241</ele>
        <time>2010-01-01T00:19:36Z</time>
      </trkpt>
      <trkpt lat="47.66691" lon="5.99437">
        <ele>241</ele>
        <time>2010-01-01T00:19:37Z</time>
      </trkpt>
      <trkpt lat="47.66692" lon="5.99439">
        <ele>241</ele>
        <time>2010-01-01T00:19:37Z</time>
      </trkpt>
      <trkpt lat="47.66692" lon="5.99441">
        <ele>241</ele>
        <time>2010-01-01T00:19:38Z</time>
      </trkpt>
      <trkpt lat="47.66693" lon="5.99442">
        <ele>241</ele>
        <time>2010-01-01T00:19:38Z</time>
      </trkpt>
      <trkpt lat="47.66694" lon="5.99443">
        <ele>241</ele>
        <time>2010-01-01T00:19:39Z</time>
      </trkpt>
      <trkpt lat="47.66695" lon="5.99445">
        <ele>241</ele>
        <time>2010-01-01T00:19:39Z</time>
      </trkpt>
      <trkpt lat="47.66696" lon="5.99446">
        <ele>241</ele>
        <time>2010-01-01T00:19:40Z</time>
      </trkpt>
      <trkpt lat="47.66697" lon="5.99447">
        <ele>241</ele>
        <time>2010-01-01T00:19:40Z</time>
      </trkpt>
      <trkpt lat="47.66698" lon="5.99449">
        <ele>241</ele>
        <time>2010-01-01T00:19:41Z</time>
      </trkpt>
      <trkpt lat="47.667" lon="5.9945">
        <ele>241</ele>
        <time>2010-01-01T00:19:41Z</time>
      </trkpt>
      <trkpt lat="47.66701" lon="5.99452">
        <ele>241</ele>
        <time>2010-01-01T00:19:42Z</time>
      </trkpt>
      <trkpt lat="47.66703" lon="5.99454">
        <ele>242</ele>
        <time>2010-01-01T00:19:43Z</time>
      </trkpt>
      <trkpt lat="47.66704" lon="5.99456">
        <ele>242</ele>
        <time>2010-01-01T00:19:44Z</time>
      </trkpt>
      <trkpt lat="47.66705" lon="5.99457">
        <ele>243</ele>
        <time>2010-01-01T00:19:44Z</time>
      </trkpt>
      <trkpt lat="47.66706" lon="5.99459">
        <ele>243</ele>
        <time>2010-01-01T00:19:45Z</time>
      </trkpt>
      <trkpt lat="47.66707" lon="5.9946">
        <ele>243</ele>
        <time>2010-01-01T00:19:45Z</time>
      </trkpt>
      <trkpt lat="47.66707" lon="5.99461">
        <ele>243</ele>
        <time>2010-01-01T00:19:46Z</time>
      </trkpt>
      <trkpt lat="47.66708" lon="5.99462">
        <ele>243</ele>
        <time>2010-01-01T00:19:46Z</time>
      </trkpt>
      <trkpt lat="47.66709" lon="5.99464">
        <ele>243</ele>
        <time>2010-01-01T00:19:47Z</time>
      </trkpt>
      <trkpt lat="47.6671" lon="5.99465">
        <ele>243</ele>
        <time>2010-01-01T00:19:47Z</time>
      </trkpt>
      <trkpt lat="47.66711" lon="5.99467">
        <ele>243</ele>
        <time>2010-01-01T00:19:48Z</time>
      </trkpt>
      <trkpt lat="47.66711" lon="5.99467">
        <ele>243</ele>
        <time>2010-01-01T00:19:48Z</time>
      </trkpt>
      <trkpt lat="47.66713" lon="5.9947">
        <ele>243</ele>
        <time>2010-01-01T00:19:49Z</time>
      </trkpt>
      <trkpt lat="47.66713" lon="5.9947">
        <ele>243</ele>
        <time>2010-01-01T00:19:49Z</time>
      </trkpt>
      <trkpt lat="47.66716" lon="5.99474">
        <ele>243</ele>
        <time>2010-01-01T00:19:51Z</time>
      </trkpt>
      <trkpt lat="47.66718" lon="5.99476">
        <ele>243</ele>
        <time>2010-01-01T00:19:52Z</time>
      </trkpt>
      <trkpt lat="47.6672" lon="5.99479">
        <ele>243</ele>
        <time>2010-01-01T00:19:53Z</time>
      </trkpt>
      <trkpt lat="47.66722" lon="5.99482">
        <ele>243</ele>
        <time>2010-01-01T00:19:54Z</time>
      </trkpt>
      <trkpt lat="47.66725" lon="5.99486">
        <ele>243</ele>
        <time>2010-01-01T00:19:55Z</time>
      </trkpt>
      <trkpt lat="47.66727" lon="5.99489">
        <ele>243</ele>
        <time>2010-01-01T00:19:57Z</time>
      </trkpt>
      <trkpt lat="47.66729" lon="5.99491">
        <ele>243</ele>
        <time>2010-01-01T00:19:58Z</time>
      </trkpt>
      <trkpt lat="47.66731" lon="5.99493">
        <ele>243</ele>
        <time>2010-01-01T00:19:59Z</time>
      </trkpt>
      <trkpt lat="47.66733" lon="5.99495">
        <ele>243</ele>
        <time>2010-01-01T00:19:59Z</time>
      </trkpt>
      <trkpt lat="47.66735" lon="5.99498">
        <ele>243</ele>
        <time>2010-01-01T00:20:01Z</time>
      </trkpt>
      <trkpt lat="47.66736" lon="5.995">
        <ele>243</ele>
        <time>2010-01-01T00:20:02Z</time>
      </trkpt>
      <trkpt lat="47.66738" lon="5.99502">
        <ele>243</ele>
        <time>2010-01-01T00:20:02Z</time>
      </trkpt>
      <trkpt lat="47.66739" lon="5.99504">
        <ele>243</ele>
        <time>2010-01-01T00:20:03Z</time>
      </trkpt>
      <trkpt lat="47.6674" lon="5.99505">
        <ele>243</ele>
        <time>2010-01-01T00:20:04Z</time>
      </trkpt>
      <trkpt lat="47.66742" lon="5.99508">
        <ele>243</ele>
        <time>2010-01-01T00:20:04Z</time>
      </trkpt>
      <trkpt lat="47.66743" lon="5.9951">
        <ele>243</ele>
        <time>2010-01-01T00:20:05Z</time>
      </trkpt>
      <trkpt lat="47.66745" lon="5.99512">
        <ele>243</ele>
        <time>2010-01-01T00:20:06Z</time>
      </trkpt>
      <trkpt lat="47.66747" lon="5.99514">
        <ele>243</ele>
        <time>2010-01-01T00:20:07Z</time>
      </trkpt>
      <trkpt lat="47.66749" lon="5.99516">
        <ele>243</ele>
        <time>2010-01-01T00:20:08Z</time>
      </trkpt>
      <trkpt lat="47.6675" lon="5.99518">
        <ele>243</ele>
        <time>2010-01-01T00:20:09Z</time>
      </trkpt>
      <trkpt lat="47.66752" lon="5.99519">
        <ele>243</ele>
        <time>2010-01-01T00:20:10Z</time>
      </trkpt>
      <trkpt lat="47.66753" lon="5.99521">
        <ele>243</ele>
        <time>2010-01-01T00:20:10Z</time>
      </trkpt>
      <trkpt lat="47.66753" lon="5.99523">
        <ele>243</ele>
        <time>2010-01-01T00:20:11Z</time>
      </trkpt>
      <trkpt lat="47.66753" lon="5.99525">
        <ele>243</ele>
        <time>2010-01-01T00:20:11Z</time>
      </trkpt>
      <trkpt lat="47.66754" lon="5.99527">
        <ele>243</ele>
        <time>2010-01-01T00:20:12Z</time>
      </trkpt>
      <trkpt lat="47.66755" lon="5.99529">
        <ele>243</ele>
        <time>2010-01-01T00:20:13Z</time>
      </trkpt>
      <trkpt lat="47.66756" lon="5.99531">
        <ele>243</ele>
        <time>2010-01-01T00:20:13Z</time>
      </trkpt>
      <trkpt lat="47.66757" lon="5.99532">
        <ele>243</ele>
        <time>2010-01-01T00:20:14Z</time>
      </trkpt>
      <trkpt lat="47.66758" lon="5.99534">
        <ele>243</ele>
        <time>2010-01-01T00:20:14Z</time>
      </trkpt>
      <trkpt lat="47.66759" lon="5.99536">
        <ele>243</ele>
        <time>2010-01-01T00:20:15Z</time>
      </trkpt>
      <trkpt lat="47.6676" lon="5.99537">
        <ele>243</ele>
        <time>2010-01-01T00:20:16Z</time>
      </trkpt>
      <trkpt lat="47.66761" lon="5.99539">
        <ele>243</ele>
        <time>2010-01-01T00:20:16Z</time>
      </trkpt>
      <trkpt lat="47.66763" lon="5.99541">
        <ele>243</ele>
        <time>2010-01-01T00:20:17Z</time>
      </trkpt>
      <trkpt lat="47.66764" lon="5.99543">
        <ele>243</ele>
        <time>2010-01-01T00:20:18Z</time>
      </trkpt>
      <trkpt lat="47.66765" lon="5.99544">
        <ele>243</ele>
        <time>2010-01-01T00:20:19Z</time>
      </trkpt>
      <trkpt lat="47.66766" lon="5.99546">
        <ele>243</ele>
        <time>2010-01-01T00:20:19Z</time>
      </trkpt>
      <trkpt lat="47.66768" lon="5.99548">
        <ele>243</ele>
        <time>2010-01-01T00:20:20Z</time>
      </trkpt>
      <trkpt lat="47.66769" lon="5.99551">
        <ele>243</ele>
        <time>2010-01-01T00:20:21Z</time>
      </trkpt>
      <trkpt lat="47.6677" lon="5.99553">
        <ele>243</ele>
        <time>2010-01-01T00:20:22Z</time>
      </trkpt>
      <trkpt lat="47.66772" lon="5.99555">
        <ele>243</ele>
        <time>2010-01-01T00:20:22Z</time>
      </trkpt>
      <trkpt lat="47.66773" lon="5.99558">
        <ele>243</ele>
        <time>2010-01-01T00:20:23Z</time>
      </trkpt>
      <trkpt lat="47.66775" lon="5.9956">
        <ele>243</ele>
        <time>2010-01-01T00:20:24Z</time>
      </trkpt>
      <trkpt lat="47.66777" lon="5.99563">
        <ele>243</ele>
        <time>2010-01-01T00:20:25Z</time>
      </trkpt>
      <trkpt lat="47.66779" lon="5.99566">
        <ele>243</ele>
        <time>2010-01-01T00:20:26Z</time>
      </trkpt>
      <trkpt lat="47.66781" lon="5.99569">
        <ele>243</ele>
        <time>2010-01-01T00:20:28Z</time>
      </trkpt>
      <trkpt lat="47.66783" lon="5.99573">
        <ele>243</ele>
        <time>2010-01-01T00:20:29Z</time>
      </trkpt>
      <trkpt lat="47.66784" lon="5.99576">
        <ele>243</ele>
        <time>2010-01-01T00:20:30Z</time>
      </trkpt>
      <trkpt lat="47.66785" lon="5.99579">
        <ele>243</ele>
        <time>2010-01-01T00:20:31Z</time>
      </trkpt>
      <trkpt lat="47.66787" lon="5.99582">
        <ele>243</ele>
        <time>2010-01-01T00:20:32Z</time>
      </trkpt>
      <trkpt lat="47.66789" lon="5.99585">
        <ele>243</ele>
        <time>2010-01-01T00:20:33Z</time>
      </trkpt>
      <trkpt lat="47.6679" lon="5.99587">
        <ele>243</ele>
        <time>2010-01-01T00:20:34Z</time>
      </trkpt>
      <trkpt lat="47.66791" lon="5.99588">
        <ele>243</ele>
        <time>2010-01-01T00:20:34Z</time>
      </trkpt>
      <trkpt lat="47.66792" lon="5.9959">
        <ele>243</ele>
        <time>2010-01-01T00:20:35Z</time>
      </trkpt>
      <trkpt lat="47.66794" lon="5.99592">
        <ele>243</ele>
        <time>2010-01-01T00:20:36Z</time>
      </trkpt>
      <trkpt lat="47.66795" lon="5.99594">
        <ele>243</ele>
        <time>2010-01-01T00:20:37Z</time>
      </trkpt>
      <trkpt lat="47.66796" lon="5.99597">
        <ele>243</ele>
        <time>2010-01-01T00:20:37Z</time>
      </trkpt>
      <trkpt lat="47.66797" lon="5.99599">
        <ele>243</ele>
        <time>2010-01-01T00:20:38Z</time>
      </trkpt>
      <trkpt lat="47.66799" lon="5.99602">
        <ele>243</ele>
        <time>2010-01-01T00:20:39Z</time>
      </trkpt>
      <trkpt lat="47.668" lon="5.99605">
        <ele>243</ele>
        <time>2010-01-01T00:20:40Z</time>
      </trkpt>
      <trkpt lat="47.66802" lon="5.99608">
        <ele>243</ele>
        <time>2010-01-01T00:20:41Z</time>
      </trkpt>
      <trkpt lat="47.66803" lon="5.9961">
        <ele>243</ele>
        <time>2010-01-01T00:20:42Z</time>
      </trkpt>
      <trkpt lat="47.66805" lon="5.99613">
        <ele>243</ele>
        <time>2010-01-01T00:20:43Z</time>
      </trkpt>
      <trkpt lat="47.66806" lon="5.99614">
        <ele>243</ele>
        <time>2010-01-01T00:20:44Z</time>
      </trkpt>
      <trkpt lat="47.66807" lon="5.99615">
        <ele>243</ele>
        <time>2010-01-01T00:20:44Z</time>
      </trkpt>
      <trkpt lat="47.66809" lon="5.99617">
        <ele>243</ele>
        <time>2010-01-01T00:20:45Z</time>
      </trkpt>
      <trkpt lat="47.6681" lon="5.9962">
        <ele>243</ele>
        <time>2010-01-01T00:20:46Z</time>
      </trkpt>
      <trkpt lat="47.66812" lon="5.99623">
        <ele>243</ele>
        <time>2010-01-01T00:20:47Z</time>
      </trkpt>
      <trkpt lat="47.66813" lon="5.99625">
        <ele>243</ele>
        <time>2010-01-01T00:20:48Z</time>
      </trkpt>
      <trkpt lat="47.66815" lon="5.99628">
        <ele>243</ele>
        <time>2010-01-01T00:20:49Z</time>
      </trkpt>
      <trkpt lat="47.66817" lon="5.99632">
        <ele>243</ele>
        <time>2010-01-01T00:20:50Z</time>
      </trkpt>
      <trkpt lat="47.6682" lon="5.99635">
        <ele>243</ele>
        <time>2010-01-01T00:20:51Z</time>
      </trkpt>
      <trkpt lat="47.66821" lon="5.99638">
        <ele>243</ele>
        <time>2010-01-01T00:20:53Z</time>
      </trkpt>
      <trkpt lat="47.66824" lon="5.99642">
        <ele>243</ele>
        <time>2010-01-01T00:20:54Z</time>
      </trkpt>
      <trkpt lat="47.66826" lon="5.99645">
        <ele>243</ele>
        <time>2010-01-01T00:20:55Z</time>
      </trkpt>
      <trkpt lat="47.66829" lon="5.99648">
        <ele>242</ele>
        <time>2010-01-01T00:20:56Z</time>
      </trkpt>
      <trkpt lat="47.66831" lon="5.9965">
        <ele>242</ele>
        <time>2010-01-01T00:20:58Z</time>
      </trkpt>
      <trkpt lat="47.66833" lon="5.99652">
        <ele>241</ele>
        <time>2010-01-01T00:20:59Z</time>
      </trkpt>
      <trkpt lat="47.66835" lon="5.99654">
        <ele>241</ele>
        <time>2010-01-01T00:21:00Z</time>
      </trkpt>
      <trkpt lat="47.66836" lon="5.99657">
        <ele>241</ele>
        <time>2010-01-01T00:21:00Z</time>
      </trkpt>
      <trkpt lat="47.66837" lon="5.99659">
        <ele>241</ele>
        <time>2010-01-01T00:21:01Z</time>
      </trkpt>
      <trkpt lat="47.66839" lon="5.99662">
        <ele>241</ele>
        <time>2010-01-01T00:21:02Z</time>
      </trkpt>
      <trkpt lat="47.6684" lon="5.99663">
        <ele>241</ele>
        <time>2010-01-01T00:21:03Z</time>
      </trkpt>
      <trkpt lat="47.66841" lon="5.99664">
        <ele>241</ele>
        <time>2010-01-01T00:21:03Z</time>
      </trkpt>
      <trkpt lat="47.66842" lon="5.99665">
        <ele>241</ele>
        <time>2010-01-01T00:21:04Z</time>
      </trkpt>
      <trkpt lat="47.66844" lon="5.99667">
        <ele>241</ele>
        <time>2010-01-01T00:21:05Z</time>
      </trkpt>
      <trkpt lat="47.66846" lon="5.99669">
        <ele>240</ele>
        <time>2010-01-01T00:21:06Z</time>
      </trkpt>
      <trkpt lat="47.66847" lon="5.99671">
        <ele>240</ele>
        <time>2010-01-01T00:21:06Z</time>
      </trkpt>
      <trkpt lat="47.66849" lon="5.99673">
        <ele>240</ele>
        <time>2010-01-01T00:21:07Z</time>
      </trkpt>
      <trkpt lat="47.66851" lon="5.99675">
        <ele>239</ele>
        <time>2010-01-01T00:21:08Z</time>
      </trkpt>
      <trkpt lat="47.66852" lon="5.99677">
        <ele>239</ele>
        <time>2010-01-01T00:21:09Z</time>
      </trkpt>
      <trkpt lat="47.66853" lon="5.99679">
        <ele>239</ele>
        <time>2010-01-01T00:21:10Z</time>
      </trkpt>
      <trkpt lat="47.66854" lon="5.99682">
        <ele>239</ele>
        <time>2010-01-01T00:21:10Z</time>
      </trkpt>
      <trkpt lat="47.66856" lon="5.99683">
        <ele>239</ele>
        <time>2010-01-01T00:21:11Z</time>
      </trkpt>
      <trkpt lat="47.66857" lon="5.99685">
        <ele>239</ele>
        <time>2010-01-01T00:21:12Z</time>
      </trkpt>
      <trkpt lat="47.66858" lon="5.99688">
        <ele>239</ele>
        <time>2010-01-01T00:21:13Z</time>
      </trkpt>
      <trkpt lat="47.66859" lon="5.9969">
        <ele>239</ele>
        <time>2010-01-01T00:21:13Z</time>
      </trkpt>
      <trkpt lat="47.6686" lon="5.99692">
        <ele>238</ele>
        <time>2010-01-01T00:21:14Z</time>
      </trkpt>
      <trkpt lat="47.66861" lon="5.99694">
        <ele>238</ele>
        <time>2010-01-01T00:21:15Z</time>
      </trkpt>
      <trkpt lat="47.66863" lon="5.99696">
        <ele>237</ele>
        <time>2010-01-01T00:21:16Z</time>
      </trkpt>
      <trkpt lat="47.66864" lon="5.99698">
        <ele>237</ele>
        <time>2010-01-01T00:21:16Z</time>
      </trkpt>
      <trkpt lat="47.66866" lon="5.99699">
        <ele>237</ele>
        <time>2010-01-01T00:21:17Z</time>
      </trkpt>
      <trkpt lat="47.66866" lon="5.99701">
        <ele>237</ele>
        <time>2010-01-01T00:21:18Z</time>
      </trkpt>
      <trkpt lat="47.66868" lon="5.99703">
        <ele>237</ele>
        <time>2010-01-01T00:21:18Z</time>
      </trkpt>
      <trkpt lat="47.66869" lon="5.99705">
        <ele>237</ele>
        <time>2010-01-01T00:21:19Z</time>
      </trkpt>
      <trkpt lat="47.66871" lon="5.99706">
        <ele>237</ele>
        <time>2010-01-01T00:21:20Z</time>
      </trkpt>
      <trkpt lat="47.66872" lon="5.99708">
        <ele>237</ele>
        <time>2010-01-01T00:21:21Z</time>
      </trkpt>
      <trkpt lat="47.66873" lon="5.9971">
        <ele>237</ele>
        <time>2010-01-01T00:21:21Z</time>
      </trkpt>
      <trkpt lat="47.66874" lon="5.99712">
        <ele>236</ele>
        <time>2010-01-01T00:21:22Z</time>
      </trkpt>
      <trkpt lat="47.66875" lon="5.99714">
        <ele>236</ele>
        <time>2010-01-01T00:21:23Z</time>
      </trkpt>
      <trkpt lat="47.66876" lon="5.99716">
        <ele>235</ele>
        <time>2010-01-01T00:21:23Z</time>
      </trkpt>
      <trkpt lat="47.66877" lon="5.99719">
        <ele>235</ele>
        <time>2010-01-01T00:21:24Z</time>
      </trkpt>
      <trkpt lat="47.66878" lon="5.99721">
        <ele>235</ele>
        <time>2010-01-01T00:21:25Z</time>
      </trkpt>
      <trkpt lat="47.66878" lon="5.99724">
        <ele>235</ele>
        <time>2010-01-01T00:21:26Z</time>
      </trkpt>
      <trkpt lat="47.66879" lon="5.99726">
        <ele>235</ele>
        <time>2010-01-01T00:21:26Z</time>
      </trkpt>
      <trkpt lat="47.6688" lon="5.99728">
        <ele>235</ele>
        <time>2010-01-01T00:21:27Z</time>
      </trkpt>
      <trkpt lat="47.66881" lon="5.99729">
        <ele>235</ele>
        <time>2010-01-01T00:21:27Z</time>
      </trkpt>
      <trkpt lat="47.66882" lon="5.99732">
        <ele>235</ele>
        <time>2010-01-01T00:21:28Z</time>
      </trkpt>
      <trkpt lat="47.66883" lon="5.99735">
        <ele>234</ele>
        <time>2010-01-01T00:21:29Z</time>
      </trkpt>
      <trkpt lat="47.66885" lon="5.99737">
        <ele>233</ele>
        <time>2010-01-01T00:21:30Z</time>
      </trkpt>
      <trkpt lat="47.66886" lon="5.99738">
        <ele>233</ele>
        <time>2010-01-01T00:21:31Z</time>
      </trkpt>
      <trkpt lat="47.66888" lon="5.9974">
        <ele>233</ele>
        <time>2010-01-01T00:21:31Z</time>
      </trkpt>
      <trkpt lat="47.66889" lon="5.99741">
        <ele>233</ele>
        <time>2010-01-01T00:21:32Z</time>
      </trkpt>
      <trkpt lat="47.6689" lon="5.99743">
        <ele>232</ele>
        <time>2010-01-01T00:21:33Z</time>
      </trkpt>
      <trkpt lat="47.6689" lon="5.99745">
        <ele>232</ele>
        <time>2010-01-01T00:21:33Z</time>
      </trkpt>
      <trkpt lat="47.66891" lon="5.99747">
        <ele>231</ele>
        <time>2010-01-01T00:21:34Z</time>
      </trkpt>
      <trkpt lat="47.66892" lon="5.99748">
        <ele>231</ele>
        <time>2010-01-01T00:21:34Z</time>
      </trkpt>
      <trkpt lat="47.66893" lon="5.9975">
        <ele>230</ele>
        <time>2010-01-01T00:21:35Z</time>
      </trkpt>
      <trkpt lat="47.66893" lon="5.99752">
        <ele>230</ele>
        <time>2010-01-01T00:21:36Z</time>
      </trkpt>
      <trkpt lat="47.66894" lon="5.99754">
        <ele>230</ele>
        <time>2010-01-01T00:21:36Z</time>
      </trkpt>
      <trkpt lat="47.66895" lon="5.99757">
        <ele>230</ele>
        <time>2010-01-01T00:21:37Z</time>
      </trkpt>
      <trkpt lat="47.66896" lon="5.99759">
        <ele>230</ele>
        <time>2010-01-01T00:21:38Z</time>
      </trkpt>
      <trkpt lat="47.66897" lon="5.99761">
        <ele>229</ele>
        <time>2010-01-01T00:21:38Z</time>
      </trkpt>
      <trkpt lat="47.66898" lon="5.99763">
        <ele>229</ele>
        <time>2010-01-01T00:21:39Z</time>
      </trkpt>
      <trkpt lat="47.669" lon="5.99765">
        <ele>228</ele>
        <time>2010-01-01T00:21:40Z</time>
      </trkpt>
      <trkpt lat="47.66901" lon="5.99768">
        <ele>228</ele>
        <time>2010-01-01T00:21:41Z</time>
      </trkpt>
      <trkpt lat="47.66901" lon="5.99771">
        <ele>228</ele>
        <time>2010-01-01T00:21:42Z</time>
      </trkpt>
      <trkpt lat="47.66902" lon="5.99774">
        <ele>227</ele>
        <time>2010-01-01T00:21:42Z</time>
      </trkpt>
      <trkpt lat="47.66903" lon="5.99775">
        <ele>227</ele>
        <time>2010-01-01T00:21:43Z</time>
      </trkpt>
      <trkpt lat="47.66903" lon="5.99777">
        <ele>227</ele>
        <time>2010-01-01T00:21:44Z</time>
      </trkpt>
      <trkpt lat="47.66904" lon="5.9978">
        <ele>226</ele>
        <time>2010-01-01T00:21:44Z</time>
      </trkpt>
      <trkpt lat="47.66904" lon="5.99782">
        <ele>226</ele>
        <time>2010-01-01T00:21:45Z</time>
      </trkpt>
      <trkpt lat="47.66905" lon="5.99785">
        <ele>226</ele>
        <time>2010-01-01T00:21:46Z</time>
      </trkpt>
      <trkpt lat="47.66906" lon="5.99787">
        <ele>226</ele>
        <time>2010-01-01T00:21:46Z</time>
      </trkpt>
      <trkpt lat="47.66907" lon="5.99789">
        <ele>226</ele>
        <time>2010-01-01T00:21:47Z</time>
      </trkpt>
      <trkpt lat="47.66908" lon="5.99791">
        <ele>225</ele>
        <time>2010-01-01T00:21:48Z</time>
      </trkpt>
      <trkpt lat="47.66909" lon="5.99793">
        <ele>225</ele>
        <time>2010-01-01T00:21:49Z</time>
      </trkpt>
      <trkpt lat="47.66911" lon="5.99796">
        <ele>224</ele>
        <time>2010-01-01T00:21:50Z</time>
      </trkpt>
      <trkpt lat="47.66913" lon="5.998">
        <ele>224</ele>
        <time>2010-01-01T00:21:51Z</time>
      </trkpt>
      <trkpt lat="47.66914" lon="5.99803">
        <ele>224</ele>
        <time>2010-01-01T00:21:52Z</time>
      </trkpt>
      <trkpt lat="47.66915" lon="5.99805">
        <ele>224</ele>
        <time>2010-01-01T00:21:53Z</time>
      </trkpt>
      <trkpt lat="47.66916" lon="5.99808">
        <ele>224</ele>
        <time>2010-01-01T00:21:53Z</time>
      </trkpt>
      <trkpt lat="47.66917" lon="5.9981">
        <ele>224</ele>
        <time>2010-01-01T00:21:54Z</time>
      </trkpt>
      <trkpt lat="47.66918" lon="5.99812">
        <ele>224</ele>
        <time>2010-01-01T00:21:55Z</time>
      </trkpt>
      <trkpt lat="47.66919" lon="5.99814">
        <ele>224</ele>
        <time>2010-01-01T00:21:55Z</time>
      </trkpt>
      <trkpt lat="47.6692" lon="5.99816">
        <ele>223</ele>
        <time>2010-01-01T00:21:56Z</time>
      </trkpt>
      <trkpt lat="47.66921" lon="5.99819">
        <ele>223</ele>
        <time>2010-01-01T00:21:57Z</time>
      </trkpt>
      <trkpt lat="47.66921" lon="5.99822">
        <ele>222</ele>
        <time>2010-01-01T00:21:58Z</time>
      </trkpt>
      <trkpt lat="47.66923" lon="5.99824">
        <ele>222</ele>
        <time>2010-01-01T00:21:59Z</time>
      </trkpt>
      <trkpt lat="47.66923" lon="5.99826">
        <ele>222</ele>
        <time>2010-01-01T00:21:59Z</time>
      </trkpt>
      <trkpt lat="47.66923" lon="5.99827">
        <ele>222</ele>
        <time>2010-01-01T00:22:00Z</time>
      </trkpt>
      <trkpt lat="47.66924" lon="5.99829">
        <ele>222</ele>
        <time>2010-01-01T00:22:00Z</time>
      </trkpt>
      <trkpt lat="47.66924" lon="5.99829">
        <ele>222</ele>
        <time>2010-01-01T00:22:00Z</time>
      </trkpt>
      <trkpt lat="47.66924" lon="5.9983">
        <ele>222</ele>
        <time>2010-01-01T00:22:00Z</time>
      </trkpt>
      <trkpt lat="47.66926" lon="5.99827">
        <ele>222</ele>
        <time>2010-01-01T00:22:01Z</time>
      </trkpt>
      <trkpt lat="47.66926" lon="5.99826">
        <ele>222</ele>
        <time>2010-01-01T00:22:02Z</time>
      </trkpt>
      <trkpt lat="47.66926" lon="5.99824">
        <ele>222</ele>
        <time>2010-01-01T00:22:02Z</time>
      </trkpt>
      <trkpt lat="47.66926" lon="5.99823">
        <ele>222</ele>
        <time>2010-01-01T00:22:02Z</time>
      </trkpt>
      <trkpt lat="47.66926" lon="5.99823">
        <ele>222</ele>
        <time>2010-01-01T00:22:02Z</time>
      </trkpt>
      <trkpt lat="47.66927" lon="5.99822">
        <ele>222</ele>
        <time>2010-01-01T00:22:03Z</time>
      </trkpt>
      <trkpt lat="47.66926" lon="5.99823">
        <ele>222</ele>
        <time>2010-01-01T00:22:03Z</time>
      </trkpt>
      <trkpt lat="47.66924" lon="5.99826">
        <ele>222</ele>
        <time>2010-01-01T00:22:04Z</time>
      </trkpt>
      <trkpt lat="47.66922" lon="5.99829">
        <ele>222</ele>
        <time>2010-01-01T00:22:05Z</time>
      </trkpt>
      <trkpt lat="47.6692" lon="5.9983">
        <ele>222</ele>
        <time>2010-01-01T00:22:06Z</time>
      </trkpt>
      <trkpt lat="47.66919" lon="5.99832">
        <ele>222</ele>
        <time>2010-01-01T00:22:07Z</time>
      </trkpt>
      <trkpt lat="47.66917" lon="5.99833">
        <ele>222</ele>
        <time>2010-01-01T00:22:08Z</time>
      </trkpt>
      <trkpt lat="47.66915" lon="5.99836">
        <ele>222</ele>
        <time>2010-01-01T00:22:09Z</time>
      </trkpt>
      <trkpt lat="47.66914" lon="5.99836">
        <ele>222</ele>
        <time>2010-01-01T00:22:09Z</time>
      </trkpt>
      <trkpt lat="47.66912" lon="5.99837">
        <ele>222</ele>
        <time>2010-01-01T00:22:10Z</time>
      </trkpt>
      <trkpt lat="47.66911" lon="5.99839">
        <ele>222</ele>
        <time>2010-01-01T00:22:11Z</time>
      </trkpt>
      <trkpt lat="47.66909" lon="5.99839">
        <ele>222</ele>
        <time>2010-01-01T00:22:11Z</time>
      </trkpt>
      <trkpt lat="47.66908" lon="5.9984">
        <ele>222</ele>
        <time>2010-01-01T00:22:12Z</time>
      </trkpt>
      <trkpt lat="47.66905" lon="5.9984">
        <ele>222</ele>
        <time>2010-01-01T00:22:13Z</time>
      </trkpt>
      <trkpt lat="47.66903" lon="5.99841">
        <ele>222</ele>
        <time>2010-01-01T00:22:14Z</time>
      </trkpt>
      <trkpt lat="47.66902" lon="5.99841">
        <ele>222</ele>
        <time>2010-01-01T00:22:14Z</time>
      </trkpt>
      <trkpt lat="47.66899" lon="5.99842">
        <ele>222</ele>
        <time>2010-01-01T00:22:15Z</time>
      </trkpt>
      <trkpt lat="47.66897" lon="5.99843">
        <ele>222</ele>
        <time>2010-01-01T00:22:16Z</time>
      </trkpt>
      <trkpt lat="47.66896" lon="5.99844">
        <ele>222</ele>
        <time>2010-01-01T00:22:17Z</time>
      </trkpt>
      <trkpt lat="47.66893" lon="5.99845">
        <ele>222</ele>
        <time>2010-01-01T00:22:18Z</time>
      </trkpt>
      <trkpt lat="47.66891" lon="5.99846">
        <ele>222</ele>
        <time>2010-01-01T00:22:19Z</time>
      </trkpt>
      <trkpt lat="47.66889" lon="5.99848">
        <ele>222</ele>
        <time>2010-01-01T00:22:20Z</time>
      </trkpt>
      <trkpt lat="47.66887" lon="5.9985">
        <ele>222</ele>
        <time>2010-01-01T00:22:21Z</time>
      </trkpt>
      <trkpt lat="47.66885" lon="5.99853">
        <ele>222</ele>
        <time>2010-01-01T00:22:22Z</time>
      </trkpt>
      <trkpt lat="47.66884" lon="5.99857">
        <ele>222</ele>
        <time>2010-01-01T00:22:23Z</time>
      </trkpt>
      <trkpt lat="47.66883" lon="5.99861">
        <ele>222</ele>
        <time>2010-01-01T00:22:24Z</time>
      </trkpt>
      <trkpt lat="47.66882" lon="5.99864">
        <ele>222</ele>
        <time>2010-01-01T00:22:25Z</time>
      </trkpt>
      <trkpt lat="47.66881" lon="5.99869">
        <ele>222</ele>
        <time>2010-01-01T00:22:26Z</time>
      </trkpt>
      <trkpt lat="47.66881" lon="5.99873">
        <ele>222</ele>
        <time>2010-01-01T00:22:28Z</time>
      </trkpt>
      <trkpt lat="47.6688" lon="5.99877">
        <ele>222</ele>
        <time>2010-01-01T00:22:29Z</time>
      </trkpt>
      <trkpt lat="47.66878" lon="5.99883">
        <ele>222</ele>
        <time>2010-01-01T00:22:31Z</time>
      </trkpt>
      <trkpt lat="47.66876" lon="5.99887">
        <ele>222</ele>
        <time>2010-01-01T00:22:32Z</time>
      </trkpt>
      <trkpt lat="47.66874" lon="5.99891">
        <ele>222</ele>
        <time>2010-01-01T00:22:33Z</time>
      </trkpt>
      <trkpt lat="47.66873" lon="5.99893">
        <ele>222</ele>
        <time>2010-01-01T00:22:34Z</time>
      </trkpt>
      <trkpt lat="47.66871" lon="5.99895">
        <ele>222</ele>
        <time>2010-01-01T00:22:35Z</time>
      </trkpt>
      <trkpt lat="47.66869" lon="5.99899">
        <ele>222</ele>
        <time>2010-01-01T00:22:36Z</time>
      </trkpt>
      <trkpt lat="47.66867" lon="5.99901">
        <ele>222</ele>
        <time>2010-01-01T00:22:37Z</time>
      </trkpt>
      <trkpt lat="47.66865" lon="5.99904">
        <ele>222</ele>
        <time>2010-01-01T00:22:38Z</time>
      </trkpt>
      <trkpt lat="47.66864" lon="5.99906">
        <ele>222</ele>
        <time>2010-01-01T00:22:39Z</time>
      </trkpt>
      <trkpt lat="47.66862" lon="5.99909">
        <ele>222</ele>
        <time>2010-01-01T00:22:40Z</time>
      </trkpt>
      <trkpt lat="47.6686" lon="5.99911">
        <ele>222</ele>
        <time>2010-01-01T00:22:41Z</time>
      </trkpt>
      <trkpt lat="47.66858" lon="5.99912">
        <ele>222</ele>
        <time>2010-01-01T00:22:42Z</time>
      </trkpt>
      <trkpt lat="47.66857" lon="5.99914">
        <ele>222</ele>
        <time>2010-01-01T00:22:42Z</time>
      </trkpt>
      <trkpt lat="47.66855" lon="5.99915">
        <ele>222</ele>
        <time>2010-01-01T00:22:43Z</time>
      </trkpt>
      <trkpt lat="47.66854" lon="5.99918">
        <ele>222</ele>
        <time>2010-01-01T00:22:44Z</time>
      </trkpt>
      <trkpt lat="47.66852" lon="5.99921">
        <ele>222</ele>
        <time>2010-01-01T00:22:45Z</time>
      </trkpt>
      <trkpt lat="47.6685" lon="5.99925">
        <ele>222</ele>
        <time>2010-01-01T00:22:47Z</time>
      </trkpt>
      <trkpt lat="47.66848" lon="5.99929">
        <ele>222</ele>
        <time>2010-01-01T00:22:48Z</time>
      </trkpt>
      <trkpt lat="47.66846" lon="5.99932">
        <ele>222</ele>
        <time>2010-01-01T00:22:49Z</time>
      </trkpt>
      <trkpt lat="47.66845" lon="5.99935">
        <ele>222</ele>
        <time>2010-01-01T00:22:50Z</time>
      </trkpt>
      <trkpt lat="47.66843" lon="5.99938">
        <ele>221</ele>
        <time>2010-01-01T00:22:51Z</time>
      </trkpt>
      <trkpt lat="47.66841" lon="5.99941">
        <ele>221</ele>
        <time>2010-01-01T00:22:52Z</time>
      </trkpt>
      <trkpt lat="47.6684" lon="5.99944">
        <ele>221</ele>
        <time>2010-01-01T00:22:53Z</time>
      </trkpt>
      <trkpt lat="47.66838" lon="5.99948">
        <ele>220</ele>
        <time>2010-01-01T00:22:54Z</time>
      </trkpt>
      <trkpt lat="47.66836" lon="5.99952">
        <ele>220</ele>
        <time>2010-01-01T00:22:56Z</time>
      </trkpt>
      <trkpt lat="47.66834" lon="5.99956">
        <ele>220</ele>
        <time>2010-01-01T00:22:57Z</time>
      </trkpt>
      <trkpt lat="47.66833" lon="5.9996">
        <ele>220</ele>
        <time>2010-01-01T00:22:58Z</time>
      </trkpt>
      <trkpt lat="47.66831" lon="5.99964">
        <ele>220</ele>
        <time>2010-01-01T00:23:00Z</time>
      </trkpt>
      <trkpt lat="47.6683" lon="5.99968">
        <ele>220</ele>
        <time>2010-01-01T00:23:01Z</time>
      </trkpt>
      <trkpt lat="47.66828" lon="5.99973">
        <ele>220</ele>
        <time>2010-01-01T00:23:02Z</time>
      </trkpt>
      <trkpt lat="47.66825" lon="5.99979">
        <ele>219</ele>
        <time>2010-01-01T00:23:04Z</time>
      </trkpt>
      <trkpt lat="47.66824" lon="5.99983">
        <ele>219</ele>
        <time>2010-01-01T00:23:06Z</time>
      </trkpt>
      <trkpt lat="47.66822" lon="5.99988">
        <ele>219</ele>
        <time>2010-01-01T00:23:07Z</time>
      </trkpt>
      <trkpt lat="47.66821" lon="5.99993">
        <ele>218</ele>
        <time>2010-01-01T00:23:08Z</time>
      </trkpt>
      <trkpt lat="47.6682" lon="5.99998">
        <ele>218</ele>
        <time>2010-01-01T00:23:10Z</time>
      </trkpt>
      <trkpt lat="47.66819" lon="6.00002">
        <ele>218</ele>
        <time>2010-01-01T00:23:11Z</time>
      </trkpt>
      <trkpt lat="47.66817" lon="6.00007">
        <ele>218</ele>
        <time>2010-01-01T00:23:12Z</time>
      </trkpt>
      <trkpt lat="47.66816" lon="6.00012">
        <ele>218</ele>
        <time>2010-01-01T00:23:14Z</time>
      </trkpt>
      <trkpt lat="47.66814" lon="6.00017">
        <ele>218</ele>
        <time>2010-01-01T00:23:16Z</time>
      </trkpt>
      <trkpt lat="47.66812" lon="6.00022">
        <ele>218</ele>
        <time>2010-01-01T00:23:17Z</time>
      </trkpt>
      <trkpt lat="47.6681" lon="6.00026">
        <ele>218</ele>
        <time>2010-01-01T00:23:18Z</time>
      </trkpt>
      <trkpt lat="47.66808" lon="6.0003">
        <ele>218</ele>
        <time>2010-01-01T00:23:20Z</time>
      </trkpt>
      <trkpt lat="47.66806" lon="6.00033">
        <ele>218</ele>
        <time>2010-01-01T00:23:21Z</time>
      </trkpt>
      <trkpt lat="47.66804" lon="6.00037">
        <ele>218</ele>
        <time>2010-01-01T00:23:22Z</time>
      </trkpt>
      <trkpt lat="47.66803" lon="6.0004">
        <ele>217</ele>
        <time>2010-01-01T00:23:23Z</time>
      </trkpt>
      <trkpt lat="47.668" lon="6.00044">
        <ele>217</ele>
        <time>2010-01-01T00:23:25Z</time>
      </trkpt>
      <trkpt lat="47.66798" lon="6.00048">
        <ele>217</ele>
        <time>2010-01-01T00:23:26Z</time>
      </trkpt>
      <trkpt lat="47.66796" lon="6.00052">
        <ele>216</ele>
        <time>2010-01-01T00:23:27Z</time>
      </trkpt>
      <trkpt lat="47.66793" lon="6.00056">
        <ele>216</ele>
        <time>2010-01-01T00:23:29Z</time>
      </trkpt>
      <trkpt lat="47.66791" lon="6.00059">
        <ele>216</ele>
        <time>2010-01-01T00:23:30Z</time>
      </trkpt>
      <trkpt lat="47.66789" lon="6.00062">
        <ele>216</ele>
        <time>2010-01-01T00:23:31Z</time>
      </trkpt>
      <trkpt lat="47.66787" lon="6.00065">
        <ele>216</ele>
        <time>2010-01-01T00:23:32Z</time>
      </trkpt>
      <trkpt lat="47.66785" lon="6.00068">
        <ele>216</ele>
        <time>2010-01-01T00:23:33Z</time>
      </trkpt>
      <trkpt lat="47.66783" lon="6.00071">
        <ele>216</ele>
        <time>2010-01-01T00:23:35Z</time>
      </trkpt>
      <trkpt lat="47.66781" lon="6.00075">
        <ele>216</ele>
        <time>2010-01-01T00:23:36Z</time>
      </trkpt>
      <trkpt lat="47.66779" lon="6.00078">
        <ele>216</ele>
        <time>2010-01-01T00:23:37Z</time>
      </trkpt>
      <trkpt lat="47.66777" lon="6.00082">
        <ele>216</ele>
        <time>2010-01-01T00:23:38Z</time>
      </trkpt>
      <trkpt lat="47.66775" lon="6.00085">
        <ele>216</ele>
        <time>2010-01-01T00:23:40Z</time>
      </trkpt>
      <trkpt lat="47.66773" lon="6.00088">
        <ele>216</ele>
        <time>2010-01-01T00:23:41Z</time>
      </trkpt>
      <trkpt lat="47.66772" lon="6.00091">
        <ele>216</ele>
        <time>2010-01-01T00:23:42Z</time>
      </trkpt>
      <trkpt lat="47.6677" lon="6.00093">
        <ele>216</ele>
        <time>2010-01-01T00:23:43Z</time>
      </trkpt>
      <trkpt lat="47.66768" lon="6.00096">
        <ele>216</ele>
        <time>2010-01-01T00:23:44Z</time>
      </trkpt>
      <trkpt lat="47.66766" lon="6.00098">
        <ele>216</ele>
        <time>2010-01-01T00:23:45Z</time>
      </trkpt>
      <trkpt lat="47.66764" lon="6.001">
        <ele>216</ele>
        <time>2010-01-01T00:23:46Z</time>
      </trkpt>
      <trkpt lat="47.66762" lon="6.00101">
        <ele>216</ele>
        <time>2010-01-01T00:23:47Z</time>
      </trkpt>
      <trkpt lat="47.6676" lon="6.00103">
        <ele>216</ele>
        <time>2010-01-01T00:23:47Z</time>
      </trkpt>
      <trkpt lat="47.66759" lon="6.00105">
        <ele>216</ele>
        <time>2010-01-01T00:23:48Z</time>
      </trkpt>
      <trkpt lat="47.66759" lon="6.00107">
        <ele>216</ele>
        <time>2010-01-01T00:23:49Z</time>
      </trkpt>
      <trkpt lat="47.66759" lon="6.00109">
        <ele>216</ele>
        <time>2010-01-01T00:23:49Z</time>
      </trkpt>
      <trkpt lat="47.66759" lon="6.00111">
        <ele>216</ele>
        <time>2010-01-01T00:23:50Z</time>
      </trkpt>
      <trkpt lat="47.6676" lon="6.00111">
        <ele>216</ele>
        <time>2010-01-01T00:23:50Z</time>
      </trkpt>
      <trkpt lat="47.66759" lon="6.00112">
        <ele>216</ele>
        <time>2010-01-01T00:23:50Z</time>
      </trkpt>
      <trkpt lat="47.66759" lon="6.00114">
        <ele>216</ele>
        <time>2010-01-01T00:23:51Z</time>
      </trkpt>
      <trkpt lat="47.66759" lon="6.00118">
        <ele>216</ele>
        <time>2010-01-01T00:23:52Z</time>
      </trkpt>
      <trkpt lat="47.66759" lon="6.00121">
        <ele>216</ele>
        <time>2010-01-01T00:23:53Z</time>
      </trkpt>
      <trkpt lat="47.66759" lon="6.00125">
        <ele>216</ele>
        <time>2010-01-01T00:23:54Z</time>
      </trkpt>
      <trkpt lat="47.66759" lon="6.00129">
        <ele>216</ele>
        <time>2010-01-01T00:23:55Z</time>
      </trkpt>
      <trkpt lat="47.66758" lon="6.00133">
        <ele>216</ele>
        <time>2010-01-01T00:23:56Z</time>
      </trkpt>
      <trkpt lat="47.66758" lon="6.00138">
        <ele>216</ele>
        <time>2010-01-01T00:23:57Z</time>
      </trkpt>
      <trkpt lat="47.66758" lon="6.00143">
        <ele>216</ele>
        <time>2010-01-01T00:23:58Z</time>
      </trkpt>
      <trkpt lat="47.66757" lon="6.00148">
        <ele>216</ele>
        <time>2010-01-01T00:24:00Z</time>
      </trkpt>
      <trkpt lat="47.66757" lon="6.00154">
        <ele>216</ele>
        <time>2010-01-01T00:24:01Z</time>
      </trkpt>
      <trkpt lat="47.66757" lon="6.00159">
        <ele>216</ele>
        <time>2010-01-01T00:24:03Z</time>
      </trkpt>
      <trkpt lat="47.66757" lon="6.00165">
        <ele>216</ele>
        <time>2010-01-01T00:24:04Z</time>
      </trkpt>
      <trkpt lat="47.66756" lon="6.0017">
        <ele>216</ele>
        <time>2010-01-01T00:24:06Z</time>
      </trkpt>
      <trkpt lat="47.66755" lon="6.00176">
        <ele>216</ele>
        <time>2010-01-01T00:24:07Z</time>
      </trkpt>
      <trkpt lat="47.66755" lon="6.00181">
        <ele>216</ele>
        <time>2010-01-01T00:24:09Z</time>
      </trkpt>
      <trkpt lat="47.66754" lon="6.00187">
        <ele>216</ele>
        <time>2010-01-01T00:24:10Z</time>
      </trkpt>
      <trkpt lat="47.66753" lon="6.00192">
        <ele>216</ele>
        <time>2010-01-01T00:24:12Z</time>
      </trkpt>
      <trkpt lat="47.66752" lon="6.00198">
        <ele>216</ele>
        <time>2010-01-01T00:24:14Z</time>
      </trkpt>
      <trkpt lat="47.6675" lon="6.00204">
        <ele>216</ele>
        <time>2010-01-01T00:24:15Z</time>
      </trkpt>
      <trkpt lat="47.66749" lon="6.00209">
        <ele>216</ele>
        <time>2010-01-01T00:24:17Z</time>
      </trkpt>
      <trkpt lat="47.66748" lon="6.00214">
        <ele>215</ele>
        <time>2010-01-01T00:24:18Z</time>
      </trkpt>
      <trkpt lat="47.66747" lon="6.0022">
        <ele>215</ele>
        <time>2010-01-01T00:24:20Z</time>
      </trkpt>
      <trkpt lat="47.66746" lon="6.00226">
        <ele>215</ele>
        <time>2010-01-01T00:24:21Z</time>
      </trkpt>
      <trkpt lat="47.66745" lon="6.00232">
        <ele>214</ele>
        <time>2010-01-01T00:24:23Z</time>
      </trkpt>
      <trkpt lat="47.66743" lon="6.00238">
        <ele>214</ele>
        <time>2010-01-01T00:24:25Z</time>
      </trkpt>
      <trkpt lat="47.66742" lon="6.00245">
        <ele>214</ele>
        <time>2010-01-01T00:24:27Z</time>
      </trkpt>
      <trkpt lat="47.6674" lon="6.00251">
        <ele>214</ele>
        <time>2010-01-01T00:24:29Z</time>
      </trkpt>
      <trkpt lat="47.66739" lon="6.00257">
        <ele>214</ele>
        <time>2010-01-01T00:24:30Z</time>
      </trkpt>
      <trkpt lat="47.66737" lon="6.00263">
        <ele>214</ele>
        <time>2010-01-01T00:24:32Z</time>
      </trkpt>
      <trkpt lat="47.66736" lon="6.00269">
        <ele>214</ele>
        <time>2010-01-01T00:24:34Z</time>
      </trkpt>
      <trkpt lat="47.66734" lon="6.00276">
        <ele>214</ele>
        <time>2010-01-01T00:24:36Z</time>
      </trkpt>
      <trkpt lat="47.66733" lon="6.00282">
        <ele>214</ele>
        <time>2010-01-01T00:24:37Z</time>
      </trkpt>
      <trkpt lat="47.66732" lon="6.00288">
        <ele>214</ele>
        <time>2010-01-01T00:24:39Z</time>
      </trkpt>
      <trkpt lat="47.66731" lon="6.00294">
        <ele>214</ele>
        <time>2010-01-01T00:24:41Z</time>
      </trkpt>
      <trkpt lat="47.6673" lon="6.00301">
        <ele>214</ele>
        <time>2010-01-01T00:24:43Z</time>
      </trkpt>
      <trkpt lat="47.66729" lon="6.00307">
        <ele>214</ele>
        <time>2010-01-01T00:24:44Z</time>
      </trkpt>
      <trkpt lat="47.66727" lon="6.00313">
        <ele>214</ele>
        <time>2010-01-01T00:24:46Z</time>
      </trkpt>
      <trkpt lat="47.66726" lon="6.00319">
        <ele>214</ele>
        <time>2010-01-01T00:24:48Z</time>
      </trkpt>
      <trkpt lat="47.66724" lon="6.00326">
        <ele>214</ele>
        <time>2010-01-01T00:24:50Z</time>
      </trkpt>
      <trkpt lat="47.66722" lon="6.00333">
        <ele>214</ele>
        <time>2010-01-01T00:24:52Z</time>
      </trkpt>
      <trkpt lat="47.6672" lon="6.00339">
        <ele>213</ele>
        <time>2010-01-01T00:24:54Z</time>
      </trkpt>
      <trkpt lat="47.66717" lon="6.00347">
        <ele>213</ele>
        <time>2010-01-01T00:24:56Z</time>
      </trkpt>
      <trkpt lat="47.66714" lon="6.00353">
        <ele>212</ele>
        <time>2010-01-01T00:24:58Z</time>
      </trkpt>
      <trkpt lat="47.66712" lon="6.0036">
        <ele>212</ele>
        <time>2010-01-01T00:25:00Z</time>
      </trkpt>
      <trkpt lat="47.6671" lon="6.00366">
        <ele>212</ele>
        <time>2010-01-01T00:25:02Z</time>
      </trkpt>
      <trkpt lat="47.66708" lon="6.00372">
        <ele>212</ele>
        <time>2010-01-01T00:25:04Z</time>
      </trkpt>
      <trkpt lat="47.66705" lon="6.00377">
        <ele>212</ele>
        <time>2010-01-01T00:25:06Z</time>
      </trkpt>
      <trkpt lat="47.66702" lon="6.00383">
        <ele>212</ele>
        <time>2010-01-01T00:25:07Z</time>
      </trkpt>
      <trkpt lat="47.66699" lon="6.00388">
        <ele>212</ele>
        <time>2010-01-01T00:25:09Z</time>
      </trkpt>
      <trkpt lat="47.66696" lon="6.00395">
        <ele>212</ele>
        <time>2010-01-01T00:25:12Z</time>
      </trkpt>
      <trkpt lat="47.66692" lon="6.00401">
        <ele>212</ele>
        <time>2010-01-01T00:25:14Z</time>
      </trkpt>
      <trkpt lat="47.66688" lon="6.00407">
        <ele>212</ele>
        <time>2010-01-01T00:25:16Z</time>
      </trkpt>
      <trkpt lat="47.66684" lon="6.00413">
        <ele>212</ele>
        <time>2010-01-01T00:25:18Z</time>
      </trkpt>
      <trkpt lat="47.6668" lon="6.00419">
        <ele>211</ele>
        <time>2010-01-01T00:25:21Z</time>
      </trkpt>
      <trkpt lat="47.66676" lon="6.00425">
        <ele>210</ele>
        <time>2010-01-01T00:25:23Z</time>
      </trkpt>
      <trkpt lat="47.66671" lon="6.00431">
        <ele>210</ele>
        <time>2010-01-01T00:25:26Z</time>
      </trkpt>
      <trkpt lat="47.66666" lon="6.00438">
        <ele>209</ele>
        <time>2010-01-01T00:25:28Z</time>
      </trkpt>
      <trkpt lat="47.66661" lon="6.00445">
        <ele>209</ele>
        <time>2010-01-01T00:25:31Z</time>
      </trkpt>
      <trkpt lat="47.66656" lon="6.00451">
        <ele>209</ele>
        <time>2010-01-01T00:25:34Z</time>
      </trkpt>
      <trkpt lat="47.66652" lon="6.00458">
        <ele>209</ele>
        <time>2010-01-01T00:25:36Z</time>
      </trkpt>
      <trkpt lat="47.66648" lon="6.00465">
        <ele>209</ele>
        <time>2010-01-01T00:25:39Z</time>
      </trkpt>
      <trkpt lat="47.66644" lon="6.00472">
        <ele>209</ele>
        <time>2010-01-01T00:25:41Z</time>
      </trkpt>
      <trkpt lat="47.6664" lon="6.00479">
        <ele>209</ele>
        <time>2010-01-01T00:25:43Z</time>
      </trkpt>
      <trkpt lat="47.66636" lon="6.00486">
        <ele>208</ele>
        <time>2010-01-01T00:25:46Z</time>
      </trkpt>
      <trkpt lat="47.66633" lon="6.00493">
        <ele>208</ele>
        <time>2010-01-01T00:25:48Z</time>
      </trkpt>
      <trkpt lat="47.6663" lon="6.00499">
        <ele>208</ele>
        <time>2010-01-01T00:25:50Z</time>
      </trkpt>
      <trkpt lat="47.66627" lon="6.00505">
        <ele>207</ele>
        <time>2010-01-01T00:25:52Z</time>
      </trkpt>
      <trkpt lat="47.66624" lon="6.00511">
        <ele>207</ele>
        <time>2010-01-01T00:25:54Z</time>
      </trkpt>
      <trkpt lat="47.66621" lon="6.00517">
        <ele>207</ele>
        <time>2010-01-01T00:25:56Z</time>
      </trkpt>
      <trkpt lat="47.66618" lon="6.00523">
        <ele>207</ele>
        <time>2010-01-01T00:25:58Z</time>
      </trkpt>
      <trkpt lat="47.66615" lon="6.00529">
        <ele>207</ele>
        <time>2010-01-01T00:26:00Z</time>
      </trkpt>
      <trkpt lat="47.66612" lon="6.00535">
        <ele>207</ele>
        <time>2010-01-01T00:26:02Z</time>
      </trkpt>
      <trkpt lat="47.66609" lon="6.0054">
        <ele>207</ele>
        <time>2010-01-01T00:26:04Z</time>
      </trkpt>
      <trkpt lat="47.66606" lon="6.00546">
        <ele>207</ele>
        <time>2010-01-01T00:26:06Z</time>
      </trkpt>
      <trkpt lat="47.66603" lon="6.00552">
        <ele>207</ele>
        <time>2010-01-01T00:26:08Z</time>
      </trkpt>
      <trkpt lat="47.666" lon="6.00558">
        <ele>207</ele>
        <time>2010-01-01T00:26:10Z</time>
      </trkpt>
      <trkpt lat="47.66597" lon="6.00564">
        <ele>207</ele>
        <time>2010-01-01T00:26:12Z</time>
      </trkpt>
      <trkpt lat="47.66594" lon="6.0057">
        <ele>207</ele>
        <time>2010-01-01T00:26:14Z</time>
      </trkpt>
      <trkpt lat="47.66591" lon="6.00576">
        <ele>207</ele>
        <time>2010-01-01T00:26:16Z</time>
      </trkpt>
      <trkpt lat="47.66588" lon="6.00582">
        <ele>207</ele>
        <time>2010-01-01T00:26:18Z</time>
      </trkpt>
      <trkpt lat="47.66586" lon="6.00588">
        <ele>207</ele>
        <time>2010-01-01T00:26:20Z</time>
      </trkpt>
      <trkpt lat="47.66583" lon="6.00594">
        <ele>207</ele>
        <time>2010-01-01T00:26:22Z</time>
      </trkpt>
      <trkpt lat="47.6658" lon="6.006">
        <ele>207</ele>
        <time>2010-01-01T00:26:24Z</time>
      </trkpt>
      <trkpt lat="47.66578" lon="6.00606">
        <ele>207</ele>
        <time>2010-01-01T00:26:26Z</time>
      </trkpt>
      <trkpt lat="47.66576" lon="6.00612">
        <ele>207</ele>
        <time>2010-01-01T00:26:28Z</time>
      </trkpt>
      <trkpt lat="47.66574" lon="6.00618">
        <ele>207</ele>
        <time>2010-01-01T00:26:29Z</time>
      </trkpt>
      <trkpt lat="47.66572" lon="6.00624">
        <ele>206</ele>
        <time>2010-01-01T00:26:31Z</time>
      </trkpt>
      <trkpt lat="47.6657" lon="6.00631">
        <ele>206</ele>
        <time>2010-01-01T00:26:33Z</time>
      </trkpt>
      <trkpt lat="47.66567" lon="6.00638">
        <ele>205</ele>
        <time>2010-01-01T00:26:35Z</time>
      </trkpt>
      <trkpt lat="47.66565" lon="6.00644">
        <ele>205</ele>
        <time>2010-01-01T00:26:37Z</time>
      </trkpt>
      <trkpt lat="47.66562" lon="6.00651">
        <ele>205</ele>
        <time>2010-01-01T00:26:39Z</time>
      </trkpt>
      <trkpt lat="47.6656" lon="6.00657">
        <ele>205</ele>
        <time>2010-01-01T00:26:41Z</time>
      </trkpt>
      <trkpt lat="47.66557" lon="6.00663">
        <ele>205</ele>
        <time>2010-01-01T00:26:43Z</time>
      </trkpt>
      <trkpt lat="47.66555" lon="6.00668">
        <ele>205</ele>
        <time>2010-01-01T00:26:45Z</time>
      </trkpt>
      <trkpt lat="47.66552" lon="6.00674">
        <ele>205</ele>
        <time>2010-01-01T00:26:47Z</time>
      </trkpt>
      <trkpt lat="47.66549" lon="6.00679">
        <ele>205</ele>
        <time>2010-01-01T00:26:49Z</time>
      </trkpt>
      <trkpt lat="47.66546" lon="6.00684">
        <ele>205</ele>
        <time>2010-01-01T00:26:50Z</time>
      </trkpt>
      <trkpt lat="47.66543" lon="6.00689">
        <ele>205</ele>
        <time>2010-01-01T00:26:52Z</time>
      </trkpt>
      <trkpt lat="47.66539" lon="6.00694">
        <ele>205</ele>
        <time>2010-01-01T00:26:54Z</time>
      </trkpt>
      <trkpt lat="47.66536" lon="6.00699">
        <ele>205</ele>
        <time>2010-01-01T00:26:56Z</time>
      </trkpt>
      <trkpt lat="47.66533" lon="6.00704">
        <ele>205</ele>
        <time>2010-01-01T00:26:58Z</time>
      </trkpt>
      <trkpt lat="47.6653" lon="6.00708">
        <ele>205</ele>
        <time>2010-01-01T00:27:00Z</time>
      </trkpt>
      <trkpt lat="47.66527" lon="6.00713">
        <ele>205</ele>
        <time>2010-01-01T00:27:02Z</time>
      </trkpt>
      <trkpt lat="47.66524" lon="6.00718">
        <ele>205</ele>
        <time>2010-01-01T00:27:03Z</time>
      </trkpt>
      <trkpt lat="47.66521" lon="6.00723">
        <ele>205</ele>
        <time>2010-01-01T00:27:05Z</time>
      </trkpt>
      <trkpt lat="47.66519" lon="6.00728">
        <ele>204</ele>
        <time>2010-01-01T00:27:07Z</time>
      </trkpt>
      <trkpt lat="47.66516" lon="6.00732">
        <ele>204</ele>
        <time>2010-01-01T00:27:08Z</time>
      </trkpt>
      <trkpt lat="47.66514" lon="6.00737">
        <ele>203</ele>
        <time>2010-01-01T00:27:10Z</time>
      </trkpt>
      <trkpt lat="47.66513" lon="6.00741">
        <ele>203</ele>
        <time>2010-01-01T00:27:11Z</time>
      </trkpt>
      <trkpt lat="47.66511" lon="6.00744">
        <ele>203</ele>
        <time>2010-01-01T00:27:12Z</time>
      </trkpt>
      <trkpt lat="47.66509" lon="6.00748">
        <ele>203</ele>
        <time>2010-01-01T00:27:13Z</time>
      </trkpt>
      <trkpt lat="47.66507" lon="6.00751">
        <ele>203</ele>
        <time>2010-01-01T00:27:14Z</time>
      </trkpt>
      <trkpt lat="47.66505" lon="6.00754">
        <ele>203</ele>
        <time>2010-01-01T00:27:16Z</time>
      </trkpt>
      <trkpt lat="47.66503" lon="6.00758">
        <ele>203</ele>
        <time>2010-01-01T00:27:17Z</time>
      </trkpt>
      <trkpt lat="47.665" lon="6.00762">
        <ele>203</ele>
        <time>2010-01-01T00:27:19Z</time>
      </trkpt>
      <trkpt lat="47.66497" lon="6.00766">
        <ele>203</ele>
        <time>2010-01-01T00:27:20Z</time>
      </trkpt>
      <trkpt lat="47.66495" lon="6.00771">
        <ele>203</ele>
        <time>2010-01-01T00:27:22Z</time>
      </trkpt>
      <trkpt lat="47.66491" lon="6.00776">
        <ele>203</ele>
        <time>2010-01-01T00:27:24Z</time>
      </trkpt>
      <trkpt lat="47.66488" lon="6.00781">
        <ele>203</ele>
        <time>2010-01-01T00:27:26Z</time>
      </trkpt>
      <trkpt lat="47.66485" lon="6.00787">
        <ele>203</ele>
        <time>2010-01-01T00:27:27Z</time>
      </trkpt>
      <trkpt lat="47.66482" lon="6.00792">
        <ele>203</ele>
        <time>2010-01-01T00:27:29Z</time>
      </trkpt>
      <trkpt lat="47.66479" lon="6.00798">
        <ele>203</ele>
        <time>2010-01-01T00:27:31Z</time>
      </trkpt>
      <trkpt lat="47.66476" lon="6.00803">
        <ele>203</ele>
        <time>2010-01-01T00:27:33Z</time>
      </trkpt>
      <trkpt lat="47.66473" lon="6.00808">
        <ele>203</ele>
        <time>2010-01-01T00:27:35Z</time>
      </trkpt>
      <trkpt lat="47.6647" lon="6.00813">
        <ele>203</ele>
        <time>2010-01-01T00:27:37Z</time>
      </trkpt>
      <trkpt lat="47.66467" lon="6.00818">
        <ele>202</ele>
        <time>2010-01-01T00:27:39Z</time>
      </trkpt>
      <trkpt lat="47.66463" lon="6.00822">
        <ele>202</ele>
        <time>2010-01-01T00:27:40Z</time>
      </trkpt>
      <trkpt lat="47.6646" lon="6.00827">
        <ele>201</ele>
        <time>2010-01-01T00:27:42Z</time>
      </trkpt>
      <trkpt lat="47.66457" lon="6.00831">
        <ele>201</ele>
        <time>2010-01-01T00:27:44Z</time>
      </trkpt>
      <trkpt lat="47.66454" lon="6.00835">
        <ele>201</ele>
        <time>2010-01-01T00:27:46Z</time>
      </trkpt>
      <trkpt lat="47.66451" lon="6.00839">
        <ele>201</ele>
        <time>2010-01-01T00:27:47Z</time>
      </trkpt>
      <trkpt lat="47.66447" lon="6.00844">
        <ele>201</ele>
        <time>2010-01-01T00:27:49Z</time>
      </trkpt>
      <trkpt lat="47.66443" lon="6.00848">
        <ele>201</ele>
        <time>2010-01-01T00:27:51Z</time>
      </trkpt>
      <trkpt lat="47.6644" lon="6.00853">
        <ele>201</ele>
        <time>2010-01-01T00:27:53Z</time>
      </trkpt>
      <trkpt lat="47.66436" lon="6.00858">
        <ele>201</ele>
        <time>2010-01-01T00:27:55Z</time>
      </trkpt>
      <trkpt lat="47.66433" lon="6.00863">
        <ele>201</ele>
        <time>2010-01-01T00:27:57Z</time>
      </trkpt>
      <trkpt lat="47.66429" lon="6.00869">
        <ele>201</ele>
        <time>2010-01-01T00:27:59Z</time>
      </trkpt>
      <trkpt lat="47.66426" lon="6.00875">
        <ele>201</ele>
        <time>2010-01-01T00:28:01Z</time>
      </trkpt>
      <trkpt lat="47.66422" lon="6.00882">
        <ele>201</ele>
        <time>2010-01-01T00:28:04Z</time>
      </trkpt>
      <trkpt lat="47.66418" lon="6.00887">
        <ele>201</ele>
        <time>2010-01-01T00:28:06Z</time>
      </trkpt>
      <trkpt lat="47.66415" lon="6.00892">
        <ele>201</ele>
        <time>2010-01-01T00:28:08Z</time>
      </trkpt>
      <trkpt lat="47.66411" lon="6.00897">
        <ele>201</ele>
        <time>2010-01-01T00:28:10Z</time>
      </trkpt>
      <trkpt lat="47.66408" lon="6.00903">
        <ele>201</ele>
        <time>2010-01-01T00:28:11Z</time>
      </trkpt>
      <trkpt lat="47.66405" lon="6.00908">
        <ele>201</ele>
        <time>2010-01-01T00:28:13Z</time>
      </trkpt>
      <trkpt lat="47.66402" lon="6.00913">
        <ele>201</ele>
        <time>2010-01-01T00:28:15Z</time>
      </trkpt>
      <trkpt lat="47.66398" lon="6.00918">
        <ele>201</ele>
        <time>2010-01-01T00:28:17Z</time>
      </trkpt>
      <trkpt lat="47.66395" lon="6.00923">
        <ele>201</ele>
        <time>2010-01-01T00:28:19Z</time>
      </trkpt>
      <trkpt lat="47.66392" lon="6.00928">
        <ele>201</ele>
        <time>2010-01-01T00:28:21Z</time>
      </trkpt>
      <trkpt lat="47.66389" lon="6.00933">
        <ele>201</ele>
        <time>2010-01-01T00:28:23Z</time>
      </trkpt>
      <trkpt lat="47.66385" lon="6.00937">
        <ele>201</ele>
        <time>2010-01-01T00:28:25Z</time>
      </trkpt>
      <trkpt lat="47.66382" lon="6.00942">
        <ele>201</ele>
        <time>2010-01-01T00:28:26Z</time>
      </trkpt>
      <trkpt lat="47.66378" lon="6.00948">
        <ele>201</ele>
        <time>2010-01-01T00:28:29Z</time>
      </trkpt>
      <trkpt lat="47.66373" lon="6.00953">
        <ele>201</ele>
        <time>2010-01-01T00:28:31Z</time>
      </trkpt>
      <trkpt lat="47.66368" lon="6.00959">
        <ele>201</ele>
        <time>2010-01-01T00:28:34Z</time>
      </trkpt>
      <trkpt lat="47.66363" lon="6.00964">
        <ele>201</ele>
        <time>2010-01-01T00:28:36Z</time>
      </trkpt>
      <trkpt lat="47.66358" lon="6.00969">
        <ele>201</ele>
        <time>2010-01-01T00:28:38Z</time>
      </trkpt>
      <trkpt lat="47.66353" lon="6.00973">
        <ele>201</ele>
        <time>2010-01-01T00:28:41Z</time>
      </trkpt>
      <trkpt lat="47.66348" lon="6.00976">
        <ele>201</ele>
        <time>2010-01-01T00:28:43Z</time>
      </trkpt>
      <trkpt lat="47.66344" lon="6.0098">
        <ele>201</ele>
        <time>2010-01-01T00:28:45Z</time>
      </trkpt>
      <trkpt lat="47.66339" lon="6.00984">
        <ele>201</ele>
        <time>2010-01-01T00:28:47Z</time>
      </trkpt>
      <trkpt lat="47.66334" lon="6.00987">
        <ele>201</ele>
        <time>2010-01-01T00:28:49Z</time>
      </trkpt>
      <trkpt lat="47.6633" lon="6.0099">
        <ele>201</ele>
        <time>2010-01-01T00:28:51Z</time>
      </trkpt>
      <trkpt lat="47.66326" lon="6.00994">
        <ele>201</ele>
        <time>2010-01-01T00:28:53Z</time>
      </trkpt>
      <trkpt lat="47.66322" lon="6.00997">
        <ele>201</ele>
        <time>2010-01-01T00:28:55Z</time>
      </trkpt>
      <trkpt lat="47.66317" lon="6.01">
        <ele>201</ele>
        <time>2010-01-01T00:28:57Z</time>
      </trkpt>
      <trkpt lat="47.66313" lon="6.01004">
        <ele>201</ele>
        <time>2010-01-01T00:28:59Z</time>
      </trkpt>
      <trkpt lat="47.66309" lon="6.01007">
        <ele>201</ele>
        <time>2010-01-01T00:29:01Z</time>
      </trkpt>
      <trkpt lat="47.66304" lon="6.0101">
        <ele>201</ele>
        <time>2010-01-01T00:29:03Z</time>
      </trkpt>
      <trkpt lat="47.663" lon="6.01013">
        <ele>201</ele>
        <time>2010-01-01T00:29:05Z</time>
      </trkpt>
      <trkpt lat="47.66295" lon="6.01016">
        <ele>201</ele>
        <time>2010-01-01T00:29:07Z</time>
      </trkpt>
      <trkpt lat="47.66291" lon="6.01019">
        <ele>201</ele>
        <time>2010-01-01T00:29:08Z</time>
      </trkpt>
      <trkpt lat="47.66287" lon="6.01021">
        <ele>201</ele>
        <time>2010-01-01T00:29:10Z</time>
      </trkpt>
      <trkpt lat="47.66282" lon="6.01024">
        <ele>201</ele>
        <time>2010-01-01T00:29:12Z</time>
      </trkpt>
      <trkpt lat="47.66278" lon="6.01027">
        <ele>201</ele>
        <time>2010-01-01T00:29:14Z</time>
      </trkpt>
      <trkpt lat="47.66273" lon="6.0103">
        <ele>201</ele>
        <time>2010-01-01T00:29:16Z</time>
      </trkpt>
      <trkpt lat="47.66268" lon="6.01033">
        <ele>201</ele>
        <time>2010-01-01T00:29:19Z</time>
      </trkpt>
      <trkpt lat="47.66263" lon="6.01036">
        <ele>201</ele>
        <time>2010-01-01T00:29:21Z</time>
      </trkpt>
      <trkpt lat="47.66258" lon="6.01038">
        <ele>201</ele>
        <time>2010-01-01T00:29:23Z</time>
      </trkpt>
      <trkpt lat="47.66254" lon="6.01041">
        <ele>201</ele>
        <time>2010-01-01T00:29:24Z</time>
      </trkpt>
      <trkpt lat="47.66249" lon="6.01042">
        <ele>201</ele>
        <time>2010-01-01T00:29:26Z</time>
      </trkpt>
      <trkpt lat="47.66244" lon="6.01043">
        <ele>201</ele>
        <time>2010-01-01T00:29:28Z</time>
      </trkpt>
      <trkpt lat="47.66239" lon="6.01044">
        <ele>201</ele>
        <time>2010-01-01T00:29:30Z</time>
      </trkpt>
      <trkpt lat="47.66234" lon="6.01045">
        <ele>201</ele>
        <time>2010-01-01T00:29:32Z</time>
      </trkpt>
      <trkpt lat="47.66229" lon="6.01045">
        <ele>201</ele>
        <time>2010-01-01T00:29:34Z</time>
      </trkpt>
      <trkpt lat="47.66224" lon="6.01045">
        <ele>201</ele>
        <time>2010-01-01T00:29:37Z</time>
      </trkpt>
      <trkpt lat="47.66218" lon="6.01045">
        <ele>201</ele>
        <time>2010-01-01T00:29:39Z</time>
      </trkpt>
      <trkpt lat="47.66213" lon="6.01046">
        <ele>201</ele>
        <time>2010-01-01T00:29:41Z</time>
      </trkpt>
      <trkpt lat="47.66208" lon="6.01046">
        <ele>201</ele>
        <time>2010-01-01T00:29:43Z</time>
      </trkpt>
      <trkpt lat="47.66203" lon="6.01046">
        <ele>201</ele>
        <time>2010-01-01T00:29:45Z</time>
      </trkpt>
      <trkpt lat="47.66198" lon="6.01046">
        <ele>201</ele>
        <time>2010-01-01T00:29:47Z</time>
      </trkpt>
      <trkpt lat="47.66193" lon="6.01047">
        <ele>201</ele>
        <time>2010-01-01T00:29:49Z</time>
      </trkpt>
      <trkpt lat="47.66188" lon="6.01047">
        <ele>201</ele>
        <time>2010-01-01T00:29:51Z</time>
      </trkpt>
      <trkpt lat="47.66182" lon="6.01048">
        <ele>201</ele>
        <time>2010-01-01T00:29:53Z</time>
      </trkpt>
      <trkpt lat="47.66177" lon="6.01049">
        <ele>200</ele>
        <time>2010-01-01T00:29:55Z</time>
      </trkpt>
      <trkpt lat="47.66172" lon="6.01049">
        <ele>200</ele>
        <time>2010-01-01T00:29:57Z</time>
      </trkpt>
      <trkpt lat="47.66167" lon="6.0105">
        <ele>200</ele>
        <time>2010-01-01T00:29:59Z</time>
      </trkpt>
      <trkpt lat="47.66162" lon="6.01051">
        <ele>199</ele>
        <time>2010-01-01T00:30:01Z</time>
      </trkpt>
      <trkpt lat="47.66157" lon="6.01051">
        <ele>199</ele>
        <time>2010-01-01T00:30:03Z</time>
      </trkpt>
      <trkpt lat="47.66153" lon="6.01051">
        <ele>199</ele>
        <time>2010-01-01T00:30:05Z</time>
      </trkpt>
      <trkpt lat="47.66149" lon="6.01051">
        <ele>199</ele>
        <time>2010-01-01T00:30:07Z</time>
      </trkpt>
      <trkpt lat="47.66144" lon="6.0105">
        <ele>199</ele>
        <time>2010-01-01T00:30:08Z</time>
      </trkpt>
      <trkpt lat="47.6614" lon="6.01048">
        <ele>199</ele>
        <time>2010-01-01T00:30:10Z</time>
      </trkpt>
      <trkpt lat="47.66136" lon="6.01046">
        <ele>199</ele>
        <time>2010-01-01T00:30:12Z</time>
      </trkpt>
      <trkpt lat="47.66132" lon="6.01043">
        <ele>199</ele>
        <time>2010-01-01T00:30:14Z</time>
      </trkpt>
      <trkpt lat="47.66128" lon="6.0104">
        <ele>199</ele>
        <time>2010-01-01T00:30:16Z</time>
      </trkpt>
      <trkpt lat="47.66124" lon="6.01037">
        <ele>199</ele>
        <time>2010-01-01T00:30:17Z</time>
      </trkpt>
      <trkpt lat="47.6612" lon="6.01034">
        <ele>199</ele>
        <time>2010-01-01T00:30:19Z</time>
      </trkpt>
      <trkpt lat="47.66116" lon="6.0103">
        <ele>199</ele>
        <time>2010-01-01T00:30:21Z</time>
      </trkpt>
      <trkpt lat="47.66112" lon="6.01027">
        <ele>199</ele>
        <time>2010-01-01T00:30:23Z</time>
      </trkpt>
      <trkpt lat="47.66109" lon="6.01023">
        <ele>199</ele>
        <time>2010-01-01T00:30:24Z</time>
      </trkpt>
      <trkpt lat="47.66105" lon="6.0102">
        <ele>199</ele>
        <time>2010-01-01T00:30:26Z</time>
      </trkpt>
      <trkpt lat="47.66101" lon="6.01017">
        <ele>199</ele>
        <time>2010-01-01T00:30:28Z</time>
      </trkpt>
      <trkpt lat="47.66097" lon="6.01013">
        <ele>199</ele>
        <time>2010-01-01T00:30:30Z</time>
      </trkpt>
      <trkpt lat="47.66094" lon="6.0101">
        <ele>199</ele>
        <time>2010-01-01T00:30:32Z</time>
      </trkpt>
      <trkpt lat="47.6609" lon="6.01006">
        <ele>199</ele>
        <time>2010-01-01T00:30:33Z</time>
      </trkpt>
      <trkpt lat="47.66086" lon="6.01002">
        <ele>199</ele>
        <time>2010-01-01T00:30:35Z</time>
      </trkpt>
      <trkpt lat="47.66082" lon="6.00999">
        <ele>199</ele>
        <time>2010-01-01T00:30:37Z</time>
      </trkpt>
      <trkpt lat="47.66078" lon="6.00995">
        <ele>199</ele>
        <time>2010-01-01T00:30:39Z</time>
      </trkpt>
      <trkpt lat="47.66074" lon="6.00992">
        <ele>199</ele>
        <time>2010-01-01T00:30:41Z</time>
      </trkpt>
      <trkpt lat="47.6607" lon="6.00988">
        <ele>199</ele>
        <time>2010-01-01T00:30:43Z</time>
      </trkpt>
      <trkpt lat="47.66066" lon="6.00984">
        <ele>199</ele>
        <time>2010-01-01T00:30:44Z</time>
      </trkpt>
      <trkpt lat="47.66062" lon="6.00981">
        <ele>199</ele>
        <time>2010-01-01T00:30:46Z</time>
      </trkpt>
      <trkpt lat="47.66058" lon="6.00977">
        <ele>199</ele>
        <time>2010-01-01T00:30:48Z</time>
      </trkpt>
      <trkpt lat="47.66054" lon="6.00974">
        <ele>199</ele>
        <time>2010-01-01T00:30:50Z</time>
      </trkpt>
      <trkpt lat="47.66051" lon="6.0097">
        <ele>199</ele>
        <time>2010-01-01T00:30:52Z</time>
      </trkpt>
      <trkpt lat="47.66047" lon="6.00967">
        <ele>199</ele>
        <time>2010-01-01T00:30:53Z</time>
      </trkpt>
      <trkpt lat="47.66043" lon="6.00964">
        <ele>199</ele>
        <time>2010-01-01T00:30:55Z</time>
      </trkpt>
      <trkpt lat="47.66039" lon="6.0096">
        <ele>199</ele>
        <time>2010-01-01T00:30:57Z</time>
      </trkpt>
      <trkpt lat="47.66036" lon="6.00957">
        <ele>199</ele>
        <time>2010-01-01T00:30:59Z</time>
      </trkpt>
      <trkpt lat="47.66032" lon="6.00954">
        <ele>199</ele>
        <time>2010-01-01T00:31:00Z</time>
      </trkpt>
      <trkpt lat="47.66028" lon="6.00951">
        <ele>199</ele>
        <time>2010-01-01T00:31:02Z</time>
      </trkpt>
      <trkpt lat="47.66025" lon="6.00948">
        <ele>199</ele>
        <time>2010-01-01T00:31:04Z</time>
      </trkpt>
      <trkpt lat="47.66021" lon="6.00946">
        <ele>199</ele>
        <time>2010-01-01T00:31:05Z</time>
      </trkpt>
      <trkpt lat="47.66017" lon="6.00945">
        <ele>199</ele>
        <time>2010-01-01T00:31:07Z</time>
      </trkpt>
      <trkpt lat="47.66013" lon="6.00946">
        <ele>199</ele>
        <time>2010-01-01T00:31:08Z</time>
      </trkpt>
      <trkpt lat="47.66009" lon="6.00946">
        <ele>199</ele>
        <time>2010-01-01T00:31:10Z</time>
      </trkpt>
      <trkpt lat="47.66006" lon="6.00947">
        <ele>199</ele>
        <time>2010-01-01T00:31:12Z</time>
      </trkpt>
      <trkpt lat="47.66001" lon="6.00948">
        <ele>199</ele>
        <time>2010-01-01T00:31:13Z</time>
      </trkpt>
      <trkpt lat="47.65997" lon="6.00949">
        <ele>199</ele>
        <time>2010-01-01T00:31:15Z</time>
      </trkpt>
      <trkpt lat="47.65993" lon="6.0095">
        <ele>199</ele>
        <time>2010-01-01T00:31:17Z</time>
      </trkpt>
      <trkpt lat="47.6599" lon="6.00951">
        <ele>199</ele>
        <time>2010-01-01T00:31:18Z</time>
      </trkpt>
      <trkpt lat="47.65988" lon="6.00952">
        <ele>199</ele>
        <time>2010-01-01T00:31:19Z</time>
      </trkpt>
      <trkpt lat="47.65987" lon="6.00953">
        <ele>199</ele>
        <time>2010-01-01T00:31:19Z</time>
      </trkpt>
      <trkpt lat="47.65986" lon="6.00955">
        <ele>199</ele>
        <time>2010-01-01T00:31:20Z</time>
      </trkpt>
      <trkpt lat="47.65984" lon="6.00956">
        <ele>199</ele>
        <time>2010-01-01T00:31:21Z</time>
      </trkpt>
      <trkpt lat="47.65984" lon="6.00957">
        <ele>199</ele>
        <time>2010-01-01T00:31:21Z</time>
      </trkpt>
      <trkpt lat="47.65984" lon="6.00957">
        <ele>199</ele>
        <time>2010-01-01T00:31:21Z</time>
      </trkpt>
      <trkpt lat="47.65982" lon="6.00958">
        <ele>199</ele>
        <time>2010-01-01T00:31:22Z</time>
      </trkpt>
      <trkpt lat="47.65982" lon="6.00961">
        <ele>199</ele>
        <time>2010-01-01T00:31:22Z</time>
      </trkpt>
      <trkpt lat="47.65983" lon="6.00966">
        <ele>199</ele>
        <time>2010-01-01T00:31:24Z</time>
      </trkpt>
      <trkpt lat="47.65984" lon="6.00969">
        <ele>199</ele>
        <time>2010-01-01T00:31:25Z</time>
      </trkpt>
      <trkpt lat="47.65986" lon="6.00973">
        <ele>199</ele>
        <time>2010-01-01T00:31:26Z</time>
      </trkpt>
      <trkpt lat="47.65989" lon="6.00976">
        <ele>199</ele>
        <time>2010-01-01T00:31:27Z</time>
      </trkpt>
      <trkpt lat="47.65991" lon="6.00979">
        <ele>199</ele>
        <time>2010-01-01T00:31:29Z</time>
      </trkpt>
      <trkpt lat="47.65994" lon="6.00982">
        <ele>199</ele>
        <time>2010-01-01T00:31:30Z</time>
      </trkpt>
      <trkpt lat="47.65996" lon="6.00985">
        <ele>199</ele>
        <time>2010-01-01T00:31:31Z</time>
      </trkpt>
      <trkpt lat="47.65999" lon="6.00989">
        <ele>199</ele>
        <time>2010-01-01T00:31:33Z</time>
      </trkpt>
      <trkpt lat="47.66001" lon="6.00992">
        <ele>199</ele>
        <time>2010-01-01T00:31:34Z</time>
      </trkpt>
      <trkpt lat="47.66004" lon="6.00995">
        <ele>199</ele>
        <time>2010-01-01T00:31:35Z</time>
      </trkpt>
      <trkpt lat="47.66006" lon="6.00998">
        <ele>199</ele>
        <time>2010-01-01T00:31:37Z</time>
      </trkpt>
      <trkpt lat="47.66009" lon="6.01002">
        <ele>199</ele>
        <time>2010-01-01T00:31:38Z</time>
      </trkpt>
      <trkpt lat="47.66011" lon="6.01005">
        <ele>199</ele>
        <time>2010-01-01T00:31:39Z</time>
      </trkpt>
      <trkpt lat="47.66014" lon="6.01008">
        <ele>199</ele>
        <time>2010-01-01T00:31:41Z</time>
      </trkpt>
      <trkpt lat="47.66016" lon="6.01011">
        <ele>199</ele>
        <time>2010-01-01T00:31:42Z</time>
      </trkpt>
      <trkpt lat="47.66019" lon="6.01014">
        <ele>199</ele>
        <time>2010-01-01T00:31:43Z</time>
      </trkpt>
      <trkpt lat="47.66021" lon="6.01018">
        <ele>199</ele>
        <time>2010-01-01T00:31:45Z</time>
      </trkpt>
      <trkpt lat="47.66024" lon="6.01021">
        <ele>199</ele>
        <time>2010-01-01T00:31:46Z</time>
      </trkpt>
      <trkpt lat="47.66027" lon="6.01024">
        <ele>199</ele>
        <time>2010-01-01T00:31:47Z</time>
      </trkpt>
      <trkpt lat="47.66029" lon="6.01027">
        <ele>199</ele>
        <time>2010-01-01T00:31:49Z</time>
      </trkpt>
      <trkpt lat="47.66032" lon="6.0103">
        <ele>199</ele>
        <time>2010-01-01T00:31:50Z</time>
      </trkpt>
      <trkpt lat="47.66034" lon="6.01034">
        <ele>199</ele>
        <time>2010-01-01T00:31:51Z</time>
      </trkpt>
      <trkpt lat="47.66037" lon="6.01037">
        <ele>199</ele>
        <time>2010-01-01T00:31:53Z</time>
      </trkpt>
      <trkpt lat="47.6604" lon="6.0104">
        <ele>199</ele>
        <time>2010-01-01T00:31:54Z</time>
      </trkpt>
      <trkpt lat="47.66042" lon="6.01043">
        <ele>199</ele>
        <time>2010-01-01T00:31:55Z</time>
      </trkpt>
      <trkpt lat="47.66045" lon="6.01046">
        <ele>199</ele>
        <time>2010-01-01T00:31:57Z</time>
      </trkpt>
      <trkpt lat="47.66047" lon="6.01049">
        <ele>199</ele>
        <time>2010-01-01T00:31:58Z</time>
      </trkpt>
      <trkpt lat="47.6605" lon="6.01053">
        <ele>199</ele>
        <time>2010-01-01T00:31:59Z</time>
      </trkpt>
      <trkpt lat="47.66052" lon="6.01056">
        <ele>199</ele>
        <time>2010-01-01T00:32:01Z</time>
      </trkpt>
      <trkpt lat="47.66055" lon="6.01059">
        <ele>199</ele>
        <time>2010-01-01T00:32:02Z</time>
      </trkpt>
      <trkpt lat="47.66058" lon="6.01062">
        <ele>199</ele>
        <time>2010-01-01T00:32:03Z</time>
      </trkpt>
      <trkpt lat="47.6606" lon="6.01065">
        <ele>199</ele>
        <time>2010-01-01T00:32:05Z</time>
      </trkpt>
      <trkpt lat="47.66063" lon="6.01068">
        <ele>199</ele>
        <time>2010-01-01T00:32:06Z</time>
      </trkpt>
      <trkpt lat="47.66065" lon="6.01072">
        <ele>199</ele>
        <time>2010-01-01T00:32:07Z</time>
      </trkpt>
      <trkpt lat="47.66068" lon="6.01075">
        <ele>199</ele>
        <time>2010-01-01T00:32:09Z</time>
      </trkpt>
      <trkpt lat="47.66071" lon="6.01078">
        <ele>200</ele>
        <time>2010-01-01T00:32:10Z</time>
      </trkpt>
      <trkpt lat="47.66073" lon="6.01081">
        <ele>200</ele>
        <time>2010-01-01T00:32:12Z</time>
      </trkpt>
      <trkpt lat="47.66076" lon="6.01085">
        <ele>200</ele>
        <time>2010-01-01T00:32:13Z</time>
      </trkpt>
      <trkpt lat="47.66078" lon="6.01088">
        <ele>201</ele>
        <time>2010-01-01T00:32:14Z</time>
      </trkpt>
      <trkpt lat="47.66081" lon="6.01091">
        <ele>201</ele>
        <time>2010-01-01T00:32:16Z</time>
      </trkpt>
      <trkpt lat="47.66083" lon="6.01095">
        <ele>201</ele>
        <time>2010-01-01T00:32:17Z</time>
      </trkpt>
      <trkpt lat="47.66086" lon="6.01098">
        <ele>201</ele>
        <time>2010-01-01T00:32:18Z</time>
      </trkpt>
      <trkpt lat="47.66089" lon="6.01102">
        <ele>201</ele>
        <time>2010-01-01T00:32:20Z</time>
      </trkpt>
      <trkpt lat="47.66091" lon="6.01105">
        <ele>201</ele>
        <time>2010-01-01T00:32:21Z</time>
      </trkpt>
      <trkpt lat="47.66094" lon="6.01108">
        <ele>201</ele>
        <time>2010-01-01T00:32:22Z</time>
      </trkpt>
      <trkpt lat="47.66096" lon="6.01111">
        <ele>201</ele>
        <time>2010-01-01T00:32:24Z</time>
      </trkpt>
      <trkpt lat="47.66099" lon="6.01115">
        <ele>201</ele>
        <time>2010-01-01T00:32:25Z</time>
      </trkpt>
      <trkpt lat="47.66101" lon="6.01118">
        <ele>201</ele>
        <time>2010-01-01T00:32:27Z</time>
      </trkpt>
      <trkpt lat="47.66104" lon="6.01121">
        <ele>201</ele>
        <time>2010-01-01T00:32:28Z</time>
      </trkpt>
      <trkpt lat="47.66107" lon="6.01124">
        <ele>201</ele>
        <time>2010-01-01T00:32:29Z</time>
      </trkpt>
      <trkpt lat="47.66109" lon="6.01128">
        <ele>201</ele>
        <time>2010-01-01T00:32:31Z</time>
      </trkpt>
      <trkpt lat="47.66112" lon="6.01131">
        <ele>201</ele>
        <time>2010-01-01T00:32:32Z</time>
      </trkpt>
      <trkpt lat="47.66115" lon="6.01134">
        <ele>202</ele>
        <time>2010-01-01T00:32:33Z</time>
      </trkpt>
      <trkpt lat="47.66117" lon="6.01138">
        <ele>202</ele>
        <time>2010-01-01T00:32:35Z</time>
      </trkpt>
      <trkpt lat="47.6612" lon="6.01141">
        <ele>202</ele>
        <time>2010-01-01T00:32:36Z</time>
      </trkpt>
      <trkpt lat="47.66123" lon="6.01145">
        <ele>203</ele>
        <time>2010-01-01T00:32:38Z</time>
      </trkpt>
      <trkpt lat="47.66125" lon="6.01148">
        <ele>203</ele>
        <time>2010-01-01T00:32:39Z</time>
      </trkpt>
      <trkpt lat="47.66128" lon="6.01152">
        <ele>203</ele>
        <time>2010-01-01T00:32:40Z</time>
      </trkpt>
      <trkpt lat="47.6613" lon="6.01155">
        <ele>203</ele>
        <time>2010-01-01T00:32:42Z</time>
      </trkpt>
      <trkpt lat="47.66133" lon="6.01158">
        <ele>203</ele>
        <time>2010-01-01T00:32:43Z</time>
      </trkpt>
      <trkpt lat="47.66136" lon="6.01162">
        <ele>203</ele>
        <time>2010-01-01T00:32:45Z</time>
      </trkpt>
      <trkpt lat="47.66139" lon="6.01165">
        <ele>203</ele>
        <time>2010-01-01T00:32:46Z</time>
      </trkpt>
      <trkpt lat="47.66141" lon="6.01169">
        <ele>203</ele>
        <time>2010-01-01T00:32:47Z</time>
      </trkpt>
      <trkpt lat="47.66144" lon="6.01172">
        <ele>203</ele>
        <time>2010-01-01T00:32:49Z</time>
      </trkpt>
      <trkpt lat="47.66147" lon="6.01176">
        <ele>203</ele>
        <time>2010-01-01T00:32:50Z</time>
      </trkpt>
      <trkpt lat="47.66149" lon="6.01179">
        <ele>203</ele>
        <time>2010-01-01T00:32:52Z</time>
      </trkpt>
      <trkpt lat="47.66152" lon="6.01183">
        <ele>203</ele>
        <time>2010-01-01T00:32:53Z</time>
      </trkpt>
      <trkpt lat="47.66155" lon="6.01187">
        <ele>203</ele>
        <time>2010-01-01T00:32:55Z</time>
      </trkpt>
      <trkpt lat="47.66157" lon="6.01191">
        <ele>203</ele>
        <time>2010-01-01T00:32:56Z</time>
      </trkpt>
      <trkpt lat="47.6616" lon="6.01194">
        <ele>203</ele>
        <time>2010-01-01T00:32:58Z</time>
      </trkpt>
      <trkpt lat="47.66163" lon="6.01198">
        <ele>203</ele>
        <time>2010-01-01T00:32:59Z</time>
      </trkpt>
      <trkpt lat="47.66166" lon="6.01202">
        <ele>203</ele>
        <time>2010-01-01T00:33:01Z</time>
      </trkpt>
      <trkpt lat="47.66169" lon="6.01206">
        <ele>204</ele>
        <time>2010-01-01T00:33:02Z</time>
      </trkpt>
      <trkpt lat="47.66172" lon="6.01209">
        <ele>204</ele>
        <time>2010-01-01T00:33:04Z</time>
      </trkpt>
      <trkpt lat="47.66175" lon="6.01213">
        <ele>204</ele>
        <time>2010-01-01T00:33:06Z</time>
      </trkpt>
      <trkpt lat="47.66178" lon="6.01217">
        <ele>205</ele>
        <time>2010-01-01T00:33:07Z</time>
      </trkpt>
      <trkpt lat="47.66181" lon="6.01221">
        <ele>205</ele>
        <time>2010-01-01T00:33:09Z</time>
      </trkpt>
      <trkpt lat="47.66184" lon="6.01225">
        <ele>205</ele>
        <time>2010-01-01T00:33:10Z</time>
      </trkpt>
      <trkpt lat="47.66187" lon="6.01229">
        <ele>205</ele>
        <time>2010-01-01T00:33:12Z</time>
      </trkpt>
      <trkpt lat="47.6619" lon="6.01233">
        <ele>205</ele>
        <time>2010-01-01T00:33:14Z</time>
      </trkpt>
      <trkpt lat="47.66194" lon="6.01237">
        <ele>205</ele>
        <time>2010-01-01T00:33:15Z</time>
      </trkpt>
      <trkpt lat="47.66197" lon="6.01241">
        <ele>205</ele>
        <time>2010-01-01T00:33:17Z</time>
      </trkpt>
      <trkpt lat="47.662" lon="6.01244">
        <ele>205</ele>
        <time>2010-01-01T00:33:19Z</time>
      </trkpt>
      <trkpt lat="47.66203" lon="6.01248">
        <ele>205</ele>
        <time>2010-01-01T00:33:20Z</time>
      </trkpt>
      <trkpt lat="47.66207" lon="6.01252">
        <ele>205</ele>
        <time>2010-01-01T00:33:22Z</time>
      </trkpt>
      <trkpt lat="47.66211" lon="6.01256">
        <ele>205</ele>
        <time>2010-01-01T00:33:24Z</time>
      </trkpt>
      <trkpt lat="47.66214" lon="6.0126">
        <ele>205</ele>
        <time>2010-01-01T00:33:26Z</time>
      </trkpt>
      <trkpt lat="47.66218" lon="6.01264">
        <ele>205</ele>
        <time>2010-01-01T00:33:28Z</time>
      </trkpt>
      <trkpt lat="47.66222" lon="6.01267">
        <ele>205</ele>
        <time>2010-01-01T00:33:29Z</time>
      </trkpt>
      <trkpt lat="47.66226" lon="6.01271">
        <ele>205</ele>
        <time>2010-01-01T00:33:31Z</time>
      </trkpt>
      <trkpt lat="47.6623" lon="6.01275">
        <ele>205</ele>
        <time>2010-01-01T00:33:33Z</time>
      </trkpt>
      <trkpt lat="47.66234" lon="6.01278">
        <ele>205</ele>
        <time>2010-01-01T00:33:35Z</time>
      </trkpt>
      <trkpt lat="47.66239" lon="6.01282">
        <ele>205</ele>
        <time>2010-01-01T00:33:37Z</time>
      </trkpt>
      <trkpt lat="47.66244" lon="6.01285">
        <ele>205</ele>
        <time>2010-01-01T00:33:39Z</time>
      </trkpt>
      <trkpt lat="47.66248" lon="6.01288">
        <ele>205</ele>
        <time>2010-01-01T00:33:41Z</time>
      </trkpt>
      <trkpt lat="47.66253" lon="6.01291">
        <ele>205</ele>
        <time>2010-01-01T00:33:44Z</time>
      </trkpt>
      <trkpt lat="47.66258" lon="6.01294">
        <ele>204</ele>
        <time>2010-01-01T00:33:46Z</time>
      </trkpt>
      <trkpt lat="47.66263" lon="6.01297">
        <ele>204</ele>
        <time>2010-01-01T00:33:48Z</time>
      </trkpt>
      <trkpt lat="47.66267" lon="6.01299">
        <ele>204</ele>
        <time>2010-01-01T00:33:50Z</time>
      </trkpt>
      <trkpt lat="47.66272" lon="6.01301">
        <ele>203</ele>
        <time>2010-01-01T00:33:51Z</time>
      </trkpt>
      <trkpt lat="47.66275" lon="6.01303">
        <ele>203</ele>
        <time>2010-01-01T00:33:53Z</time>
      </trkpt>
      <trkpt lat="47.66277" lon="6.01306">
        <ele>203</ele>
        <time>2010-01-01T00:33:54Z</time>
      </trkpt>
      <trkpt lat="47.66277" lon="6.0131">
        <ele>203</ele>
        <time>2010-01-01T00:33:55Z</time>
      </trkpt>
      <trkpt lat="47.66275" lon="6.01313">
        <ele>203</ele>
        <time>2010-01-01T00:33:56Z</time>
      </trkpt>
      <trkpt lat="47.66273" lon="6.01316">
        <ele>203</ele>
        <time>2010-01-01T00:33:57Z</time>
      </trkpt>
      <trkpt lat="47.6627" lon="6.01318">
        <ele>202</ele>
        <time>2010-01-01T00:33:58Z</time>
      </trkpt>
      <trkpt lat="47.66268" lon="6.01319">
        <ele>202</ele>
        <time>2010-01-01T00:33:59Z</time>
      </trkpt>
      <trkpt lat="47.66265" lon="6.0132">
        <ele>202</ele>
        <time>2010-01-01T00:34:01Z</time>
      </trkpt>
      <trkpt lat="47.66262" lon="6.01321">
        <ele>201</ele>
        <time>2010-01-01T00:34:02Z</time>
      </trkpt>
      <trkpt lat="47.66259" lon="6.01322">
        <ele>201</ele>
        <time>2010-01-01T00:34:03Z</time>
      </trkpt>
      <trkpt lat="47.66256" lon="6.01322">
        <ele>200</ele>
        <time>2010-01-01T00:34:04Z</time>
      </trkpt>
      <trkpt lat="47.66253" lon="6.01323">
        <ele>200</ele>
        <time>2010-01-01T00:34:06Z</time>
      </trkpt>
      <trkpt lat="47.66249" lon="6.01323">
        <ele>200</ele>
        <time>2010-01-01T00:34:07Z</time>
      </trkpt>
      <trkpt lat="47.66245" lon="6.01324">
        <ele>199</ele>
        <time>2010-01-01T00:34:09Z</time>
      </trkpt>
      <trkpt lat="47.66241" lon="6.01325">
        <ele>199</ele>
        <time>2010-01-01T00:34:10Z</time>
      </trkpt>
      <trkpt lat="47.66237" lon="6.01325">
        <ele>199</ele>
        <time>2010-01-01T00:34:12Z</time>
      </trkpt>
      <trkpt lat="47.66232" lon="6.01326">
        <ele>198</ele>
        <time>2010-01-01T00:34:14Z</time>
      </trkpt>
      <trkpt lat="47.66227" lon="6.01327">
        <ele>198</ele>
        <time>2010-01-01T00:34:16Z</time>
      </trkpt>
      <trkpt lat="47.66223" lon="6.01328">
        <ele>197</ele>
        <time>2010-01-01T00:34:18Z</time>
      </trkpt>
      <trkpt lat="47.66217" lon="6.01329">
        <ele>197</ele>
        <time>2010-01-01T00:34:20Z</time>
      </trkpt>
      <trkpt lat="47.66212" lon="6.0133">
        <ele>196</ele>
        <time>2010-01-01T00:34:22Z</time>
      </trkpt>
      <trkpt lat="47.66206" lon="6.0133">
        <ele>195</ele>
        <time>2010-01-01T00:34:24Z</time>
      </trkpt>
      <trkpt lat="47.662" lon="6.01332">
        <ele>195</ele>
        <time>2010-01-01T00:34:27Z</time>
      </trkpt>
      <trkpt lat="47.66194" lon="6.01333">
        <ele>194</ele>
        <time>2010-01-01T00:34:29Z</time>
      </trkpt>
      <trkpt lat="47.66188" lon="6.01335">
        <ele>194</ele>
        <time>2010-01-01T00:34:32Z</time>
      </trkpt>
      <trkpt lat="47.66182" lon="6.01337">
        <ele>193</ele>
        <time>2010-01-01T00:34:34Z</time>
      </trkpt>
      <trkpt lat="47.66175" lon="6.01339">
        <ele>192</ele>
        <time>2010-01-01T00:34:37Z</time>
      </trkpt>
      <trkpt lat="47.66168" lon="6.01341">
        <ele>192</ele>
        <time>2010-01-01T00:34:40Z</time>
      </trkpt>
      <trkpt lat="47.66162" lon="6.01344">
        <ele>191</ele>
        <time>2010-01-01T00:34:42Z</time>
      </trkpt>
      <trkpt lat="47.66155" lon="6.01346">
        <ele>191</ele>
        <time>2010-01-01T00:34:45Z</time>
      </trkpt>
      <trkpt lat="47.66148" lon="6.01348">
        <ele>190</ele>
        <time>2010-01-01T00:34:48Z</time>
      </trkpt>
      <trkpt lat="47.66141" lon="6.0135">
        <ele>190</ele>
        <time>2010-01-01T00:34:51Z</time>
      </trkpt>
      <trkpt lat="47.66135" lon="6.01352">
        <ele>189</ele>
        <time>2010-01-01T00:34:53Z</time>
      </trkpt>
      <trkpt lat="47.66129" lon="6.01355">
        <ele>189</ele>
        <time>2010-01-01T00:34:56Z</time>
      </trkpt>
      <trkpt lat="47.66122" lon="6.01358">
        <ele>189</ele>
        <time>2010-01-01T00:34:59Z</time>
      </trkpt>
      <trkpt lat="47.66115" lon="6.01362">
        <ele>189</ele>
        <time>2010-01-01T00:35:02Z</time>
      </trkpt>
      <trkpt lat="47.66109" lon="6.01365">
        <ele>189</ele>
        <time>2010-01-01T00:35:04Z</time>
      </trkpt>
      <trkpt lat="47.66103" lon="6.01369">
        <ele>189</ele>
        <time>2010-01-01T00:35:07Z</time>
      </trkpt>
      <trkpt lat="47.66097" lon="6.01373">
        <ele>188</ele>
        <time>2010-01-01T00:35:10Z</time>
      </trkpt>
      <trkpt lat="47.6609" lon="6.01377">
        <ele>188</ele>
        <time>2010-01-01T00:35:13Z</time>
      </trkpt>
      <trkpt lat="47.66083" lon="6.01381">
        <ele>187</ele>
        <time>2010-01-01T00:35:16Z</time>
      </trkpt>
      <trkpt lat="47.66077" lon="6.01386">
        <ele>187</ele>
        <time>2010-01-01T00:35:18Z</time>
      </trkpt>
      <trkpt lat="47.66071" lon="6.01389">
        <ele>187</ele>
        <time>2010-01-01T00:35:21Z</time>
      </trkpt>
      <trkpt lat="47.66064" lon="6.01394">
        <ele>187</ele>
        <time>2010-01-01T00:35:24Z</time>
      </trkpt>
      <trkpt lat="47.66057" lon="6.01399">
        <ele>187</ele>
        <time>2010-01-01T00:35:27Z</time>
      </trkpt>
      <trkpt lat="47.6605" lon="6.01404">
        <ele>187</ele>
        <time>2010-01-01T00:35:30Z</time>
      </trkpt>
      <trkpt lat="47.66044" lon="6.01409">
        <ele>187</ele>
        <time>2010-01-01T00:35:33Z</time>
      </trkpt>
      <trkpt lat="47.66038" lon="6.01412">
        <ele>187</ele>
        <time>2010-01-01T00:35:36Z</time>
      </trkpt>
      <trkpt lat="47.66033" lon="6.01416">
        <ele>187</ele>
        <time>2010-01-01T00:35:38Z</time>
      </trkpt>
      <trkpt lat="47.66027" lon="6.01419">
        <ele>187</ele>
        <time>2010-01-01T00:35:40Z</time>
      </trkpt>
      <trkpt lat="47.66021" lon="6.01421">
        <ele>187</ele>
        <time>2010-01-01T00:35:43Z</time>
      </trkpt>
      <trkpt lat="47.66016" lon="6.01424">
        <ele>187</ele>
        <time>2010-01-01T00:35:45Z</time>
      </trkpt>
      <trkpt lat="47.6601" lon="6.01426">
        <ele>187</ele>
        <time>2010-01-01T00:35:47Z</time>
      </trkpt>
      <trkpt lat="47.66005" lon="6.01429">
        <ele>187</ele>
        <time>2010-01-01T00:35:50Z</time>
      </trkpt>
      <trkpt lat="47.65999" lon="6.01431">
        <ele>186</ele>
        <time>2010-01-01T00:35:52Z</time>
      </trkpt>
      <trkpt lat="47.65994" lon="6.01433">
        <ele>186</ele>
        <time>2010-01-01T00:35:54Z</time>
      </trkpt>
      <trkpt lat="47.65988" lon="6.01435">
        <ele>185</ele>
        <time>2010-01-01T00:35:57Z</time>
      </trkpt>
      <trkpt lat="47.65982" lon="6.01439">
        <ele>185</ele>
        <time>2010-01-01T00:35:59Z</time>
      </trkpt>
      <trkpt lat="47.65978" lon="6.01442">
        <ele>185</ele>
        <time>2010-01-01T00:36:01Z</time>
      </trkpt>
      <trkpt lat="47.65973" lon="6.01445">
        <ele>185</ele>
        <time>2010-01-01T00:36:03Z</time>
      </trkpt>
      <trkpt lat="47.6597" lon="6.01447">
        <ele>185</ele>
        <time>2010-01-01T00:36:04Z</time>
      </trkpt>
      <trkpt lat="47.65966" lon="6.0145">
        <ele>185</ele>
        <time>2010-01-01T00:36:06Z</time>
      </trkpt>
      <trkpt lat="47.65962" lon="6.01454">
        <ele>185</ele>
        <time>2010-01-01T00:36:08Z</time>
      </trkpt>
      <trkpt lat="47.65958" lon="6.01458">
        <ele>185</ele>
        <time>2010-01-01T00:36:10Z</time>
      </trkpt>
      <trkpt lat="47.65954" lon="6.01462">
        <ele>185</ele>
        <time>2010-01-01T00:36:12Z</time>
      </trkpt>
      <trkpt lat="47.6595" lon="6.01466">
        <ele>185</ele>
        <time>2010-01-01T00:36:14Z</time>
      </trkpt>
      <trkpt lat="47.65945" lon="6.0147">
        <ele>185</ele>
        <time>2010-01-01T00:36:16Z</time>
      </trkpt>
      <trkpt lat="47.65941" lon="6.01473">
        <ele>185</ele>
        <time>2010-01-01T00:36:18Z</time>
      </trkpt>
      <trkpt lat="47.65937" lon="6.01476">
        <ele>185</ele>
        <time>2010-01-01T00:36:20Z</time>
      </trkpt>
      <trkpt lat="47.65933" lon="6.01479">
        <ele>185</ele>
        <time>2010-01-01T00:36:22Z</time>
      </trkpt>
      <trkpt lat="47.65929" lon="6.01483">
        <ele>185</ele>
        <time>2010-01-01T00:36:24Z</time>
      </trkpt>
      <trkpt lat="47.65925" lon="6.01486">
        <ele>185</ele>
        <time>2010-01-01T00:36:25Z</time>
      </trkpt>
      <trkpt lat="47.65921" lon="6.01489">
        <ele>185</ele>
        <time>2010-01-01T00:36:27Z</time>
      </trkpt>
      <trkpt lat="47.65918" lon="6.01493">
        <ele>185</ele>
        <time>2010-01-01T00:36:29Z</time>
      </trkpt>
      <trkpt lat="47.65915" lon="6.01498">
        <ele>185</ele>
        <time>2010-01-01T00:36:31Z</time>
      </trkpt>
      <trkpt lat="47.65911" lon="6.01501">
        <ele>185</ele>
        <time>2010-01-01T00:36:32Z</time>
      </trkpt>
      <trkpt lat="47.65908" lon="6.01505">
        <ele>185</ele>
        <time>2010-01-01T00:36:34Z</time>
      </trkpt>
      <trkpt lat="47.65905" lon="6.01509">
        <ele>185</ele>
        <time>2010-01-01T00:36:35Z</time>
      </trkpt>
      <trkpt lat="47.65901" lon="6.01513">
        <ele>185</ele>
        <time>2010-01-01T00:36:37Z</time>
      </trkpt>
      <trkpt lat="47.65898" lon="6.01518">
        <ele>185</ele>
        <time>2010-01-01T00:36:39Z</time>
      </trkpt>
      <trkpt lat="47.65896" lon="6.01522">
        <ele>185</ele>
        <time>2010-01-01T00:36:41Z</time>
      </trkpt>
      <trkpt lat="47.65893" lon="6.01526">
        <ele>185</ele>
        <time>2010-01-01T00:36:42Z</time>
      </trkpt>
      <trkpt lat="47.6589" lon="6.0153">
        <ele>185</ele>
        <time>2010-01-01T00:36:44Z</time>
      </trkpt>
      <trkpt lat="47.65887" lon="6.01533">
        <ele>185</ele>
        <time>2010-01-01T00:36:45Z</time>
      </trkpt>
      <trkpt lat="47.65885" lon="6.01537">
        <ele>185</ele>
        <time>2010-01-01T00:36:46Z</time>
      </trkpt>
      <trkpt lat="47.65884" lon="6.0154">
        <ele>185</ele>
        <time>2010-01-01T00:36:47Z</time>
      </trkpt>
      <trkpt lat="47.65884" lon="6.01543">
        <ele>185</ele>
        <time>2010-01-01T00:36:48Z</time>
      </trkpt>
      <trkpt lat="47.65884" lon="6.01546">
        <ele>185</ele>
        <time>2010-01-01T00:36:49Z</time>
      </trkpt>
      <trkpt lat="47.65886" lon="6.01547">
        <ele>185</ele>
        <time>2010-01-01T00:36:50Z</time>
      </trkpt>
      <trkpt lat="47.65887" lon="6.01546">
        <ele>185</ele>
        <time>2010-01-01T00:36:50Z</time>
      </trkpt>
      <trkpt lat="47.65889" lon="6.01545">
        <ele>185</ele>
        <time>2010-01-01T00:36:51Z</time>
      </trkpt>
      <trkpt lat="47.65891" lon="6.01545">
        <ele>185</ele>
        <time>2010-01-01T00:36:52Z</time>
      </trkpt>
      <trkpt lat="47.65894" lon="6.01544">
        <ele>185</ele>
        <time>2010-01-01T00:36:53Z</time>
      </trkpt>
      <trkpt lat="47.65896" lon="6.01544">
        <ele>185</ele>
        <time>2010-01-01T00:36:54Z</time>
      </trkpt>
      <trkpt lat="47.65898" lon="6.01543">
        <ele>185</ele>
        <time>2010-01-01T00:36:55Z</time>
      </trkpt>
      <trkpt lat="47.65901" lon="6.01542">
        <ele>185</ele>
        <time>2010-01-01T00:36:56Z</time>
      </trkpt>
      <trkpt lat="47.65903" lon="6.01542">
        <ele>185</ele>
        <time>2010-01-01T00:36:57Z</time>
      </trkpt>
      <trkpt lat="47.65906" lon="6.01541">
        <ele>185</ele>
        <time>2010-01-01T00:36:58Z</time>
      </trkpt>
      <trkpt lat="47.65908" lon="6.0154">
        <ele>185</ele>
        <time>2010-01-01T00:36:59Z</time>
      </trkpt>
      <trkpt lat="47.65911" lon="6.01539">
        <ele>185</ele>
        <time>2010-01-01T00:37:00Z</time>
      </trkpt>
      <trkpt lat="47.65914" lon="6.01538">
        <ele>185</ele>
        <time>2010-01-01T00:37:01Z</time>
      </trkpt>
      <trkpt lat="47.65916" lon="6.01537">
        <ele>185</ele>
        <time>2010-01-01T00:37:02Z</time>
      </trkpt>
      <trkpt lat="47.65919" lon="6.01536">
        <ele>185</ele>
        <time>2010-01-01T00:37:04Z</time>
      </trkpt>
      <trkpt lat="47.65923" lon="6.01534">
        <ele>185</ele>
        <time>2010-01-01T00:37:05Z</time>
      </trkpt>
      <trkpt lat="47.65926" lon="6.01533">
        <ele>185</ele>
        <time>2010-01-01T00:37:06Z</time>
      </trkpt>
      <trkpt lat="47.65929" lon="6.01532">
        <ele>185</ele>
        <time>2010-01-01T00:37:08Z</time>
      </trkpt>
      <trkpt lat="47.65933" lon="6.01531">
        <ele>185</ele>
        <time>2010-01-01T00:37:09Z</time>
      </trkpt>
      <trkpt lat="47.65936" lon="6.01529">
        <ele>185</ele>
        <time>2010-01-01T00:37:10Z</time>
      </trkpt>
      <trkpt lat="47.65939" lon="6.01528">
        <ele>185</ele>
        <time>2010-01-01T00:37:12Z</time>
      </trkpt>
      <trkpt lat="47.65942" lon="6.01527">
        <ele>185</ele>
        <time>2010-01-01T00:37:13Z</time>
      </trkpt>
      <trkpt lat="47.65945" lon="6.01526">
        <ele>185</ele>
        <time>2010-01-01T00:37:14Z</time>
      </trkpt>
      <trkpt lat="47.65949" lon="6.01525">
        <ele>185</ele>
        <time>2010-01-01T00:37:16Z</time>
      </trkpt>
      <trkpt lat="47.65952" lon="6.01523">
        <ele>185</ele>
        <time>2010-01-01T00:37:17Z</time>
      </trkpt>
      <trkpt lat="47.65956" lon="6.01522">
        <ele>185</ele>
        <time>2010-01-01T00:37:18Z</time>
      </trkpt>
      <trkpt lat="47.65959" lon="6.01521">
        <ele>185</ele>
        <time>2010-01-01T00:37:20Z</time>
      </trkpt>
      <trkpt lat="47.65963" lon="6.0152">
        <ele>185</ele>
        <time>2010-01-01T00:37:22Z</time>
      </trkpt>
      <trkpt lat="47.65967" lon="6.01518">
        <ele>185</ele>
        <time>2010-01-01T00:37:23Z</time>
      </trkpt>
      <trkpt lat="47.65971" lon="6.01517">
        <ele>185</ele>
        <time>2010-01-01T00:37:25Z</time>
      </trkpt>
      <trkpt lat="47.65974" lon="6.01516">
        <ele>185</ele>
        <time>2010-01-01T00:37:26Z</time>
      </trkpt>
      <trkpt lat="47.65978" lon="6.01515">
        <ele>185</ele>
        <time>2010-01-01T00:37:28Z</time>
      </trkpt>
      <trkpt lat="47.65981" lon="6.01514">
        <ele>185</ele>
        <time>2010-01-01T00:37:29Z</time>
      </trkpt>
      <trkpt lat="47.65985" lon="6.01513">
        <ele>185</ele>
        <time>2010-01-01T00:37:30Z</time>
      </trkpt>
      <trkpt lat="47.65988" lon="6.01511">
        <ele>185</ele>
        <time>2010-01-01T00:37:32Z</time>
      </trkpt>
      <trkpt lat="47.65992" lon="6.0151">
        <ele>185</ele>
        <time>2010-01-01T00:37:33Z</time>
      </trkpt>
      <trkpt lat="47.65996" lon="6.01509">
        <ele>185</ele>
        <time>2010-01-01T00:37:35Z</time>
      </trkpt>
      <trkpt lat="47.65999" lon="6.01508">
        <ele>185</ele>
        <time>2010-01-01T00:37:36Z</time>
      </trkpt>
      <trkpt lat="47.66003" lon="6.01507">
        <ele>185</ele>
        <time>2010-01-01T00:37:38Z</time>
      </trkpt>
      <trkpt lat="47.66007" lon="6.01506">
        <ele>185</ele>
        <time>2010-01-01T00:37:39Z</time>
      </trkpt>
      <trkpt lat="47.66011" lon="6.01504">
        <ele>185</ele>
        <time>2010-01-01T00:37:41Z</time>
      </trkpt>
      <trkpt lat="47.66014" lon="6.01503">
        <ele>185</ele>
        <time>2010-01-01T00:37:43Z</time>
      </trkpt>
      <trkpt lat="47.66018" lon="6.01501">
        <ele>185</ele>
        <time>2010-01-01T00:37:44Z</time>
      </trkpt>
      <trkpt lat="47.66022" lon="6.015">
        <ele>185</ele>
        <time>2010-01-01T00:37:46Z</time>
      </trkpt>
      <trkpt lat="47.66026" lon="6.01499">
        <ele>185</ele>
        <time>2010-01-01T00:37:47Z</time>
      </trkpt>
      <trkpt lat="47.6603" lon="6.01498">
        <ele>185</ele>
        <time>2010-01-01T00:37:49Z</time>
      </trkpt>
      <trkpt lat="47.66033" lon="6.01497">
        <ele>185</ele>
        <time>2010-01-01T00:37:50Z</time>
      </trkpt>
      <trkpt lat="47.66038" lon="6.01495">
        <ele>185</ele>
        <time>2010-01-01T00:37:52Z</time>
      </trkpt>
      <trkpt lat="47.66042" lon="6.01494">
        <ele>185</ele>
        <time>2010-01-01T00:37:54Z</time>
      </trkpt>
      <trkpt lat="47.66046" lon="6.01493">
        <ele>185</ele>
        <time>2010-01-01T00:37:55Z</time>
      </trkpt>
      <trkpt lat="47.6605" lon="6.01492">
        <ele>185</ele>
        <time>2010-01-01T00:37:57Z</time>
      </trkpt>
      <trkpt lat="47.66054" lon="6.01491">
        <ele>185</ele>
        <time>2010-01-01T00:37:59Z</time>
      </trkpt>
      <trkpt lat="47.66058" lon="6.0149">
        <ele>185</ele>
        <time>2010-01-01T00:38:00Z</time>
      </trkpt>
      <trkpt lat="47.66062" lon="6.0149">
        <ele>185</ele>
        <time>2010-01-01T00:38:02Z</time>
      </trkpt>
      <trkpt lat="47.66066" lon="6.01489">
        <ele>185</ele>
        <time>2010-01-01T00:38:04Z</time>
      </trkpt>
      <trkpt lat="47.6607" lon="6.01489">
        <ele>185</ele>
        <time>2010-01-01T00:38:05Z</time>
      </trkpt>
      <trkpt lat="47.66075" lon="6.01489">
        <ele>185</ele>
        <time>2010-01-01T00:38:07Z</time>
      </trkpt>
      <trkpt lat="47.66079" lon="6.01489">
        <ele>185</ele>
        <time>2010-01-01T00:38:09Z</time>
      </trkpt>
      <trkpt lat="47.66083" lon="6.01488">
        <ele>185</ele>
        <time>2010-01-01T00:38:10Z</time>
      </trkpt>
      <trkpt lat="47.66087" lon="6.01488">
        <ele>185</ele>
        <time>2010-01-01T00:38:12Z</time>
      </trkpt>
      <trkpt lat="47.66091" lon="6.01487">
        <ele>185</ele>
        <time>2010-01-01T00:38:14Z</time>
      </trkpt>
      <trkpt lat="47.66095" lon="6.01486">
        <ele>185</ele>
        <time>2010-01-01T00:38:15Z</time>
      </trkpt>
      <trkpt lat="47.661" lon="6.01485">
        <ele>185</ele>
        <time>2010-01-01T00:38:17Z</time>
      </trkpt>
      <trkpt lat="47.66104" lon="6.01483">
        <ele>185</ele>
        <time>2010-01-01T00:38:19Z</time>
      </trkpt>
      <trkpt lat="47.66109" lon="6.01483">
        <ele>185</ele>
        <time>2010-01-01T00:38:21Z</time>
      </trkpt>
      <trkpt lat="47.66113" lon="6.01482">
        <ele>185</ele>
        <time>2010-01-01T00:38:23Z</time>
      </trkpt>
      <trkpt lat="47.66117" lon="6.01481">
        <ele>185</ele>
        <time>2010-01-01T00:38:24Z</time>
      </trkpt>
      <trkpt lat="47.66121" lon="6.01481">
        <ele>185</ele>
        <time>2010-01-01T00:38:26Z</time>
      </trkpt>
      <trkpt lat="47.66126" lon="6.0148">
        <ele>185</ele>
        <time>2010-01-01T00:38:28Z</time>
      </trkpt>
      <trkpt lat="47.6613" lon="6.0148">
        <ele>185</ele>
        <time>2010-01-01T00:38:29Z</time>
      </trkpt>
      <trkpt lat="47.66134" lon="6.0148">
        <ele>185</ele>
        <time>2010-01-01T00:38:31Z</time>
      </trkpt>
      <trkpt lat="47.66138" lon="6.01479">
        <ele>185</ele>
        <time>2010-01-01T00:38:33Z</time>
      </trkpt>
      <trkpt lat="47.66142" lon="6.01479">
        <ele>185</ele>
        <time>2010-01-01T00:38:34Z</time>
      </trkpt>
      <trkpt lat="47.66147" lon="6.01479">
        <ele>185</ele>
        <time>2010-01-01T00:38:36Z</time>
      </trkpt>
      <trkpt lat="47.66151" lon="6.01479">
        <ele>185</ele>
        <time>2010-01-01T00:38:38Z</time>
      </trkpt>
      <trkpt lat="47.66156" lon="6.01478">
        <ele>185</ele>
        <time>2010-01-01T00:38:40Z</time>
      </trkpt>
      <trkpt lat="47.6616" lon="6.01478">
        <ele>185</ele>
        <time>2010-01-01T00:38:41Z</time>
      </trkpt>
      <trkpt lat="47.66164" lon="6.01478">
        <ele>185</ele>
        <time>2010-01-01T00:38:43Z</time>
      </trkpt>
      <trkpt lat="47.66169" lon="6.01477">
        <ele>185</ele>
        <time>2010-01-01T00:38:45Z</time>
      </trkpt>
      <trkpt lat="47.66174" lon="6.01477">
        <ele>185</ele>
        <time>2010-01-01T00:38:47Z</time>
      </trkpt>
      <trkpt lat="47.66178" lon="6.01476">
        <ele>185</ele>
        <time>2010-01-01T00:38:49Z</time>
      </trkpt>
      <trkpt lat="47.66182" lon="6.01476">
        <ele>185</ele>
        <time>2010-01-01T00:38:50Z</time>
      </trkpt>
      <trkpt lat="47.66187" lon="6.01475">
        <ele>185</ele>
        <time>2010-01-01T00:38:52Z</time>
      </trkpt>
      <trkpt lat="47.66191" lon="6.01475">
        <ele>185</ele>
        <time>2010-01-01T00:38:54Z</time>
      </trkpt>
      <trkpt lat="47.66195" lon="6.01474">
        <ele>185</ele>
        <time>2010-01-01T00:38:56Z</time>
      </trkpt>
      <trkpt lat="47.662" lon="6.01474">
        <ele>185</ele>
        <time>2010-01-01T00:38:57Z</time>
      </trkpt>
      <trkpt lat="47.66204" lon="6.01475">
        <ele>185</ele>
        <time>2010-01-01T00:38:59Z</time>
      </trkpt>
      <trkpt lat="47.66208" lon="6.01475">
        <ele>185</ele>
        <time>2010-01-01T00:39:01Z</time>
      </trkpt>
      <trkpt lat="47.66212" lon="6.01476">
        <ele>185</ele>
        <time>2010-01-01T00:39:02Z</time>
      </trkpt>
      <trkpt lat="47.66217" lon="6.01476">
        <ele>185</ele>
        <time>2010-01-01T00:39:04Z</time>
      </trkpt>
      <trkpt lat="47.66221" lon="6.01477">
        <ele>185</ele>
        <time>2010-01-01T00:39:06Z</time>
      </trkpt>
      <trkpt lat="47.66225" lon="6.01478">
        <ele>185</ele>
        <time>2010-01-01T00:39:08Z</time>
      </trkpt>
      <trkpt lat="47.66229" lon="6.01479">
        <ele>185</ele>
        <time>2010-01-01T00:39:09Z</time>
      </trkpt>
      <trkpt lat="47.66233" lon="6.0148">
        <ele>185</ele>
        <time>2010-01-01T00:39:11Z</time>
      </trkpt>
      <trkpt lat="47.66238" lon="6.01481">
        <ele>185</ele>
        <time>2010-01-01T00:39:13Z</time>
      </trkpt>
      <trkpt lat="47.66242" lon="6.01482">
        <ele>185</ele>
        <time>2010-01-01T00:39:14Z</time>
      </trkpt>
      <trkpt lat="47.66246" lon="6.01483">
        <ele>185</ele>
        <time>2010-01-01T00:39:16Z</time>
      </trkpt>
      <trkpt lat="47.66251" lon="6.01484">
        <ele>185</ele>
        <time>2010-01-01T00:39:18Z</time>
      </trkpt>
      <trkpt lat="47.66255" lon="6.01485">
        <ele>185</ele>
        <time>2010-01-01T00:39:20Z</time>
      </trkpt>
      <trkpt lat="47.66259" lon="6.01486">
        <ele>185</ele>
        <time>2010-01-01T00:39:21Z</time>
      </trkpt>
      <trkpt lat="47.66263" lon="6.01487">
        <ele>185</ele>
        <time>2010-01-01T00:39:23Z</time>
      </trkpt>
      <trkpt lat="47.66268" lon="6.01488">
        <ele>185</ele>
        <time>2010-01-01T00:39:25Z</time>
      </trkpt>
      <trkpt lat="47.66272" lon="6.01489">
        <ele>185</ele>
        <time>2010-01-01T00:39:27Z</time>
      </trkpt>
      <trkpt lat="47.66276" lon="6.01491">
        <ele>185</ele>
        <time>2010-01-01T00:39:28Z</time>
      </trkpt>
      <trkpt lat="47.6628" lon="6.01492">
        <ele>185</ele>
        <time>2010-01-01T00:39:30Z</time>
      </trkpt>
      <trkpt lat="47.66284" lon="6.01493">
        <ele>185</ele>
        <time>2010-01-01T00:39:32Z</time>
      </trkpt>
      <trkpt lat="47.66289" lon="6.01495">
        <ele>185</ele>
        <time>2010-01-01T00:39:33Z</time>
      </trkpt>
      <trkpt lat="47.66293" lon="6.01496">
        <ele>185</ele>
        <time>2010-01-01T00:39:35Z</time>
      </trkpt>
      <trkpt lat="47.66297" lon="6.01497">
        <ele>185</ele>
        <time>2010-01-01T00:39:37Z</time>
      </trkpt>
      <trkpt lat="47.66302" lon="6.01498">
        <ele>185</ele>
        <time>2010-01-01T00:39:39Z</time>
      </trkpt>
      <trkpt lat="47.66306" lon="6.015">
        <ele>185</ele>
        <time>2010-01-01T00:39:40Z</time>
      </trkpt>
      <trkpt lat="47.6631" lon="6.01502">
        <ele>185</ele>
        <time>2010-01-01T00:39:42Z</time>
      </trkpt>
      <trkpt lat="47.66314" lon="6.01504">
        <ele>185</ele>
        <time>2010-01-01T00:39:44Z</time>
      </trkpt>
      <trkpt lat="47.66318" lon="6.01506">
        <ele>185</ele>
        <time>2010-01-01T00:39:46Z</time>
      </trkpt>
      <trkpt lat="47.66323" lon="6.01508">
        <ele>185</ele>
        <time>2010-01-01T00:39:47Z</time>
      </trkpt>
      <trkpt lat="47.66327" lon="6.0151">
        <ele>185</ele>
        <time>2010-01-01T00:39:49Z</time>
      </trkpt>
      <trkpt lat="47.66331" lon="6.01512">
        <ele>185</ele>
        <time>2010-01-01T00:39:51Z</time>
      </trkpt>
      <trkpt lat="47.66336" lon="6.01514">
        <ele>185</ele>
        <time>2010-01-01T00:39:53Z</time>
      </trkpt>
      <trkpt lat="47.6634" lon="6.01516">
        <ele>185</ele>
        <time>2010-01-01T00:39:55Z</time>
      </trkpt>
      <trkpt lat="47.66344" lon="6.01518">
        <ele>185</ele>
        <time>2010-01-01T00:39:56Z</time>
      </trkpt>
      <trkpt lat="47.66348" lon="6.0152">
        <ele>185</ele>
        <time>2010-01-01T00:39:58Z</time>
      </trkpt>
      <trkpt lat="47.66352" lon="6.01523">
        <ele>185</ele>
        <time>2010-01-01T00:40:00Z</time>
      </trkpt>
      <trkpt lat="47.66356" lon="6.01525">
        <ele>185</ele>
        <time>2010-01-01T00:40:02Z</time>
      </trkpt>
      <trkpt lat="47.66361" lon="6.01527">
        <ele>185</ele>
        <time>2010-01-01T00:40:04Z</time>
      </trkpt>
      <trkpt lat="47.66365" lon="6.0153">
        <ele>185</ele>
        <time>2010-01-01T00:40:05Z</time>
      </trkpt>
      <trkpt lat="47.66369" lon="6.01533">
        <ele>185</ele>
        <time>2010-01-01T00:40:07Z</time>
      </trkpt>
      <trkpt lat="47.66373" lon="6.01535">
        <ele>185</ele>
        <time>2010-01-01T00:40:09Z</time>
      </trkpt>
      <trkpt lat="47.66377" lon="6.01537">
        <ele>185</ele>
        <time>2010-01-01T00:40:11Z</time>
      </trkpt>
      <trkpt lat="47.66381" lon="6.01539">
        <ele>185</ele>
        <time>2010-01-01T00:40:12Z</time>
      </trkpt>
      <trkpt lat="47.66385" lon="6.01542">
        <ele>185</ele>
        <time>2010-01-01T00:40:14Z</time>
      </trkpt>
      <trkpt lat="47.66389" lon="6.01544">
        <ele>185</ele>
        <time>2010-01-01T00:40:16Z</time>
      </trkpt>
      <trkpt lat="47.66393" lon="6.01546">
        <ele>185</ele>
        <time>2010-01-01T00:40:18Z</time>
      </trkpt>
      <trkpt lat="47.66398" lon="6.01548">
        <ele>185</ele>
        <time>2010-01-01T00:40:19Z</time>
      </trkpt>
      <trkpt lat="47.66402" lon="6.0155">
        <ele>185</ele>
        <time>2010-01-01T00:40:21Z</time>
      </trkpt>
      <trkpt lat="47.66406" lon="6.01553">
        <ele>185</ele>
        <time>2010-01-01T00:40:23Z</time>
      </trkpt>
      <trkpt lat="47.66409" lon="6.01555">
        <ele>185</ele>
        <time>2010-01-01T00:40:24Z</time>
      </trkpt>
      <trkpt lat="47.66413" lon="6.01558">
        <ele>185</ele>
        <time>2010-01-01T00:40:26Z</time>
      </trkpt>
      <trkpt lat="47.66417" lon="6.01561">
        <ele>185</ele>
        <time>2010-01-01T00:40:28Z</time>
      </trkpt>
      <trkpt lat="47.66421" lon="6.01564">
        <ele>185</ele>
        <time>2010-01-01T00:40:30Z</time>
      </trkpt>
      <trkpt lat="47.66425" lon="6.01567">
        <ele>185</ele>
        <time>2010-01-01T00:40:31Z</time>
      </trkpt>
      <trkpt lat="47.66429" lon="6.0157">
        <ele>185</ele>
        <time>2010-01-01T00:40:33Z</time>
      </trkpt>
      <trkpt lat="47.66433" lon="6.01573">
        <ele>185</ele>
        <time>2010-01-01T00:40:35Z</time>
      </trkpt>
      <trkpt lat="47.66437" lon="6.01576">
        <ele>185</ele>
        <time>2010-01-01T00:40:37Z</time>
      </trkpt>
      <trkpt lat="47.6644" lon="6.01578">
        <ele>185</ele>
        <time>2010-01-01T00:40:38Z</time>
      </trkpt>
      <trkpt lat="47.66444" lon="6.01581">
        <ele>185</ele>
        <time>2010-01-01T00:40:40Z</time>
      </trkpt>
      <trkpt lat="47.66448" lon="6.01584">
        <ele>185</ele>
        <time>2010-01-01T00:40:42Z</time>
      </trkpt>
      <trkpt lat="47.66451" lon="6.01587">
        <ele>185</ele>
        <time>2010-01-01T00:40:43Z</time>
      </trkpt>
      <trkpt lat="47.66455" lon="6.0159">
        <ele>185</ele>
        <time>2010-01-01T00:40:45Z</time>
      </trkpt>
      <trkpt lat="47.66459" lon="6.01593">
        <ele>185</ele>
        <time>2010-01-01T00:40:47Z</time>
      </trkpt>
      <trkpt lat="47.66463" lon="6.01596">
        <ele>185</ele>
        <time>2010-01-01T00:40:49Z</time>
      </trkpt>
      <trkpt lat="47.66467" lon="6.01599">
        <ele>185</ele>
        <time>2010-01-01T00:40:50Z</time>
      </trkpt>
      <trkpt lat="47.6647" lon="6.01601">
        <ele>185</ele>
        <time>2010-01-01T00:40:52Z</time>
      </trkpt>
      <trkpt lat="47.66474" lon="6.01604">
        <ele>185</ele>
        <time>2010-01-01T00:40:53Z</time>
      </trkpt>
      <trkpt lat="47.66477" lon="6.01607">
        <ele>185</ele>
        <time>2010-01-01T00:40:55Z</time>
      </trkpt>
      <trkpt lat="47.66481" lon="6.0161">
        <ele>185</ele>
        <time>2010-01-01T00:40:57Z</time>
      </trkpt>
      <trkpt lat="47.66484" lon="6.01613">
        <ele>185</ele>
        <time>2010-01-01T00:40:58Z</time>
      </trkpt>
      <trkpt lat="47.66487" lon="6.01616">
        <ele>185</ele>
        <time>2010-01-01T00:41:00Z</time>
      </trkpt>
      <trkpt lat="47.66491" lon="6.01619">
        <ele>185</ele>
        <time>2010-01-01T00:41:01Z</time>
      </trkpt>
      <trkpt lat="47.66495" lon="6.01622">
        <ele>185</ele>
        <time>2010-01-01T00:41:03Z</time>
      </trkpt>
      <trkpt lat="47.66498" lon="6.01625">
        <ele>185</ele>
        <time>2010-01-01T00:41:05Z</time>
      </trkpt>
      <trkpt lat="47.66502" lon="6.01628">
        <ele>185</ele>
        <time>2010-01-01T00:41:06Z</time>
      </trkpt>
      <trkpt lat="47.66506" lon="6.01631">
        <ele>185</ele>
        <time>2010-01-01T00:41:08Z</time>
      </trkpt>
      <trkpt lat="47.66509" lon="6.01635">
        <ele>185</ele>
        <time>2010-01-01T00:41:10Z</time>
      </trkpt>
      <trkpt lat="47.66513" lon="6.01638">
        <ele>185</ele>
        <time>2010-01-01T00:41:12Z</time>
      </trkpt>
      <trkpt lat="47.66516" lon="6.01642">
        <ele>185</ele>
        <time>2010-01-01T00:41:13Z</time>
      </trkpt>
      <trkpt lat="47.6652" lon="6.01645">
        <ele>185</ele>
        <time>2010-01-01T00:41:15Z</time>
      </trkpt>
      <trkpt lat="47.66523" lon="6.01649">
        <ele>185</ele>
        <time>2010-01-01T00:41:17Z</time>
      </trkpt>
      <trkpt lat="47.66527" lon="6.01653">
        <ele>185</ele>
        <time>2010-01-01T00:41:18Z</time>
      </trkpt>
      <trkpt lat="47.66531" lon="6.01656">
        <ele>185</ele>
        <time>2010-01-01T00:41:20Z</time>
      </trkpt>
      <trkpt lat="47.66534" lon="6.0166">
        <ele>185</ele>
        <time>2010-01-01T00:41:22Z</time>
      </trkpt>
      <trkpt lat="47.66538" lon="6.01664">
        <ele>185</ele>
        <time>2010-01-01T00:41:24Z</time>
      </trkpt>
      <trkpt lat="47.66541" lon="6.01668">
        <ele>185</ele>
        <time>2010-01-01T00:41:25Z</time>
      </trkpt>
      <trkpt lat="47.66545" lon="6.01671">
        <ele>185</ele>
        <time>2010-01-01T00:41:27Z</time>
      </trkpt>
      <trkpt lat="47.66548" lon="6.01675">
        <ele>185</ele>
        <time>2010-01-01T00:41:29Z</time>
      </trkpt>
      <trkpt lat="47.66551" lon="6.01679">
        <ele>185</ele>
        <time>2010-01-01T00:41:30Z</time>
      </trkpt>
      <trkpt lat="47.66554" lon="6.01682">
        <ele>185</ele>
        <time>2010-01-01T00:41:32Z</time>
      </trkpt>
      <trkpt lat="47.66558" lon="6.01686">
        <ele>185</ele>
        <time>2010-01-01T00:41:34Z</time>
      </trkpt>
      <trkpt lat="47.66561" lon="6.0169">
        <ele>185</ele>
        <time>2010-01-01T00:41:36Z</time>
      </trkpt>
      <trkpt lat="47.66565" lon="6.01694">
        <ele>185</ele>
        <time>2010-01-01T00:41:37Z</time>
      </trkpt>
      <trkpt lat="47.66569" lon="6.01697">
        <ele>185</ele>
        <time>2010-01-01T00:41:39Z</time>
      </trkpt>
      <trkpt lat="47.66573" lon="6.01701">
        <ele>185</ele>
        <time>2010-01-01T00:41:41Z</time>
      </trkpt>
      <trkpt lat="47.66576" lon="6.01704">
        <ele>185</ele>
        <time>2010-01-01T00:41:43Z</time>
      </trkpt>
      <trkpt lat="47.6658" lon="6.01708">
        <ele>185</ele>
        <time>2010-01-01T00:41:44Z</time>
      </trkpt>
      <trkpt lat="47.66584" lon="6.01711">
        <ele>185</ele>
        <time>2010-01-01T00:41:46Z</time>
      </trkpt>
      <trkpt lat="47.66587" lon="6.01715">
        <ele>185</ele>
        <time>2010-01-01T00:41:48Z</time>
      </trkpt>
      <trkpt lat="47.66591" lon="6.01718">
        <ele>185</ele>
        <time>2010-01-01T00:41:50Z</time>
      </trkpt>
      <trkpt lat="47.66595" lon="6.01722">
        <ele>185</ele>
        <time>2010-01-01T00:41:51Z</time>
      </trkpt>
      <trkpt lat="47.66599" lon="6.01726">
        <ele>185</ele>
        <time>2010-01-01T00:41:53Z</time>
      </trkpt>
      <trkpt lat="47.66602" lon="6.0173">
        <ele>185</ele>
        <time>2010-01-01T00:41:55Z</time>
      </trkpt>
      <trkpt lat="47.66606" lon="6.01735">
        <ele>185</ele>
        <time>2010-01-01T00:41:57Z</time>
      </trkpt>
      <trkpt lat="47.6661" lon="6.01739">
        <ele>185</ele>
        <time>2010-01-01T00:41:59Z</time>
      </trkpt>
      <trkpt lat="47.66613" lon="6.01744">
        <ele>185</ele>
        <time>2010-01-01T00:42:01Z</time>
      </trkpt>
      <trkpt lat="47.66617" lon="6.01749">
        <ele>185</ele>
        <time>2010-01-01T00:42:03Z</time>
      </trkpt>
      <trkpt lat="47.6662" lon="6.01753">
        <ele>185</ele>
        <time>2010-01-01T00:42:05Z</time>
      </trkpt>
      <trkpt lat="47.66624" lon="6.01758">
        <ele>185</ele>
        <time>2010-01-01T00:42:07Z</time>
      </trkpt>
      <trkpt lat="47.66627" lon="6.01762">
        <ele>185</ele>
        <time>2010-01-01T00:42:08Z</time>
      </trkpt>
      <trkpt lat="47.66631" lon="6.01767">
        <ele>185</ele>
        <time>2010-01-01T00:42:10Z</time>
      </trkpt>
      <trkpt lat="47.66634" lon="6.01771">
        <ele>185</ele>
        <time>2010-01-01T00:42:12Z</time>
      </trkpt>
      <trkpt lat="47.66637" lon="6.01776">
        <ele>185</ele>
        <time>2010-01-01T00:42:14Z</time>
      </trkpt>
      <trkpt lat="47.66641" lon="6.0178">
        <ele>185</ele>
        <time>2010-01-01T00:42:16Z</time>
      </trkpt>
      <trkpt lat="47.66644" lon="6.01785">
        <ele>185</ele>
        <time>2010-01-01T00:42:18Z</time>
      </trkpt>
      <trkpt lat="47.66647" lon="6.01791">
        <ele>185</ele>
        <time>2010-01-01T00:42:19Z</time>
      </trkpt>
      <trkpt lat="47.66649" lon="6.01796">
        <ele>185</ele>
        <time>2010-01-01T00:42:21Z</time>
      </trkpt>
      <trkpt lat="47.66651" lon="6.01801">
        <ele>185</ele>
        <time>2010-01-01T00:42:23Z</time>
      </trkpt>
      <trkpt lat="47.66653" lon="6.01807">
        <ele>185</ele>
        <time>2010-01-01T00:42:25Z</time>
      </trkpt>
      <trkpt lat="47.66655" lon="6.01813">
        <ele>185</ele>
        <time>2010-01-01T00:42:26Z</time>
      </trkpt>
      <trkpt lat="47.66658" lon="6.01818">
        <ele>185</ele>
        <time>2010-01-01T00:42:28Z</time>
      </trkpt>
      <trkpt lat="47.6666" lon="6.01823">
        <ele>185</ele>
        <time>2010-01-01T00:42:30Z</time>
      </trkpt>
      <trkpt lat="47.66663" lon="6.01828">
        <ele>185</ele>
        <time>2010-01-01T00:42:31Z</time>
      </trkpt>
      <trkpt lat="47.66665" lon="6.01833">
        <ele>185</ele>
        <time>2010-01-01T00:42:33Z</time>
      </trkpt>
      <trkpt lat="47.66668" lon="6.01838">
        <ele>185</ele>
        <time>2010-01-01T00:42:35Z</time>
      </trkpt>
      <trkpt lat="47.66671" lon="6.01843">
        <ele>185</ele>
        <time>2010-01-01T00:42:37Z</time>
      </trkpt>
      <trkpt lat="47.66674" lon="6.01849">
        <ele>185</ele>
        <time>2010-01-01T00:42:38Z</time>
      </trkpt>
      <trkpt lat="47.66677" lon="6.01853">
        <ele>185</ele>
        <time>2010-01-01T00:42:40Z</time>
      </trkpt>
      <trkpt lat="47.66679" lon="6.01858">
        <ele>185</ele>
        <time>2010-01-01T00:42:42Z</time>
      </trkpt>
      <trkpt lat="47.66682" lon="6.01863">
        <ele>185</ele>
        <time>2010-01-01T00:42:43Z</time>
      </trkpt>
      <trkpt lat="47.66685" lon="6.01867">
        <ele>185</ele>
        <time>2010-01-01T00:42:45Z</time>
      </trkpt>
      <trkpt lat="47.66688" lon="6.01872">
        <ele>185</ele>
        <time>2010-01-01T00:42:47Z</time>
      </trkpt>
      <trkpt lat="47.6669" lon="6.01877">
        <ele>185</ele>
        <time>2010-01-01T00:42:49Z</time>
      </trkpt>
      <trkpt lat="47.66693" lon="6.01882">
        <ele>185</ele>
        <time>2010-01-01T00:42:50Z</time>
      </trkpt>
      <trkpt lat="47.66696" lon="6.01887">
        <ele>185</ele>
        <time>2010-01-01T00:42:52Z</time>
      </trkpt>
      <trkpt lat="47.66699" lon="6.01893">
        <ele>185</ele>
        <time>2010-01-01T00:42:54Z</time>
      </trkpt>
      <trkpt lat="47.66701" lon="6.01898">
        <ele>185</ele>
        <time>2010-01-01T00:42:56Z</time>
      </trkpt>
      <trkpt lat="47.66704" lon="6.01903">
        <ele>185</ele>
        <time>2010-01-01T00:42:57Z</time>
      </trkpt>
      <trkpt lat="47.66707" lon="6.01908">
        <ele>185</ele>
        <time>2010-01-01T00:42:59Z</time>
      </trkpt>
      <trkpt lat="47.66709" lon="6.01913">
        <ele>185</ele>
        <time>2010-01-01T00:43:01Z</time>
      </trkpt>
      <trkpt lat="47.66712" lon="6.01918">
        <ele>185</ele>
        <time>2010-01-01T00:43:03Z</time>
      </trkpt>
      <trkpt lat="47.66714" lon="6.01923">
        <ele>185</ele>
        <time>2010-01-01T00:43:04Z</time>
      </trkpt>
      <trkpt lat="47.66717" lon="6.01929">
        <ele>185</ele>
        <time>2010-01-01T00:43:06Z</time>
      </trkpt>
      <trkpt lat="47.66719" lon="6.01935">
        <ele>185</ele>
        <time>2010-01-01T00:43:08Z</time>
      </trkpt>
      <trkpt lat="47.66721" lon="6.01941">
        <ele>185</ele>
        <time>2010-01-01T00:43:10Z</time>
      </trkpt>
      <trkpt lat="47.66723" lon="6.01947">
        <ele>185</ele>
        <time>2010-01-01T00:43:11Z</time>
      </trkpt>
      <trkpt lat="47.66725" lon="6.01952">
        <ele>185</ele>
        <time>2010-01-01T00:43:13Z</time>
      </trkpt>
      <trkpt lat="47.66727" lon="6.01958">
        <ele>185</ele>
        <time>2010-01-01T00:43:15Z</time>
      </trkpt>
      <trkpt lat="47.66729" lon="6.01964">
        <ele>185</ele>
        <time>2010-01-01T00:43:17Z</time>
      </trkpt>
      <trkpt lat="47.6673" lon="6.0197">
        <ele>185</ele>
        <time>2010-01-01T00:43:18Z</time>
      </trkpt>
      <trkpt lat="47.66732" lon="6.01975">
        <ele>185</ele>
        <time>2010-01-01T00:43:20Z</time>
      </trkpt>
      <trkpt lat="47.66734" lon="6.01981">
        <ele>185</ele>
        <time>2010-01-01T00:43:22Z</time>
      </trkpt>
      <trkpt lat="47.66735" lon="6.01987">
        <ele>185</ele>
        <time>2010-01-01T00:43:23Z</time>
      </trkpt>
      <trkpt lat="47.66737" lon="6.01993">
        <ele>185</ele>
        <time>2010-01-01T00:43:25Z</time>
      </trkpt>
      <trkpt lat="47.66738" lon="6.01999">
        <ele>185</ele>
        <time>2010-01-01T00:43:27Z</time>
      </trkpt>
      <trkpt lat="47.6674" lon="6.02005">
        <ele>185</ele>
        <time>2010-01-01T00:43:29Z</time>
      </trkpt>
      <trkpt lat="47.66741" lon="6.02011">
        <ele>185</ele>
        <time>2010-01-01T00:43:30Z</time>
      </trkpt>
      <trkpt lat="47.66743" lon="6.02018">
        <ele>185</ele>
        <time>2010-01-01T00:43:32Z</time>
      </trkpt>
      <trkpt lat="47.66744" lon="6.02024">
        <ele>185</ele>
        <time>2010-01-01T00:43:34Z</time>
      </trkpt>
      <trkpt lat="47.66746" lon="6.02031">
        <ele>185</ele>
        <time>2010-01-01T00:43:36Z</time>
      </trkpt>
      <trkpt lat="47.66747" lon="6.02038">
        <ele>185</ele>
        <time>2010-01-01T00:43:38Z</time>
      </trkpt>
      <trkpt lat="47.66749" lon="6.02044">
        <ele>185</ele>
        <time>2010-01-01T00:43:40Z</time>
      </trkpt>
      <trkpt lat="47.6675" lon="6.0205">
        <ele>185</ele>
        <time>2010-01-01T00:43:41Z</time>
      </trkpt>
      <trkpt lat="47.66752" lon="6.02056">
        <ele>185</ele>
        <time>2010-01-01T00:43:43Z</time>
      </trkpt>
      <trkpt lat="47.66753" lon="6.02062">
        <ele>185</ele>
        <time>2010-01-01T00:43:45Z</time>
      </trkpt>
      <trkpt lat="47.66754" lon="6.02069">
        <ele>185</ele>
        <time>2010-01-01T00:43:47Z</time>
      </trkpt>
      <trkpt lat="47.66756" lon="6.02075">
        <ele>185</ele>
        <time>2010-01-01T00:43:49Z</time>
      </trkpt>
      <trkpt lat="47.66757" lon="6.02082">
        <ele>185</ele>
        <time>2010-01-01T00:43:50Z</time>
      </trkpt>
      <trkpt lat="47.66759" lon="6.02088">
        <ele>185</ele>
        <time>2010-01-01T00:43:52Z</time>
      </trkpt>
      <trkpt lat="47.6676" lon="6.02094">
        <ele>185</ele>
        <time>2010-01-01T00:43:54Z</time>
      </trkpt>
      <trkpt lat="47.66762" lon="6.021">
        <ele>185</ele>
        <time>2010-01-01T00:43:56Z</time>
      </trkpt>
      <trkpt lat="47.66763" lon="6.02105">
        <ele>185</ele>
        <time>2010-01-01T00:43:57Z</time>
      </trkpt>
      <trkpt lat="47.66765" lon="6.02111">
        <ele>185</ele>
        <time>2010-01-01T00:43:59Z</time>
      </trkpt>
      <trkpt lat="47.66766" lon="6.02116">
        <ele>185</ele>
        <time>2010-01-01T00:44:00Z</time>
      </trkpt>
      <trkpt lat="47.66768" lon="6.02122">
        <ele>185</ele>
        <time>2010-01-01T00:44:02Z</time>
      </trkpt>
      <trkpt lat="47.6677" lon="6.02128">
        <ele>185</ele>
        <time>2010-01-01T00:44:04Z</time>
      </trkpt>
      <trkpt lat="47.66771" lon="6.02134">
        <ele>185</ele>
        <time>2010-01-01T00:44:06Z</time>
      </trkpt>
      <trkpt lat="47.66773" lon="6.0214">
        <ele>185</ele>
        <time>2010-01-01T00:44:07Z</time>
      </trkpt>
      <trkpt lat="47.66774" lon="6.02147">
        <ele>185</ele>
        <time>2010-01-01T00:44:09Z</time>
      </trkpt>
      <trkpt lat="47.66775" lon="6.02153">
        <ele>185</ele>
        <time>2010-01-01T00:44:11Z</time>
      </trkpt>
      <trkpt lat="47.66777" lon="6.02159">
        <ele>185</ele>
        <time>2010-01-01T00:44:13Z</time>
      </trkpt>
      <trkpt lat="47.66778" lon="6.02166">
        <ele>185</ele>
        <time>2010-01-01T00:44:15Z</time>
      </trkpt>
      <trkpt lat="47.6678" lon="6.02172">
        <ele>185</ele>
        <time>2010-01-01T00:44:16Z</time>
      </trkpt>
      <trkpt lat="47.66782" lon="6.02177">
        <ele>185</ele>
        <time>2010-01-01T00:44:18Z</time>
      </trkpt>
      <trkpt lat="47.66783" lon="6.02184">
        <ele>185</ele>
        <time>2010-01-01T00:44:20Z</time>
      </trkpt>
      <trkpt lat="47.66785" lon="6.0219">
        <ele>185</ele>
        <time>2010-01-01T00:44:22Z</time>
      </trkpt>
      <trkpt lat="47.66786" lon="6.02196">
        <ele>185</ele>
        <time>2010-01-01T00:44:23Z</time>
      </trkpt>
      <trkpt lat="47.66788" lon="6.02202">
        <ele>185</ele>
        <time>2010-01-01T00:44:25Z</time>
      </trkpt>
      <trkpt lat="47.66789" lon="6.02208">
        <ele>185</ele>
        <time>2010-01-01T00:44:27Z</time>
      </trkpt>
      <trkpt lat="47.66791" lon="6.02214">
        <ele>185</ele>
        <time>2010-01-01T00:44:29Z</time>
      </trkpt>
      <trkpt lat="47.66793" lon="6.02221">
        <ele>185</ele>
        <time>2010-01-01T00:44:31Z</time>
      </trkpt>
      <trkpt lat="47.66795" lon="6.02227">
        <ele>185</ele>
        <time>2010-01-01T00:44:32Z</time>
      </trkpt>
      <trkpt lat="47.66797" lon="6.02233">
        <ele>185</ele>
        <time>2010-01-01T00:44:34Z</time>
      </trkpt>
      <trkpt lat="47.66798" lon="6.02239">
        <ele>185</ele>
        <time>2010-01-01T00:44:36Z</time>
      </trkpt>
      <trkpt lat="47.668" lon="6.02246">
        <ele>185</ele>
        <time>2010-01-01T00:44:38Z</time>
      </trkpt>
      <trkpt lat="47.66802" lon="6.02252">
        <ele>185</ele>
        <time>2010-01-01T00:44:40Z</time>
      </trkpt>
      <trkpt lat="47.66803" lon="6.02258">
        <ele>185</ele>
        <time>2010-01-01T00:44:41Z</time>
      </trkpt>
      <trkpt lat="47.66805" lon="6.02264">
        <ele>185</ele>
        <time>2010-01-01T00:44:43Z</time>
      </trkpt>
      <trkpt lat="47.66807" lon="6.02271">
        <ele>185</ele>
        <time>2010-01-01T00:44:45Z</time>
      </trkpt>
      <trkpt lat="47.66809" lon="6.02277">
        <ele>185</ele>
        <time>2010-01-01T00:44:47Z</time>
      </trkpt>
      <trkpt lat="47.6681" lon="6.02283">
        <ele>185</ele>
        <time>2010-01-01T00:44:49Z</time>
      </trkpt>
      <trkpt lat="47.66813" lon="6.02289">
        <ele>185</ele>
        <time>2010-01-01T00:44:51Z</time>
      </trkpt>
      <trkpt lat="47.66815" lon="6.02295">
        <ele>185</ele>
        <time>2010-01-01T00:44:53Z</time>
      </trkpt>
      <trkpt lat="47.66817" lon="6.02301">
        <ele>185</ele>
        <time>2010-01-01T00:44:54Z</time>
      </trkpt>
      <trkpt lat="47.66819" lon="6.02307">
        <ele>185</ele>
        <time>2010-01-01T00:44:56Z</time>
      </trkpt>
      <trkpt lat="47.66821" lon="6.02313">
        <ele>185</ele>
        <time>2010-01-01T00:44:58Z</time>
      </trkpt>
      <trkpt lat="47.66824" lon="6.02319">
        <ele>185</ele>
        <time>2010-01-01T00:45:00Z</time>
      </trkpt>
      <trkpt lat="47.66826" lon="6.02324">
        <ele>185</ele>
        <time>2010-01-01T00:45:02Z</time>
      </trkpt>
      <trkpt lat="47.66829" lon="6.0233">
        <ele>185</ele>
        <time>2010-01-01T00:45:03Z</time>
      </trkpt>
      <trkpt lat="47.66831" lon="6.02336">
        <ele>185</ele>
        <time>2010-01-01T00:45:05Z</time>
      </trkpt>
      <trkpt lat="47.66834" lon="6.02341">
        <ele>185</ele>
        <time>2010-01-01T00:45:07Z</time>
      </trkpt>
      <trkpt lat="47.66836" lon="6.02347">
        <ele>185</ele>
        <time>2010-01-01T00:45:09Z</time>
      </trkpt>
      <trkpt lat="47.66839" lon="6.02353">
        <ele>185</ele>
        <time>2010-01-01T00:45:11Z</time>
      </trkpt>
      <trkpt lat="47.66842" lon="6.02358">
        <ele>185</ele>
        <time>2010-01-01T00:45:13Z</time>
      </trkpt>
      <trkpt lat="47.66845" lon="6.02364">
        <ele>185</ele>
        <time>2010-01-01T00:45:15Z</time>
      </trkpt>
      <trkpt lat="47.66848" lon="6.02369">
        <ele>185</ele>
        <time>2010-01-01T00:45:16Z</time>
      </trkpt>
      <trkpt lat="47.66851" lon="6.02374">
        <ele>185</ele>
        <time>2010-01-01T00:45:18Z</time>
      </trkpt>
      <trkpt lat="47.66853" lon="6.02379">
        <ele>185</ele>
        <time>2010-01-01T00:45:20Z</time>
      </trkpt>
      <trkpt lat="47.66856" lon="6.02384">
        <ele>185</ele>
        <time>2010-01-01T00:45:22Z</time>
      </trkpt>
      <trkpt lat="47.66859" lon="6.0239">
        <ele>185</ele>
        <time>2010-01-01T00:45:24Z</time>
      </trkpt>
      <trkpt lat="47.66861" lon="6.02395">
        <ele>185</ele>
        <time>2010-01-01T00:45:25Z</time>
      </trkpt>
      <trkpt lat="47.66864" lon="6.024">
        <ele>185</ele>
        <time>2010-01-01T00:45:27Z</time>
      </trkpt>
      <trkpt lat="47.66867" lon="6.02406">
        <ele>185</ele>
        <time>2010-01-01T00:45:29Z</time>
      </trkpt>
      <trkpt lat="47.6687" lon="6.02411">
        <ele>185</ele>
        <time>2010-01-01T00:45:31Z</time>
      </trkpt>
      <trkpt lat="47.66872" lon="6.02417">
        <ele>185</ele>
        <time>2010-01-01T00:45:33Z</time>
      </trkpt>
      <trkpt lat="47.66875" lon="6.02422">
        <ele>185</ele>
        <time>2010-01-01T00:45:35Z</time>
      </trkpt>
      <trkpt lat="47.66878" lon="6.02428">
        <ele>185</ele>
        <time>2010-01-01T00:45:36Z</time>
      </trkpt>
      <trkpt lat="47.66881" lon="6.02433">
        <ele>185</ele>
        <time>2010-01-01T00:45:38Z</time>
      </trkpt>
      <trkpt lat="47.66883" lon="6.02438">
        <ele>185</ele>
        <time>2010-01-01T00:45:40Z</time>
      </trkpt>
      <trkpt lat="47.66887" lon="6.02444">
        <ele>185</ele>
        <time>2010-01-01T00:45:42Z</time>
      </trkpt>
      <trkpt lat="47.66889" lon="6.02449">
        <ele>185</ele>
        <time>2010-01-01T00:45:44Z</time>
      </trkpt>
      <trkpt lat="47.66892" lon="6.02454">
        <ele>185</ele>
        <time>2010-01-01T00:45:46Z</time>
      </trkpt>
      <trkpt lat="47.66895" lon="6.02459">
        <ele>185</ele>
        <time>2010-01-01T00:45:47Z</time>
      </trkpt>
      <trkpt lat="47.66898" lon="6.02464">
        <ele>185</ele>
        <time>2010-01-01T00:45:49Z</time>
      </trkpt>
      <trkpt lat="47.66901" lon="6.02469">
        <ele>185</ele>
        <time>2010-01-01T00:45:51Z</time>
      </trkpt>
      <trkpt lat="47.66904" lon="6.02474">
        <ele>185</ele>
        <time>2010-01-01T00:45:53Z</time>
      </trkpt>
      <trkpt lat="47.66907" lon="6.02479">
        <ele>185</ele>
        <time>2010-01-01T00:45:55Z</time>
      </trkpt>
      <trkpt lat="47.66911" lon="6.02485">
        <ele>185</ele>
        <time>2010-01-01T00:45:57Z</time>
      </trkpt>
      <trkpt lat="47.66914" lon="6.0249">
        <ele>185</ele>
        <time>2010-01-01T00:45:58Z</time>
      </trkpt>
      <trkpt lat="47.66916" lon="6.02495">
        <ele>185</ele>
        <time>2010-01-01T00:46:00Z</time>
      </trkpt>
      <trkpt lat="47.66919" lon="6.025">
        <ele>185</ele>
        <time>2010-01-01T00:46:02Z</time>
      </trkpt>
      <trkpt lat="47.66922" lon="6.02505">
        <ele>185</ele>
        <time>2010-01-01T00:46:04Z</time>
      </trkpt>
      <trkpt lat="47.66925" lon="6.0251">
        <ele>185</ele>
        <time>2010-01-01T00:46:05Z</time>
      </trkpt>
      <trkpt lat="47.66928" lon="6.02514">
        <ele>185</ele>
        <time>2010-01-01T00:46:07Z</time>
      </trkpt>
      <trkpt lat="47.66931" lon="6.0252">
        <ele>185</ele>
        <time>2010-01-01T00:46:09Z</time>
      </trkpt>
      <trkpt lat="47.66934" lon="6.02524">
        <ele>185</ele>
        <time>2010-01-01T00:46:11Z</time>
      </trkpt>
      <trkpt lat="47.66937" lon="6.02529">
        <ele>185</ele>
        <time>2010-01-01T00:46:12Z</time>
      </trkpt>
      <trkpt lat="47.6694" lon="6.02534">
        <ele>185</ele>
        <time>2010-01-01T00:46:14Z</time>
      </trkpt>
      <trkpt lat="47.66943" lon="6.02539">
        <ele>185</ele>
        <time>2010-01-01T00:46:16Z</time>
      </trkpt>
      <trkpt lat="47.66946" lon="6.02544">
        <ele>185</ele>
        <time>2010-01-01T00:46:18Z</time>
      </trkpt>
      <trkpt lat="47.66949" lon="6.02549">
        <ele>185</ele>
        <time>2010-01-01T00:46:20Z</time>
      </trkpt>
      <trkpt lat="47.66952" lon="6.02554">
        <ele>185</ele>
        <time>2010-01-01T00:46:21Z</time>
      </trkpt>
      <trkpt lat="47.66954" lon="6.02559">
        <ele>185</ele>
        <time>2010-01-01T00:46:23Z</time>
      </trkpt>
      <trkpt lat="47.66957" lon="6.02564">
        <ele>185</ele>
        <time>2010-01-01T00:46:25Z</time>
      </trkpt>
      <trkpt lat="47.6696" lon="6.02569">
        <ele>185</ele>
        <time>2010-01-01T00:46:27Z</time>
      </trkpt>
      <trkpt lat="47.66963" lon="6.02574">
        <ele>185</ele>
        <time>2010-01-01T00:46:29Z</time>
      </trkpt>
      <trkpt lat="47.66966" lon="6.02579">
        <ele>185</ele>
        <time>2010-01-01T00:46:30Z</time>
      </trkpt>
      <trkpt lat="47.66969" lon="6.02584">
        <ele>185</ele>
        <time>2010-01-01T00:46:32Z</time>
      </trkpt>
      <trkpt lat="47.66972" lon="6.02589">
        <ele>185</ele>
        <time>2010-01-01T00:46:34Z</time>
      </trkpt>
      <trkpt lat="47.66975" lon="6.02594">
        <ele>185</ele>
        <time>2010-01-01T00:46:36Z</time>
      </trkpt>
      <trkpt lat="47.66977" lon="6.02598">
        <ele>185</ele>
        <time>2010-01-01T00:46:37Z</time>
      </trkpt>
      <trkpt lat="47.6698" lon="6.02603">
        <ele>185</ele>
        <time>2010-01-01T00:46:39Z</time>
      </trkpt>
      <trkpt lat="47.66983" lon="6.02607">
        <ele>185</ele>
        <time>2010-01-01T00:46:41Z</time>
      </trkpt>
      <trkpt lat="47.66986" lon="6.02612">
        <ele>185</ele>
        <time>2010-01-01T00:46:42Z</time>
      </trkpt>
      <trkpt lat="47.66989" lon="6.02617">
        <ele>185</ele>
        <time>2010-01-01T00:46:44Z</time>
      </trkpt>
      <trkpt lat="47.66992" lon="6.02622">
        <ele>185</ele>
        <time>2010-01-01T00:46:46Z</time>
      </trkpt>
      <trkpt lat="47.66995" lon="6.02627">
        <ele>185</ele>
        <time>2010-01-01T00:46:48Z</time>
      </trkpt>
      <trkpt lat="47.66997" lon="6.02632">
        <ele>185</ele>
        <time>2010-01-01T00:46:49Z</time>
      </trkpt>
      <trkpt lat="47.67" lon="6.02637">
        <ele>185</ele>
        <time>2010-01-01T00:46:51Z</time>
      </trkpt>
      <trkpt lat="47.67003" lon="6.02643">
        <ele>185</ele>
        <time>2010-01-01T00:46:53Z</time>
      </trkpt>
      <trkpt lat="47.67006" lon="6.02648">
        <ele>185</ele>
        <time>2010-01-01T00:46:55Z</time>
      </trkpt>
      <trkpt lat="47.67009" lon="6.02653">
        <ele>185</ele>
        <time>2010-01-01T00:46:57Z</time>
      </trkpt>
      <trkpt lat="47.67012" lon="6.02657">
        <ele>185</ele>
        <time>2010-01-01T00:46:58Z</time>
      </trkpt>
      <trkpt lat="47.67016" lon="6.02662">
        <ele>185</ele>
        <time>2010-01-01T00:47:00Z</time>
      </trkpt>
      <trkpt lat="47.67018" lon="6.02667">
        <ele>185</ele>
        <time>2010-01-01T00:47:02Z</time>
      </trkpt>
      <trkpt lat="47.67022" lon="6.02672">
        <ele>185</ele>
        <time>2010-01-01T00:47:04Z</time>
      </trkpt>
      <trkpt lat="47.67025" lon="6.02676">
        <ele>186</ele>
        <time>2010-01-01T00:47:05Z</time>
      </trkpt>
      <trkpt lat="47.67028" lon="6.02681">
        <ele>186</ele>
        <time>2010-01-01T00:47:07Z</time>
      </trkpt>
      <trkpt lat="47.67031" lon="6.02685">
        <ele>187</ele>
        <time>2010-01-01T00:47:09Z</time>
      </trkpt>
      <trkpt lat="47.67034" lon="6.02689">
        <ele>187</ele>
        <time>2010-01-01T00:47:11Z</time>
      </trkpt>
      <trkpt lat="47.67038" lon="6.02693">
        <ele>187</ele>
        <time>2010-01-01T00:47:12Z</time>
      </trkpt>
      <trkpt lat="47.67041" lon="6.02697">
        <ele>187</ele>
        <time>2010-01-01T00:47:14Z</time>
      </trkpt>
      <trkpt lat="47.67045" lon="6.02701">
        <ele>187</ele>
        <time>2010-01-01T00:47:16Z</time>
      </trkpt>
      <trkpt lat="47.67048" lon="6.02704">
        <ele>187</ele>
        <time>2010-01-01T00:47:18Z</time>
      </trkpt>
      <trkpt lat="47.67052" lon="6.02708">
        <ele>187</ele>
        <time>2010-01-01T00:47:19Z</time>
      </trkpt>
      <trkpt lat="47.67055" lon="6.02712">
        <ele>187</ele>
        <time>2010-01-01T00:47:21Z</time>
      </trkpt>
      <trkpt lat="47.67058" lon="6.02716">
        <ele>187</ele>
        <time>2010-01-01T00:47:23Z</time>
      </trkpt>
      <trkpt lat="47.67062" lon="6.02719">
        <ele>187</ele>
        <time>2010-01-01T00:47:24Z</time>
      </trkpt>
      <trkpt lat="47.67065" lon="6.02724">
        <ele>187</ele>
        <time>2010-01-01T00:47:26Z</time>
      </trkpt>
      <trkpt lat="47.67069" lon="6.02728">
        <ele>187</ele>
        <time>2010-01-01T00:47:28Z</time>
      </trkpt>
      <trkpt lat="47.67072" lon="6.02732">
        <ele>187</ele>
        <time>2010-01-01T00:47:30Z</time>
      </trkpt>
      <trkpt lat="47.67075" lon="6.02736">
        <ele>187</ele>
        <time>2010-01-01T00:47:31Z</time>
      </trkpt>
      <trkpt lat="47.67078" lon="6.0274">
        <ele>187</ele>
        <time>2010-01-01T00:47:33Z</time>
      </trkpt>
      <trkpt lat="47.67082" lon="6.02744">
        <ele>187</ele>
        <time>2010-01-01T00:47:35Z</time>
      </trkpt>
      <trkpt lat="47.67085" lon="6.02749">
        <ele>187</ele>
        <time>2010-01-01T00:47:37Z</time>
      </trkpt>
      <trkpt lat="47.67089" lon="6.02753">
        <ele>187</ele>
        <time>2010-01-01T00:47:38Z</time>
      </trkpt>
      <trkpt lat="47.67093" lon="6.02757">
        <ele>187</ele>
        <time>2010-01-01T00:47:40Z</time>
      </trkpt>
      <trkpt lat="47.67097" lon="6.02762">
        <ele>187</ele>
        <time>2010-01-01T00:47:42Z</time>
      </trkpt>
      <trkpt lat="47.671" lon="6.02766">
        <ele>187</ele>
        <time>2010-01-01T00:47:44Z</time>
      </trkpt>
      <trkpt lat="47.67103" lon="6.02771">
        <ele>187</ele>
        <time>2010-01-01T00:47:46Z</time>
      </trkpt>
      <trkpt lat="47.67107" lon="6.02775">
        <ele>187</ele>
        <time>2010-01-01T00:47:48Z</time>
      </trkpt>
      <trkpt lat="47.6711" lon="6.02779">
        <ele>187</ele>
        <time>2010-01-01T00:47:50Z</time>
      </trkpt>
      <trkpt lat="47.67113" lon="6.02784">
        <ele>187</ele>
        <time>2010-01-01T00:47:51Z</time>
      </trkpt>
      <trkpt lat="47.67117" lon="6.02788">
        <ele>187</ele>
        <time>2010-01-01T00:47:53Z</time>
      </trkpt>
      <trkpt lat="47.6712" lon="6.02792">
        <ele>187</ele>
        <time>2010-01-01T00:47:55Z</time>
      </trkpt>
      <trkpt lat="47.67123" lon="6.02797">
        <ele>187</ele>
        <time>2010-01-01T00:47:57Z</time>
      </trkpt>
      <trkpt lat="47.67126" lon="6.02801">
        <ele>187</ele>
        <time>2010-01-01T00:47:58Z</time>
      </trkpt>
      <trkpt lat="47.67129" lon="6.02806">
        <ele>187</ele>
        <time>2010-01-01T00:48:00Z</time>
      </trkpt>
      <trkpt lat="47.67133" lon="6.0281">
        <ele>187</ele>
        <time>2010-01-01T00:48:02Z</time>
      </trkpt>
      <trkpt lat="47.67136" lon="6.02814">
        <ele>187</ele>
        <time>2010-01-01T00:48:04Z</time>
      </trkpt>
      <trkpt lat="47.67139" lon="6.02819">
        <ele>187</ele>
        <time>2010-01-01T00:48:05Z</time>
      </trkpt>
      <trkpt lat="47.67142" lon="6.02824">
        <ele>187</ele>
        <time>2010-01-01T00:48:07Z</time>
      </trkpt>
      <trkpt lat="47.67145" lon="6.02829">
        <ele>187</ele>
        <time>2010-01-01T00:48:09Z</time>
      </trkpt>
      <trkpt lat="47.67148" lon="6.02835">
        <ele>187</ele>
        <time>2010-01-01T00:48:11Z</time>
      </trkpt>
      <trkpt lat="47.67151" lon="6.0284">
        <ele>187</ele>
        <time>2010-01-01T00:48:13Z</time>
      </trkpt>
      <trkpt lat="47.67154" lon="6.02845">
        <ele>187</ele>
        <time>2010-01-01T00:48:14Z</time>
      </trkpt>
      <trkpt lat="47.67156" lon="6.0285">
        <ele>187</ele>
        <time>2010-01-01T00:48:16Z</time>
      </trkpt>
      <trkpt lat="47.67159" lon="6.02856">
        <ele>187</ele>
        <time>2010-01-01T00:48:18Z</time>
      </trkpt>
      <trkpt lat="47.67162" lon="6.02861">
        <ele>187</ele>
        <time>2010-01-01T00:48:20Z</time>
      </trkpt>
      <trkpt lat="47.67164" lon="6.02867">
        <ele>187</ele>
        <time>2010-01-01T00:48:22Z</time>
      </trkpt>
      <trkpt lat="47.67167" lon="6.02873">
        <ele>187</ele>
        <time>2010-01-01T00:48:24Z</time>
      </trkpt>
      <trkpt lat="47.6717" lon="6.02878">
        <ele>187</ele>
        <time>2010-01-01T00:48:26Z</time>
      </trkpt>
      <trkpt lat="47.67172" lon="6.02884">
        <ele>187</ele>
        <time>2010-01-01T00:48:27Z</time>
      </trkpt>
      <trkpt lat="47.67174" lon="6.0289">
        <ele>187</ele>
        <time>2010-01-01T00:48:29Z</time>
      </trkpt>
      <trkpt lat="47.67177" lon="6.02895">
        <ele>187</ele>
        <time>2010-01-01T00:48:31Z</time>
      </trkpt>
      <trkpt lat="47.67179" lon="6.02901">
        <ele>187</ele>
        <time>2010-01-01T00:48:32Z</time>
      </trkpt>
      <trkpt lat="47.67181" lon="6.02906">
        <ele>187</ele>
        <time>2010-01-01T00:48:34Z</time>
      </trkpt>
      <trkpt lat="47.67183" lon="6.02911">
        <ele>187</ele>
        <time>2010-01-01T00:48:36Z</time>
      </trkpt>
      <trkpt lat="47.67185" lon="6.02917">
        <ele>187</ele>
        <time>2010-01-01T00:48:38Z</time>
      </trkpt>
      <trkpt lat="47.67187" lon="6.02923">
        <ele>187</ele>
        <time>2010-01-01T00:48:39Z</time>
      </trkpt>
      <trkpt lat="47.67189" lon="6.02928">
        <ele>187</ele>
        <time>2010-01-01T00:48:41Z</time>
      </trkpt>
      <trkpt lat="47.67191" lon="6.02934">
        <ele>187</ele>
        <time>2010-01-01T00:48:43Z</time>
      </trkpt>
      <trkpt lat="47.67193" lon="6.0294">
        <ele>187</ele>
        <time>2010-01-01T00:48:45Z</time>
      </trkpt>
      <trkpt lat="47.67195" lon="6.02946">
        <ele>187</ele>
        <time>2010-01-01T00:48:46Z</time>
      </trkpt>
      <trkpt lat="47.67197" lon="6.02952">
        <ele>187</ele>
        <time>2010-01-01T00:48:48Z</time>
      </trkpt>
      <trkpt lat="47.67199" lon="6.02958">
        <ele>187</ele>
        <time>2010-01-01T00:48:50Z</time>
      </trkpt>
      <trkpt lat="47.67201" lon="6.02963">
        <ele>187</ele>
        <time>2010-01-01T00:48:52Z</time>
      </trkpt>
      <trkpt lat="47.67202" lon="6.02969">
        <ele>187</ele>
        <time>2010-01-01T00:48:53Z</time>
      </trkpt>
      <trkpt lat="47.67204" lon="6.02975">
        <ele>187</ele>
        <time>2010-01-01T00:48:55Z</time>
      </trkpt>
      <trkpt lat="47.67205" lon="6.02982">
        <ele>187</ele>
        <time>2010-01-01T00:48:57Z</time>
      </trkpt>
      <trkpt lat="47.67207" lon="6.02988">
        <ele>187</ele>
        <time>2010-01-01T00:48:59Z</time>
      </trkpt>
      <trkpt lat="47.67208" lon="6.02995">
        <ele>187</ele>
        <time>2010-01-01T00:49:01Z</time>
      </trkpt>
      <trkpt lat="47.67209" lon="6.03001">
        <ele>187</ele>
        <time>2010-01-01T00:49:02Z</time>
      </trkpt>
      <trkpt lat="47.6721" lon="6.03008">
        <ele>187</ele>
        <time>2010-01-01T00:49:04Z</time>
      </trkpt>
      <trkpt lat="47.67211" lon="6.03015">
        <ele>187</ele>
        <time>2010-01-01T00:49:06Z</time>
      </trkpt>
      <trkpt lat="47.67212" lon="6.03022">
        <ele>187</ele>
        <time>2010-01-01T00:49:08Z</time>
      </trkpt>
      <trkpt lat="47.67212" lon="6.03028">
        <ele>187</ele>
        <time>2010-01-01T00:49:10Z</time>
      </trkpt>
      <trkpt lat="47.67213" lon="6.03035">
        <ele>187</ele>
        <time>2010-01-01T00:49:12Z</time>
      </trkpt>
      <trkpt lat="47.67214" lon="6.03041">
        <ele>187</ele>
        <time>2010-01-01T00:49:13Z</time>
      </trkpt>
      <trkpt lat="47.67214" lon="6.03048">
        <ele>187</ele>
        <time>2010-01-01T00:49:15Z</time>
      </trkpt>
      <trkpt lat="47.67215" lon="6.03054">
        <ele>187</ele>
        <time>2010-01-01T00:49:17Z</time>
      </trkpt>
      <trkpt lat="47.67216" lon="6.03061">
        <ele>187</ele>
        <time>2010-01-01T00:49:19Z</time>
      </trkpt>
      <trkpt lat="47.67217" lon="6.03067">
        <ele>187</ele>
        <time>2010-01-01T00:49:20Z</time>
      </trkpt>
      <trkpt lat="47.67217" lon="6.03074">
        <ele>187</ele>
        <time>2010-01-01T00:49:22Z</time>
      </trkpt>
      <trkpt lat="47.67218" lon="6.0308">
        <ele>187</ele>
        <time>2010-01-01T00:49:24Z</time>
      </trkpt>
      <trkpt lat="47.67219" lon="6.03087">
        <ele>187</ele>
        <time>2010-01-01T00:49:26Z</time>
      </trkpt>
      <trkpt lat="47.6722" lon="6.03093">
        <ele>187</ele>
        <time>2010-01-01T00:49:28Z</time>
      </trkpt>
      <trkpt lat="47.67221" lon="6.031">
        <ele>187</ele>
        <time>2010-01-01T00:49:29Z</time>
      </trkpt>
      <trkpt lat="47.67221" lon="6.03107">
        <ele>187</ele>
        <time>2010-01-01T00:49:31Z</time>
      </trkpt>
      <trkpt lat="47.67222" lon="6.03114">
        <ele>187</ele>
        <time>2010-01-01T00:49:33Z</time>
      </trkpt>
      <trkpt lat="47.67222" lon="6.0312">
        <ele>187</ele>
        <time>2010-01-01T00:49:35Z</time>
      </trkpt>
      <trkpt lat="47.67223" lon="6.03127">
        <ele>187</ele>
        <time>2010-01-01T00:49:37Z</time>
      </trkpt>
      <trkpt lat="47.67224" lon="6.03133">
        <ele>187</ele>
        <time>2010-01-01T00:49:38Z</time>
      </trkpt>
      <trkpt lat="47.67224" lon="6.0314">
        <ele>187</ele>
        <time>2010-01-01T00:49:40Z</time>
      </trkpt>
      <trkpt lat="47.67225" lon="6.03146">
        <ele>187</ele>
        <time>2010-01-01T00:49:42Z</time>
      </trkpt>
      <trkpt lat="47.67226" lon="6.03153">
        <ele>187</ele>
        <time>2010-01-01T00:49:44Z</time>
      </trkpt>
      <trkpt lat="47.67227" lon="6.0316">
        <ele>187</ele>
        <time>2010-01-01T00:49:46Z</time>
      </trkpt>
      <trkpt lat="47.67227" lon="6.03166">
        <ele>187</ele>
        <time>2010-01-01T00:49:47Z</time>
      </trkpt>
      <trkpt lat="47.67228" lon="6.03173">
        <ele>187</ele>
        <time>2010-01-01T00:49:49Z</time>
      </trkpt>
      <trkpt lat="47.67229" lon="6.03179">
        <ele>187</ele>
        <time>2010-01-01T00:49:51Z</time>
      </trkpt>
      <trkpt lat="47.67229" lon="6.03186">
        <ele>187</ele>
        <time>2010-01-01T00:49:53Z</time>
      </trkpt>
      <trkpt lat="47.6723" lon="6.03193">
        <ele>187</ele>
        <time>2010-01-01T00:49:55Z</time>
      </trkpt>
      <trkpt lat="47.67231" lon="6.032">
        <ele>187</ele>
        <time>2010-01-01T00:49:57Z</time>
      </trkpt>
      <trkpt lat="47.67232" lon="6.03206">
        <ele>187</ele>
        <time>2010-01-01T00:49:58Z</time>
      </trkpt>
      <trkpt lat="47.67233" lon="6.03213">
        <ele>187</ele>
        <time>2010-01-01T00:50:00Z</time>
      </trkpt>
      <trkpt lat="47.67233" lon="6.0322">
        <ele>187</ele>
        <time>2010-01-01T00:50:02Z</time>
      </trkpt>
      <trkpt lat="47.67234" lon="6.03227">
        <ele>187</ele>
        <time>2010-01-01T00:50:04Z</time>
      </trkpt>
      <trkpt lat="47.67235" lon="6.03234">
        <ele>187</ele>
        <time>2010-01-01T00:50:06Z</time>
      </trkpt>
      <trkpt lat="47.67237" lon="6.0324">
        <ele>187</ele>
        <time>2010-01-01T00:50:08Z</time>
      </trkpt>
      <trkpt lat="47.67238" lon="6.03247">
        <ele>187</ele>
        <time>2010-01-01T00:50:10Z</time>
      </trkpt>
      <trkpt lat="47.67239" lon="6.03253">
        <ele>187</ele>
        <time>2010-01-01T00:50:11Z</time>
      </trkpt>
      <trkpt lat="47.67241" lon="6.0326">
        <ele>187</ele>
        <time>2010-01-01T00:50:13Z</time>
      </trkpt>
      <trkpt lat="47.67242" lon="6.03266">
        <ele>187</ele>
        <time>2010-01-01T00:50:15Z</time>
      </trkpt>
      <trkpt lat="47.67244" lon="6.03272">
        <ele>187</ele>
        <time>2010-01-01T00:50:17Z</time>
      </trkpt>
      <trkpt lat="47.67245" lon="6.03278">
        <ele>187</ele>
        <time>2010-01-01T00:50:19Z</time>
      </trkpt>
      <trkpt lat="47.67247" lon="6.03285">
        <ele>187</ele>
        <time>2010-01-01T00:50:20Z</time>
      </trkpt>
      <trkpt lat="47.67248" lon="6.03291">
        <ele>187</ele>
        <time>2010-01-01T00:50:22Z</time>
      </trkpt>
      <trkpt lat="47.6725" lon="6.03297">
        <ele>187</ele>
        <time>2010-01-01T00:50:24Z</time>
      </trkpt>
      <trkpt lat="47.67252" lon="6.03303">
        <ele>187</ele>
        <time>2010-01-01T00:50:26Z</time>
      </trkpt>
      <trkpt lat="47.67254" lon="6.0331">
        <ele>187</ele>
        <time>2010-01-01T00:50:28Z</time>
      </trkpt>
      <trkpt lat="47.67256" lon="6.03316">
        <ele>187</ele>
        <time>2010-01-01T00:50:30Z</time>
      </trkpt>
      <trkpt lat="47.67258" lon="6.03322">
        <ele>187</ele>
        <time>2010-01-01T00:50:31Z</time>
      </trkpt>
      <trkpt lat="47.6726" lon="6.03328">
        <ele>187</ele>
        <time>2010-01-01T00:50:33Z</time>
      </trkpt>
      <trkpt lat="47.67262" lon="6.03334">
        <ele>187</ele>
        <time>2010-01-01T00:50:35Z</time>
      </trkpt>
      <trkpt lat="47.67264" lon="6.0334">
        <ele>187</ele>
        <time>2010-01-01T00:50:37Z</time>
      </trkpt>
      <trkpt lat="47.67265" lon="6.03346">
        <ele>187</ele>
        <time>2010-01-01T00:50:38Z</time>
      </trkpt>
      <trkpt lat="47.67267" lon="6.03352">
        <ele>187</ele>
        <time>2010-01-01T00:50:40Z</time>
      </trkpt>
      <trkpt lat="47.67269" lon="6.03358">
        <ele>187</ele>
        <time>2010-01-01T00:50:42Z</time>
      </trkpt>
      <trkpt lat="47.67271" lon="6.03364">
        <ele>187</ele>
        <time>2010-01-01T00:50:44Z</time>
      </trkpt>
      <trkpt lat="47.67273" lon="6.0337">
        <ele>187</ele>
        <time>2010-01-01T00:50:46Z</time>
      </trkpt>
      <trkpt lat="47.67274" lon="6.03376">
        <ele>187</ele>
        <time>2010-01-01T00:50:47Z</time>
      </trkpt>
      <trkpt lat="47.67275" lon="6.03382">
        <ele>187</ele>
        <time>2010-01-01T00:50:49Z</time>
      </trkpt>
      <trkpt lat="47.67277" lon="6.03388">
        <ele>187</ele>
        <time>2010-01-01T00:50:51Z</time>
      </trkpt>
      <trkpt lat="47.67279" lon="6.03395">
        <ele>187</ele>
        <time>2010-01-01T00:50:53Z</time>
      </trkpt>
      <trkpt lat="47.6728" lon="6.03401">
        <ele>187</ele>
        <time>2010-01-01T00:50:55Z</time>
      </trkpt>
      <trkpt lat="47.67282" lon="6.03407">
        <ele>187</ele>
        <time>2010-01-01T00:50:56Z</time>
      </trkpt>
      <trkpt lat="47.67283" lon="6.03414">
        <ele>187</ele>
        <time>2010-01-01T00:50:58Z</time>
      </trkpt>
      <trkpt lat="47.67285" lon="6.0342">
        <ele>187</ele>
        <time>2010-01-01T00:51:00Z</time>
      </trkpt>
      <trkpt lat="47.67287" lon="6.03426">
        <ele>187</ele>
        <time>2010-01-01T00:51:02Z</time>
      </trkpt>
      <trkpt lat="47.67288" lon="6.03433">
        <ele>187</ele>
        <time>2010-01-01T00:51:04Z</time>
      </trkpt>
      <trkpt lat="47.6729" lon="6.03439">
        <ele>187</ele>
        <time>2010-01-01T00:51:06Z</time>
      </trkpt>
      <trkpt lat="47.67291" lon="6.03445">
        <ele>187</ele>
        <time>2010-01-01T00:51:07Z</time>
      </trkpt>
      <trkpt lat="47.67293" lon="6.03452">
        <ele>187</ele>
        <time>2010-01-01T00:51:09Z</time>
      </trkpt>
      <trkpt lat="47.67294" lon="6.03458">
        <ele>187</ele>
        <time>2010-01-01T00:51:11Z</time>
      </trkpt>
      <trkpt lat="47.67295" lon="6.03465">
        <ele>187</ele>
        <time>2010-01-01T00:51:13Z</time>
      </trkpt>
      <trkpt lat="47.67296" lon="6.03471">
        <ele>187</ele>
        <time>2010-01-01T00:51:14Z</time>
      </trkpt>
      <trkpt lat="47.67297" lon="6.03477">
        <ele>187</ele>
        <time>2010-01-01T00:51:16Z</time>
      </trkpt>
      <trkpt lat="47.67299" lon="6.03484">
        <ele>187</ele>
        <time>2010-01-01T00:51:18Z</time>
      </trkpt>
      <trkpt lat="47.673" lon="6.0349">
        <ele>187</ele>
        <time>2010-01-01T00:51:20Z</time>
      </trkpt>
      <trkpt lat="47.67302" lon="6.03497">
        <ele>187</ele>
        <time>2010-01-01T00:51:22Z</time>
      </trkpt>
      <trkpt lat="47.67303" lon="6.03503">
        <ele>187</ele>
        <time>2010-01-01T00:51:24Z</time>
      </trkpt>
      <trkpt lat="47.67305" lon="6.03509">
        <ele>187</ele>
        <time>2010-01-01T00:51:25Z</time>
      </trkpt>
      <trkpt lat="47.67306" lon="6.03516">
        <ele>187</ele>
        <time>2010-01-01T00:51:27Z</time>
      </trkpt>
      <trkpt lat="47.67308" lon="6.03522">
        <ele>187</ele>
        <time>2010-01-01T00:51:29Z</time>
      </trkpt>
      <trkpt lat="47.67309" lon="6.03528">
        <ele>187</ele>
        <time>2010-01-01T00:51:31Z</time>
      </trkpt>
      <trkpt lat="47.6731" lon="6.03534">
        <ele>187</ele>
        <time>2010-01-01T00:51:32Z</time>
      </trkpt>
      <trkpt lat="47.67311" lon="6.0354">
        <ele>187</ele>
        <time>2010-01-01T00:51:34Z</time>
      </trkpt>
      <trkpt lat="47.67312" lon="6.03546">
        <ele>187</ele>
        <time>2010-01-01T00:51:36Z</time>
      </trkpt>
      <trkpt lat="47.67313" lon="6.03552">
        <ele>187</ele>
        <time>2010-01-01T00:51:37Z</time>
      </trkpt>
      <trkpt lat="47.67314" lon="6.03558">
        <ele>187</ele>
        <time>2010-01-01T00:51:39Z</time>
      </trkpt>
      <trkpt lat="47.67315" lon="6.03563">
        <ele>187</ele>
        <time>2010-01-01T00:51:41Z</time>
      </trkpt>
      <trkpt lat="47.67317" lon="6.0357">
        <ele>187</ele>
        <time>2010-01-01T00:51:42Z</time>
      </trkpt>
      <trkpt lat="47.67318" lon="6.03576">
        <ele>187</ele>
        <time>2010-01-01T00:51:44Z</time>
      </trkpt>
      <trkpt lat="47.67319" lon="6.03582">
        <ele>187</ele>
        <time>2010-01-01T00:51:46Z</time>
      </trkpt>
      <trkpt lat="47.67321" lon="6.03588">
        <ele>187</ele>
        <time>2010-01-01T00:51:48Z</time>
      </trkpt>
      <trkpt lat="47.67322" lon="6.03595">
        <ele>187</ele>
        <time>2010-01-01T00:51:49Z</time>
      </trkpt>
      <trkpt lat="47.67323" lon="6.036">
        <ele>187</ele>
        <time>2010-01-01T00:51:51Z</time>
      </trkpt>
      <trkpt lat="47.67324" lon="6.03606">
        <ele>187</ele>
        <time>2010-01-01T00:51:52Z</time>
      </trkpt>
      <trkpt lat="47.67324" lon="6.03612">
        <ele>187</ele>
        <time>2010-01-01T00:51:54Z</time>
      </trkpt>
      <trkpt lat="47.67326" lon="6.03618">
        <ele>187</ele>
        <time>2010-01-01T00:51:56Z</time>
      </trkpt>
      <trkpt lat="47.67327" lon="6.03624">
        <ele>187</ele>
        <time>2010-01-01T00:51:58Z</time>
      </trkpt>
      <trkpt lat="47.67329" lon="6.0363">
        <ele>187</ele>
        <time>2010-01-01T00:51:59Z</time>
      </trkpt>
      <trkpt lat="47.67331" lon="6.03637">
        <ele>187</ele>
        <time>2010-01-01T00:52:01Z</time>
      </trkpt>
      <trkpt lat="47.67332" lon="6.03643">
        <ele>187</ele>
        <time>2010-01-01T00:52:03Z</time>
      </trkpt>
      <trkpt lat="47.67333" lon="6.03649">
        <ele>187</ele>
        <time>2010-01-01T00:52:05Z</time>
      </trkpt>
      <trkpt lat="47.67335" lon="6.03655">
        <ele>187</ele>
        <time>2010-01-01T00:52:07Z</time>
      </trkpt>
      <trkpt lat="47.67337" lon="6.03662">
        <ele>187</ele>
        <time>2010-01-01T00:52:09Z</time>
      </trkpt>
      <trkpt lat="47.67339" lon="6.03668">
        <ele>187</ele>
        <time>2010-01-01T00:52:10Z</time>
      </trkpt>
      <trkpt lat="47.67341" lon="6.03675">
        <ele>187</ele>
        <time>2010-01-01T00:52:12Z</time>
      </trkpt>
      <trkpt lat="47.67343" lon="6.03681">
        <ele>187</ele>
        <time>2010-01-01T00:52:14Z</time>
      </trkpt>
      <trkpt lat="47.67345" lon="6.03688">
        <ele>187</ele>
        <time>2010-01-01T00:52:16Z</time>
      </trkpt>
      <trkpt lat="47.67347" lon="6.03694">
        <ele>187</ele>
        <time>2010-01-01T00:52:18Z</time>
      </trkpt>
      <trkpt lat="47.6735" lon="6.037">
        <ele>187</ele>
        <time>2010-01-01T00:52:20Z</time>
      </trkpt>
      <trkpt lat="47.67352" lon="6.03706">
        <ele>187</ele>
        <time>2010-01-01T00:52:22Z</time>
      </trkpt>
      <trkpt lat="47.67354" lon="6.03712">
        <ele>187</ele>
        <time>2010-01-01T00:52:24Z</time>
      </trkpt>
      <trkpt lat="47.67356" lon="6.03717">
        <ele>187</ele>
        <time>2010-01-01T00:52:25Z</time>
      </trkpt>
      <trkpt lat="47.67359" lon="6.03723">
        <ele>187</ele>
        <time>2010-01-01T00:52:27Z</time>
      </trkpt>
      <trkpt lat="47.67362" lon="6.03729">
        <ele>187</ele>
        <time>2010-01-01T00:52:29Z</time>
      </trkpt>
      <trkpt lat="47.67366" lon="6.03734">
        <ele>187</ele>
        <time>2010-01-01T00:52:31Z</time>
      </trkpt>
      <trkpt lat="47.67369" lon="6.03739">
        <ele>187</ele>
        <time>2010-01-01T00:52:33Z</time>
      </trkpt>
      <trkpt lat="47.67372" lon="6.03744">
        <ele>187</ele>
        <time>2010-01-01T00:52:35Z</time>
      </trkpt>
      <trkpt lat="47.67376" lon="6.03749">
        <ele>187</ele>
        <time>2010-01-01T00:52:37Z</time>
      </trkpt>
      <trkpt lat="47.67379" lon="6.03754">
        <ele>187</ele>
        <time>2010-01-01T00:52:39Z</time>
      </trkpt>
      <trkpt lat="47.67382" lon="6.03759">
        <ele>187</ele>
        <time>2010-01-01T00:52:41Z</time>
      </trkpt>
      <trkpt lat="47.67385" lon="6.03764">
        <ele>187</ele>
        <time>2010-01-01T00:52:42Z</time>
      </trkpt>
      <trkpt lat="47.67388" lon="6.03769">
        <ele>187</ele>
        <time>2010-01-01T00:52:44Z</time>
      </trkpt>
      <trkpt lat="47.67391" lon="6.03775">
        <ele>187</ele>
        <time>2010-01-01T00:52:46Z</time>
      </trkpt>
      <trkpt lat="47.67395" lon="6.0378">
        <ele>187</ele>
        <time>2010-01-01T00:52:48Z</time>
      </trkpt>
      <trkpt lat="47.67398" lon="6.03785">
        <ele>187</ele>
        <time>2010-01-01T00:52:50Z</time>
      </trkpt>
      <trkpt lat="47.67401" lon="6.0379">
        <ele>187</ele>
        <time>2010-01-01T00:52:52Z</time>
      </trkpt>
      <trkpt lat="47.67404" lon="6.03795">
        <ele>187</ele>
        <time>2010-01-01T00:52:54Z</time>
      </trkpt>
      <trkpt lat="47.67407" lon="6.03799">
        <ele>187</ele>
        <time>2010-01-01T00:52:56Z</time>
      </trkpt>
      <trkpt lat="47.6741" lon="6.03804">
        <ele>187</ele>
        <time>2010-01-01T00:52:57Z</time>
      </trkpt>
      <trkpt lat="47.67413" lon="6.0381">
        <ele>187</ele>
        <time>2010-01-01T00:52:59Z</time>
      </trkpt>
      <trkpt lat="47.67416" lon="6.03815">
        <ele>187</ele>
        <time>2010-01-01T00:53:01Z</time>
      </trkpt>
      <trkpt lat="47.67419" lon="6.0382">
        <ele>187</ele>
        <time>2010-01-01T00:53:03Z</time>
      </trkpt>
      <trkpt lat="47.67422" lon="6.03825">
        <ele>187</ele>
        <time>2010-01-01T00:53:05Z</time>
      </trkpt>
      <trkpt lat="47.67425" lon="6.0383">
        <ele>187</ele>
        <time>2010-01-01T00:53:06Z</time>
      </trkpt>
      <trkpt lat="47.67428" lon="6.03835">
        <ele>187</ele>
        <time>2010-01-01T00:53:08Z</time>
      </trkpt>
      <trkpt lat="47.67431" lon="6.0384">
        <ele>187</ele>
        <time>2010-01-01T00:53:10Z</time>
      </trkpt>
      <trkpt lat="47.67434" lon="6.03845">
        <ele>187</ele>
        <time>2010-01-01T00:53:12Z</time>
      </trkpt>
      <trkpt lat="47.67437" lon="6.0385">
        <ele>187</ele>
        <time>2010-01-01T00:53:14Z</time>
      </trkpt>
      <trkpt lat="47.6744" lon="6.03855">
        <ele>187</ele>
        <time>2010-01-01T00:53:15Z</time>
      </trkpt>
      <trkpt lat="47.67443" lon="6.0386">
        <ele>187</ele>
        <time>2010-01-01T00:53:17Z</time>
      </trkpt>
      <trkpt lat="47.67446" lon="6.03865">
        <ele>187</ele>
        <time>2010-01-01T00:53:19Z</time>
      </trkpt>
      <trkpt lat="47.67449" lon="6.0387">
        <ele>187</ele>
        <time>2010-01-01T00:53:21Z</time>
      </trkpt>
      <trkpt lat="47.67452" lon="6.03875">
        <ele>187</ele>
        <time>2010-01-01T00:53:23Z</time>
      </trkpt>
      <trkpt lat="47.67455" lon="6.0388">
        <ele>187</ele>
        <time>2010-01-01T00:53:25Z</time>
      </trkpt>
      <trkpt lat="47.67459" lon="6.03886">
        <ele>187</ele>
        <time>2010-01-01T00:53:27Z</time>
      </trkpt>
      <trkpt lat="47.67462" lon="6.03891">
        <ele>187</ele>
        <time>2010-01-01T00:53:29Z</time>
      </trkpt>
      <trkpt lat="47.67465" lon="6.03896">
        <ele>187</ele>
        <time>2010-01-01T00:53:31Z</time>
      </trkpt>
      <trkpt lat="47.67469" lon="6.03901">
        <ele>187</ele>
        <time>2010-01-01T00:53:32Z</time>
      </trkpt>
      <trkpt lat="47.67472" lon="6.03906">
        <ele>187</ele>
        <time>2010-01-01T00:53:34Z</time>
      </trkpt>
      <trkpt lat="47.67475" lon="6.03911">
        <ele>187</ele>
        <time>2010-01-01T00:53:36Z</time>
      </trkpt>
      <trkpt lat="47.67478" lon="6.03916">
        <ele>187</ele>
        <time>2010-01-01T00:53:38Z</time>
      </trkpt>
      <trkpt lat="47.67482" lon="6.03922">
        <ele>187</ele>
        <time>2010-01-01T00:53:40Z</time>
      </trkpt>
      <trkpt lat="47.67485" lon="6.03927">
        <ele>187</ele>
        <time>2010-01-01T00:53:42Z</time>
      </trkpt>
      <trkpt lat="47.67488" lon="6.03932">
        <ele>187</ele>
        <time>2010-01-01T00:53:44Z</time>
      </trkpt>
      <trkpt lat="47.67491" lon="6.03937">
        <ele>187</ele>
        <time>2010-01-01T00:53:45Z</time>
      </trkpt>
      <trkpt lat="47.67494" lon="6.03942">
        <ele>187</ele>
        <time>2010-01-01T00:53:47Z</time>
      </trkpt>
      <trkpt lat="47.67496" lon="6.03947">
        <ele>187</ele>
        <time>2010-01-01T00:53:49Z</time>
      </trkpt>
      <trkpt lat="47.67499" lon="6.03952">
        <ele>187</ele>
        <time>2010-01-01T00:53:51Z</time>
      </trkpt>
      <trkpt lat="47.67502" lon="6.03957">
        <ele>187</ele>
        <time>2010-01-01T00:53:53Z</time>
      </trkpt>
      <trkpt lat="47.67505" lon="6.03962">
        <ele>187</ele>
        <time>2010-01-01T00:53:54Z</time>
      </trkpt>
      <trkpt lat="47.67508" lon="6.03967">
        <ele>187</ele>
        <time>2010-01-01T00:53:56Z</time>
      </trkpt>
      <trkpt lat="47.67512" lon="6.03972">
        <ele>187</ele>
        <time>2010-01-01T00:53:58Z</time>
      </trkpt>
      <trkpt lat="47.67515" lon="6.03976">
        <ele>187</ele>
        <time>2010-01-01T00:54:00Z</time>
      </trkpt>
      <trkpt lat="47.67519" lon="6.0398">
        <ele>187</ele>
        <time>2010-01-01T00:54:02Z</time>
      </trkpt>
      <trkpt lat="47.67522" lon="6.03983">
        <ele>187</ele>
        <time>2010-01-01T00:54:03Z</time>
      </trkpt>
      <trkpt lat="47.67526" lon="6.03986">
        <ele>187</ele>
        <time>2010-01-01T00:54:05Z</time>
      </trkpt>
      <trkpt lat="47.67531" lon="6.03988">
        <ele>187</ele>
        <time>2010-01-01T00:54:07Z</time>
      </trkpt>
      <trkpt lat="47.67535" lon="6.0399">
        <ele>187</ele>
        <time>2010-01-01T00:54:09Z</time>
      </trkpt>
      <trkpt lat="47.6754" lon="6.0399">
        <ele>187</ele>
        <time>2010-01-01T00:54:11Z</time>
      </trkpt>
      <trkpt lat="47.67544" lon="6.03989">
        <ele>187</ele>
        <time>2010-01-01T00:54:12Z</time>
      </trkpt>
      <trkpt lat="47.67549" lon="6.03987">
        <ele>187</ele>
        <time>2010-01-01T00:54:14Z</time>
      </trkpt>
      <trkpt lat="47.67553" lon="6.03986">
        <ele>187</ele>
        <time>2010-01-01T00:54:16Z</time>
      </trkpt>
      <trkpt lat="47.67558" lon="6.03983">
        <ele>187</ele>
        <time>2010-01-01T00:54:18Z</time>
      </trkpt>
      <trkpt lat="47.67562" lon="6.0398">
        <ele>187</ele>
        <time>2010-01-01T00:54:20Z</time>
      </trkpt>
      <trkpt lat="47.67566" lon="6.03978">
        <ele>187</ele>
        <time>2010-01-01T00:54:22Z</time>
      </trkpt>
      <trkpt lat="47.6757" lon="6.03974">
        <ele>187</ele>
        <time>2010-01-01T00:54:24Z</time>
      </trkpt>
      <trkpt lat="47.67574" lon="6.0397">
        <ele>187</ele>
        <time>2010-01-01T00:54:26Z</time>
      </trkpt>
      <trkpt lat="47.67578" lon="6.03966">
        <ele>187</ele>
        <time>2010-01-01T00:54:27Z</time>
      </trkpt>
      <trkpt lat="47.67582" lon="6.03962">
        <ele>187</ele>
        <time>2010-01-01T00:54:29Z</time>
      </trkpt>
      <trkpt lat="47.67585" lon="6.03958">
        <ele>187</ele>
        <time>2010-01-01T00:54:31Z</time>
      </trkpt>
      <trkpt lat="47.67589" lon="6.03954">
        <ele>187</ele>
        <time>2010-01-01T00:54:33Z</time>
      </trkpt>
      <trkpt lat="47.67593" lon="6.03949">
        <ele>187</ele>
        <time>2010-01-01T00:54:35Z</time>
      </trkpt>
      <trkpt lat="47.67596" lon="6.03945">
        <ele>187</ele>
        <time>2010-01-01T00:54:37Z</time>
      </trkpt>
      <trkpt lat="47.676" lon="6.03941">
        <ele>187</ele>
        <time>2010-01-01T00:54:38Z</time>
      </trkpt>
      <trkpt lat="47.67603" lon="6.03937">
        <ele>187</ele>
        <time>2010-01-01T00:54:40Z</time>
      </trkpt>
      <trkpt lat="47.67607" lon="6.03933">
        <ele>187</ele>
        <time>2010-01-01T00:54:42Z</time>
      </trkpt>
      <trkpt lat="47.67611" lon="6.03929">
        <ele>187</ele>
        <time>2010-01-01T00:54:44Z</time>
      </trkpt>
      <trkpt lat="47.67615" lon="6.03924">
        <ele>187</ele>
        <time>2010-01-01T00:54:46Z</time>
      </trkpt>
      <trkpt lat="47.67618" lon="6.0392">
        <ele>187</ele>
        <time>2010-01-01T00:54:48Z</time>
      </trkpt>
      <trkpt lat="47.67622" lon="6.03916">
        <ele>187</ele>
        <time>2010-01-01T00:54:50Z</time>
      </trkpt>
      <trkpt lat="47.67625" lon="6.03912">
        <ele>187</ele>
        <time>2010-01-01T00:54:51Z</time>
      </trkpt>
      <trkpt lat="47.67629" lon="6.03907">
        <ele>187</ele>
        <time>2010-01-01T00:54:53Z</time>
      </trkpt>
      <trkpt lat="47.67632" lon="6.03903">
        <ele>187</ele>
        <time>2010-01-01T00:54:55Z</time>
      </trkpt>
      <trkpt lat="47.67636" lon="6.039">
        <ele>187</ele>
        <time>2010-01-01T00:54:57Z</time>
      </trkpt>
      <trkpt lat="47.67639" lon="6.03895">
        <ele>187</ele>
        <time>2010-01-01T00:54:58Z</time>
      </trkpt>
      <trkpt lat="47.67643" lon="6.03891">
        <ele>187</ele>
        <time>2010-01-01T00:55:00Z</time>
      </trkpt>
      <trkpt lat="47.67646" lon="6.03888">
        <ele>187</ele>
        <time>2010-01-01T00:55:02Z</time>
      </trkpt>
      <trkpt lat="47.6765" lon="6.03883">
        <ele>187</ele>
        <time>2010-01-01T00:55:04Z</time>
      </trkpt>
      <trkpt lat="47.67653" lon="6.03879">
        <ele>187</ele>
        <time>2010-01-01T00:55:06Z</time>
      </trkpt>
      <trkpt lat="47.67657" lon="6.03875">
        <ele>187</ele>
        <time>2010-01-01T00:55:07Z</time>
      </trkpt>
      <trkpt lat="47.67661" lon="6.03871">
        <ele>187</ele>
        <time>2010-01-01T00:55:09Z</time>
      </trkpt>
      <trkpt lat="47.67664" lon="6.03866">
        <ele>187</ele>
        <time>2010-01-01T00:55:11Z</time>
      </trkpt>
      <trkpt lat="47.67668" lon="6.03862">
        <ele>187</ele>
        <time>2010-01-01T00:55:13Z</time>
      </trkpt>
      <trkpt lat="47.67671" lon="6.03857">
        <ele>187</ele>
        <time>2010-01-01T00:55:15Z</time>
      </trkpt>
      <trkpt lat="47.67675" lon="6.03853">
        <ele>187</ele>
        <time>2010-01-01T00:55:17Z</time>
      </trkpt>
      <trkpt lat="47.67679" lon="6.03848">
        <ele>187</ele>
        <time>2010-01-01T00:55:19Z</time>
      </trkpt>
      <trkpt lat="47.67683" lon="6.03844">
        <ele>187</ele>
        <time>2010-01-01T00:55:21Z</time>
      </trkpt>
      <trkpt lat="47.67687" lon="6.0384">
        <ele>187</ele>
        <time>2010-01-01T00:55:23Z</time>
      </trkpt>
      <trkpt lat="47.67691" lon="6.03836">
        <ele>187</ele>
        <time>2010-01-01T00:55:24Z</time>
      </trkpt>
      <trkpt lat="47.67695" lon="6.03833">
        <ele>187</ele>
        <time>2010-01-01T00:55:26Z</time>
      </trkpt>
      <trkpt lat="47.67699" lon="6.03829">
        <ele>187</ele>
        <time>2010-01-01T00:55:28Z</time>
      </trkpt>
      <trkpt lat="47.67703" lon="6.03825">
        <ele>187</ele>
        <time>2010-01-01T00:55:30Z</time>
      </trkpt>
      <trkpt lat="47.67707" lon="6.0382">
        <ele>187</ele>
        <time>2010-01-01T00:55:32Z</time>
      </trkpt>
      <trkpt lat="47.67712" lon="6.03817">
        <ele>187</ele>
        <time>2010-01-01T00:55:34Z</time>
      </trkpt>
      <trkpt lat="47.67716" lon="6.03813">
        <ele>187</ele>
        <time>2010-01-01T00:55:36Z</time>
      </trkpt>
      <trkpt lat="47.6772" lon="6.03809">
        <ele>187</ele>
        <time>2010-01-01T00:55:38Z</time>
      </trkpt>
      <trkpt lat="47.67723" lon="6.03805">
        <ele>187</ele>
        <time>2010-01-01T00:55:40Z</time>
      </trkpt>
      <trkpt lat="47.67727" lon="6.03801">
        <ele>187</ele>
        <time>2010-01-01T00:55:42Z</time>
      </trkpt>
      <trkpt lat="47.67731" lon="6.03798">
        <ele>187</ele>
        <time>2010-01-01T00:55:44Z</time>
      </trkpt>
      <trkpt lat="47.67735" lon="6.03794">
        <ele>187</ele>
        <time>2010-01-01T00:55:46Z</time>
      </trkpt>
      <trkpt lat="47.6774" lon="6.0379">
        <ele>187</ele>
        <time>2010-01-01T00:55:48Z</time>
      </trkpt>
      <trkpt lat="47.67743" lon="6.03786">
        <ele>187</ele>
        <time>2010-01-01T00:55:50Z</time>
      </trkpt>
      <trkpt lat="47.67747" lon="6.03782">
        <ele>187</ele>
        <time>2010-01-01T00:55:52Z</time>
      </trkpt>
      <trkpt lat="47.67751" lon="6.03778">
        <ele>187</ele>
        <time>2010-01-01T00:55:53Z</time>
      </trkpt>
      <trkpt lat="47.67755" lon="6.03775">
        <ele>187</ele>
        <time>2010-01-01T00:55:55Z</time>
      </trkpt>
      <trkpt lat="47.67759" lon="6.03771">
        <ele>187</ele>
        <time>2010-01-01T00:55:57Z</time>
      </trkpt>
      <trkpt lat="47.67763" lon="6.03767">
        <ele>187</ele>
        <time>2010-01-01T00:55:59Z</time>
      </trkpt>
      <trkpt lat="47.67767" lon="6.03763">
        <ele>187</ele>
        <time>2010-01-01T00:56:01Z</time>
      </trkpt>
      <trkpt lat="47.67771" lon="6.03759">
        <ele>187</ele>
        <time>2010-01-01T00:56:03Z</time>
      </trkpt>
      <trkpt lat="47.67775" lon="6.03755">
        <ele>187</ele>
        <time>2010-01-01T00:56:05Z</time>
      </trkpt>
      <trkpt lat="47.67779" lon="6.03751">
        <ele>187</ele>
        <time>2010-01-01T00:56:07Z</time>
      </trkpt>
      <trkpt lat="47.67783" lon="6.03748">
        <ele>187</ele>
        <time>2010-01-01T00:56:09Z</time>
      </trkpt>
      <trkpt lat="47.67787" lon="6.03744">
        <ele>187</ele>
        <time>2010-01-01T00:56:10Z</time>
      </trkpt>
      <trkpt lat="47.67791" lon="6.03741">
        <ele>187</ele>
        <time>2010-01-01T00:56:12Z</time>
      </trkpt>
      <trkpt lat="47.67796" lon="6.03737">
        <ele>187</ele>
        <time>2010-01-01T00:56:14Z</time>
      </trkpt>
      <trkpt lat="47.678" lon="6.03733">
        <ele>187</ele>
        <time>2010-01-01T00:56:16Z</time>
      </trkpt>
      <trkpt lat="47.67804" lon="6.0373">
        <ele>187</ele>
        <time>2010-01-01T00:56:18Z</time>
      </trkpt>
      <trkpt lat="47.67808" lon="6.03726">
        <ele>187</ele>
        <time>2010-01-01T00:56:20Z</time>
      </trkpt>
      <trkpt lat="47.67812" lon="6.03722">
        <ele>187</ele>
        <time>2010-01-01T00:56:22Z</time>
      </trkpt>
      <trkpt lat="47.67816" lon="6.03719">
        <ele>187</ele>
        <time>2010-01-01T00:56:24Z</time>
      </trkpt>
      <trkpt lat="47.6782" lon="6.03716">
        <ele>187</ele>
        <time>2010-01-01T00:56:26Z</time>
      </trkpt>
      <trkpt lat="47.67825" lon="6.03713">
        <ele>188</ele>
        <time>2010-01-01T00:56:28Z</time>
      </trkpt>
      <trkpt lat="47.67829" lon="6.03709">
        <ele>188</ele>
        <time>2010-01-01T00:56:30Z</time>
      </trkpt>
      <trkpt lat="47.67833" lon="6.03706">
        <ele>189</ele>
        <time>2010-01-01T00:56:32Z</time>
      </trkpt>
      <trkpt lat="47.67837" lon="6.03703">
        <ele>189</ele>
        <time>2010-01-01T00:56:33Z</time>
      </trkpt>
      <trkpt lat="47.67841" lon="6.037">
        <ele>189</ele>
        <time>2010-01-01T00:56:35Z</time>
      </trkpt>
      <trkpt lat="47.67845" lon="6.03697">
        <ele>189</ele>
        <time>2010-01-01T00:56:37Z</time>
      </trkpt>
      <trkpt lat="47.67849" lon="6.03695">
        <ele>189</ele>
        <time>2010-01-01T00:56:39Z</time>
      </trkpt>
      <trkpt lat="47.67853" lon="6.03692">
        <ele>189</ele>
        <time>2010-01-01T00:56:40Z</time>
      </trkpt>
      <trkpt lat="47.67857" lon="6.03689">
        <ele>189</ele>
        <time>2010-01-01T00:56:42Z</time>
      </trkpt>
      <trkpt lat="47.67861" lon="6.03687">
        <ele>189</ele>
        <time>2010-01-01T00:56:44Z</time>
      </trkpt>
      <trkpt lat="47.67864" lon="6.03685">
        <ele>189</ele>
        <time>2010-01-01T00:56:45Z</time>
      </trkpt>
      <trkpt lat="47.67868" lon="6.03684">
        <ele>189</ele>
        <time>2010-01-01T00:56:47Z</time>
      </trkpt>
      <trkpt lat="47.67873" lon="6.03682">
        <ele>189</ele>
        <time>2010-01-01T00:56:49Z</time>
      </trkpt>
      <trkpt lat="47.67877" lon="6.0368">
        <ele>189</ele>
        <time>2010-01-01T00:56:51Z</time>
      </trkpt>
      <trkpt lat="47.67882" lon="6.03676">
        <ele>189</ele>
        <time>2010-01-01T00:56:53Z</time>
      </trkpt>
      <trkpt lat="47.67887" lon="6.03673">
        <ele>189</ele>
        <time>2010-01-01T00:56:55Z</time>
      </trkpt>
      <trkpt lat="47.67892" lon="6.0367">
        <ele>189</ele>
        <time>2010-01-01T00:56:57Z</time>
      </trkpt>
      <trkpt lat="47.67898" lon="6.03666">
        <ele>189</ele>
        <time>2010-01-01T00:57:00Z</time>
      </trkpt>
      <trkpt lat="47.67903" lon="6.03663">
        <ele>189</ele>
        <time>2010-01-01T00:57:02Z</time>
      </trkpt>
      <trkpt lat="47.67908" lon="6.0366">
        <ele>189</ele>
        <time>2010-01-01T00:57:04Z</time>
      </trkpt>
      <trkpt lat="47.67913" lon="6.03657">
        <ele>189</ele>
        <time>2010-01-01T00:57:06Z</time>
      </trkpt>
      <trkpt lat="47.67918" lon="6.03653">
        <ele>189</ele>
        <time>2010-01-01T00:57:08Z</time>
      </trkpt>
      <trkpt lat="47.67923" lon="6.0365">
        <ele>189</ele>
        <time>2010-01-01T00:57:10Z</time>
      </trkpt>
      <trkpt lat="47.67927" lon="6.03647">
        <ele>189</ele>
        <time>2010-01-01T00:57:13Z</time>
      </trkpt>
      <trkpt lat="47.67933" lon="6.03644">
        <ele>189</ele>
        <time>2010-01-01T00:57:15Z</time>
      </trkpt>
      <trkpt lat="47.67938" lon="6.03641">
        <ele>189</ele>
        <time>2010-01-01T00:57:17Z</time>
      </trkpt>
      <trkpt lat="47.67942" lon="6.03638">
        <ele>189</ele>
        <time>2010-01-01T00:57:19Z</time>
      </trkpt>
      <trkpt lat="47.67947" lon="6.03635">
        <ele>189</ele>
        <time>2010-01-01T00:57:21Z</time>
      </trkpt>
      <trkpt lat="47.67952" lon="6.03632">
        <ele>189</ele>
        <time>2010-01-01T00:57:23Z</time>
      </trkpt>
      <trkpt lat="47.67957" lon="6.0363">
        <ele>189</ele>
        <time>2010-01-01T00:57:25Z</time>
      </trkpt>
      <trkpt lat="47.67962" lon="6.03627">
        <ele>189</ele>
        <time>2010-01-01T00:57:27Z</time>
      </trkpt>
      <trkpt lat="47.67967" lon="6.03624">
        <ele>189</ele>
        <time>2010-01-01T00:57:29Z</time>
      </trkpt>
      <trkpt lat="47.67971" lon="6.03621">
        <ele>189</ele>
        <time>2010-01-01T00:57:32Z</time>
      </trkpt>
      <trkpt lat="47.67976" lon="6.03617">
        <ele>189</ele>
        <time>2010-01-01T00:57:34Z</time>
      </trkpt>
      <trkpt lat="47.67981" lon="6.03615">
        <ele>189</ele>
        <time>2010-01-01T00:57:36Z</time>
      </trkpt>
      <trkpt lat="47.67985" lon="6.03611">
        <ele>189</ele>
        <time>2010-01-01T00:57:38Z</time>
      </trkpt>
      <trkpt lat="47.6799" lon="6.03608">
        <ele>189</ele>
        <time>2010-01-01T00:57:40Z</time>
      </trkpt>
      <trkpt lat="47.67995" lon="6.03605">
        <ele>189</ele>
        <time>2010-01-01T00:57:42Z</time>
      </trkpt>
      <trkpt lat="47.68" lon="6.03601">
        <ele>189</ele>
        <time>2010-01-01T00:57:44Z</time>
      </trkpt>
      <trkpt lat="47.68005" lon="6.03597">
        <ele>189</ele>
        <time>2010-01-01T00:57:46Z</time>
      </trkpt>
      <trkpt lat="47.6801" lon="6.03593">
        <ele>189</ele>
        <time>2010-01-01T00:57:49Z</time>
      </trkpt>
      <trkpt lat="47.68014" lon="6.03589">
        <ele>189</ele>
        <time>2010-01-01T00:57:51Z</time>
      </trkpt>
      <trkpt lat="47.68019" lon="6.03586">
        <ele>189</ele>
        <time>2010-01-01T00:57:53Z</time>
      </trkpt>
      <trkpt lat="47.68023" lon="6.03582">
        <ele>189</ele>
        <time>2010-01-01T00:57:55Z</time>
      </trkpt>
      <trkpt lat="47.68027" lon="6.03579">
        <ele>189</ele>
        <time>2010-01-01T00:57:57Z</time>
      </trkpt>
      <trkpt lat="47.68031" lon="6.03576">
        <ele>189</ele>
        <time>2010-01-01T00:57:58Z</time>
      </trkpt>
      <trkpt lat="47.68035" lon="6.03573">
        <ele>189</ele>
        <time>2010-01-01T00:58:00Z</time>
      </trkpt>
      <trkpt lat="47.6804" lon="6.03571">
        <ele>189</ele>
        <time>2010-01-01T00:58:02Z</time>
      </trkpt>
      <trkpt lat="47.68046" lon="6.0357">
        <ele>189</ele>
        <time>2010-01-01T00:58:04Z</time>
      </trkpt>
      <trkpt lat="47.68051" lon="6.03569">
        <ele>189</ele>
        <time>2010-01-01T00:58:07Z</time>
      </trkpt>
      <trkpt lat="47.68057" lon="6.0357">
        <ele>189</ele>
        <time>2010-01-01T00:58:09Z</time>
      </trkpt>
      <trkpt lat="47.68063" lon="6.0357">
        <ele>189</ele>
        <time>2010-01-01T00:58:11Z</time>
      </trkpt>
      <trkpt lat="47.68068" lon="6.03571">
        <ele>189</ele>
        <time>2010-01-01T00:58:13Z</time>
      </trkpt>
      <trkpt lat="47.68074" lon="6.03571">
        <ele>189</ele>
        <time>2010-01-01T00:58:16Z</time>
      </trkpt>
      <trkpt lat="47.68079" lon="6.03572">
        <ele>189</ele>
        <time>2010-01-01T00:58:18Z</time>
      </trkpt>
      <trkpt lat="47.68085" lon="6.03573">
        <ele>189</ele>
        <time>2010-01-01T00:58:20Z</time>
      </trkpt>
      <trkpt lat="47.68091" lon="6.03575">
        <ele>189</ele>
        <time>2010-01-01T00:58:23Z</time>
      </trkpt>
      <trkpt lat="47.68096" lon="6.03576">
        <ele>189</ele>
        <time>2010-01-01T00:58:25Z</time>
      </trkpt>
      <trkpt lat="47.68102" lon="6.03578">
        <ele>189</ele>
        <time>2010-01-01T00:58:27Z</time>
      </trkpt>
      <trkpt lat="47.68108" lon="6.03579">
        <ele>189</ele>
        <time>2010-01-01T00:58:29Z</time>
      </trkpt>
      <trkpt lat="47.68113" lon="6.0358">
        <ele>189</ele>
        <time>2010-01-01T00:58:32Z</time>
      </trkpt>
      <trkpt lat="47.68118" lon="6.03581">
        <ele>189</ele>
        <time>2010-01-01T00:58:34Z</time>
      </trkpt>
      <trkpt lat="47.68123" lon="6.03581">
        <ele>189</ele>
        <time>2010-01-01T00:58:36Z</time>
      </trkpt>
      <trkpt lat="47.68129" lon="6.03581">
        <ele>189</ele>
        <time>2010-01-01T00:58:38Z</time>
      </trkpt>
      <trkpt lat="47.68134" lon="6.03581">
        <ele>189</ele>
        <time>2010-01-01T00:58:40Z</time>
      </trkpt>
      <trkpt lat="47.68139" lon="6.0358">
        <ele>189</ele>
        <time>2010-01-01T00:58:42Z</time>
      </trkpt>
      <trkpt lat="47.68144" lon="6.03579">
        <ele>189</ele>
        <time>2010-01-01T00:58:44Z</time>
      </trkpt>
      <trkpt lat="47.68149" lon="6.03578">
        <ele>189</ele>
        <time>2010-01-01T00:58:46Z</time>
      </trkpt>
      <trkpt lat="47.68155" lon="6.03576">
        <ele>189</ele>
        <time>2010-01-01T00:58:48Z</time>
      </trkpt>
      <trkpt lat="47.6816" lon="6.03575">
        <ele>189</ele>
        <time>2010-01-01T00:58:51Z</time>
      </trkpt>
      <trkpt lat="47.68165" lon="6.03574">
        <ele>189</ele>
        <time>2010-01-01T00:58:53Z</time>
      </trkpt>
      <trkpt lat="47.68171" lon="6.03572">
        <ele>189</ele>
        <time>2010-01-01T00:58:55Z</time>
      </trkpt>
      <trkpt lat="47.68176" lon="6.03571">
        <ele>189</ele>
        <time>2010-01-01T00:58:57Z</time>
      </trkpt>
      <trkpt lat="47.68181" lon="6.0357">
        <ele>189</ele>
        <time>2010-01-01T00:58:59Z</time>
      </trkpt>
      <trkpt lat="47.68187" lon="6.0357">
        <ele>189</ele>
        <time>2010-01-01T00:59:01Z</time>
      </trkpt>
      <trkpt lat="47.68192" lon="6.03569">
        <ele>189</ele>
        <time>2010-01-01T00:59:04Z</time>
      </trkpt>
      <trkpt lat="47.68198" lon="6.03568">
        <ele>189</ele>
        <time>2010-01-01T00:59:06Z</time>
      </trkpt>
      <trkpt lat="47.68203" lon="6.03567">
        <ele>189</ele>
        <time>2010-01-01T00:59:08Z</time>
      </trkpt>
      <trkpt lat="47.68209" lon="6.03566">
        <ele>189</ele>
        <time>2010-01-01T00:59:10Z</time>
      </trkpt>
      <trkpt lat="47.68214" lon="6.03567">
        <ele>189</ele>
        <time>2010-01-01T00:59:12Z</time>
      </trkpt>
      <trkpt lat="47.6822" lon="6.03567">
        <ele>189</ele>
        <time>2010-01-01T00:59:15Z</time>
      </trkpt>
      <trkpt lat="47.68225" lon="6.03567">
        <ele>189</ele>
        <time>2010-01-01T00:59:17Z</time>
      </trkpt>
      <trkpt lat="47.68231" lon="6.03566">
        <ele>189</ele>
        <time>2010-01-01T00:59:19Z</time>
      </trkpt>
      <trkpt lat="47.68236" lon="6.03567">
        <ele>189</ele>
        <time>2010-01-01T00:59:21Z</time>
      </trkpt>
      <trkpt lat="47.68241" lon="6.03568">
        <ele>189</ele>
        <time>2010-01-01T00:59:23Z</time>
      </trkpt>
      <trkpt lat="47.68246" lon="6.03568">
        <ele>189</ele>
        <time>2010-01-01T00:59:25Z</time>
      </trkpt>
      <trkpt lat="47.68251" lon="6.03568">
        <ele>189</ele>
        <time>2010-01-01T00:59:27Z</time>
      </trkpt>
      <trkpt lat="47.68257" lon="6.03569">
        <ele>189</ele>
        <time>2010-01-01T00:59:29Z</time>
      </trkpt>
      <trkpt lat="47.68262" lon="6.03569">
        <ele>189</ele>
        <time>2010-01-01T00:59:32Z</time>
      </trkpt>
      <trkpt lat="47.68268" lon="6.0357">
        <ele>189</ele>
        <time>2010-01-01T00:59:34Z</time>
      </trkpt>
      <trkpt lat="47.68273" lon="6.03571">
        <ele>189</ele>
        <time>2010-01-01T00:59:36Z</time>
      </trkpt>
      <trkpt lat="47.68278" lon="6.03571">
        <ele>189</ele>
        <time>2010-01-01T00:59:38Z</time>
      </trkpt>
      <trkpt lat="47.68284" lon="6.03572">
        <ele>189</ele>
        <time>2010-01-01T00:59:40Z</time>
      </trkpt>
      <trkpt lat="47.68289" lon="6.03573">
        <ele>189</ele>
        <time>2010-01-01T00:59:42Z</time>
      </trkpt>
      <trkpt lat="47.68295" lon="6.03574">
        <ele>189</ele>
        <time>2010-01-01T00:59:45Z</time>
      </trkpt>
      <trkpt lat="47.683" lon="6.03575">
        <ele>189</ele>
        <time>2010-01-01T00:59:47Z</time>
      </trkpt>
      <trkpt lat="47.68305" lon="6.03576">
        <ele>189</ele>
        <time>2010-01-01T00:59:49Z</time>
      </trkpt>
      <trkpt lat="47.6831" lon="6.03577">
        <ele>189</ele>
        <time>2010-01-01T00:59:51Z</time>
      </trkpt>
      <trkpt lat="47.68315" lon="6.03578">
        <ele>189</ele>
        <time>2010-01-01T00:59:53Z</time>
      </trkpt>
      <trkpt lat="47.6832" lon="6.0358">
        <ele>189</ele>
        <time>2010-01-01T00:59:55Z</time>
      </trkpt>
      <trkpt lat="47.68326" lon="6.03581">
        <ele>189</ele>
        <time>2010-01-01T00:59:57Z</time>
      </trkpt>
      <trkpt lat="47.68331" lon="6.03583">
        <ele>189</ele>
        <time>2010-01-01T00:59:59Z</time>
      </trkpt>
      <trkpt lat="47.68336" lon="6.03584">
        <ele>189</ele>
        <time>2010-01-01T01:00:01Z</time>
      </trkpt>
      <trkpt lat="47.68341" lon="6.03586">
        <ele>189</ele>
        <time>2010-01-01T01:00:04Z</time>
      </trkpt>
      <trkpt lat="47.68346" lon="6.03587">
        <ele>189</ele>
        <time>2010-01-01T01:00:06Z</time>
      </trkpt>
      <trkpt lat="47.68352" lon="6.03589">
        <ele>189</ele>
        <time>2010-01-01T01:00:08Z</time>
      </trkpt>
      <trkpt lat="47.68357" lon="6.0359">
        <ele>189</ele>
        <time>2010-01-01T01:00:10Z</time>
      </trkpt>
      <trkpt lat="47.68362" lon="6.03592">
        <ele>189</ele>
        <time>2010-01-01T01:00:12Z</time>
      </trkpt>
      <trkpt lat="47.68367" lon="6.03594">
        <ele>189</ele>
        <time>2010-01-01T01:00:14Z</time>
      </trkpt>
      <trkpt lat="47.68373" lon="6.03596">
        <ele>189</ele>
        <time>2010-01-01T01:00:17Z</time>
      </trkpt>
      <trkpt lat="47.68378" lon="6.03598">
        <ele>189</ele>
        <time>2010-01-01T01:00:19Z</time>
      </trkpt>
      <trkpt lat="47.68383" lon="6.036">
        <ele>189</ele>
        <time>2010-01-01T01:00:21Z</time>
      </trkpt>
      <trkpt lat="47.68388" lon="6.03603">
        <ele>189</ele>
        <time>2010-01-01T01:00:23Z</time>
      </trkpt>
      <trkpt lat="47.68393" lon="6.03606">
        <ele>189</ele>
        <time>2010-01-01T01:00:25Z</time>
      </trkpt>
      <trkpt lat="47.68398" lon="6.03609">
        <ele>189</ele>
        <time>2010-01-01T01:00:27Z</time>
      </trkpt>
      <trkpt lat="47.68403" lon="6.03612">
        <ele>189</ele>
        <time>2010-01-01T01:00:29Z</time>
      </trkpt>
      <trkpt lat="47.68408" lon="6.03614">
        <ele>189</ele>
        <time>2010-01-01T01:00:31Z</time>
      </trkpt>
      <trkpt lat="47.68413" lon="6.03617">
        <ele>189</ele>
        <time>2010-01-01T01:00:34Z</time>
      </trkpt>
      <trkpt lat="47.68418" lon="6.0362">
        <ele>189</ele>
        <time>2010-01-01T01:00:36Z</time>
      </trkpt>
      <trkpt lat="47.68423" lon="6.03622">
        <ele>189</ele>
        <time>2010-01-01T01:00:38Z</time>
      </trkpt>
      <trkpt lat="47.68428" lon="6.03623">
        <ele>189</ele>
        <time>2010-01-01T01:00:40Z</time>
      </trkpt>
      <trkpt lat="47.68433" lon="6.03624">
        <ele>189</ele>
        <time>2010-01-01T01:00:42Z</time>
      </trkpt>
      <trkpt lat="47.68439" lon="6.03623">
        <ele>189</ele>
        <time>2010-01-01T01:00:44Z</time>
      </trkpt>
      <trkpt lat="47.68444" lon="6.03622">
        <ele>189</ele>
        <time>2010-01-01T01:00:46Z</time>
      </trkpt>
      <trkpt lat="47.68449" lon="6.0362">
        <ele>189</ele>
        <time>2010-01-01T01:00:48Z</time>
      </trkpt>
      <trkpt lat="47.68454" lon="6.03618">
        <ele>189</ele>
        <time>2010-01-01T01:00:50Z</time>
      </trkpt>
      <trkpt lat="47.68459" lon="6.03616">
        <ele>189</ele>
        <time>2010-01-01T01:00:52Z</time>
      </trkpt>
      <trkpt lat="47.68463" lon="6.03614">
        <ele>189</ele>
        <time>2010-01-01T01:00:54Z</time>
      </trkpt>
      <trkpt lat="47.68468" lon="6.03613">
        <ele>189</ele>
        <time>2010-01-01T01:00:56Z</time>
      </trkpt>
      <trkpt lat="47.68473" lon="6.03614">
        <ele>189</ele>
        <time>2010-01-01T01:00:58Z</time>
      </trkpt>
      <trkpt lat="47.68478" lon="6.03614">
        <ele>189</ele>
        <time>2010-01-01T01:01:00Z</time>
      </trkpt>
      <trkpt lat="47.68482" lon="6.03616">
        <ele>189</ele>
        <time>2010-01-01T01:01:02Z</time>
      </trkpt>
      <trkpt lat="47.68487" lon="6.03618">
        <ele>189</ele>
        <time>2010-01-01T01:01:04Z</time>
      </trkpt>
      <trkpt lat="47.68491" lon="6.0362">
        <ele>189</ele>
        <time>2010-01-01T01:01:06Z</time>
      </trkpt>
      <trkpt lat="47.68496" lon="6.03622">
        <ele>189</ele>
        <time>2010-01-01T01:01:08Z</time>
      </trkpt>
      <trkpt lat="47.685" lon="6.03625">
        <ele>189</ele>
        <time>2010-01-01T01:01:10Z</time>
      </trkpt>
      <trkpt lat="47.68504" lon="6.03627">
        <ele>189</ele>
        <time>2010-01-01T01:01:11Z</time>
      </trkpt>
      <trkpt lat="47.68509" lon="6.03629">
        <ele>189</ele>
        <time>2010-01-01T01:01:13Z</time>
      </trkpt>
      <trkpt lat="47.68513" lon="6.03631">
        <ele>189</ele>
        <time>2010-01-01T01:01:15Z</time>
      </trkpt>
      <trkpt lat="47.68518" lon="6.03633">
        <ele>189</ele>
        <time>2010-01-01T01:01:17Z</time>
      </trkpt>
      <trkpt lat="47.68522" lon="6.03635">
        <ele>189</ele>
        <time>2010-01-01T01:01:19Z</time>
      </trkpt>
      <trkpt lat="47.68527" lon="6.03637">
        <ele>189</ele>
        <time>2010-01-01T01:01:21Z</time>
      </trkpt>
      <trkpt lat="47.68531" lon="6.03639">
        <ele>189</ele>
        <time>2010-01-01T01:01:23Z</time>
      </trkpt>
      <trkpt lat="47.68535" lon="6.03641">
        <ele>189</ele>
        <time>2010-01-01T01:01:24Z</time>
      </trkpt>
      <trkpt lat="47.6854" lon="6.03643">
        <ele>189</ele>
        <time>2010-01-01T01:01:26Z</time>
      </trkpt>
      <trkpt lat="47.68544" lon="6.03644">
        <ele>189</ele>
        <time>2010-01-01T01:01:28Z</time>
      </trkpt>
      <trkpt lat="47.68548" lon="6.03645">
        <ele>189</ele>
        <time>2010-01-01T01:01:30Z</time>
      </trkpt>
      <trkpt lat="47.68553" lon="6.03646">
        <ele>189</ele>
        <time>2010-01-01T01:01:31Z</time>
      </trkpt>
      <trkpt lat="47.68557" lon="6.03647">
        <ele>189</ele>
        <time>2010-01-01T01:01:33Z</time>
      </trkpt>
      <trkpt lat="47.68562" lon="6.03647">
        <ele>189</ele>
        <time>2010-01-01T01:01:35Z</time>
      </trkpt>
      <trkpt lat="47.68566" lon="6.03647">
        <ele>189</ele>
        <time>2010-01-01T01:01:37Z</time>
      </trkpt>
      <trkpt lat="47.6857" lon="6.03647">
        <ele>189</ele>
        <time>2010-01-01T01:01:38Z</time>
      </trkpt>
      <trkpt lat="47.68574" lon="6.03647">
        <ele>189</ele>
        <time>2010-01-01T01:01:40Z</time>
      </trkpt>
      <trkpt lat="47.68578" lon="6.03647">
        <ele>189</ele>
        <time>2010-01-01T01:01:42Z</time>
      </trkpt>
      <trkpt lat="47.68582" lon="6.03646">
        <ele>189</ele>
        <time>2010-01-01T01:01:43Z</time>
      </trkpt>
      <trkpt lat="47.68586" lon="6.03646">
        <ele>189</ele>
        <time>2010-01-01T01:01:45Z</time>
      </trkpt>
      <trkpt lat="47.68589" lon="6.03644">
        <ele>189</ele>
        <time>2010-01-01T01:01:46Z</time>
      </trkpt>
      <trkpt lat="47.68593" lon="6.03642">
        <ele>189</ele>
        <time>2010-01-01T01:01:48Z</time>
      </trkpt>
      <trkpt lat="47.68597" lon="6.0364">
        <ele>189</ele>
        <time>2010-01-01T01:01:49Z</time>
      </trkpt>
      <trkpt lat="47.686" lon="6.03638">
        <ele>189</ele>
        <time>2010-01-01T01:01:51Z</time>
      </trkpt>
      <trkpt lat="47.68604" lon="6.03635">
        <ele>189</ele>
        <time>2010-01-01T01:01:52Z</time>
      </trkpt>
      <trkpt lat="47.68607" lon="6.03632">
        <ele>189</ele>
        <time>2010-01-01T01:01:54Z</time>
      </trkpt>
      <trkpt lat="47.68611" lon="6.03629">
        <ele>189</ele>
        <time>2010-01-01T01:01:56Z</time>
      </trkpt>
      <trkpt lat="47.68615" lon="6.03627">
        <ele>190</ele>
        <time>2010-01-01T01:01:57Z</time>
      </trkpt>
      <trkpt lat="47.68619" lon="6.03627">
        <ele>190</ele>
        <time>2010-01-01T01:01:59Z</time>
      </trkpt>
      <trkpt lat="47.68624" lon="6.03627">
        <ele>191</ele>
        <time>2010-01-01T01:02:01Z</time>
      </trkpt>
      <trkpt lat="47.68628" lon="6.03628">
        <ele>191</ele>
        <time>2010-01-01T01:02:03Z</time>
      </trkpt>
      <trkpt lat="47.68633" lon="6.03629">
        <ele>191</ele>
        <time>2010-01-01T01:02:05Z</time>
      </trkpt>
      <trkpt lat="47.68638" lon="6.0363">
        <ele>191</ele>
        <time>2010-01-01T01:02:07Z</time>
      </trkpt>
      <trkpt lat="47.68642" lon="6.03631">
        <ele>191</ele>
        <time>2010-01-01T01:02:08Z</time>
      </trkpt>
      <trkpt lat="47.68647" lon="6.03632">
        <ele>191</ele>
        <time>2010-01-01T01:02:11Z</time>
      </trkpt>
      <trkpt lat="47.68653" lon="6.03633">
        <ele>191</ele>
        <time>2010-01-01T01:02:13Z</time>
      </trkpt>
      <trkpt lat="47.68658" lon="6.03633">
        <ele>191</ele>
        <time>2010-01-01T01:02:15Z</time>
      </trkpt>
      <trkpt lat="47.68663" lon="6.03633">
        <ele>191</ele>
        <time>2010-01-01T01:02:17Z</time>
      </trkpt>
      <trkpt lat="47.68668" lon="6.03634">
        <ele>191</ele>
        <time>2010-01-01T01:02:19Z</time>
      </trkpt>
      <trkpt lat="47.68673" lon="6.03634">
        <ele>191</ele>
        <time>2010-01-01T01:02:21Z</time>
      </trkpt>
      <trkpt lat="47.68678" lon="6.03635">
        <ele>191</ele>
        <time>2010-01-01T01:02:23Z</time>
      </trkpt>
      <trkpt lat="47.68683" lon="6.03636">
        <ele>191</ele>
        <time>2010-01-01T01:02:25Z</time>
      </trkpt>
      <trkpt lat="47.68688" lon="6.03637">
        <ele>191</ele>
        <time>2010-01-01T01:02:27Z</time>
      </trkpt>
      <trkpt lat="47.68693" lon="6.03637">
        <ele>191</ele>
        <time>2010-01-01T01:02:29Z</time>
      </trkpt>
      <trkpt lat="47.68697" lon="6.03637">
        <ele>191</ele>
        <time>2010-01-01T01:02:31Z</time>
      </trkpt>
      <trkpt lat="47.68702" lon="6.03637">
        <ele>191</ele>
        <time>2010-01-01T01:02:32Z</time>
      </trkpt>
      <trkpt lat="47.68706" lon="6.03638">
        <ele>191</ele>
        <time>2010-01-01T01:02:34Z</time>
      </trkpt>
      <trkpt lat="47.6871" lon="6.03639">
        <ele>191</ele>
        <time>2010-01-01T01:02:36Z</time>
      </trkpt>
      <trkpt lat="47.68714" lon="6.03639">
        <ele>191</ele>
        <time>2010-01-01T01:02:37Z</time>
      </trkpt>
      <trkpt lat="47.68719" lon="6.03641">
        <ele>191</ele>
        <time>2010-01-01T01:02:39Z</time>
      </trkpt>
      <trkpt lat="47.68723" lon="6.03642">
        <ele>191</ele>
        <time>2010-01-01T01:02:41Z</time>
      </trkpt>
      <trkpt lat="47.68728" lon="6.03643">
        <ele>191</ele>
        <time>2010-01-01T01:02:43Z</time>
      </trkpt>
      <trkpt lat="47.68732" lon="6.03644">
        <ele>191</ele>
        <time>2010-01-01T01:02:45Z</time>
      </trkpt>
      <trkpt lat="47.68737" lon="6.03645">
        <ele>191</ele>
        <time>2010-01-01T01:02:47Z</time>
      </trkpt>
      <trkpt lat="47.68741" lon="6.03645">
        <ele>191</ele>
        <time>2010-01-01T01:02:48Z</time>
      </trkpt>
      <trkpt lat="47.68745" lon="6.03646">
        <ele>191</ele>
        <time>2010-01-01T01:02:50Z</time>
      </trkpt>
      <trkpt lat="47.68749" lon="6.03646">
        <ele>191</ele>
        <time>2010-01-01T01:02:51Z</time>
      </trkpt>
      <trkpt lat="47.68753" lon="6.03647">
        <ele>191</ele>
        <time>2010-01-01T01:02:53Z</time>
      </trkpt>
      <trkpt lat="47.68757" lon="6.03648">
        <ele>191</ele>
        <time>2010-01-01T01:02:55Z</time>
      </trkpt>
      <trkpt lat="47.68762" lon="6.03649">
        <ele>191</ele>
        <time>2010-01-01T01:02:57Z</time>
      </trkpt>
      <trkpt lat="47.68767" lon="6.03649">
        <ele>191</ele>
        <time>2010-01-01T01:02:59Z</time>
      </trkpt>
      <trkpt lat="47.68771" lon="6.0365">
        <ele>191</ele>
        <time>2010-01-01T01:03:01Z</time>
      </trkpt>
      <trkpt lat="47.68776" lon="6.0365">
        <ele>191</ele>
        <time>2010-01-01T01:03:02Z</time>
      </trkpt>
      <trkpt lat="47.68781" lon="6.03651">
        <ele>191</ele>
        <time>2010-01-01T01:03:04Z</time>
      </trkpt>
      <trkpt lat="47.68786" lon="6.03651">
        <ele>191</ele>
        <time>2010-01-01T01:03:06Z</time>
      </trkpt>
      <trkpt lat="47.6879" lon="6.03651">
        <ele>191</ele>
        <time>2010-01-01T01:03:08Z</time>
      </trkpt>
      <trkpt lat="47.68794" lon="6.03651">
        <ele>191</ele>
        <time>2010-01-01T01:03:10Z</time>
      </trkpt>
      <trkpt lat="47.68798" lon="6.03652">
        <ele>191</ele>
        <time>2010-01-01T01:03:11Z</time>
      </trkpt>
      <trkpt lat="47.68803" lon="6.03652">
        <ele>191</ele>
        <time>2010-01-01T01:03:13Z</time>
      </trkpt>
      <trkpt lat="47.68807" lon="6.03652">
        <ele>191</ele>
        <time>2010-01-01T01:03:15Z</time>
      </trkpt>
      <trkpt lat="47.68812" lon="6.03652">
        <ele>191</ele>
        <time>2010-01-01T01:03:17Z</time>
      </trkpt>
      <trkpt lat="47.68816" lon="6.03653">
        <ele>191</ele>
        <time>2010-01-01T01:03:19Z</time>
      </trkpt>
      <trkpt lat="47.68821" lon="6.03653">
        <ele>191</ele>
        <time>2010-01-01T01:03:21Z</time>
      </trkpt>
      <trkpt lat="47.68826" lon="6.03653">
        <ele>191</ele>
        <time>2010-01-01T01:03:23Z</time>
      </trkpt>
      <trkpt lat="47.68831" lon="6.03653">
        <ele>191</ele>
        <time>2010-01-01T01:03:24Z</time>
      </trkpt>
      <trkpt lat="47.68836" lon="6.03653">
        <ele>191</ele>
        <time>2010-01-01T01:03:26Z</time>
      </trkpt>
      <trkpt lat="47.6884" lon="6.03654">
        <ele>191</ele>
        <time>2010-01-01T01:03:28Z</time>
      </trkpt>
      <trkpt lat="47.68845" lon="6.03654">
        <ele>191</ele>
        <time>2010-01-01T01:03:30Z</time>
      </trkpt>
      <trkpt lat="47.6885" lon="6.03653">
        <ele>191</ele>
        <time>2010-01-01T01:03:32Z</time>
      </trkpt>
      <trkpt lat="47.68855" lon="6.03653">
        <ele>191</ele>
        <time>2010-01-01T01:03:34Z</time>
      </trkpt>
      <trkpt lat="47.6886" lon="6.03653">
        <ele>191</ele>
        <time>2010-01-01T01:03:36Z</time>
      </trkpt>
      <trkpt lat="47.68864" lon="6.03653">
        <ele>191</ele>
        <time>2010-01-01T01:03:38Z</time>
      </trkpt>
      <trkpt lat="47.68869" lon="6.03653">
        <ele>191</ele>
        <time>2010-01-01T01:03:40Z</time>
      </trkpt>
      <trkpt lat="47.68874" lon="6.03653">
        <ele>191</ele>
        <time>2010-01-01T01:03:41Z</time>
      </trkpt>
      <trkpt lat="47.68878" lon="6.03653">
        <ele>191</ele>
        <time>2010-01-01T01:03:43Z</time>
      </trkpt>
      <trkpt lat="47.68883" lon="6.03654">
        <ele>191</ele>
        <time>2010-01-01T01:03:45Z</time>
      </trkpt>
      <trkpt lat="47.68887" lon="6.03655">
        <ele>191</ele>
        <time>2010-01-01T01:03:47Z</time>
      </trkpt>
      <trkpt lat="47.68892" lon="6.03655">
        <ele>191</ele>
        <time>2010-01-01T01:03:49Z</time>
      </trkpt>
      <trkpt lat="47.68897" lon="6.03656">
        <ele>191</ele>
        <time>2010-01-01T01:03:51Z</time>
      </trkpt>
      <trkpt lat="47.68901" lon="6.03657">
        <ele>191</ele>
        <time>2010-01-01T01:03:53Z</time>
      </trkpt>
      <trkpt lat="47.68906" lon="6.03658">
        <ele>191</ele>
        <time>2010-01-01T01:03:54Z</time>
      </trkpt>
      <trkpt lat="47.6891" lon="6.0366">
        <ele>191</ele>
        <time>2010-01-01T01:03:56Z</time>
      </trkpt>
      <trkpt lat="47.68915" lon="6.03662">
        <ele>191</ele>
        <time>2010-01-01T01:03:58Z</time>
      </trkpt>
      <trkpt lat="47.68919" lon="6.03664">
        <ele>191</ele>
        <time>2010-01-01T01:04:00Z</time>
      </trkpt>
      <trkpt lat="47.68924" lon="6.03666">
        <ele>191</ele>
        <time>2010-01-01T01:04:02Z</time>
      </trkpt>
      <trkpt lat="47.68929" lon="6.03668">
        <ele>191</ele>
        <time>2010-01-01T01:04:04Z</time>
      </trkpt>
      <trkpt lat="47.68933" lon="6.0367">
        <ele>191</ele>
        <time>2010-01-01T01:04:06Z</time>
      </trkpt>
      <trkpt lat="47.68938" lon="6.03672">
        <ele>191</ele>
        <time>2010-01-01T01:04:08Z</time>
      </trkpt>
      <trkpt lat="47.68942" lon="6.03674">
        <ele>191</ele>
        <time>2010-01-01T01:04:10Z</time>
      </trkpt>
      <trkpt lat="47.68947" lon="6.03677">
        <ele>191</ele>
        <time>2010-01-01T01:04:12Z</time>
      </trkpt>
      <trkpt lat="47.68952" lon="6.03679">
        <ele>191</ele>
        <time>2010-01-01T01:04:14Z</time>
      </trkpt>
      <trkpt lat="47.68956" lon="6.03682">
        <ele>191</ele>
        <time>2010-01-01T01:04:16Z</time>
      </trkpt>
      <trkpt lat="47.6896" lon="6.03685">
        <ele>191</ele>
        <time>2010-01-01T01:04:17Z</time>
      </trkpt>
      <trkpt lat="47.68964" lon="6.03688">
        <ele>191</ele>
        <time>2010-01-01T01:04:19Z</time>
      </trkpt>
      <trkpt lat="47.68968" lon="6.03691">
        <ele>191</ele>
        <time>2010-01-01T01:04:21Z</time>
      </trkpt>
      <trkpt lat="47.68972" lon="6.03694">
        <ele>191</ele>
        <time>2010-01-01T01:04:23Z</time>
      </trkpt>
      <trkpt lat="47.68976" lon="6.03698">
        <ele>191</ele>
        <time>2010-01-01T01:04:25Z</time>
      </trkpt>
      <trkpt lat="47.68981" lon="6.03701">
        <ele>191</ele>
        <time>2010-01-01T01:04:27Z</time>
      </trkpt>
      <trkpt lat="47.68985" lon="6.03704">
        <ele>191</ele>
        <time>2010-01-01T01:04:29Z</time>
      </trkpt>
      <trkpt lat="47.68989" lon="6.03707">
        <ele>191</ele>
        <time>2010-01-01T01:04:30Z</time>
      </trkpt>
      <trkpt lat="47.68993" lon="6.0371">
        <ele>191</ele>
        <time>2010-01-01T01:04:32Z</time>
      </trkpt>
      <trkpt lat="47.68997" lon="6.03714">
        <ele>191</ele>
        <time>2010-01-01T01:04:34Z</time>
      </trkpt>
      <trkpt lat="47.69001" lon="6.03716">
        <ele>191</ele>
        <time>2010-01-01T01:04:36Z</time>
      </trkpt>
      <trkpt lat="47.69005" lon="6.0372">
        <ele>191</ele>
        <time>2010-01-01T01:04:38Z</time>
      </trkpt>
      <trkpt lat="47.69009" lon="6.03723">
        <ele>191</ele>
        <time>2010-01-01T01:04:39Z</time>
      </trkpt>
      <trkpt lat="47.69012" lon="6.03725">
        <ele>191</ele>
        <time>2010-01-01T01:04:41Z</time>
      </trkpt>
      <trkpt lat="47.69017" lon="6.03728">
        <ele>191</ele>
        <time>2010-01-01T01:04:43Z</time>
      </trkpt>
      <trkpt lat="47.69021" lon="6.03731">
        <ele>191</ele>
        <time>2010-01-01T01:04:45Z</time>
      </trkpt>
      <trkpt lat="47.69025" lon="6.03733">
        <ele>191</ele>
        <time>2010-01-01T01:04:46Z</time>
      </trkpt>
      <trkpt lat="47.69029" lon="6.03736">
        <ele>191</ele>
        <time>2010-01-01T01:04:48Z</time>
      </trkpt>
      <trkpt lat="47.69033" lon="6.0374">
        <ele>191</ele>
        <time>2010-01-01T01:04:50Z</time>
      </trkpt>
      <trkpt lat="47.69037" lon="6.03743">
        <ele>191</ele>
        <time>2010-01-01T01:04:52Z</time>
      </trkpt>
      <trkpt lat="47.69041" lon="6.03746">
        <ele>191</ele>
        <time>2010-01-01T01:04:54Z</time>
      </trkpt>
      <trkpt lat="47.69045" lon="6.03749">
        <ele>191</ele>
        <time>2010-01-01T01:04:55Z</time>
      </trkpt>
      <trkpt lat="47.69049" lon="6.03752">
        <ele>191</ele>
        <time>2010-01-01T01:04:57Z</time>
      </trkpt>
      <trkpt lat="47.69053" lon="6.03755">
        <ele>191</ele>
        <time>2010-01-01T01:04:59Z</time>
      </trkpt>
      <trkpt lat="47.69057" lon="6.03758">
        <ele>191</ele>
        <time>2010-01-01T01:05:01Z</time>
      </trkpt>
      <trkpt lat="47.69061" lon="6.03761">
        <ele>191</ele>
        <time>2010-01-01T01:05:03Z</time>
      </trkpt>
      <trkpt lat="47.69065" lon="6.03765">
        <ele>191</ele>
        <time>2010-01-01T01:05:04Z</time>
      </trkpt>
      <trkpt lat="47.69068" lon="6.03768">
        <ele>191</ele>
        <time>2010-01-01T01:05:06Z</time>
      </trkpt>
      <trkpt lat="47.69072" lon="6.03771">
        <ele>191</ele>
        <time>2010-01-01T01:05:08Z</time>
      </trkpt>
      <trkpt lat="47.69075" lon="6.03773">
        <ele>191</ele>
        <time>2010-01-01T01:05:09Z</time>
      </trkpt>
      <trkpt lat="47.69078" lon="6.03775">
        <ele>191</ele>
        <time>2010-01-01T01:05:11Z</time>
      </trkpt>
      <trkpt lat="47.69081" lon="6.03776">
        <ele>191</ele>
        <time>2010-01-01T01:05:12Z</time>
      </trkpt>
      <trkpt lat="47.69083" lon="6.03778">
        <ele>191</ele>
        <time>2010-01-01T01:05:13Z</time>
      </trkpt>
      <trkpt lat="47.69085" lon="6.0378">
        <ele>191</ele>
        <time>2010-01-01T01:05:14Z</time>
      </trkpt>
      <trkpt lat="47.69087" lon="6.03781">
        <ele>191</ele>
        <time>2010-01-01T01:05:15Z</time>
      </trkpt>
      <trkpt lat="47.69089" lon="6.03783">
        <ele>191</ele>
        <time>2010-01-01T01:05:15Z</time>
      </trkpt>
      <trkpt lat="47.69091" lon="6.03784">
        <ele>191</ele>
        <time>2010-01-01T01:05:16Z</time>
      </trkpt>
      <trkpt lat="47.69092" lon="6.03784">
        <ele>191</ele>
        <time>2010-01-01T01:05:17Z</time>
      </trkpt>
      <trkpt lat="47.69093" lon="6.03785">
        <ele>192</ele>
        <time>2010-01-01T01:05:17Z</time>
      </trkpt>
      <trkpt lat="47.69093" lon="6.03785">
        <ele>192</ele>
        <time>2010-01-01T01:05:17Z</time>
      </trkpt>
      <trkpt lat="47.69094" lon="6.03786">
        <ele>193</ele>
        <time>2010-01-01T01:05:17Z</time>
      </trkpt>
      <trkpt lat="47.69095" lon="6.03787">
        <ele>193</ele>
        <time>2010-01-01T01:05:18Z</time>
      </trkpt>
      <trkpt lat="47.69097" lon="6.03788">
        <ele>193</ele>
        <time>2010-01-01T01:05:19Z</time>
      </trkpt>
      <trkpt lat="47.69099" lon="6.0379">
        <ele>193</ele>
        <time>2010-01-01T01:05:20Z</time>
      </trkpt>
      <trkpt lat="47.69101" lon="6.0379">
        <ele>193</ele>
        <time>2010-01-01T01:05:21Z</time>
      </trkpt>
      <trkpt lat="47.69103" lon="6.03789">
        <ele>193</ele>
        <time>2010-01-01T01:05:22Z</time>
      </trkpt>
      <trkpt lat="47.69105" lon="6.03787">
        <ele>193</ele>
        <time>2010-01-01T01:05:23Z</time>
      </trkpt>
      <trkpt lat="47.69108" lon="6.03784">
        <ele>193</ele>
        <time>2010-01-01T01:05:24Z</time>
      </trkpt>
      <trkpt lat="47.69109" lon="6.03779">
        <ele>193</ele>
        <time>2010-01-01T01:05:25Z</time>
      </trkpt>
      <trkpt lat="47.69111" lon="6.03775">
        <ele>193</ele>
        <time>2010-01-01T01:05:27Z</time>
      </trkpt>
      <trkpt lat="47.69112" lon="6.0377">
        <ele>193</ele>
        <time>2010-01-01T01:05:28Z</time>
      </trkpt>
      <trkpt lat="47.69114" lon="6.03767">
        <ele>193</ele>
        <time>2010-01-01T01:05:29Z</time>
      </trkpt>
      <trkpt lat="47.69116" lon="6.03764">
        <ele>193</ele>
        <time>2010-01-01T01:05:30Z</time>
      </trkpt>
      <trkpt lat="47.69117" lon="6.03763">
        <ele>193</ele>
        <time>2010-01-01T01:05:31Z</time>
      </trkpt>
      <trkpt lat="47.69117" lon="6.03762">
        <ele>193</ele>
        <time>2010-01-01T01:05:31Z</time>
      </trkpt>
      <trkpt lat="47.69118" lon="6.03761">
        <ele>193</ele>
        <time>2010-01-01T01:05:31Z</time>
      </trkpt>
      <trkpt lat="47.69118" lon="6.03761">
        <ele>193</ele>
        <time>2010-01-01T01:05:31Z</time>
      </trkpt>
      <trkpt lat="47.69117" lon="6.03761">
        <ele>193</ele>
        <time>2010-01-01T01:05:32Z</time>
      </trkpt>
      <trkpt lat="47.69118" lon="6.03759">
        <ele>193</ele>
        <time>2010-01-01T01:05:32Z</time>
      </trkpt>
      <trkpt lat="47.69118" lon="6.03757">
        <ele>193</ele>
        <time>2010-01-01T01:05:33Z</time>
      </trkpt>
      <trkpt lat="47.69118" lon="6.03755">
        <ele>193</ele>
        <time>2010-01-01T01:05:33Z</time>
      </trkpt>
      <trkpt lat="47.69119" lon="6.03753">
        <ele>193</ele>
        <time>2010-01-01T01:05:34Z</time>
      </trkpt>
      <trkpt lat="47.6912" lon="6.03751">
        <ele>193</ele>
        <time>2010-01-01T01:05:35Z</time>
      </trkpt>
      <trkpt lat="47.69121" lon="6.03747">
        <ele>193</ele>
        <time>2010-01-01T01:05:36Z</time>
      </trkpt>
      <trkpt lat="47.69122" lon="6.03743">
        <ele>193</ele>
        <time>2010-01-01T01:05:37Z</time>
      </trkpt>
      <trkpt lat="47.69123" lon="6.03739">
        <ele>193</ele>
        <time>2010-01-01T01:05:38Z</time>
      </trkpt>
      <trkpt lat="47.69123" lon="6.03735">
        <ele>193</ele>
        <time>2010-01-01T01:05:39Z</time>
      </trkpt>
      <trkpt lat="47.69124" lon="6.03731">
        <ele>193</ele>
        <time>2010-01-01T01:05:40Z</time>
      </trkpt>
      <trkpt lat="47.69125" lon="6.03727">
        <ele>193</ele>
        <time>2010-01-01T01:05:41Z</time>
      </trkpt>
      <trkpt lat="47.69127" lon="6.03723">
        <ele>193</ele>
        <time>2010-01-01T01:05:42Z</time>
      </trkpt>
      <trkpt lat="47.69128" lon="6.03719">
        <ele>193</ele>
        <time>2010-01-01T01:05:44Z</time>
      </trkpt>
      <trkpt lat="47.69129" lon="6.03715">
        <ele>193</ele>
        <time>2010-01-01T01:05:45Z</time>
      </trkpt>
      <trkpt lat="47.6913" lon="6.03711">
        <ele>193</ele>
        <time>2010-01-01T01:05:46Z</time>
      </trkpt>
      <trkpt lat="47.69131" lon="6.03707">
        <ele>193</ele>
        <time>2010-01-01T01:05:47Z</time>
      </trkpt>
      <trkpt lat="47.69132" lon="6.03702">
        <ele>193</ele>
        <time>2010-01-01T01:05:49Z</time>
      </trkpt>
      <trkpt lat="47.69133" lon="6.03697">
        <ele>193</ele>
        <time>2010-01-01T01:05:50Z</time>
      </trkpt>
      <trkpt lat="47.69135" lon="6.03692">
        <ele>193</ele>
        <time>2010-01-01T01:05:51Z</time>
      </trkpt>
      <trkpt lat="47.69136" lon="6.03688">
        <ele>193</ele>
        <time>2010-01-01T01:05:53Z</time>
      </trkpt>
      <trkpt lat="47.69136" lon="6.03683">
        <ele>193</ele>
        <time>2010-01-01T01:05:54Z</time>
      </trkpt>
      <trkpt lat="47.69137" lon="6.03678">
        <ele>193</ele>
        <time>2010-01-01T01:05:55Z</time>
      </trkpt>
      <trkpt lat="47.69138" lon="6.03674">
        <ele>193</ele>
        <time>2010-01-01T01:05:57Z</time>
      </trkpt>
      <trkpt lat="47.69139" lon="6.0367">
        <ele>193</ele>
        <time>2010-01-01T01:05:58Z</time>
      </trkpt>
      <trkpt lat="47.6914" lon="6.03666">
        <ele>193</ele>
        <time>2010-01-01T01:05:59Z</time>
      </trkpt>
      <trkpt lat="47.69141" lon="6.03662">
        <ele>193</ele>
        <time>2010-01-01T01:06:00Z</time>
      </trkpt>
      <trkpt lat="47.69142" lon="6.03657">
        <ele>193</ele>
        <time>2010-01-01T01:06:01Z</time>
      </trkpt>
      <trkpt lat="47.69143" lon="6.03653">
        <ele>193</ele>
        <time>2010-01-01T01:06:03Z</time>
      </trkpt>
      <trkpt lat="47.69144" lon="6.03649">
        <ele>193</ele>
        <time>2010-01-01T01:06:04Z</time>
      </trkpt>
      <trkpt lat="47.69146" lon="6.03647">
        <ele>194</ele>
        <time>2010-01-01T01:06:05Z</time>
      </trkpt>
      <trkpt lat="47.69148" lon="6.03645">
        <ele>194</ele>
        <time>2010-01-01T01:06:05Z</time>
      </trkpt>
      <trkpt lat="47.6915" lon="6.03645">
        <ele>195</ele>
        <time>2010-01-01T01:06:06Z</time>
      </trkpt>
      <trkpt lat="47.69151" lon="6.03645">
        <ele>195</ele>
        <time>2010-01-01T01:06:07Z</time>
      </trkpt>
      <trkpt lat="47.69153" lon="6.03646">
        <ele>195</ele>
        <time>2010-01-01T01:06:08Z</time>
      </trkpt>
      <trkpt lat="47.69155" lon="6.03647">
        <ele>195</ele>
        <time>2010-01-01T01:06:08Z</time>
      </trkpt>
      <trkpt lat="47.69156" lon="6.03648">
        <ele>195</ele>
        <time>2010-01-01T01:06:09Z</time>
      </trkpt>
      <trkpt lat="47.69158" lon="6.03648">
        <ele>195</ele>
        <time>2010-01-01T01:06:10Z</time>
      </trkpt>
      <trkpt lat="47.69159" lon="6.03649">
        <ele>196</ele>
        <time>2010-01-01T01:06:10Z</time>
      </trkpt>
      <trkpt lat="47.69161" lon="6.03651">
        <ele>196</ele>
        <time>2010-01-01T01:06:11Z</time>
      </trkpt>
      <trkpt lat="47.69162" lon="6.03653">
        <ele>197</ele>
        <time>2010-01-01T01:06:12Z</time>
      </trkpt>
      <trkpt lat="47.69163" lon="6.03655">
        <ele>197</ele>
        <time>2010-01-01T01:06:13Z</time>
      </trkpt>
      <trkpt lat="47.69165" lon="6.03656">
        <ele>198</ele>
        <time>2010-01-01T01:06:13Z</time>
      </trkpt>
      <trkpt lat="47.69166" lon="6.03657">
        <ele>198</ele>
        <time>2010-01-01T01:06:14Z</time>
      </trkpt>
      <trkpt lat="47.69168" lon="6.03658">
        <ele>198</ele>
        <time>2010-01-01T01:06:15Z</time>
      </trkpt>
      <trkpt lat="47.69169" lon="6.0366">
        <ele>198</ele>
        <time>2010-01-01T01:06:15Z</time>
      </trkpt>
      <trkpt lat="47.6917" lon="6.03662">
        <ele>198</ele>
        <time>2010-01-01T01:06:16Z</time>
      </trkpt>
      <trkpt lat="47.69171" lon="6.03663">
        <ele>198</ele>
        <time>2010-01-01T01:06:16Z</time>
      </trkpt>
      <trkpt lat="47.69172" lon="6.03664">
        <ele>198</ele>
        <time>2010-01-01T01:06:17Z</time>
      </trkpt>
      <trkpt lat="47.69173" lon="6.03666">
        <ele>199</ele>
        <time>2010-01-01T01:06:18Z</time>
      </trkpt>
      <trkpt lat="47.69174" lon="6.03666">
        <ele>199</ele>
        <time>2010-01-01T01:06:18Z</time>
      </trkpt>
      <trkpt lat="47.69175" lon="6.03667">
        <ele>200</ele>
        <time>2010-01-01T01:06:18Z</time>
      </trkpt>
      <trkpt lat="47.69176" lon="6.03668">
        <ele>200</ele>
        <time>2010-01-01T01:06:19Z</time>
      </trkpt>
      <trkpt lat="47.69177" lon="6.03668">
        <ele>200</ele>
        <time>2010-01-01T01:06:19Z</time>
      </trkpt>
      <trkpt lat="47.69178" lon="6.03669">
        <ele>200</ele>
        <time>2010-01-01T01:06:20Z</time>
      </trkpt>
      <trkpt lat="47.69179" lon="6.0367">
        <ele>200</ele>
        <time>2010-01-01T01:06:20Z</time>
      </trkpt>
      <trkpt lat="47.6918" lon="6.0367">
        <ele>200</ele>
        <time>2010-01-01T01:06:21Z</time>
      </trkpt>
      <trkpt lat="47.69181" lon="6.03671">
        <ele>200</ele>
        <time>2010-01-01T01:06:21Z</time>
      </trkpt>
      <trkpt lat="47.69183" lon="6.0367">
        <ele>200</ele>
        <time>2010-01-01T01:06:22Z</time>
      </trkpt>
      <trkpt lat="47.69185" lon="6.0367">
        <ele>200</ele>
        <time>2010-01-01T01:06:23Z</time>
      </trkpt>
      <trkpt lat="47.69186" lon="6.03668">
        <ele>200</ele>
        <time>2010-01-01T01:06:23Z</time>
      </trkpt>
      <trkpt lat="47.69187" lon="6.03667">
        <ele>200</ele>
        <time>2010-01-01T01:06:24Z</time>
      </trkpt>
      <trkpt lat="47.69188" lon="6.03666">
        <ele>201</ele>
        <time>2010-01-01T01:06:24Z</time>
      </trkpt>
      <trkpt lat="47.6919" lon="6.03665">
        <ele>201</ele>
        <time>2010-01-01T01:06:25Z</time>
      </trkpt>
      <trkpt lat="47.69192" lon="6.03663">
        <ele>202</ele>
        <time>2010-01-01T01:06:26Z</time>
      </trkpt>
      <trkpt lat="47.69193" lon="6.03662">
        <ele>202</ele>
        <time>2010-01-01T01:06:27Z</time>
      </trkpt>
      <trkpt lat="47.69195" lon="6.0366">
        <ele>202</ele>
        <time>2010-01-01T01:06:27Z</time>
      </trkpt>
      <trkpt lat="47.69196" lon="6.03659">
        <ele>202</ele>
        <time>2010-01-01T01:06:28Z</time>
      </trkpt>
      <trkpt lat="47.69197" lon="6.03658">
        <ele>202</ele>
        <time>2010-01-01T01:06:28Z</time>
      </trkpt>
      <trkpt lat="47.69198" lon="6.03657">
        <ele>202</ele>
        <time>2010-01-01T01:06:29Z</time>
      </trkpt>
      <trkpt lat="47.692" lon="6.03655">
        <ele>202</ele>
        <time>2010-01-01T01:06:30Z</time>
      </trkpt>
      <trkpt lat="47.69201" lon="6.03654">
        <ele>202</ele>
        <time>2010-01-01T01:06:30Z</time>
      </trkpt>
      <trkpt lat="47.69203" lon="6.03653">
        <ele>202</ele>
        <time>2010-01-01T01:06:31Z</time>
      </trkpt>
      <trkpt lat="47.69204" lon="6.03651">
        <ele>203</ele>
        <time>2010-01-01T01:06:32Z</time>
      </trkpt>
      <trkpt lat="47.69206" lon="6.03649">
        <ele>203</ele>
        <time>2010-01-01T01:06:33Z</time>
      </trkpt>
      <trkpt lat="47.69207" lon="6.03648">
        <ele>204</ele>
        <time>2010-01-01T01:06:33Z</time>
      </trkpt>
      <trkpt lat="47.69209" lon="6.03647">
        <ele>204</ele>
        <time>2010-01-01T01:06:34Z</time>
      </trkpt>
      <trkpt lat="47.6921" lon="6.03646">
        <ele>204</ele>
        <time>2010-01-01T01:06:35Z</time>
      </trkpt>
      <trkpt lat="47.69212" lon="6.03645">
        <ele>204</ele>
        <time>2010-01-01T01:06:35Z</time>
      </trkpt>
      <trkpt lat="47.69213" lon="6.03644">
        <ele>204</ele>
        <time>2010-01-01T01:06:36Z</time>
      </trkpt>
      <trkpt lat="47.69214" lon="6.03643">
        <ele>204</ele>
        <time>2010-01-01T01:06:36Z</time>
      </trkpt>
      <trkpt lat="47.69215" lon="6.03643">
        <ele>204</ele>
        <time>2010-01-01T01:06:37Z</time>
      </trkpt>
      <trkpt lat="47.69216" lon="6.03642">
        <ele>204</ele>
        <time>2010-01-01T01:06:37Z</time>
      </trkpt>
      <trkpt lat="47.69217" lon="6.03642">
        <ele>204</ele>
        <time>2010-01-01T01:06:37Z</time>
      </trkpt>
      <trkpt lat="47.69217" lon="6.03641">
        <ele>205</ele>
        <time>2010-01-01T01:06:38Z</time>
      </trkpt>
      <trkpt lat="47.69218" lon="6.03641">
        <ele>205</ele>
        <time>2010-01-01T01:06:38Z</time>
      </trkpt>
      <trkpt lat="47.6922" lon="6.03641">
        <ele>206</ele>
        <time>2010-01-01T01:06:39Z</time>
      </trkpt>
      <trkpt lat="47.69222" lon="6.03642">
        <ele>206</ele>
        <time>2010-01-01T01:06:40Z</time>
      </trkpt>
      <trkpt lat="47.69224" lon="6.03642">
        <ele>206</ele>
        <time>2010-01-01T01:06:41Z</time>
      </trkpt>
      <trkpt lat="47.69226" lon="6.03642">
        <ele>206</ele>
        <time>2010-01-01T01:06:41Z</time>
      </trkpt>
      <trkpt lat="47.69228" lon="6.03642">
        <ele>206</ele>
        <time>2010-01-01T01:06:42Z</time>
      </trkpt>
      <trkpt lat="47.69231" lon="6.03642">
        <ele>206</ele>
        <time>2010-01-01T01:06:43Z</time>
      </trkpt>
      <trkpt lat="47.69233" lon="6.03641">
        <ele>206</ele>
        <time>2010-01-01T01:06:44Z</time>
      </trkpt>
      <trkpt lat="47.69235" lon="6.03641">
        <ele>206</ele>
        <time>2010-01-01T01:06:45Z</time>
      </trkpt>
      <trkpt lat="47.69238" lon="6.03641">
        <ele>206</ele>
        <time>2010-01-01T01:06:46Z</time>
      </trkpt>
      <trkpt lat="47.6924" lon="6.03641">
        <ele>206</ele>
        <time>2010-01-01T01:06:47Z</time>
      </trkpt>
      <trkpt lat="47.69242" lon="6.03641">
        <ele>207</ele>
        <time>2010-01-01T01:06:48Z</time>
      </trkpt>
      <trkpt lat="47.69244" lon="6.03642">
        <ele>207</ele>
        <time>2010-01-01T01:06:49Z</time>
      </trkpt>
      <trkpt lat="47.69246" lon="6.03642">
        <ele>208</ele>
        <time>2010-01-01T01:06:49Z</time>
      </trkpt>
      <trkpt lat="47.69248" lon="6.03641">
        <ele>208</ele>
        <time>2010-01-01T01:06:50Z</time>
      </trkpt>
      <trkpt lat="47.69251" lon="6.03641">
        <ele>208</ele>
        <time>2010-01-01T01:06:51Z</time>
      </trkpt>
      <trkpt lat="47.69253" lon="6.0364">
        <ele>208</ele>
        <time>2010-01-01T01:06:52Z</time>
      </trkpt>
      <trkpt lat="47.69255" lon="6.0364">
        <ele>208</ele>
        <time>2010-01-01T01:06:53Z</time>
      </trkpt>
      <trkpt lat="47.69257" lon="6.03639">
        <ele>208</ele>
        <time>2010-01-01T01:06:54Z</time>
      </trkpt>
      <trkpt lat="47.69259" lon="6.03637">
        <ele>208</ele>
        <time>2010-01-01T01:06:55Z</time>
      </trkpt>
      <trkpt lat="47.69261" lon="6.03636">
        <ele>208</ele>
        <time>2010-01-01T01:06:56Z</time>
      </trkpt>
      <trkpt lat="47.69263" lon="6.03635">
        <ele>208</ele>
        <time>2010-01-01T01:06:56Z</time>
      </trkpt>
      <trkpt lat="47.69264" lon="6.03633">
        <ele>208</ele>
        <time>2010-01-01T01:06:57Z</time>
      </trkpt>
      <trkpt lat="47.69266" lon="6.03632">
        <ele>208</ele>
        <time>2010-01-01T01:06:58Z</time>
      </trkpt>
      <trkpt lat="47.69268" lon="6.0363">
        <ele>208</ele>
        <time>2010-01-01T01:06:59Z</time>
      </trkpt>
      <trkpt lat="47.69269" lon="6.03628">
        <ele>208</ele>
        <time>2010-01-01T01:07:00Z</time>
      </trkpt>
      <trkpt lat="47.69271" lon="6.03627">
        <ele>208</ele>
        <time>2010-01-01T01:07:00Z</time>
      </trkpt>
      <trkpt lat="47.69273" lon="6.03626">
        <ele>208</ele>
        <time>2010-01-01T01:07:01Z</time>
      </trkpt>
      <trkpt lat="47.69275" lon="6.03624">
        <ele>208</ele>
        <time>2010-01-01T01:07:02Z</time>
      </trkpt>
      <trkpt lat="47.69277" lon="6.03622">
        <ele>209</ele>
        <time>2010-01-01T01:07:03Z</time>
      </trkpt>
      <trkpt lat="47.69278" lon="6.03621">
        <ele>209</ele>
        <time>2010-01-01T01:07:04Z</time>
      </trkpt>
      <trkpt lat="47.6928" lon="6.03619">
        <ele>209</ele>
        <time>2010-01-01T01:07:05Z</time>
      </trkpt>
      <trkpt lat="47.69282" lon="6.03617">
        <ele>210</ele>
        <time>2010-01-01T01:07:05Z</time>
      </trkpt>
      <trkpt lat="47.69284" lon="6.03616">
        <ele>210</ele>
        <time>2010-01-01T01:07:06Z</time>
      </trkpt>
      <trkpt lat="47.69285" lon="6.03614">
        <ele>210</ele>
        <time>2010-01-01T01:07:07Z</time>
      </trkpt>
      <trkpt lat="47.69287" lon="6.03613">
        <ele>210</ele>
        <time>2010-01-01T01:07:08Z</time>
      </trkpt>
      <trkpt lat="47.69288" lon="6.03612">
        <ele>210</ele>
        <time>2010-01-01T01:07:08Z</time>
      </trkpt>
      <trkpt lat="47.6929" lon="6.03611">
        <ele>210</ele>
        <time>2010-01-01T01:07:09Z</time>
      </trkpt>
      <trkpt lat="47.69292" lon="6.03609">
        <ele>210</ele>
        <time>2010-01-01T01:07:10Z</time>
      </trkpt>
      <trkpt lat="47.69293" lon="6.03607">
        <ele>210</ele>
        <time>2010-01-01T01:07:11Z</time>
      </trkpt>
      <trkpt lat="47.69295" lon="6.03605">
        <ele>210</ele>
        <time>2010-01-01T01:07:12Z</time>
      </trkpt>
      <trkpt lat="47.69297" lon="6.03603">
        <ele>210</ele>
        <time>2010-01-01T01:07:13Z</time>
      </trkpt>
      <trkpt lat="47.69298" lon="6.03601">
        <ele>210</ele>
        <time>2010-01-01T01:07:13Z</time>
      </trkpt>
      <trkpt lat="47.693" lon="6.03598">
        <ele>210</ele>
        <time>2010-01-01T01:07:14Z</time>
      </trkpt>
      <trkpt lat="47.69301" lon="6.03596">
        <ele>210</ele>
        <time>2010-01-01T01:07:15Z</time>
      </trkpt>
      <trkpt lat="47.69303" lon="6.03594">
        <ele>210</ele>
        <time>2010-01-01T01:07:16Z</time>
      </trkpt>
      <trkpt lat="47.69304" lon="6.03591">
        <ele>210</ele>
        <time>2010-01-01T01:07:17Z</time>
      </trkpt>
      <trkpt lat="47.69305" lon="6.03589">
        <ele>210</ele>
        <time>2010-01-01T01:07:18Z</time>
      </trkpt>
      <trkpt lat="47.69306" lon="6.03587">
        <ele>210</ele>
        <time>2010-01-01T01:07:18Z</time>
      </trkpt>
      <trkpt lat="47.69308" lon="6.03584">
        <ele>210</ele>
        <time>2010-01-01T01:07:19Z</time>
      </trkpt>
      <trkpt lat="47.69309" lon="6.03582">
        <ele>211</ele>
        <time>2010-01-01T01:07:20Z</time>
      </trkpt>
      <trkpt lat="47.69311" lon="6.0358">
        <ele>211</ele>
        <time>2010-01-01T01:07:21Z</time>
      </trkpt>
      <trkpt lat="47.69312" lon="6.03578">
        <ele>211</ele>
        <time>2010-01-01T01:07:22Z</time>
      </trkpt>
      <trkpt lat="47.69314" lon="6.03577">
        <ele>212</ele>
        <time>2010-01-01T01:07:22Z</time>
      </trkpt>
      <trkpt lat="47.69316" lon="6.03575">
        <ele>212</ele>
        <time>2010-01-01T01:07:23Z</time>
      </trkpt>
      <trkpt lat="47.69317" lon="6.03574">
        <ele>212</ele>
        <time>2010-01-01T01:07:24Z</time>
      </trkpt>
      <trkpt lat="47.69319" lon="6.03573">
        <ele>212</ele>
        <time>2010-01-01T01:07:25Z</time>
      </trkpt>
      <trkpt lat="47.6932" lon="6.03572">
        <ele>212</ele>
        <time>2010-01-01T01:07:25Z</time>
      </trkpt>
      <trkpt lat="47.69322" lon="6.03571">
        <ele>212</ele>
        <time>2010-01-01T01:07:26Z</time>
      </trkpt>
      <trkpt lat="47.69324" lon="6.0357">
        <ele>212</ele>
        <time>2010-01-01T01:07:27Z</time>
      </trkpt>
      <trkpt lat="47.69325" lon="6.03568">
        <ele>212</ele>
        <time>2010-01-01T01:07:28Z</time>
      </trkpt>
      <trkpt lat="47.69327" lon="6.03568">
        <ele>212</ele>
        <time>2010-01-01T01:07:28Z</time>
      </trkpt>
      <trkpt lat="47.69329" lon="6.03568">
        <ele>212</ele>
        <time>2010-01-01T01:07:29Z</time>
      </trkpt>
      <trkpt lat="47.69331" lon="6.03567">
        <ele>212</ele>
        <time>2010-01-01T01:07:30Z</time>
      </trkpt>
      <trkpt lat="47.69333" lon="6.03565">
        <ele>212</ele>
        <time>2010-01-01T01:07:31Z</time>
      </trkpt>
      <trkpt lat="47.69335" lon="6.03564">
        <ele>212</ele>
        <time>2010-01-01T01:07:31Z</time>
      </trkpt>
      <trkpt lat="47.69337" lon="6.03563">
        <ele>212</ele>
        <time>2010-01-01T01:07:32Z</time>
      </trkpt>
      <trkpt lat="47.69339" lon="6.03562">
        <ele>212</ele>
        <time>2010-01-01T01:07:33Z</time>
      </trkpt>
      <trkpt lat="47.69341" lon="6.03561">
        <ele>212</ele>
        <time>2010-01-01T01:07:34Z</time>
      </trkpt>
      <trkpt lat="47.69343" lon="6.03561">
        <ele>212</ele>
        <time>2010-01-01T01:07:35Z</time>
      </trkpt>
      <trkpt lat="47.69344" lon="6.0356">
        <ele>213</ele>
        <time>2010-01-01T01:07:35Z</time>
      </trkpt>
      <trkpt lat="47.69346" lon="6.03559">
        <ele>213</ele>
        <time>2010-01-01T01:07:36Z</time>
      </trkpt>
      <trkpt lat="47.69348" lon="6.03558">
        <ele>214</ele>
        <time>2010-01-01T01:07:37Z</time>
      </trkpt>
      <trkpt lat="47.69349" lon="6.03558">
        <ele>214</ele>
        <time>2010-01-01T01:07:37Z</time>
      </trkpt>
      <trkpt lat="47.69351" lon="6.03557">
        <ele>214</ele>
        <time>2010-01-01T01:07:38Z</time>
      </trkpt>
      <trkpt lat="47.69352" lon="6.03556">
        <ele>214</ele>
        <time>2010-01-01T01:07:39Z</time>
      </trkpt>
      <trkpt lat="47.69354" lon="6.03555">
        <ele>214</ele>
        <time>2010-01-01T01:07:40Z</time>
      </trkpt>
      <trkpt lat="47.69356" lon="6.03554">
        <ele>214</ele>
        <time>2010-01-01T01:07:40Z</time>
      </trkpt>
      <trkpt lat="47.69358" lon="6.03554">
        <ele>214</ele>
        <time>2010-01-01T01:07:41Z</time>
      </trkpt>
      <trkpt lat="47.6936" lon="6.03553">
        <ele>214</ele>
        <time>2010-01-01T01:07:42Z</time>
      </trkpt>
      <trkpt lat="47.69362" lon="6.03552">
        <ele>214</ele>
        <time>2010-01-01T01:07:43Z</time>
      </trkpt>
      <trkpt lat="47.69364" lon="6.03551">
        <ele>214</ele>
        <time>2010-01-01T01:07:44Z</time>
      </trkpt>
      <trkpt lat="47.69366" lon="6.03549">
        <ele>214</ele>
        <time>2010-01-01T01:07:45Z</time>
      </trkpt>
      <trkpt lat="47.69368" lon="6.03548">
        <ele>214</ele>
        <time>2010-01-01T01:07:45Z</time>
      </trkpt>
      <trkpt lat="47.6937" lon="6.03547">
        <ele>215</ele>
        <time>2010-01-01T01:07:46Z</time>
      </trkpt>
      <trkpt lat="47.69372" lon="6.03545">
        <ele>215</ele>
        <time>2010-01-01T01:07:47Z</time>
      </trkpt>
      <trkpt lat="47.69373" lon="6.03543">
        <ele>216</ele>
        <time>2010-01-01T01:07:48Z</time>
      </trkpt>
      <trkpt lat="47.69375" lon="6.03541">
        <ele>216</ele>
        <time>2010-01-01T01:07:49Z</time>
      </trkpt>
      <trkpt lat="47.69376" lon="6.0354">
        <ele>216</ele>
        <time>2010-01-01T01:07:50Z</time>
      </trkpt>
      <trkpt lat="47.69378" lon="6.03538">
        <ele>216</ele>
        <time>2010-01-01T01:07:50Z</time>
      </trkpt>
      <trkpt lat="47.6938" lon="6.03537">
        <ele>216</ele>
        <time>2010-01-01T01:07:51Z</time>
      </trkpt>
      <trkpt lat="47.69382" lon="6.03536">
        <ele>216</ele>
        <time>2010-01-01T01:07:52Z</time>
      </trkpt>
      <trkpt lat="47.69384" lon="6.03534">
        <ele>216</ele>
        <time>2010-01-01T01:07:53Z</time>
      </trkpt>
      <trkpt lat="47.69385" lon="6.03532">
        <ele>216</ele>
        <time>2010-01-01T01:07:54Z</time>
      </trkpt>
      <trkpt lat="47.69387" lon="6.03531">
        <ele>216</ele>
        <time>2010-01-01T01:07:54Z</time>
      </trkpt>
      <trkpt lat="47.69389" lon="6.0353">
        <ele>216</ele>
        <time>2010-01-01T01:07:55Z</time>
      </trkpt>
      <trkpt lat="47.6939" lon="6.03528">
        <ele>216</ele>
        <time>2010-01-01T01:07:56Z</time>
      </trkpt>
      <trkpt lat="47.69392" lon="6.03527">
        <ele>216</ele>
        <time>2010-01-01T01:07:57Z</time>
      </trkpt>
      <trkpt lat="47.69394" lon="6.03525">
        <ele>216</ele>
        <time>2010-01-01T01:07:58Z</time>
      </trkpt>
      <trkpt lat="47.69396" lon="6.03523">
        <ele>216</ele>
        <time>2010-01-01T01:07:59Z</time>
      </trkpt>
      <trkpt lat="47.69398" lon="6.03521">
        <ele>217</ele>
        <time>2010-01-01T01:08:00Z</time>
      </trkpt>
      <trkpt lat="47.694" lon="6.03519">
        <ele>217</ele>
        <time>2010-01-01T01:08:00Z</time>
      </trkpt>
      <trkpt lat="47.69402" lon="6.03517">
        <ele>218</ele>
        <time>2010-01-01T01:08:01Z</time>
      </trkpt>
      <trkpt lat="47.69404" lon="6.03516">
        <ele>218</ele>
        <time>2010-01-01T01:08:02Z</time>
      </trkpt>
      <trkpt lat="47.69406" lon="6.03515">
        <ele>218</ele>
        <time>2010-01-01T01:08:03Z</time>
      </trkpt>
      <trkpt lat="47.69407" lon="6.03514">
        <ele>218</ele>
        <time>2010-01-01T01:08:04Z</time>
      </trkpt>
      <trkpt lat="47.69409" lon="6.03512">
        <ele>218</ele>
        <time>2010-01-01T01:08:05Z</time>
      </trkpt>
      <trkpt lat="47.69411" lon="6.0351">
        <ele>218</ele>
        <time>2010-01-01T01:08:05Z</time>
      </trkpt>
      <trkpt lat="47.69413" lon="6.03509">
        <ele>218</ele>
        <time>2010-01-01T01:08:06Z</time>
      </trkpt>
      <trkpt lat="47.69414" lon="6.03507">
        <ele>218</ele>
        <time>2010-01-01T01:08:07Z</time>
      </trkpt>
      <trkpt lat="47.69416" lon="6.03505">
        <ele>218</ele>
        <time>2010-01-01T01:08:08Z</time>
      </trkpt>
      <trkpt lat="47.69417" lon="6.03503">
        <ele>218</ele>
        <time>2010-01-01T01:08:09Z</time>
      </trkpt>
      <trkpt lat="47.69419" lon="6.03502">
        <ele>218</ele>
        <time>2010-01-01T01:08:10Z</time>
      </trkpt>
      <trkpt lat="47.69421" lon="6.03501">
        <ele>218</ele>
        <time>2010-01-01T01:08:10Z</time>
      </trkpt>
      <trkpt lat="47.69423" lon="6.03499">
        <ele>218</ele>
        <time>2010-01-01T01:08:11Z</time>
      </trkpt>
      <trkpt lat="47.69424" lon="6.03497">
        <ele>218</ele>
        <time>2010-01-01T01:08:12Z</time>
      </trkpt>
      <trkpt lat="47.69426" lon="6.03495">
        <ele>218</ele>
        <time>2010-01-01T01:08:13Z</time>
      </trkpt>
      <trkpt lat="47.69428" lon="6.03494">
        <ele>219</ele>
        <time>2010-01-01T01:08:14Z</time>
      </trkpt>
      <trkpt lat="47.6943" lon="6.03493">
        <ele>219</ele>
        <time>2010-01-01T01:08:14Z</time>
      </trkpt>
      <trkpt lat="47.69431" lon="6.03491">
        <ele>220</ele>
        <time>2010-01-01T01:08:15Z</time>
      </trkpt>
      <trkpt lat="47.69433" lon="6.0349">
        <ele>220</ele>
        <time>2010-01-01T01:08:16Z</time>
      </trkpt>
      <trkpt lat="47.69435" lon="6.03488">
        <ele>221</ele>
        <time>2010-01-01T01:08:17Z</time>
      </trkpt>
      <trkpt lat="47.69436" lon="6.03487">
        <ele>221</ele>
        <time>2010-01-01T01:08:18Z</time>
      </trkpt>
      <trkpt lat="47.69438" lon="6.03485">
        <ele>221</ele>
        <time>2010-01-01T01:08:18Z</time>
      </trkpt>
      <trkpt lat="47.6944" lon="6.03483">
        <ele>221</ele>
        <time>2010-01-01T01:08:19Z</time>
      </trkpt>
      <trkpt lat="47.69441" lon="6.03482">
        <ele>221</ele>
        <time>2010-01-01T01:08:20Z</time>
      </trkpt>
      <trkpt lat="47.69443" lon="6.0348">
        <ele>221</ele>
        <time>2010-01-01T01:08:21Z</time>
      </trkpt>
      <trkpt lat="47.69444" lon="6.03478">
        <ele>221</ele>
        <time>2010-01-01T01:08:22Z</time>
      </trkpt>
      <trkpt lat="47.69446" lon="6.03477">
        <ele>221</ele>
        <time>2010-01-01T01:08:22Z</time>
      </trkpt>
      <trkpt lat="47.69448" lon="6.03475">
        <ele>221</ele>
        <time>2010-01-01T01:08:23Z</time>
      </trkpt>
      <trkpt lat="47.69449" lon="6.03472">
        <ele>221</ele>
        <time>2010-01-01T01:08:24Z</time>
      </trkpt>
      <trkpt lat="47.69451" lon="6.03471">
        <ele>221</ele>
        <time>2010-01-01T01:08:25Z</time>
      </trkpt>
      <trkpt lat="47.69453" lon="6.03469">
        <ele>221</ele>
        <time>2010-01-01T01:08:26Z</time>
      </trkpt>
      <trkpt lat="47.69454" lon="6.03468">
        <ele>221</ele>
        <time>2010-01-01T01:08:26Z</time>
      </trkpt>
      <trkpt lat="47.69456" lon="6.03466">
        <ele>222</ele>
        <time>2010-01-01T01:08:27Z</time>
      </trkpt>
      <trkpt lat="47.69458" lon="6.03463">
        <ele>222</ele>
        <time>2010-01-01T01:08:28Z</time>
      </trkpt>
      <trkpt lat="47.69459" lon="6.03461">
        <ele>223</ele>
        <time>2010-01-01T01:08:29Z</time>
      </trkpt>
      <trkpt lat="47.6946" lon="6.03459">
        <ele>223</ele>
        <time>2010-01-01T01:08:30Z</time>
      </trkpt>
      <trkpt lat="47.69462" lon="6.03457">
        <ele>223</ele>
        <time>2010-01-01T01:08:31Z</time>
      </trkpt>
      <trkpt lat="47.69463" lon="6.03455">
        <ele>223</ele>
        <time>2010-01-01T01:08:31Z</time>
      </trkpt>
      <trkpt lat="47.69464" lon="6.03453">
        <ele>223</ele>
        <time>2010-01-01T01:08:32Z</time>
      </trkpt>
      <trkpt lat="47.69466" lon="6.03451">
        <ele>223</ele>
        <time>2010-01-01T01:08:33Z</time>
      </trkpt>
      <trkpt lat="47.69467" lon="6.03449">
        <ele>223</ele>
        <time>2010-01-01T01:08:34Z</time>
      </trkpt>
      <trkpt lat="47.69469" lon="6.03447">
        <ele>223</ele>
        <time>2010-01-01T01:08:35Z</time>
      </trkpt>
      <trkpt lat="47.6947" lon="6.03445">
        <ele>223</ele>
        <time>2010-01-01T01:08:35Z</time>
      </trkpt>
      <trkpt lat="47.69472" lon="6.03442">
        <ele>223</ele>
        <time>2010-01-01T01:08:36Z</time>
      </trkpt>
      <trkpt lat="47.69474" lon="6.0344">
        <ele>223</ele>
        <time>2010-01-01T01:08:37Z</time>
      </trkpt>
      <trkpt lat="47.69475" lon="6.03438">
        <ele>223</ele>
        <time>2010-01-01T01:08:38Z</time>
      </trkpt>
      <trkpt lat="47.69477" lon="6.03436">
        <ele>223</ele>
        <time>2010-01-01T01:08:39Z</time>
      </trkpt>
      <trkpt lat="47.69478" lon="6.03433">
        <ele>223</ele>
        <time>2010-01-01T01:08:40Z</time>
      </trkpt>
      <trkpt lat="47.6948" lon="6.03431">
        <ele>224</ele>
        <time>2010-01-01T01:08:41Z</time>
      </trkpt>
      <trkpt lat="47.69481" lon="6.03429">
        <ele>224</ele>
        <time>2010-01-01T01:08:42Z</time>
      </trkpt>
      <trkpt lat="47.69483" lon="6.03426">
        <ele>225</ele>
        <time>2010-01-01T01:08:43Z</time>
      </trkpt>
      <trkpt lat="47.69485" lon="6.03424">
        <ele>225</ele>
        <time>2010-01-01T01:08:43Z</time>
      </trkpt>
      <trkpt lat="47.69486" lon="6.03422">
        <ele>225</ele>
        <time>2010-01-01T01:08:44Z</time>
      </trkpt>
      <trkpt lat="47.69487" lon="6.03421">
        <ele>225</ele>
        <time>2010-01-01T01:08:44Z</time>
      </trkpt>
      <trkpt lat="47.69487" lon="6.03422">
        <ele>225</ele>
        <time>2010-01-01T01:08:45Z</time>
      </trkpt>
      <trkpt lat="47.69487" lon="6.0342">
        <ele>225</ele>
        <time>2010-01-01T01:08:45Z</time>
      </trkpt>
      <trkpt lat="47.69488" lon="6.03418">
        <ele>225</ele>
        <time>2010-01-01T01:08:46Z</time>
      </trkpt>
      <trkpt lat="47.69489" lon="6.03417">
        <ele>225</ele>
        <time>2010-01-01T01:08:46Z</time>
      </trkpt>
      <trkpt lat="47.6949" lon="6.03415">
        <ele>225</ele>
        <time>2010-01-01T01:08:47Z</time>
      </trkpt>
      <trkpt lat="47.69491" lon="6.03413">
        <ele>225</ele>
        <time>2010-01-01T01:08:47Z</time>
      </trkpt>
      <trkpt lat="47.69492" lon="6.03412">
        <ele>225</ele>
        <time>2010-01-01T01:08:48Z</time>
      </trkpt>
      <trkpt lat="47.69494" lon="6.0341">
        <ele>225</ele>
        <time>2010-01-01T01:08:49Z</time>
      </trkpt>
      <trkpt lat="47.69495" lon="6.03409">
        <ele>225</ele>
        <time>2010-01-01T01:08:49Z</time>
      </trkpt>
      <trkpt lat="47.69496" lon="6.03407">
        <ele>225</ele>
        <time>2010-01-01T01:08:50Z</time>
      </trkpt>
      <trkpt lat="47.69497" lon="6.03405">
        <ele>225</ele>
        <time>2010-01-01T01:08:51Z</time>
      </trkpt>
      <trkpt lat="47.69498" lon="6.03403">
        <ele>225</ele>
        <time>2010-01-01T01:08:52Z</time>
      </trkpt>
      <trkpt lat="47.695" lon="6.034">
        <ele>225</ele>
        <time>2010-01-01T01:08:52Z</time>
      </trkpt>
      <trkpt lat="47.69501" lon="6.03396">
        <ele>225</ele>
        <time>2010-01-01T01:08:54Z</time>
      </trkpt>
      <trkpt lat="47.69503" lon="6.03393">
        <ele>225</ele>
        <time>2010-01-01T01:08:55Z</time>
      </trkpt>
      <trkpt lat="47.69506" lon="6.03389">
        <ele>225</ele>
        <time>2010-01-01T01:08:56Z</time>
      </trkpt>
      <trkpt lat="47.69508" lon="6.03385">
        <ele>225</ele>
        <time>2010-01-01T01:08:58Z</time>
      </trkpt>
      <trkpt lat="47.69511" lon="6.0338">
        <ele>225</ele>
        <time>2010-01-01T01:08:59Z</time>
      </trkpt>
      <trkpt lat="47.69514" lon="6.03375">
        <ele>225</ele>
        <time>2010-01-01T01:09:01Z</time>
      </trkpt>
      <trkpt lat="47.69517" lon="6.03369">
        <ele>225</ele>
        <time>2010-01-01T01:09:03Z</time>
      </trkpt>
      <trkpt lat="47.69521" lon="6.03363">
        <ele>224</ele>
        <time>2010-01-01T01:09:05Z</time>
      </trkpt>
      <trkpt lat="47.69524" lon="6.03357">
        <ele>223</ele>
        <time>2010-01-01T01:09:08Z</time>
      </trkpt>
      <trkpt lat="47.69528" lon="6.03351">
        <ele>223</ele>
        <time>2010-01-01T01:09:10Z</time>
      </trkpt>
      <trkpt lat="47.69532" lon="6.03344">
        <ele>222</ele>
        <time>2010-01-01T01:09:12Z</time>
      </trkpt>
      <trkpt lat="47.69535" lon="6.03338">
        <ele>222</ele>
        <time>2010-01-01T01:09:14Z</time>
      </trkpt>
      <trkpt lat="47.69539" lon="6.03331">
        <ele>222</ele>
        <time>2010-01-01T01:09:17Z</time>
      </trkpt>
      <trkpt lat="47.69543" lon="6.03324">
        <ele>222</ele>
        <time>2010-01-01T01:09:19Z</time>
      </trkpt>
      <trkpt lat="47.69546" lon="6.03317">
        <ele>222</ele>
        <time>2010-01-01T01:09:21Z</time>
      </trkpt>
      <trkpt lat="47.6955" lon="6.03311">
        <ele>222</ele>
        <time>2010-01-01T01:09:24Z</time>
      </trkpt>
      <trkpt lat="47.69553" lon="6.03304">
        <ele>222</ele>
        <time>2010-01-01T01:09:26Z</time>
      </trkpt>
      <trkpt lat="47.69555" lon="6.03298">
        <ele>222</ele>
        <time>2010-01-01T01:09:28Z</time>
      </trkpt>
      <trkpt lat="47.69558" lon="6.03292">
        <ele>222</ele>
        <time>2010-01-01T01:09:30Z</time>
      </trkpt>
      <trkpt lat="47.6956" lon="6.03287">
        <ele>222</ele>
        <time>2010-01-01T01:09:32Z</time>
      </trkpt>
      <trkpt lat="47.69563" lon="6.03282">
        <ele>222</ele>
        <time>2010-01-01T01:09:33Z</time>
      </trkpt>
      <trkpt lat="47.69565" lon="6.03277">
        <ele>222</ele>
        <time>2010-01-01T01:09:35Z</time>
      </trkpt>
      <trkpt lat="47.69567" lon="6.03274">
        <ele>222</ele>
        <time>2010-01-01T01:09:36Z</time>
      </trkpt>
      <trkpt lat="47.69569" lon="6.0327">
        <ele>222</ele>
        <time>2010-01-01T01:09:37Z</time>
      </trkpt>
      <trkpt lat="47.69571" lon="6.03265">
        <ele>222</ele>
        <time>2010-01-01T01:09:39Z</time>
      </trkpt>
      <trkpt lat="47.69573" lon="6.03261">
        <ele>222</ele>
        <time>2010-01-01T01:09:40Z</time>
      </trkpt>
      <trkpt lat="47.69575" lon="6.03257">
        <ele>222</ele>
        <time>2010-01-01T01:09:41Z</time>
      </trkpt>
      <trkpt lat="47.69577" lon="6.03254">
        <ele>222</ele>
        <time>2010-01-01T01:09:43Z</time>
      </trkpt>
      <trkpt lat="47.69578" lon="6.03249">
        <ele>222</ele>
        <time>2010-01-01T01:09:44Z</time>
      </trkpt>
      <trkpt lat="47.6958" lon="6.03245">
        <ele>222</ele>
        <time>2010-01-01T01:09:45Z</time>
      </trkpt>
      <trkpt lat="47.69582" lon="6.03242">
        <ele>222</ele>
        <time>2010-01-01T01:09:47Z</time>
      </trkpt>
      <trkpt lat="47.69584" lon="6.03238">
        <ele>222</ele>
        <time>2010-01-01T01:09:48Z</time>
      </trkpt>
      <trkpt lat="47.69586" lon="6.03235">
        <ele>222</ele>
        <time>2010-01-01T01:09:49Z</time>
      </trkpt>
      <trkpt lat="47.69589" lon="6.03232">
        <ele>222</ele>
        <time>2010-01-01T01:09:50Z</time>
      </trkpt>
      <trkpt lat="47.69591" lon="6.03229">
        <ele>222</ele>
        <time>2010-01-01T01:09:51Z</time>
      </trkpt>
      <trkpt lat="47.69593" lon="6.03225">
        <ele>222</ele>
        <time>2010-01-01T01:09:53Z</time>
      </trkpt>
      <trkpt lat="47.69595" lon="6.03221">
        <ele>222</ele>
        <time>2010-01-01T01:09:54Z</time>
      </trkpt>
      <trkpt lat="47.69597" lon="6.03218">
        <ele>222</ele>
        <time>2010-01-01T01:09:55Z</time>
      </trkpt>
      <trkpt lat="47.69598" lon="6.03213">
        <ele>222</ele>
        <time>2010-01-01T01:09:56Z</time>
      </trkpt>
      <trkpt lat="47.69598" lon="6.03209">
        <ele>222</ele>
        <time>2010-01-01T01:09:58Z</time>
      </trkpt>
      <trkpt lat="47.69598" lon="6.03205">
        <ele>222</ele>
        <time>2010-01-01T01:09:59Z</time>
      </trkpt>
      <trkpt lat="47.69598" lon="6.03201">
        <ele>222</ele>
        <time>2010-01-01T01:10:00Z</time>
      </trkpt>
      <trkpt lat="47.69597" lon="6.03197">
        <ele>222</ele>
        <time>2010-01-01T01:10:01Z</time>
      </trkpt>
      <trkpt lat="47.69597" lon="6.03193">
        <ele>222</ele>
        <time>2010-01-01T01:10:02Z</time>
      </trkpt>
      <trkpt lat="47.69596" lon="6.03189">
        <ele>222</ele>
        <time>2010-01-01T01:10:03Z</time>
      </trkpt>
      <trkpt lat="47.69595" lon="6.03186">
        <ele>222</ele>
        <time>2010-01-01T01:10:04Z</time>
      </trkpt>
      <trkpt lat="47.69594" lon="6.03182">
        <ele>222</ele>
        <time>2010-01-01T01:10:05Z</time>
      </trkpt>
      <trkpt lat="47.69593" lon="6.03179">
        <ele>222</ele>
        <time>2010-01-01T01:10:06Z</time>
      </trkpt>
      <trkpt lat="47.69593" lon="6.03175">
        <ele>222</ele>
        <time>2010-01-01T01:10:07Z</time>
      </trkpt>
      <trkpt lat="47.69592" lon="6.03172">
        <ele>222</ele>
        <time>2010-01-01T01:10:08Z</time>
      </trkpt>
      <trkpt lat="47.69591" lon="6.03168">
        <ele>222</ele>
        <time>2010-01-01T01:10:09Z</time>
      </trkpt>
      <trkpt lat="47.6959" lon="6.03165">
        <ele>222</ele>
        <time>2010-01-01T01:10:10Z</time>
      </trkpt>
      <trkpt lat="47.6959" lon="6.03161">
        <ele>222</ele>
        <time>2010-01-01T01:10:11Z</time>
      </trkpt>
      <trkpt lat="47.69589" lon="6.03157">
        <ele>222</ele>
        <time>2010-01-01T01:10:12Z</time>
      </trkpt>
      <trkpt lat="47.69588" lon="6.03154">
        <ele>222</ele>
        <time>2010-01-01T01:10:13Z</time>
      </trkpt>
      <trkpt lat="47.69587" lon="6.0315">
        <ele>222</ele>
        <time>2010-01-01T01:10:14Z</time>
      </trkpt>
      <trkpt lat="47.69586" lon="6.03146">
        <ele>222</ele>
        <time>2010-01-01T01:10:15Z</time>
      </trkpt>
      <trkpt lat="47.69586" lon="6.03143">
        <ele>222</ele>
        <time>2010-01-01T01:10:16Z</time>
      </trkpt>
      <trkpt lat="47.69585" lon="6.03139">
        <ele>222</ele>
        <time>2010-01-01T01:10:17Z</time>
      </trkpt>
      <trkpt lat="47.69584" lon="6.03135">
        <ele>222</ele>
        <time>2010-01-01T01:10:19Z</time>
      </trkpt>
      <trkpt lat="47.69583" lon="6.0313">
        <ele>222</ele>
        <time>2010-01-01T01:10:20Z</time>
      </trkpt>
      <trkpt lat="47.69582" lon="6.03126">
        <ele>222</ele>
        <time>2010-01-01T01:10:21Z</time>
      </trkpt>
      <trkpt lat="47.69581" lon="6.03121">
        <ele>222</ele>
        <time>2010-01-01T01:10:22Z</time>
      </trkpt>
      <trkpt lat="47.69581" lon="6.03117">
        <ele>222</ele>
        <time>2010-01-01T01:10:24Z</time>
      </trkpt>
      <trkpt lat="47.6958" lon="6.03113">
        <ele>222</ele>
        <time>2010-01-01T01:10:25Z</time>
      </trkpt>
      <trkpt lat="47.69579" lon="6.03109">
        <ele>222</ele>
        <time>2010-01-01T01:10:26Z</time>
      </trkpt>
      <trkpt lat="47.69579" lon="6.03105">
        <ele>222</ele>
        <time>2010-01-01T01:10:27Z</time>
      </trkpt>
      <trkpt lat="47.69579" lon="6.03102">
        <ele>222</ele>
        <time>2010-01-01T01:10:28Z</time>
      </trkpt>
      <trkpt lat="47.69578" lon="6.03098">
        <ele>222</ele>
        <time>2010-01-01T01:10:29Z</time>
      </trkpt>
      <trkpt lat="47.69577" lon="6.03093">
        <ele>222</ele>
        <time>2010-01-01T01:10:30Z</time>
      </trkpt>
      <trkpt lat="47.69576" lon="6.03089">
        <ele>222</ele>
        <time>2010-01-01T01:10:31Z</time>
      </trkpt>
      <trkpt lat="47.69576" lon="6.03084">
        <ele>222</ele>
        <time>2010-01-01T01:10:33Z</time>
      </trkpt>
      <trkpt lat="47.69575" lon="6.0308">
        <ele>222</ele>
        <time>2010-01-01T01:10:34Z</time>
      </trkpt>
      <trkpt lat="47.69574" lon="6.03076">
        <ele>222</ele>
        <time>2010-01-01T01:10:35Z</time>
      </trkpt>
      <trkpt lat="47.69574" lon="6.03072">
        <ele>222</ele>
        <time>2010-01-01T01:10:36Z</time>
      </trkpt>
      <trkpt lat="47.69573" lon="6.03068">
        <ele>222</ele>
        <time>2010-01-01T01:10:37Z</time>
      </trkpt>
      <trkpt lat="47.69573" lon="6.03064">
        <ele>222</ele>
        <time>2010-01-01T01:10:38Z</time>
      </trkpt>
      <trkpt lat="47.69572" lon="6.03059">
        <ele>222</ele>
        <time>2010-01-01T01:10:40Z</time>
      </trkpt>
      <trkpt lat="47.69571" lon="6.03054">
        <ele>222</ele>
        <time>2010-01-01T01:10:41Z</time>
      </trkpt>
      <trkpt lat="47.6957" lon="6.03048">
        <ele>222</ele>
        <time>2010-01-01T01:10:43Z</time>
      </trkpt>
      <trkpt lat="47.6957" lon="6.03043">
        <ele>222</ele>
        <time>2010-01-01T01:10:44Z</time>
      </trkpt>
      <trkpt lat="47.69569" lon="6.03038">
        <ele>222</ele>
        <time>2010-01-01T01:10:45Z</time>
      </trkpt>
      <trkpt lat="47.69568" lon="6.03034">
        <ele>222</ele>
        <time>2010-01-01T01:10:47Z</time>
      </trkpt>
      <trkpt lat="47.69568" lon="6.03029">
        <ele>222</ele>
        <time>2010-01-01T01:10:48Z</time>
      </trkpt>
      <trkpt lat="47.69567" lon="6.03025">
        <ele>222</ele>
        <time>2010-01-01T01:10:49Z</time>
      </trkpt>
      <trkpt lat="47.69567" lon="6.0302">
        <ele>222</ele>
        <time>2010-01-01T01:10:50Z</time>
      </trkpt>
      <trkpt lat="47.69566" lon="6.03016">
        <ele>222</ele>
        <time>2010-01-01T01:10:51Z</time>
      </trkpt>
      <trkpt lat="47.69566" lon="6.03012">
        <ele>222</ele>
        <time>2010-01-01T01:10:53Z</time>
      </trkpt>
      <trkpt lat="47.69565" lon="6.03007">
        <ele>222</ele>
        <time>2010-01-01T01:10:54Z</time>
      </trkpt>
      <trkpt lat="47.69565" lon="6.03003">
        <ele>222</ele>
        <time>2010-01-01T01:10:55Z</time>
      </trkpt>
      <trkpt lat="47.69565" lon="6.02998">
        <ele>222</ele>
        <time>2010-01-01T01:10:56Z</time>
      </trkpt>
      <trkpt lat="47.69565" lon="6.02993">
        <ele>222</ele>
        <time>2010-01-01T01:10:58Z</time>
      </trkpt>
      <trkpt lat="47.69564" lon="6.02988">
        <ele>222</ele>
        <time>2010-01-01T01:10:59Z</time>
      </trkpt>
      <trkpt lat="47.69564" lon="6.02984">
        <ele>222</ele>
        <time>2010-01-01T01:11:00Z</time>
      </trkpt>
      <trkpt lat="47.69564" lon="6.02979">
        <ele>222</ele>
        <time>2010-01-01T01:11:02Z</time>
      </trkpt>
      <trkpt lat="47.69564" lon="6.02974">
        <ele>222</ele>
        <time>2010-01-01T01:11:03Z</time>
      </trkpt>
      <trkpt lat="47.69564" lon="6.02968">
        <ele>222</ele>
        <time>2010-01-01T01:11:04Z</time>
      </trkpt>
      <trkpt lat="47.69563" lon="6.02963">
        <ele>222</ele>
        <time>2010-01-01T01:11:06Z</time>
      </trkpt>
      <trkpt lat="47.69563" lon="6.02958">
        <ele>222</ele>
        <time>2010-01-01T01:11:07Z</time>
      </trkpt>
      <trkpt lat="47.69563" lon="6.02953">
        <ele>222</ele>
        <time>2010-01-01T01:11:09Z</time>
      </trkpt>
      <trkpt lat="47.69563" lon="6.02948">
        <ele>222</ele>
        <time>2010-01-01T01:11:10Z</time>
      </trkpt>
      <trkpt lat="47.69563" lon="6.02942">
        <ele>222</ele>
        <time>2010-01-01T01:11:11Z</time>
      </trkpt>
      <trkpt lat="47.69563" lon="6.02937">
        <ele>222</ele>
        <time>2010-01-01T01:11:13Z</time>
      </trkpt>
      <trkpt lat="47.69562" lon="6.02932">
        <ele>222</ele>
        <time>2010-01-01T01:11:14Z</time>
      </trkpt>
      <trkpt lat="47.69562" lon="6.02927">
        <ele>222</ele>
        <time>2010-01-01T01:11:16Z</time>
      </trkpt>
      <trkpt lat="47.69562" lon="6.02922">
        <ele>222</ele>
        <time>2010-01-01T01:11:17Z</time>
      </trkpt>
      <trkpt lat="47.69562" lon="6.02917">
        <ele>222</ele>
        <time>2010-01-01T01:11:18Z</time>
      </trkpt>
      <trkpt lat="47.69562" lon="6.02912">
        <ele>222</ele>
        <time>2010-01-01T01:11:20Z</time>
      </trkpt>
      <trkpt lat="47.69561" lon="6.02907">
        <ele>222</ele>
        <time>2010-01-01T01:11:21Z</time>
      </trkpt>
      <trkpt lat="47.69562" lon="6.02902">
        <ele>222</ele>
        <time>2010-01-01T01:11:22Z</time>
      </trkpt>
      <trkpt lat="47.69561" lon="6.02897">
        <ele>222</ele>
        <time>2010-01-01T01:11:24Z</time>
      </trkpt>
      <trkpt lat="47.69561" lon="6.02892">
        <ele>222</ele>
        <time>2010-01-01T01:11:25Z</time>
      </trkpt>
      <trkpt lat="47.6956" lon="6.02887">
        <ele>222</ele>
        <time>2010-01-01T01:11:26Z</time>
      </trkpt>
      <trkpt lat="47.6956" lon="6.02882">
        <ele>222</ele>
        <time>2010-01-01T01:11:28Z</time>
      </trkpt>
      <trkpt lat="47.6956" lon="6.02877">
        <ele>222</ele>
        <time>2010-01-01T01:11:29Z</time>
      </trkpt>
      <trkpt lat="47.69559" lon="6.02872">
        <ele>222</ele>
        <time>2010-01-01T01:11:30Z</time>
      </trkpt>
      <trkpt lat="47.69559" lon="6.02867">
        <ele>222</ele>
        <time>2010-01-01T01:11:32Z</time>
      </trkpt>
      <trkpt lat="47.69559" lon="6.02863">
        <ele>222</ele>
        <time>2010-01-01T01:11:33Z</time>
      </trkpt>
      <trkpt lat="47.69558" lon="6.02858">
        <ele>222</ele>
        <time>2010-01-01T01:11:34Z</time>
      </trkpt>
      <trkpt lat="47.69557" lon="6.02854">
        <ele>223</ele>
        <time>2010-01-01T01:11:36Z</time>
      </trkpt>
      <trkpt lat="47.69557" lon="6.02849">
        <ele>223</ele>
        <time>2010-01-01T01:11:37Z</time>
      </trkpt>
      <trkpt lat="47.69557" lon="6.02844">
        <ele>224</ele>
        <time>2010-01-01T01:11:38Z</time>
      </trkpt>
      <trkpt lat="47.69556" lon="6.0284">
        <ele>224</ele>
        <time>2010-01-01T01:11:39Z</time>
      </trkpt>
      <trkpt lat="47.69556" lon="6.02835">
        <ele>225</ele>
        <time>2010-01-01T01:11:41Z</time>
      </trkpt>
      <trkpt lat="47.69555" lon="6.0283">
        <ele>225</ele>
        <time>2010-01-01T01:11:42Z</time>
      </trkpt>
      <trkpt lat="47.69554" lon="6.02825">
        <ele>225</ele>
        <time>2010-01-01T01:11:43Z</time>
      </trkpt>
      <trkpt lat="47.69553" lon="6.02821">
        <ele>225</ele>
        <time>2010-01-01T01:11:45Z</time>
      </trkpt>
      <trkpt lat="47.69552" lon="6.02816">
        <ele>225</ele>
        <time>2010-01-01T01:11:46Z</time>
      </trkpt>
      <trkpt lat="47.69551" lon="6.02812">
        <ele>225</ele>
        <time>2010-01-01T01:11:47Z</time>
      </trkpt>
      <trkpt lat="47.6955" lon="6.02807">
        <ele>225</ele>
        <time>2010-01-01T01:11:49Z</time>
      </trkpt>
      <trkpt lat="47.69549" lon="6.02803">
        <ele>225</ele>
        <time>2010-01-01T01:11:50Z</time>
      </trkpt>
      <trkpt lat="47.69548" lon="6.02798">
        <ele>225</ele>
        <time>2010-01-01T01:11:51Z</time>
      </trkpt>
      <trkpt lat="47.69547" lon="6.02794">
        <ele>225</ele>
        <time>2010-01-01T01:11:52Z</time>
      </trkpt>
      <trkpt lat="47.69546" lon="6.02789">
        <ele>225</ele>
        <time>2010-01-01T01:11:54Z</time>
      </trkpt>
      <trkpt lat="47.69545" lon="6.02785">
        <ele>225</ele>
        <time>2010-01-01T01:11:55Z</time>
      </trkpt>
      <trkpt lat="47.69544" lon="6.02781">
        <ele>225</ele>
        <time>2010-01-01T01:11:56Z</time>
      </trkpt>
      <trkpt lat="47.69543" lon="6.02777">
        <ele>225</ele>
        <time>2010-01-01T01:11:57Z</time>
      </trkpt>
      <trkpt lat="47.69542" lon="6.02774">
        <ele>225</ele>
        <time>2010-01-01T01:11:58Z</time>
      </trkpt>
      <trkpt lat="47.69541" lon="6.0277">
        <ele>225</ele>
        <time>2010-01-01T01:11:59Z</time>
      </trkpt>
      <trkpt lat="47.6954" lon="6.02766">
        <ele>226</ele>
        <time>2010-01-01T01:12:00Z</time>
      </trkpt>
      <trkpt lat="47.69539" lon="6.02762">
        <ele>226</ele>
        <time>2010-01-01T01:12:01Z</time>
      </trkpt>
      <trkpt lat="47.69538" lon="6.02758">
        <ele>227</ele>
        <time>2010-01-01T01:12:03Z</time>
      </trkpt>
      <trkpt lat="47.69537" lon="6.02754">
        <ele>227</ele>
        <time>2010-01-01T01:12:04Z</time>
      </trkpt>
      <trkpt lat="47.69535" lon="6.02749">
        <ele>227</ele>
        <time>2010-01-01T01:12:05Z</time>
      </trkpt>
      <trkpt lat="47.69534" lon="6.02745">
        <ele>227</ele>
        <time>2010-01-01T01:12:06Z</time>
      </trkpt>
      <trkpt lat="47.69533" lon="6.02741">
        <ele>227</ele>
        <time>2010-01-01T01:12:08Z</time>
      </trkpt>
      <trkpt lat="47.69532" lon="6.02737">
        <ele>227</ele>
        <time>2010-01-01T01:12:09Z</time>
      </trkpt>
      <trkpt lat="47.69531" lon="6.02732">
        <ele>227</ele>
        <time>2010-01-01T01:12:10Z</time>
      </trkpt>
      <trkpt lat="47.6953" lon="6.02728">
        <ele>227</ele>
        <time>2010-01-01T01:12:11Z</time>
      </trkpt>
      <trkpt lat="47.69529" lon="6.02723">
        <ele>227</ele>
        <time>2010-01-01T01:12:13Z</time>
      </trkpt>
      <trkpt lat="47.69529" lon="6.02717">
        <ele>227</ele>
        <time>2010-01-01T01:12:14Z</time>
      </trkpt>
      <trkpt lat="47.6953" lon="6.02712">
        <ele>227</ele>
        <time>2010-01-01T01:12:16Z</time>
      </trkpt>
      <trkpt lat="47.69532" lon="6.02709">
        <ele>227</ele>
        <time>2010-01-01T01:12:17Z</time>
      </trkpt>
      <trkpt lat="47.69534" lon="6.02706">
        <ele>227</ele>
        <time>2010-01-01T01:12:18Z</time>
      </trkpt>
      <trkpt lat="47.69538" lon="6.02703">
        <ele>227</ele>
        <time>2010-01-01T01:12:20Z</time>
      </trkpt>
      <trkpt lat="47.69541" lon="6.027">
        <ele>227</ele>
        <time>2010-01-01T01:12:21Z</time>
      </trkpt>
      <trkpt lat="47.69544" lon="6.02697">
        <ele>226</ele>
        <time>2010-01-01T01:12:23Z</time>
      </trkpt>
      <trkpt lat="47.69547" lon="6.02693">
        <ele>226</ele>
        <time>2010-01-01T01:12:25Z</time>
      </trkpt>
      <trkpt lat="47.69551" lon="6.02688">
        <ele>226</ele>
        <time>2010-01-01T01:12:26Z</time>
      </trkpt>
      <trkpt lat="47.69554" lon="6.02683">
        <ele>225</ele>
        <time>2010-01-01T01:12:28Z</time>
      </trkpt>
      <trkpt lat="47.69556" lon="6.02678">
        <ele>225</ele>
        <time>2010-01-01T01:12:30Z</time>
      </trkpt>
      <trkpt lat="47.69559" lon="6.02673">
        <ele>225</ele>
        <time>2010-01-01T01:12:32Z</time>
      </trkpt>
      <trkpt lat="47.69562" lon="6.02667">
        <ele>225</ele>
        <time>2010-01-01T01:12:33Z</time>
      </trkpt>
      <trkpt lat="47.69564" lon="6.02661">
        <ele>225</ele>
        <time>2010-01-01T01:12:35Z</time>
      </trkpt>
      <trkpt lat="47.69566" lon="6.02655">
        <ele>225</ele>
        <time>2010-01-01T01:12:37Z</time>
      </trkpt>
      <trkpt lat="47.69569" lon="6.02648">
        <ele>225</ele>
        <time>2010-01-01T01:12:39Z</time>
      </trkpt>
      <trkpt lat="47.6957" lon="6.02641">
        <ele>225</ele>
        <time>2010-01-01T01:12:41Z</time>
      </trkpt>
      <trkpt lat="47.69572" lon="6.02633">
        <ele>225</ele>
        <time>2010-01-01T01:12:44Z</time>
      </trkpt>
      <trkpt lat="47.69573" lon="6.02626">
        <ele>225</ele>
        <time>2010-01-01T01:12:46Z</time>
      </trkpt>
      <trkpt lat="47.69574" lon="6.02618">
        <ele>224</ele>
        <time>2010-01-01T01:12:48Z</time>
      </trkpt>
      <trkpt lat="47.69575" lon="6.0261">
        <ele>224</ele>
        <time>2010-01-01T01:12:50Z</time>
      </trkpt>
      <trkpt lat="47.69576" lon="6.02601">
        <ele>223</ele>
        <time>2010-01-01T01:12:52Z</time>
      </trkpt>
      <trkpt lat="47.69577" lon="6.02593">
        <ele>223</ele>
        <time>2010-01-01T01:12:55Z</time>
      </trkpt>
      <trkpt lat="47.69579" lon="6.02585">
        <ele>222</ele>
        <time>2010-01-01T01:12:57Z</time>
      </trkpt>
      <trkpt lat="47.6958" lon="6.02576">
        <ele>222</ele>
        <time>2010-01-01T01:12:59Z</time>
      </trkpt>
      <trkpt lat="47.69581" lon="6.02568">
        <ele>222</ele>
        <time>2010-01-01T01:13:02Z</time>
      </trkpt>
      <trkpt lat="47.69582" lon="6.02559">
        <ele>222</ele>
        <time>2010-01-01T01:13:04Z</time>
      </trkpt>
      <trkpt lat="47.69584" lon="6.0255">
        <ele>222</ele>
        <time>2010-01-01T01:13:07Z</time>
      </trkpt>
      <trkpt lat="47.69585" lon="6.02541">
        <ele>222</ele>
        <time>2010-01-01T01:13:09Z</time>
      </trkpt>
      <trkpt lat="47.69586" lon="6.02531">
        <ele>221</ele>
        <time>2010-01-01T01:13:12Z</time>
      </trkpt>
      <trkpt lat="47.69587" lon="6.0252">
        <ele>220</ele>
        <time>2010-01-01T01:13:15Z</time>
      </trkpt>
      <trkpt lat="47.69588" lon="6.0251">
        <ele>220</ele>
        <time>2010-01-01T01:13:17Z</time>
      </trkpt>
      <trkpt lat="47.69589" lon="6.02498">
        <ele>220</ele>
        <time>2010-01-01T01:13:21Z</time>
      </trkpt>
      <trkpt lat="47.69591" lon="6.02487">
        <ele>220</ele>
        <time>2010-01-01T01:13:24Z</time>
      </trkpt>
      <trkpt lat="47.69593" lon="6.02477">
        <ele>219</ele>
        <time>2010-01-01T01:13:27Z</time>
      </trkpt>
      <trkpt lat="47.69597" lon="6.02466">
        <ele>219</ele>
        <time>2010-01-01T01:13:30Z</time>
      </trkpt>
      <trkpt lat="47.696" lon="6.02457">
        <ele>218</ele>
        <time>2010-01-01T01:13:33Z</time>
      </trkpt>
      <trkpt lat="47.69603" lon="6.02448">
        <ele>218</ele>
        <time>2010-01-01T01:13:35Z</time>
      </trkpt>
      <trkpt lat="47.69607" lon="6.02439">
        <ele>218</ele>
        <time>2010-01-01T01:13:38Z</time>
      </trkpt>
      <trkpt lat="47.69611" lon="6.02431">
        <ele>218</ele>
        <time>2010-01-01T01:13:41Z</time>
      </trkpt>
      <trkpt lat="47.69614" lon="6.02423">
        <ele>218</ele>
        <time>2010-01-01T01:13:43Z</time>
      </trkpt>
      <trkpt lat="47.69617" lon="6.02415">
        <ele>218</ele>
        <time>2010-01-01T01:13:46Z</time>
      </trkpt>
      <trkpt lat="47.69621" lon="6.02408">
        <ele>218</ele>
        <time>2010-01-01T01:13:48Z</time>
      </trkpt>
      <trkpt lat="47.69624" lon="6.02402">
        <ele>218</ele>
        <time>2010-01-01T01:13:50Z</time>
      </trkpt>
      <trkpt lat="47.69627" lon="6.02396">
        <ele>218</ele>
        <time>2010-01-01T01:13:52Z</time>
      </trkpt>
      <trkpt lat="47.6963" lon="6.0239">
        <ele>218</ele>
        <time>2010-01-01T01:13:54Z</time>
      </trkpt>
      <trkpt lat="47.69633" lon="6.02385">
        <ele>218</ele>
        <time>2010-01-01T01:13:56Z</time>
      </trkpt>
      <trkpt lat="47.69636" lon="6.02379">
        <ele>218</ele>
        <time>2010-01-01T01:13:58Z</time>
      </trkpt>
      <trkpt lat="47.69638" lon="6.02375">
        <ele>218</ele>
        <time>2010-01-01T01:14:00Z</time>
      </trkpt>
      <trkpt lat="47.69641" lon="6.02371">
        <ele>218</ele>
        <time>2010-01-01T01:14:01Z</time>
      </trkpt>
      <trkpt lat="47.69643" lon="6.02367">
        <ele>218</ele>
        <time>2010-01-01T01:14:02Z</time>
      </trkpt>
      <trkpt lat="47.69646" lon="6.02364">
        <ele>218</ele>
        <time>2010-01-01T01:14:04Z</time>
      </trkpt>
      <trkpt lat="47.69648" lon="6.02361">
        <ele>218</ele>
        <time>2010-01-01T01:14:05Z</time>
      </trkpt>
      <trkpt lat="47.6965" lon="6.02358">
        <ele>218</ele>
        <time>2010-01-01T01:14:06Z</time>
      </trkpt>
      <trkpt lat="47.69652" lon="6.02356">
        <ele>218</ele>
        <time>2010-01-01T01:14:07Z</time>
      </trkpt>
      <trkpt lat="47.69655" lon="6.02353">
        <ele>218</ele>
        <time>2010-01-01T01:14:08Z</time>
      </trkpt>
      <trkpt lat="47.69657" lon="6.02351">
        <ele>218</ele>
        <time>2010-01-01T01:14:09Z</time>
      </trkpt>
      <trkpt lat="47.69658" lon="6.02348">
        <ele>218</ele>
        <time>2010-01-01T01:14:11Z</time>
      </trkpt>
      <trkpt lat="47.6966" lon="6.02345">
        <ele>218</ele>
        <time>2010-01-01T01:14:12Z</time>
      </trkpt>
      <trkpt lat="47.69662" lon="6.02344">
        <ele>218</ele>
        <time>2010-01-01T01:14:13Z</time>
      </trkpt>
      <trkpt lat="47.69664" lon="6.02342">
        <ele>218</ele>
        <time>2010-01-01T01:14:13Z</time>
      </trkpt>
      <trkpt lat="47.69667" lon="6.02341">
        <ele>218</ele>
        <time>2010-01-01T01:14:14Z</time>
      </trkpt>
      <trkpt lat="47.69669" lon="6.02339">
        <ele>218</ele>
        <time>2010-01-01T01:14:16Z</time>
      </trkpt>
      <trkpt lat="47.69672" lon="6.02337">
        <ele>218</ele>
        <time>2010-01-01T01:14:17Z</time>
      </trkpt>
      <trkpt lat="47.69674" lon="6.02335">
        <ele>218</ele>
        <time>2010-01-01T01:14:18Z</time>
      </trkpt>
      <trkpt lat="47.69676" lon="6.02334">
        <ele>218</ele>
        <time>2010-01-01T01:14:19Z</time>
      </trkpt>
      <trkpt lat="47.69678" lon="6.02333">
        <ele>218</ele>
        <time>2010-01-01T01:14:20Z</time>
      </trkpt>
      <trkpt lat="47.6968" lon="6.02332">
        <ele>218</ele>
        <time>2010-01-01T01:14:20Z</time>
      </trkpt>
      <trkpt lat="47.69683" lon="6.02331">
        <ele>218</ele>
        <time>2010-01-01T01:14:21Z</time>
      </trkpt>
      <trkpt lat="47.69685" lon="6.0233">
        <ele>218</ele>
        <time>2010-01-01T01:14:22Z</time>
      </trkpt>
      <trkpt lat="47.69687" lon="6.02328">
        <ele>219</ele>
        <time>2010-01-01T01:14:23Z</time>
      </trkpt>
      <trkpt lat="47.69689" lon="6.02327">
        <ele>219</ele>
        <time>2010-01-01T01:14:24Z</time>
      </trkpt>
      <trkpt lat="47.69691" lon="6.02326">
        <ele>220</ele>
        <time>2010-01-01T01:14:25Z</time>
      </trkpt>
      <trkpt lat="47.69693" lon="6.02326">
        <ele>220</ele>
        <time>2010-01-01T01:14:26Z</time>
      </trkpt>
      <trkpt lat="47.69695" lon="6.02325">
        <ele>220</ele>
        <time>2010-01-01T01:14:27Z</time>
      </trkpt>
      <trkpt lat="47.69697" lon="6.02324">
        <ele>220</ele>
        <time>2010-01-01T01:14:27Z</time>
      </trkpt>
      <trkpt lat="47.69699" lon="6.02323">
        <ele>220</ele>
        <time>2010-01-01T01:14:28Z</time>
      </trkpt>
      <trkpt lat="47.69701" lon="6.02322">
        <ele>220</ele>
        <time>2010-01-01T01:14:29Z</time>
      </trkpt>
      <trkpt lat="47.69704" lon="6.02322">
        <ele>220</ele>
        <time>2010-01-01T01:14:30Z</time>
      </trkpt>
      <trkpt lat="47.69706" lon="6.02321">
        <ele>220</ele>
        <time>2010-01-01T01:14:31Z</time>
      </trkpt>
      <trkpt lat="47.69708" lon="6.0232">
        <ele>220</ele>
        <time>2010-01-01T01:14:32Z</time>
      </trkpt>
      <trkpt lat="47.6971" lon="6.02319">
        <ele>220</ele>
        <time>2010-01-01T01:14:33Z</time>
      </trkpt>
      <trkpt lat="47.69712" lon="6.02318">
        <ele>221</ele>
        <time>2010-01-01T01:14:34Z</time>
      </trkpt>
      <trkpt lat="47.69714" lon="6.02317">
        <ele>221</ele>
        <time>2010-01-01T01:14:35Z</time>
      </trkpt>
      <trkpt lat="47.69716" lon="6.02317">
        <ele>222</ele>
        <time>2010-01-01T01:14:35Z</time>
      </trkpt>
      <trkpt lat="47.69718" lon="6.02316">
        <ele>222</ele>
        <time>2010-01-01T01:14:36Z</time>
      </trkpt>
      <trkpt lat="47.69721" lon="6.02316">
        <ele>222</ele>
        <time>2010-01-01T01:14:37Z</time>
      </trkpt>
      <trkpt lat="47.69723" lon="6.02315">
        <ele>222</ele>
        <time>2010-01-01T01:14:38Z</time>
      </trkpt>
      <trkpt lat="47.69725" lon="6.02315">
        <ele>222</ele>
        <time>2010-01-01T01:14:39Z</time>
      </trkpt>
      <trkpt lat="47.69727" lon="6.02314">
        <ele>222</ele>
        <time>2010-01-01T01:14:40Z</time>
      </trkpt>
      <trkpt lat="47.69729" lon="6.02314">
        <ele>222</ele>
        <time>2010-01-01T01:14:41Z</time>
      </trkpt>
      <trkpt lat="47.69731" lon="6.02313">
        <ele>222</ele>
        <time>2010-01-01T01:14:42Z</time>
      </trkpt>
      <trkpt lat="47.69734" lon="6.02313">
        <ele>222</ele>
        <time>2010-01-01T01:14:42Z</time>
      </trkpt>
      <trkpt lat="47.69736" lon="6.02312">
        <ele>222</ele>
        <time>2010-01-01T01:14:43Z</time>
      </trkpt>
      <trkpt lat="47.69738" lon="6.02312">
        <ele>222</ele>
        <time>2010-01-01T01:14:44Z</time>
      </trkpt>
      <trkpt lat="47.69741" lon="6.02312">
        <ele>222</ele>
        <time>2010-01-01T01:14:45Z</time>
      </trkpt>
      <trkpt lat="47.69743" lon="6.02311">
        <ele>222</ele>
        <time>2010-01-01T01:14:46Z</time>
      </trkpt>
      <trkpt lat="47.69746" lon="6.02311">
        <ele>222</ele>
        <time>2010-01-01T01:14:47Z</time>
      </trkpt>
      <trkpt lat="47.69751" lon="6.02311">
        <ele>222</ele>
        <time>2010-01-01T01:14:49Z</time>
      </trkpt>
      <trkpt lat="47.69753" lon="6.02311">
        <ele>222</ele>
        <time>2010-01-01T01:14:50Z</time>
      </trkpt>
      <trkpt lat="47.69755" lon="6.0231">
        <ele>222</ele>
        <time>2010-01-01T01:14:51Z</time>
      </trkpt>
      <trkpt lat="47.69758" lon="6.0231">
        <ele>222</ele>
        <time>2010-01-01T01:14:52Z</time>
      </trkpt>
      <trkpt lat="47.6976" lon="6.0231">
        <ele>223</ele>
        <time>2010-01-01T01:14:53Z</time>
      </trkpt>
      <trkpt lat="47.69762" lon="6.0231">
        <ele>223</ele>
        <time>2010-01-01T01:14:54Z</time>
      </trkpt>
      <trkpt lat="47.69765" lon="6.0231">
        <ele>224</ele>
        <time>2010-01-01T01:14:55Z</time>
      </trkpt>
      <trkpt lat="47.69767" lon="6.02309">
        <ele>224</ele>
        <time>2010-01-01T01:14:56Z</time>
      </trkpt>
      <trkpt lat="47.69769" lon="6.02309">
        <ele>225</ele>
        <time>2010-01-01T01:14:57Z</time>
      </trkpt>
      <trkpt lat="47.69772" lon="6.02309">
        <ele>225</ele>
        <time>2010-01-01T01:14:58Z</time>
      </trkpt>
      <trkpt lat="47.69774" lon="6.02309">
        <ele>225</ele>
        <time>2010-01-01T01:14:59Z</time>
      </trkpt>
      <trkpt lat="47.69776" lon="6.02308">
        <ele>225</ele>
        <time>2010-01-01T01:15:00Z</time>
      </trkpt>
      <trkpt lat="47.69779" lon="6.02308">
        <ele>225</ele>
        <time>2010-01-01T01:15:01Z</time>
      </trkpt>
      <trkpt lat="47.69781" lon="6.02308">
        <ele>225</ele>
        <time>2010-01-01T01:15:02Z</time>
      </trkpt>
      <trkpt lat="47.69784" lon="6.02307">
        <ele>225</ele>
        <time>2010-01-01T01:15:03Z</time>
      </trkpt>
      <trkpt lat="47.69786" lon="6.02307">
        <ele>225</ele>
        <time>2010-01-01T01:15:04Z</time>
      </trkpt>
      <trkpt lat="47.69788" lon="6.02307">
        <ele>225</ele>
        <time>2010-01-01T01:15:05Z</time>
      </trkpt>
      <trkpt lat="47.69791" lon="6.02307">
        <ele>225</ele>
        <time>2010-01-01T01:15:05Z</time>
      </trkpt>
      <trkpt lat="47.69793" lon="6.02306">
        <ele>225</ele>
        <time>2010-01-01T01:15:06Z</time>
      </trkpt>
      <trkpt lat="47.69795" lon="6.02306">
        <ele>225</ele>
        <time>2010-01-01T01:15:07Z</time>
      </trkpt>
      <trkpt lat="47.69798" lon="6.02305">
        <ele>225</ele>
        <time>2010-01-01T01:15:08Z</time>
      </trkpt>
      <trkpt lat="47.698" lon="6.02304">
        <ele>225</ele>
        <time>2010-01-01T01:15:09Z</time>
      </trkpt>
      <trkpt lat="47.69802" lon="6.02303">
        <ele>225</ele>
        <time>2010-01-01T01:15:10Z</time>
      </trkpt>
      <trkpt lat="47.69805" lon="6.02302">
        <ele>225</ele>
        <time>2010-01-01T01:15:11Z</time>
      </trkpt>
      <trkpt lat="47.69808" lon="6.02301">
        <ele>225</ele>
        <time>2010-01-01T01:15:12Z</time>
      </trkpt>
      <trkpt lat="47.6981" lon="6.023">
        <ele>225</ele>
        <time>2010-01-01T01:15:13Z</time>
      </trkpt>
      <trkpt lat="47.69812" lon="6.02299">
        <ele>225</ele>
        <time>2010-01-01T01:15:14Z</time>
      </trkpt>
      <trkpt lat="47.69815" lon="6.02298">
        <ele>225</ele>
        <time>2010-01-01T01:15:15Z</time>
      </trkpt>
      <trkpt lat="47.69817" lon="6.02297">
        <ele>226</ele>
        <time>2010-01-01T01:15:16Z</time>
      </trkpt>
      <trkpt lat="47.6982" lon="6.02296">
        <ele>227</ele>
        <time>2010-01-01T01:15:17Z</time>
      </trkpt>
      <trkpt lat="47.69822" lon="6.02295">
        <ele>227</ele>
        <time>2010-01-01T01:15:18Z</time>
      </trkpt>
      <trkpt lat="47.69825" lon="6.02293">
        <ele>227</ele>
        <time>2010-01-01T01:15:20Z</time>
      </trkpt>
      <trkpt lat="47.69827" lon="6.02292">
        <ele>227</ele>
        <time>2010-01-01T01:15:21Z</time>
      </trkpt>
      <trkpt lat="47.69829" lon="6.0229">
        <ele>227</ele>
        <time>2010-01-01T01:15:21Z</time>
      </trkpt>
      <trkpt lat="47.69831" lon="6.02288">
        <ele>227</ele>
        <time>2010-01-01T01:15:23Z</time>
      </trkpt>
      <trkpt lat="47.69834" lon="6.02287">
        <ele>227</ele>
        <time>2010-01-01T01:15:24Z</time>
      </trkpt>
      <trkpt lat="47.69836" lon="6.02285">
        <ele>227</ele>
        <time>2010-01-01T01:15:25Z</time>
      </trkpt>
      <trkpt lat="47.69839" lon="6.02283">
        <ele>227</ele>
        <time>2010-01-01T01:15:26Z</time>
      </trkpt>
      <trkpt lat="47.69841" lon="6.02281">
        <ele>227</ele>
        <time>2010-01-01T01:15:27Z</time>
      </trkpt>
      <trkpt lat="47.69844" lon="6.02279">
        <ele>227</ele>
        <time>2010-01-01T01:15:28Z</time>
      </trkpt>
      <trkpt lat="47.69847" lon="6.02277">
        <ele>227</ele>
        <time>2010-01-01T01:15:29Z</time>
      </trkpt>
      <trkpt lat="47.69849" lon="6.02275">
        <ele>227</ele>
        <time>2010-01-01T01:15:30Z</time>
      </trkpt>
      <trkpt lat="47.69852" lon="6.02273">
        <ele>227</ele>
        <time>2010-01-01T01:15:32Z</time>
      </trkpt>
      <trkpt lat="47.69854" lon="6.02271">
        <ele>227</ele>
        <time>2010-01-01T01:15:33Z</time>
      </trkpt>
      <trkpt lat="47.69857" lon="6.02268">
        <ele>227</ele>
        <time>2010-01-01T01:15:34Z</time>
      </trkpt>
      <trkpt lat="47.69859" lon="6.02266">
        <ele>227</ele>
        <time>2010-01-01T01:15:35Z</time>
      </trkpt>
      <trkpt lat="47.69862" lon="6.02262">
        <ele>227</ele>
        <time>2010-01-01T01:15:37Z</time>
      </trkpt>
      <trkpt lat="47.69864" lon="6.02259">
        <ele>227</ele>
        <time>2010-01-01T01:15:38Z</time>
      </trkpt>
      <trkpt lat="47.69866" lon="6.02256">
        <ele>227</ele>
        <time>2010-01-01T01:15:39Z</time>
      </trkpt>
      <trkpt lat="47.69869" lon="6.02253">
        <ele>227</ele>
        <time>2010-01-01T01:15:40Z</time>
      </trkpt>
      <trkpt lat="47.6987" lon="6.02249">
        <ele>227</ele>
        <time>2010-01-01T01:15:42Z</time>
      </trkpt>
      <trkpt lat="47.69872" lon="6.02245">
        <ele>227</ele>
        <time>2010-01-01T01:15:43Z</time>
      </trkpt>
      <trkpt lat="47.69874" lon="6.02241">
        <ele>227</ele>
        <time>2010-01-01T01:15:44Z</time>
      </trkpt>
      <trkpt lat="47.69876" lon="6.02237">
        <ele>227</ele>
        <time>2010-01-01T01:15:46Z</time>
      </trkpt>
      <trkpt lat="47.69878" lon="6.02233">
        <ele>227</ele>
        <time>2010-01-01T01:15:47Z</time>
      </trkpt>
      <trkpt lat="47.6988" lon="6.02229">
        <ele>227</ele>
        <time>2010-01-01T01:15:48Z</time>
      </trkpt>
      <trkpt lat="47.69881" lon="6.02225">
        <ele>227</ele>
        <time>2010-01-01T01:15:49Z</time>
      </trkpt>
      <trkpt lat="47.69883" lon="6.0222">
        <ele>227</ele>
        <time>2010-01-01T01:15:51Z</time>
      </trkpt>
      <trkpt lat="47.69885" lon="6.02216">
        <ele>227</ele>
        <time>2010-01-01T01:15:52Z</time>
      </trkpt>
      <trkpt lat="47.69886" lon="6.02212">
        <ele>227</ele>
        <time>2010-01-01T01:15:54Z</time>
      </trkpt>
      <trkpt lat="47.69888" lon="6.02208">
        <ele>227</ele>
        <time>2010-01-01T01:15:55Z</time>
      </trkpt>
      <trkpt lat="47.6989" lon="6.02202">
        <ele>227</ele>
        <time>2010-01-01T01:15:56Z</time>
      </trkpt>
      <trkpt lat="47.69891" lon="6.02198">
        <ele>227</ele>
        <time>2010-01-01T01:15:58Z</time>
      </trkpt>
      <trkpt lat="47.69893" lon="6.02193">
        <ele>227</ele>
        <time>2010-01-01T01:15:59Z</time>
      </trkpt>
      <trkpt lat="47.69894" lon="6.02187">
        <ele>227</ele>
        <time>2010-01-01T01:16:01Z</time>
      </trkpt>
      <trkpt lat="47.69895" lon="6.02183">
        <ele>227</ele>
        <time>2010-01-01T01:16:02Z</time>
      </trkpt>
      <trkpt lat="47.69896" lon="6.02177">
        <ele>227</ele>
        <time>2010-01-01T01:16:04Z</time>
      </trkpt>
      <trkpt lat="47.69897" lon="6.02172">
        <ele>227</ele>
        <time>2010-01-01T01:16:05Z</time>
      </trkpt>
      <trkpt lat="47.69898" lon="6.02167">
        <ele>227</ele>
        <time>2010-01-01T01:16:07Z</time>
      </trkpt>
      <trkpt lat="47.69899" lon="6.02161">
        <ele>227</ele>
        <time>2010-01-01T01:16:08Z</time>
      </trkpt>
      <trkpt lat="47.699" lon="6.02156">
        <ele>227</ele>
        <time>2010-01-01T01:16:10Z</time>
      </trkpt>
      <trkpt lat="47.69902" lon="6.02151">
        <ele>227</ele>
        <time>2010-01-01T01:16:11Z</time>
      </trkpt>
      <trkpt lat="47.69904" lon="6.02146">
        <ele>227</ele>
        <time>2010-01-01T01:16:13Z</time>
      </trkpt>
      <trkpt lat="47.69906" lon="6.02142">
        <ele>227</ele>
        <time>2010-01-01T01:16:14Z</time>
      </trkpt>
      <trkpt lat="47.69908" lon="6.02138">
        <ele>227</ele>
        <time>2010-01-01T01:16:15Z</time>
      </trkpt>
      <trkpt lat="47.6991" lon="6.02135">
        <ele>227</ele>
        <time>2010-01-01T01:16:17Z</time>
      </trkpt>
      <trkpt lat="47.69912" lon="6.02131">
        <ele>227</ele>
        <time>2010-01-01T01:16:18Z</time>
      </trkpt>
      <trkpt lat="47.69915" lon="6.02127">
        <ele>227</ele>
        <time>2010-01-01T01:16:19Z</time>
      </trkpt>
      <trkpt lat="47.69918" lon="6.02124">
        <ele>227</ele>
        <time>2010-01-01T01:16:21Z</time>
      </trkpt>
      <trkpt lat="47.6992" lon="6.02121">
        <ele>227</ele>
        <time>2010-01-01T01:16:22Z</time>
      </trkpt>
      <trkpt lat="47.69923" lon="6.02118">
        <ele>227</ele>
        <time>2010-01-01T01:16:23Z</time>
      </trkpt>
      <trkpt lat="47.69925" lon="6.02115">
        <ele>227</ele>
        <time>2010-01-01T01:16:25Z</time>
      </trkpt>
      <trkpt lat="47.69927" lon="6.02112">
        <ele>227</ele>
        <time>2010-01-01T01:16:26Z</time>
      </trkpt>
      <trkpt lat="47.69929" lon="6.0211">
        <ele>227</ele>
        <time>2010-01-01T01:16:27Z</time>
      </trkpt>
      <trkpt lat="47.69931" lon="6.02107">
        <ele>227</ele>
        <time>2010-01-01T01:16:28Z</time>
      </trkpt>
      <trkpt lat="47.69934" lon="6.02104">
        <ele>227</ele>
        <time>2010-01-01T01:16:29Z</time>
      </trkpt>
      <trkpt lat="47.69936" lon="6.02102">
        <ele>227</ele>
        <time>2010-01-01T01:16:30Z</time>
      </trkpt>
      <trkpt lat="47.69938" lon="6.02099">
        <ele>227</ele>
        <time>2010-01-01T01:16:31Z</time>
      </trkpt>
      <trkpt lat="47.6994" lon="6.02096">
        <ele>227</ele>
        <time>2010-01-01T01:16:32Z</time>
      </trkpt>
      <trkpt lat="47.69942" lon="6.02093">
        <ele>227</ele>
        <time>2010-01-01T01:16:34Z</time>
      </trkpt>
      <trkpt lat="47.69943" lon="6.02091">
        <ele>227</ele>
        <time>2010-01-01T01:16:35Z</time>
      </trkpt>
      <trkpt lat="47.69945" lon="6.02088">
        <ele>227</ele>
        <time>2010-01-01T01:16:36Z</time>
      </trkpt>
      <trkpt lat="47.69947" lon="6.02085">
        <ele>227</ele>
        <time>2010-01-01T01:16:37Z</time>
      </trkpt>
      <trkpt lat="47.6995" lon="6.02082">
        <ele>227</ele>
        <time>2010-01-01T01:16:38Z</time>
      </trkpt>
      <trkpt lat="47.69953" lon="6.02079">
        <ele>227</ele>
        <time>2010-01-01T01:16:40Z</time>
      </trkpt>
      <trkpt lat="47.69956" lon="6.02076">
        <ele>227</ele>
        <time>2010-01-01T01:16:41Z</time>
      </trkpt>
      <trkpt lat="47.69958" lon="6.02073">
        <ele>227</ele>
        <time>2010-01-01T01:16:42Z</time>
      </trkpt>
      <trkpt lat="47.69961" lon="6.0207">
        <ele>227</ele>
        <time>2010-01-01T01:16:44Z</time>
      </trkpt>
      <trkpt lat="47.69964" lon="6.02066">
        <ele>227</ele>
        <time>2010-01-01T01:16:45Z</time>
      </trkpt>
      <trkpt lat="47.69966" lon="6.02064">
        <ele>227</ele>
        <time>2010-01-01T01:16:46Z</time>
      </trkpt>
      <trkpt lat="47.6997" lon="6.02061">
        <ele>227</ele>
        <time>2010-01-01T01:16:48Z</time>
      </trkpt>
      <trkpt lat="47.69972" lon="6.02058">
        <ele>227</ele>
        <time>2010-01-01T01:16:49Z</time>
      </trkpt>
      <trkpt lat="47.69975" lon="6.02055">
        <ele>227</ele>
        <time>2010-01-01T01:16:51Z</time>
      </trkpt>
      <trkpt lat="47.69978" lon="6.02052">
        <ele>227</ele>
        <time>2010-01-01T01:16:52Z</time>
      </trkpt>
      <trkpt lat="47.69981" lon="6.02049">
        <ele>227</ele>
        <time>2010-01-01T01:16:53Z</time>
      </trkpt>
      <trkpt lat="47.69983" lon="6.02046">
        <ele>227</ele>
        <time>2010-01-01T01:16:55Z</time>
      </trkpt>
      <trkpt lat="47.69986" lon="6.02044">
        <ele>227</ele>
        <time>2010-01-01T01:16:56Z</time>
      </trkpt>
      <trkpt lat="47.69989" lon="6.02041">
        <ele>227</ele>
        <time>2010-01-01T01:16:57Z</time>
      </trkpt>
      <trkpt lat="47.69992" lon="6.02038">
        <ele>227</ele>
        <time>2010-01-01T01:16:59Z</time>
      </trkpt>
      <trkpt lat="47.69994" lon="6.02035">
        <ele>227</ele>
        <time>2010-01-01T01:17:00Z</time>
      </trkpt>
      <trkpt lat="47.69996" lon="6.02032">
        <ele>227</ele>
        <time>2010-01-01T01:17:01Z</time>
      </trkpt>
      <trkpt lat="47.69998" lon="6.02029">
        <ele>227</ele>
        <time>2010-01-01T01:17:02Z</time>
      </trkpt>
      <trkpt lat="47.7" lon="6.02026">
        <ele>227</ele>
        <time>2010-01-01T01:17:03Z</time>
      </trkpt>
      <trkpt lat="47.70002" lon="6.02021">
        <ele>227</ele>
        <time>2010-01-01T01:17:05Z</time>
      </trkpt>
      <trkpt lat="47.70004" lon="6.02016">
        <ele>227</ele>
        <time>2010-01-01T01:17:06Z</time>
      </trkpt>
      <trkpt lat="47.70007" lon="6.02009">
        <ele>227</ele>
        <time>2010-01-01T01:17:09Z</time>
      </trkpt>
      <trkpt lat="47.70011" lon="6.02002">
        <ele>227</ele>
        <time>2010-01-01T01:17:11Z</time>
      </trkpt>
      <trkpt lat="47.70015" lon="6.01994">
        <ele>227</ele>
        <time>2010-01-01T01:17:14Z</time>
      </trkpt>
      <trkpt lat="47.70019" lon="6.01987">
        <ele>227</ele>
        <time>2010-01-01T01:17:16Z</time>
      </trkpt>
      <trkpt lat="47.70023" lon="6.01981">
        <ele>227</ele>
        <time>2010-01-01T01:17:18Z</time>
      </trkpt>
      <trkpt lat="47.70028" lon="6.01973">
        <ele>227</ele>
        <time>2010-01-01T01:17:22Z</time>
      </trkpt>
      <trkpt lat="47.70035" lon="6.01963">
        <ele>227</ele>
        <time>2010-01-01T01:17:25Z</time>
      </trkpt>
      <trkpt lat="47.7004" lon="6.01957">
        <ele>227</ele>
        <time>2010-01-01T01:17:28Z</time>
      </trkpt>
      <trkpt lat="47.70044" lon="6.01951">
        <ele>227</ele>
        <time>2010-01-01T01:17:30Z</time>
      </trkpt>
      <trkpt lat="47.70048" lon="6.01946">
        <ele>226</ele>
        <time>2010-01-01T01:17:32Z</time>
      </trkpt>
      <trkpt lat="47.70052" lon="6.0194">
        <ele>226</ele>
        <time>2010-01-01T01:17:35Z</time>
      </trkpt>
      <trkpt lat="47.70056" lon="6.01935">
        <ele>225</ele>
        <time>2010-01-01T01:17:37Z</time>
      </trkpt>
      <trkpt lat="47.7006" lon="6.01931">
        <ele>224</ele>
        <time>2010-01-01T01:17:38Z</time>
      </trkpt>
      <trkpt lat="47.70063" lon="6.01928">
        <ele>224</ele>
        <time>2010-01-01T01:17:40Z</time>
      </trkpt>
      <trkpt lat="47.70066" lon="6.01925">
        <ele>224</ele>
        <time>2010-01-01T01:17:41Z</time>
      </trkpt>
      <trkpt lat="47.70068" lon="6.01922">
        <ele>224</ele>
        <time>2010-01-01T01:17:43Z</time>
      </trkpt>
      <trkpt lat="47.7007" lon="6.01919">
        <ele>224</ele>
        <time>2010-01-01T01:17:44Z</time>
      </trkpt>
      <trkpt lat="47.70073" lon="6.01916">
        <ele>224</ele>
        <time>2010-01-01T01:17:45Z</time>
      </trkpt>
      <trkpt lat="47.70075" lon="6.01914">
        <ele>224</ele>
        <time>2010-01-01T01:17:46Z</time>
      </trkpt>
      <trkpt lat="47.70077" lon="6.01912">
        <ele>224</ele>
        <time>2010-01-01T01:17:47Z</time>
      </trkpt>
      <trkpt lat="47.70079" lon="6.01911">
        <ele>224</ele>
        <time>2010-01-01T01:17:48Z</time>
      </trkpt>
      <trkpt lat="47.7008" lon="6.01909">
        <ele>224</ele>
        <time>2010-01-01T01:17:49Z</time>
      </trkpt>
      <trkpt lat="47.70082" lon="6.01907">
        <ele>224</ele>
        <time>2010-01-01T01:17:49Z</time>
      </trkpt>
      <trkpt lat="47.70083" lon="6.01905">
        <ele>224</ele>
        <time>2010-01-01T01:17:50Z</time>
      </trkpt>
      <trkpt lat="47.70084" lon="6.01904">
        <ele>224</ele>
        <time>2010-01-01T01:17:51Z</time>
      </trkpt>
      <trkpt lat="47.70085" lon="6.01903">
        <ele>224</ele>
        <time>2010-01-01T01:17:51Z</time>
      </trkpt>
      <trkpt lat="47.70085" lon="6.01902">
        <ele>224</ele>
        <time>2010-01-01T01:17:51Z</time>
      </trkpt>
      <trkpt lat="47.70087" lon="6.01901">
        <ele>224</ele>
        <time>2010-01-01T01:17:52Z</time>
      </trkpt>
      <trkpt lat="47.70088" lon="6.01899">
        <ele>225</ele>
        <time>2010-01-01T01:17:53Z</time>
      </trkpt>
      <trkpt lat="47.7009" lon="6.01897">
        <ele>225</ele>
        <time>2010-01-01T01:17:54Z</time>
      </trkpt>
      <trkpt lat="47.70092" lon="6.01895">
        <ele>226</ele>
        <time>2010-01-01T01:17:55Z</time>
      </trkpt>
      <trkpt lat="47.70093" lon="6.01893">
        <ele>226</ele>
        <time>2010-01-01T01:17:55Z</time>
      </trkpt>
      <trkpt lat="47.70095" lon="6.01891">
        <ele>226</ele>
        <time>2010-01-01T01:17:56Z</time>
      </trkpt>
      <trkpt lat="47.70096" lon="6.01889">
        <ele>226</ele>
        <time>2010-01-01T01:17:57Z</time>
      </trkpt>
      <trkpt lat="47.70097" lon="6.01887">
        <ele>226</ele>
        <time>2010-01-01T01:17:58Z</time>
      </trkpt>
      <trkpt lat="47.70098" lon="6.01885">
        <ele>226</ele>
        <time>2010-01-01T01:17:58Z</time>
      </trkpt>
      <trkpt lat="47.701" lon="6.01883">
        <ele>226</ele>
        <time>2010-01-01T01:17:59Z</time>
      </trkpt>
      <trkpt lat="47.70101" lon="6.01881">
        <ele>226</ele>
        <time>2010-01-01T01:18:00Z</time>
      </trkpt>
      <trkpt lat="47.70102" lon="6.01879">
        <ele>226</ele>
        <time>2010-01-01T01:18:00Z</time>
      </trkpt>
      <trkpt lat="47.70103" lon="6.01878">
        <ele>226</ele>
        <time>2010-01-01T01:18:01Z</time>
      </trkpt>
      <trkpt lat="47.70104" lon="6.01876">
        <ele>226</ele>
        <time>2010-01-01T01:18:02Z</time>
      </trkpt>
      <trkpt lat="47.70105" lon="6.01874">
        <ele>227</ele>
        <time>2010-01-01T01:18:02Z</time>
      </trkpt>
      <trkpt lat="47.70107" lon="6.01872">
        <ele>227</ele>
        <time>2010-01-01T01:18:03Z</time>
      </trkpt>
      <trkpt lat="47.70108" lon="6.0187">
        <ele>228</ele>
        <time>2010-01-01T01:18:04Z</time>
      </trkpt>
      <trkpt lat="47.70109" lon="6.01869">
        <ele>228</ele>
        <time>2010-01-01T01:18:04Z</time>
      </trkpt>
      <trkpt lat="47.70111" lon="6.01866">
        <ele>229</ele>
        <time>2010-01-01T01:18:05Z</time>
      </trkpt>
      <trkpt lat="47.70112" lon="6.01865">
        <ele>229</ele>
        <time>2010-01-01T01:18:06Z</time>
      </trkpt>
      <trkpt lat="47.70114" lon="6.01863">
        <ele>229</ele>
        <time>2010-01-01T01:18:07Z</time>
      </trkpt>
      <trkpt lat="47.70115" lon="6.01861">
        <ele>229</ele>
        <time>2010-01-01T01:18:08Z</time>
      </trkpt>
      <trkpt lat="47.70117" lon="6.01859">
        <ele>229</ele>
        <time>2010-01-01T01:18:09Z</time>
      </trkpt>
      <trkpt lat="47.70118" lon="6.01857">
        <ele>229</ele>
        <time>2010-01-01T01:18:09Z</time>
      </trkpt>
      <trkpt lat="47.70119" lon="6.01855">
        <ele>229</ele>
        <time>2010-01-01T01:18:10Z</time>
      </trkpt>
      <trkpt lat="47.7012" lon="6.01853">
        <ele>229</ele>
        <time>2010-01-01T01:18:11Z</time>
      </trkpt>
      <trkpt lat="47.70122" lon="6.0185">
        <ele>229</ele>
        <time>2010-01-01T01:18:12Z</time>
      </trkpt>
      <trkpt lat="47.70123" lon="6.01849">
        <ele>229</ele>
        <time>2010-01-01T01:18:12Z</time>
      </trkpt>
      <trkpt lat="47.70124" lon="6.01847">
        <ele>229</ele>
        <time>2010-01-01T01:18:13Z</time>
      </trkpt>
      <trkpt lat="47.70125" lon="6.01845">
        <ele>229</ele>
        <time>2010-01-01T01:18:14Z</time>
      </trkpt>
      <trkpt lat="47.70127" lon="6.01843">
        <ele>230</ele>
        <time>2010-01-01T01:18:14Z</time>
      </trkpt>
      <trkpt lat="47.70128" lon="6.01841">
        <ele>230</ele>
        <time>2010-01-01T01:18:15Z</time>
      </trkpt>
      <trkpt lat="47.70129" lon="6.0184">
        <ele>231</ele>
        <time>2010-01-01T01:18:16Z</time>
      </trkpt>
      <trkpt lat="47.70131" lon="6.01837">
        <ele>231</ele>
        <time>2010-01-01T01:18:17Z</time>
      </trkpt>
      <trkpt lat="47.70133" lon="6.01835">
        <ele>231</ele>
        <time>2010-01-01T01:18:18Z</time>
      </trkpt>
      <trkpt lat="47.70134" lon="6.01833">
        <ele>231</ele>
        <time>2010-01-01T01:18:18Z</time>
      </trkpt>
      <trkpt lat="47.70135" lon="6.01831">
        <ele>231</ele>
        <time>2010-01-01T01:18:19Z</time>
      </trkpt>
      <trkpt lat="47.70136" lon="6.01829">
        <ele>231</ele>
        <time>2010-01-01T01:18:20Z</time>
      </trkpt>
      <trkpt lat="47.70138" lon="6.01828">
        <ele>231</ele>
        <time>2010-01-01T01:18:20Z</time>
      </trkpt>
      <trkpt lat="47.70139" lon="6.01826">
        <ele>231</ele>
        <time>2010-01-01T01:18:21Z</time>
      </trkpt>
      <trkpt lat="47.7014" lon="6.01825">
        <ele>231</ele>
        <time>2010-01-01T01:18:22Z</time>
      </trkpt>
      <trkpt lat="47.70142" lon="6.01821">
        <ele>231</ele>
        <time>2010-01-01T01:18:23Z</time>
      </trkpt>
      <trkpt lat="47.70143" lon="6.01819">
        <ele>231</ele>
        <time>2010-01-01T01:18:24Z</time>
      </trkpt>
      <trkpt lat="47.70145" lon="6.01817">
        <ele>231</ele>
        <time>2010-01-01T01:18:25Z</time>
      </trkpt>
      <trkpt lat="47.70146" lon="6.01814">
        <ele>231</ele>
        <time>2010-01-01T01:18:26Z</time>
      </trkpt>
      <trkpt lat="47.70148" lon="6.01811">
        <ele>231</ele>
        <time>2010-01-01T01:18:26Z</time>
      </trkpt>
      <trkpt lat="47.70149" lon="6.01809">
        <ele>231</ele>
        <time>2010-01-01T01:18:27Z</time>
      </trkpt>
      <trkpt lat="47.7015" lon="6.01808">
        <ele>231</ele>
        <time>2010-01-01T01:18:28Z</time>
      </trkpt>
      <trkpt lat="47.70152" lon="6.01807">
        <ele>231</ele>
        <time>2010-01-01T01:18:28Z</time>
      </trkpt>
      <trkpt lat="47.70153" lon="6.01806">
        <ele>231</ele>
        <time>2010-01-01T01:18:29Z</time>
      </trkpt>
      <trkpt lat="47.70154" lon="6.01805">
        <ele>231</ele>
        <time>2010-01-01T01:18:30Z</time>
      </trkpt>
      <trkpt lat="47.70155" lon="6.01803">
        <ele>231</ele>
        <time>2010-01-01T01:18:30Z</time>
      </trkpt>
      <trkpt lat="47.70156" lon="6.01802">
        <ele>231</ele>
        <time>2010-01-01T01:18:31Z</time>
      </trkpt>
      <trkpt lat="47.70157" lon="6.01801">
        <ele>231</ele>
        <time>2010-01-01T01:18:31Z</time>
      </trkpt>
      <trkpt lat="47.70158" lon="6.01799">
        <ele>231</ele>
        <time>2010-01-01T01:18:32Z</time>
      </trkpt>
      <trkpt lat="47.70158" lon="6.01797">
        <ele>231</ele>
        <time>2010-01-01T01:18:32Z</time>
      </trkpt>
      <trkpt lat="47.70159" lon="6.01795">
        <ele>231</ele>
        <time>2010-01-01T01:18:33Z</time>
      </trkpt>
      <trkpt lat="47.7016" lon="6.01793">
        <ele>232</ele>
        <time>2010-01-01T01:18:34Z</time>
      </trkpt>
      <trkpt lat="47.70161" lon="6.01792">
        <ele>232</ele>
        <time>2010-01-01T01:18:34Z</time>
      </trkpt>
      <trkpt lat="47.70163" lon="6.0179">
        <ele>233</ele>
        <time>2010-01-01T01:18:35Z</time>
      </trkpt>
      <trkpt lat="47.70164" lon="6.01788">
        <ele>233</ele>
        <time>2010-01-01T01:18:36Z</time>
      </trkpt>
      <trkpt lat="47.70166" lon="6.01786">
        <ele>233</ele>
        <time>2010-01-01T01:18:36Z</time>
      </trkpt>
      <trkpt lat="47.70167" lon="6.01783">
        <ele>233</ele>
        <time>2010-01-01T01:18:37Z</time>
      </trkpt>
      <trkpt lat="47.70169" lon="6.01781">
        <ele>233</ele>
        <time>2010-01-01T01:18:38Z</time>
      </trkpt>
      <trkpt lat="47.70171" lon="6.01776">
        <ele>233</ele>
        <time>2010-01-01T01:18:40Z</time>
      </trkpt>
      <trkpt lat="47.70172" lon="6.01772">
        <ele>233</ele>
        <time>2010-01-01T01:18:41Z</time>
      </trkpt>
      <trkpt lat="47.70173" lon="6.01768">
        <ele>233</ele>
        <time>2010-01-01T01:18:42Z</time>
      </trkpt>
      <trkpt lat="47.70175" lon="6.01766">
        <ele>233</ele>
        <time>2010-01-01T01:18:43Z</time>
      </trkpt>
      <trkpt lat="47.70176" lon="6.01763">
        <ele>233</ele>
        <time>2010-01-01T01:18:44Z</time>
      </trkpt>
      <trkpt lat="47.70178" lon="6.01759">
        <ele>233</ele>
        <time>2010-01-01T01:18:45Z</time>
      </trkpt>
      <trkpt lat="47.7018" lon="6.01757">
        <ele>233</ele>
        <time>2010-01-01T01:18:46Z</time>
      </trkpt>
      <trkpt lat="47.70181" lon="6.01755">
        <ele>233</ele>
        <time>2010-01-01T01:18:47Z</time>
      </trkpt>
      <trkpt lat="47.70183" lon="6.01752">
        <ele>233</ele>
        <time>2010-01-01T01:18:48Z</time>
      </trkpt>
      <trkpt lat="47.70184" lon="6.0175">
        <ele>233</ele>
        <time>2010-01-01T01:18:49Z</time>
      </trkpt>
      <trkpt lat="47.70186" lon="6.01748">
        <ele>233</ele>
        <time>2010-01-01T01:18:50Z</time>
      </trkpt>
      <trkpt lat="47.70187" lon="6.01745">
        <ele>233</ele>
        <time>2010-01-01T01:18:51Z</time>
      </trkpt>
      <trkpt lat="47.70188" lon="6.01743">
        <ele>233</ele>
        <time>2010-01-01T01:18:51Z</time>
      </trkpt>
      <trkpt lat="47.7019" lon="6.0174">
        <ele>233</ele>
        <time>2010-01-01T01:18:52Z</time>
      </trkpt>
      <trkpt lat="47.70191" lon="6.01737">
        <ele>233</ele>
        <time>2010-01-01T01:18:53Z</time>
      </trkpt>
      <trkpt lat="47.70193" lon="6.01734">
        <ele>233</ele>
        <time>2010-01-01T01:18:54Z</time>
      </trkpt>
      <trkpt lat="47.70195" lon="6.01731">
        <ele>233</ele>
        <time>2010-01-01T01:18:55Z</time>
      </trkpt>
      <trkpt lat="47.70196" lon="6.01729">
        <ele>233</ele>
        <time>2010-01-01T01:18:56Z</time>
      </trkpt>
      <trkpt lat="47.70198" lon="6.01726">
        <ele>233</ele>
        <time>2010-01-01T01:18:57Z</time>
      </trkpt>
      <trkpt lat="47.70199" lon="6.01723">
        <ele>233</ele>
        <time>2010-01-01T01:18:58Z</time>
      </trkpt>
      <trkpt lat="47.702" lon="6.0172">
        <ele>233</ele>
        <time>2010-01-01T01:18:59Z</time>
      </trkpt>
      <trkpt lat="47.70201" lon="6.01717">
        <ele>233</ele>
        <time>2010-01-01T01:19:00Z</time>
      </trkpt>
      <trkpt lat="47.70202" lon="6.01715">
        <ele>233</ele>
        <time>2010-01-01T01:19:01Z</time>
      </trkpt>
      <trkpt lat="47.70203" lon="6.01713">
        <ele>233</ele>
        <time>2010-01-01T01:19:01Z</time>
      </trkpt>
      <trkpt lat="47.70204" lon="6.0171">
        <ele>233</ele>
        <time>2010-01-01T01:19:02Z</time>
      </trkpt>
      <trkpt lat="47.70205" lon="6.01708">
        <ele>233</ele>
        <time>2010-01-01T01:19:03Z</time>
      </trkpt>
      <trkpt lat="47.70207" lon="6.01706">
        <ele>233</ele>
        <time>2010-01-01T01:19:04Z</time>
      </trkpt>
      <trkpt lat="47.70208" lon="6.01704">
        <ele>233</ele>
        <time>2010-01-01T01:19:05Z</time>
      </trkpt>
      <trkpt lat="47.7021" lon="6.01701">
        <ele>233</ele>
        <time>2010-01-01T01:19:05Z</time>
      </trkpt>
      <trkpt lat="47.70211" lon="6.01699">
        <ele>233</ele>
        <time>2010-01-01T01:19:06Z</time>
      </trkpt>
      <trkpt lat="47.70212" lon="6.01696">
        <ele>233</ele>
        <time>2010-01-01T01:19:07Z</time>
      </trkpt>
      <trkpt lat="47.70213" lon="6.01694">
        <ele>233</ele>
        <time>2010-01-01T01:19:08Z</time>
      </trkpt>
      <trkpt lat="47.70214" lon="6.01692">
        <ele>233</ele>
        <time>2010-01-01T01:19:09Z</time>
      </trkpt>
      <trkpt lat="47.70215" lon="6.01689">
        <ele>233</ele>
        <time>2010-01-01T01:19:10Z</time>
      </trkpt>
      <trkpt lat="47.70216" lon="6.01686">
        <ele>233</ele>
        <time>2010-01-01T01:19:10Z</time>
      </trkpt>
      <trkpt lat="47.70218" lon="6.01684">
        <ele>233</ele>
        <time>2010-01-01T01:19:11Z</time>
      </trkpt>
      <trkpt lat="47.70219" lon="6.01681">
        <ele>233</ele>
        <time>2010-01-01T01:19:12Z</time>
      </trkpt>
      <trkpt lat="47.7022" lon="6.01677">
        <ele>233</ele>
        <time>2010-01-01T01:19:13Z</time>
      </trkpt>
      <trkpt lat="47.70221" lon="6.01674">
        <ele>233</ele>
        <time>2010-01-01T01:19:14Z</time>
      </trkpt>
      <trkpt lat="47.70223" lon="6.0167">
        <ele>233</ele>
        <time>2010-01-01T01:19:15Z</time>
      </trkpt>
      <trkpt lat="47.70224" lon="6.01667">
        <ele>233</ele>
        <time>2010-01-01T01:19:16Z</time>
      </trkpt>
      <trkpt lat="47.70225" lon="6.01662">
        <ele>233</ele>
        <time>2010-01-01T01:19:18Z</time>
      </trkpt>
      <trkpt lat="47.70227" lon="6.01658">
        <ele>233</ele>
        <time>2010-01-01T01:19:19Z</time>
      </trkpt>
      <trkpt lat="47.70228" lon="6.01653">
        <ele>233</ele>
        <time>2010-01-01T01:19:21Z</time>
      </trkpt>
      <trkpt lat="47.7023" lon="6.01649">
        <ele>233</ele>
        <time>2010-01-01T01:19:22Z</time>
      </trkpt>
      <trkpt lat="47.70232" lon="6.01646">
        <ele>233</ele>
        <time>2010-01-01T01:19:23Z</time>
      </trkpt>
      <trkpt lat="47.70234" lon="6.01643">
        <ele>233</ele>
        <time>2010-01-01T01:19:24Z</time>
      </trkpt>
      <trkpt lat="47.70235" lon="6.01642">
        <ele>233</ele>
        <time>2010-01-01T01:19:25Z</time>
      </trkpt>
      <trkpt lat="47.70237" lon="6.0164">
        <ele>233</ele>
        <time>2010-01-01T01:19:25Z</time>
      </trkpt>
      <trkpt lat="47.70238" lon="6.01638">
        <ele>233</ele>
        <time>2010-01-01T01:19:26Z</time>
      </trkpt>
      <trkpt lat="47.70239" lon="6.01637">
        <ele>233</ele>
        <time>2010-01-01T01:19:27Z</time>
      </trkpt>
      <trkpt lat="47.7024" lon="6.01636">
        <ele>233</ele>
        <time>2010-01-01T01:19:27Z</time>
      </trkpt>
      <trkpt lat="47.70241" lon="6.01635">
        <ele>233</ele>
        <time>2010-01-01T01:19:28Z</time>
      </trkpt>
      <trkpt lat="47.70242" lon="6.01634">
        <ele>233</ele>
        <time>2010-01-01T01:19:28Z</time>
      </trkpt>
      <trkpt lat="47.70244" lon="6.01632">
        <ele>233</ele>
        <time>2010-01-01T01:19:29Z</time>
      </trkpt>
      <trkpt lat="47.70245" lon="6.0163">
        <ele>233</ele>
        <time>2010-01-01T01:19:30Z</time>
      </trkpt>
      <trkpt lat="47.70247" lon="6.01628">
        <ele>233</ele>
        <time>2010-01-01T01:19:31Z</time>
      </trkpt>
      <trkpt lat="47.70248" lon="6.01626">
        <ele>233</ele>
        <time>2010-01-01T01:19:31Z</time>
      </trkpt>
      <trkpt lat="47.70249" lon="6.01624">
        <ele>233</ele>
        <time>2010-01-01T01:19:32Z</time>
      </trkpt>
      <trkpt lat="47.70251" lon="6.01622">
        <ele>233</ele>
        <time>2010-01-01T01:19:33Z</time>
      </trkpt>
      <trkpt lat="47.70253" lon="6.01619">
        <ele>233</ele>
        <time>2010-01-01T01:19:34Z</time>
      </trkpt>
      <trkpt lat="47.70255" lon="6.01614">
        <ele>233</ele>
        <time>2010-01-01T01:19:36Z</time>
      </trkpt>
      <trkpt lat="47.70258" lon="6.01609">
        <ele>233</ele>
        <time>2010-01-01T01:19:37Z</time>
      </trkpt>
      <trkpt lat="47.7026" lon="6.01605">
        <ele>233</ele>
        <time>2010-01-01T01:19:39Z</time>
      </trkpt>
      <trkpt lat="47.70263" lon="6.01601">
        <ele>233</ele>
        <time>2010-01-01T01:19:40Z</time>
      </trkpt>
      <trkpt lat="47.70265" lon="6.01598">
        <ele>233</ele>
        <time>2010-01-01T01:19:41Z</time>
      </trkpt>
      <trkpt lat="47.70267" lon="6.01595">
        <ele>232</ele>
        <time>2010-01-01T01:19:42Z</time>
      </trkpt>
      <trkpt lat="47.70268" lon="6.01593">
        <ele>232</ele>
        <time>2010-01-01T01:19:43Z</time>
      </trkpt>
      <trkpt lat="47.70269" lon="6.01591">
        <ele>231</ele>
        <time>2010-01-01T01:19:44Z</time>
      </trkpt>
      <trkpt lat="47.70271" lon="6.01588">
        <ele>231</ele>
        <time>2010-01-01T01:19:45Z</time>
      </trkpt>
      <trkpt lat="47.70274" lon="6.01584">
        <ele>230</ele>
        <time>2010-01-01T01:19:47Z</time>
      </trkpt>
      <trkpt lat="47.70276" lon="6.01583">
        <ele>230</ele>
        <time>2010-01-01T01:19:48Z</time>
      </trkpt>
      <trkpt lat="47.70278" lon="6.0158">
        <ele>230</ele>
        <time>2010-01-01T01:19:48Z</time>
      </trkpt>
      <trkpt lat="47.70279" lon="6.01578">
        <ele>230</ele>
        <time>2010-01-01T01:19:49Z</time>
      </trkpt>
      <trkpt lat="47.70281" lon="6.01576">
        <ele>230</ele>
        <time>2010-01-01T01:19:50Z</time>
      </trkpt>
      <trkpt lat="47.70281" lon="6.01575">
        <ele>230</ele>
        <time>2010-01-01T01:19:51Z</time>
      </trkpt>
      <trkpt lat="47.70282" lon="6.01572">
        <ele>230</ele>
        <time>2010-01-01T01:19:51Z</time>
      </trkpt>
      <trkpt lat="47.70283" lon="6.0157">
        <ele>230</ele>
        <time>2010-01-01T01:19:52Z</time>
      </trkpt>
      <trkpt lat="47.70284" lon="6.01567">
        <ele>230</ele>
        <time>2010-01-01T01:19:53Z</time>
      </trkpt>
      <trkpt lat="47.70285" lon="6.01564">
        <ele>230</ele>
        <time>2010-01-01T01:19:54Z</time>
      </trkpt>
      <trkpt lat="47.70286" lon="6.01561">
        <ele>230</ele>
        <time>2010-01-01T01:19:55Z</time>
      </trkpt>
      <trkpt lat="47.70287" lon="6.01559">
        <ele>230</ele>
        <time>2010-01-01T01:19:55Z</time>
      </trkpt>
      <trkpt lat="47.70288" lon="6.01557">
        <ele>230</ele>
        <time>2010-01-01T01:19:56Z</time>
      </trkpt>
      <trkpt lat="47.70289" lon="6.01555">
        <ele>230</ele>
        <time>2010-01-01T01:19:57Z</time>
      </trkpt>
      <trkpt lat="47.7029" lon="6.01553">
        <ele>230</ele>
        <time>2010-01-01T01:19:57Z</time>
      </trkpt>
      <trkpt lat="47.70291" lon="6.01551">
        <ele>230</ele>
        <time>2010-01-01T01:19:58Z</time>
      </trkpt>
      <trkpt lat="47.70292" lon="6.01549">
        <ele>230</ele>
        <time>2010-01-01T01:19:59Z</time>
      </trkpt>
      <trkpt lat="47.70293" lon="6.01548">
        <ele>230</ele>
        <time>2010-01-01T01:19:59Z</time>
      </trkpt>
      <trkpt lat="47.70294" lon="6.01546">
        <ele>230</ele>
        <time>2010-01-01T01:20:00Z</time>
      </trkpt>
      <trkpt lat="47.70294" lon="6.01544">
        <ele>230</ele>
        <time>2010-01-01T01:20:00Z</time>
      </trkpt>
      <trkpt lat="47.70295" lon="6.0154">
        <ele>230</ele>
        <time>2010-01-01T01:20:01Z</time>
      </trkpt>
      <trkpt lat="47.70295" lon="6.01539">
        <ele>230</ele>
        <time>2010-01-01T01:20:02Z</time>
      </trkpt>
      <trkpt lat="47.70295" lon="6.01536">
        <ele>230</ele>
        <time>2010-01-01T01:20:03Z</time>
      </trkpt>
      <trkpt lat="47.70295" lon="6.01533">
        <ele>230</ele>
        <time>2010-01-01T01:20:03Z</time>
      </trkpt>
      <trkpt lat="47.70296" lon="6.01531">
        <ele>230</ele>
        <time>2010-01-01T01:20:04Z</time>
      </trkpt>
      <trkpt lat="47.70296" lon="6.01528">
        <ele>230</ele>
        <time>2010-01-01T01:20:05Z</time>
      </trkpt>
      <trkpt lat="47.70297" lon="6.01525">
        <ele>230</ele>
        <time>2010-01-01T01:20:06Z</time>
      </trkpt>
      <trkpt lat="47.70298" lon="6.01523">
        <ele>230</ele>
        <time>2010-01-01T01:20:06Z</time>
      </trkpt>
      <trkpt lat="47.70298" lon="6.0152">
        <ele>230</ele>
        <time>2010-01-01T01:20:07Z</time>
      </trkpt>
      <trkpt lat="47.70299" lon="6.01517">
        <ele>230</ele>
        <time>2010-01-01T01:20:08Z</time>
      </trkpt>
      <trkpt lat="47.70299" lon="6.01515">
        <ele>230</ele>
        <time>2010-01-01T01:20:09Z</time>
      </trkpt>
      <trkpt lat="47.703" lon="6.01512">
        <ele>230</ele>
        <time>2010-01-01T01:20:09Z</time>
      </trkpt>
      <trkpt lat="47.703" lon="6.0151">
        <ele>230</ele>
        <time>2010-01-01T01:20:10Z</time>
      </trkpt>
      <trkpt lat="47.70301" lon="6.01507">
        <ele>230</ele>
        <time>2010-01-01T01:20:11Z</time>
      </trkpt>
      <trkpt lat="47.70302" lon="6.01505">
        <ele>230</ele>
        <time>2010-01-01T01:20:12Z</time>
      </trkpt>
      <trkpt lat="47.70303" lon="6.01503">
        <ele>230</ele>
        <time>2010-01-01T01:20:12Z</time>
      </trkpt>
      <trkpt lat="47.70304" lon="6.01502">
        <ele>230</ele>
        <time>2010-01-01T01:20:13Z</time>
      </trkpt>
      <trkpt lat="47.70305" lon="6.01501">
        <ele>230</ele>
        <time>2010-01-01T01:20:13Z</time>
      </trkpt>
      <trkpt lat="47.70306" lon="6.015">
        <ele>230</ele>
        <time>2010-01-01T01:20:14Z</time>
      </trkpt>
      <trkpt lat="47.70308" lon="6.015">
        <ele>230</ele>
        <time>2010-01-01T01:20:14Z</time>
      </trkpt>
      <trkpt lat="47.70308" lon="6.01499">
        <ele>230</ele>
        <time>2010-01-01T01:20:15Z</time>
      </trkpt>
      <trkpt lat="47.70309" lon="6.01499">
        <ele>230</ele>
        <time>2010-01-01T01:20:15Z</time>
      </trkpt>
      <trkpt lat="47.7031" lon="6.01498">
        <ele>230</ele>
        <time>2010-01-01T01:20:16Z</time>
      </trkpt>
      <trkpt lat="47.70312" lon="6.01496">
        <ele>230</ele>
        <time>2010-01-01T01:20:16Z</time>
      </trkpt>
      <trkpt lat="47.70313" lon="6.01493">
        <ele>230</ele>
        <time>2010-01-01T01:20:17Z</time>
      </trkpt>
      <trkpt lat="47.70315" lon="6.01491">
        <ele>230</ele>
        <time>2010-01-01T01:20:18Z</time>
      </trkpt>
      <trkpt lat="47.70316" lon="6.01489">
        <ele>230</ele>
        <time>2010-01-01T01:20:19Z</time>
      </trkpt>
      <trkpt lat="47.70317" lon="6.01487">
        <ele>230</ele>
        <time>2010-01-01T01:20:20Z</time>
      </trkpt>
      <trkpt lat="47.70318" lon="6.01485">
        <ele>230</ele>
        <time>2010-01-01T01:20:20Z</time>
      </trkpt>
      <trkpt lat="47.70319" lon="6.01484">
        <ele>230</ele>
        <time>2010-01-01T01:20:21Z</time>
      </trkpt>
      <trkpt lat="47.7032" lon="6.01482">
        <ele>230</ele>
        <time>2010-01-01T01:20:21Z</time>
      </trkpt>
      <trkpt lat="47.70321" lon="6.01481">
        <ele>230</ele>
        <time>2010-01-01T01:20:22Z</time>
      </trkpt>
      <trkpt lat="47.70322" lon="6.0148">
        <ele>230</ele>
        <time>2010-01-01T01:20:22Z</time>
      </trkpt>
      <trkpt lat="47.70323" lon="6.01479">
        <ele>230</ele>
        <time>2010-01-01T01:20:23Z</time>
      </trkpt>
      <trkpt lat="47.70324" lon="6.01478">
        <ele>230</ele>
        <time>2010-01-01T01:20:23Z</time>
      </trkpt>
      <trkpt lat="47.70324" lon="6.01476">
        <ele>230</ele>
        <time>2010-01-01T01:20:24Z</time>
      </trkpt>
      <trkpt lat="47.70325" lon="6.01475">
        <ele>230</ele>
        <time>2010-01-01T01:20:24Z</time>
      </trkpt>
      <trkpt lat="47.70325" lon="6.01473">
        <ele>230</ele>
        <time>2010-01-01T01:20:25Z</time>
      </trkpt>
      <trkpt lat="47.70326" lon="6.01471">
        <ele>230</ele>
        <time>2010-01-01T01:20:25Z</time>
      </trkpt>
      <trkpt lat="47.70327" lon="6.01469">
        <ele>230</ele>
        <time>2010-01-01T01:20:26Z</time>
      </trkpt>
      <trkpt lat="47.70328" lon="6.01466">
        <ele>230</ele>
        <time>2010-01-01T01:20:27Z</time>
      </trkpt>
      <trkpt lat="47.70329" lon="6.01463">
        <ele>230</ele>
        <time>2010-01-01T01:20:28Z</time>
      </trkpt>
      <trkpt lat="47.7033" lon="6.01461">
        <ele>230</ele>
        <time>2010-01-01T01:20:28Z</time>
      </trkpt>
      <trkpt lat="47.70331" lon="6.01458">
        <ele>230</ele>
        <time>2010-01-01T01:20:29Z</time>
      </trkpt>
      <trkpt lat="47.70334" lon="6.01456">
        <ele>230</ele>
        <time>2010-01-01T01:20:31Z</time>
      </trkpt>
      <trkpt lat="47.70336" lon="6.01454">
        <ele>230</ele>
        <time>2010-01-01T01:20:32Z</time>
      </trkpt>
      <trkpt lat="47.70336" lon="6.01452">
        <ele>230</ele>
        <time>2010-01-01T01:20:32Z</time>
      </trkpt>
      <trkpt lat="47.70335" lon="6.01451">
        <ele>230</ele>
        <time>2010-01-01T01:20:33Z</time>
      </trkpt>
      <trkpt lat="47.70334" lon="6.01451">
        <ele>230</ele>
        <time>2010-01-01T01:20:33Z</time>
      </trkpt>
      <trkpt lat="47.70334" lon="6.01449">
        <ele>230</ele>
        <time>2010-01-01T01:20:34Z</time>
      </trkpt>
      <trkpt lat="47.70332" lon="6.01448">
        <ele>230</ele>
        <time>2010-01-01T01:20:34Z</time>
      </trkpt>
      <trkpt lat="47.7033" lon="6.01447">
        <ele>230</ele>
        <time>2010-01-01T01:20:35Z</time>
      </trkpt>
      <trkpt lat="47.70329" lon="6.01446">
        <ele>230</ele>
        <time>2010-01-01T01:20:36Z</time>
      </trkpt>
      <trkpt lat="47.70327" lon="6.01445">
        <ele>230</ele>
        <time>2010-01-01T01:20:36Z</time>
      </trkpt>
      <trkpt lat="47.70326" lon="6.01444">
        <ele>230</ele>
        <time>2010-01-01T01:20:37Z</time>
      </trkpt>
      <trkpt lat="47.70325" lon="6.01442">
        <ele>230</ele>
        <time>2010-01-01T01:20:38Z</time>
      </trkpt>
      <trkpt lat="47.70323" lon="6.0144">
        <ele>230</ele>
        <time>2010-01-01T01:20:38Z</time>
      </trkpt>
      <trkpt lat="47.70321" lon="6.01438">
        <ele>230</ele>
        <time>2010-01-01T01:20:39Z</time>
      </trkpt>
      <trkpt lat="47.70319" lon="6.01437">
        <ele>230</ele>
        <time>2010-01-01T01:20:40Z</time>
      </trkpt>
      <trkpt lat="47.70317" lon="6.01436">
        <ele>230</ele>
        <time>2010-01-01T01:20:41Z</time>
      </trkpt>
      <trkpt lat="47.70315" lon="6.01434">
        <ele>230</ele>
        <time>2010-01-01T01:20:42Z</time>
      </trkpt>
      <trkpt lat="47.70313" lon="6.01433">
        <ele>230</ele>
        <time>2010-01-01T01:20:43Z</time>
      </trkpt>
      <trkpt lat="47.70312" lon="6.01431">
        <ele>230</ele>
        <time>2010-01-01T01:20:44Z</time>
      </trkpt>
      <trkpt lat="47.7031" lon="6.01429">
        <ele>230</ele>
        <time>2010-01-01T01:20:45Z</time>
      </trkpt>
      <trkpt lat="47.70308" lon="6.01427">
        <ele>230</ele>
        <time>2010-01-01T01:20:46Z</time>
      </trkpt>
      <trkpt lat="47.70306" lon="6.01425">
        <ele>230</ele>
        <time>2010-01-01T01:20:46Z</time>
      </trkpt>
      <trkpt lat="47.70304" lon="6.01423">
        <ele>230</ele>
        <time>2010-01-01T01:20:47Z</time>
      </trkpt>
      <trkpt lat="47.70302" lon="6.01422">
        <ele>230</ele>
        <time>2010-01-01T01:20:48Z</time>
      </trkpt>
      <trkpt lat="47.70301" lon="6.01421">
        <ele>230</ele>
        <time>2010-01-01T01:20:49Z</time>
      </trkpt>
      <trkpt lat="47.70299" lon="6.0142">
        <ele>230</ele>
        <time>2010-01-01T01:20:50Z</time>
      </trkpt>
      <trkpt lat="47.70297" lon="6.01419">
        <ele>230</ele>
        <time>2010-01-01T01:20:50Z</time>
      </trkpt>
      <trkpt lat="47.70295" lon="6.01419">
        <ele>230</ele>
        <time>2010-01-01T01:20:51Z</time>
      </trkpt>
      <trkpt lat="47.70294" lon="6.01418">
        <ele>230</ele>
        <time>2010-01-01T01:20:52Z</time>
      </trkpt>
      <trkpt lat="47.70292" lon="6.01418">
        <ele>230</ele>
        <time>2010-01-01T01:20:52Z</time>
      </trkpt>
      <trkpt lat="47.70291" lon="6.01418">
        <ele>231</ele>
        <time>2010-01-01T01:20:53Z</time>
      </trkpt>
      <trkpt lat="47.70289" lon="6.01417">
        <ele>231</ele>
        <time>2010-01-01T01:20:54Z</time>
      </trkpt>
      <trkpt lat="47.70287" lon="6.01417">
        <ele>232</ele>
        <time>2010-01-01T01:20:54Z</time>
      </trkpt>
      <trkpt lat="47.70285" lon="6.01417">
        <ele>233</ele>
        <time>2010-01-01T01:20:55Z</time>
      </trkpt>
      <trkpt lat="47.70282" lon="6.01418">
        <ele>233</ele>
        <time>2010-01-01T01:20:56Z</time>
      </trkpt>
      <trkpt lat="47.7028" lon="6.01418">
        <ele>233</ele>
        <time>2010-01-01T01:20:57Z</time>
      </trkpt>
      <trkpt lat="47.70277" lon="6.01418">
        <ele>233</ele>
        <time>2010-01-01T01:20:58Z</time>
      </trkpt>
      <trkpt lat="47.70274" lon="6.01418">
        <ele>233</ele>
        <time>2010-01-01T01:21:00Z</time>
      </trkpt>
      <trkpt lat="47.70271" lon="6.01419">
        <ele>233</ele>
        <time>2010-01-01T01:21:01Z</time>
      </trkpt>
      <trkpt lat="47.70268" lon="6.0142">
        <ele>233</ele>
        <time>2010-01-01T01:21:02Z</time>
      </trkpt>
      <trkpt lat="47.70265" lon="6.0142">
        <ele>233</ele>
        <time>2010-01-01T01:21:03Z</time>
      </trkpt>
      <trkpt lat="47.70262" lon="6.01421">
        <ele>233</ele>
        <time>2010-01-01T01:21:05Z</time>
      </trkpt>
      <trkpt lat="47.70258" lon="6.01421">
        <ele>233</ele>
        <time>2010-01-01T01:21:06Z</time>
      </trkpt>
      <trkpt lat="47.70254" lon="6.01421">
        <ele>233</ele>
        <time>2010-01-01T01:21:08Z</time>
      </trkpt>
      <trkpt lat="47.70251" lon="6.01422">
        <ele>233</ele>
        <time>2010-01-01T01:21:09Z</time>
      </trkpt>
      <trkpt lat="47.70247" lon="6.01422">
        <ele>233</ele>
        <time>2010-01-01T01:21:11Z</time>
      </trkpt>
      <trkpt lat="47.70244" lon="6.01422">
        <ele>233</ele>
        <time>2010-01-01T01:21:12Z</time>
      </trkpt>
      <trkpt lat="47.7024" lon="6.01422">
        <ele>233</ele>
        <time>2010-01-01T01:21:13Z</time>
      </trkpt>
      <trkpt lat="47.70237" lon="6.01422">
        <ele>233</ele>
        <time>2010-01-01T01:21:14Z</time>
      </trkpt>
      <trkpt lat="47.70234" lon="6.01421">
        <ele>233</ele>
        <time>2010-01-01T01:21:16Z</time>
      </trkpt>
      <trkpt lat="47.70231" lon="6.01421">
        <ele>233</ele>
        <time>2010-01-01T01:21:17Z</time>
      </trkpt>
      <trkpt lat="47.70228" lon="6.0142">
        <ele>233</ele>
        <time>2010-01-01T01:21:18Z</time>
      </trkpt>
      <trkpt lat="47.70225" lon="6.01419">
        <ele>233</ele>
        <time>2010-01-01T01:21:19Z</time>
      </trkpt>
      <trkpt lat="47.70222" lon="6.01418">
        <ele>233</ele>
        <time>2010-01-01T01:21:21Z</time>
      </trkpt>
      <trkpt lat="47.70218" lon="6.01418">
        <ele>233</ele>
        <time>2010-01-01T01:21:22Z</time>
      </trkpt>
      <trkpt lat="47.70215" lon="6.01417">
        <ele>233</ele>
        <time>2010-01-01T01:21:23Z</time>
      </trkpt>
      <trkpt lat="47.70212" lon="6.01417">
        <ele>233</ele>
        <time>2010-01-01T01:21:25Z</time>
      </trkpt>
      <trkpt lat="47.70208" lon="6.01416">
        <ele>233</ele>
        <time>2010-01-01T01:21:26Z</time>
      </trkpt>
      <trkpt lat="47.70205" lon="6.01415">
        <ele>233</ele>
        <time>2010-01-01T01:21:27Z</time>
      </trkpt>
      <trkpt lat="47.70203" lon="6.01414">
        <ele>233</ele>
        <time>2010-01-01T01:21:28Z</time>
      </trkpt>
      <trkpt lat="47.702" lon="6.01413">
        <ele>233</ele>
        <time>2010-01-01T01:21:29Z</time>
      </trkpt>
      <trkpt lat="47.70198" lon="6.01411">
        <ele>233</ele>
        <time>2010-01-01T01:21:30Z</time>
      </trkpt>
      <trkpt lat="47.70196" lon="6.01409">
        <ele>233</ele>
        <time>2010-01-01T01:21:32Z</time>
      </trkpt>
      <trkpt lat="47.70193" lon="6.01408">
        <ele>233</ele>
        <time>2010-01-01T01:21:33Z</time>
      </trkpt>
      <trkpt lat="47.70191" lon="6.01406">
        <ele>233</ele>
        <time>2010-01-01T01:21:34Z</time>
      </trkpt>
      <trkpt lat="47.70188" lon="6.01405">
        <ele>233</ele>
        <time>2010-01-01T01:21:35Z</time>
      </trkpt>
      <trkpt lat="47.70186" lon="6.01403">
        <ele>233</ele>
        <time>2010-01-01T01:21:36Z</time>
      </trkpt>
      <trkpt lat="47.70183" lon="6.01402">
        <ele>233</ele>
        <time>2010-01-01T01:21:37Z</time>
      </trkpt>
      <trkpt lat="47.7018" lon="6.01401">
        <ele>233</ele>
        <time>2010-01-01T01:21:38Z</time>
      </trkpt>
      <trkpt lat="47.70178" lon="6.014">
        <ele>234</ele>
        <time>2010-01-01T01:21:39Z</time>
      </trkpt>
      <trkpt lat="47.70176" lon="6.01399">
        <ele>234</ele>
        <time>2010-01-01T01:21:40Z</time>
      </trkpt>
      <trkpt lat="47.70173" lon="6.01399">
        <ele>234</ele>
        <time>2010-01-01T01:21:41Z</time>
      </trkpt>
      <trkpt lat="47.7017" lon="6.01398">
        <ele>235</ele>
        <time>2010-01-01T01:21:42Z</time>
      </trkpt>
      <trkpt lat="47.70167" lon="6.01397">
        <ele>235</ele>
        <time>2010-01-01T01:21:43Z</time>
      </trkpt>
      <trkpt lat="47.70165" lon="6.01395">
        <ele>235</ele>
        <time>2010-01-01T01:21:45Z</time>
      </trkpt>
      <trkpt lat="47.70162" lon="6.01395">
        <ele>235</ele>
        <time>2010-01-01T01:21:45Z</time>
      </trkpt>
      <trkpt lat="47.7016" lon="6.01394">
        <ele>235</ele>
        <time>2010-01-01T01:21:47Z</time>
      </trkpt>
      <trkpt lat="47.70158" lon="6.01393">
        <ele>235</ele>
        <time>2010-01-01T01:21:47Z</time>
      </trkpt>
      <trkpt lat="47.70155" lon="6.01393">
        <ele>235</ele>
        <time>2010-01-01T01:21:48Z</time>
      </trkpt>
      <trkpt lat="47.70153" lon="6.01392">
        <ele>235</ele>
        <time>2010-01-01T01:21:49Z</time>
      </trkpt>
      <trkpt lat="47.70152" lon="6.01391">
        <ele>235</ele>
        <time>2010-01-01T01:21:50Z</time>
      </trkpt>
      <trkpt lat="47.7015" lon="6.0139">
        <ele>235</ele>
        <time>2010-01-01T01:21:51Z</time>
      </trkpt>
      <trkpt lat="47.70148" lon="6.0139">
        <ele>235</ele>
        <time>2010-01-01T01:21:51Z</time>
      </trkpt>
      <trkpt lat="47.70146" lon="6.01389">
        <ele>235</ele>
        <time>2010-01-01T01:21:52Z</time>
      </trkpt>
      <trkpt lat="47.70144" lon="6.01389">
        <ele>235</ele>
        <time>2010-01-01T01:21:53Z</time>
      </trkpt>
      <trkpt lat="47.70142" lon="6.01388">
        <ele>235</ele>
        <time>2010-01-01T01:21:54Z</time>
      </trkpt>
      <trkpt lat="47.70139" lon="6.01388">
        <ele>236</ele>
        <time>2010-01-01T01:21:55Z</time>
      </trkpt>
      <trkpt lat="47.70137" lon="6.01387">
        <ele>236</ele>
        <time>2010-01-01T01:21:56Z</time>
      </trkpt>
      <trkpt lat="47.70135" lon="6.01386">
        <ele>236</ele>
        <time>2010-01-01T01:21:57Z</time>
      </trkpt>
      <trkpt lat="47.70132" lon="6.01384">
        <ele>237</ele>
        <time>2010-01-01T01:21:58Z</time>
      </trkpt>
      <trkpt lat="47.70129" lon="6.01383">
        <ele>237</ele>
        <time>2010-01-01T01:21:59Z</time>
      </trkpt>
      <trkpt lat="47.70126" lon="6.01383">
        <ele>237</ele>
        <time>2010-01-01T01:22:00Z</time>
      </trkpt>
      <trkpt lat="47.70124" lon="6.01382">
        <ele>237</ele>
        <time>2010-01-01T01:22:01Z</time>
      </trkpt>
      <trkpt lat="47.70121" lon="6.01381">
        <ele>237</ele>
        <time>2010-01-01T01:22:02Z</time>
      </trkpt>
      <trkpt lat="47.70119" lon="6.01381">
        <ele>237</ele>
        <time>2010-01-01T01:22:03Z</time>
      </trkpt>
      <trkpt lat="47.70116" lon="6.01379">
        <ele>237</ele>
        <time>2010-01-01T01:22:05Z</time>
      </trkpt>
      <trkpt lat="47.70113" lon="6.01379">
        <ele>237</ele>
        <time>2010-01-01T01:22:06Z</time>
      </trkpt>
      <trkpt lat="47.7011" lon="6.01377">
        <ele>237</ele>
        <time>2010-01-01T01:22:07Z</time>
      </trkpt>
      <trkpt lat="47.70108" lon="6.01376">
        <ele>237</ele>
        <time>2010-01-01T01:22:08Z</time>
      </trkpt>
      <trkpt lat="47.70106" lon="6.01374">
        <ele>237</ele>
        <time>2010-01-01T01:22:09Z</time>
      </trkpt>
      <trkpt lat="47.70104" lon="6.01373">
        <ele>237</ele>
        <time>2010-01-01T01:22:10Z</time>
      </trkpt>
      <trkpt lat="47.70102" lon="6.01371">
        <ele>237</ele>
        <time>2010-01-01T01:22:11Z</time>
      </trkpt>
      <trkpt lat="47.701" lon="6.01369">
        <ele>237</ele>
        <time>2010-01-01T01:22:11Z</time>
      </trkpt>
      <trkpt lat="47.70099" lon="6.01367">
        <ele>237</ele>
        <time>2010-01-01T01:22:12Z</time>
      </trkpt>
      <trkpt lat="47.70098" lon="6.01365">
        <ele>237</ele>
        <time>2010-01-01T01:22:13Z</time>
      </trkpt>
      <trkpt lat="47.70096" lon="6.01362">
        <ele>237</ele>
        <time>2010-01-01T01:22:14Z</time>
      </trkpt>
      <trkpt lat="47.70095" lon="6.01359">
        <ele>237</ele>
        <time>2010-01-01T01:22:15Z</time>
      </trkpt>
      <trkpt lat="47.70094" lon="6.01356">
        <ele>237</ele>
        <time>2010-01-01T01:22:16Z</time>
      </trkpt>
      <trkpt lat="47.70092" lon="6.01354">
        <ele>237</ele>
        <time>2010-01-01T01:22:17Z</time>
      </trkpt>
      <trkpt lat="47.7009" lon="6.01351">
        <ele>237</ele>
        <time>2010-01-01T01:22:18Z</time>
      </trkpt>
      <trkpt lat="47.70089" lon="6.01348">
        <ele>237</ele>
        <time>2010-01-01T01:22:19Z</time>
      </trkpt>
      <trkpt lat="47.70087" lon="6.01346">
        <ele>237</ele>
        <time>2010-01-01T01:22:20Z</time>
      </trkpt>
      <trkpt lat="47.70086" lon="6.01344">
        <ele>237</ele>
        <time>2010-01-01T01:22:21Z</time>
      </trkpt>
      <trkpt lat="47.70084" lon="6.01341">
        <ele>237</ele>
        <time>2010-01-01T01:22:22Z</time>
      </trkpt>
      <trkpt lat="47.70082" lon="6.01339">
        <ele>237</ele>
        <time>2010-01-01T01:22:23Z</time>
      </trkpt>
      <trkpt lat="47.7008" lon="6.01336">
        <ele>237</ele>
        <time>2010-01-01T01:22:24Z</time>
      </trkpt>
      <trkpt lat="47.70079" lon="6.01332">
        <ele>237</ele>
        <time>2010-01-01T01:22:25Z</time>
      </trkpt>
      <trkpt lat="47.70077" lon="6.0133">
        <ele>237</ele>
        <time>2010-01-01T01:22:26Z</time>
      </trkpt>
      <trkpt lat="47.70076" lon="6.01327">
        <ele>237</ele>
        <time>2010-01-01T01:22:27Z</time>
      </trkpt>
      <trkpt lat="47.70074" lon="6.01325">
        <ele>237</ele>
        <time>2010-01-01T01:22:28Z</time>
      </trkpt>
      <trkpt lat="47.70072" lon="6.01323">
        <ele>237</ele>
        <time>2010-01-01T01:22:28Z</time>
      </trkpt>
      <trkpt lat="47.7007" lon="6.01321">
        <ele>238</ele>
        <time>2010-01-01T01:22:29Z</time>
      </trkpt>
      <trkpt lat="47.70069" lon="6.01318">
        <ele>238</ele>
        <time>2010-01-01T01:22:30Z</time>
      </trkpt>
      <trkpt lat="47.70067" lon="6.01316">
        <ele>238</ele>
        <time>2010-01-01T01:22:31Z</time>
      </trkpt>
      <trkpt lat="47.70066" lon="6.01314">
        <ele>239</ele>
        <time>2010-01-01T01:22:32Z</time>
      </trkpt>
      <trkpt lat="47.70064" lon="6.01312">
        <ele>239</ele>
        <time>2010-01-01T01:22:33Z</time>
      </trkpt>
      <trkpt lat="47.70062" lon="6.01309">
        <ele>239</ele>
        <time>2010-01-01T01:22:34Z</time>
      </trkpt>
      <trkpt lat="47.70061" lon="6.01307">
        <ele>239</ele>
        <time>2010-01-01T01:22:35Z</time>
      </trkpt>
      <trkpt lat="47.70059" lon="6.01304">
        <ele>239</ele>
        <time>2010-01-01T01:22:36Z</time>
      </trkpt>
      <trkpt lat="47.70058" lon="6.01302">
        <ele>239</ele>
        <time>2010-01-01T01:22:36Z</time>
      </trkpt>
      <trkpt lat="47.70056" lon="6.01299">
        <ele>239</ele>
        <time>2010-01-01T01:22:38Z</time>
      </trkpt>
      <trkpt lat="47.70054" lon="6.01296">
        <ele>239</ele>
        <time>2010-01-01T01:22:39Z</time>
      </trkpt>
      <trkpt lat="47.70053" lon="6.01295">
        <ele>239</ele>
        <time>2010-01-01T01:22:39Z</time>
      </trkpt>
      <trkpt lat="47.70051" lon="6.01292">
        <ele>239</ele>
        <time>2010-01-01T01:22:40Z</time>
      </trkpt>
      <trkpt lat="47.70049" lon="6.01289">
        <ele>239</ele>
        <time>2010-01-01T01:22:41Z</time>
      </trkpt>
      <trkpt lat="47.70048" lon="6.01286">
        <ele>239</ele>
        <time>2010-01-01T01:22:42Z</time>
      </trkpt>
      <trkpt lat="47.70047" lon="6.01284">
        <ele>239</ele>
        <time>2010-01-01T01:22:43Z</time>
      </trkpt>
      <trkpt lat="47.70044" lon="6.01281">
        <ele>240</ele>
        <time>2010-01-01T01:22:44Z</time>
      </trkpt>
      <trkpt lat="47.70043" lon="6.01279">
        <ele>240</ele>
        <time>2010-01-01T01:22:45Z</time>
      </trkpt>
      <trkpt lat="47.70041" lon="6.01276">
        <ele>241</ele>
        <time>2010-01-01T01:22:46Z</time>
      </trkpt>
      <trkpt lat="47.70039" lon="6.01274">
        <ele>241</ele>
        <time>2010-01-01T01:22:47Z</time>
      </trkpt>
      <trkpt lat="47.70038" lon="6.01272">
        <ele>241</ele>
        <time>2010-01-01T01:22:48Z</time>
      </trkpt>
      <trkpt lat="47.70037" lon="6.0127">
        <ele>241</ele>
        <time>2010-01-01T01:22:49Z</time>
      </trkpt>
      <trkpt lat="47.70036" lon="6.01268">
        <ele>241</ele>
        <time>2010-01-01T01:22:49Z</time>
      </trkpt>
      <trkpt lat="47.70035" lon="6.01267">
        <ele>241</ele>
        <time>2010-01-01T01:22:50Z</time>
      </trkpt>
      <trkpt lat="47.70034" lon="6.01265">
        <ele>241</ele>
        <time>2010-01-01T01:22:50Z</time>
      </trkpt>
      <trkpt lat="47.70033" lon="6.01264">
        <ele>241</ele>
        <time>2010-01-01T01:22:51Z</time>
      </trkpt>
      <trkpt lat="47.70032" lon="6.01263">
        <ele>241</ele>
        <time>2010-01-01T01:22:51Z</time>
      </trkpt>
      <trkpt lat="47.70031" lon="6.01261">
        <ele>241</ele>
        <time>2010-01-01T01:22:52Z</time>
      </trkpt>
      <trkpt lat="47.7003" lon="6.01259">
        <ele>242</ele>
        <time>2010-01-01T01:22:52Z</time>
      </trkpt>
      <trkpt lat="47.70029" lon="6.01257">
        <ele>242</ele>
        <time>2010-01-01T01:22:53Z</time>
      </trkpt>
      <trkpt lat="47.70028" lon="6.01255">
        <ele>243</ele>
        <time>2010-01-01T01:22:54Z</time>
      </trkpt>
      <trkpt lat="47.70027" lon="6.01252">
        <ele>243</ele>
        <time>2010-01-01T01:22:55Z</time>
      </trkpt>
      <trkpt lat="47.70026" lon="6.01249">
        <ele>243</ele>
        <time>2010-01-01T01:22:56Z</time>
      </trkpt>
      <trkpt lat="47.70024" lon="6.01246">
        <ele>243</ele>
        <time>2010-01-01T01:22:57Z</time>
      </trkpt>
      <trkpt lat="47.70023" lon="6.01243">
        <ele>243</ele>
        <time>2010-01-01T01:22:58Z</time>
      </trkpt>
      <trkpt lat="47.70022" lon="6.01241">
        <ele>243</ele>
        <time>2010-01-01T01:22:58Z</time>
      </trkpt>
      <trkpt lat="47.7002" lon="6.01238">
        <ele>243</ele>
        <time>2010-01-01T01:22:59Z</time>
      </trkpt>
      <trkpt lat="47.70019" lon="6.01236">
        <ele>243</ele>
        <time>2010-01-01T01:23:00Z</time>
      </trkpt>
      <trkpt lat="47.70018" lon="6.01234">
        <ele>243</ele>
        <time>2010-01-01T01:23:01Z</time>
      </trkpt>
      <trkpt lat="47.70017" lon="6.01232">
        <ele>243</ele>
        <time>2010-01-01T01:23:02Z</time>
      </trkpt>
      <trkpt lat="47.70016" lon="6.0123">
        <ele>243</ele>
        <time>2010-01-01T01:23:02Z</time>
      </trkpt>
      <trkpt lat="47.70014" lon="6.01228">
        <ele>243</ele>
        <time>2010-01-01T01:23:03Z</time>
      </trkpt>
      <trkpt lat="47.70013" lon="6.01227">
        <ele>243</ele>
        <time>2010-01-01T01:23:04Z</time>
      </trkpt>
      <trkpt lat="47.70012" lon="6.01225">
        <ele>243</ele>
        <time>2010-01-01T01:23:04Z</time>
      </trkpt>
      <trkpt lat="47.7001" lon="6.01223">
        <ele>243</ele>
        <time>2010-01-01T01:23:05Z</time>
      </trkpt>
      <trkpt lat="47.70009" lon="6.01221">
        <ele>243</ele>
        <time>2010-01-01T01:23:06Z</time>
      </trkpt>
      <trkpt lat="47.70008" lon="6.0122">
        <ele>243</ele>
        <time>2010-01-01T01:23:06Z</time>
      </trkpt>
      <trkpt lat="47.70007" lon="6.01219">
        <ele>243</ele>
        <time>2010-01-01T01:23:07Z</time>
      </trkpt>
      <trkpt lat="47.70006" lon="6.01217">
        <ele>243</ele>
        <time>2010-01-01T01:23:08Z</time>
      </trkpt>
      <trkpt lat="47.70005" lon="6.01216">
        <ele>243</ele>
        <time>2010-01-01T01:23:08Z</time>
      </trkpt>
      <trkpt lat="47.70004" lon="6.01214">
        <ele>243</ele>
        <time>2010-01-01T01:23:09Z</time>
      </trkpt>
      <trkpt lat="47.70002" lon="6.01212">
        <ele>244</ele>
        <time>2010-01-01T01:23:10Z</time>
      </trkpt>
      <trkpt lat="47.70001" lon="6.01211">
        <ele>244</ele>
        <time>2010-01-01T01:23:10Z</time>
      </trkpt>
      <trkpt lat="47.7" lon="6.01209">
        <ele>245</ele>
        <time>2010-01-01T01:23:11Z</time>
      </trkpt>
      <trkpt lat="47.69999" lon="6.01207">
        <ele>245</ele>
        <time>2010-01-01T01:23:11Z</time>
      </trkpt>
      <trkpt lat="47.69999" lon="6.01205">
        <ele>245</ele>
        <time>2010-01-01T01:23:12Z</time>
      </trkpt>
      <trkpt lat="47.69998" lon="6.01203">
        <ele>245</ele>
        <time>2010-01-01T01:23:13Z</time>
      </trkpt>
      <trkpt lat="47.69997" lon="6.012">
        <ele>245</ele>
        <time>2010-01-01T01:23:13Z</time>
      </trkpt>
      <trkpt lat="47.69996" lon="6.01199">
        <ele>245</ele>
        <time>2010-01-01T01:23:14Z</time>
      </trkpt>
      <trkpt lat="47.69995" lon="6.01197">
        <ele>245</ele>
        <time>2010-01-01T01:23:15Z</time>
      </trkpt>
      <trkpt lat="47.69994" lon="6.01195">
        <ele>245</ele>
        <time>2010-01-01T01:23:15Z</time>
      </trkpt>
      <trkpt lat="47.69992" lon="6.01194">
        <ele>245</ele>
        <time>2010-01-01T01:23:16Z</time>
      </trkpt>
      <trkpt lat="47.69991" lon="6.01192">
        <ele>245</ele>
        <time>2010-01-01T01:23:17Z</time>
      </trkpt>
      <trkpt lat="47.6999" lon="6.0119">
        <ele>245</ele>
        <time>2010-01-01T01:23:17Z</time>
      </trkpt>
      <trkpt lat="47.69989" lon="6.01188">
        <ele>245</ele>
        <time>2010-01-01T01:23:18Z</time>
      </trkpt>
      <trkpt lat="47.69988" lon="6.01185">
        <ele>245</ele>
        <time>2010-01-01T01:23:19Z</time>
      </trkpt>
      <trkpt lat="47.69987" lon="6.01183">
        <ele>245</ele>
        <time>2010-01-01T01:23:20Z</time>
      </trkpt>
      <trkpt lat="47.69985" lon="6.01181">
        <ele>245</ele>
        <time>2010-01-01T01:23:20Z</time>
      </trkpt>
      <trkpt lat="47.69984" lon="6.01179">
        <ele>245</ele>
        <time>2010-01-01T01:23:21Z</time>
      </trkpt>
      <trkpt lat="47.69983" lon="6.01178">
        <ele>246</ele>
        <time>2010-01-01T01:23:22Z</time>
      </trkpt>
      <trkpt lat="47.69982" lon="6.01176">
        <ele>246</ele>
        <time>2010-01-01T01:23:22Z</time>
      </trkpt>
      <trkpt lat="47.69981" lon="6.01175">
        <ele>247</ele>
        <time>2010-01-01T01:23:23Z</time>
      </trkpt>
      <trkpt lat="47.69979" lon="6.01173">
        <ele>247</ele>
        <time>2010-01-01T01:23:24Z</time>
      </trkpt>
      <trkpt lat="47.69978" lon="6.01171">
        <ele>247</ele>
        <time>2010-01-01T01:23:24Z</time>
      </trkpt>
      <trkpt lat="47.69976" lon="6.0117">
        <ele>247</ele>
        <time>2010-01-01T01:23:25Z</time>
      </trkpt>
      <trkpt lat="47.69975" lon="6.01168">
        <ele>247</ele>
        <time>2010-01-01T01:23:26Z</time>
      </trkpt>
      <trkpt lat="47.69974" lon="6.01166">
        <ele>247</ele>
        <time>2010-01-01T01:23:27Z</time>
      </trkpt>
      <trkpt lat="47.69973" lon="6.01162">
        <ele>247</ele>
        <time>2010-01-01T01:23:28Z</time>
      </trkpt>
      <trkpt lat="47.69972" lon="6.01159">
        <ele>247</ele>
        <time>2010-01-01T01:23:29Z</time>
      </trkpt>
      <trkpt lat="47.69971" lon="6.01155">
        <ele>248</ele>
        <time>2010-01-01T01:23:30Z</time>
      </trkpt>
      <trkpt lat="47.6997" lon="6.01152">
        <ele>248</ele>
        <time>2010-01-01T01:23:31Z</time>
      </trkpt>
      <trkpt lat="47.69968" lon="6.01149">
        <ele>248</ele>
        <time>2010-01-01T01:23:32Z</time>
      </trkpt>
      <trkpt lat="47.69967" lon="6.01146">
        <ele>249</ele>
        <time>2010-01-01T01:23:33Z</time>
      </trkpt>
      <trkpt lat="47.69966" lon="6.01143">
        <ele>249</ele>
        <time>2010-01-01T01:23:34Z</time>
      </trkpt>
      <trkpt lat="47.69964" lon="6.01141">
        <ele>249</ele>
        <time>2010-01-01T01:23:34Z</time>
      </trkpt>
      <trkpt lat="47.69963" lon="6.01139">
        <ele>249</ele>
        <time>2010-01-01T01:23:35Z</time>
      </trkpt>
      <trkpt lat="47.69961" lon="6.01137">
        <ele>249</ele>
        <time>2010-01-01T01:23:36Z</time>
      </trkpt>
      <trkpt lat="47.6996" lon="6.01135">
        <ele>249</ele>
        <time>2010-01-01T01:23:37Z</time>
      </trkpt>
      <trkpt lat="47.69959" lon="6.01133">
        <ele>249</ele>
        <time>2010-01-01T01:23:37Z</time>
      </trkpt>
      <trkpt lat="47.69958" lon="6.01131">
        <ele>249</ele>
        <time>2010-01-01T01:23:38Z</time>
      </trkpt>
      <trkpt lat="47.69957" lon="6.01129">
        <ele>249</ele>
        <time>2010-01-01T01:23:39Z</time>
      </trkpt>
      <trkpt lat="47.69956" lon="6.01127">
        <ele>249</ele>
        <time>2010-01-01T01:23:40Z</time>
      </trkpt>
      <trkpt lat="47.69955" lon="6.01125">
        <ele>250</ele>
        <time>2010-01-01T01:23:40Z</time>
      </trkpt>
      <trkpt lat="47.69953" lon="6.01123">
        <ele>250</ele>
        <time>2010-01-01T01:23:41Z</time>
      </trkpt>
      <trkpt lat="47.69952" lon="6.01121">
        <ele>250</ele>
        <time>2010-01-01T01:23:42Z</time>
      </trkpt>
      <trkpt lat="47.6995" lon="6.01119">
        <ele>251</ele>
        <time>2010-01-01T01:23:43Z</time>
      </trkpt>
      <trkpt lat="47.69949" lon="6.01117">
        <ele>251</ele>
        <time>2010-01-01T01:23:43Z</time>
      </trkpt>
      <trkpt lat="47.69948" lon="6.01115">
        <ele>251</ele>
        <time>2010-01-01T01:23:44Z</time>
      </trkpt>
      <trkpt lat="47.69947" lon="6.01113">
        <ele>251</ele>
        <time>2010-01-01T01:23:45Z</time>
      </trkpt>
      <trkpt lat="47.69945" lon="6.01111">
        <ele>251</ele>
        <time>2010-01-01T01:23:46Z</time>
      </trkpt>
      <trkpt lat="47.69944" lon="6.01109">
        <ele>251</ele>
        <time>2010-01-01T01:23:46Z</time>
      </trkpt>
      <trkpt lat="47.69943" lon="6.01107">
        <ele>251</ele>
        <time>2010-01-01T01:23:47Z</time>
      </trkpt>
      <trkpt lat="47.69941" lon="6.01104">
        <ele>251</ele>
        <time>2010-01-01T01:23:48Z</time>
      </trkpt>
      <trkpt lat="47.69939" lon="6.01101">
        <ele>251</ele>
        <time>2010-01-01T01:23:49Z</time>
      </trkpt>
      <trkpt lat="47.69938" lon="6.011">
        <ele>251</ele>
        <time>2010-01-01T01:23:50Z</time>
      </trkpt>
      <trkpt lat="47.69936" lon="6.01097">
        <ele>251</ele>
        <time>2010-01-01T01:23:51Z</time>
      </trkpt>
      <trkpt lat="47.69935" lon="6.01095">
        <ele>251</ele>
        <time>2010-01-01T01:23:52Z</time>
      </trkpt>
      <trkpt lat="47.69934" lon="6.01093">
        <ele>251</ele>
        <time>2010-01-01T01:23:52Z</time>
      </trkpt>
      <trkpt lat="47.69933" lon="6.0109">
        <ele>251</ele>
        <time>2010-01-01T01:23:53Z</time>
      </trkpt>
      <trkpt lat="47.69931" lon="6.01087">
        <ele>251</ele>
        <time>2010-01-01T01:23:54Z</time>
      </trkpt>
      <trkpt lat="47.6993" lon="6.01085">
        <ele>251</ele>
        <time>2010-01-01T01:23:55Z</time>
      </trkpt>
      <trkpt lat="47.69928" lon="6.01083">
        <ele>251</ele>
        <time>2010-01-01T01:23:56Z</time>
      </trkpt>
      <trkpt lat="47.69926" lon="6.01081">
        <ele>251</ele>
        <time>2010-01-01T01:23:57Z</time>
      </trkpt>
      <trkpt lat="47.69925" lon="6.01078">
        <ele>251</ele>
        <time>2010-01-01T01:23:58Z</time>
      </trkpt>
      <trkpt lat="47.69924" lon="6.01075">
        <ele>251</ele>
        <time>2010-01-01T01:23:59Z</time>
      </trkpt>
      <trkpt lat="47.69922" lon="6.01073">
        <ele>252</ele>
        <time>2010-01-01T01:23:59Z</time>
      </trkpt>
      <trkpt lat="47.69921" lon="6.0107">
        <ele>252</ele>
        <time>2010-01-01T01:24:00Z</time>
      </trkpt>
      <trkpt lat="47.6992" lon="6.01067">
        <ele>253</ele>
        <time>2010-01-01T01:24:01Z</time>
      </trkpt>
      <trkpt lat="47.69919" lon="6.01064">
        <ele>253</ele>
        <time>2010-01-01T01:24:02Z</time>
      </trkpt>
      <trkpt lat="47.69918" lon="6.01061">
        <ele>253</ele>
        <time>2010-01-01T01:24:03Z</time>
      </trkpt>
      <trkpt lat="47.69917" lon="6.01058">
        <ele>253</ele>
        <time>2010-01-01T01:24:04Z</time>
      </trkpt>
      <trkpt lat="47.69916" lon="6.01056">
        <ele>253</ele>
        <time>2010-01-01T01:24:05Z</time>
      </trkpt>
      <trkpt lat="47.69914" lon="6.01053">
        <ele>253</ele>
        <time>2010-01-01T01:24:06Z</time>
      </trkpt>
      <trkpt lat="47.69913" lon="6.0105">
        <ele>253</ele>
        <time>2010-01-01T01:24:07Z</time>
      </trkpt>
      <trkpt lat="47.69912" lon="6.01048">
        <ele>253</ele>
        <time>2010-01-01T01:24:07Z</time>
      </trkpt>
      <trkpt lat="47.6991" lon="6.01045">
        <ele>253</ele>
        <time>2010-01-01T01:24:08Z</time>
      </trkpt>
      <trkpt lat="47.69908" lon="6.01043">
        <ele>253</ele>
        <time>2010-01-01T01:24:09Z</time>
      </trkpt>
      <trkpt lat="47.69906" lon="6.01041">
        <ele>253</ele>
        <time>2010-01-01T01:24:10Z</time>
      </trkpt>
      <trkpt lat="47.69904" lon="6.01039">
        <ele>253</ele>
        <time>2010-01-01T01:24:11Z</time>
      </trkpt>
      <trkpt lat="47.69902" lon="6.01037">
        <ele>253</ele>
        <time>2010-01-01T01:24:12Z</time>
      </trkpt>
      <trkpt lat="47.69899" lon="6.01035">
        <ele>253</ele>
        <time>2010-01-01T01:24:14Z</time>
      </trkpt>
      <trkpt lat="47.69897" lon="6.01032">
        <ele>253</ele>
        <time>2010-01-01T01:24:15Z</time>
      </trkpt>
      <trkpt lat="47.69895" lon="6.01031">
        <ele>253</ele>
        <time>2010-01-01T01:24:15Z</time>
      </trkpt>
      <trkpt lat="47.69894" lon="6.01028">
        <ele>253</ele>
        <time>2010-01-01T01:24:16Z</time>
      </trkpt>
      <trkpt lat="47.69892" lon="6.01026">
        <ele>253</ele>
        <time>2010-01-01T01:24:17Z</time>
      </trkpt>
      <trkpt lat="47.6989" lon="6.01025">
        <ele>253</ele>
        <time>2010-01-01T01:24:18Z</time>
      </trkpt>
      <trkpt lat="47.69889" lon="6.01023">
        <ele>253</ele>
        <time>2010-01-01T01:24:19Z</time>
      </trkpt>
      <trkpt lat="47.69887" lon="6.01022">
        <ele>253</ele>
        <time>2010-01-01T01:24:19Z</time>
      </trkpt>
      <trkpt lat="47.69886" lon="6.0102">
        <ele>254</ele>
        <time>2010-01-01T01:24:20Z</time>
      </trkpt>
      <trkpt lat="47.69884" lon="6.01019">
        <ele>254</ele>
        <time>2010-01-01T01:24:21Z</time>
      </trkpt>
      <trkpt lat="47.69883" lon="6.01017">
        <ele>255</ele>
        <time>2010-01-01T01:24:22Z</time>
      </trkpt>
      <trkpt lat="47.6988" lon="6.01016">
        <ele>255</ele>
        <time>2010-01-01T01:24:23Z</time>
      </trkpt>
      <trkpt lat="47.69877" lon="6.01014">
        <ele>256</ele>
        <time>2010-01-01T01:24:24Z</time>
      </trkpt>
      <trkpt lat="47.69874" lon="6.01013">
        <ele>256</ele>
        <time>2010-01-01T01:24:25Z</time>
      </trkpt>
      <trkpt lat="47.69872" lon="6.01012">
        <ele>256</ele>
        <time>2010-01-01T01:24:26Z</time>
      </trkpt>
      <trkpt lat="47.6987" lon="6.0101">
        <ele>256</ele>
        <time>2010-01-01T01:24:27Z</time>
      </trkpt>
      <trkpt lat="47.69868" lon="6.01009">
        <ele>256</ele>
        <time>2010-01-01T01:24:28Z</time>
      </trkpt>
      <trkpt lat="47.69865" lon="6.01007">
        <ele>256</ele>
        <time>2010-01-01T01:24:29Z</time>
      </trkpt>
      <trkpt lat="47.69862" lon="6.01005">
        <ele>256</ele>
        <time>2010-01-01T01:24:31Z</time>
      </trkpt>
      <trkpt lat="47.69859" lon="6.01004">
        <ele>256</ele>
        <time>2010-01-01T01:24:32Z</time>
      </trkpt>
      <trkpt lat="47.69856" lon="6.01001">
        <ele>256</ele>
        <time>2010-01-01T01:24:33Z</time>
      </trkpt>
      <trkpt lat="47.69854" lon="6.01">
        <ele>256</ele>
        <time>2010-01-01T01:24:34Z</time>
      </trkpt>
      <trkpt lat="47.69852" lon="6.00999">
        <ele>256</ele>
        <time>2010-01-01T01:24:35Z</time>
      </trkpt>
      <trkpt lat="47.6985" lon="6.00997">
        <ele>256</ele>
        <time>2010-01-01T01:24:36Z</time>
      </trkpt>
      <trkpt lat="47.69848" lon="6.00996">
        <ele>256</ele>
        <time>2010-01-01T01:24:37Z</time>
      </trkpt>
      <trkpt lat="47.69845" lon="6.00994">
        <ele>257</ele>
        <time>2010-01-01T01:24:38Z</time>
      </trkpt>
      <trkpt lat="47.69843" lon="6.00993">
        <ele>258</ele>
        <time>2010-01-01T01:24:39Z</time>
      </trkpt>
      <trkpt lat="47.69841" lon="6.00991">
        <ele>258</ele>
        <time>2010-01-01T01:24:40Z</time>
      </trkpt>
      <trkpt lat="47.69839" lon="6.0099">
        <ele>258</ele>
        <time>2010-01-01T01:24:41Z</time>
      </trkpt>
      <trkpt lat="47.69837" lon="6.00988">
        <ele>258</ele>
        <time>2010-01-01T01:24:42Z</time>
      </trkpt>
      <trkpt lat="47.69835" lon="6.00987">
        <ele>258</ele>
        <time>2010-01-01T01:24:42Z</time>
      </trkpt>
      <trkpt lat="47.69833" lon="6.00986">
        <ele>258</ele>
        <time>2010-01-01T01:24:43Z</time>
      </trkpt>
      <trkpt lat="47.69831" lon="6.00984">
        <ele>258</ele>
        <time>2010-01-01T01:24:44Z</time>
      </trkpt>
      <trkpt lat="47.69828" lon="6.00983">
        <ele>258</ele>
        <time>2010-01-01T01:24:45Z</time>
      </trkpt>
      <trkpt lat="47.69826" lon="6.00982">
        <ele>258</ele>
        <time>2010-01-01T01:24:46Z</time>
      </trkpt>
      <trkpt lat="47.69825" lon="6.00981">
        <ele>258</ele>
        <time>2010-01-01T01:24:47Z</time>
      </trkpt>
      <trkpt lat="47.69823" lon="6.0098">
        <ele>258</ele>
        <time>2010-01-01T01:24:48Z</time>
      </trkpt>
      <trkpt lat="47.69821" lon="6.00978">
        <ele>258</ele>
        <time>2010-01-01T01:24:48Z</time>
      </trkpt>
      <trkpt lat="47.6982" lon="6.00977">
        <ele>258</ele>
        <time>2010-01-01T01:24:49Z</time>
      </trkpt>
      <trkpt lat="47.69819" lon="6.00975">
        <ele>258</ele>
        <time>2010-01-01T01:24:50Z</time>
      </trkpt>
      <trkpt lat="47.69817" lon="6.00973">
        <ele>258</ele>
        <time>2010-01-01T01:24:51Z</time>
      </trkpt>
      <trkpt lat="47.69816" lon="6.00972">
        <ele>259</ele>
        <time>2010-01-01T01:24:51Z</time>
      </trkpt>
      <trkpt lat="47.69814" lon="6.0097">
        <ele>259</ele>
        <time>2010-01-01T01:24:52Z</time>
      </trkpt>
      <trkpt lat="47.69812" lon="6.00969">
        <ele>260</ele>
        <time>2010-01-01T01:24:53Z</time>
      </trkpt>
      <trkpt lat="47.6981" lon="6.00968">
        <ele>260</ele>
        <time>2010-01-01T01:24:54Z</time>
      </trkpt>
      <trkpt lat="47.69809" lon="6.00967">
        <ele>260</ele>
        <time>2010-01-01T01:24:54Z</time>
      </trkpt>
      <trkpt lat="47.69807" lon="6.00965">
        <ele>260</ele>
        <time>2010-01-01T01:24:55Z</time>
      </trkpt>
      <trkpt lat="47.69805" lon="6.00963">
        <ele>260</ele>
        <time>2010-01-01T01:24:56Z</time>
      </trkpt>
      <trkpt lat="47.69803" lon="6.00962">
        <ele>260</ele>
        <time>2010-01-01T01:24:57Z</time>
      </trkpt>
      <trkpt lat="47.69801" lon="6.00961">
        <ele>260</ele>
        <time>2010-01-01T01:24:58Z</time>
      </trkpt>
      <trkpt lat="47.69799" lon="6.00959">
        <ele>260</ele>
        <time>2010-01-01T01:24:59Z</time>
      </trkpt>
      <trkpt lat="47.69797" lon="6.00958">
        <ele>260</ele>
        <time>2010-01-01T01:25:00Z</time>
      </trkpt>
      <trkpt lat="47.69795" lon="6.00957">
        <ele>260</ele>
        <time>2010-01-01T01:25:00Z</time>
      </trkpt>
      <trkpt lat="47.69793" lon="6.00955">
        <ele>260</ele>
        <time>2010-01-01T01:25:01Z</time>
      </trkpt>
      <trkpt lat="47.69791" lon="6.00954">
        <ele>260</ele>
        <time>2010-01-01T01:25:02Z</time>
      </trkpt>
      <trkpt lat="47.69789" lon="6.00952">
        <ele>260</ele>
        <time>2010-01-01T01:25:03Z</time>
      </trkpt>
      <trkpt lat="47.69787" lon="6.00951">
        <ele>260</ele>
        <time>2010-01-01T01:25:04Z</time>
      </trkpt>
      <trkpt lat="47.69785" lon="6.00949">
        <ele>260</ele>
        <time>2010-01-01T01:25:05Z</time>
      </trkpt>
      <trkpt lat="47.69784" lon="6.00948">
        <ele>261</ele>
        <time>2010-01-01T01:25:06Z</time>
      </trkpt>
      <trkpt lat="47.69782" lon="6.00946">
        <ele>261</ele>
        <time>2010-01-01T01:25:07Z</time>
      </trkpt>
      <trkpt lat="47.6978" lon="6.00945">
        <ele>262</ele>
        <time>2010-01-01T01:25:07Z</time>
      </trkpt>
      <trkpt lat="47.69779" lon="6.00943">
        <ele>262</ele>
        <time>2010-01-01T01:25:08Z</time>
      </trkpt>
      <trkpt lat="47.69777" lon="6.00942">
        <ele>262</ele>
        <time>2010-01-01T01:25:09Z</time>
      </trkpt>
      <trkpt lat="47.69775" lon="6.00941">
        <ele>262</ele>
        <time>2010-01-01T01:25:10Z</time>
      </trkpt>
      <trkpt lat="47.69774" lon="6.0094">
        <ele>262</ele>
        <time>2010-01-01T01:25:10Z</time>
      </trkpt>
      <trkpt lat="47.69772" lon="6.00939">
        <ele>262</ele>
        <time>2010-01-01T01:25:11Z</time>
      </trkpt>
      <trkpt lat="47.6977" lon="6.00938">
        <ele>262</ele>
        <time>2010-01-01T01:25:12Z</time>
      </trkpt>
      <trkpt lat="47.69769" lon="6.00936">
        <ele>262</ele>
        <time>2010-01-01T01:25:13Z</time>
      </trkpt>
      <trkpt lat="47.69767" lon="6.00935">
        <ele>262</ele>
        <time>2010-01-01T01:25:13Z</time>
      </trkpt>
      <trkpt lat="47.69765" lon="6.00933">
        <ele>262</ele>
        <time>2010-01-01T01:25:14Z</time>
      </trkpt>
      <trkpt lat="47.69764" lon="6.00932">
        <ele>262</ele>
        <time>2010-01-01T01:25:15Z</time>
      </trkpt>
      <trkpt lat="47.69763" lon="6.00931">
        <ele>262</ele>
        <time>2010-01-01T01:25:15Z</time>
      </trkpt>
      <trkpt lat="47.69761" lon="6.00929">
        <ele>262</ele>
        <time>2010-01-01T01:25:16Z</time>
      </trkpt>
      <trkpt lat="47.6976" lon="6.00928">
        <ele>262</ele>
        <time>2010-01-01T01:25:17Z</time>
      </trkpt>
      <trkpt lat="47.69759" lon="6.00926">
        <ele>262</ele>
        <time>2010-01-01T01:25:17Z</time>
      </trkpt>
      <trkpt lat="47.69758" lon="6.00924">
        <ele>262</ele>
        <time>2010-01-01T01:25:18Z</time>
      </trkpt>
      <trkpt lat="47.69758" lon="6.00922">
        <ele>262</ele>
        <time>2010-01-01T01:25:19Z</time>
      </trkpt>
      <trkpt lat="47.69757" lon="6.0092">
        <ele>262</ele>
        <time>2010-01-01T01:25:19Z</time>
      </trkpt>
      <trkpt lat="47.69756" lon="6.00917">
        <ele>262</ele>
        <time>2010-01-01T01:25:20Z</time>
      </trkpt>
      <trkpt lat="47.69756" lon="6.00913">
        <ele>262</ele>
        <time>2010-01-01T01:25:21Z</time>
      </trkpt>
      <trkpt lat="47.69756" lon="6.0091">
        <ele>262</ele>
        <time>2010-01-01T01:25:22Z</time>
      </trkpt>
      <trkpt lat="47.69756" lon="6.00907">
        <ele>262</ele>
        <time>2010-01-01T01:25:23Z</time>
      </trkpt>
      <trkpt lat="47.69756" lon="6.00904">
        <ele>262</ele>
        <time>2010-01-01T01:25:24Z</time>
      </trkpt>
      <trkpt lat="47.69756" lon="6.00901">
        <ele>263</ele>
        <time>2010-01-01T01:25:24Z</time>
      </trkpt>
      <trkpt lat="47.69757" lon="6.00898">
        <ele>263</ele>
        <time>2010-01-01T01:25:25Z</time>
      </trkpt>
      <trkpt lat="47.69758" lon="6.00895">
        <ele>264</ele>
        <time>2010-01-01T01:25:26Z</time>
      </trkpt>
      <trkpt lat="47.69758" lon="6.00892">
        <ele>264</ele>
        <time>2010-01-01T01:25:27Z</time>
      </trkpt>
      <trkpt lat="47.69759" lon="6.00889">
        <ele>264</ele>
        <time>2010-01-01T01:25:28Z</time>
      </trkpt>
      <trkpt lat="47.6976" lon="6.00886">
        <ele>264</ele>
        <time>2010-01-01T01:25:29Z</time>
      </trkpt>
      <trkpt lat="47.6976" lon="6.00884">
        <ele>264</ele>
        <time>2010-01-01T01:25:29Z</time>
      </trkpt>
      <trkpt lat="47.69761" lon="6.0088">
        <ele>264</ele>
        <time>2010-01-01T01:25:30Z</time>
      </trkpt>
      <trkpt lat="47.69761" lon="6.00878">
        <ele>264</ele>
        <time>2010-01-01T01:25:31Z</time>
      </trkpt>
      <trkpt lat="47.69762" lon="6.00875">
        <ele>264</ele>
        <time>2010-01-01T01:25:32Z</time>
      </trkpt>
      <trkpt lat="47.69763" lon="6.00872">
        <ele>264</ele>
        <time>2010-01-01T01:25:33Z</time>
      </trkpt>
      <trkpt lat="47.69763" lon="6.00869">
        <ele>264</ele>
        <time>2010-01-01T01:25:34Z</time>
      </trkpt>
      <trkpt lat="47.69764" lon="6.00866">
        <ele>264</ele>
        <time>2010-01-01T01:25:34Z</time>
      </trkpt>
      <trkpt lat="47.69765" lon="6.00863">
        <ele>264</ele>
        <time>2010-01-01T01:25:35Z</time>
      </trkpt>
      <trkpt lat="47.69766" lon="6.0086">
        <ele>264</ele>
        <time>2010-01-01T01:25:36Z</time>
      </trkpt>
      <trkpt lat="47.69766" lon="6.00858">
        <ele>264</ele>
        <time>2010-01-01T01:25:37Z</time>
      </trkpt>
      <trkpt lat="47.69767" lon="6.00854">
        <ele>264</ele>
        <time>2010-01-01T01:25:38Z</time>
      </trkpt>
      <trkpt lat="47.69767" lon="6.00851">
        <ele>264</ele>
        <time>2010-01-01T01:25:39Z</time>
      </trkpt>
      <trkpt lat="47.69768" lon="6.00848">
        <ele>264</ele>
        <time>2010-01-01T01:25:39Z</time>
      </trkpt>
      <trkpt lat="47.69768" lon="6.00845">
        <ele>264</ele>
        <time>2010-01-01T01:25:40Z</time>
      </trkpt>
      <trkpt lat="47.69768" lon="6.00842">
        <ele>264</ele>
        <time>2010-01-01T01:25:41Z</time>
      </trkpt>
      <trkpt lat="47.69768" lon="6.00838">
        <ele>264</ele>
        <time>2010-01-01T01:25:42Z</time>
      </trkpt>
      <trkpt lat="47.69769" lon="6.00835">
        <ele>264</ele>
        <time>2010-01-01T01:25:43Z</time>
      </trkpt>
      <trkpt lat="47.69769" lon="6.00832">
        <ele>264</ele>
        <time>2010-01-01T01:25:44Z</time>
      </trkpt>
      <trkpt lat="47.6977" lon="6.00829">
        <ele>264</ele>
        <time>2010-01-01T01:25:45Z</time>
      </trkpt>
      <trkpt lat="47.6977" lon="6.00825">
        <ele>264</ele>
        <time>2010-01-01T01:25:46Z</time>
      </trkpt>
      <trkpt lat="47.69771" lon="6.00822">
        <ele>264</ele>
        <time>2010-01-01T01:25:47Z</time>
      </trkpt>
      <trkpt lat="47.69771" lon="6.00819">
        <ele>264</ele>
        <time>2010-01-01T01:25:48Z</time>
      </trkpt>
      <trkpt lat="47.69772" lon="6.00815">
        <ele>264</ele>
        <time>2010-01-01T01:25:48Z</time>
      </trkpt>
      <trkpt lat="47.69772" lon="6.00812">
        <ele>264</ele>
        <time>2010-01-01T01:25:49Z</time>
      </trkpt>
      <trkpt lat="47.69773" lon="6.00809">
        <ele>265</ele>
        <time>2010-01-01T01:25:50Z</time>
      </trkpt>
      <trkpt lat="47.69773" lon="6.00806">
        <ele>265</ele>
        <time>2010-01-01T01:25:51Z</time>
      </trkpt>
      <trkpt lat="47.69773" lon="6.00803">
        <ele>265</ele>
        <time>2010-01-01T01:25:52Z</time>
      </trkpt>
      <trkpt lat="47.69773" lon="6.008">
        <ele>266</ele>
        <time>2010-01-01T01:25:53Z</time>
      </trkpt>
      <trkpt lat="47.69773" lon="6.00797">
        <ele>266</ele>
        <time>2010-01-01T01:25:53Z</time>
      </trkpt>
      <trkpt lat="47.69773" lon="6.00794">
        <ele>266</ele>
        <time>2010-01-01T01:25:54Z</time>
      </trkpt>
      <trkpt lat="47.69773" lon="6.00791">
        <ele>266</ele>
        <time>2010-01-01T01:25:55Z</time>
      </trkpt>
      <trkpt lat="47.69774" lon="6.00787">
        <ele>266</ele>
        <time>2010-01-01T01:25:56Z</time>
      </trkpt>
      <trkpt lat="47.69775" lon="6.00784">
        <ele>266</ele>
        <time>2010-01-01T01:25:57Z</time>
      </trkpt>
      <trkpt lat="47.69775" lon="6.00782">
        <ele>266</ele>
        <time>2010-01-01T01:25:58Z</time>
      </trkpt>
      <trkpt lat="47.69775" lon="6.00779">
        <ele>266</ele>
        <time>2010-01-01T01:25:58Z</time>
      </trkpt>
      <trkpt lat="47.69775" lon="6.00776">
        <ele>266</ele>
        <time>2010-01-01T01:25:59Z</time>
      </trkpt>
      <trkpt lat="47.69776" lon="6.00773">
        <ele>266</ele>
        <time>2010-01-01T01:26:00Z</time>
      </trkpt>
      <trkpt lat="47.69776" lon="6.0077">
        <ele>266</ele>
        <time>2010-01-01T01:26:01Z</time>
      </trkpt>
      <trkpt lat="47.69777" lon="6.00767">
        <ele>266</ele>
        <time>2010-01-01T01:26:02Z</time>
      </trkpt>
      <trkpt lat="47.69778" lon="6.00763">
        <ele>266</ele>
        <time>2010-01-01T01:26:03Z</time>
      </trkpt>
      <trkpt lat="47.69779" lon="6.00759">
        <ele>266</ele>
        <time>2010-01-01T01:26:04Z</time>
      </trkpt>
      <trkpt lat="47.6978" lon="6.00754">
        <ele>266</ele>
        <time>2010-01-01T01:26:05Z</time>
      </trkpt>
      <trkpt lat="47.69781" lon="6.0075">
        <ele>266</ele>
        <time>2010-01-01T01:26:07Z</time>
      </trkpt>
      <trkpt lat="47.69782" lon="6.00747">
        <ele>266</ele>
        <time>2010-01-01T01:26:08Z</time>
      </trkpt>
      <trkpt lat="47.69783" lon="6.00743">
        <ele>266</ele>
        <time>2010-01-01T01:26:09Z</time>
      </trkpt>
      <trkpt lat="47.69783" lon="6.00739">
        <ele>266</ele>
        <time>2010-01-01T01:26:10Z</time>
      </trkpt>
      <trkpt lat="47.69783" lon="6.00735">
        <ele>266</ele>
        <time>2010-01-01T01:26:11Z</time>
      </trkpt>
      <trkpt lat="47.69784" lon="6.00732">
        <ele>266</ele>
        <time>2010-01-01T01:26:12Z</time>
      </trkpt>
      <trkpt lat="47.69785" lon="6.00728">
        <ele>266</ele>
        <time>2010-01-01T01:26:13Z</time>
      </trkpt>
      <trkpt lat="47.69786" lon="6.00725">
        <ele>266</ele>
        <time>2010-01-01T01:26:14Z</time>
      </trkpt>
      <trkpt lat="47.69787" lon="6.00722">
        <ele>266</ele>
        <time>2010-01-01T01:26:15Z</time>
      </trkpt>
      <trkpt lat="47.69788" lon="6.0072">
        <ele>266</ele>
        <time>2010-01-01T01:26:15Z</time>
      </trkpt>
      <trkpt lat="47.69789" lon="6.00717">
        <ele>266</ele>
        <time>2010-01-01T01:26:16Z</time>
      </trkpt>
      <trkpt lat="47.6979" lon="6.00714">
        <ele>266</ele>
        <time>2010-01-01T01:26:17Z</time>
      </trkpt>
      <trkpt lat="47.6979" lon="6.00711">
        <ele>266</ele>
        <time>2010-01-01T01:26:18Z</time>
      </trkpt>
      <trkpt lat="47.69791" lon="6.00708">
        <ele>266</ele>
        <time>2010-01-01T01:26:19Z</time>
      </trkpt>
      <trkpt lat="47.69792" lon="6.00706">
        <ele>266</ele>
        <time>2010-01-01T01:26:19Z</time>
      </trkpt>
      <trkpt lat="47.69793" lon="6.00703">
        <ele>266</ele>
        <time>2010-01-01T01:26:20Z</time>
      </trkpt>
      <trkpt lat="47.69794" lon="6.00701">
        <ele>267</ele>
        <time>2010-01-01T01:26:21Z</time>
      </trkpt>
      <trkpt lat="47.69795" lon="6.00698">
        <ele>267</ele>
        <time>2010-01-01T01:26:22Z</time>
      </trkpt>
      <trkpt lat="47.69796" lon="6.00696">
        <ele>268</ele>
        <time>2010-01-01T01:26:23Z</time>
      </trkpt>
      <trkpt lat="47.69796" lon="6.00693">
        <ele>268</ele>
        <time>2010-01-01T01:26:23Z</time>
      </trkpt>
      <trkpt lat="47.69797" lon="6.00691">
        <ele>268</ele>
        <time>2010-01-01T01:26:24Z</time>
      </trkpt>
      <trkpt lat="47.69798" lon="6.00689">
        <ele>268</ele>
        <time>2010-01-01T01:26:25Z</time>
      </trkpt>
      <trkpt lat="47.69799" lon="6.00687">
        <ele>268</ele>
        <time>2010-01-01T01:26:25Z</time>
      </trkpt>
      <trkpt lat="47.698" lon="6.00684">
        <ele>268</ele>
        <time>2010-01-01T01:26:26Z</time>
      </trkpt>
      <trkpt lat="47.69801" lon="6.00682">
        <ele>268</ele>
        <time>2010-01-01T01:26:27Z</time>
      </trkpt>
      <trkpt lat="47.69802" lon="6.0068">
        <ele>268</ele>
        <time>2010-01-01T01:26:27Z</time>
      </trkpt>
      <trkpt lat="47.69803" lon="6.00678">
        <ele>268</ele>
        <time>2010-01-01T01:26:28Z</time>
      </trkpt>
      <trkpt lat="47.69804" lon="6.00676">
        <ele>268</ele>
        <time>2010-01-01T01:26:29Z</time>
      </trkpt>
      <trkpt lat="47.69805" lon="6.00674">
        <ele>268</ele>
        <time>2010-01-01T01:26:29Z</time>
      </trkpt>
      <trkpt lat="47.69806" lon="6.00672">
        <ele>268</ele>
        <time>2010-01-01T01:26:30Z</time>
      </trkpt>
      <trkpt lat="47.69807" lon="6.0067">
        <ele>268</ele>
        <time>2010-01-01T01:26:31Z</time>
      </trkpt>
      <trkpt lat="47.69807" lon="6.00668">
        <ele>269</ele>
        <time>2010-01-01T01:26:31Z</time>
      </trkpt>
      <trkpt lat="47.69808" lon="6.00666">
        <ele>269</ele>
        <time>2010-01-01T01:26:32Z</time>
      </trkpt>
      <trkpt lat="47.69809" lon="6.00664">
        <ele>269</ele>
        <time>2010-01-01T01:26:33Z</time>
      </trkpt>
      <trkpt lat="47.69809" lon="6.00661">
        <ele>270</ele>
        <time>2010-01-01T01:26:33Z</time>
      </trkpt>
      <trkpt lat="47.6981" lon="6.00659">
        <ele>270</ele>
        <time>2010-01-01T01:26:34Z</time>
      </trkpt>
      <trkpt lat="47.6981" lon="6.00657">
        <ele>270</ele>
        <time>2010-01-01T01:26:35Z</time>
      </trkpt>
      <trkpt lat="47.6981" lon="6.00654">
        <ele>270</ele>
        <time>2010-01-01T01:26:35Z</time>
      </trkpt>
      <trkpt lat="47.69811" lon="6.00652">
        <ele>270</ele>
        <time>2010-01-01T01:26:36Z</time>
      </trkpt>
      <trkpt lat="47.69811" lon="6.0065">
        <ele>270</ele>
        <time>2010-01-01T01:26:36Z</time>
      </trkpt>
      <trkpt lat="47.69812" lon="6.00648">
        <ele>270</ele>
        <time>2010-01-01T01:26:37Z</time>
      </trkpt>
      <trkpt lat="47.69813" lon="6.00646">
        <ele>270</ele>
        <time>2010-01-01T01:26:38Z</time>
      </trkpt>
      <trkpt lat="47.69814" lon="6.00644">
        <ele>270</ele>
        <time>2010-01-01T01:26:38Z</time>
      </trkpt>
      <trkpt lat="47.69815" lon="6.00642">
        <ele>270</ele>
        <time>2010-01-01T01:26:39Z</time>
      </trkpt>
      <trkpt lat="47.69815" lon="6.0064">
        <ele>270</ele>
        <time>2010-01-01T01:26:40Z</time>
      </trkpt>
      <trkpt lat="47.69816" lon="6.00637">
        <ele>271</ele>
        <time>2010-01-01T01:26:41Z</time>
      </trkpt>
      <trkpt lat="47.69817" lon="6.00635">
        <ele>271</ele>
        <time>2010-01-01T01:26:41Z</time>
      </trkpt>
      <trkpt lat="47.69819" lon="6.00633">
        <ele>272</ele>
        <time>2010-01-01T01:26:42Z</time>
      </trkpt>
      <trkpt lat="47.6982" lon="6.00631">
        <ele>272</ele>
        <time>2010-01-01T01:26:43Z</time>
      </trkpt>
      <trkpt lat="47.69821" lon="6.0063">
        <ele>272</ele>
        <time>2010-01-01T01:26:43Z</time>
      </trkpt>
      <trkpt lat="47.69822" lon="6.00628">
        <ele>272</ele>
        <time>2010-01-01T01:26:44Z</time>
      </trkpt>
      <trkpt lat="47.69823" lon="6.00627">
        <ele>272</ele>
        <time>2010-01-01T01:26:44Z</time>
      </trkpt>
      <trkpt lat="47.69824" lon="6.00625">
        <ele>272</ele>
        <time>2010-01-01T01:26:45Z</time>
      </trkpt>
      <trkpt lat="47.69825" lon="6.00623">
        <ele>272</ele>
        <time>2010-01-01T01:26:46Z</time>
      </trkpt>
      <trkpt lat="47.69825" lon="6.00619">
        <ele>272</ele>
        <time>2010-01-01T01:26:47Z</time>
      </trkpt>
      <trkpt lat="47.69825" lon="6.00616">
        <ele>272</ele>
        <time>2010-01-01T01:26:47Z</time>
      </trkpt>
      <trkpt lat="47.69826" lon="6.00613">
        <ele>272</ele>
        <time>2010-01-01T01:26:48Z</time>
      </trkpt>
      <trkpt lat="47.69825" lon="6.00609">
        <ele>272</ele>
        <time>2010-01-01T01:26:49Z</time>
      </trkpt>
      <trkpt lat="47.69825" lon="6.00605">
        <ele>272</ele>
        <time>2010-01-01T01:26:50Z</time>
      </trkpt>
      <trkpt lat="47.69826" lon="6.00602">
        <ele>273</ele>
        <time>2010-01-01T01:26:51Z</time>
      </trkpt>
      <trkpt lat="47.69826" lon="6.00599">
        <ele>273</ele>
        <time>2010-01-01T01:26:52Z</time>
      </trkpt>
      <trkpt lat="47.69827" lon="6.00596">
        <ele>274</ele>
        <time>2010-01-01T01:26:53Z</time>
      </trkpt>
      <trkpt lat="47.69828" lon="6.00593">
        <ele>274</ele>
        <time>2010-01-01T01:26:54Z</time>
      </trkpt>
      <trkpt lat="47.69829" lon="6.00591">
        <ele>274</ele>
        <time>2010-01-01T01:26:55Z</time>
      </trkpt>
      <trkpt lat="47.6983" lon="6.00588">
        <ele>274</ele>
        <time>2010-01-01T01:26:55Z</time>
      </trkpt>
      <trkpt lat="47.6983" lon="6.00585">
        <ele>274</ele>
        <time>2010-01-01T01:26:56Z</time>
      </trkpt>
      <trkpt lat="47.69831" lon="6.00583">
        <ele>274</ele>
        <time>2010-01-01T01:26:57Z</time>
      </trkpt>
      <trkpt lat="47.69831" lon="6.0058">
        <ele>274</ele>
        <time>2010-01-01T01:26:58Z</time>
      </trkpt>
      <trkpt lat="47.69831" lon="6.00577">
        <ele>274</ele>
        <time>2010-01-01T01:26:58Z</time>
      </trkpt>
      <trkpt lat="47.69832" lon="6.00575">
        <ele>274</ele>
        <time>2010-01-01T01:26:59Z</time>
      </trkpt>
      <trkpt lat="47.69832" lon="6.00572">
        <ele>275</ele>
        <time>2010-01-01T01:27:00Z</time>
      </trkpt>
      <trkpt lat="47.69833" lon="6.00569">
        <ele>275</ele>
        <time>2010-01-01T01:27:01Z</time>
      </trkpt>
      <trkpt lat="47.69834" lon="6.00566">
        <ele>276</ele>
        <time>2010-01-01T01:27:02Z</time>
      </trkpt>
      <trkpt lat="47.69835" lon="6.00563">
        <ele>276</ele>
        <time>2010-01-01T01:27:03Z</time>
      </trkpt>
      <trkpt lat="47.69836" lon="6.0056">
        <ele>276</ele>
        <time>2010-01-01T01:27:03Z</time>
      </trkpt>
      <trkpt lat="47.69837" lon="6.00558">
        <ele>276</ele>
        <time>2010-01-01T01:27:04Z</time>
      </trkpt>
      <trkpt lat="47.69838" lon="6.00555">
        <ele>276</ele>
        <time>2010-01-01T01:27:05Z</time>
      </trkpt>
      <trkpt lat="47.69839" lon="6.00553">
        <ele>276</ele>
        <time>2010-01-01T01:27:06Z</time>
      </trkpt>
      <trkpt lat="47.6984" lon="6.0055">
        <ele>276</ele>
        <time>2010-01-01T01:27:07Z</time>
      </trkpt>
      <trkpt lat="47.69841" lon="6.00547">
        <ele>276</ele>
        <time>2010-01-01T01:27:07Z</time>
      </trkpt>
      <trkpt lat="47.69842" lon="6.00544">
        <ele>276</ele>
        <time>2010-01-01T01:27:08Z</time>
      </trkpt>
      <trkpt lat="47.69843" lon="6.00542">
        <ele>276</ele>
        <time>2010-01-01T01:27:09Z</time>
      </trkpt>
      <trkpt lat="47.69845" lon="6.00539">
        <ele>276</ele>
        <time>2010-01-01T01:27:10Z</time>
      </trkpt>
      <trkpt lat="47.69847" lon="6.00537">
        <ele>276</ele>
        <time>2010-01-01T01:27:11Z</time>
      </trkpt>
      <trkpt lat="47.69848" lon="6.00535">
        <ele>276</ele>
        <time>2010-01-01T01:27:12Z</time>
      </trkpt>
      <trkpt lat="47.6985" lon="6.00532">
        <ele>276</ele>
        <time>2010-01-01T01:27:13Z</time>
      </trkpt>
      <trkpt lat="47.69852" lon="6.0053">
        <ele>276</ele>
        <time>2010-01-01T01:27:14Z</time>
      </trkpt>
      <trkpt lat="47.69853" lon="6.00527">
        <ele>276</ele>
        <time>2010-01-01T01:27:15Z</time>
      </trkpt>
      <trkpt lat="47.69855" lon="6.00525">
        <ele>276</ele>
        <time>2010-01-01T01:27:16Z</time>
      </trkpt>
      <trkpt lat="47.69856" lon="6.00523">
        <ele>276</ele>
        <time>2010-01-01T01:27:16Z</time>
      </trkpt>
      <trkpt lat="47.69857" lon="6.00521">
        <ele>276</ele>
        <time>2010-01-01T01:27:17Z</time>
      </trkpt>
      <trkpt lat="47.69858" lon="6.00519">
        <ele>276</ele>
        <time>2010-01-01T01:27:18Z</time>
      </trkpt>
      <trkpt lat="47.69859" lon="6.00516">
        <ele>276</ele>
        <time>2010-01-01T01:27:19Z</time>
      </trkpt>
      <trkpt lat="47.6986" lon="6.00514">
        <ele>276</ele>
        <time>2010-01-01T01:27:19Z</time>
      </trkpt>
      <trkpt lat="47.69861" lon="6.00512">
        <ele>276</ele>
        <time>2010-01-01T01:27:20Z</time>
      </trkpt>
      <trkpt lat="47.69862" lon="6.00511">
        <ele>276</ele>
        <time>2010-01-01T01:27:21Z</time>
      </trkpt>
      <trkpt lat="47.69863" lon="6.00509">
        <ele>276</ele>
        <time>2010-01-01T01:27:21Z</time>
      </trkpt>
      <trkpt lat="47.69864" lon="6.00507">
        <ele>276</ele>
        <time>2010-01-01T01:27:22Z</time>
      </trkpt>
      <trkpt lat="47.69865" lon="6.00505">
        <ele>276</ele>
        <time>2010-01-01T01:27:23Z</time>
      </trkpt>
      <trkpt lat="47.69866" lon="6.00502">
        <ele>276</ele>
        <time>2010-01-01T01:27:23Z</time>
      </trkpt>
      <trkpt lat="47.69867" lon="6.005">
        <ele>276</ele>
        <time>2010-01-01T01:27:24Z</time>
      </trkpt>
      <trkpt lat="47.69868" lon="6.00498">
        <ele>277</ele>
        <time>2010-01-01T01:27:25Z</time>
      </trkpt>
      <trkpt lat="47.69869" lon="6.00496">
        <ele>277</ele>
        <time>2010-01-01T01:27:25Z</time>
      </trkpt>
      <trkpt lat="47.6987" lon="6.00494">
        <ele>278</ele>
        <time>2010-01-01T01:27:26Z</time>
      </trkpt>
      <trkpt lat="47.69871" lon="6.00491">
        <ele>278</ele>
        <time>2010-01-01T01:27:27Z</time>
      </trkpt>
      <trkpt lat="47.69872" lon="6.00489">
        <ele>278</ele>
        <time>2010-01-01T01:27:28Z</time>
      </trkpt>
      <trkpt lat="47.69873" lon="6.00486">
        <ele>278</ele>
        <time>2010-01-01T01:27:29Z</time>
      </trkpt>
      <trkpt lat="47.69874" lon="6.00484">
        <ele>278</ele>
        <time>2010-01-01T01:27:29Z</time>
      </trkpt>
      <trkpt lat="47.69875" lon="6.00481">
        <ele>278</ele>
        <time>2010-01-01T01:27:30Z</time>
      </trkpt>
      <trkpt lat="47.69877" lon="6.00478">
        <ele>278</ele>
        <time>2010-01-01T01:27:31Z</time>
      </trkpt>
      <trkpt lat="47.69878" lon="6.00475">
        <ele>278</ele>
        <time>2010-01-01T01:27:32Z</time>
      </trkpt>
      <trkpt lat="47.6988" lon="6.00471">
        <ele>278</ele>
        <time>2010-01-01T01:27:33Z</time>
      </trkpt>
      <trkpt lat="47.69881" lon="6.00468">
        <ele>278</ele>
        <time>2010-01-01T01:27:34Z</time>
      </trkpt>
      <trkpt lat="47.69883" lon="6.00465">
        <ele>278</ele>
        <time>2010-01-01T01:27:35Z</time>
      </trkpt>
      <trkpt lat="47.69884" lon="6.00463">
        <ele>278</ele>
        <time>2010-01-01T01:27:36Z</time>
      </trkpt>
      <trkpt lat="47.69885" lon="6.0046">
        <ele>279</ele>
        <time>2010-01-01T01:27:37Z</time>
      </trkpt>
      <trkpt lat="47.69886" lon="6.00458">
        <ele>279</ele>
        <time>2010-01-01T01:27:38Z</time>
      </trkpt>
      <trkpt lat="47.69887" lon="6.00455">
        <ele>280</ele>
        <time>2010-01-01T01:27:39Z</time>
      </trkpt>
      <trkpt lat="47.69888" lon="6.00453">
        <ele>280</ele>
        <time>2010-01-01T01:27:39Z</time>
      </trkpt>
      <trkpt lat="47.69889" lon="6.00451">
        <ele>280</ele>
        <time>2010-01-01T01:27:40Z</time>
      </trkpt>
      <trkpt lat="47.6989" lon="6.00449">
        <ele>280</ele>
        <time>2010-01-01T01:27:41Z</time>
      </trkpt>
      <trkpt lat="47.69892" lon="6.00447">
        <ele>280</ele>
        <time>2010-01-01T01:27:41Z</time>
      </trkpt>
      <trkpt lat="47.69893" lon="6.00445">
        <ele>280</ele>
        <time>2010-01-01T01:27:42Z</time>
      </trkpt>
      <trkpt lat="47.69894" lon="6.00443">
        <ele>280</ele>
        <time>2010-01-01T01:27:43Z</time>
      </trkpt>
      <trkpt lat="47.69895" lon="6.00441">
        <ele>280</ele>
        <time>2010-01-01T01:27:44Z</time>
      </trkpt>
      <trkpt lat="47.69896" lon="6.00438">
        <ele>280</ele>
        <time>2010-01-01T01:27:44Z</time>
      </trkpt>
      <trkpt lat="47.69897" lon="6.00436">
        <ele>280</ele>
        <time>2010-01-01T01:27:45Z</time>
      </trkpt>
      <trkpt lat="47.69898" lon="6.00433">
        <ele>280</ele>
        <time>2010-01-01T01:27:46Z</time>
      </trkpt>
      <trkpt lat="47.69899" lon="6.00431">
        <ele>280</ele>
        <time>2010-01-01T01:27:47Z</time>
      </trkpt>
      <trkpt lat="47.699" lon="6.00429">
        <ele>280</ele>
        <time>2010-01-01T01:27:47Z</time>
      </trkpt>
      <trkpt lat="47.69901" lon="6.00427">
        <ele>280</ele>
        <time>2010-01-01T01:27:48Z</time>
      </trkpt>
      <trkpt lat="47.69902" lon="6.00424">
        <ele>280</ele>
        <time>2010-01-01T01:27:49Z</time>
      </trkpt>
      <trkpt lat="47.69903" lon="6.00422">
        <ele>281</ele>
        <time>2010-01-01T01:27:50Z</time>
      </trkpt>
      <trkpt lat="47.69904" lon="6.0042">
        <ele>281</ele>
        <time>2010-01-01T01:27:50Z</time>
      </trkpt>
      <trkpt lat="47.69905" lon="6.00419">
        <ele>282</ele>
        <time>2010-01-01T01:27:51Z</time>
      </trkpt>
      <trkpt lat="47.69907" lon="6.00417">
        <ele>282</ele>
        <time>2010-01-01T01:27:52Z</time>
      </trkpt>
      <trkpt lat="47.69907" lon="6.00414">
        <ele>282</ele>
        <time>2010-01-01T01:27:52Z</time>
      </trkpt>
      <trkpt lat="47.69908" lon="6.00412">
        <ele>282</ele>
        <time>2010-01-01T01:27:53Z</time>
      </trkpt>
      <trkpt lat="47.6991" lon="6.00409">
        <ele>282</ele>
        <time>2010-01-01T01:27:54Z</time>
      </trkpt>
      <trkpt lat="47.6991" lon="6.00407">
        <ele>282</ele>
        <time>2010-01-01T01:27:55Z</time>
      </trkpt>
      <trkpt lat="47.69912" lon="6.00405">
        <ele>282</ele>
        <time>2010-01-01T01:27:55Z</time>
      </trkpt>
      <trkpt lat="47.69913" lon="6.00403">
        <ele>282</ele>
        <time>2010-01-01T01:27:56Z</time>
      </trkpt>
      <trkpt lat="47.69914" lon="6.00401">
        <ele>282</ele>
        <time>2010-01-01T01:27:57Z</time>
      </trkpt>
      <trkpt lat="47.69916" lon="6.004">
        <ele>282</ele>
        <time>2010-01-01T01:27:58Z</time>
      </trkpt>
      <trkpt lat="47.69917" lon="6.00397">
        <ele>282</ele>
        <time>2010-01-01T01:27:58Z</time>
      </trkpt>
      <trkpt lat="47.69919" lon="6.00395">
        <ele>282</ele>
        <time>2010-01-01T01:27:59Z</time>
      </trkpt>
      <trkpt lat="47.6992" lon="6.00393">
        <ele>282</ele>
        <time>2010-01-01T01:28:00Z</time>
      </trkpt>
      <trkpt lat="47.69921" lon="6.0039">
        <ele>282</ele>
        <time>2010-01-01T01:28:01Z</time>
      </trkpt>
      <trkpt lat="47.69922" lon="6.00388">
        <ele>282</ele>
        <time>2010-01-01T01:28:02Z</time>
      </trkpt>
      <trkpt lat="47.69924" lon="6.00385">
        <ele>283</ele>
        <time>2010-01-01T01:28:03Z</time>
      </trkpt>
      <trkpt lat="47.69925" lon="6.00383">
        <ele>283</ele>
        <time>2010-01-01T01:28:03Z</time>
      </trkpt>
      <trkpt lat="47.69926" lon="6.0038">
        <ele>284</ele>
        <time>2010-01-01T01:28:04Z</time>
      </trkpt>
      <trkpt lat="47.69927" lon="6.00378">
        <ele>284</ele>
        <time>2010-01-01T01:28:05Z</time>
      </trkpt>
      <trkpt lat="47.69928" lon="6.00376">
        <ele>284</ele>
        <time>2010-01-01T01:28:06Z</time>
      </trkpt>
      <trkpt lat="47.69929" lon="6.00373">
        <ele>284</ele>
        <time>2010-01-01T01:28:06Z</time>
      </trkpt>
      <trkpt lat="47.6993" lon="6.00371">
        <ele>284</ele>
        <time>2010-01-01T01:28:07Z</time>
      </trkpt>
      <trkpt lat="47.69931" lon="6.00369">
        <ele>284</ele>
        <time>2010-01-01T01:28:08Z</time>
      </trkpt>
      <trkpt lat="47.69932" lon="6.00366">
        <ele>284</ele>
        <time>2010-01-01T01:28:09Z</time>
      </trkpt>
      <trkpt lat="47.69934" lon="6.00364">
        <ele>284</ele>
        <time>2010-01-01T01:28:10Z</time>
      </trkpt>
      <trkpt lat="47.69935" lon="6.00362">
        <ele>284</ele>
        <time>2010-01-01T01:28:10Z</time>
      </trkpt>
      <trkpt lat="47.69936" lon="6.0036">
        <ele>284</ele>
        <time>2010-01-01T01:28:11Z</time>
      </trkpt>
      <trkpt lat="47.69938" lon="6.00358">
        <ele>284</ele>
        <time>2010-01-01T01:28:12Z</time>
      </trkpt>
      <trkpt lat="47.69939" lon="6.00355">
        <ele>284</ele>
        <time>2010-01-01T01:28:13Z</time>
      </trkpt>
      <trkpt lat="47.6994" lon="6.00353">
        <ele>284</ele>
        <time>2010-01-01T01:28:14Z</time>
      </trkpt>
      <trkpt lat="47.69941" lon="6.00351">
        <ele>284</ele>
        <time>2010-01-01T01:28:14Z</time>
      </trkpt>
      <trkpt lat="47.69943" lon="6.00348">
        <ele>285</ele>
        <time>2010-01-01T01:28:15Z</time>
      </trkpt>
      <trkpt lat="47.69944" lon="6.00346">
        <ele>286</ele>
        <time>2010-01-01T01:28:16Z</time>
      </trkpt>
      <trkpt lat="47.69946" lon="6.00344">
        <ele>286</ele>
        <time>2010-01-01T01:28:17Z</time>
      </trkpt>
      <trkpt lat="47.69947" lon="6.00342">
        <ele>286</ele>
        <time>2010-01-01T01:28:18Z</time>
      </trkpt>
      <trkpt lat="47.69948" lon="6.0034">
        <ele>286</ele>
        <time>2010-01-01T01:28:18Z</time>
      </trkpt>
      <trkpt lat="47.69949" lon="6.00337">
        <ele>286</ele>
        <time>2010-01-01T01:28:19Z</time>
      </trkpt>
      <trkpt lat="47.6995" lon="6.00335">
        <ele>286</ele>
        <time>2010-01-01T01:28:20Z</time>
      </trkpt>
      <trkpt lat="47.69951" lon="6.00333">
        <ele>286</ele>
        <time>2010-01-01T01:28:21Z</time>
      </trkpt>
      <trkpt lat="47.69952" lon="6.0033">
        <ele>286</ele>
        <time>2010-01-01T01:28:21Z</time>
      </trkpt>
      <trkpt lat="47.69954" lon="6.00328">
        <ele>286</ele>
        <time>2010-01-01T01:28:22Z</time>
      </trkpt>
      <trkpt lat="47.69955" lon="6.00326">
        <ele>286</ele>
        <time>2010-01-01T01:28:23Z</time>
      </trkpt>
      <trkpt lat="47.69956" lon="6.00323">
        <ele>286</ele>
        <time>2010-01-01T01:28:24Z</time>
      </trkpt>
      <trkpt lat="47.69957" lon="6.0032">
        <ele>286</ele>
        <time>2010-01-01T01:28:25Z</time>
      </trkpt>
      <trkpt lat="47.69959" lon="6.00318">
        <ele>286</ele>
        <time>2010-01-01T01:28:26Z</time>
      </trkpt>
      <trkpt lat="47.6996" lon="6.00315">
        <ele>286</ele>
        <time>2010-01-01T01:28:27Z</time>
      </trkpt>
      <trkpt lat="47.69961" lon="6.00312">
        <ele>286</ele>
        <time>2010-01-01T01:28:28Z</time>
      </trkpt>
      <trkpt lat="47.69963" lon="6.00309">
        <ele>286</ele>
        <time>2010-01-01T01:28:28Z</time>
      </trkpt>
      <trkpt lat="47.69964" lon="6.00306">
        <ele>286</ele>
        <time>2010-01-01T01:28:29Z</time>
      </trkpt>
      <trkpt lat="47.69966" lon="6.00303">
        <ele>286</ele>
        <time>2010-01-01T01:28:31Z</time>
      </trkpt>
      <trkpt lat="47.69967" lon="6.00299">
        <ele>286</ele>
        <time>2010-01-01T01:28:32Z</time>
      </trkpt>
      <trkpt lat="47.69968" lon="6.00295">
        <ele>286</ele>
        <time>2010-01-01T01:28:33Z</time>
      </trkpt>
      <trkpt lat="47.6997" lon="6.00292">
        <ele>286</ele>
        <time>2010-01-01T01:28:34Z</time>
      </trkpt>
      <trkpt lat="47.69972" lon="6.00288">
        <ele>286</ele>
        <time>2010-01-01T01:28:35Z</time>
      </trkpt>
      <trkpt lat="47.69973" lon="6.00285">
        <ele>286</ele>
        <time>2010-01-01T01:28:36Z</time>
      </trkpt>
      <trkpt lat="47.69975" lon="6.00282">
        <ele>286</ele>
        <time>2010-01-01T01:28:37Z</time>
      </trkpt>
      <trkpt lat="47.69977" lon="6.00279">
        <ele>287</ele>
        <time>2010-01-01T01:28:39Z</time>
      </trkpt>
      <trkpt lat="47.69979" lon="6.00276">
        <ele>287</ele>
        <time>2010-01-01T01:28:40Z</time>
      </trkpt>
      <trkpt lat="47.69981" lon="6.00273">
        <ele>288</ele>
        <time>2010-01-01T01:28:41Z</time>
      </trkpt>
      <trkpt lat="47.69983" lon="6.00272">
        <ele>288</ele>
        <time>2010-01-01T01:28:42Z</time>
      </trkpt>
      <trkpt lat="47.69984" lon="6.00269">
        <ele>288</ele>
        <time>2010-01-01T01:28:43Z</time>
      </trkpt>
      <trkpt lat="47.69986" lon="6.00267">
        <ele>288</ele>
        <time>2010-01-01T01:28:43Z</time>
      </trkpt>
      <trkpt lat="47.69988" lon="6.00265">
        <ele>288</ele>
        <time>2010-01-01T01:28:44Z</time>
      </trkpt>
      <trkpt lat="47.6999" lon="6.00262">
        <ele>288</ele>
        <time>2010-01-01T01:28:45Z</time>
      </trkpt>
      <trkpt lat="47.69992" lon="6.0026">
        <ele>288</ele>
        <time>2010-01-01T01:28:46Z</time>
      </trkpt>
      <trkpt lat="47.69993" lon="6.00258">
        <ele>288</ele>
        <time>2010-01-01T01:28:47Z</time>
      </trkpt>
      <trkpt lat="47.69995" lon="6.00255">
        <ele>288</ele>
        <time>2010-01-01T01:28:48Z</time>
      </trkpt>
      <trkpt lat="47.69996" lon="6.00253">
        <ele>288</ele>
        <time>2010-01-01T01:28:49Z</time>
      </trkpt>
      <trkpt lat="47.69998" lon="6.00251">
        <ele>288</ele>
        <time>2010-01-01T01:28:50Z</time>
      </trkpt>
      <trkpt lat="47.7" lon="6.00249">
        <ele>288</ele>
        <time>2010-01-01T01:28:51Z</time>
      </trkpt>
      <trkpt lat="47.70001" lon="6.00246">
        <ele>288</ele>
        <time>2010-01-01T01:28:52Z</time>
      </trkpt>
      <trkpt lat="47.70003" lon="6.00244">
        <ele>288</ele>
        <time>2010-01-01T01:28:52Z</time>
      </trkpt>
      <trkpt lat="47.70003" lon="6.00242">
        <ele>288</ele>
        <time>2010-01-01T01:28:53Z</time>
      </trkpt>
      <trkpt lat="47.70005" lon="6.00239">
        <ele>288</ele>
        <time>2010-01-01T01:28:54Z</time>
      </trkpt>
      <trkpt lat="47.70006" lon="6.00237">
        <ele>288</ele>
        <time>2010-01-01T01:28:55Z</time>
      </trkpt>
      <trkpt lat="47.70007" lon="6.00234">
        <ele>288</ele>
        <time>2010-01-01T01:28:56Z</time>
      </trkpt>
      <trkpt lat="47.70008" lon="6.00232">
        <ele>288</ele>
        <time>2010-01-01T01:28:56Z</time>
      </trkpt>
      <trkpt lat="47.7001" lon="6.00229">
        <ele>288</ele>
        <time>2010-01-01T01:28:57Z</time>
      </trkpt>
      <trkpt lat="47.70011" lon="6.00226">
        <ele>288</ele>
        <time>2010-01-01T01:28:58Z</time>
      </trkpt>
      <trkpt lat="47.70013" lon="6.00224">
        <ele>288</ele>
        <time>2010-01-01T01:28:59Z</time>
      </trkpt>
      <trkpt lat="47.70014" lon="6.00222">
        <ele>288</ele>
        <time>2010-01-01T01:29:00Z</time>
      </trkpt>
      <trkpt lat="47.70016" lon="6.0022">
        <ele>288</ele>
        <time>2010-01-01T01:29:01Z</time>
      </trkpt>
      <trkpt lat="47.70017" lon="6.00218">
        <ele>288</ele>
        <time>2010-01-01T01:29:02Z</time>
      </trkpt>
      <trkpt lat="47.70018" lon="6.00216">
        <ele>288</ele>
        <time>2010-01-01T01:29:02Z</time>
      </trkpt>
      <trkpt lat="47.70019" lon="6.00214">
        <ele>288</ele>
        <time>2010-01-01T01:29:03Z</time>
      </trkpt>
      <trkpt lat="47.70019" lon="6.00212">
        <ele>288</ele>
        <time>2010-01-01T01:29:03Z</time>
      </trkpt>
      <trkpt lat="47.70019" lon="6.0021">
        <ele>288</ele>
        <time>2010-01-01T01:29:04Z</time>
      </trkpt>
      <trkpt lat="47.70019" lon="6.00208">
        <ele>288</ele>
        <time>2010-01-01T01:29:04Z</time>
      </trkpt>
      <trkpt lat="47.70018" lon="6.00207">
        <ele>288</ele>
        <time>2010-01-01T01:29:05Z</time>
      </trkpt>
      <trkpt lat="47.70017" lon="6.00205">
        <ele>288</ele>
        <time>2010-01-01T01:29:05Z</time>
      </trkpt>
      <trkpt lat="47.70016" lon="6.00204">
        <ele>288</ele>
        <time>2010-01-01T01:29:06Z</time>
      </trkpt>
      <trkpt lat="47.70015" lon="6.00203">
        <ele>288</ele>
        <time>2010-01-01T01:29:06Z</time>
      </trkpt>
      <trkpt lat="47.70014" lon="6.00202">
        <ele>288</ele>
        <time>2010-01-01T01:29:07Z</time>
      </trkpt>
      <trkpt lat="47.70013" lon="6.00201">
        <ele>288</ele>
        <time>2010-01-01T01:29:08Z</time>
      </trkpt>
      <trkpt lat="47.70012" lon="6.00199">
        <ele>288</ele>
        <time>2010-01-01T01:29:08Z</time>
      </trkpt>
      <trkpt lat="47.7001" lon="6.00197">
        <ele>289</ele>
        <time>2010-01-01T01:29:09Z</time>
      </trkpt>
      <trkpt lat="47.70009" lon="6.00195">
        <ele>289</ele>
        <time>2010-01-01T01:29:10Z</time>
      </trkpt>
      <trkpt lat="47.70008" lon="6.00193">
        <ele>290</ele>
        <time>2010-01-01T01:29:11Z</time>
      </trkpt>
      <trkpt lat="47.70007" lon="6.00191">
        <ele>290</ele>
        <time>2010-01-01T01:29:11Z</time>
      </trkpt>
      <trkpt lat="47.70006" lon="6.00189">
        <ele>291</ele>
        <time>2010-01-01T01:29:12Z</time>
      </trkpt>
      <trkpt lat="47.70005" lon="6.00187">
        <ele>291</ele>
        <time>2010-01-01T01:29:13Z</time>
      </trkpt>
      <trkpt lat="47.70003" lon="6.00185">
        <ele>291</ele>
        <time>2010-01-01T01:29:13Z</time>
      </trkpt>
      <trkpt lat="47.70002" lon="6.00184">
        <ele>291</ele>
        <time>2010-01-01T01:29:14Z</time>
      </trkpt>
      <trkpt lat="47.70001" lon="6.00182">
        <ele>291</ele>
        <time>2010-01-01T01:29:15Z</time>
      </trkpt>
      <trkpt lat="47.7" lon="6.0018">
        <ele>291</ele>
        <time>2010-01-01T01:29:15Z</time>
      </trkpt>
      <trkpt lat="47.69999" lon="6.00178">
        <ele>291</ele>
        <time>2010-01-01T01:29:16Z</time>
      </trkpt>
      <trkpt lat="47.69998" lon="6.00176">
        <ele>291</ele>
        <time>2010-01-01T01:29:17Z</time>
      </trkpt>
      <trkpt lat="47.69997" lon="6.00174">
        <ele>291</ele>
        <time>2010-01-01T01:29:17Z</time>
      </trkpt>
      <trkpt lat="47.69996" lon="6.00172">
        <ele>291</ele>
        <time>2010-01-01T01:29:18Z</time>
      </trkpt>
      <trkpt lat="47.69995" lon="6.0017">
        <ele>291</ele>
        <time>2010-01-01T01:29:19Z</time>
      </trkpt>
      <trkpt lat="47.69993" lon="6.00168">
        <ele>291</ele>
        <time>2010-01-01T01:29:20Z</time>
      </trkpt>
      <trkpt lat="47.69992" lon="6.00165">
        <ele>291</ele>
        <time>2010-01-01T01:29:20Z</time>
      </trkpt>
      <trkpt lat="47.6999" lon="6.00163">
        <ele>292</ele>
        <time>2010-01-01T01:29:21Z</time>
      </trkpt>
      <trkpt lat="47.69989" lon="6.00161">
        <ele>292</ele>
        <time>2010-01-01T01:29:22Z</time>
      </trkpt>
      <trkpt lat="47.69987" lon="6.0016">
        <ele>293</ele>
        <time>2010-01-01T01:29:23Z</time>
      </trkpt>
      <trkpt lat="47.69985" lon="6.00158">
        <ele>293</ele>
        <time>2010-01-01T01:29:24Z</time>
      </trkpt>
      <trkpt lat="47.69984" lon="6.00156">
        <ele>293</ele>
        <time>2010-01-01T01:29:24Z</time>
      </trkpt>
      <trkpt lat="47.69983" lon="6.00154">
        <ele>293</ele>
        <time>2010-01-01T01:29:25Z</time>
      </trkpt>
      <trkpt lat="47.69981" lon="6.00153">
        <ele>293</ele>
        <time>2010-01-01T01:29:26Z</time>
      </trkpt>
      <trkpt lat="47.6998" lon="6.00151">
        <ele>293</ele>
        <time>2010-01-01T01:29:27Z</time>
      </trkpt>
      <trkpt lat="47.69978" lon="6.00149">
        <ele>293</ele>
        <time>2010-01-01T01:29:28Z</time>
      </trkpt>
      <trkpt lat="47.69976" lon="6.00147">
        <ele>293</ele>
        <time>2010-01-01T01:29:28Z</time>
      </trkpt>
      <trkpt lat="47.69974" lon="6.00144">
        <ele>293</ele>
        <time>2010-01-01T01:29:30Z</time>
      </trkpt>
      <trkpt lat="47.69972" lon="6.00142">
        <ele>293</ele>
        <time>2010-01-01T01:29:30Z</time>
      </trkpt>
      <trkpt lat="47.6997" lon="6.0014">
        <ele>293</ele>
        <time>2010-01-01T01:29:31Z</time>
      </trkpt>
      <trkpt lat="47.69969" lon="6.00138">
        <ele>293</ele>
        <time>2010-01-01T01:29:32Z</time>
      </trkpt>
      <trkpt lat="47.69967" lon="6.00136">
        <ele>293</ele>
        <time>2010-01-01T01:29:33Z</time>
      </trkpt>
      <trkpt lat="47.69965" lon="6.00134">
        <ele>293</ele>
        <time>2010-01-01T01:29:34Z</time>
      </trkpt>
      <trkpt lat="47.69964" lon="6.00132">
        <ele>293</ele>
        <time>2010-01-01T01:29:35Z</time>
      </trkpt>
      <trkpt lat="47.69963" lon="6.0013">
        <ele>293</ele>
        <time>2010-01-01T01:29:36Z</time>
      </trkpt>
      <trkpt lat="47.69961" lon="6.00129">
        <ele>293</ele>
        <time>2010-01-01T01:29:36Z</time>
      </trkpt>
      <trkpt lat="47.6996" lon="6.00127">
        <ele>293</ele>
        <time>2010-01-01T01:29:37Z</time>
      </trkpt>
      <trkpt lat="47.69958" lon="6.00125">
        <ele>293</ele>
        <time>2010-01-01T01:29:38Z</time>
      </trkpt>
      <trkpt lat="47.69956" lon="6.00123">
        <ele>293</ele>
        <time>2010-01-01T01:29:39Z</time>
      </trkpt>
      <trkpt lat="47.69954" lon="6.00121">
        <ele>293</ele>
        <time>2010-01-01T01:29:40Z</time>
      </trkpt>
      <trkpt lat="47.69953" lon="6.00119">
        <ele>293</ele>
        <time>2010-01-01T01:29:40Z</time>
      </trkpt>
      <trkpt lat="47.69951" lon="6.00117">
        <ele>293</ele>
        <time>2010-01-01T01:29:41Z</time>
      </trkpt>
      <trkpt lat="47.6995" lon="6.00115">
        <ele>293</ele>
        <time>2010-01-01T01:29:42Z</time>
      </trkpt>
      <trkpt lat="47.69948" lon="6.00114">
        <ele>293</ele>
        <time>2010-01-01T01:29:43Z</time>
      </trkpt>
      <trkpt lat="47.69947" lon="6.00113">
        <ele>293</ele>
        <time>2010-01-01T01:29:43Z</time>
      </trkpt>
      <trkpt lat="47.69945" lon="6.00111">
        <ele>293</ele>
        <time>2010-01-01T01:29:44Z</time>
      </trkpt>
      <trkpt lat="47.69944" lon="6.00109">
        <ele>293</ele>
        <time>2010-01-01T01:29:45Z</time>
      </trkpt>
      <trkpt lat="47.69942" lon="6.00109">
        <ele>293</ele>
        <time>2010-01-01T01:29:46Z</time>
      </trkpt>
      <trkpt lat="47.69941" lon="6.00107">
        <ele>293</ele>
        <time>2010-01-01T01:29:46Z</time>
      </trkpt>
      <trkpt lat="47.6994" lon="6.00106">
        <ele>293</ele>
        <time>2010-01-01T01:29:47Z</time>
      </trkpt>
      <trkpt lat="47.69939" lon="6.00105">
        <ele>293</ele>
        <time>2010-01-01T01:29:47Z</time>
      </trkpt>
      <trkpt lat="47.69937" lon="6.00103">
        <ele>293</ele>
        <time>2010-01-01T01:29:48Z</time>
      </trkpt>
      <trkpt lat="47.69936" lon="6.00101">
        <ele>293</ele>
        <time>2010-01-01T01:29:49Z</time>
      </trkpt>
      <trkpt lat="47.69934" lon="6.00099">
        <ele>293</ele>
        <time>2010-01-01T01:29:50Z</time>
      </trkpt>
      <trkpt lat="47.69933" lon="6.00097">
        <ele>293</ele>
        <time>2010-01-01T01:29:50Z</time>
      </trkpt>
      <trkpt lat="47.69932" lon="6.00096">
        <ele>293</ele>
        <time>2010-01-01T01:29:51Z</time>
      </trkpt>
      <trkpt lat="47.69931" lon="6.00094">
        <ele>294</ele>
        <time>2010-01-01T01:29:51Z</time>
      </trkpt>
      <trkpt lat="47.6993" lon="6.00094">
        <ele>294</ele>
        <time>2010-01-01T01:29:52Z</time>
      </trkpt>
      <trkpt lat="47.69929" lon="6.00092">
        <ele>295</ele>
        <time>2010-01-01T01:29:52Z</time>
      </trkpt>
      <trkpt lat="47.69928" lon="6.00091">
        <ele>295</ele>
        <time>2010-01-01T01:29:53Z</time>
      </trkpt>
      <trkpt lat="47.69926" lon="6.0009">
        <ele>295</ele>
        <time>2010-01-01T01:29:54Z</time>
      </trkpt>
      <trkpt lat="47.69925" lon="6.00089">
        <ele>295</ele>
        <time>2010-01-01T01:29:54Z</time>
      </trkpt>
      <trkpt lat="47.69924" lon="6.00088">
        <ele>295</ele>
        <time>2010-01-01T01:29:55Z</time>
      </trkpt>
      <trkpt lat="47.69922" lon="6.00086">
        <ele>295</ele>
        <time>2010-01-01T01:29:56Z</time>
      </trkpt>
      <trkpt lat="47.69921" lon="6.00083">
        <ele>295</ele>
        <time>2010-01-01T01:29:57Z</time>
      </trkpt>
      <trkpt lat="47.69919" lon="6.00082">
        <ele>295</ele>
        <time>2010-01-01T01:29:57Z</time>
      </trkpt>
      <trkpt lat="47.69918" lon="6.00081">
        <ele>295</ele>
        <time>2010-01-01T01:29:58Z</time>
      </trkpt>
      <trkpt lat="47.69917" lon="6.0008">
        <ele>295</ele>
        <time>2010-01-01T01:29:59Z</time>
      </trkpt>
      <trkpt lat="47.69916" lon="6.00078">
        <ele>295</ele>
        <time>2010-01-01T01:29:59Z</time>
      </trkpt>
      <trkpt lat="47.69915" lon="6.00077">
        <ele>295</ele>
        <time>2010-01-01T01:30:00Z</time>
      </trkpt>
      <trkpt lat="47.69914" lon="6.00075">
        <ele>295</ele>
        <time>2010-01-01T01:30:00Z</time>
      </trkpt>
      <trkpt lat="47.69912" lon="6.00074">
        <ele>295</ele>
        <time>2010-01-01T01:30:01Z</time>
      </trkpt>
      <trkpt lat="47.69912" lon="6.00073">
        <ele>295</ele>
        <time>2010-01-01T01:30:01Z</time>
      </trkpt>
      <trkpt lat="47.69911" lon="6.00072">
        <ele>295</ele>
        <time>2010-01-01T01:30:02Z</time>
      </trkpt>
      <trkpt lat="47.6991" lon="6.00071">
        <ele>295</ele>
        <time>2010-01-01T01:30:02Z</time>
      </trkpt>
      <trkpt lat="47.69909" lon="6.00069">
        <ele>295</ele>
        <time>2010-01-01T01:30:03Z</time>
      </trkpt>
      <trkpt lat="47.69908" lon="6.00068">
        <ele>295</ele>
        <time>2010-01-01T01:30:03Z</time>
      </trkpt>
      <trkpt lat="47.69907" lon="6.00066">
        <ele>295</ele>
        <time>2010-01-01T01:30:04Z</time>
      </trkpt>
      <trkpt lat="47.69906" lon="6.00065">
        <ele>295</ele>
        <time>2010-01-01T01:30:04Z</time>
      </trkpt>
      <trkpt lat="47.69905" lon="6.00064">
        <ele>295</ele>
        <time>2010-01-01T01:30:05Z</time>
      </trkpt>
      <trkpt lat="47.69903" lon="6.00061">
        <ele>295</ele>
        <time>2010-01-01T01:30:06Z</time>
      </trkpt>
      <trkpt lat="47.69901" lon="6.00059">
        <ele>295</ele>
        <time>2010-01-01T01:30:07Z</time>
      </trkpt>
      <trkpt lat="47.69899" lon="6.00056">
        <ele>295</ele>
        <time>2010-01-01T01:30:08Z</time>
      </trkpt>
      <trkpt lat="47.69897" lon="6.00054">
        <ele>295</ele>
        <time>2010-01-01T01:30:09Z</time>
      </trkpt>
      <trkpt lat="47.69895" lon="6.00052">
        <ele>295</ele>
        <time>2010-01-01T01:30:10Z</time>
      </trkpt>
      <trkpt lat="47.69893" lon="6.00049">
        <ele>295</ele>
        <time>2010-01-01T01:30:11Z</time>
      </trkpt>
      <trkpt lat="47.6989" lon="6.00046">
        <ele>295</ele>
        <time>2010-01-01T01:30:13Z</time>
      </trkpt>
      <trkpt lat="47.69887" lon="6.00044">
        <ele>295</ele>
        <time>2010-01-01T01:30:14Z</time>
      </trkpt>
      <trkpt lat="47.69885" lon="6.00041">
        <ele>295</ele>
        <time>2010-01-01T01:30:15Z</time>
      </trkpt>
      <trkpt lat="47.69881" lon="6.00037">
        <ele>295</ele>
        <time>2010-01-01T01:30:17Z</time>
      </trkpt>
      <trkpt lat="47.69879" lon="6.00034">
        <ele>295</ele>
        <time>2010-01-01T01:30:18Z</time>
      </trkpt>
      <trkpt lat="47.69877" lon="6.00032">
        <ele>295</ele>
        <time>2010-01-01T01:30:19Z</time>
      </trkpt>
      <trkpt lat="47.69875" lon="6.0003">
        <ele>295</ele>
        <time>2010-01-01T01:30:20Z</time>
      </trkpt>
      <trkpt lat="47.69874" lon="6.00028">
        <ele>295</ele>
        <time>2010-01-01T01:30:21Z</time>
      </trkpt>
      <trkpt lat="47.69872" lon="6.00027">
        <ele>295</ele>
        <time>2010-01-01T01:30:21Z</time>
      </trkpt>
      <trkpt lat="47.69871" lon="6.00026">
        <ele>295</ele>
        <time>2010-01-01T01:30:22Z</time>
      </trkpt>
      <trkpt lat="47.69869" lon="6.00024">
        <ele>295</ele>
        <time>2010-01-01T01:30:23Z</time>
      </trkpt>
      <trkpt lat="47.69868" lon="6.00022">
        <ele>295</ele>
        <time>2010-01-01T01:30:24Z</time>
      </trkpt>
      <trkpt lat="47.69867" lon="6.0002">
        <ele>295</ele>
        <time>2010-01-01T01:30:24Z</time>
      </trkpt>
      <trkpt lat="47.69865" lon="6.00019">
        <ele>295</ele>
        <time>2010-01-01T01:30:25Z</time>
      </trkpt>
      <trkpt lat="47.69865" lon="6.00017">
        <ele>295</ele>
        <time>2010-01-01T01:30:25Z</time>
      </trkpt>
      <trkpt lat="47.69864" lon="6.00015">
        <ele>295</ele>
        <time>2010-01-01T01:30:26Z</time>
      </trkpt>
      <trkpt lat="47.69863" lon="6.00013">
        <ele>295</ele>
        <time>2010-01-01T01:30:27Z</time>
      </trkpt>
      <trkpt lat="47.69861" lon="6.00011">
        <ele>295</ele>
        <time>2010-01-01T01:30:28Z</time>
      </trkpt>
      <trkpt lat="47.69858" lon="6.00008">
        <ele>295</ele>
        <time>2010-01-01T01:30:29Z</time>
      </trkpt>
      <trkpt lat="47.69856" lon="6.00005">
        <ele>295</ele>
        <time>2010-01-01T01:30:30Z</time>
      </trkpt>
      <trkpt lat="47.69853" lon="6.00002">
        <ele>295</ele>
        <time>2010-01-01T01:30:32Z</time>
      </trkpt>
      <trkpt lat="47.69851" lon="5.99999">
        <ele>296</ele>
        <time>2010-01-01T01:30:33Z</time>
      </trkpt>
      <trkpt lat="47.69849" lon="5.99997">
        <ele>296</ele>
        <time>2010-01-01T01:30:34Z</time>
      </trkpt>
      <trkpt lat="47.69848" lon="5.99994">
        <ele>297</ele>
        <time>2010-01-01T01:30:35Z</time>
      </trkpt>
      <trkpt lat="47.69845" lon="5.99992">
        <ele>297</ele>
        <time>2010-01-01T01:30:36Z</time>
      </trkpt>
      <trkpt lat="47.69843" lon="5.99989">
        <ele>297</ele>
        <time>2010-01-01T01:30:37Z</time>
      </trkpt>
      <trkpt lat="47.6984" lon="5.99986">
        <ele>297</ele>
        <time>2010-01-01T01:30:38Z</time>
      </trkpt>
      <trkpt lat="47.69838" lon="5.99983">
        <ele>297</ele>
        <time>2010-01-01T01:30:40Z</time>
      </trkpt>
      <trkpt lat="47.69835" lon="5.99981">
        <ele>297</ele>
        <time>2010-01-01T01:30:41Z</time>
      </trkpt>
      <trkpt lat="47.69833" lon="5.99978">
        <ele>297</ele>
        <time>2010-01-01T01:30:42Z</time>
      </trkpt>
      <trkpt lat="47.69831" lon="5.99975">
        <ele>297</ele>
        <time>2010-01-01T01:30:43Z</time>
      </trkpt>
      <trkpt lat="47.69829" lon="5.99972">
        <ele>297</ele>
        <time>2010-01-01T01:30:44Z</time>
      </trkpt>
      <trkpt lat="47.69828" lon="5.99968">
        <ele>297</ele>
        <time>2010-01-01T01:30:45Z</time>
      </trkpt>
      <trkpt lat="47.69826" lon="5.99965">
        <ele>297</ele>
        <time>2010-01-01T01:30:46Z</time>
      </trkpt>
      <trkpt lat="47.69824" lon="5.99962">
        <ele>297</ele>
        <time>2010-01-01T01:30:48Z</time>
      </trkpt>
      <trkpt lat="47.69822" lon="5.99959">
        <ele>297</ele>
        <time>2010-01-01T01:30:49Z</time>
      </trkpt>
      <trkpt lat="47.6982" lon="5.99956">
        <ele>297</ele>
        <time>2010-01-01T01:30:50Z</time>
      </trkpt>
      <trkpt lat="47.69817" lon="5.99953">
        <ele>297</ele>
        <time>2010-01-01T01:30:51Z</time>
      </trkpt>
      <trkpt lat="47.69815" lon="5.9995">
        <ele>297</ele>
        <time>2010-01-01T01:30:53Z</time>
      </trkpt>
      <trkpt lat="47.69812" lon="5.99947">
        <ele>297</ele>
        <time>2010-01-01T01:30:54Z</time>
      </trkpt>
      <trkpt lat="47.69811" lon="5.99945">
        <ele>297</ele>
        <time>2010-01-01T01:30:55Z</time>
      </trkpt>
      <trkpt lat="47.69809" lon="5.99942">
        <ele>297</ele>
        <time>2010-01-01T01:30:56Z</time>
      </trkpt>
      <trkpt lat="47.69807" lon="5.99939">
        <ele>297</ele>
        <time>2010-01-01T01:30:57Z</time>
      </trkpt>
      <trkpt lat="47.69805" lon="5.99937">
        <ele>297</ele>
        <time>2010-01-01T01:30:58Z</time>
      </trkpt>
      <trkpt lat="47.69803" lon="5.99934">
        <ele>297</ele>
        <time>2010-01-01T01:30:59Z</time>
      </trkpt>
      <trkpt lat="47.698" lon="5.99931">
        <ele>297</ele>
        <time>2010-01-01T01:31:00Z</time>
      </trkpt>
      <trkpt lat="47.69798" lon="5.99928">
        <ele>297</ele>
        <time>2010-01-01T01:31:02Z</time>
      </trkpt>
      <trkpt lat="47.69795" lon="5.99926">
        <ele>297</ele>
        <time>2010-01-01T01:31:03Z</time>
      </trkpt>
      <trkpt lat="47.69793" lon="5.99923">
        <ele>297</ele>
        <time>2010-01-01T01:31:04Z</time>
      </trkpt>
      <trkpt lat="47.6979" lon="5.9992">
        <ele>297</ele>
        <time>2010-01-01T01:31:05Z</time>
      </trkpt>
      <trkpt lat="47.69788" lon="5.99916">
        <ele>297</ele>
        <time>2010-01-01T01:31:07Z</time>
      </trkpt>
      <trkpt lat="47.69786" lon="5.99913">
        <ele>297</ele>
        <time>2010-01-01T01:31:08Z</time>
      </trkpt>
      <trkpt lat="47.69784" lon="5.99911">
        <ele>297</ele>
        <time>2010-01-01T01:31:09Z</time>
      </trkpt>
      <trkpt lat="47.69782" lon="5.99909">
        <ele>297</ele>
        <time>2010-01-01T01:31:10Z</time>
      </trkpt>
      <trkpt lat="47.69781" lon="5.99906">
        <ele>297</ele>
        <time>2010-01-01T01:31:11Z</time>
      </trkpt>
      <trkpt lat="47.69779" lon="5.99904">
        <ele>297</ele>
        <time>2010-01-01T01:31:12Z</time>
      </trkpt>
      <trkpt lat="47.69776" lon="5.99901">
        <ele>297</ele>
        <time>2010-01-01T01:31:13Z</time>
      </trkpt>
      <trkpt lat="47.69774" lon="5.99898">
        <ele>297</ele>
        <time>2010-01-01T01:31:14Z</time>
      </trkpt>
      <trkpt lat="47.69772" lon="5.99895">
        <ele>297</ele>
        <time>2010-01-01T01:31:15Z</time>
      </trkpt>
      <trkpt lat="47.69769" lon="5.99892">
        <ele>296</ele>
        <time>2010-01-01T01:31:17Z</time>
      </trkpt>
      <trkpt lat="47.69767" lon="5.99889">
        <ele>296</ele>
        <time>2010-01-01T01:31:18Z</time>
      </trkpt>
      <trkpt lat="47.69765" lon="5.99887">
        <ele>296</ele>
        <time>2010-01-01T01:31:19Z</time>
      </trkpt>
      <trkpt lat="47.69764" lon="5.99884">
        <ele>295</ele>
        <time>2010-01-01T01:31:20Z</time>
      </trkpt>
      <trkpt lat="47.69763" lon="5.99882">
        <ele>295</ele>
        <time>2010-01-01T01:31:20Z</time>
      </trkpt>
      <trkpt lat="47.69763" lon="5.99879">
        <ele>295</ele>
        <time>2010-01-01T01:31:21Z</time>
      </trkpt>
      <trkpt lat="47.69764" lon="5.99877">
        <ele>295</ele>
        <time>2010-01-01T01:31:22Z</time>
      </trkpt>
      <trkpt lat="47.69765" lon="5.99876">
        <ele>295</ele>
        <time>2010-01-01T01:31:22Z</time>
      </trkpt>
      <trkpt lat="47.69767" lon="5.99875">
        <ele>295</ele>
        <time>2010-01-01T01:31:23Z</time>
      </trkpt>
      <trkpt lat="47.69768" lon="5.99874">
        <ele>295</ele>
        <time>2010-01-01T01:31:24Z</time>
      </trkpt>
      <trkpt lat="47.69769" lon="5.99873">
        <ele>295</ele>
        <time>2010-01-01T01:31:24Z</time>
      </trkpt>
      <trkpt lat="47.69769" lon="5.99873">
        <ele>295</ele>
        <time>2010-01-01T01:31:24Z</time>
      </trkpt>
      <trkpt lat="47.69769" lon="5.99873">
        <ele>295</ele>
        <time>2010-01-01T01:31:24Z</time>
      </trkpt>
      <trkpt lat="47.6977" lon="5.99873">
        <ele>295</ele>
        <time>2010-01-01T01:31:24Z</time>
      </trkpt>
      <trkpt lat="47.69771" lon="5.99873">
        <ele>295</ele>
        <time>2010-01-01T01:31:25Z</time>
      </trkpt>
      <trkpt lat="47.69772" lon="5.99872">
        <ele>295</ele>
        <time>2010-01-01T01:31:25Z</time>
      </trkpt>
      <trkpt lat="47.69772" lon="5.99872">
        <ele>295</ele>
        <time>2010-01-01T01:31:25Z</time>
      </trkpt>
      <trkpt lat="47.69773" lon="5.99872">
        <ele>295</ele>
        <time>2010-01-01T01:31:26Z</time>
      </trkpt>
      <trkpt lat="47.69775" lon="5.99871">
        <ele>295</ele>
        <time>2010-01-01T01:31:27Z</time>
      </trkpt>
      <trkpt lat="47.69776" lon="5.9987">
        <ele>295</ele>
        <time>2010-01-01T01:31:27Z</time>
      </trkpt>
      <trkpt lat="47.69778" lon="5.99869">
        <ele>295</ele>
        <time>2010-01-01T01:31:28Z</time>
      </trkpt>
      <trkpt lat="47.69779" lon="5.99868">
        <ele>295</ele>
        <time>2010-01-01T01:31:28Z</time>
      </trkpt>
      <trkpt lat="47.6978" lon="5.99868">
        <ele>295</ele>
        <time>2010-01-01T01:31:29Z</time>
      </trkpt>
      <trkpt lat="47.69782" lon="5.99866">
        <ele>295</ele>
        <time>2010-01-01T01:31:30Z</time>
      </trkpt>
      <trkpt lat="47.69784" lon="5.99865">
        <ele>295</ele>
        <time>2010-01-01T01:31:31Z</time>
      </trkpt>
      <trkpt lat="47.69785" lon="5.99864">
        <ele>295</ele>
        <time>2010-01-01T01:31:31Z</time>
      </trkpt>
      <trkpt lat="47.69787" lon="5.99862">
        <ele>295</ele>
        <time>2010-01-01T01:31:32Z</time>
      </trkpt>
      <trkpt lat="47.69789" lon="5.9986">
        <ele>295</ele>
        <time>2010-01-01T01:31:33Z</time>
      </trkpt>
      <trkpt lat="47.6979" lon="5.99858">
        <ele>295</ele>
        <time>2010-01-01T01:31:34Z</time>
      </trkpt>
      <trkpt lat="47.69792" lon="5.99856">
        <ele>295</ele>
        <time>2010-01-01T01:31:35Z</time>
      </trkpt>
      <trkpt lat="47.69794" lon="5.99855">
        <ele>295</ele>
        <time>2010-01-01T01:31:36Z</time>
      </trkpt>
      <trkpt lat="47.69796" lon="5.99853">
        <ele>295</ele>
        <time>2010-01-01T01:31:37Z</time>
      </trkpt>
      <trkpt lat="47.69799" lon="5.99852">
        <ele>295</ele>
        <time>2010-01-01T01:31:38Z</time>
      </trkpt>
      <trkpt lat="47.69801" lon="5.9985">
        <ele>295</ele>
        <time>2010-01-01T01:31:38Z</time>
      </trkpt>
      <trkpt lat="47.69803" lon="5.99849">
        <ele>296</ele>
        <time>2010-01-01T01:31:39Z</time>
      </trkpt>
      <trkpt lat="47.69805" lon="5.99847">
        <ele>296</ele>
        <time>2010-01-01T01:31:40Z</time>
      </trkpt>
      <trkpt lat="47.69807" lon="5.99845">
        <ele>296</ele>
        <time>2010-01-01T01:31:41Z</time>
      </trkpt>
      <trkpt lat="47.6981" lon="5.99843">
        <ele>297</ele>
        <time>2010-01-01T01:31:43Z</time>
      </trkpt>
      <trkpt lat="47.69812" lon="5.99841">
        <ele>297</ele>
        <time>2010-01-01T01:31:44Z</time>
      </trkpt>
      <trkpt lat="47.69815" lon="5.99839">
        <ele>297</ele>
        <time>2010-01-01T01:31:45Z</time>
      </trkpt>
      <trkpt lat="47.69817" lon="5.99837">
        <ele>297</ele>
        <time>2010-01-01T01:31:46Z</time>
      </trkpt>
      <trkpt lat="47.6982" lon="5.99835">
        <ele>297</ele>
        <time>2010-01-01T01:31:47Z</time>
      </trkpt>
      <trkpt lat="47.69822" lon="5.99833">
        <ele>297</ele>
        <time>2010-01-01T01:31:48Z</time>
      </trkpt>
      <trkpt lat="47.69825" lon="5.99831">
        <ele>297</ele>
        <time>2010-01-01T01:31:49Z</time>
      </trkpt>
      <trkpt lat="47.69827" lon="5.99829">
        <ele>297</ele>
        <time>2010-01-01T01:31:50Z</time>
      </trkpt>
      <trkpt lat="47.69829" lon="5.99827">
        <ele>297</ele>
        <time>2010-01-01T01:31:52Z</time>
      </trkpt>
      <trkpt lat="47.69832" lon="5.99825">
        <ele>297</ele>
        <time>2010-01-01T01:31:53Z</time>
      </trkpt>
      <trkpt lat="47.69834" lon="5.99822">
        <ele>297</ele>
        <time>2010-01-01T01:31:54Z</time>
      </trkpt>
      <trkpt lat="47.69836" lon="5.99819">
        <ele>297</ele>
        <time>2010-01-01T01:31:55Z</time>
      </trkpt>
      <trkpt lat="47.69837" lon="5.99815">
        <ele>297</ele>
        <time>2010-01-01T01:31:56Z</time>
      </trkpt>
      <trkpt lat="47.69838" lon="5.99811">
        <ele>297</ele>
        <time>2010-01-01T01:31:57Z</time>
      </trkpt>
      <trkpt lat="47.69838" lon="5.99807">
        <ele>297</ele>
        <time>2010-01-01T01:31:58Z</time>
      </trkpt>
      <trkpt lat="47.69837" lon="5.99804">
        <ele>297</ele>
        <time>2010-01-01T01:31:59Z</time>
      </trkpt>
      <trkpt lat="47.69835" lon="5.998">
        <ele>297</ele>
        <time>2010-01-01T01:32:00Z</time>
      </trkpt>
      <trkpt lat="47.69834" lon="5.99797">
        <ele>297</ele>
        <time>2010-01-01T01:32:02Z</time>
      </trkpt>
      <trkpt lat="47.69832" lon="5.99794">
        <ele>297</ele>
        <time>2010-01-01T01:32:03Z</time>
      </trkpt>
      <trkpt lat="47.69831" lon="5.9979">
        <ele>297</ele>
        <time>2010-01-01T01:32:04Z</time>
      </trkpt>
      <trkpt lat="47.6983" lon="5.99787">
        <ele>297</ele>
        <time>2010-01-01T01:32:05Z</time>
      </trkpt>
      <trkpt lat="47.69828" lon="5.99784">
        <ele>297</ele>
        <time>2010-01-01T01:32:06Z</time>
      </trkpt>
      <trkpt lat="47.69827" lon="5.99781">
        <ele>297</ele>
        <time>2010-01-01T01:32:06Z</time>
      </trkpt>
      <trkpt lat="47.69826" lon="5.99779">
        <ele>297</ele>
        <time>2010-01-01T01:32:07Z</time>
      </trkpt>
      <trkpt lat="47.69825" lon="5.99777">
        <ele>297</ele>
        <time>2010-01-01T01:32:08Z</time>
      </trkpt>
      <trkpt lat="47.69824" lon="5.99774">
        <ele>297</ele>
        <time>2010-01-01T01:32:09Z</time>
      </trkpt>
      <trkpt lat="47.69823" lon="5.99771">
        <ele>297</ele>
        <time>2010-01-01T01:32:10Z</time>
      </trkpt>
      <trkpt lat="47.69821" lon="5.99769">
        <ele>297</ele>
        <time>2010-01-01T01:32:11Z</time>
      </trkpt>
      <trkpt lat="47.6982" lon="5.99767">
        <ele>297</ele>
        <time>2010-01-01T01:32:11Z</time>
      </trkpt>
      <trkpt lat="47.69818" lon="5.99765">
        <ele>297</ele>
        <time>2010-01-01T01:32:12Z</time>
      </trkpt>
      <trkpt lat="47.69817" lon="5.99763">
        <ele>297</ele>
        <time>2010-01-01T01:32:13Z</time>
      </trkpt>
      <trkpt lat="47.69816" lon="5.9976">
        <ele>297</ele>
        <time>2010-01-01T01:32:14Z</time>
      </trkpt>
      <trkpt lat="47.69815" lon="5.99758">
        <ele>297</ele>
        <time>2010-01-01T01:32:14Z</time>
      </trkpt>
      <trkpt lat="47.69814" lon="5.99756">
        <ele>297</ele>
        <time>2010-01-01T01:32:15Z</time>
      </trkpt>
      <trkpt lat="47.69813" lon="5.99753">
        <ele>297</ele>
        <time>2010-01-01T01:32:16Z</time>
      </trkpt>
      <trkpt lat="47.69811" lon="5.9975">
        <ele>297</ele>
        <time>2010-01-01T01:32:17Z</time>
      </trkpt>
      <trkpt lat="47.6981" lon="5.99747">
        <ele>297</ele>
        <time>2010-01-01T01:32:18Z</time>
      </trkpt>
      <trkpt lat="47.69808" lon="5.99745">
        <ele>297</ele>
        <time>2010-01-01T01:32:19Z</time>
      </trkpt>
      <trkpt lat="47.69807" lon="5.99742">
        <ele>297</ele>
        <time>2010-01-01T01:32:20Z</time>
      </trkpt>
      <trkpt lat="47.69806" lon="5.9974">
        <ele>297</ele>
        <time>2010-01-01T01:32:21Z</time>
      </trkpt>
      <trkpt lat="47.69805" lon="5.99737">
        <ele>297</ele>
        <time>2010-01-01T01:32:22Z</time>
      </trkpt>
      <trkpt lat="47.69803" lon="5.99734">
        <ele>297</ele>
        <time>2010-01-01T01:32:23Z</time>
      </trkpt>
      <trkpt lat="47.69801" lon="5.99732">
        <ele>297</ele>
        <time>2010-01-01T01:32:23Z</time>
      </trkpt>
      <trkpt lat="47.69799" lon="5.9973">
        <ele>297</ele>
        <time>2010-01-01T01:32:24Z</time>
      </trkpt>
      <trkpt lat="47.69798" lon="5.99727">
        <ele>297</ele>
        <time>2010-01-01T01:32:25Z</time>
      </trkpt>
      <trkpt lat="47.69796" lon="5.99724">
        <ele>297</ele>
        <time>2010-01-01T01:32:26Z</time>
      </trkpt>
      <trkpt lat="47.69794" lon="5.99721">
        <ele>297</ele>
        <time>2010-01-01T01:32:27Z</time>
      </trkpt>
      <trkpt lat="47.69793" lon="5.99718">
        <ele>297</ele>
        <time>2010-01-01T01:32:29Z</time>
      </trkpt>
      <trkpt lat="47.69792" lon="5.99715">
        <ele>297</ele>
        <time>2010-01-01T01:32:29Z</time>
      </trkpt>
      <trkpt lat="47.6979" lon="5.99713">
        <ele>297</ele>
        <time>2010-01-01T01:32:30Z</time>
      </trkpt>
      <trkpt lat="47.69789" lon="5.99711">
        <ele>297</ele>
        <time>2010-01-01T01:32:31Z</time>
      </trkpt>
      <trkpt lat="47.69787" lon="5.99708">
        <ele>297</ele>
        <time>2010-01-01T01:32:32Z</time>
      </trkpt>
      <trkpt lat="47.69786" lon="5.99705">
        <ele>297</ele>
        <time>2010-01-01T01:32:33Z</time>
      </trkpt>
      <trkpt lat="47.69783" lon="5.99702">
        <ele>297</ele>
        <time>2010-01-01T01:32:34Z</time>
      </trkpt>
      <trkpt lat="47.69781" lon="5.99698">
        <ele>297</ele>
        <time>2010-01-01T01:32:36Z</time>
      </trkpt>
      <trkpt lat="47.6978" lon="5.99695">
        <ele>297</ele>
        <time>2010-01-01T01:32:37Z</time>
      </trkpt>
      <trkpt lat="47.69778" lon="5.99692">
        <ele>297</ele>
        <time>2010-01-01T01:32:38Z</time>
      </trkpt>
      <trkpt lat="47.69777" lon="5.99689">
        <ele>297</ele>
        <time>2010-01-01T01:32:39Z</time>
      </trkpt>
      <trkpt lat="47.69775" lon="5.99686">
        <ele>297</ele>
        <time>2010-01-01T01:32:40Z</time>
      </trkpt>
      <trkpt lat="47.69774" lon="5.99682">
        <ele>297</ele>
        <time>2010-01-01T01:32:41Z</time>
      </trkpt>
      <trkpt lat="47.69772" lon="5.99679">
        <ele>297</ele>
        <time>2010-01-01T01:32:42Z</time>
      </trkpt>
      <trkpt lat="47.69771" lon="5.99676">
        <ele>297</ele>
        <time>2010-01-01T01:32:43Z</time>
      </trkpt>
      <trkpt lat="47.69769" lon="5.99673">
        <ele>297</ele>
        <time>2010-01-01T01:32:44Z</time>
      </trkpt>
      <trkpt lat="47.69767" lon="5.9967">
        <ele>297</ele>
        <time>2010-01-01T01:32:45Z</time>
      </trkpt>
      <trkpt lat="47.69765" lon="5.99667">
        <ele>297</ele>
        <time>2010-01-01T01:32:46Z</time>
      </trkpt>
      <trkpt lat="47.69763" lon="5.99665">
        <ele>297</ele>
        <time>2010-01-01T01:32:47Z</time>
      </trkpt>
      <trkpt lat="47.69762" lon="5.99662">
        <ele>297</ele>
        <time>2010-01-01T01:32:48Z</time>
      </trkpt>
      <trkpt lat="47.69761" lon="5.9966">
        <ele>297</ele>
        <time>2010-01-01T01:32:49Z</time>
      </trkpt>
      <trkpt lat="47.69759" lon="5.99657">
        <ele>297</ele>
        <time>2010-01-01T01:32:50Z</time>
      </trkpt>
      <trkpt lat="47.69758" lon="5.99654">
        <ele>297</ele>
        <time>2010-01-01T01:32:51Z</time>
      </trkpt>
      <trkpt lat="47.69756" lon="5.99652">
        <ele>297</ele>
        <time>2010-01-01T01:32:52Z</time>
      </trkpt>
      <trkpt lat="47.69754" lon="5.99651">
        <ele>297</ele>
        <time>2010-01-01T01:32:53Z</time>
      </trkpt>
      <trkpt lat="47.69751" lon="5.99648">
        <ele>297</ele>
        <time>2010-01-01T01:32:54Z</time>
      </trkpt>
      <trkpt lat="47.69749" lon="5.99645">
        <ele>297</ele>
        <time>2010-01-01T01:32:55Z</time>
      </trkpt>
      <trkpt lat="47.69747" lon="5.99642">
        <ele>297</ele>
        <time>2010-01-01T01:32:56Z</time>
      </trkpt>
      <trkpt lat="47.69744" lon="5.99639">
        <ele>297</ele>
        <time>2010-01-01T01:32:58Z</time>
      </trkpt>
      <trkpt lat="47.69742" lon="5.99635">
        <ele>297</ele>
        <time>2010-01-01T01:32:59Z</time>
      </trkpt>
      <trkpt lat="47.69739" lon="5.99631">
        <ele>297</ele>
        <time>2010-01-01T01:33:01Z</time>
      </trkpt>
      <trkpt lat="47.69737" lon="5.99627">
        <ele>297</ele>
        <time>2010-01-01T01:33:02Z</time>
      </trkpt>
      <trkpt lat="47.69735" lon="5.99622">
        <ele>297</ele>
        <time>2010-01-01T01:33:04Z</time>
      </trkpt>
      <trkpt lat="47.69732" lon="5.99618">
        <ele>297</ele>
        <time>2010-01-01T01:33:05Z</time>
      </trkpt>
      <trkpt lat="47.6973" lon="5.99616">
        <ele>297</ele>
        <time>2010-01-01T01:33:06Z</time>
      </trkpt>
      <trkpt lat="47.69728" lon="5.99613">
        <ele>297</ele>
        <time>2010-01-01T01:33:07Z</time>
      </trkpt>
      <trkpt lat="47.69726" lon="5.9961">
        <ele>297</ele>
        <time>2010-01-01T01:33:08Z</time>
      </trkpt>
      <trkpt lat="47.69724" lon="5.99606">
        <ele>297</ele>
        <time>2010-01-01T01:33:09Z</time>
      </trkpt>
      <trkpt lat="47.69723" lon="5.99604">
        <ele>297</ele>
        <time>2010-01-01T01:33:10Z</time>
      </trkpt>
      <trkpt lat="47.69722" lon="5.99601">
        <ele>297</ele>
        <time>2010-01-01T01:33:11Z</time>
      </trkpt>
      <trkpt lat="47.6972" lon="5.99597">
        <ele>297</ele>
        <time>2010-01-01T01:33:13Z</time>
      </trkpt>
      <trkpt lat="47.69718" lon="5.99594">
        <ele>297</ele>
        <time>2010-01-01T01:33:14Z</time>
      </trkpt>
      <trkpt lat="47.69716" lon="5.99591">
        <ele>297</ele>
        <time>2010-01-01T01:33:15Z</time>
      </trkpt>
      <trkpt lat="47.69714" lon="5.99587">
        <ele>297</ele>
        <time>2010-01-01T01:33:16Z</time>
      </trkpt>
      <trkpt lat="47.69712" lon="5.99584">
        <ele>297</ele>
        <time>2010-01-01T01:33:17Z</time>
      </trkpt>
      <trkpt lat="47.69711" lon="5.99581">
        <ele>297</ele>
        <time>2010-01-01T01:33:18Z</time>
      </trkpt>
      <trkpt lat="47.6971" lon="5.99578">
        <ele>297</ele>
        <time>2010-01-01T01:33:19Z</time>
      </trkpt>
      <trkpt lat="47.69708" lon="5.99576">
        <ele>297</ele>
        <time>2010-01-01T01:33:20Z</time>
      </trkpt>
      <trkpt lat="47.69706" lon="5.99573">
        <ele>297</ele>
        <time>2010-01-01T01:33:21Z</time>
      </trkpt>
      <trkpt lat="47.69705" lon="5.99571">
        <ele>297</ele>
        <time>2010-01-01T01:33:22Z</time>
      </trkpt>
      <trkpt lat="47.69703" lon="5.99569">
        <ele>297</ele>
        <time>2010-01-01T01:33:23Z</time>
      </trkpt>
      <trkpt lat="47.69702" lon="5.99567">
        <ele>297</ele>
        <time>2010-01-01T01:33:24Z</time>
      </trkpt>
      <trkpt lat="47.697" lon="5.99564">
        <ele>297</ele>
        <time>2010-01-01T01:33:24Z</time>
      </trkpt>
      <trkpt lat="47.69698" lon="5.99562">
        <ele>297</ele>
        <time>2010-01-01T01:33:26Z</time>
      </trkpt>
      <trkpt lat="47.69696" lon="5.99559">
        <ele>297</ele>
        <time>2010-01-01T01:33:27Z</time>
      </trkpt>
      <trkpt lat="47.69694" lon="5.99555">
        <ele>297</ele>
        <time>2010-01-01T01:33:28Z</time>
      </trkpt>
      <trkpt lat="47.69692" lon="5.99551">
        <ele>297</ele>
        <time>2010-01-01T01:33:29Z</time>
      </trkpt>
      <trkpt lat="47.6969" lon="5.99549">
        <ele>297</ele>
        <time>2010-01-01T01:33:30Z</time>
      </trkpt>
      <trkpt lat="47.69689" lon="5.99546">
        <ele>297</ele>
        <time>2010-01-01T01:33:31Z</time>
      </trkpt>
      <trkpt lat="47.69688" lon="5.99544">
        <ele>297</ele>
        <time>2010-01-01T01:33:32Z</time>
      </trkpt>
      <trkpt lat="47.69687" lon="5.99542">
        <ele>297</ele>
        <time>2010-01-01T01:33:33Z</time>
      </trkpt>
      <trkpt lat="47.69687" lon="5.9954">
        <ele>297</ele>
        <time>2010-01-01T01:33:33Z</time>
      </trkpt>
      <trkpt lat="47.69686" lon="5.99539">
        <ele>297</ele>
        <time>2010-01-01T01:33:33Z</time>
      </trkpt>
      <trkpt lat="47.69686" lon="5.99537">
        <ele>297</ele>
        <time>2010-01-01T01:33:34Z</time>
      </trkpt>
      <trkpt lat="47.69685" lon="5.99536">
        <ele>297</ele>
        <time>2010-01-01T01:33:34Z</time>
      </trkpt>
      <trkpt lat="47.69685" lon="5.99534">
        <ele>297</ele>
        <time>2010-01-01T01:33:35Z</time>
      </trkpt>
      <trkpt lat="47.69684" lon="5.99532">
        <ele>297</ele>
        <time>2010-01-01T01:33:35Z</time>
      </trkpt>
      <trkpt lat="47.69684" lon="5.99531">
        <ele>297</ele>
        <time>2010-01-01T01:33:36Z</time>
      </trkpt>
      <trkpt lat="47.69683" lon="5.99529">
        <ele>297</ele>
        <time>2010-01-01T01:33:37Z</time>
      </trkpt>
      <trkpt lat="47.69682" lon="5.99527">
        <ele>297</ele>
        <time>2010-01-01T01:33:37Z</time>
      </trkpt>
      <trkpt lat="47.69682" lon="5.99525">
        <ele>297</ele>
        <time>2010-01-01T01:33:38Z</time>
      </trkpt>
      <trkpt lat="47.69681" lon="5.99524">
        <ele>297</ele>
        <time>2010-01-01T01:33:38Z</time>
      </trkpt>
      <trkpt lat="47.69679" lon="5.99522">
        <ele>297</ele>
        <time>2010-01-01T01:33:39Z</time>
      </trkpt>
      <trkpt lat="47.69678" lon="5.9952">
        <ele>297</ele>
        <time>2010-01-01T01:33:39Z</time>
      </trkpt>
      <trkpt lat="47.69678" lon="5.99518">
        <ele>297</ele>
        <time>2010-01-01T01:33:40Z</time>
      </trkpt>
      <trkpt lat="47.69676" lon="5.99516">
        <ele>297</ele>
        <time>2010-01-01T01:33:41Z</time>
      </trkpt>
      <trkpt lat="47.69674" lon="5.99512">
        <ele>297</ele>
        <time>2010-01-01T01:33:42Z</time>
      </trkpt>
      <trkpt lat="47.69672" lon="5.99507">
        <ele>297</ele>
        <time>2010-01-01T01:33:44Z</time>
      </trkpt>
      <trkpt lat="47.69669" lon="5.99502">
        <ele>297</ele>
        <time>2010-01-01T01:33:46Z</time>
      </trkpt>
      <trkpt lat="47.69667" lon="5.99498">
        <ele>297</ele>
        <time>2010-01-01T01:33:47Z</time>
      </trkpt>
      <trkpt lat="47.69665" lon="5.99494">
        <ele>297</ele>
        <time>2010-01-01T01:33:48Z</time>
      </trkpt>
      <trkpt lat="47.69663" lon="5.99491">
        <ele>297</ele>
        <time>2010-01-01T01:33:49Z</time>
      </trkpt>
      <trkpt lat="47.69661" lon="5.99488">
        <ele>297</ele>
        <time>2010-01-01T01:33:51Z</time>
      </trkpt>
      <trkpt lat="47.69659" lon="5.99484">
        <ele>297</ele>
        <time>2010-01-01T01:33:52Z</time>
      </trkpt>
      <trkpt lat="47.69658" lon="5.99481">
        <ele>297</ele>
        <time>2010-01-01T01:33:53Z</time>
      </trkpt>
      <trkpt lat="47.69656" lon="5.99479">
        <ele>297</ele>
        <time>2010-01-01T01:33:54Z</time>
      </trkpt>
      <trkpt lat="47.69655" lon="5.99477">
        <ele>297</ele>
        <time>2010-01-01T01:33:55Z</time>
      </trkpt>
      <trkpt lat="47.69653" lon="5.99474">
        <ele>297</ele>
        <time>2010-01-01T01:33:55Z</time>
      </trkpt>
      <trkpt lat="47.69652" lon="5.99473">
        <ele>297</ele>
        <time>2010-01-01T01:33:56Z</time>
      </trkpt>
      <trkpt lat="47.69651" lon="5.99471">
        <ele>297</ele>
        <time>2010-01-01T01:33:57Z</time>
      </trkpt>
      <trkpt lat="47.6965" lon="5.99469">
        <ele>297</ele>
        <time>2010-01-01T01:33:57Z</time>
      </trkpt>
      <trkpt lat="47.69649" lon="5.99468">
        <ele>297</ele>
        <time>2010-01-01T01:33:58Z</time>
      </trkpt>
      <trkpt lat="47.69648" lon="5.99467">
        <ele>297</ele>
        <time>2010-01-01T01:33:58Z</time>
      </trkpt>
      <trkpt lat="47.69647" lon="5.99466">
        <ele>297</ele>
        <time>2010-01-01T01:33:59Z</time>
      </trkpt>
      <trkpt lat="47.69647" lon="5.99465">
        <ele>297</ele>
        <time>2010-01-01T01:33:59Z</time>
      </trkpt>
      <trkpt lat="47.69646" lon="5.99463">
        <ele>297</ele>
        <time>2010-01-01T01:34:00Z</time>
      </trkpt>
      <trkpt lat="47.69646" lon="5.99462">
        <ele>297</ele>
        <time>2010-01-01T01:34:00Z</time>
      </trkpt>
      <trkpt lat="47.69645" lon="5.99461">
        <ele>297</ele>
        <time>2010-01-01T01:34:01Z</time>
      </trkpt>
      <trkpt lat="47.69643" lon="5.99458">
        <ele>297</ele>
        <time>2010-01-01T01:34:02Z</time>
      </trkpt>
      <trkpt lat="47.69641" lon="5.99456">
        <ele>297</ele>
        <time>2010-01-01T01:34:02Z</time>
      </trkpt>
      <trkpt lat="47.6964" lon="5.99454">
        <ele>297</ele>
        <time>2010-01-01T01:34:03Z</time>
      </trkpt>
      <trkpt lat="47.69639" lon="5.99452">
        <ele>297</ele>
        <time>2010-01-01T01:34:04Z</time>
      </trkpt>
      <trkpt lat="47.69639" lon="5.9945">
        <ele>297</ele>
        <time>2010-01-01T01:34:05Z</time>
      </trkpt>
      <trkpt lat="47.69638" lon="5.99448">
        <ele>297</ele>
        <time>2010-01-01T01:34:05Z</time>
      </trkpt>
      <trkpt lat="47.69636" lon="5.99445">
        <ele>297</ele>
        <time>2010-01-01T01:34:06Z</time>
      </trkpt>
      <trkpt lat="47.69633" lon="5.99442">
        <ele>297</ele>
        <time>2010-01-01T01:34:08Z</time>
      </trkpt>
      <trkpt lat="47.69631" lon="5.9944">
        <ele>297</ele>
        <time>2010-01-01T01:34:09Z</time>
      </trkpt>
      <trkpt lat="47.69629" lon="5.99438">
        <ele>297</ele>
        <time>2010-01-01T01:34:10Z</time>
      </trkpt>
      <trkpt lat="47.69626" lon="5.99436">
        <ele>297</ele>
        <time>2010-01-01T01:34:11Z</time>
      </trkpt>
      <trkpt lat="47.69624" lon="5.99434">
        <ele>297</ele>
        <time>2010-01-01T01:34:12Z</time>
      </trkpt>
      <trkpt lat="47.69621" lon="5.99432">
        <ele>297</ele>
        <time>2010-01-01T01:34:13Z</time>
      </trkpt>
      <trkpt lat="47.69619" lon="5.99428">
        <ele>297</ele>
        <time>2010-01-01T01:34:14Z</time>
      </trkpt>
      <trkpt lat="47.69616" lon="5.99425">
        <ele>297</ele>
        <time>2010-01-01T01:34:16Z</time>
      </trkpt>
      <trkpt lat="47.69614" lon="5.99423">
        <ele>297</ele>
        <time>2010-01-01T01:34:17Z</time>
      </trkpt>
      <trkpt lat="47.69612" lon="5.9942">
        <ele>297</ele>
        <time>2010-01-01T01:34:18Z</time>
      </trkpt>
      <trkpt lat="47.6961" lon="5.99418">
        <ele>297</ele>
        <time>2010-01-01T01:34:19Z</time>
      </trkpt>
      <trkpt lat="47.69608" lon="5.99416">
        <ele>297</ele>
        <time>2010-01-01T01:34:20Z</time>
      </trkpt>
      <trkpt lat="47.69606" lon="5.99414">
        <ele>297</ele>
        <time>2010-01-01T01:34:21Z</time>
      </trkpt>
      <trkpt lat="47.69604" lon="5.99413">
        <ele>297</ele>
        <time>2010-01-01T01:34:22Z</time>
      </trkpt>
      <trkpt lat="47.69603" lon="5.9941">
        <ele>297</ele>
        <time>2010-01-01T01:34:22Z</time>
      </trkpt>
      <trkpt lat="47.69603" lon="5.99408">
        <ele>297</ele>
        <time>2010-01-01T01:34:23Z</time>
      </trkpt>
      <trkpt lat="47.69603" lon="5.99406">
        <ele>297</ele>
        <time>2010-01-01T01:34:24Z</time>
      </trkpt>
      <trkpt lat="47.69603" lon="5.99403">
        <ele>297</ele>
        <time>2010-01-01T01:34:24Z</time>
      </trkpt>
      <trkpt lat="47.69602" lon="5.99401">
        <ele>297</ele>
        <time>2010-01-01T01:34:25Z</time>
      </trkpt>
      <trkpt lat="47.69602" lon="5.99399">
        <ele>297</ele>
        <time>2010-01-01T01:34:26Z</time>
      </trkpt>
      <trkpt lat="47.696" lon="5.99396">
        <ele>297</ele>
        <time>2010-01-01T01:34:26Z</time>
      </trkpt>
      <trkpt lat="47.69599" lon="5.99393">
        <ele>297</ele>
        <time>2010-01-01T01:34:27Z</time>
      </trkpt>
      <trkpt lat="47.69598" lon="5.99391">
        <ele>297</ele>
        <time>2010-01-01T01:34:28Z</time>
      </trkpt>
      <trkpt lat="47.69596" lon="5.99389">
        <ele>297</ele>
        <time>2010-01-01T01:34:29Z</time>
      </trkpt>
      <trkpt lat="47.69594" lon="5.99387">
        <ele>297</ele>
        <time>2010-01-01T01:34:30Z</time>
      </trkpt>
      <trkpt lat="47.69593" lon="5.99384">
        <ele>297</ele>
        <time>2010-01-01T01:34:31Z</time>
      </trkpt>
      <trkpt lat="47.69593" lon="5.99383">
        <ele>297</ele>
        <time>2010-01-01T01:34:31Z</time>
      </trkpt>
      <trkpt lat="47.69593" lon="5.99383">
        <ele>297</ele>
        <time>2010-01-01T01:34:31Z</time>
      </trkpt>
      <trkpt lat="47.69592" lon="5.99382">
        <ele>297</ele>
        <time>2010-01-01T01:34:31Z</time>
      </trkpt>
      <trkpt lat="47.6959" lon="5.99379">
        <ele>297</ele>
        <time>2010-01-01T01:34:33Z</time>
      </trkpt>
      <trkpt lat="47.69588" lon="5.99376">
        <ele>297</ele>
        <time>2010-01-01T01:34:34Z</time>
      </trkpt>
      <trkpt lat="47.69586" lon="5.99373">
        <ele>297</ele>
        <time>2010-01-01T01:34:35Z</time>
      </trkpt>
      <trkpt lat="47.69584" lon="5.9937">
        <ele>297</ele>
        <time>2010-01-01T01:34:36Z</time>
      </trkpt>
      <trkpt lat="47.69582" lon="5.99367">
        <ele>297</ele>
        <time>2010-01-01T01:34:37Z</time>
      </trkpt>
      <trkpt lat="47.6958" lon="5.99364">
        <ele>297</ele>
        <time>2010-01-01T01:34:38Z</time>
      </trkpt>
      <trkpt lat="47.69579" lon="5.99361">
        <ele>297</ele>
        <time>2010-01-01T01:34:39Z</time>
      </trkpt>
      <trkpt lat="47.69578" lon="5.99358">
        <ele>297</ele>
        <time>2010-01-01T01:34:40Z</time>
      </trkpt>
      <trkpt lat="47.69577" lon="5.99356">
        <ele>297</ele>
        <time>2010-01-01T01:34:41Z</time>
      </trkpt>
      <trkpt lat="47.69576" lon="5.99353">
        <ele>297</ele>
        <time>2010-01-01T01:34:42Z</time>
      </trkpt>
      <trkpt lat="47.69574" lon="5.9935">
        <ele>297</ele>
        <time>2010-01-01T01:34:43Z</time>
      </trkpt>
      <trkpt lat="47.69572" lon="5.99348">
        <ele>297</ele>
        <time>2010-01-01T01:34:44Z</time>
      </trkpt>
      <trkpt lat="47.6957" lon="5.99345">
        <ele>297</ele>
        <time>2010-01-01T01:34:45Z</time>
      </trkpt>
      <trkpt lat="47.69568" lon="5.99341">
        <ele>297</ele>
        <time>2010-01-01T01:34:46Z</time>
      </trkpt>
      <trkpt lat="47.69567" lon="5.99339">
        <ele>297</ele>
        <time>2010-01-01T01:34:47Z</time>
      </trkpt>
      <trkpt lat="47.69565" lon="5.99337">
        <ele>297</ele>
        <time>2010-01-01T01:34:48Z</time>
      </trkpt>
      <trkpt lat="47.69564" lon="5.99334">
        <ele>297</ele>
        <time>2010-01-01T01:34:49Z</time>
      </trkpt>
      <trkpt lat="47.69562" lon="5.99331">
        <ele>297</ele>
        <time>2010-01-01T01:34:50Z</time>
      </trkpt>
      <trkpt lat="47.6956" lon="5.99329">
        <ele>297</ele>
        <time>2010-01-01T01:34:51Z</time>
      </trkpt>
      <trkpt lat="47.69559" lon="5.99325">
        <ele>297</ele>
        <time>2010-01-01T01:34:52Z</time>
      </trkpt>
      <trkpt lat="47.69557" lon="5.99322">
        <ele>297</ele>
        <time>2010-01-01T01:34:53Z</time>
      </trkpt>
      <trkpt lat="47.69556" lon="5.99319">
        <ele>297</ele>
        <time>2010-01-01T01:34:54Z</time>
      </trkpt>
      <trkpt lat="47.69554" lon="5.99316">
        <ele>297</ele>
        <time>2010-01-01T01:34:55Z</time>
      </trkpt>
      <trkpt lat="47.69552" lon="5.99314">
        <ele>297</ele>
        <time>2010-01-01T01:34:56Z</time>
      </trkpt>
      <trkpt lat="47.6955" lon="5.99311">
        <ele>297</ele>
        <time>2010-01-01T01:34:57Z</time>
      </trkpt>
      <trkpt lat="47.69549" lon="5.99309">
        <ele>297</ele>
        <time>2010-01-01T01:34:58Z</time>
      </trkpt>
      <trkpt lat="47.69546" lon="5.99306">
        <ele>297</ele>
        <time>2010-01-01T01:34:59Z</time>
      </trkpt>
      <trkpt lat="47.69545" lon="5.99304">
        <ele>297</ele>
        <time>2010-01-01T01:35:00Z</time>
      </trkpt>
      <trkpt lat="47.69544" lon="5.99301">
        <ele>297</ele>
        <time>2010-01-01T01:35:01Z</time>
      </trkpt>
      <trkpt lat="47.69542" lon="5.99299">
        <ele>297</ele>
        <time>2010-01-01T01:35:02Z</time>
      </trkpt>
      <trkpt lat="47.69541" lon="5.99296">
        <ele>297</ele>
        <time>2010-01-01T01:35:03Z</time>
      </trkpt>
      <trkpt lat="47.6954" lon="5.99294">
        <ele>297</ele>
        <time>2010-01-01T01:35:03Z</time>
      </trkpt>
      <trkpt lat="47.69538" lon="5.99291">
        <ele>297</ele>
        <time>2010-01-01T01:35:04Z</time>
      </trkpt>
      <trkpt lat="47.69536" lon="5.99289">
        <ele>297</ele>
        <time>2010-01-01T01:35:05Z</time>
      </trkpt>
      <trkpt lat="47.69535" lon="5.99287">
        <ele>297</ele>
        <time>2010-01-01T01:35:06Z</time>
      </trkpt>
      <trkpt lat="47.69534" lon="5.99284">
        <ele>297</ele>
        <time>2010-01-01T01:35:07Z</time>
      </trkpt>
      <trkpt lat="47.69532" lon="5.99281">
        <ele>297</ele>
        <time>2010-01-01T01:35:08Z</time>
      </trkpt>
      <trkpt lat="47.6953" lon="5.99277">
        <ele>297</ele>
        <time>2010-01-01T01:35:09Z</time>
      </trkpt>
      <trkpt lat="47.69529" lon="5.99274">
        <ele>297</ele>
        <time>2010-01-01T01:35:10Z</time>
      </trkpt>
      <trkpt lat="47.69528" lon="5.9927">
        <ele>297</ele>
        <time>2010-01-01T01:35:12Z</time>
      </trkpt>
      <trkpt lat="47.69526" lon="5.99267">
        <ele>297</ele>
        <time>2010-01-01T01:35:13Z</time>
      </trkpt>
      <trkpt lat="47.69524" lon="5.99263">
        <ele>297</ele>
        <time>2010-01-01T01:35:14Z</time>
      </trkpt>
      <trkpt lat="47.69523" lon="5.9926">
        <ele>297</ele>
        <time>2010-01-01T01:35:15Z</time>
      </trkpt>
      <trkpt lat="47.69521" lon="5.99257">
        <ele>297</ele>
        <time>2010-01-01T01:35:16Z</time>
      </trkpt>
      <trkpt lat="47.69518" lon="5.99253">
        <ele>297</ele>
        <time>2010-01-01T01:35:17Z</time>
      </trkpt>
      <trkpt lat="47.69515" lon="5.9925">
        <ele>297</ele>
        <time>2010-01-01T01:35:19Z</time>
      </trkpt>
      <trkpt lat="47.69513" lon="5.99247">
        <ele>297</ele>
        <time>2010-01-01T01:35:20Z</time>
      </trkpt>
      <trkpt lat="47.6951" lon="5.99243">
        <ele>297</ele>
        <time>2010-01-01T01:35:22Z</time>
      </trkpt>
      <trkpt lat="47.69508" lon="5.9924">
        <ele>297</ele>
        <time>2010-01-01T01:35:23Z</time>
      </trkpt>
      <trkpt lat="47.69506" lon="5.99237">
        <ele>297</ele>
        <time>2010-01-01T01:35:24Z</time>
      </trkpt>
      <trkpt lat="47.69505" lon="5.99235">
        <ele>297</ele>
        <time>2010-01-01T01:35:25Z</time>
      </trkpt>
      <trkpt lat="47.69504" lon="5.99232">
        <ele>297</ele>
        <time>2010-01-01T01:35:26Z</time>
      </trkpt>
      <trkpt lat="47.69503" lon="5.9923">
        <ele>297</ele>
        <time>2010-01-01T01:35:26Z</time>
      </trkpt>
      <trkpt lat="47.69502" lon="5.99227">
        <ele>297</ele>
        <time>2010-01-01T01:35:27Z</time>
      </trkpt>
      <trkpt lat="47.69501" lon="5.99224">
        <ele>297</ele>
        <time>2010-01-01T01:35:28Z</time>
      </trkpt>
      <trkpt lat="47.695" lon="5.99222">
        <ele>297</ele>
        <time>2010-01-01T01:35:29Z</time>
      </trkpt>
      <trkpt lat="47.69499" lon="5.9922">
        <ele>297</ele>
        <time>2010-01-01T01:35:29Z</time>
      </trkpt>
      <trkpt lat="47.69498" lon="5.99217">
        <ele>297</ele>
        <time>2010-01-01T01:35:30Z</time>
      </trkpt>
      <trkpt lat="47.69498" lon="5.99217">
        <ele>297</ele>
        <time>2010-01-01T01:35:30Z</time>
      </trkpt>
      <trkpt lat="47.69497" lon="5.99215">
        <ele>297</ele>
        <time>2010-01-01T01:35:31Z</time>
      </trkpt>
      <trkpt lat="47.69497" lon="5.99214">
        <ele>297</ele>
        <time>2010-01-01T01:35:31Z</time>
      </trkpt>
      <trkpt lat="47.69497" lon="5.99213">
        <ele>297</ele>
        <time>2010-01-01T01:35:32Z</time>
      </trkpt>
      <trkpt lat="47.69497" lon="5.99211">
        <ele>297</ele>
        <time>2010-01-01T01:35:32Z</time>
      </trkpt>
      <trkpt lat="47.69497" lon="5.99209">
        <ele>297</ele>
        <time>2010-01-01T01:35:33Z</time>
      </trkpt>
      <trkpt lat="47.69498" lon="5.99208">
        <ele>297</ele>
        <time>2010-01-01T01:35:33Z</time>
      </trkpt>
      <trkpt lat="47.69499" lon="5.99206">
        <ele>297</ele>
        <time>2010-01-01T01:35:34Z</time>
      </trkpt>
      <trkpt lat="47.695" lon="5.99203">
        <ele>297</ele>
        <time>2010-01-01T01:35:35Z</time>
      </trkpt>
      <trkpt lat="47.69501" lon="5.99201">
        <ele>297</ele>
        <time>2010-01-01T01:35:36Z</time>
      </trkpt>
      <trkpt lat="47.69502" lon="5.99198">
        <ele>297</ele>
        <time>2010-01-01T01:35:36Z</time>
      </trkpt>
      <trkpt lat="47.69503" lon="5.99196">
        <ele>297</ele>
        <time>2010-01-01T01:35:37Z</time>
      </trkpt>
      <trkpt lat="47.69504" lon="5.99194">
        <ele>297</ele>
        <time>2010-01-01T01:35:38Z</time>
      </trkpt>
      <trkpt lat="47.69505" lon="5.99191">
        <ele>297</ele>
        <time>2010-01-01T01:35:38Z</time>
      </trkpt>
      <trkpt lat="47.69506" lon="5.99189">
        <ele>297</ele>
        <time>2010-01-01T01:35:39Z</time>
      </trkpt>
      <trkpt lat="47.69507" lon="5.99186">
        <ele>297</ele>
        <time>2010-01-01T01:35:40Z</time>
      </trkpt>
      <trkpt lat="47.69509" lon="5.99184">
        <ele>297</ele>
        <time>2010-01-01T01:35:41Z</time>
      </trkpt>
      <trkpt lat="47.6951" lon="5.99181">
        <ele>297</ele>
        <time>2010-01-01T01:35:42Z</time>
      </trkpt>
      <trkpt lat="47.69511" lon="5.99178">
        <ele>297</ele>
        <time>2010-01-01T01:35:43Z</time>
      </trkpt>
      <trkpt lat="47.69512" lon="5.99175">
        <ele>297</ele>
        <time>2010-01-01T01:35:44Z</time>
      </trkpt>
      <trkpt lat="47.69513" lon="5.99172">
        <ele>297</ele>
        <time>2010-01-01T01:35:45Z</time>
      </trkpt>
      <trkpt lat="47.69514" lon="5.99169">
        <ele>297</ele>
        <time>2010-01-01T01:35:45Z</time>
      </trkpt>
      <trkpt lat="47.69515" lon="5.99166">
        <ele>297</ele>
        <time>2010-01-01T01:35:46Z</time>
      </trkpt>
      <trkpt lat="47.69516" lon="5.99164">
        <ele>297</ele>
        <time>2010-01-01T01:35:47Z</time>
      </trkpt>
      <trkpt lat="47.69518" lon="5.9916">
        <ele>297</ele>
        <time>2010-01-01T01:35:48Z</time>
      </trkpt>
      <trkpt lat="47.6952" lon="5.99158">
        <ele>297</ele>
        <time>2010-01-01T01:35:49Z</time>
      </trkpt>
      <trkpt lat="47.69521" lon="5.99155">
        <ele>297</ele>
        <time>2010-01-01T01:35:50Z</time>
      </trkpt>
      <trkpt lat="47.69522" lon="5.99152">
        <ele>297</ele>
        <time>2010-01-01T01:35:51Z</time>
      </trkpt>
      <trkpt lat="47.69523" lon="5.99149">
        <ele>297</ele>
        <time>2010-01-01T01:35:52Z</time>
      </trkpt>
      <trkpt lat="47.69524" lon="5.99146">
        <ele>297</ele>
        <time>2010-01-01T01:35:53Z</time>
      </trkpt>
      <trkpt lat="47.69525" lon="5.99144">
        <ele>297</ele>
        <time>2010-01-01T01:35:53Z</time>
      </trkpt>
      <trkpt lat="47.69526" lon="5.99142">
        <ele>297</ele>
        <time>2010-01-01T01:35:54Z</time>
      </trkpt>
      <trkpt lat="47.69527" lon="5.99139">
        <ele>298</ele>
        <time>2010-01-01T01:35:55Z</time>
      </trkpt>
      <trkpt lat="47.69529" lon="5.99136">
        <ele>298</ele>
        <time>2010-01-01T01:35:56Z</time>
      </trkpt>
      <trkpt lat="47.6953" lon="5.99133">
        <ele>299</ele>
        <time>2010-01-01T01:35:57Z</time>
      </trkpt>
      <trkpt lat="47.69532" lon="5.99131">
        <ele>299</ele>
        <time>2010-01-01T01:35:58Z</time>
      </trkpt>
      <trkpt lat="47.69534" lon="5.99129">
        <ele>299</ele>
        <time>2010-01-01T01:35:59Z</time>
      </trkpt>
      <trkpt lat="47.69535" lon="5.99126">
        <ele>300</ele>
        <time>2010-01-01T01:36:00Z</time>
      </trkpt>
      <trkpt lat="47.69536" lon="5.99124">
        <ele>300</ele>
        <time>2010-01-01T01:36:01Z</time>
      </trkpt>
      <trkpt lat="47.69537" lon="5.99122">
        <ele>300</ele>
        <time>2010-01-01T01:36:01Z</time>
      </trkpt>
      <trkpt lat="47.69538" lon="5.9912">
        <ele>301</ele>
        <time>2010-01-01T01:36:02Z</time>
      </trkpt>
      <trkpt lat="47.69539" lon="5.99118">
        <ele>301</ele>
        <time>2010-01-01T01:36:03Z</time>
      </trkpt>
      <trkpt lat="47.69539" lon="5.99116">
        <ele>301</ele>
        <time>2010-01-01T01:36:03Z</time>
      </trkpt>
      <trkpt lat="47.6954" lon="5.99114">
        <ele>301</ele>
        <time>2010-01-01T01:36:04Z</time>
      </trkpt>
      <trkpt lat="47.69541" lon="5.99113">
        <ele>301</ele>
        <time>2010-01-01T01:36:04Z</time>
      </trkpt>
      <trkpt lat="47.69541" lon="5.99113">
        <ele>301</ele>
        <time>2010-01-01T01:36:04Z</time>
      </trkpt>
      <trkpt lat="47.69542" lon="5.99111">
        <ele>301</ele>
        <time>2010-01-01T01:36:05Z</time>
      </trkpt>
      <trkpt lat="47.69542" lon="5.99109">
        <ele>301</ele>
        <time>2010-01-01T01:36:05Z</time>
      </trkpt>
      <trkpt lat="47.69543" lon="5.99107">
        <ele>301</ele>
        <time>2010-01-01T01:36:06Z</time>
      </trkpt>
      <trkpt lat="47.69544" lon="5.99105">
        <ele>301</ele>
        <time>2010-01-01T01:36:07Z</time>
      </trkpt>
      <trkpt lat="47.69545" lon="5.99103">
        <ele>302</ele>
        <time>2010-01-01T01:36:08Z</time>
      </trkpt>
      <trkpt lat="47.69546" lon="5.991">
        <ele>302</ele>
        <time>2010-01-01T01:36:08Z</time>
      </trkpt>
      <trkpt lat="47.69547" lon="5.99098">
        <ele>302</ele>
        <time>2010-01-01T01:36:09Z</time>
      </trkpt>
      <trkpt lat="47.69548" lon="5.99096">
        <ele>303</ele>
        <time>2010-01-01T01:36:10Z</time>
      </trkpt>
      <trkpt lat="47.69549" lon="5.99094">
        <ele>303</ele>
        <time>2010-01-01T01:36:10Z</time>
      </trkpt>
      <trkpt lat="47.6955" lon="5.99092">
        <ele>303</ele>
        <time>2010-01-01T01:36:11Z</time>
      </trkpt>
      <trkpt lat="47.69552" lon="5.99091">
        <ele>303</ele>
        <time>2010-01-01T01:36:12Z</time>
      </trkpt>
      <trkpt lat="47.69553" lon="5.99089">
        <ele>303</ele>
        <time>2010-01-01T01:36:12Z</time>
      </trkpt>
      <trkpt lat="47.69554" lon="5.99088">
        <ele>303</ele>
        <time>2010-01-01T01:36:13Z</time>
      </trkpt>
      <trkpt lat="47.69554" lon="5.99086">
        <ele>303</ele>
        <time>2010-01-01T01:36:13Z</time>
      </trkpt>
      <trkpt lat="47.69555" lon="5.99085">
        <ele>303</ele>
        <time>2010-01-01T01:36:14Z</time>
      </trkpt>
      <trkpt lat="47.69556" lon="5.99083">
        <ele>303</ele>
        <time>2010-01-01T01:36:14Z</time>
      </trkpt>
      <trkpt lat="47.69557" lon="5.99082">
        <ele>303</ele>
        <time>2010-01-01T01:36:15Z</time>
      </trkpt>
      <trkpt lat="47.69558" lon="5.99081">
        <ele>303</ele>
        <time>2010-01-01T01:36:15Z</time>
      </trkpt>
      <trkpt lat="47.69559" lon="5.9908">
        <ele>303</ele>
        <time>2010-01-01T01:36:16Z</time>
      </trkpt>
      <trkpt lat="47.6956" lon="5.99078">
        <ele>303</ele>
        <time>2010-01-01T01:36:16Z</time>
      </trkpt>
      <trkpt lat="47.69561" lon="5.99076">
        <ele>303</ele>
        <time>2010-01-01T01:36:17Z</time>
      </trkpt>
      <trkpt lat="47.69562" lon="5.99074">
        <ele>303</ele>
        <time>2010-01-01T01:36:18Z</time>
      </trkpt>
      <trkpt lat="47.69562" lon="5.99072">
        <ele>303</ele>
        <time>2010-01-01T01:36:18Z</time>
      </trkpt>
      <trkpt lat="47.69564" lon="5.99069">
        <ele>303</ele>
        <time>2010-01-01T01:36:19Z</time>
      </trkpt>
      <trkpt lat="47.69565" lon="5.99067">
        <ele>303</ele>
        <time>2010-01-01T01:36:20Z</time>
      </trkpt>
      <trkpt lat="47.69566" lon="5.99064">
        <ele>303</ele>
        <time>2010-01-01T01:36:21Z</time>
      </trkpt>
      <trkpt lat="47.69567" lon="5.99062">
        <ele>303</ele>
        <time>2010-01-01T01:36:22Z</time>
      </trkpt>
      <trkpt lat="47.69568" lon="5.99059">
        <ele>303</ele>
        <time>2010-01-01T01:36:23Z</time>
      </trkpt>
      <trkpt lat="47.69569" lon="5.99056">
        <ele>303</ele>
        <time>2010-01-01T01:36:23Z</time>
      </trkpt>
      <trkpt lat="47.69571" lon="5.99054">
        <ele>303</ele>
        <time>2010-01-01T01:36:24Z</time>
      </trkpt>
      <trkpt lat="47.69572" lon="5.99052">
        <ele>303</ele>
        <time>2010-01-01T01:36:25Z</time>
      </trkpt>
      <trkpt lat="47.69574" lon="5.99051">
        <ele>303</ele>
        <time>2010-01-01T01:36:26Z</time>
      </trkpt>
      <trkpt lat="47.69575" lon="5.99048">
        <ele>303</ele>
        <time>2010-01-01T01:36:27Z</time>
      </trkpt>
      <trkpt lat="47.69576" lon="5.99046">
        <ele>303</ele>
        <time>2010-01-01T01:36:27Z</time>
      </trkpt>
      <trkpt lat="47.69577" lon="5.99043">
        <ele>303</ele>
        <time>2010-01-01T01:36:28Z</time>
      </trkpt>
      <trkpt lat="47.69577" lon="5.9904">
        <ele>303</ele>
        <time>2010-01-01T01:36:29Z</time>
      </trkpt>
      <trkpt lat="47.69579" lon="5.99037">
        <ele>303</ele>
        <time>2010-01-01T01:36:30Z</time>
      </trkpt>
      <trkpt lat="47.6958" lon="5.99034">
        <ele>303</ele>
        <time>2010-01-01T01:36:31Z</time>
      </trkpt>
      <trkpt lat="47.69582" lon="5.99031">
        <ele>303</ele>
        <time>2010-01-01T01:36:32Z</time>
      </trkpt>
      <trkpt lat="47.69583" lon="5.99027">
        <ele>303</ele>
        <time>2010-01-01T01:36:33Z</time>
      </trkpt>
      <trkpt lat="47.69584" lon="5.99024">
        <ele>303</ele>
        <time>2010-01-01T01:36:34Z</time>
      </trkpt>
      <trkpt lat="47.69586" lon="5.99021">
        <ele>303</ele>
        <time>2010-01-01T01:36:35Z</time>
      </trkpt>
      <trkpt lat="47.69587" lon="5.99018">
        <ele>303</ele>
        <time>2010-01-01T01:36:36Z</time>
      </trkpt>
      <trkpt lat="47.69588" lon="5.99015">
        <ele>303</ele>
        <time>2010-01-01T01:36:37Z</time>
      </trkpt>
      <trkpt lat="47.6959" lon="5.99013">
        <ele>303</ele>
        <time>2010-01-01T01:36:38Z</time>
      </trkpt>
      <trkpt lat="47.69591" lon="5.99011">
        <ele>303</ele>
        <time>2010-01-01T01:36:38Z</time>
      </trkpt>
      <trkpt lat="47.69592" lon="5.99009">
        <ele>303</ele>
        <time>2010-01-01T01:36:39Z</time>
      </trkpt>
      <trkpt lat="47.69594" lon="5.99008">
        <ele>303</ele>
        <time>2010-01-01T01:36:40Z</time>
      </trkpt>
      <trkpt lat="47.69595" lon="5.99008">
        <ele>303</ele>
        <time>2010-01-01T01:36:41Z</time>
      </trkpt>
      <trkpt lat="47.69597" lon="5.99007">
        <ele>303</ele>
        <time>2010-01-01T01:36:41Z</time>
      </trkpt>
      <trkpt lat="47.69599" lon="5.99006">
        <ele>303</ele>
        <time>2010-01-01T01:36:42Z</time>
      </trkpt>
      <trkpt lat="47.69601" lon="5.99006">
        <ele>302</ele>
        <time>2010-01-01T01:36:43Z</time>
      </trkpt>
      <trkpt lat="47.69603" lon="5.99005">
        <ele>302</ele>
        <time>2010-01-01T01:36:44Z</time>
      </trkpt>
      <trkpt lat="47.69605" lon="5.99003">
        <ele>301</ele>
        <time>2010-01-01T01:36:45Z</time>
      </trkpt>
      <trkpt lat="47.69607" lon="5.99003">
        <ele>301</ele>
        <time>2010-01-01T01:36:45Z</time>
      </trkpt>
      <trkpt lat="47.69609" lon="5.99001">
        <ele>301</ele>
        <time>2010-01-01T01:36:46Z</time>
      </trkpt>
      <trkpt lat="47.6961" lon="5.99">
        <ele>301</ele>
        <time>2010-01-01T01:36:47Z</time>
      </trkpt>
      <trkpt lat="47.69612" lon="5.99">
        <ele>300</ele>
        <time>2010-01-01T01:36:48Z</time>
      </trkpt>
      <trkpt lat="47.69614" lon="5.98999">
        <ele>300</ele>
        <time>2010-01-01T01:36:48Z</time>
      </trkpt>
      <trkpt lat="47.69616" lon="5.98998">
        <ele>299</ele>
        <time>2010-01-01T01:36:49Z</time>
      </trkpt>
      <trkpt lat="47.69618" lon="5.98998">
        <ele>299</ele>
        <time>2010-01-01T01:36:50Z</time>
      </trkpt>
      <trkpt lat="47.6962" lon="5.98997">
        <ele>298</ele>
        <time>2010-01-01T01:36:51Z</time>
      </trkpt>
      <trkpt lat="47.69621" lon="5.98996">
        <ele>298</ele>
        <time>2010-01-01T01:36:52Z</time>
      </trkpt>
      <trkpt lat="47.69623" lon="5.98995">
        <ele>297</ele>
        <time>2010-01-01T01:36:52Z</time>
      </trkpt>
      <trkpt lat="47.69625" lon="5.98994">
        <ele>297</ele>
        <time>2010-01-01T01:36:53Z</time>
      </trkpt>
      <trkpt lat="47.69628" lon="5.98992">
        <ele>296</ele>
        <time>2010-01-01T01:36:54Z</time>
      </trkpt>
      <trkpt lat="47.69631" lon="5.98991">
        <ele>295</ele>
        <time>2010-01-01T01:36:55Z</time>
      </trkpt>
      <trkpt lat="47.69633" lon="5.9899">
        <ele>295</ele>
        <time>2010-01-01T01:36:57Z</time>
      </trkpt>
      <trkpt lat="47.69635" lon="5.98989">
        <ele>294</ele>
        <time>2010-01-01T01:36:57Z</time>
      </trkpt>
      <trkpt lat="47.69638" lon="5.98989">
        <ele>294</ele>
        <time>2010-01-01T01:36:58Z</time>
      </trkpt>
      <trkpt lat="47.69639" lon="5.98989">
        <ele>293</ele>
        <time>2010-01-01T01:36:59Z</time>
      </trkpt>
      <trkpt lat="47.69641" lon="5.98989">
        <ele>293</ele>
        <time>2010-01-01T01:37:00Z</time>
      </trkpt>
      <trkpt lat="47.69641" lon="5.98989">
        <ele>292</ele>
        <time>2010-01-01T01:37:00Z</time>
      </trkpt>
      <trkpt lat="47.69644" lon="5.9899">
        <ele>290</ele>
        <time>2010-01-01T01:37:01Z</time>
      </trkpt>
      <trkpt lat="47.69647" lon="5.9899">
        <ele>290</ele>
        <time>2010-01-01T01:37:02Z</time>
      </trkpt>
      <trkpt lat="47.69649" lon="5.98989">
        <ele>290</ele>
        <time>2010-01-01T01:37:03Z</time>
      </trkpt>
      <trkpt lat="47.69652" lon="5.98989">
        <ele>290</ele>
        <time>2010-01-01T01:37:04Z</time>
      </trkpt>
      <trkpt lat="47.69656" lon="5.98988">
        <ele>290</ele>
        <time>2010-01-01T01:37:06Z</time>
      </trkpt>
      <trkpt lat="47.69659" lon="5.98987">
        <ele>290</ele>
        <time>2010-01-01T01:37:07Z</time>
      </trkpt>
      <trkpt lat="47.69662" lon="5.98985">
        <ele>290</ele>
        <time>2010-01-01T01:37:09Z</time>
      </trkpt>
      <trkpt lat="47.69666" lon="5.98984">
        <ele>290</ele>
        <time>2010-01-01T01:37:10Z</time>
      </trkpt>
      <trkpt lat="47.69669" lon="5.98983">
        <ele>289</ele>
        <time>2010-01-01T01:37:11Z</time>
      </trkpt>
      <trkpt lat="47.69672" lon="5.98981">
        <ele>289</ele>
        <time>2010-01-01T01:37:13Z</time>
      </trkpt>
      <trkpt lat="47.69676" lon="5.9898">
        <ele>288</ele>
        <time>2010-01-01T01:37:14Z</time>
      </trkpt>
      <trkpt lat="47.6968" lon="5.98979">
        <ele>288</ele>
        <time>2010-01-01T01:37:16Z</time>
      </trkpt>
      <trkpt lat="47.69683" lon="5.98978">
        <ele>288</ele>
        <time>2010-01-01T01:37:17Z</time>
      </trkpt>
      <trkpt lat="47.69686" lon="5.98976">
        <ele>288</ele>
        <time>2010-01-01T01:37:18Z</time>
      </trkpt>
      <trkpt lat="47.6969" lon="5.98974">
        <ele>288</ele>
        <time>2010-01-01T01:37:20Z</time>
      </trkpt>
      <trkpt lat="47.69694" lon="5.98973">
        <ele>288</ele>
        <time>2010-01-01T01:37:22Z</time>
      </trkpt>
      <trkpt lat="47.69698" lon="5.98972">
        <ele>288</ele>
        <time>2010-01-01T01:37:23Z</time>
      </trkpt>
      <trkpt lat="47.69701" lon="5.98971">
        <ele>287</ele>
        <time>2010-01-01T01:37:25Z</time>
      </trkpt>
      <trkpt lat="47.69705" lon="5.9897">
        <ele>287</ele>
        <time>2010-01-01T01:37:26Z</time>
      </trkpt>
      <trkpt lat="47.69708" lon="5.98969">
        <ele>286</ele>
        <time>2010-01-01T01:37:27Z</time>
      </trkpt>
      <trkpt lat="47.69711" lon="5.98968">
        <ele>286</ele>
        <time>2010-01-01T01:37:29Z</time>
      </trkpt>
      <trkpt lat="47.69714" lon="5.98967">
        <ele>286</ele>
        <time>2010-01-01T01:37:30Z</time>
      </trkpt>
      <trkpt lat="47.69717" lon="5.98967">
        <ele>286</ele>
        <time>2010-01-01T01:37:31Z</time>
      </trkpt>
      <trkpt lat="47.69719" lon="5.98966">
        <ele>286</ele>
        <time>2010-01-01T01:37:32Z</time>
      </trkpt>
      <trkpt lat="47.69722" lon="5.98965">
        <ele>286</ele>
        <time>2010-01-01T01:37:33Z</time>
      </trkpt>
      <trkpt lat="47.69724" lon="5.98964">
        <ele>286</ele>
        <time>2010-01-01T01:37:34Z</time>
      </trkpt>
      <trkpt lat="47.69727" lon="5.98963">
        <ele>286</ele>
        <time>2010-01-01T01:37:35Z</time>
      </trkpt>
      <trkpt lat="47.6973" lon="5.98962">
        <ele>286</ele>
        <time>2010-01-01T01:37:36Z</time>
      </trkpt>
      <trkpt lat="47.69732" lon="5.98961">
        <ele>286</ele>
        <time>2010-01-01T01:37:37Z</time>
      </trkpt>
      <trkpt lat="47.69735" lon="5.9896">
        <ele>286</ele>
        <time>2010-01-01T01:37:38Z</time>
      </trkpt>
      <trkpt lat="47.69737" lon="5.98959">
        <ele>286</ele>
        <time>2010-01-01T01:37:39Z</time>
      </trkpt>
      <trkpt lat="47.69739" lon="5.98958">
        <ele>286</ele>
        <time>2010-01-01T01:37:40Z</time>
      </trkpt>
      <trkpt lat="47.69742" lon="5.98957">
        <ele>286</ele>
        <time>2010-01-01T01:37:41Z</time>
      </trkpt>
      <trkpt lat="47.69744" lon="5.98956">
        <ele>286</ele>
        <time>2010-01-01T01:37:42Z</time>
      </trkpt>
      <trkpt lat="47.69746" lon="5.98954">
        <ele>286</ele>
        <time>2010-01-01T01:37:43Z</time>
      </trkpt>
      <trkpt lat="47.69748" lon="5.98953">
        <ele>286</ele>
        <time>2010-01-01T01:37:44Z</time>
      </trkpt>
      <trkpt lat="47.69751" lon="5.98953">
        <ele>286</ele>
        <time>2010-01-01T01:37:45Z</time>
      </trkpt>
      <trkpt lat="47.69753" lon="5.98952">
        <ele>286</ele>
        <time>2010-01-01T01:37:46Z</time>
      </trkpt>
      <trkpt lat="47.69756" lon="5.98951">
        <ele>286</ele>
        <time>2010-01-01T01:37:47Z</time>
      </trkpt>
      <trkpt lat="47.69759" lon="5.9895">
        <ele>286</ele>
        <time>2010-01-01T01:37:48Z</time>
      </trkpt>
      <trkpt lat="47.69761" lon="5.9895">
        <ele>286</ele>
        <time>2010-01-01T01:37:49Z</time>
      </trkpt>
      <trkpt lat="47.69763" lon="5.98949">
        <ele>286</ele>
        <time>2010-01-01T01:37:50Z</time>
      </trkpt>
      <trkpt lat="47.69765" lon="5.98949">
        <ele>286</ele>
        <time>2010-01-01T01:37:51Z</time>
      </trkpt>
      <trkpt lat="47.69766" lon="5.98949">
        <ele>287</ele>
        <time>2010-01-01T01:37:51Z</time>
      </trkpt>
      <trkpt lat="47.69768" lon="5.98948">
        <ele>287</ele>
        <time>2010-01-01T01:37:52Z</time>
      </trkpt>
      <trkpt lat="47.6977" lon="5.98948">
        <ele>288</ele>
        <time>2010-01-01T01:37:53Z</time>
      </trkpt>
      <trkpt lat="47.69772" lon="5.98946">
        <ele>288</ele>
        <time>2010-01-01T01:37:54Z</time>
      </trkpt>
      <trkpt lat="47.69775" lon="5.98945">
        <ele>288</ele>
        <time>2010-01-01T01:37:55Z</time>
      </trkpt>
      <trkpt lat="47.69777" lon="5.98945">
        <ele>288</ele>
        <time>2010-01-01T01:37:56Z</time>
      </trkpt>
      <trkpt lat="47.6978" lon="5.98944">
        <ele>288</ele>
        <time>2010-01-01T01:37:57Z</time>
      </trkpt>
      <trkpt lat="47.69783" lon="5.98943">
        <ele>288</ele>
        <time>2010-01-01T01:37:58Z</time>
      </trkpt>
      <trkpt lat="47.69784" lon="5.98941">
        <ele>288</ele>
        <time>2010-01-01T01:37:59Z</time>
      </trkpt>
      <trkpt lat="47.69786" lon="5.98941">
        <ele>288</ele>
        <time>2010-01-01T01:38:00Z</time>
      </trkpt>
      <trkpt lat="47.69788" lon="5.9894">
        <ele>288</ele>
        <time>2010-01-01T01:38:00Z</time>
      </trkpt>
      <trkpt lat="47.69789" lon="5.9894">
        <ele>288</ele>
        <time>2010-01-01T01:38:01Z</time>
      </trkpt>
      <trkpt lat="47.69791" lon="5.98939">
        <ele>288</ele>
        <time>2010-01-01T01:38:02Z</time>
      </trkpt>
      <trkpt lat="47.69793" lon="5.98938">
        <ele>288</ele>
        <time>2010-01-01T01:38:03Z</time>
      </trkpt>
      <trkpt lat="47.69795" lon="5.98937">
        <ele>288</ele>
        <time>2010-01-01T01:38:03Z</time>
      </trkpt>
      <trkpt lat="47.69797" lon="5.98937">
        <ele>288</ele>
        <time>2010-01-01T01:38:04Z</time>
      </trkpt>
      <trkpt lat="47.69799" lon="5.98936">
        <ele>288</ele>
        <time>2010-01-01T01:38:05Z</time>
      </trkpt>
      <trkpt lat="47.69801" lon="5.98935">
        <ele>288</ele>
        <time>2010-01-01T01:38:06Z</time>
      </trkpt>
      <trkpt lat="47.69803" lon="5.98934">
        <ele>288</ele>
        <time>2010-01-01T01:38:07Z</time>
      </trkpt>
      <trkpt lat="47.69805" lon="5.98933">
        <ele>288</ele>
        <time>2010-01-01T01:38:08Z</time>
      </trkpt>
      <trkpt lat="47.69806" lon="5.98932">
        <ele>288</ele>
        <time>2010-01-01T01:38:08Z</time>
      </trkpt>
      <trkpt lat="47.69808" lon="5.98931">
        <ele>288</ele>
        <time>2010-01-01T01:38:09Z</time>
      </trkpt>
      <trkpt lat="47.6981" lon="5.9893">
        <ele>289</ele>
        <time>2010-01-01T01:38:10Z</time>
      </trkpt>
      <trkpt lat="47.69812" lon="5.98929">
        <ele>289</ele>
        <time>2010-01-01T01:38:11Z</time>
      </trkpt>
      <trkpt lat="47.69813" lon="5.98928">
        <ele>290</ele>
        <time>2010-01-01T01:38:11Z</time>
      </trkpt>
      <trkpt lat="47.69815" lon="5.98928">
        <ele>290</ele>
        <time>2010-01-01T01:38:12Z</time>
      </trkpt>
      <trkpt lat="47.69817" lon="5.98927">
        <ele>290</ele>
        <time>2010-01-01T01:38:13Z</time>
      </trkpt>
      <trkpt lat="47.69819" lon="5.98927">
        <ele>290</ele>
        <time>2010-01-01T01:38:13Z</time>
      </trkpt>
      <trkpt lat="47.69821" lon="5.98926">
        <ele>290</ele>
        <time>2010-01-01T01:38:14Z</time>
      </trkpt>
      <trkpt lat="47.69823" lon="5.98926">
        <ele>290</ele>
        <time>2010-01-01T01:38:15Z</time>
      </trkpt>
      <trkpt lat="47.69825" lon="5.98926">
        <ele>290</ele>
        <time>2010-01-01T01:38:16Z</time>
      </trkpt>
      <trkpt lat="47.69827" lon="5.98925">
        <ele>290</ele>
        <time>2010-01-01T01:38:17Z</time>
      </trkpt>
      <trkpt lat="47.69829" lon="5.98925">
        <ele>290</ele>
        <time>2010-01-01T01:38:18Z</time>
      </trkpt>
      <trkpt lat="47.69831" lon="5.98925">
        <ele>290</ele>
        <time>2010-01-01T01:38:18Z</time>
      </trkpt>
      <trkpt lat="47.69833" lon="5.98924">
        <ele>290</ele>
        <time>2010-01-01T01:38:19Z</time>
      </trkpt>
      <trkpt lat="47.69835" lon="5.98923">
        <ele>290</ele>
        <time>2010-01-01T01:38:20Z</time>
      </trkpt>
      <trkpt lat="47.69836" lon="5.98922">
        <ele>290</ele>
        <time>2010-01-01T01:38:20Z</time>
      </trkpt>
      <trkpt lat="47.69838" lon="5.98921">
        <ele>290</ele>
        <time>2010-01-01T01:38:21Z</time>
      </trkpt>
      <trkpt lat="47.6984" lon="5.9892">
        <ele>290</ele>
        <time>2010-01-01T01:38:22Z</time>
      </trkpt>
      <trkpt lat="47.69842" lon="5.98919">
        <ele>290</ele>
        <time>2010-01-01T01:38:23Z</time>
      </trkpt>
      <trkpt lat="47.69845" lon="5.98918">
        <ele>290</ele>
        <time>2010-01-01T01:38:24Z</time>
      </trkpt>
      <trkpt lat="47.69847" lon="5.98917">
        <ele>290</ele>
        <time>2010-01-01T01:38:25Z</time>
      </trkpt>
      <trkpt lat="47.69849" lon="5.98916">
        <ele>290</ele>
        <time>2010-01-01T01:38:26Z</time>
      </trkpt>
      <trkpt lat="47.6985" lon="5.98915">
        <ele>290</ele>
        <time>2010-01-01T01:38:27Z</time>
      </trkpt>
      <trkpt lat="47.69852" lon="5.98914">
        <ele>290</ele>
        <time>2010-01-01T01:38:27Z</time>
      </trkpt>
      <trkpt lat="47.69854" lon="5.98912">
        <ele>291</ele>
        <time>2010-01-01T01:38:28Z</time>
      </trkpt>
      <trkpt lat="47.69856" lon="5.98912">
        <ele>291</ele>
        <time>2010-01-01T01:38:29Z</time>
      </trkpt>
      <trkpt lat="47.69858" lon="5.98911">
        <ele>292</ele>
        <time>2010-01-01T01:38:30Z</time>
      </trkpt>
      <trkpt lat="47.6986" lon="5.98911">
        <ele>292</ele>
        <time>2010-01-01T01:38:31Z</time>
      </trkpt>
      <trkpt lat="47.69863" lon="5.98911">
        <ele>292</ele>
        <time>2010-01-01T01:38:32Z</time>
      </trkpt>
      <trkpt lat="47.69866" lon="5.9891">
        <ele>292</ele>
        <time>2010-01-01T01:38:33Z</time>
      </trkpt>
      <trkpt lat="47.69867" lon="5.98911">
        <ele>292</ele>
        <time>2010-01-01T01:38:34Z</time>
      </trkpt>
      <trkpt lat="47.6987" lon="5.9891">
        <ele>292</ele>
        <time>2010-01-01T01:38:34Z</time>
      </trkpt>
      <trkpt lat="47.69872" lon="5.9891">
        <ele>292</ele>
        <time>2010-01-01T01:38:35Z</time>
      </trkpt>
      <trkpt lat="47.69873" lon="5.98909">
        <ele>292</ele>
        <time>2010-01-01T01:38:36Z</time>
      </trkpt>
      <trkpt lat="47.69875" lon="5.98907">
        <ele>292</ele>
        <time>2010-01-01T01:38:37Z</time>
      </trkpt>
      <trkpt lat="47.69877" lon="5.98906">
        <ele>292</ele>
        <time>2010-01-01T01:38:38Z</time>
      </trkpt>
      <trkpt lat="47.69879" lon="5.98905">
        <ele>292</ele>
        <time>2010-01-01T01:38:38Z</time>
      </trkpt>
      <trkpt lat="47.6988" lon="5.98903">
        <ele>292</ele>
        <time>2010-01-01T01:38:39Z</time>
      </trkpt>
      <trkpt lat="47.69882" lon="5.98902">
        <ele>292</ele>
        <time>2010-01-01T01:38:40Z</time>
      </trkpt>
      <trkpt lat="47.69883" lon="5.98902">
        <ele>292</ele>
        <time>2010-01-01T01:38:41Z</time>
      </trkpt>
      <trkpt lat="47.69885" lon="5.989">
        <ele>292</ele>
        <time>2010-01-01T01:38:41Z</time>
      </trkpt>
      <trkpt lat="47.69887" lon="5.98899">
        <ele>292</ele>
        <time>2010-01-01T01:38:42Z</time>
      </trkpt>
      <trkpt lat="47.69888" lon="5.98899">
        <ele>292</ele>
        <time>2010-01-01T01:38:43Z</time>
      </trkpt>
      <trkpt lat="47.69889" lon="5.98899">
        <ele>293</ele>
        <time>2010-01-01T01:38:43Z</time>
      </trkpt>
      <trkpt lat="47.69891" lon="5.989">
        <ele>293</ele>
        <time>2010-01-01T01:38:44Z</time>
      </trkpt>
      <trkpt lat="47.69893" lon="5.989">
        <ele>294</ele>
        <time>2010-01-01T01:38:44Z</time>
      </trkpt>
      <trkpt lat="47.69895" lon="5.989">
        <ele>294</ele>
        <time>2010-01-01T01:38:45Z</time>
      </trkpt>
      <trkpt lat="47.69897" lon="5.98899">
        <ele>294</ele>
        <time>2010-01-01T01:38:46Z</time>
      </trkpt>
      <trkpt lat="47.69899" lon="5.98899">
        <ele>294</ele>
        <time>2010-01-01T01:38:47Z</time>
      </trkpt>
      <trkpt lat="47.69901" lon="5.98898">
        <ele>294</ele>
        <time>2010-01-01T01:38:48Z</time>
      </trkpt>
      <trkpt lat="47.69903" lon="5.98897">
        <ele>294</ele>
        <time>2010-01-01T01:38:49Z</time>
      </trkpt>
      <trkpt lat="47.69905" lon="5.98896">
        <ele>294</ele>
        <time>2010-01-01T01:38:49Z</time>
      </trkpt>
      <trkpt lat="47.69907" lon="5.98896">
        <ele>294</ele>
        <time>2010-01-01T01:38:50Z</time>
      </trkpt>
      <trkpt lat="47.69909" lon="5.98894">
        <ele>294</ele>
        <time>2010-01-01T01:38:51Z</time>
      </trkpt>
      <trkpt lat="47.6991" lon="5.98893">
        <ele>294</ele>
        <time>2010-01-01T01:38:52Z</time>
      </trkpt>
      <trkpt lat="47.69912" lon="5.98892">
        <ele>294</ele>
        <time>2010-01-01T01:38:53Z</time>
      </trkpt>
      <trkpt lat="47.69914" lon="5.98892">
        <ele>294</ele>
        <time>2010-01-01T01:38:53Z</time>
      </trkpt>
      <trkpt lat="47.69916" lon="5.98891">
        <ele>294</ele>
        <time>2010-01-01T01:38:54Z</time>
      </trkpt>
      <trkpt lat="47.69917" lon="5.9889">
        <ele>294</ele>
        <time>2010-01-01T01:38:55Z</time>
      </trkpt>
      <trkpt lat="47.69919" lon="5.9889">
        <ele>294</ele>
        <time>2010-01-01T01:38:55Z</time>
      </trkpt>
      <trkpt lat="47.6992" lon="5.98889">
        <ele>294</ele>
        <time>2010-01-01T01:38:56Z</time>
      </trkpt>
      <trkpt lat="47.69923" lon="5.98888">
        <ele>294</ele>
        <time>2010-01-01T01:38:57Z</time>
      </trkpt>
      <trkpt lat="47.69925" lon="5.98887">
        <ele>294</ele>
        <time>2010-01-01T01:38:58Z</time>
      </trkpt>
      <trkpt lat="47.69928" lon="5.98886">
        <ele>294</ele>
        <time>2010-01-01T01:38:59Z</time>
      </trkpt>
      <trkpt lat="47.6993" lon="5.98885">
        <ele>294</ele>
        <time>2010-01-01T01:39:00Z</time>
      </trkpt>
      <trkpt lat="47.69932" lon="5.98884">
        <ele>295</ele>
        <time>2010-01-01T01:39:01Z</time>
      </trkpt>
      <trkpt lat="47.69933" lon="5.98883">
        <ele>295</ele>
        <time>2010-01-01T01:39:01Z</time>
      </trkpt>
      <trkpt lat="47.69936" lon="5.98882">
        <ele>295</ele>
        <time>2010-01-01T01:39:02Z</time>
      </trkpt>
      <trkpt lat="47.69938" lon="5.98882">
        <ele>296</ele>
        <time>2010-01-01T01:39:03Z</time>
      </trkpt>
      <trkpt lat="47.6994" lon="5.98881">
        <ele>296</ele>
        <time>2010-01-01T01:39:04Z</time>
      </trkpt>
      <trkpt lat="47.69942" lon="5.9888">
        <ele>296</ele>
        <time>2010-01-01T01:39:05Z</time>
      </trkpt>
      <trkpt lat="47.69943" lon="5.98879">
        <ele>296</ele>
        <time>2010-01-01T01:39:06Z</time>
      </trkpt>
      <trkpt lat="47.69945" lon="5.98878">
        <ele>296</ele>
        <time>2010-01-01T01:39:06Z</time>
      </trkpt>
      <trkpt lat="47.69947" lon="5.98878">
        <ele>296</ele>
        <time>2010-01-01T01:39:07Z</time>
      </trkpt>
      <trkpt lat="47.69949" lon="5.98877">
        <ele>296</ele>
        <time>2010-01-01T01:39:08Z</time>
      </trkpt>
      <trkpt lat="47.6995" lon="5.98877">
        <ele>296</ele>
        <time>2010-01-01T01:39:08Z</time>
      </trkpt>
      <trkpt lat="47.69951" lon="5.98877">
        <ele>296</ele>
        <time>2010-01-01T01:39:09Z</time>
      </trkpt>
      <trkpt lat="47.69952" lon="5.98876">
        <ele>296</ele>
        <time>2010-01-01T01:39:09Z</time>
      </trkpt>
      <trkpt lat="47.69955" lon="5.98875">
        <ele>296</ele>
        <time>2010-01-01T01:39:10Z</time>
      </trkpt>
      <trkpt lat="47.69956" lon="5.98874">
        <ele>296</ele>
        <time>2010-01-01T01:39:11Z</time>
      </trkpt>
      <trkpt lat="47.69958" lon="5.98873">
        <ele>296</ele>
        <time>2010-01-01T01:39:12Z</time>
      </trkpt>
      <trkpt lat="47.6996" lon="5.98872">
        <ele>296</ele>
        <time>2010-01-01T01:39:13Z</time>
      </trkpt>
      <trkpt lat="47.69963" lon="5.98871">
        <ele>296</ele>
        <time>2010-01-01T01:39:14Z</time>
      </trkpt>
      <trkpt lat="47.69965" lon="5.98871">
        <ele>296</ele>
        <time>2010-01-01T01:39:15Z</time>
      </trkpt>
      <trkpt lat="47.69967" lon="5.9887">
        <ele>297</ele>
        <time>2010-01-01T01:39:15Z</time>
      </trkpt>
      <trkpt lat="47.69969" lon="5.98869">
        <ele>297</ele>
        <time>2010-01-01T01:39:16Z</time>
      </trkpt>
      <trkpt lat="47.6997" lon="5.98868">
        <ele>297</ele>
        <time>2010-01-01T01:39:17Z</time>
      </trkpt>
      <trkpt lat="47.69972" lon="5.98867">
        <ele>298</ele>
        <time>2010-01-01T01:39:18Z</time>
      </trkpt>
      <trkpt lat="47.69974" lon="5.98866">
        <ele>298</ele>
        <time>2010-01-01T01:39:18Z</time>
      </trkpt>
      <trkpt lat="47.69975" lon="5.98865">
        <ele>298</ele>
        <time>2010-01-01T01:39:19Z</time>
      </trkpt>
      <trkpt lat="47.69977" lon="5.98864">
        <ele>298</ele>
        <time>2010-01-01T01:39:20Z</time>
      </trkpt>
      <trkpt lat="47.69979" lon="5.98863">
        <ele>298</ele>
        <time>2010-01-01T01:39:20Z</time>
      </trkpt>
      <trkpt lat="47.6998" lon="5.98863">
        <ele>298</ele>
        <time>2010-01-01T01:39:21Z</time>
      </trkpt>
      <trkpt lat="47.69982" lon="5.98862">
        <ele>298</ele>
        <time>2010-01-01T01:39:22Z</time>
      </trkpt>
      <trkpt lat="47.69983" lon="5.98861">
        <ele>298</ele>
        <time>2010-01-01T01:39:23Z</time>
      </trkpt>
      <trkpt lat="47.69985" lon="5.9886">
        <ele>298</ele>
        <time>2010-01-01T01:39:23Z</time>
      </trkpt>
      <trkpt lat="47.69987" lon="5.9886">
        <ele>298</ele>
        <time>2010-01-01T01:39:24Z</time>
      </trkpt>
      <trkpt lat="47.69988" lon="5.98859">
        <ele>298</ele>
        <time>2010-01-01T01:39:25Z</time>
      </trkpt>
      <trkpt lat="47.6999" lon="5.98859">
        <ele>298</ele>
        <time>2010-01-01T01:39:25Z</time>
      </trkpt>
      <trkpt lat="47.69991" lon="5.98858">
        <ele>298</ele>
        <time>2010-01-01T01:39:26Z</time>
      </trkpt>
      <trkpt lat="47.69993" lon="5.98857">
        <ele>298</ele>
        <time>2010-01-01T01:39:27Z</time>
      </trkpt>
      <trkpt lat="47.69996" lon="5.98857">
        <ele>298</ele>
        <time>2010-01-01T01:39:28Z</time>
      </trkpt>
      <trkpt lat="47.69997" lon="5.98855">
        <ele>298</ele>
        <time>2010-01-01T01:39:28Z</time>
      </trkpt>
      <trkpt lat="47.69998" lon="5.98855">
        <ele>298</ele>
        <time>2010-01-01T01:39:29Z</time>
      </trkpt>
      <trkpt lat="47.7" lon="5.98854">
        <ele>298</ele>
        <time>2010-01-01T01:39:29Z</time>
      </trkpt>
      <trkpt lat="47.70002" lon="5.98854">
        <ele>298</ele>
        <time>2010-01-01T01:39:30Z</time>
      </trkpt>
      <trkpt lat="47.70003" lon="5.98852">
        <ele>298</ele>
        <time>2010-01-01T01:39:31Z</time>
      </trkpt>
      <trkpt lat="47.70004" lon="5.9885">
        <ele>298</ele>
        <time>2010-01-01T01:39:31Z</time>
      </trkpt>
      <trkpt lat="47.70004" lon="5.98849">
        <ele>299</ele>
        <time>2010-01-01T01:39:32Z</time>
      </trkpt>
      <trkpt lat="47.70004" lon="5.98849">
        <ele>299</ele>
        <time>2010-01-01T01:39:32Z</time>
      </trkpt>
      <trkpt lat="47.70005" lon="5.98848">
        <ele>299</ele>
        <time>2010-01-01T01:39:32Z</time>
      </trkpt>
      <trkpt lat="47.70005" lon="5.98847">
        <ele>300</ele>
        <time>2010-01-01T01:39:33Z</time>
      </trkpt>
      <trkpt lat="47.70006" lon="5.98846">
        <ele>300</ele>
        <time>2010-01-01T01:39:33Z</time>
      </trkpt>
      <trkpt lat="47.70006" lon="5.98844">
        <ele>300</ele>
        <time>2010-01-01T01:39:33Z</time>
      </trkpt>
      <trkpt lat="47.70007" lon="5.98842">
        <ele>300</ele>
        <time>2010-01-01T01:39:34Z</time>
      </trkpt>
      <trkpt lat="47.70008" lon="5.9884">
        <ele>300</ele>
        <time>2010-01-01T01:39:35Z</time>
      </trkpt>
      <trkpt lat="47.70009" lon="5.98838">
        <ele>300</ele>
        <time>2010-01-01T01:39:35Z</time>
      </trkpt>
      <trkpt lat="47.7001" lon="5.98836">
        <ele>300</ele>
        <time>2010-01-01T01:39:36Z</time>
      </trkpt>
      <trkpt lat="47.70011" lon="5.98833">
        <ele>300</ele>
        <time>2010-01-01T01:39:37Z</time>
      </trkpt>
      <trkpt lat="47.70012" lon="5.98831">
        <ele>300</ele>
        <time>2010-01-01T01:39:38Z</time>
      </trkpt>
      <trkpt lat="47.70014" lon="5.98827">
        <ele>300</ele>
        <time>2010-01-01T01:39:39Z</time>
      </trkpt>
      <trkpt lat="47.70016" lon="5.98824">
        <ele>300</ele>
        <time>2010-01-01T01:39:40Z</time>
      </trkpt>
      <trkpt lat="47.70017" lon="5.9882">
        <ele>300</ele>
        <time>2010-01-01T01:39:41Z</time>
      </trkpt>
      <trkpt lat="47.70019" lon="5.98817">
        <ele>300</ele>
        <time>2010-01-01T01:39:42Z</time>
      </trkpt>
      <trkpt lat="47.7002" lon="5.98814">
        <ele>300</ele>
        <time>2010-01-01T01:39:43Z</time>
      </trkpt>
      <trkpt lat="47.70021" lon="5.98811">
        <ele>300</ele>
        <time>2010-01-01T01:39:44Z</time>
      </trkpt>
      <trkpt lat="47.70023" lon="5.98808">
        <ele>300</ele>
        <time>2010-01-01T01:39:45Z</time>
      </trkpt>
      <trkpt lat="47.70025" lon="5.98803">
        <ele>300</ele>
        <time>2010-01-01T01:39:47Z</time>
      </trkpt>
      <trkpt lat="47.70026" lon="5.988">
        <ele>300</ele>
        <time>2010-01-01T01:39:48Z</time>
      </trkpt>
      <trkpt lat="47.70027" lon="5.98797">
        <ele>300</ele>
        <time>2010-01-01T01:39:49Z</time>
      </trkpt>
      <trkpt lat="47.70028" lon="5.98794">
        <ele>300</ele>
        <time>2010-01-01T01:39:50Z</time>
      </trkpt>
      <trkpt lat="47.70029" lon="5.98791">
        <ele>300</ele>
        <time>2010-01-01T01:39:51Z</time>
      </trkpt>
      <trkpt lat="47.7003" lon="5.98789">
        <ele>300</ele>
        <time>2010-01-01T01:39:51Z</time>
      </trkpt>
      <trkpt lat="47.70031" lon="5.98786">
        <ele>300</ele>
        <time>2010-01-01T01:39:52Z</time>
      </trkpt>
      <trkpt lat="47.70032" lon="5.98782">
        <ele>300</ele>
        <time>2010-01-01T01:39:53Z</time>
      </trkpt>
      <trkpt lat="47.70034" lon="5.9878">
        <ele>300</ele>
        <time>2010-01-01T01:39:54Z</time>
      </trkpt>
      <trkpt lat="47.70035" lon="5.98777">
        <ele>300</ele>
        <time>2010-01-01T01:39:55Z</time>
      </trkpt>
      <trkpt lat="47.70036" lon="5.98774">
        <ele>300</ele>
        <time>2010-01-01T01:39:56Z</time>
      </trkpt>
      <trkpt lat="47.70037" lon="5.98771">
        <ele>300</ele>
        <time>2010-01-01T01:39:57Z</time>
      </trkpt>
      <trkpt lat="47.70038" lon="5.98768">
        <ele>300</ele>
        <time>2010-01-01T01:39:57Z</time>
      </trkpt>
      <trkpt lat="47.70039" lon="5.98766">
        <ele>300</ele>
        <time>2010-01-01T01:39:58Z</time>
      </trkpt>
      <trkpt lat="47.7004" lon="5.98764">
        <ele>300</ele>
        <time>2010-01-01T01:39:59Z</time>
      </trkpt>
      <trkpt lat="47.70041" lon="5.98761">
        <ele>300</ele>
        <time>2010-01-01T01:40:00Z</time>
      </trkpt>
      <trkpt lat="47.70042" lon="5.98758">
        <ele>300</ele>
        <time>2010-01-01T01:40:01Z</time>
      </trkpt>
      <trkpt lat="47.70043" lon="5.98755">
        <ele>300</ele>
        <time>2010-01-01T01:40:02Z</time>
      </trkpt>
      <trkpt lat="47.70044" lon="5.98752">
        <ele>300</ele>
        <time>2010-01-01T01:40:02Z</time>
      </trkpt>
      <trkpt lat="47.70045" lon="5.9875">
        <ele>300</ele>
        <time>2010-01-01T01:40:03Z</time>
      </trkpt>
      <trkpt lat="47.70047" lon="5.98747">
        <ele>300</ele>
        <time>2010-01-01T01:40:04Z</time>
      </trkpt>
      <trkpt lat="47.70048" lon="5.98745">
        <ele>300</ele>
        <time>2010-01-01T01:40:05Z</time>
      </trkpt>
      <trkpt lat="47.70049" lon="5.98742">
        <ele>300</ele>
        <time>2010-01-01T01:40:06Z</time>
      </trkpt>
      <trkpt lat="47.7005" lon="5.98739">
        <ele>301</ele>
        <time>2010-01-01T01:40:07Z</time>
      </trkpt>
      <trkpt lat="47.70052" lon="5.98736">
        <ele>301</ele>
        <time>2010-01-01T01:40:08Z</time>
      </trkpt>
      <trkpt lat="47.70053" lon="5.98732">
        <ele>302</ele>
        <time>2010-01-01T01:40:09Z</time>
      </trkpt>
      <trkpt lat="47.70054" lon="5.98729">
        <ele>302</ele>
        <time>2010-01-01T01:40:10Z</time>
      </trkpt>
      <trkpt lat="47.70055" lon="5.98726">
        <ele>302</ele>
        <time>2010-01-01T01:40:11Z</time>
      </trkpt>
      <trkpt lat="47.70055" lon="5.98723">
        <ele>302</ele>
        <time>2010-01-01T01:40:12Z</time>
      </trkpt>
      <trkpt lat="47.70056" lon="5.98721">
        <ele>302</ele>
        <time>2010-01-01T01:40:12Z</time>
      </trkpt>
      <trkpt lat="47.70057" lon="5.98718">
        <ele>302</ele>
        <time>2010-01-01T01:40:13Z</time>
      </trkpt>
      <trkpt lat="47.70058" lon="5.98715">
        <ele>302</ele>
        <time>2010-01-01T01:40:14Z</time>
      </trkpt>
      <trkpt lat="47.7006" lon="5.98713">
        <ele>302</ele>
        <time>2010-01-01T01:40:15Z</time>
      </trkpt>
      <trkpt lat="47.70061" lon="5.9871">
        <ele>302</ele>
        <time>2010-01-01T01:40:16Z</time>
      </trkpt>
      <trkpt lat="47.70061" lon="5.98707">
        <ele>302</ele>
        <time>2010-01-01T01:40:17Z</time>
      </trkpt>
      <trkpt lat="47.70062" lon="5.98705">
        <ele>302</ele>
        <time>2010-01-01T01:40:17Z</time>
      </trkpt>
      <trkpt lat="47.70063" lon="5.98702">
        <ele>302</ele>
        <time>2010-01-01T01:40:18Z</time>
      </trkpt>
      <trkpt lat="47.70063" lon="5.987">
        <ele>302</ele>
        <time>2010-01-01T01:40:19Z</time>
      </trkpt>
      <trkpt lat="47.70064" lon="5.98697">
        <ele>303</ele>
        <time>2010-01-01T01:40:19Z</time>
      </trkpt>
      <trkpt lat="47.70065" lon="5.98695">
        <ele>303</ele>
        <time>2010-01-01T01:40:20Z</time>
      </trkpt>
      <trkpt lat="47.70066" lon="5.98693">
        <ele>304</ele>
        <time>2010-01-01T01:40:21Z</time>
      </trkpt>
      <trkpt lat="47.70067" lon="5.98691">
        <ele>304</ele>
        <time>2010-01-01T01:40:22Z</time>
      </trkpt>
      <trkpt lat="47.70067" lon="5.98688">
        <ele>304</ele>
        <time>2010-01-01T01:40:22Z</time>
      </trkpt>
      <trkpt lat="47.70068" lon="5.98686">
        <ele>304</ele>
        <time>2010-01-01T01:40:23Z</time>
      </trkpt>
      <trkpt lat="47.70069" lon="5.98683">
        <ele>304</ele>
        <time>2010-01-01T01:40:24Z</time>
      </trkpt>
      <trkpt lat="47.7007" lon="5.98681">
        <ele>304</ele>
        <time>2010-01-01T01:40:25Z</time>
      </trkpt>
      <trkpt lat="47.70072" lon="5.98678">
        <ele>304</ele>
        <time>2010-01-01T01:40:25Z</time>
      </trkpt>
      <trkpt lat="47.70073" lon="5.98676">
        <ele>304</ele>
        <time>2010-01-01T01:40:26Z</time>
      </trkpt>
      <trkpt lat="47.70073" lon="5.98673">
        <ele>304</ele>
        <time>2010-01-01T01:40:27Z</time>
      </trkpt>
      <trkpt lat="47.70074" lon="5.98671">
        <ele>304</ele>
        <time>2010-01-01T01:40:28Z</time>
      </trkpt>
      <trkpt lat="47.70074" lon="5.98669">
        <ele>304</ele>
        <time>2010-01-01T01:40:28Z</time>
      </trkpt>
      <trkpt lat="47.70075" lon="5.98667">
        <ele>304</ele>
        <time>2010-01-01T01:40:29Z</time>
      </trkpt>
      <trkpt lat="47.70076" lon="5.98665">
        <ele>305</ele>
        <time>2010-01-01T01:40:29Z</time>
      </trkpt>
      <trkpt lat="47.70076" lon="5.98663">
        <ele>305</ele>
        <time>2010-01-01T01:40:30Z</time>
      </trkpt>
      <trkpt lat="47.70077" lon="5.98661">
        <ele>306</ele>
        <time>2010-01-01T01:40:31Z</time>
      </trkpt>
      <trkpt lat="47.70077" lon="5.98659">
        <ele>306</ele>
        <time>2010-01-01T01:40:31Z</time>
      </trkpt>
      <trkpt lat="47.70078" lon="5.98657">
        <ele>306</ele>
        <time>2010-01-01T01:40:32Z</time>
      </trkpt>
      <trkpt lat="47.70078" lon="5.98655">
        <ele>306</ele>
        <time>2010-01-01T01:40:32Z</time>
      </trkpt>
      <trkpt lat="47.70079" lon="5.98653">
        <ele>306</ele>
        <time>2010-01-01T01:40:33Z</time>
      </trkpt>
      <trkpt lat="47.7008" lon="5.98651">
        <ele>306</ele>
        <time>2010-01-01T01:40:34Z</time>
      </trkpt>
      <trkpt lat="47.70081" lon="5.98648">
        <ele>306</ele>
        <time>2010-01-01T01:40:34Z</time>
      </trkpt>
      <trkpt lat="47.70082" lon="5.98646">
        <ele>306</ele>
        <time>2010-01-01T01:40:35Z</time>
      </trkpt>
      <trkpt lat="47.70083" lon="5.98644">
        <ele>306</ele>
        <time>2010-01-01T01:40:36Z</time>
      </trkpt>
      <trkpt lat="47.70083" lon="5.98642">
        <ele>307</ele>
        <time>2010-01-01T01:40:36Z</time>
      </trkpt>
      <trkpt lat="47.70084" lon="5.9864">
        <ele>307</ele>
        <time>2010-01-01T01:40:37Z</time>
      </trkpt>
      <trkpt lat="47.70085" lon="5.98637">
        <ele>308</ele>
        <time>2010-01-01T01:40:38Z</time>
      </trkpt>
      <trkpt lat="47.70086" lon="5.98635">
        <ele>308</ele>
        <time>2010-01-01T01:40:38Z</time>
      </trkpt>
      <trkpt lat="47.70086" lon="5.98633">
        <ele>309</ele>
        <time>2010-01-01T01:40:39Z</time>
      </trkpt>
      <trkpt lat="47.70087" lon="5.98631">
        <ele>309</ele>
        <time>2010-01-01T01:40:40Z</time>
      </trkpt>
      <trkpt lat="47.70089" lon="5.98629">
        <ele>309</ele>
        <time>2010-01-01T01:40:40Z</time>
      </trkpt>
      <trkpt lat="47.7009" lon="5.98628">
        <ele>309</ele>
        <time>2010-01-01T01:40:41Z</time>
      </trkpt>
      <trkpt lat="47.7009" lon="5.98626">
        <ele>309</ele>
        <time>2010-01-01T01:40:41Z</time>
      </trkpt>
      <trkpt lat="47.70091" lon="5.98624">
        <ele>309</ele>
        <time>2010-01-01T01:40:42Z</time>
      </trkpt>
      <trkpt lat="47.70092" lon="5.98623">
        <ele>309</ele>
        <time>2010-01-01T01:40:43Z</time>
      </trkpt>
      <trkpt lat="47.70093" lon="5.98621">
        <ele>309</ele>
        <time>2010-01-01T01:40:43Z</time>
      </trkpt>
      <trkpt lat="47.70094" lon="5.98619">
        <ele>309</ele>
        <time>2010-01-01T01:40:44Z</time>
      </trkpt>
      <trkpt lat="47.70095" lon="5.98618">
        <ele>309</ele>
        <time>2010-01-01T01:40:44Z</time>
      </trkpt>
      <trkpt lat="47.70096" lon="5.98616">
        <ele>309</ele>
        <time>2010-01-01T01:40:45Z</time>
      </trkpt>
      <trkpt lat="47.70096" lon="5.98614">
        <ele>309</ele>
        <time>2010-01-01T01:40:46Z</time>
      </trkpt>
      <trkpt lat="47.70097" lon="5.98612">
        <ele>309</ele>
        <time>2010-01-01T01:40:46Z</time>
      </trkpt>
      <trkpt lat="47.70097" lon="5.9861">
        <ele>309</ele>
        <time>2010-01-01T01:40:47Z</time>
      </trkpt>
      <trkpt lat="47.70098" lon="5.98608">
        <ele>309</ele>
        <time>2010-01-01T01:40:47Z</time>
      </trkpt>
      <trkpt lat="47.70098" lon="5.98605">
        <ele>310</ele>
        <time>2010-01-01T01:40:48Z</time>
      </trkpt>
      <trkpt lat="47.70098" lon="5.98603">
        <ele>310</ele>
        <time>2010-01-01T01:40:49Z</time>
      </trkpt>
      <trkpt lat="47.70099" lon="5.98601">
        <ele>311</ele>
        <time>2010-01-01T01:40:49Z</time>
      </trkpt>
      <trkpt lat="47.70101" lon="5.98599">
        <ele>311</ele>
        <time>2010-01-01T01:40:50Z</time>
      </trkpt>
      <trkpt lat="47.70101" lon="5.98596">
        <ele>311</ele>
        <time>2010-01-01T01:40:51Z</time>
      </trkpt>
      <trkpt lat="47.70102" lon="5.98593">
        <ele>311</ele>
        <time>2010-01-01T01:40:52Z</time>
      </trkpt>
      <trkpt lat="47.70103" lon="5.98591">
        <ele>311</ele>
        <time>2010-01-01T01:40:53Z</time>
      </trkpt>
      <trkpt lat="47.70104" lon="5.98589">
        <ele>311</ele>
        <time>2010-01-01T01:40:53Z</time>
      </trkpt>
      <trkpt lat="47.70105" lon="5.98587">
        <ele>311</ele>
        <time>2010-01-01T01:40:54Z</time>
      </trkpt>
      <trkpt lat="47.70106" lon="5.98585">
        <ele>311</ele>
        <time>2010-01-01T01:40:54Z</time>
      </trkpt>
      <trkpt lat="47.70107" lon="5.98583">
        <ele>311</ele>
        <time>2010-01-01T01:40:55Z</time>
      </trkpt>
      <trkpt lat="47.70108" lon="5.98581">
        <ele>311</ele>
        <time>2010-01-01T01:40:56Z</time>
      </trkpt>
      <trkpt lat="47.70108" lon="5.98579">
        <ele>311</ele>
        <time>2010-01-01T01:40:56Z</time>
      </trkpt>
      <trkpt lat="47.70109" lon="5.98576">
        <ele>311</ele>
        <time>2010-01-01T01:40:57Z</time>
      </trkpt>
      <trkpt lat="47.70109" lon="5.98574">
        <ele>311</ele>
        <time>2010-01-01T01:40:58Z</time>
      </trkpt>
      <trkpt lat="47.7011" lon="5.98571">
        <ele>311</ele>
        <time>2010-01-01T01:40:58Z</time>
      </trkpt>
      <trkpt lat="47.7011" lon="5.98569">
        <ele>311</ele>
        <time>2010-01-01T01:40:59Z</time>
      </trkpt>
      <trkpt lat="47.70111" lon="5.98567">
        <ele>311</ele>
        <time>2010-01-01T01:41:00Z</time>
      </trkpt>
      <trkpt lat="47.70112" lon="5.98564">
        <ele>311</ele>
        <time>2010-01-01T01:41:01Z</time>
      </trkpt>
      <trkpt lat="47.70113" lon="5.98561">
        <ele>311</ele>
        <time>2010-01-01T01:41:02Z</time>
      </trkpt>
      <trkpt lat="47.70114" lon="5.98558">
        <ele>311</ele>
        <time>2010-01-01T01:41:02Z</time>
      </trkpt>
      <trkpt lat="47.70115" lon="5.98556">
        <ele>311</ele>
        <time>2010-01-01T01:41:03Z</time>
      </trkpt>
      <trkpt lat="47.70117" lon="5.98553">
        <ele>311</ele>
        <time>2010-01-01T01:41:04Z</time>
      </trkpt>
      <trkpt lat="47.70119" lon="5.98551">
        <ele>311</ele>
        <time>2010-01-01T01:41:05Z</time>
      </trkpt>
      <trkpt lat="47.7012" lon="5.98549">
        <ele>311</ele>
        <time>2010-01-01T01:41:06Z</time>
      </trkpt>
      <trkpt lat="47.70121" lon="5.98545">
        <ele>311</ele>
        <time>2010-01-01T01:41:07Z</time>
      </trkpt>
      <trkpt lat="47.70122" lon="5.98542">
        <ele>311</ele>
        <time>2010-01-01T01:41:08Z</time>
      </trkpt>
      <trkpt lat="47.70122" lon="5.98538">
        <ele>311</ele>
        <time>2010-01-01T01:41:09Z</time>
      </trkpt>
      <trkpt lat="47.70122" lon="5.98535">
        <ele>311</ele>
        <time>2010-01-01T01:41:10Z</time>
      </trkpt>
      <trkpt lat="47.70122" lon="5.98532">
        <ele>311</ele>
        <time>2010-01-01T01:41:11Z</time>
      </trkpt>
      <trkpt lat="47.70124" lon="5.98529">
        <ele>311</ele>
        <time>2010-01-01T01:41:12Z</time>
      </trkpt>
      <trkpt lat="47.70125" lon="5.98527">
        <ele>311</ele>
        <time>2010-01-01T01:41:12Z</time>
      </trkpt>
      <trkpt lat="47.70126" lon="5.98525">
        <ele>311</ele>
        <time>2010-01-01T01:41:13Z</time>
      </trkpt>
      <trkpt lat="47.70127" lon="5.98523">
        <ele>311</ele>
        <time>2010-01-01T01:41:14Z</time>
      </trkpt>
      <trkpt lat="47.70128" lon="5.98521">
        <ele>311</ele>
        <time>2010-01-01T01:41:14Z</time>
      </trkpt>
      <trkpt lat="47.70129" lon="5.98519">
        <ele>311</ele>
        <time>2010-01-01T01:41:15Z</time>
      </trkpt>
      <trkpt lat="47.7013" lon="5.98516">
        <ele>311</ele>
        <time>2010-01-01T01:41:16Z</time>
      </trkpt>
      <trkpt lat="47.70131" lon="5.98513">
        <ele>311</ele>
        <time>2010-01-01T01:41:17Z</time>
      </trkpt>
      <trkpt lat="47.70132" lon="5.98511">
        <ele>311</ele>
        <time>2010-01-01T01:41:18Z</time>
      </trkpt>
      <trkpt lat="47.70133" lon="5.98509">
        <ele>311</ele>
        <time>2010-01-01T01:41:18Z</time>
      </trkpt>
      <trkpt lat="47.70134" lon="5.98506">
        <ele>311</ele>
        <time>2010-01-01T01:41:19Z</time>
      </trkpt>
      <trkpt lat="47.70135" lon="5.98504">
        <ele>311</ele>
        <time>2010-01-01T01:41:20Z</time>
      </trkpt>
      <trkpt lat="47.70136" lon="5.98501">
        <ele>311</ele>
        <time>2010-01-01T01:41:21Z</time>
      </trkpt>
      <trkpt lat="47.70137" lon="5.98499">
        <ele>311</ele>
        <time>2010-01-01T01:41:21Z</time>
      </trkpt>
      <trkpt lat="47.70138" lon="5.98496">
        <ele>311</ele>
        <time>2010-01-01T01:41:22Z</time>
      </trkpt>
      <trkpt lat="47.70138" lon="5.98493">
        <ele>311</ele>
        <time>2010-01-01T01:41:23Z</time>
      </trkpt>
      <trkpt lat="47.70139" lon="5.98491">
        <ele>311</ele>
        <time>2010-01-01T01:41:24Z</time>
      </trkpt>
      <trkpt lat="47.7014" lon="5.98488">
        <ele>311</ele>
        <time>2010-01-01T01:41:24Z</time>
      </trkpt>
      <trkpt lat="47.70141" lon="5.98486">
        <ele>311</ele>
        <time>2010-01-01T01:41:25Z</time>
      </trkpt>
      <trkpt lat="47.70141" lon="5.98483">
        <ele>311</ele>
        <time>2010-01-01T01:41:26Z</time>
      </trkpt>
      <trkpt lat="47.70142" lon="5.98481">
        <ele>311</ele>
        <time>2010-01-01T01:41:27Z</time>
      </trkpt>
      <trkpt lat="47.70142" lon="5.98479">
        <ele>311</ele>
        <time>2010-01-01T01:41:27Z</time>
      </trkpt>
      <trkpt lat="47.70143" lon="5.98477">
        <ele>311</ele>
        <time>2010-01-01T01:41:28Z</time>
      </trkpt>
      <trkpt lat="47.70144" lon="5.98475">
        <ele>311</ele>
        <time>2010-01-01T01:41:28Z</time>
      </trkpt>
      <trkpt lat="47.70144" lon="5.98473">
        <ele>311</ele>
        <time>2010-01-01T01:41:29Z</time>
      </trkpt>
      <trkpt lat="47.70145" lon="5.9847">
        <ele>311</ele>
        <time>2010-01-01T01:41:30Z</time>
      </trkpt>
      <trkpt lat="47.70146" lon="5.98466">
        <ele>311</ele>
        <time>2010-01-01T01:41:31Z</time>
      </trkpt>
      <trkpt lat="47.70147" lon="5.98463">
        <ele>311</ele>
        <time>2010-01-01T01:41:32Z</time>
      </trkpt>
      <trkpt lat="47.70148" lon="5.9846">
        <ele>311</ele>
        <time>2010-01-01T01:41:33Z</time>
      </trkpt>
      <trkpt lat="47.70149" lon="5.98458">
        <ele>311</ele>
        <time>2010-01-01T01:41:33Z</time>
      </trkpt>
      <trkpt lat="47.7015" lon="5.98456">
        <ele>311</ele>
        <time>2010-01-01T01:41:34Z</time>
      </trkpt>
      <trkpt lat="47.7015" lon="5.98453">
        <ele>311</ele>
        <time>2010-01-01T01:41:35Z</time>
      </trkpt>
      <trkpt lat="47.70151" lon="5.9845">
        <ele>311</ele>
        <time>2010-01-01T01:41:36Z</time>
      </trkpt>
      <trkpt lat="47.70153" lon="5.98449">
        <ele>311</ele>
        <time>2010-01-01T01:41:36Z</time>
      </trkpt>
      <trkpt lat="47.70154" lon="5.98447">
        <ele>311</ele>
        <time>2010-01-01T01:41:37Z</time>
      </trkpt>
      <trkpt lat="47.70156" lon="5.98445">
        <ele>311</ele>
        <time>2010-01-01T01:41:38Z</time>
      </trkpt>
      <trkpt lat="47.70157" lon="5.98444">
        <ele>311</ele>
        <time>2010-01-01T01:41:39Z</time>
      </trkpt>
      <trkpt lat="47.70158" lon="5.98443">
        <ele>311</ele>
        <time>2010-01-01T01:41:39Z</time>
      </trkpt>
      <trkpt lat="47.70158" lon="5.98442">
        <ele>311</ele>
        <time>2010-01-01T01:41:39Z</time>
      </trkpt>
      <trkpt lat="47.70159" lon="5.98442">
        <ele>311</ele>
        <time>2010-01-01T01:41:39Z</time>
      </trkpt>
      <trkpt lat="47.70159" lon="5.98442">
        <ele>311</ele>
        <time>2010-01-01T01:41:40Z</time>
      </trkpt>
      <trkpt lat="47.7016" lon="5.9844">
        <ele>311</ele>
        <time>2010-01-01T01:41:40Z</time>
      </trkpt>
      <trkpt lat="47.70161" lon="5.98437">
        <ele>311</ele>
        <time>2010-01-01T01:41:41Z</time>
      </trkpt>
      <trkpt lat="47.70161" lon="5.98435">
        <ele>311</ele>
        <time>2010-01-01T01:41:42Z</time>
      </trkpt>
      <trkpt lat="47.70162" lon="5.98433">
        <ele>311</ele>
        <time>2010-01-01T01:41:42Z</time>
      </trkpt>
      <trkpt lat="47.70163" lon="5.9843">
        <ele>311</ele>
        <time>2010-01-01T01:41:43Z</time>
      </trkpt>
      <trkpt lat="47.70164" lon="5.98427">
        <ele>311</ele>
        <time>2010-01-01T01:41:44Z</time>
      </trkpt>
      <trkpt lat="47.70165" lon="5.98424">
        <ele>311</ele>
        <time>2010-01-01T01:41:45Z</time>
      </trkpt>
      <trkpt lat="47.70166" lon="5.98421">
        <ele>311</ele>
        <time>2010-01-01T01:41:46Z</time>
      </trkpt>
      <trkpt lat="47.70168" lon="5.98419">
        <ele>311</ele>
        <time>2010-01-01T01:41:47Z</time>
      </trkpt>
      <trkpt lat="47.7017" lon="5.98415">
        <ele>311</ele>
        <time>2010-01-01T01:41:48Z</time>
      </trkpt>
      <trkpt lat="47.70172" lon="5.98412">
        <ele>311</ele>
        <time>2010-01-01T01:41:49Z</time>
      </trkpt>
      <trkpt lat="47.70173" lon="5.98408">
        <ele>311</ele>
        <time>2010-01-01T01:41:50Z</time>
      </trkpt>
      <trkpt lat="47.70174" lon="5.98403">
        <ele>311</ele>
        <time>2010-01-01T01:41:52Z</time>
      </trkpt>
      <trkpt lat="47.70175" lon="5.98399">
        <ele>311</ele>
        <time>2010-01-01T01:41:53Z</time>
      </trkpt>
      <trkpt lat="47.70177" lon="5.98394">
        <ele>311</ele>
        <time>2010-01-01T01:41:54Z</time>
      </trkpt>
      <trkpt lat="47.70178" lon="5.9839">
        <ele>311</ele>
        <time>2010-01-01T01:41:56Z</time>
      </trkpt>
      <trkpt lat="47.7018" lon="5.98386">
        <ele>311</ele>
        <time>2010-01-01T01:41:57Z</time>
      </trkpt>
      <trkpt lat="47.70182" lon="5.98381">
        <ele>311</ele>
        <time>2010-01-01T01:41:58Z</time>
      </trkpt>
      <trkpt lat="47.70183" lon="5.98377">
        <ele>311</ele>
        <time>2010-01-01T01:42:00Z</time>
      </trkpt>
      <trkpt lat="47.70185" lon="5.98372">
        <ele>311</ele>
        <time>2010-01-01T01:42:01Z</time>
      </trkpt>
      <trkpt lat="47.70187" lon="5.98367">
        <ele>311</ele>
        <time>2010-01-01T01:42:03Z</time>
      </trkpt>
      <trkpt lat="47.70188" lon="5.98363">
        <ele>311</ele>
        <time>2010-01-01T01:42:04Z</time>
      </trkpt>
      <trkpt lat="47.7019" lon="5.98358">
        <ele>311</ele>
        <time>2010-01-01T01:42:06Z</time>
      </trkpt>
      <trkpt lat="47.70192" lon="5.98353">
        <ele>311</ele>
        <time>2010-01-01T01:42:07Z</time>
      </trkpt>
      <trkpt lat="47.70193" lon="5.98348">
        <ele>310</ele>
        <time>2010-01-01T01:42:08Z</time>
      </trkpt>
      <trkpt lat="47.70195" lon="5.98343">
        <ele>310</ele>
        <time>2010-01-01T01:42:10Z</time>
      </trkpt>
      <trkpt lat="47.70197" lon="5.98339">
        <ele>309</ele>
        <time>2010-01-01T01:42:11Z</time>
      </trkpt>
      <trkpt lat="47.70199" lon="5.98335">
        <ele>309</ele>
        <time>2010-01-01T01:42:13Z</time>
      </trkpt>
      <trkpt lat="47.70201" lon="5.98331">
        <ele>309</ele>
        <time>2010-01-01T01:42:14Z</time>
      </trkpt>
      <trkpt lat="47.70204" lon="5.98326">
        <ele>309</ele>
        <time>2010-01-01T01:42:16Z</time>
      </trkpt>
      <trkpt lat="47.70206" lon="5.98321">
        <ele>309</ele>
        <time>2010-01-01T01:42:17Z</time>
      </trkpt>
      <trkpt lat="47.70208" lon="5.98315">
        <ele>309</ele>
        <time>2010-01-01T01:42:19Z</time>
      </trkpt>
      <trkpt lat="47.70209" lon="5.98308">
        <ele>309</ele>
        <time>2010-01-01T01:42:21Z</time>
      </trkpt>
      <trkpt lat="47.70211" lon="5.98301">
        <ele>309</ele>
        <time>2010-01-01T01:42:23Z</time>
      </trkpt>
      <trkpt lat="47.70213" lon="5.98295">
        <ele>308</ele>
        <time>2010-01-01T01:42:25Z</time>
      </trkpt>
      <trkpt lat="47.70215" lon="5.98288">
        <ele>308</ele>
        <time>2010-01-01T01:42:27Z</time>
      </trkpt>
      <trkpt lat="47.70216" lon="5.98282">
        <ele>307</ele>
        <time>2010-01-01T01:42:29Z</time>
      </trkpt>
      <trkpt lat="47.70217" lon="5.98275">
        <ele>307</ele>
        <time>2010-01-01T01:42:31Z</time>
      </trkpt>
      <trkpt lat="47.70218" lon="5.98269">
        <ele>306</ele>
        <time>2010-01-01T01:42:32Z</time>
      </trkpt>
      <trkpt lat="47.7022" lon="5.98265">
        <ele>306</ele>
        <time>2010-01-01T01:42:34Z</time>
      </trkpt>
      <trkpt lat="47.70222" lon="5.9826">
        <ele>306</ele>
        <time>2010-01-01T01:42:35Z</time>
      </trkpt>
      <trkpt lat="47.70223" lon="5.98255">
        <ele>306</ele>
        <time>2010-01-01T01:42:36Z</time>
      </trkpt>
      <trkpt lat="47.70225" lon="5.98252">
        <ele>306</ele>
        <time>2010-01-01T01:42:38Z</time>
      </trkpt>
      <trkpt lat="47.70226" lon="5.98247">
        <ele>306</ele>
        <time>2010-01-01T01:42:39Z</time>
      </trkpt>
      <trkpt lat="47.70227" lon="5.98243">
        <ele>306</ele>
        <time>2010-01-01T01:42:40Z</time>
      </trkpt>
      <trkpt lat="47.70229" lon="5.98239">
        <ele>306</ele>
        <time>2010-01-01T01:42:41Z</time>
      </trkpt>
      <trkpt lat="47.7023" lon="5.98235">
        <ele>306</ele>
        <time>2010-01-01T01:42:43Z</time>
      </trkpt>
      <trkpt lat="47.70231" lon="5.98232">
        <ele>306</ele>
        <time>2010-01-01T01:42:44Z</time>
      </trkpt>
      <trkpt lat="47.70232" lon="5.98228">
        <ele>306</ele>
        <time>2010-01-01T01:42:45Z</time>
      </trkpt>
      <trkpt lat="47.70232" lon="5.98224">
        <ele>306</ele>
        <time>2010-01-01T01:42:46Z</time>
      </trkpt>
      <trkpt lat="47.70232" lon="5.98222">
        <ele>306</ele>
        <time>2010-01-01T01:42:46Z</time>
      </trkpt>
      <trkpt lat="47.70231" lon="5.98219">
        <ele>306</ele>
        <time>2010-01-01T01:42:47Z</time>
      </trkpt>
      <trkpt lat="47.70229" lon="5.98218">
        <ele>306</ele>
        <time>2010-01-01T01:42:48Z</time>
      </trkpt>
      <trkpt lat="47.70228" lon="5.98217">
        <ele>306</ele>
        <time>2010-01-01T01:42:48Z</time>
      </trkpt>
      <trkpt lat="47.70226" lon="5.98216">
        <ele>306</ele>
        <time>2010-01-01T01:42:49Z</time>
      </trkpt>
      <trkpt lat="47.70226" lon="5.98216">
        <ele>306</ele>
        <time>2010-01-01T01:42:49Z</time>
      </trkpt>
      <trkpt lat="47.70226" lon="5.98216">
        <ele>306</ele>
        <time>2010-01-01T01:42:49Z</time>
      </trkpt>
      <trkpt lat="47.70225" lon="5.98216">
        <ele>306</ele>
        <time>2010-01-01T01:42:50Z</time>
      </trkpt>
      <trkpt lat="47.70223" lon="5.98216">
        <ele>306</ele>
        <time>2010-01-01T01:42:51Z</time>
      </trkpt>
      <trkpt lat="47.70221" lon="5.98216">
        <ele>306</ele>
        <time>2010-01-01T01:42:51Z</time>
      </trkpt>
      <trkpt lat="47.70219" lon="5.98217">
        <ele>306</ele>
        <time>2010-01-01T01:42:52Z</time>
      </trkpt>
      <trkpt lat="47.70217" lon="5.98217">
        <ele>306</ele>
        <time>2010-01-01T01:42:53Z</time>
      </trkpt>
      <trkpt lat="47.70214" lon="5.98218">
        <ele>306</ele>
        <time>2010-01-01T01:42:54Z</time>
      </trkpt>
      <trkpt lat="47.70211" lon="5.98218">
        <ele>306</ele>
        <time>2010-01-01T01:42:56Z</time>
      </trkpt>
      <trkpt lat="47.70207" lon="5.98218">
        <ele>306</ele>
        <time>2010-01-01T01:42:57Z</time>
      </trkpt>
      <trkpt lat="47.70203" lon="5.98218">
        <ele>306</ele>
        <time>2010-01-01T01:42:59Z</time>
      </trkpt>
      <trkpt lat="47.70199" lon="5.98217">
        <ele>305</ele>
        <time>2010-01-01T01:43:00Z</time>
      </trkpt>
      <trkpt lat="47.70194" lon="5.98217">
        <ele>305</ele>
        <time>2010-01-01T01:43:02Z</time>
      </trkpt>
      <trkpt lat="47.70189" lon="5.98216">
        <ele>305</ele>
        <time>2010-01-01T01:43:04Z</time>
      </trkpt>
      <trkpt lat="47.70185" lon="5.98215">
        <ele>304</ele>
        <time>2010-01-01T01:43:06Z</time>
      </trkpt>
      <trkpt lat="47.70181" lon="5.98214">
        <ele>304</ele>
        <time>2010-01-01T01:43:07Z</time>
      </trkpt>
      <trkpt lat="47.70178" lon="5.98212">
        <ele>304</ele>
        <time>2010-01-01T01:43:09Z</time>
      </trkpt>
      <trkpt lat="47.70174" lon="5.9821">
        <ele>304</ele>
        <time>2010-01-01T01:43:10Z</time>
      </trkpt>
      <trkpt lat="47.70171" lon="5.98208">
        <ele>304</ele>
        <time>2010-01-01T01:43:12Z</time>
      </trkpt>
      <trkpt lat="47.70167" lon="5.98206">
        <ele>304</ele>
        <time>2010-01-01T01:43:14Z</time>
      </trkpt>
      <trkpt lat="47.70163" lon="5.98204">
        <ele>304</ele>
        <time>2010-01-01T01:43:15Z</time>
      </trkpt>
      <trkpt lat="47.70159" lon="5.98201">
        <ele>304</ele>
        <time>2010-01-01T01:43:17Z</time>
      </trkpt>
      <trkpt lat="47.70156" lon="5.98198">
        <ele>304</ele>
        <time>2010-01-01T01:43:18Z</time>
      </trkpt>
      <trkpt lat="47.70152" lon="5.98196">
        <ele>304</ele>
        <time>2010-01-01T01:43:20Z</time>
      </trkpt>
      <trkpt lat="47.70149" lon="5.98194">
        <ele>304</ele>
        <time>2010-01-01T01:43:21Z</time>
      </trkpt>
      <trkpt lat="47.70145" lon="5.98191">
        <ele>304</ele>
        <time>2010-01-01T01:43:23Z</time>
      </trkpt>
      <trkpt lat="47.70142" lon="5.98188">
        <ele>304</ele>
        <time>2010-01-01T01:43:25Z</time>
      </trkpt>
      <trkpt lat="47.70138" lon="5.98185">
        <ele>304</ele>
        <time>2010-01-01T01:43:26Z</time>
      </trkpt>
      <trkpt lat="47.70135" lon="5.98182">
        <ele>304</ele>
        <time>2010-01-01T01:43:28Z</time>
      </trkpt>
      <trkpt lat="47.70131" lon="5.9818">
        <ele>304</ele>
        <time>2010-01-01T01:43:30Z</time>
      </trkpt>
      <trkpt lat="47.70127" lon="5.98177">
        <ele>304</ele>
        <time>2010-01-01T01:43:31Z</time>
      </trkpt>
      <trkpt lat="47.70124" lon="5.98174">
        <ele>304</ele>
        <time>2010-01-01T01:43:33Z</time>
      </trkpt>
      <trkpt lat="47.7012" lon="5.98171">
        <ele>304</ele>
        <time>2010-01-01T01:43:34Z</time>
      </trkpt>
      <trkpt lat="47.70117" lon="5.98169">
        <ele>304</ele>
        <time>2010-01-01T01:43:36Z</time>
      </trkpt>
      <trkpt lat="47.70114" lon="5.98166">
        <ele>304</ele>
        <time>2010-01-01T01:43:37Z</time>
      </trkpt>
      <trkpt lat="47.7011" lon="5.98163">
        <ele>304</ele>
        <time>2010-01-01T01:43:39Z</time>
      </trkpt>
      <trkpt lat="47.70106" lon="5.9816">
        <ele>304</ele>
        <time>2010-01-01T01:43:41Z</time>
      </trkpt>
      <trkpt lat="47.70103" lon="5.98157">
        <ele>304</ele>
        <time>2010-01-01T01:43:42Z</time>
      </trkpt>
      <trkpt lat="47.70099" lon="5.98154">
        <ele>304</ele>
        <time>2010-01-01T01:43:44Z</time>
      </trkpt>
      <trkpt lat="47.70095" lon="5.98151">
        <ele>304</ele>
        <time>2010-01-01T01:43:46Z</time>
      </trkpt>
      <trkpt lat="47.70091" lon="5.98147">
        <ele>304</ele>
        <time>2010-01-01T01:43:48Z</time>
      </trkpt>
      <trkpt lat="47.70087" lon="5.98144">
        <ele>304</ele>
        <time>2010-01-01T01:43:49Z</time>
      </trkpt>
      <trkpt lat="47.70084" lon="5.98141">
        <ele>304</ele>
        <time>2010-01-01T01:43:51Z</time>
      </trkpt>
      <trkpt lat="47.7008" lon="5.98138">
        <ele>304</ele>
        <time>2010-01-01T01:43:53Z</time>
      </trkpt>
      <trkpt lat="47.70076" lon="5.98135">
        <ele>304</ele>
        <time>2010-01-01T01:43:55Z</time>
      </trkpt>
      <trkpt lat="47.70073" lon="5.98132">
        <ele>304</ele>
        <time>2010-01-01T01:43:56Z</time>
      </trkpt>
      <trkpt lat="47.70069" lon="5.9813">
        <ele>304</ele>
        <time>2010-01-01T01:43:58Z</time>
      </trkpt>
      <trkpt lat="47.70066" lon="5.98127">
        <ele>304</ele>
        <time>2010-01-01T01:43:59Z</time>
      </trkpt>
      <trkpt lat="47.70062" lon="5.98124">
        <ele>304</ele>
        <time>2010-01-01T01:44:01Z</time>
      </trkpt>
      <trkpt lat="47.70058" lon="5.98121">
        <ele>304</ele>
        <time>2010-01-01T01:44:03Z</time>
      </trkpt>
      <trkpt lat="47.70055" lon="5.98118">
        <ele>304</ele>
        <time>2010-01-01T01:44:04Z</time>
      </trkpt>
      <trkpt lat="47.70051" lon="5.98115">
        <ele>304</ele>
        <time>2010-01-01T01:44:06Z</time>
      </trkpt>
      <trkpt lat="47.70048" lon="5.98112">
        <ele>304</ele>
        <time>2010-01-01T01:44:08Z</time>
      </trkpt>
      <trkpt lat="47.70044" lon="5.98109">
        <ele>304</ele>
        <time>2010-01-01T01:44:09Z</time>
      </trkpt>
      <trkpt lat="47.7004" lon="5.98107">
        <ele>304</ele>
        <time>2010-01-01T01:44:11Z</time>
      </trkpt>
      <trkpt lat="47.70036" lon="5.98104">
        <ele>304</ele>
        <time>2010-01-01T01:44:13Z</time>
      </trkpt>
      <trkpt lat="47.70032" lon="5.98101">
        <ele>304</ele>
        <time>2010-01-01T01:44:14Z</time>
      </trkpt>
      <trkpt lat="47.70028" lon="5.98098">
        <ele>304</ele>
        <time>2010-01-01T01:44:16Z</time>
      </trkpt>
      <trkpt lat="47.70024" lon="5.98095">
        <ele>304</ele>
        <time>2010-01-01T01:44:18Z</time>
      </trkpt>
      <trkpt lat="47.70019" lon="5.98092">
        <ele>304</ele>
        <time>2010-01-01T01:44:20Z</time>
      </trkpt>
      <trkpt lat="47.70015" lon="5.98089">
        <ele>304</ele>
        <time>2010-01-01T01:44:22Z</time>
      </trkpt>
      <trkpt lat="47.7001" lon="5.98085">
        <ele>303</ele>
        <time>2010-01-01T01:44:24Z</time>
      </trkpt>
      <trkpt lat="47.70006" lon="5.98081">
        <ele>303</ele>
        <time>2010-01-01T01:44:26Z</time>
      </trkpt>
      <trkpt lat="47.70001" lon="5.98078">
        <ele>302</ele>
        <time>2010-01-01T01:44:28Z</time>
      </trkpt>
      <trkpt lat="47.69997" lon="5.98074">
        <ele>302</ele>
        <time>2010-01-01T01:44:30Z</time>
      </trkpt>
      <trkpt lat="47.69992" lon="5.98071">
        <ele>302</ele>
        <time>2010-01-01T01:44:32Z</time>
      </trkpt>
      <trkpt lat="47.69988" lon="5.98068">
        <ele>302</ele>
        <time>2010-01-01T01:44:34Z</time>
      </trkpt>
      <trkpt lat="47.69984" lon="5.98064">
        <ele>302</ele>
        <time>2010-01-01T01:44:36Z</time>
      </trkpt>
      <trkpt lat="47.69981" lon="5.98061">
        <ele>302</ele>
        <time>2010-01-01T01:44:38Z</time>
      </trkpt>
      <trkpt lat="47.69977" lon="5.98058">
        <ele>302</ele>
        <time>2010-01-01T01:44:39Z</time>
      </trkpt>
      <trkpt lat="47.69973" lon="5.98055">
        <ele>302</ele>
        <time>2010-01-01T01:44:41Z</time>
      </trkpt>
      <trkpt lat="47.69969" lon="5.98052">
        <ele>302</ele>
        <time>2010-01-01T01:44:43Z</time>
      </trkpt>
      <trkpt lat="47.69966" lon="5.98049">
        <ele>302</ele>
        <time>2010-01-01T01:44:44Z</time>
      </trkpt>
      <trkpt lat="47.69963" lon="5.98046">
        <ele>302</ele>
        <time>2010-01-01T01:44:46Z</time>
      </trkpt>
      <trkpt lat="47.69959" lon="5.98044">
        <ele>302</ele>
        <time>2010-01-01T01:44:47Z</time>
      </trkpt>
      <trkpt lat="47.69957" lon="5.98041">
        <ele>302</ele>
        <time>2010-01-01T01:44:49Z</time>
      </trkpt>
      <trkpt lat="47.69953" lon="5.98038">
        <ele>302</ele>
        <time>2010-01-01T01:44:50Z</time>
      </trkpt>
      <trkpt lat="47.69949" lon="5.98036">
        <ele>302</ele>
        <time>2010-01-01T01:44:52Z</time>
      </trkpt>
      <trkpt lat="47.69945" lon="5.98033">
        <ele>302</ele>
        <time>2010-01-01T01:44:54Z</time>
      </trkpt>
      <trkpt lat="47.69942" lon="5.9803">
        <ele>302</ele>
        <time>2010-01-01T01:44:55Z</time>
      </trkpt>
      <trkpt lat="47.69938" lon="5.98027">
        <ele>302</ele>
        <time>2010-01-01T01:44:57Z</time>
      </trkpt>
      <trkpt lat="47.69933" lon="5.98024">
        <ele>302</ele>
        <time>2010-01-01T01:44:59Z</time>
      </trkpt>
      <trkpt lat="47.69929" lon="5.98021">
        <ele>302</ele>
        <time>2010-01-01T01:45:01Z</time>
      </trkpt>
      <trkpt lat="47.69925" lon="5.98018">
        <ele>302</ele>
        <time>2010-01-01T01:45:03Z</time>
      </trkpt>
      <trkpt lat="47.69921" lon="5.98015">
        <ele>302</ele>
        <time>2010-01-01T01:45:05Z</time>
      </trkpt>
      <trkpt lat="47.69917" lon="5.98012">
        <ele>302</ele>
        <time>2010-01-01T01:45:06Z</time>
      </trkpt>
      <trkpt lat="47.69913" lon="5.98008">
        <ele>302</ele>
        <time>2010-01-01T01:45:08Z</time>
      </trkpt>
      <trkpt lat="47.69909" lon="5.98005">
        <ele>302</ele>
        <time>2010-01-01T01:45:10Z</time>
      </trkpt>
      <trkpt lat="47.69905" lon="5.98002">
        <ele>302</ele>
        <time>2010-01-01T01:45:12Z</time>
      </trkpt>
      <trkpt lat="47.699" lon="5.97999">
        <ele>302</ele>
        <time>2010-01-01T01:45:14Z</time>
      </trkpt>
      <trkpt lat="47.69896" lon="5.97995">
        <ele>302</ele>
        <time>2010-01-01T01:45:16Z</time>
      </trkpt>
      <trkpt lat="47.69891" lon="5.97992">
        <ele>302</ele>
        <time>2010-01-01T01:45:18Z</time>
      </trkpt>
      <trkpt lat="47.69887" lon="5.97988">
        <ele>302</ele>
        <time>2010-01-01T01:45:20Z</time>
      </trkpt>
      <trkpt lat="47.69883" lon="5.97985">
        <ele>302</ele>
        <time>2010-01-01T01:45:22Z</time>
      </trkpt>
      <trkpt lat="47.69878" lon="5.97982">
        <ele>302</ele>
        <time>2010-01-01T01:45:24Z</time>
      </trkpt>
      <trkpt lat="47.69874" lon="5.97979">
        <ele>302</ele>
        <time>2010-01-01T01:45:26Z</time>
      </trkpt>
      <trkpt lat="47.69869" lon="5.97975">
        <ele>302</ele>
        <time>2010-01-01T01:45:28Z</time>
      </trkpt>
      <trkpt lat="47.69864" lon="5.97971">
        <ele>302</ele>
        <time>2010-01-01T01:45:30Z</time>
      </trkpt>
      <trkpt lat="47.69859" lon="5.97967">
        <ele>301</ele>
        <time>2010-01-01T01:45:33Z</time>
      </trkpt>
      <trkpt lat="47.69853" lon="5.97963">
        <ele>301</ele>
        <time>2010-01-01T01:45:35Z</time>
      </trkpt>
      <trkpt lat="47.69848" lon="5.97959">
        <ele>300</ele>
        <time>2010-01-01T01:45:38Z</time>
      </trkpt>
      <trkpt lat="47.69842" lon="5.97955">
        <ele>300</ele>
        <time>2010-01-01T01:45:40Z</time>
      </trkpt>
      <trkpt lat="47.69837" lon="5.97951">
        <ele>300</ele>
        <time>2010-01-01T01:45:43Z</time>
      </trkpt>
      <trkpt lat="47.69831" lon="5.97947">
        <ele>300</ele>
        <time>2010-01-01T01:45:45Z</time>
      </trkpt>
      <trkpt lat="47.69826" lon="5.97943">
        <ele>299</ele>
        <time>2010-01-01T01:45:47Z</time>
      </trkpt>
      <trkpt lat="47.69821" lon="5.97939">
        <ele>299</ele>
        <time>2010-01-01T01:45:50Z</time>
      </trkpt>
      <trkpt lat="47.69816" lon="5.97936">
        <ele>299</ele>
        <time>2010-01-01T01:45:52Z</time>
      </trkpt>
      <trkpt lat="47.69811" lon="5.97933">
        <ele>298</ele>
        <time>2010-01-01T01:45:54Z</time>
      </trkpt>
      <trkpt lat="47.69807" lon="5.97929">
        <ele>298</ele>
        <time>2010-01-01T01:45:56Z</time>
      </trkpt>
      <trkpt lat="47.69802" lon="5.97926">
        <ele>298</ele>
        <time>2010-01-01T01:45:58Z</time>
      </trkpt>
      <trkpt lat="47.69798" lon="5.97922">
        <ele>298</ele>
        <time>2010-01-01T01:46:00Z</time>
      </trkpt>
      <trkpt lat="47.69793" lon="5.97919">
        <ele>298</ele>
        <time>2010-01-01T01:46:02Z</time>
      </trkpt>
      <trkpt lat="47.69789" lon="5.97915">
        <ele>298</ele>
        <time>2010-01-01T01:46:04Z</time>
      </trkpt>
      <trkpt lat="47.69785" lon="5.97912">
        <ele>298</ele>
        <time>2010-01-01T01:46:06Z</time>
      </trkpt>
      <trkpt lat="47.6978" lon="5.97909">
        <ele>298</ele>
        <time>2010-01-01T01:46:08Z</time>
      </trkpt>
      <trkpt lat="47.69776" lon="5.97906">
        <ele>298</ele>
        <time>2010-01-01T01:46:10Z</time>
      </trkpt>
      <trkpt lat="47.69772" lon="5.97903">
        <ele>298</ele>
        <time>2010-01-01T01:46:11Z</time>
      </trkpt>
      <trkpt lat="47.69768" lon="5.979">
        <ele>298</ele>
        <time>2010-01-01T01:46:13Z</time>
      </trkpt>
      <trkpt lat="47.69764" lon="5.97897">
        <ele>298</ele>
        <time>2010-01-01T01:46:15Z</time>
      </trkpt>
      <trkpt lat="47.69761" lon="5.97894">
        <ele>298</ele>
        <time>2010-01-01T01:46:17Z</time>
      </trkpt>
      <trkpt lat="47.69757" lon="5.97891">
        <ele>298</ele>
        <time>2010-01-01T01:46:18Z</time>
      </trkpt>
      <trkpt lat="47.69753" lon="5.97888">
        <ele>298</ele>
        <time>2010-01-01T01:46:20Z</time>
      </trkpt>
      <trkpt lat="47.69749" lon="5.97885">
        <ele>298</ele>
        <time>2010-01-01T01:46:22Z</time>
      </trkpt>
      <trkpt lat="47.69746" lon="5.97882">
        <ele>298</ele>
        <time>2010-01-01T01:46:23Z</time>
      </trkpt>
      <trkpt lat="47.69742" lon="5.97879">
        <ele>298</ele>
        <time>2010-01-01T01:46:25Z</time>
      </trkpt>
      <trkpt lat="47.69739" lon="5.97876">
        <ele>298</ele>
        <time>2010-01-01T01:46:27Z</time>
      </trkpt>
      <trkpt lat="47.69735" lon="5.97874">
        <ele>298</ele>
        <time>2010-01-01T01:46:28Z</time>
      </trkpt>
      <trkpt lat="47.69731" lon="5.97871">
        <ele>299</ele>
        <time>2010-01-01T01:46:30Z</time>
      </trkpt>
      <trkpt lat="47.69728" lon="5.97868">
        <ele>299</ele>
        <time>2010-01-01T01:46:32Z</time>
      </trkpt>
      <trkpt lat="47.69724" lon="5.97865">
        <ele>299</ele>
        <time>2010-01-01T01:46:33Z</time>
      </trkpt>
      <trkpt lat="47.6972" lon="5.97862">
        <ele>300</ele>
        <time>2010-01-01T01:46:35Z</time>
      </trkpt>
      <trkpt lat="47.69716" lon="5.97859">
        <ele>300</ele>
        <time>2010-01-01T01:46:37Z</time>
      </trkpt>
      <trkpt lat="47.69712" lon="5.97856">
        <ele>300</ele>
        <time>2010-01-01T01:46:39Z</time>
      </trkpt>
      <trkpt lat="47.69708" lon="5.97853">
        <ele>300</ele>
        <time>2010-01-01T01:46:40Z</time>
      </trkpt>
      <trkpt lat="47.69704" lon="5.9785">
        <ele>300</ele>
        <time>2010-01-01T01:46:42Z</time>
      </trkpt>
      <trkpt lat="47.697" lon="5.97847">
        <ele>300</ele>
        <time>2010-01-01T01:46:44Z</time>
      </trkpt>
      <trkpt lat="47.69695" lon="5.97845">
        <ele>300</ele>
        <time>2010-01-01T01:46:46Z</time>
      </trkpt>
      <trkpt lat="47.69691" lon="5.97843">
        <ele>300</ele>
        <time>2010-01-01T01:46:48Z</time>
      </trkpt>
      <trkpt lat="47.69686" lon="5.97842">
        <ele>300</ele>
        <time>2010-01-01T01:46:50Z</time>
      </trkpt>
      <trkpt lat="47.69681" lon="5.97842">
        <ele>300</ele>
        <time>2010-01-01T01:46:52Z</time>
      </trkpt>
      <trkpt lat="47.69676" lon="5.97843">
        <ele>300</ele>
        <time>2010-01-01T01:46:54Z</time>
      </trkpt>
      <trkpt lat="47.69671" lon="5.97845">
        <ele>300</ele>
        <time>2010-01-01T01:46:56Z</time>
      </trkpt>
      <trkpt lat="47.69666" lon="5.97848">
        <ele>300</ele>
        <time>2010-01-01T01:46:58Z</time>
      </trkpt>
      <trkpt lat="47.69661" lon="5.97851">
        <ele>300</ele>
        <time>2010-01-01T01:47:00Z</time>
      </trkpt>
      <trkpt lat="47.69656" lon="5.97855">
        <ele>300</ele>
        <time>2010-01-01T01:47:02Z</time>
      </trkpt>
      <trkpt lat="47.69651" lon="5.97859">
        <ele>300</ele>
        <time>2010-01-01T01:47:05Z</time>
      </trkpt>
      <trkpt lat="47.69646" lon="5.97864">
        <ele>300</ele>
        <time>2010-01-01T01:47:07Z</time>
      </trkpt>
      <trkpt lat="47.6964" lon="5.97868">
        <ele>300</ele>
        <time>2010-01-01T01:47:10Z</time>
      </trkpt>
      <trkpt lat="47.69634" lon="5.97873">
        <ele>299</ele>
        <time>2010-01-01T01:47:13Z</time>
      </trkpt>
      <trkpt lat="47.69628" lon="5.97878">
        <ele>299</ele>
        <time>2010-01-01T01:47:15Z</time>
      </trkpt>
      <trkpt lat="47.69622" lon="5.97883">
        <ele>298</ele>
        <time>2010-01-01T01:47:18Z</time>
      </trkpt>
      <trkpt lat="47.69615" lon="5.97888">
        <ele>298</ele>
        <time>2010-01-01T01:47:21Z</time>
      </trkpt>
      <trkpt lat="47.69608" lon="5.97893">
        <ele>298</ele>
        <time>2010-01-01T01:47:24Z</time>
      </trkpt>
      <trkpt lat="47.69602" lon="5.97897">
        <ele>297</ele>
        <time>2010-01-01T01:47:27Z</time>
      </trkpt>
      <trkpt lat="47.69594" lon="5.97901">
        <ele>297</ele>
        <time>2010-01-01T01:47:30Z</time>
      </trkpt>
      <trkpt lat="47.69587" lon="5.97902">
        <ele>296</ele>
        <time>2010-01-01T01:47:33Z</time>
      </trkpt>
      <trkpt lat="47.69579" lon="5.97901">
        <ele>296</ele>
        <time>2010-01-01T01:47:36Z</time>
      </trkpt>
      <trkpt lat="47.69571" lon="5.97899">
        <ele>295</ele>
        <time>2010-01-01T01:47:40Z</time>
      </trkpt>
      <trkpt lat="47.69563" lon="5.97895">
        <ele>295</ele>
        <time>2010-01-01T01:47:43Z</time>
      </trkpt>
      <trkpt lat="47.69556" lon="5.97891">
        <ele>295</ele>
        <time>2010-01-01T01:47:46Z</time>
      </trkpt>
      <trkpt lat="47.69548" lon="5.97887">
        <ele>294</ele>
        <time>2010-01-01T01:47:49Z</time>
      </trkpt>
      <trkpt lat="47.6954" lon="5.97882">
        <ele>294</ele>
        <time>2010-01-01T01:47:53Z</time>
      </trkpt>
      <trkpt lat="47.69533" lon="5.97878">
        <ele>293</ele>
        <time>2010-01-01T01:47:56Z</time>
      </trkpt>
      <trkpt lat="47.69525" lon="5.97874">
        <ele>293</ele>
        <time>2010-01-01T01:47:59Z</time>
      </trkpt>
      <trkpt lat="47.69518" lon="5.9787">
        <ele>293</ele>
        <time>2010-01-01T01:48:02Z</time>
      </trkpt>
      <trkpt lat="47.6951" lon="5.97866">
        <ele>292</ele>
        <time>2010-01-01T01:48:05Z</time>
      </trkpt>
      <trkpt lat="47.69503" lon="5.97862">
        <ele>292</ele>
        <time>2010-01-01T01:48:09Z</time>
      </trkpt>
      <trkpt lat="47.69495" lon="5.97858">
        <ele>291</ele>
        <time>2010-01-01T01:48:12Z</time>
      </trkpt>
      <trkpt lat="47.69488" lon="5.97854">
        <ele>291</ele>
        <time>2010-01-01T01:48:15Z</time>
      </trkpt>
      <trkpt lat="47.69481" lon="5.97851">
        <ele>291</ele>
        <time>2010-01-01T01:48:18Z</time>
      </trkpt>
      <trkpt lat="47.69474" lon="5.97847">
        <ele>291</ele>
        <time>2010-01-01T01:48:21Z</time>
      </trkpt>
      <trkpt lat="47.69467" lon="5.97844">
        <ele>290</ele>
        <time>2010-01-01T01:48:24Z</time>
      </trkpt>
      <trkpt lat="47.6946" lon="5.9784">
        <ele>290</ele>
        <time>2010-01-01T01:48:27Z</time>
      </trkpt>
      <trkpt lat="47.69453" lon="5.97837">
        <ele>289</ele>
        <time>2010-01-01T01:48:30Z</time>
      </trkpt>
      <trkpt lat="47.69446" lon="5.97834">
        <ele>289</ele>
        <time>2010-01-01T01:48:33Z</time>
      </trkpt>
      <trkpt lat="47.69438" lon="5.97832">
        <ele>289</ele>
        <time>2010-01-01T01:48:36Z</time>
      </trkpt>
      <trkpt lat="47.69431" lon="5.97829">
        <ele>289</ele>
        <time>2010-01-01T01:48:39Z</time>
      </trkpt>
      <trkpt lat="47.69425" lon="5.97827">
        <ele>289</ele>
        <time>2010-01-01T01:48:41Z</time>
      </trkpt>
      <trkpt lat="47.69418" lon="5.97826">
        <ele>288</ele>
        <time>2010-01-01T01:48:44Z</time>
      </trkpt>
      <trkpt lat="47.69413" lon="5.97825">
        <ele>288</ele>
        <time>2010-01-01T01:48:46Z</time>
      </trkpt>
      <trkpt lat="47.69409" lon="5.97824">
        <ele>287</ele>
        <time>2010-01-01T01:48:48Z</time>
      </trkpt>
      <trkpt lat="47.69405" lon="5.97824">
        <ele>287</ele>
        <time>2010-01-01T01:48:49Z</time>
      </trkpt>
      <trkpt lat="47.69402" lon="5.97824">
        <ele>287</ele>
        <time>2010-01-01T01:48:50Z</time>
      </trkpt>
      <trkpt lat="47.694" lon="5.97824">
        <ele>287</ele>
        <time>2010-01-01T01:48:51Z</time>
      </trkpt>
      <trkpt lat="47.69398" lon="5.97823">
        <ele>287</ele>
        <time>2010-01-01T01:48:52Z</time>
      </trkpt>
      <trkpt lat="47.69398" lon="5.97823">
        <ele>287</ele>
        <time>2010-01-01T01:48:52Z</time>
      </trkpt>
      <trkpt lat="47.69397" lon="5.97823">
        <ele>287</ele>
        <time>2010-01-01T01:48:52Z</time>
      </trkpt>
      <trkpt lat="47.69396" lon="5.97823">
        <ele>287</ele>
        <time>2010-01-01T01:48:53Z</time>
      </trkpt>
      <trkpt lat="47.69395" lon="5.97822">
        <ele>287</ele>
        <time>2010-01-01T01:48:53Z</time>
      </trkpt>
      <trkpt lat="47.69393" lon="5.97822">
        <ele>287</ele>
        <time>2010-01-01T01:48:54Z</time>
      </trkpt>
      <trkpt lat="47.69391" lon="5.97822">
        <ele>287</ele>
        <time>2010-01-01T01:48:55Z</time>
      </trkpt>
      <trkpt lat="47.69388" lon="5.97823">
        <ele>287</ele>
        <time>2010-01-01T01:48:56Z</time>
      </trkpt>
      <trkpt lat="47.69385" lon="5.97825">
        <ele>286</ele>
        <time>2010-01-01T01:48:58Z</time>
      </trkpt>
      <trkpt lat="47.69381" lon="5.97825">
        <ele>286</ele>
        <time>2010-01-01T01:48:59Z</time>
      </trkpt>
      <trkpt lat="47.69376" lon="5.97826">
        <ele>285</ele>
        <time>2010-01-01T01:49:01Z</time>
      </trkpt>
      <trkpt lat="47.69371" lon="5.97828">
        <ele>285</ele>
        <time>2010-01-01T01:49:03Z</time>
      </trkpt>
      <trkpt lat="47.69366" lon="5.97829">
        <ele>284</ele>
        <time>2010-01-01T01:49:05Z</time>
      </trkpt>
      <trkpt lat="47.6936" lon="5.97831">
        <ele>284</ele>
        <time>2010-01-01T01:49:08Z</time>
      </trkpt>
      <trkpt lat="47.69353" lon="5.97832">
        <ele>284</ele>
        <time>2010-01-01T01:49:10Z</time>
      </trkpt>
      <trkpt lat="47.69347" lon="5.97834">
        <ele>284</ele>
        <time>2010-01-01T01:49:13Z</time>
      </trkpt>
      <trkpt lat="47.69341" lon="5.97836">
        <ele>283</ele>
        <time>2010-01-01T01:49:15Z</time>
      </trkpt>
      <trkpt lat="47.69335" lon="5.97838">
        <ele>283</ele>
        <time>2010-01-01T01:49:18Z</time>
      </trkpt>
      <trkpt lat="47.69329" lon="5.97839">
        <ele>282</ele>
        <time>2010-01-01T01:49:20Z</time>
      </trkpt>
      <trkpt lat="47.69322" lon="5.97841">
        <ele>282</ele>
        <time>2010-01-01T01:49:23Z</time>
      </trkpt>
      <trkpt lat="47.69316" lon="5.97843">
        <ele>282</ele>
        <time>2010-01-01T01:49:25Z</time>
      </trkpt>
      <trkpt lat="47.6931" lon="5.97845">
        <ele>282</ele>
        <time>2010-01-01T01:49:28Z</time>
      </trkpt>
      <trkpt lat="47.69304" lon="5.97845">
        <ele>281</ele>
        <time>2010-01-01T01:49:30Z</time>
      </trkpt>
      <trkpt lat="47.69298" lon="5.97846">
        <ele>281</ele>
        <time>2010-01-01T01:49:33Z</time>
      </trkpt>
      <trkpt lat="47.69292" lon="5.97846">
        <ele>281</ele>
        <time>2010-01-01T01:49:35Z</time>
      </trkpt>
      <trkpt lat="47.69286" lon="5.97846">
        <ele>280</ele>
        <time>2010-01-01T01:49:37Z</time>
      </trkpt>
      <trkpt lat="47.69281" lon="5.97844">
        <ele>280</ele>
        <time>2010-01-01T01:49:40Z</time>
      </trkpt>
      <trkpt lat="47.69276" lon="5.97842">
        <ele>280</ele>
        <time>2010-01-01T01:49:42Z</time>
      </trkpt>
      <trkpt lat="47.69271" lon="5.9784">
        <ele>280</ele>
        <time>2010-01-01T01:49:44Z</time>
      </trkpt>
      <trkpt lat="47.69266" lon="5.97838">
        <ele>280</ele>
        <time>2010-01-01T01:49:46Z</time>
      </trkpt>
      <trkpt lat="47.69261" lon="5.97835">
        <ele>280</ele>
        <time>2010-01-01T01:49:48Z</time>
      </trkpt>
      <trkpt lat="47.69256" lon="5.97832">
        <ele>280</ele>
        <time>2010-01-01T01:49:50Z</time>
      </trkpt>
      <trkpt lat="47.69252" lon="5.97829">
        <ele>280</ele>
        <time>2010-01-01T01:49:52Z</time>
      </trkpt>
      <trkpt lat="47.69247" lon="5.97826">
        <ele>280</ele>
        <time>2010-01-01T01:49:54Z</time>
      </trkpt>
      <trkpt lat="47.69243" lon="5.97823">
        <ele>280</ele>
        <time>2010-01-01T01:49:56Z</time>
      </trkpt>
      <trkpt lat="47.69238" lon="5.9782">
        <ele>280</ele>
        <time>2010-01-01T01:49:58Z</time>
      </trkpt>
      <trkpt lat="47.69234" lon="5.97817">
        <ele>280</ele>
        <time>2010-01-01T01:50:00Z</time>
      </trkpt>
      <trkpt lat="47.69229" lon="5.97814">
        <ele>280</ele>
        <time>2010-01-01T01:50:02Z</time>
      </trkpt>
      <trkpt lat="47.69224" lon="5.97811">
        <ele>280</ele>
        <time>2010-01-01T01:50:04Z</time>
      </trkpt>
      <trkpt lat="47.6922" lon="5.97808">
        <ele>280</ele>
        <time>2010-01-01T01:50:06Z</time>
      </trkpt>
      <trkpt lat="47.69216" lon="5.97806">
        <ele>280</ele>
        <time>2010-01-01T01:50:08Z</time>
      </trkpt>
      <trkpt lat="47.69211" lon="5.97803">
        <ele>280</ele>
        <time>2010-01-01T01:50:10Z</time>
      </trkpt>
      <trkpt lat="47.69207" lon="5.97801">
        <ele>280</ele>
        <time>2010-01-01T01:50:11Z</time>
      </trkpt>
      <trkpt lat="47.69203" lon="5.97799">
        <ele>280</ele>
        <time>2010-01-01T01:50:13Z</time>
      </trkpt>
      <trkpt lat="47.69198" lon="5.97796">
        <ele>280</ele>
        <time>2010-01-01T01:50:15Z</time>
      </trkpt>
      <trkpt lat="47.69194" lon="5.97794">
        <ele>280</ele>
        <time>2010-01-01T01:50:17Z</time>
      </trkpt>
      <trkpt lat="47.6919" lon="5.97792">
        <ele>280</ele>
        <time>2010-01-01T01:50:19Z</time>
      </trkpt>
      <trkpt lat="47.69185" lon="5.9779">
        <ele>280</ele>
        <time>2010-01-01T01:50:21Z</time>
      </trkpt>
      <trkpt lat="47.69181" lon="5.97788">
        <ele>280</ele>
        <time>2010-01-01T01:50:22Z</time>
      </trkpt>
      <trkpt lat="47.69176" lon="5.97785">
        <ele>280</ele>
        <time>2010-01-01T01:50:24Z</time>
      </trkpt>
      <trkpt lat="47.69172" lon="5.97784">
        <ele>280</ele>
        <time>2010-01-01T01:50:26Z</time>
      </trkpt>
      <trkpt lat="47.69167" lon="5.97782">
        <ele>280</ele>
        <time>2010-01-01T01:50:28Z</time>
      </trkpt>
      <trkpt lat="47.69162" lon="5.9778">
        <ele>280</ele>
        <time>2010-01-01T01:50:30Z</time>
      </trkpt>
      <trkpt lat="47.69158" lon="5.97778">
        <ele>280</ele>
        <time>2010-01-01T01:50:32Z</time>
      </trkpt>
      <trkpt lat="47.69153" lon="5.97776">
        <ele>280</ele>
        <time>2010-01-01T01:50:34Z</time>
      </trkpt>
      <trkpt lat="47.69148" lon="5.97775">
        <ele>280</ele>
        <time>2010-01-01T01:50:36Z</time>
      </trkpt>
      <trkpt lat="47.69144" lon="5.97774">
        <ele>280</ele>
        <time>2010-01-01T01:50:38Z</time>
      </trkpt>
      <trkpt lat="47.69139" lon="5.97772">
        <ele>280</ele>
        <time>2010-01-01T01:50:40Z</time>
      </trkpt>
      <trkpt lat="47.69134" lon="5.97771">
        <ele>280</ele>
        <time>2010-01-01T01:50:42Z</time>
      </trkpt>
      <trkpt lat="47.69129" lon="5.9777">
        <ele>280</ele>
        <time>2010-01-01T01:50:44Z</time>
      </trkpt>
      <trkpt lat="47.69125" lon="5.97769">
        <ele>280</ele>
        <time>2010-01-01T01:50:46Z</time>
      </trkpt>
      <trkpt lat="47.6912" lon="5.97767">
        <ele>280</ele>
        <time>2010-01-01T01:50:48Z</time>
      </trkpt>
      <trkpt lat="47.69115" lon="5.97766">
        <ele>280</ele>
        <time>2010-01-01T01:50:50Z</time>
      </trkpt>
      <trkpt lat="47.6911" lon="5.97765">
        <ele>280</ele>
        <time>2010-01-01T01:50:52Z</time>
      </trkpt>
      <trkpt lat="47.69105" lon="5.97763">
        <ele>280</ele>
        <time>2010-01-01T01:50:53Z</time>
      </trkpt>
      <trkpt lat="47.691" lon="5.97762">
        <ele>280</ele>
        <time>2010-01-01T01:50:55Z</time>
      </trkpt>
      <trkpt lat="47.69095" lon="5.97761">
        <ele>280</ele>
        <time>2010-01-01T01:50:58Z</time>
      </trkpt>
      <trkpt lat="47.6909" lon="5.97759">
        <ele>280</ele>
        <time>2010-01-01T01:51:00Z</time>
      </trkpt>
      <trkpt lat="47.69085" lon="5.97757">
        <ele>280</ele>
        <time>2010-01-01T01:51:02Z</time>
      </trkpt>
      <trkpt lat="47.6908" lon="5.97756">
        <ele>280</ele>
        <time>2010-01-01T01:51:04Z</time>
      </trkpt>
      <trkpt lat="47.69074" lon="5.97754">
        <ele>280</ele>
        <time>2010-01-01T01:51:06Z</time>
      </trkpt>
      <trkpt lat="47.69069" lon="5.97753">
        <ele>280</ele>
        <time>2010-01-01T01:51:08Z</time>
      </trkpt>
      <trkpt lat="47.69064" lon="5.97751">
        <ele>280</ele>
        <time>2010-01-01T01:51:10Z</time>
      </trkpt>
      <trkpt lat="47.69058" lon="5.9775">
        <ele>280</ele>
        <time>2010-01-01T01:51:13Z</time>
      </trkpt>
      <trkpt lat="47.69053" lon="5.97749">
        <ele>280</ele>
        <time>2010-01-01T01:51:15Z</time>
      </trkpt>
      <trkpt lat="47.69047" lon="5.97748">
        <ele>280</ele>
        <time>2010-01-01T01:51:17Z</time>
      </trkpt>
      <trkpt lat="47.69041" lon="5.97746">
        <ele>280</ele>
        <time>2010-01-01T01:51:19Z</time>
      </trkpt>
      <trkpt lat="47.69036" lon="5.97745">
        <ele>280</ele>
        <time>2010-01-01T01:51:22Z</time>
      </trkpt>
      <trkpt lat="47.6903" lon="5.97744">
        <ele>280</ele>
        <time>2010-01-01T01:51:24Z</time>
      </trkpt>
      <trkpt lat="47.69024" lon="5.97743">
        <ele>280</ele>
        <time>2010-01-01T01:51:26Z</time>
      </trkpt>
      <trkpt lat="47.69018" lon="5.97742">
        <ele>279</ele>
        <time>2010-01-01T01:51:29Z</time>
      </trkpt>
      <trkpt lat="47.69012" lon="5.9774">
        <ele>279</ele>
        <time>2010-01-01T01:51:31Z</time>
      </trkpt>
      <trkpt lat="47.69005" lon="5.97739">
        <ele>278</ele>
        <time>2010-01-01T01:51:34Z</time>
      </trkpt>
      <trkpt lat="47.68999" lon="5.97738">
        <ele>278</ele>
        <time>2010-01-01T01:51:37Z</time>
      </trkpt>
      <trkpt lat="47.68992" lon="5.97736">
        <ele>278</ele>
        <time>2010-01-01T01:51:39Z</time>
      </trkpt>
      <trkpt lat="47.68986" lon="5.97735">
        <ele>277</ele>
        <time>2010-01-01T01:51:42Z</time>
      </trkpt>
      <trkpt lat="47.6898" lon="5.97734">
        <ele>277</ele>
        <time>2010-01-01T01:51:44Z</time>
      </trkpt>
      <trkpt lat="47.68973" lon="5.97733">
        <ele>276</ele>
        <time>2010-01-01T01:51:47Z</time>
      </trkpt>
      <trkpt lat="47.68967" lon="5.97732">
        <ele>276</ele>
        <time>2010-01-01T01:51:49Z</time>
      </trkpt>
      <trkpt lat="47.68961" lon="5.97731">
        <ele>276</ele>
        <time>2010-01-01T01:51:52Z</time>
      </trkpt>
      <trkpt lat="47.68954" lon="5.9773">
        <ele>276</ele>
        <time>2010-01-01T01:51:55Z</time>
      </trkpt>
      <trkpt lat="47.68948" lon="5.97729">
        <ele>276</ele>
        <time>2010-01-01T01:51:57Z</time>
      </trkpt>
      <trkpt lat="47.68942" lon="5.97728">
        <ele>276</ele>
        <time>2010-01-01T01:52:00Z</time>
      </trkpt>
      <trkpt lat="47.68936" lon="5.97726">
        <ele>276</ele>
        <time>2010-01-01T01:52:02Z</time>
      </trkpt>
      <trkpt lat="47.6893" lon="5.97725">
        <ele>275</ele>
        <time>2010-01-01T01:52:05Z</time>
      </trkpt>
      <trkpt lat="47.68924" lon="5.97723">
        <ele>275</ele>
        <time>2010-01-01T01:52:07Z</time>
      </trkpt>
      <trkpt lat="47.68918" lon="5.97722">
        <ele>275</ele>
        <time>2010-01-01T01:52:09Z</time>
      </trkpt>
      <trkpt lat="47.68912" lon="5.9772">
        <ele>274</ele>
        <time>2010-01-01T01:52:12Z</time>
      </trkpt>
      <trkpt lat="47.68906" lon="5.97718">
        <ele>274</ele>
        <time>2010-01-01T01:52:14Z</time>
      </trkpt>
      <trkpt lat="47.689" lon="5.97717">
        <ele>274</ele>
        <time>2010-01-01T01:52:16Z</time>
      </trkpt>
      <trkpt lat="47.68895" lon="5.97715">
        <ele>274</ele>
        <time>2010-01-01T01:52:19Z</time>
      </trkpt>
      <trkpt lat="47.68889" lon="5.97714">
        <ele>274</ele>
        <time>2010-01-01T01:52:21Z</time>
      </trkpt>
      <trkpt lat="47.68884" lon="5.97712">
        <ele>274</ele>
        <time>2010-01-01T01:52:23Z</time>
      </trkpt>
      <trkpt lat="47.68879" lon="5.97711">
        <ele>274</ele>
        <time>2010-01-01T01:52:25Z</time>
      </trkpt>
      <trkpt lat="47.68873" lon="5.9771">
        <ele>274</ele>
        <time>2010-01-01T01:52:28Z</time>
      </trkpt>
      <trkpt lat="47.68868" lon="5.97708">
        <ele>274</ele>
        <time>2010-01-01T01:52:30Z</time>
      </trkpt>
      <trkpt lat="47.68863" lon="5.97707">
        <ele>274</ele>
        <time>2010-01-01T01:52:32Z</time>
      </trkpt>
      <trkpt lat="47.68857" lon="5.97705">
        <ele>274</ele>
        <time>2010-01-01T01:52:34Z</time>
      </trkpt>
      <trkpt lat="47.68852" lon="5.97704">
        <ele>274</ele>
        <time>2010-01-01T01:52:36Z</time>
      </trkpt>
      <trkpt lat="47.68847" lon="5.97704">
        <ele>274</ele>
        <time>2010-01-01T01:52:38Z</time>
      </trkpt>
      <trkpt lat="47.68842" lon="5.97703">
        <ele>273</ele>
        <time>2010-01-01T01:52:40Z</time>
      </trkpt>
      <trkpt lat="47.68837" lon="5.97702">
        <ele>273</ele>
        <time>2010-01-01T01:52:42Z</time>
      </trkpt>
      <trkpt lat="47.68832" lon="5.97701">
        <ele>272</ele>
        <time>2010-01-01T01:52:44Z</time>
      </trkpt>
      <trkpt lat="47.68827" lon="5.977">
        <ele>272</ele>
        <time>2010-01-01T01:52:46Z</time>
      </trkpt>
      <trkpt lat="47.68821" lon="5.977">
        <ele>271</ele>
        <time>2010-01-01T01:52:49Z</time>
      </trkpt>
      <trkpt lat="47.68816" lon="5.97699">
        <ele>271</ele>
        <time>2010-01-01T01:52:51Z</time>
      </trkpt>
      <trkpt lat="47.6881" lon="5.97698">
        <ele>271</ele>
        <time>2010-01-01T01:52:53Z</time>
      </trkpt>
      <trkpt lat="47.68804" lon="5.97697">
        <ele>271</ele>
        <time>2010-01-01T01:52:55Z</time>
      </trkpt>
      <trkpt lat="47.68799" lon="5.97695">
        <ele>271</ele>
        <time>2010-01-01T01:52:58Z</time>
      </trkpt>
      <trkpt lat="47.68794" lon="5.97695">
        <ele>271</ele>
        <time>2010-01-01T01:53:00Z</time>
      </trkpt>
      <trkpt lat="47.68788" lon="5.97694">
        <ele>271</ele>
        <time>2010-01-01T01:53:02Z</time>
      </trkpt>
      <trkpt lat="47.68782" lon="5.97693">
        <ele>271</ele>
        <time>2010-01-01T01:53:04Z</time>
      </trkpt>
      <trkpt lat="47.68776" lon="5.97692">
        <ele>271</ele>
        <time>2010-01-01T01:53:07Z</time>
      </trkpt>
      <trkpt lat="47.68771" lon="5.97692">
        <ele>270</ele>
        <time>2010-01-01T01:53:09Z</time>
      </trkpt>
      <trkpt lat="47.68765" lon="5.97692">
        <ele>270</ele>
        <time>2010-01-01T01:53:11Z</time>
      </trkpt>
      <trkpt lat="47.6876" lon="5.97691">
        <ele>269</ele>
        <time>2010-01-01T01:53:13Z</time>
      </trkpt>
      <trkpt lat="47.68755" lon="5.9769">
        <ele>269</ele>
        <time>2010-01-01T01:53:15Z</time>
      </trkpt>
      <trkpt lat="47.68751" lon="5.97686">
        <ele>269</ele>
        <time>2010-01-01T01:53:17Z</time>
      </trkpt>
      <trkpt lat="47.68748" lon="5.9768">
        <ele>269</ele>
        <time>2010-01-01T01:53:19Z</time>
      </trkpt>
      <trkpt lat="47.68748" lon="5.97672">
        <ele>269</ele>
        <time>2010-01-01T01:53:21Z</time>
      </trkpt>
      <trkpt lat="47.68748" lon="5.97664">
        <ele>268</ele>
        <time>2010-01-01T01:53:23Z</time>
      </trkpt>
      <trkpt lat="47.68748" lon="5.97657">
        <ele>268</ele>
        <time>2010-01-01T01:53:25Z</time>
      </trkpt>
      <trkpt lat="47.68748" lon="5.97649">
        <ele>267</ele>
        <time>2010-01-01T01:53:27Z</time>
      </trkpt>
      <trkpt lat="47.68748" lon="5.97642">
        <ele>267</ele>
        <time>2010-01-01T01:53:29Z</time>
      </trkpt>
      <trkpt lat="47.68748" lon="5.97635">
        <ele>267</ele>
        <time>2010-01-01T01:53:31Z</time>
      </trkpt>
      <trkpt lat="47.68749" lon="5.97629">
        <ele>267</ele>
        <time>2010-01-01T01:53:33Z</time>
      </trkpt>
      <trkpt lat="47.68749" lon="5.97622">
        <ele>267</ele>
        <time>2010-01-01T01:53:35Z</time>
      </trkpt>
      <trkpt lat="47.68749" lon="5.97616">
        <ele>267</ele>
        <time>2010-01-01T01:53:36Z</time>
      </trkpt>
      <trkpt lat="47.6875" lon="5.97609">
        <ele>267</ele>
        <time>2010-01-01T01:53:38Z</time>
      </trkpt>
      <trkpt lat="47.6875" lon="5.97602">
        <ele>267</ele>
        <time>2010-01-01T01:53:40Z</time>
      </trkpt>
      <trkpt lat="47.6875" lon="5.97596">
        <ele>267</ele>
        <time>2010-01-01T01:53:42Z</time>
      </trkpt>
      <trkpt lat="47.6875" lon="5.9759">
        <ele>267</ele>
        <time>2010-01-01T01:53:44Z</time>
      </trkpt>
      <trkpt lat="47.68751" lon="5.97583">
        <ele>267</ele>
        <time>2010-01-01T01:53:45Z</time>
      </trkpt>
      <trkpt lat="47.68751" lon="5.97577">
        <ele>267</ele>
        <time>2010-01-01T01:53:47Z</time>
      </trkpt>
      <trkpt lat="47.68751" lon="5.9757">
        <ele>267</ele>
        <time>2010-01-01T01:53:49Z</time>
      </trkpt>
      <trkpt lat="47.68751" lon="5.97564">
        <ele>267</ele>
        <time>2010-01-01T01:53:51Z</time>
      </trkpt>
      <trkpt lat="47.68752" lon="5.97557">
        <ele>267</ele>
        <time>2010-01-01T01:53:52Z</time>
      </trkpt>
      <trkpt lat="47.68752" lon="5.97551">
        <ele>267</ele>
        <time>2010-01-01T01:53:54Z</time>
      </trkpt>
      <trkpt lat="47.68752" lon="5.97545">
        <ele>267</ele>
        <time>2010-01-01T01:53:56Z</time>
      </trkpt>
      <trkpt lat="47.68752" lon="5.97538">
        <ele>267</ele>
        <time>2010-01-01T01:53:57Z</time>
      </trkpt>
      <trkpt lat="47.68753" lon="5.97531">
        <ele>267</ele>
        <time>2010-01-01T01:53:59Z</time>
      </trkpt>
      <trkpt lat="47.68753" lon="5.97524">
        <ele>267</ele>
        <time>2010-01-01T01:54:01Z</time>
      </trkpt>
      <trkpt lat="47.68754" lon="5.97518">
        <ele>267</ele>
        <time>2010-01-01T01:54:03Z</time>
      </trkpt>
      <trkpt lat="47.68754" lon="5.97511">
        <ele>267</ele>
        <time>2010-01-01T01:54:05Z</time>
      </trkpt>
      <trkpt lat="47.68754" lon="5.97504">
        <ele>267</ele>
        <time>2010-01-01T01:54:07Z</time>
      </trkpt>
      <trkpt lat="47.68755" lon="5.97497">
        <ele>267</ele>
        <time>2010-01-01T01:54:09Z</time>
      </trkpt>
      <trkpt lat="47.68755" lon="5.9749">
        <ele>267</ele>
        <time>2010-01-01T01:54:10Z</time>
      </trkpt>
      <trkpt lat="47.68755" lon="5.97484">
        <ele>267</ele>
        <time>2010-01-01T01:54:12Z</time>
      </trkpt>
      <trkpt lat="47.68755" lon="5.97477">
        <ele>267</ele>
        <time>2010-01-01T01:54:14Z</time>
      </trkpt>
      <trkpt lat="47.68755" lon="5.97471">
        <ele>267</ele>
        <time>2010-01-01T01:54:16Z</time>
      </trkpt>
      <trkpt lat="47.68755" lon="5.97464">
        <ele>267</ele>
        <time>2010-01-01T01:54:17Z</time>
      </trkpt>
      <trkpt lat="47.68756" lon="5.97458">
        <ele>267</ele>
        <time>2010-01-01T01:54:19Z</time>
      </trkpt>
      <trkpt lat="47.68756" lon="5.97452">
        <ele>267</ele>
        <time>2010-01-01T01:54:21Z</time>
      </trkpt>
      <trkpt lat="47.68756" lon="5.97446">
        <ele>267</ele>
        <time>2010-01-01T01:54:22Z</time>
      </trkpt>
      <trkpt lat="47.68756" lon="5.97441">
        <ele>267</ele>
        <time>2010-01-01T01:54:24Z</time>
      </trkpt>
      <trkpt lat="47.68756" lon="5.97435">
        <ele>267</ele>
        <time>2010-01-01T01:54:25Z</time>
      </trkpt>
      <trkpt lat="47.68757" lon="5.9743">
        <ele>267</ele>
        <time>2010-01-01T01:54:27Z</time>
      </trkpt>
      <trkpt lat="47.68757" lon="5.97425">
        <ele>266</ele>
        <time>2010-01-01T01:54:28Z</time>
      </trkpt>
      <trkpt lat="47.68757" lon="5.97419">
        <ele>266</ele>
        <time>2010-01-01T01:54:30Z</time>
      </trkpt>
      <trkpt lat="47.68758" lon="5.97414">
        <ele>266</ele>
        <time>2010-01-01T01:54:31Z</time>
      </trkpt>
      <trkpt lat="47.68758" lon="5.97408">
        <ele>265</ele>
        <time>2010-01-01T01:54:33Z</time>
      </trkpt>
      <trkpt lat="47.68759" lon="5.97402">
        <ele>265</ele>
        <time>2010-01-01T01:54:34Z</time>
      </trkpt>
      <trkpt lat="47.68759" lon="5.97396">
        <ele>265</ele>
        <time>2010-01-01T01:54:36Z</time>
      </trkpt>
      <trkpt lat="47.68759" lon="5.9739">
        <ele>265</ele>
        <time>2010-01-01T01:54:37Z</time>
      </trkpt>
      <trkpt lat="47.6876" lon="5.97385">
        <ele>265</ele>
        <time>2010-01-01T01:54:39Z</time>
      </trkpt>
      <trkpt lat="47.6876" lon="5.97379">
        <ele>265</ele>
        <time>2010-01-01T01:54:41Z</time>
      </trkpt>
      <trkpt lat="47.6876" lon="5.97373">
        <ele>265</ele>
        <time>2010-01-01T01:54:42Z</time>
      </trkpt>
      <trkpt lat="47.6876" lon="5.97367">
        <ele>265</ele>
        <time>2010-01-01T01:54:44Z</time>
      </trkpt>
      <trkpt lat="47.6876" lon="5.97361">
        <ele>265</ele>
        <time>2010-01-01T01:54:45Z</time>
      </trkpt>
      <trkpt lat="47.68761" lon="5.97354">
        <ele>264</ele>
        <time>2010-01-01T01:54:47Z</time>
      </trkpt>
      <trkpt lat="47.68762" lon="5.97347">
        <ele>264</ele>
        <time>2010-01-01T01:54:49Z</time>
      </trkpt>
      <trkpt lat="47.68762" lon="5.9734">
        <ele>264</ele>
        <time>2010-01-01T01:54:51Z</time>
      </trkpt>
      <trkpt lat="47.68763" lon="5.97332">
        <ele>263</ele>
        <time>2010-01-01T01:54:53Z</time>
      </trkpt>
      <trkpt lat="47.68763" lon="5.97324">
        <ele>263</ele>
        <time>2010-01-01T01:54:55Z</time>
      </trkpt>
      <trkpt lat="47.68764" lon="5.97316">
        <ele>263</ele>
        <time>2010-01-01T01:54:58Z</time>
      </trkpt>
      <trkpt lat="47.68764" lon="5.97308">
        <ele>263</ele>
        <time>2010-01-01T01:55:00Z</time>
      </trkpt>
      <trkpt lat="47.68765" lon="5.973">
        <ele>263</ele>
        <time>2010-01-01T01:55:02Z</time>
      </trkpt>
      <trkpt lat="47.68765" lon="5.97292">
        <ele>262</ele>
        <time>2010-01-01T01:55:04Z</time>
      </trkpt>
      <trkpt lat="47.68766" lon="5.97283">
        <ele>262</ele>
        <time>2010-01-01T01:55:06Z</time>
      </trkpt>
      <trkpt lat="47.68766" lon="5.97274">
        <ele>262</ele>
        <time>2010-01-01T01:55:09Z</time>
      </trkpt>
      <trkpt lat="47.68767" lon="5.97265">
        <ele>261</ele>
        <time>2010-01-01T01:55:11Z</time>
      </trkpt>
      <trkpt lat="47.68767" lon="5.97255">
        <ele>261</ele>
        <time>2010-01-01T01:55:14Z</time>
      </trkpt>
      <trkpt lat="47.68768" lon="5.97246">
        <ele>261</ele>
        <time>2010-01-01T01:55:17Z</time>
      </trkpt>
      <trkpt lat="47.68768" lon="5.97237">
        <ele>260</ele>
        <time>2010-01-01T01:55:19Z</time>
      </trkpt>
      <trkpt lat="47.68768" lon="5.97228">
        <ele>260</ele>
        <time>2010-01-01T01:55:21Z</time>
      </trkpt>
      <trkpt lat="47.68769" lon="5.9722">
        <ele>259</ele>
        <time>2010-01-01T01:55:24Z</time>
      </trkpt>
      <trkpt lat="47.68769" lon="5.97212">
        <ele>259</ele>
        <time>2010-01-01T01:55:26Z</time>
      </trkpt>
      <trkpt lat="47.68769" lon="5.97204">
        <ele>259</ele>
        <time>2010-01-01T01:55:28Z</time>
      </trkpt>
      <trkpt lat="47.6877" lon="5.97196">
        <ele>259</ele>
        <time>2010-01-01T01:55:30Z</time>
      </trkpt>
      <trkpt lat="47.6877" lon="5.97188">
        <ele>259</ele>
        <time>2010-01-01T01:55:32Z</time>
      </trkpt>
      <trkpt lat="47.6877" lon="5.9718">
        <ele>259</ele>
        <time>2010-01-01T01:55:34Z</time>
      </trkpt>
      <trkpt lat="47.68771" lon="5.97172">
        <ele>259</ele>
        <time>2010-01-01T01:55:36Z</time>
      </trkpt>
      <trkpt lat="47.68771" lon="5.97165">
        <ele>259</ele>
        <time>2010-01-01T01:55:38Z</time>
      </trkpt>
      <trkpt lat="47.68771" lon="5.97158">
        <ele>259</ele>
        <time>2010-01-01T01:55:40Z</time>
      </trkpt>
      <trkpt lat="47.68772" lon="5.97152">
        <ele>259</ele>
        <time>2010-01-01T01:55:42Z</time>
      </trkpt>
      <trkpt lat="47.68772" lon="5.97146">
        <ele>259</ele>
        <time>2010-01-01T01:55:44Z</time>
      </trkpt>
      <trkpt lat="47.68772" lon="5.9714">
        <ele>259</ele>
        <time>2010-01-01T01:55:45Z</time>
      </trkpt>
      <trkpt lat="47.68772" lon="5.97134">
        <ele>259</ele>
        <time>2010-01-01T01:55:47Z</time>
      </trkpt>
      <trkpt lat="47.68771" lon="5.97129">
        <ele>259</ele>
        <time>2010-01-01T01:55:48Z</time>
      </trkpt>
      <trkpt lat="47.68771" lon="5.97124">
        <ele>259</ele>
        <time>2010-01-01T01:55:50Z</time>
      </trkpt>
      <trkpt lat="47.6877" lon="5.97118">
        <ele>259</ele>
        <time>2010-01-01T01:55:51Z</time>
      </trkpt>
      <trkpt lat="47.6877" lon="5.97113">
        <ele>259</ele>
        <time>2010-01-01T01:55:52Z</time>
      </trkpt>
      <trkpt lat="47.68769" lon="5.97108">
        <ele>259</ele>
        <time>2010-01-01T01:55:54Z</time>
      </trkpt>
      <trkpt lat="47.68768" lon="5.97102">
        <ele>259</ele>
        <time>2010-01-01T01:55:55Z</time>
      </trkpt>
      <trkpt lat="47.68767" lon="5.97097">
        <ele>259</ele>
        <time>2010-01-01T01:55:57Z</time>
      </trkpt>
      <trkpt lat="47.68765" lon="5.97092">
        <ele>259</ele>
        <time>2010-01-01T01:55:58Z</time>
      </trkpt>
      <trkpt lat="47.68764" lon="5.97087">
        <ele>259</ele>
        <time>2010-01-01T01:56:00Z</time>
      </trkpt>
      <trkpt lat="47.68763" lon="5.97082">
        <ele>259</ele>
        <time>2010-01-01T01:56:01Z</time>
      </trkpt>
      <trkpt lat="47.68762" lon="5.97077">
        <ele>259</ele>
        <time>2010-01-01T01:56:03Z</time>
      </trkpt>
      <trkpt lat="47.6876" lon="5.97071">
        <ele>259</ele>
        <time>2010-01-01T01:56:04Z</time>
      </trkpt>
      <trkpt lat="47.68759" lon="5.97066">
        <ele>259</ele>
        <time>2010-01-01T01:56:06Z</time>
      </trkpt>
      <trkpt lat="47.68758" lon="5.97061">
        <ele>259</ele>
        <time>2010-01-01T01:56:07Z</time>
      </trkpt>
      <trkpt lat="47.68757" lon="5.97055">
        <ele>259</ele>
        <time>2010-01-01T01:56:09Z</time>
      </trkpt>
      <trkpt lat="47.68757" lon="5.97049">
        <ele>259</ele>
        <time>2010-01-01T01:56:10Z</time>
      </trkpt>
      <trkpt lat="47.68756" lon="5.97044">
        <ele>259</ele>
        <time>2010-01-01T01:56:12Z</time>
      </trkpt>
      <trkpt lat="47.68756" lon="5.97038">
        <ele>259</ele>
        <time>2010-01-01T01:56:14Z</time>
      </trkpt>
      <trkpt lat="47.68756" lon="5.97032">
        <ele>259</ele>
        <time>2010-01-01T01:56:15Z</time>
      </trkpt>
      <trkpt lat="47.68756" lon="5.97027">
        <ele>259</ele>
        <time>2010-01-01T01:56:17Z</time>
      </trkpt>
      <trkpt lat="47.68756" lon="5.97021">
        <ele>260</ele>
        <time>2010-01-01T01:56:18Z</time>
      </trkpt>
      <trkpt lat="47.68756" lon="5.97016">
        <ele>260</ele>
        <time>2010-01-01T01:56:19Z</time>
      </trkpt>
      <trkpt lat="47.68756" lon="5.97012">
        <ele>261</ele>
        <time>2010-01-01T01:56:21Z</time>
      </trkpt>
      <trkpt lat="47.68757" lon="5.97007">
        <ele>261</ele>
        <time>2010-01-01T01:56:22Z</time>
      </trkpt>
      <trkpt lat="47.68757" lon="5.97002">
        <ele>261</ele>
        <time>2010-01-01T01:56:23Z</time>
      </trkpt>
      <trkpt lat="47.68758" lon="5.96997">
        <ele>261</ele>
        <time>2010-01-01T01:56:25Z</time>
      </trkpt>
      <trkpt lat="47.68758" lon="5.96992">
        <ele>261</ele>
        <time>2010-01-01T01:56:26Z</time>
      </trkpt>
      <trkpt lat="47.68758" lon="5.96987">
        <ele>261</ele>
        <time>2010-01-01T01:56:27Z</time>
      </trkpt>
      <trkpt lat="47.68759" lon="5.96982">
        <ele>261</ele>
        <time>2010-01-01T01:56:29Z</time>
      </trkpt>
      <trkpt lat="47.68759" lon="5.96977">
        <ele>261</ele>
        <time>2010-01-01T01:56:30Z</time>
      </trkpt>
      <trkpt lat="47.68759" lon="5.96973">
        <ele>261</ele>
        <time>2010-01-01T01:56:31Z</time>
      </trkpt>
      <trkpt lat="47.68759" lon="5.96968">
        <ele>261</ele>
        <time>2010-01-01T01:56:32Z</time>
      </trkpt>
      <trkpt lat="47.68759" lon="5.96964">
        <ele>261</ele>
        <time>2010-01-01T01:56:34Z</time>
      </trkpt>
      <trkpt lat="47.6876" lon="5.96959">
        <ele>262</ele>
        <time>2010-01-01T01:56:35Z</time>
      </trkpt>
      <trkpt lat="47.6876" lon="5.96955">
        <ele>262</ele>
        <time>2010-01-01T01:56:36Z</time>
      </trkpt>
      <trkpt lat="47.6876" lon="5.96951">
        <ele>263</ele>
        <time>2010-01-01T01:56:37Z</time>
      </trkpt>
      <trkpt lat="47.6876" lon="5.96946">
        <ele>263</ele>
        <time>2010-01-01T01:56:38Z</time>
      </trkpt>
      <trkpt lat="47.68761" lon="5.96942">
        <ele>263</ele>
        <time>2010-01-01T01:56:40Z</time>
      </trkpt>
      <trkpt lat="47.68761" lon="5.96937">
        <ele>263</ele>
        <time>2010-01-01T01:56:41Z</time>
      </trkpt>
      <trkpt lat="47.68761" lon="5.96933">
        <ele>263</ele>
        <time>2010-01-01T01:56:42Z</time>
      </trkpt>
      <trkpt lat="47.68761" lon="5.96928">
        <ele>263</ele>
        <time>2010-01-01T01:56:43Z</time>
      </trkpt>
      <trkpt lat="47.68761" lon="5.96924">
        <ele>263</ele>
        <time>2010-01-01T01:56:44Z</time>
      </trkpt>
      <trkpt lat="47.68761" lon="5.9692">
        <ele>263</ele>
        <time>2010-01-01T01:56:45Z</time>
      </trkpt>
      <trkpt lat="47.68762" lon="5.96915">
        <ele>263</ele>
        <time>2010-01-01T01:56:47Z</time>
      </trkpt>
      <trkpt lat="47.68762" lon="5.96911">
        <ele>263</ele>
        <time>2010-01-01T01:56:48Z</time>
      </trkpt>
      <trkpt lat="47.68762" lon="5.96906">
        <ele>263</ele>
        <time>2010-01-01T01:56:49Z</time>
      </trkpt>
      <trkpt lat="47.68762" lon="5.96902">
        <ele>263</ele>
        <time>2010-01-01T01:56:50Z</time>
      </trkpt>
      <trkpt lat="47.68761" lon="5.96897">
        <ele>263</ele>
        <time>2010-01-01T01:56:52Z</time>
      </trkpt>
      <trkpt lat="47.68761" lon="5.96893">
        <ele>263</ele>
        <time>2010-01-01T01:56:53Z</time>
      </trkpt>
      <trkpt lat="47.6876" lon="5.9689">
        <ele>263</ele>
        <time>2010-01-01T01:56:54Z</time>
      </trkpt>
      <trkpt lat="47.68758" lon="5.96886">
        <ele>263</ele>
        <time>2010-01-01T01:56:55Z</time>
      </trkpt>
      <trkpt lat="47.68756" lon="5.96883">
        <ele>263</ele>
        <time>2010-01-01T01:56:56Z</time>
      </trkpt>
      <trkpt lat="47.68755" lon="5.9688">
        <ele>263</ele>
        <time>2010-01-01T01:56:57Z</time>
      </trkpt>
      <trkpt lat="47.68752" lon="5.96878">
        <ele>263</ele>
        <time>2010-01-01T01:56:58Z</time>
      </trkpt>
      <trkpt lat="47.6875" lon="5.96877">
        <ele>263</ele>
        <time>2010-01-01T01:56:59Z</time>
      </trkpt>
      <trkpt lat="47.68747" lon="5.96875">
        <ele>263</ele>
        <time>2010-01-01T01:57:00Z</time>
      </trkpt>
      <trkpt lat="47.68744" lon="5.96872">
        <ele>263</ele>
        <time>2010-01-01T01:57:02Z</time>
      </trkpt>
      <trkpt lat="47.6874" lon="5.96869">
        <ele>263</ele>
        <time>2010-01-01T01:57:03Z</time>
      </trkpt>
      <trkpt lat="47.68737" lon="5.96867">
        <ele>263</ele>
        <time>2010-01-01T01:57:05Z</time>
      </trkpt>
      <trkpt lat="47.68733" lon="5.96864">
        <ele>263</ele>
        <time>2010-01-01T01:57:07Z</time>
      </trkpt>
      <trkpt lat="47.6873" lon="5.9686">
        <ele>263</ele>
        <time>2010-01-01T01:57:08Z</time>
      </trkpt>
      <trkpt lat="47.68726" lon="5.96857">
        <ele>263</ele>
        <time>2010-01-01T01:57:10Z</time>
      </trkpt>
      <trkpt lat="47.68723" lon="5.96855">
        <ele>263</ele>
        <time>2010-01-01T01:57:11Z</time>
      </trkpt>
      <trkpt lat="47.68719" lon="5.96852">
        <ele>263</ele>
        <time>2010-01-01T01:57:13Z</time>
      </trkpt>
      <trkpt lat="47.68716" lon="5.96849">
        <ele>263</ele>
        <time>2010-01-01T01:57:15Z</time>
      </trkpt>
      <trkpt lat="47.68712" lon="5.96846">
        <ele>263</ele>
        <time>2010-01-01T01:57:17Z</time>
      </trkpt>
      <trkpt lat="47.68708" lon="5.96843">
        <ele>263</ele>
        <time>2010-01-01T01:57:18Z</time>
      </trkpt>
      <trkpt lat="47.68704" lon="5.9684">
        <ele>263</ele>
        <time>2010-01-01T01:57:20Z</time>
      </trkpt>
      <trkpt lat="47.68699" lon="5.96837">
        <ele>263</ele>
        <time>2010-01-01T01:57:22Z</time>
      </trkpt>
      <trkpt lat="47.68695" lon="5.96834">
        <ele>263</ele>
        <time>2010-01-01T01:57:24Z</time>
      </trkpt>
      <trkpt lat="47.68691" lon="5.9683">
        <ele>263</ele>
        <time>2010-01-01T01:57:26Z</time>
      </trkpt>
      <trkpt lat="47.68687" lon="5.96827">
        <ele>263</ele>
        <time>2010-01-01T01:57:28Z</time>
      </trkpt>
      <trkpt lat="47.68682" lon="5.96823">
        <ele>263</ele>
        <time>2010-01-01T01:57:30Z</time>
      </trkpt>
      <trkpt lat="47.68678" lon="5.96819">
        <ele>263</ele>
        <time>2010-01-01T01:57:32Z</time>
      </trkpt>
      <trkpt lat="47.68674" lon="5.96815">
        <ele>263</ele>
        <time>2010-01-01T01:57:34Z</time>
      </trkpt>
      <trkpt lat="47.6867" lon="5.96812">
        <ele>263</ele>
        <time>2010-01-01T01:57:36Z</time>
      </trkpt>
      <trkpt lat="47.68665" lon="5.96808">
        <ele>263</ele>
        <time>2010-01-01T01:57:38Z</time>
      </trkpt>
      <trkpt lat="47.68661" lon="5.96805">
        <ele>262</ele>
        <time>2010-01-01T01:57:40Z</time>
      </trkpt>
      <trkpt lat="47.68657" lon="5.96802">
        <ele>262</ele>
        <time>2010-01-01T01:57:42Z</time>
      </trkpt>
      <trkpt lat="47.68652" lon="5.96799">
        <ele>261</ele>
        <time>2010-01-01T01:57:43Z</time>
      </trkpt>
      <trkpt lat="47.68648" lon="5.96795">
        <ele>261</ele>
        <time>2010-01-01T01:57:45Z</time>
      </trkpt>
      <trkpt lat="47.68644" lon="5.96792">
        <ele>261</ele>
        <time>2010-01-01T01:57:47Z</time>
      </trkpt>
      <trkpt lat="47.6864" lon="5.96789">
        <ele>261</ele>
        <time>2010-01-01T01:57:49Z</time>
      </trkpt>
      <trkpt lat="47.68636" lon="5.96786">
        <ele>261</ele>
        <time>2010-01-01T01:57:51Z</time>
      </trkpt>
      <trkpt lat="47.68632" lon="5.96783">
        <ele>261</ele>
        <time>2010-01-01T01:57:53Z</time>
      </trkpt>
      <trkpt lat="47.68628" lon="5.9678">
        <ele>261</ele>
        <time>2010-01-01T01:57:54Z</time>
      </trkpt>
      <trkpt lat="47.68625" lon="5.96777">
        <ele>261</ele>
        <time>2010-01-01T01:57:56Z</time>
      </trkpt>
      <trkpt lat="47.68621" lon="5.96775">
        <ele>261</ele>
        <time>2010-01-01T01:57:57Z</time>
      </trkpt>
      <trkpt lat="47.68618" lon="5.96772">
        <ele>261</ele>
        <time>2010-01-01T01:57:59Z</time>
      </trkpt>
      <trkpt lat="47.68615" lon="5.96769">
        <ele>261</ele>
        <time>2010-01-01T01:58:00Z</time>
      </trkpt>
      <trkpt lat="47.68612" lon="5.96766">
        <ele>261</ele>
        <time>2010-01-01T01:58:02Z</time>
      </trkpt>
      <trkpt lat="47.68608" lon="5.96763">
        <ele>261</ele>
        <time>2010-01-01T01:58:04Z</time>
      </trkpt>
      <trkpt lat="47.68605" lon="5.96761">
        <ele>261</ele>
        <time>2010-01-01T01:58:05Z</time>
      </trkpt>
      <trkpt lat="47.68601" lon="5.96758">
        <ele>261</ele>
        <time>2010-01-01T01:58:07Z</time>
      </trkpt>
      <trkpt lat="47.68597" lon="5.96755">
        <ele>261</ele>
        <time>2010-01-01T01:58:08Z</time>
      </trkpt>
      <trkpt lat="47.68594" lon="5.96752">
        <ele>261</ele>
        <time>2010-01-01T01:58:10Z</time>
      </trkpt>
      <trkpt lat="47.6859" lon="5.96748">
        <ele>261</ele>
        <time>2010-01-01T01:58:12Z</time>
      </trkpt>
      <trkpt lat="47.68587" lon="5.96745">
        <ele>261</ele>
        <time>2010-01-01T01:58:13Z</time>
      </trkpt>
      <trkpt lat="47.68583" lon="5.96743">
        <ele>261</ele>
        <time>2010-01-01T01:58:15Z</time>
      </trkpt>
      <trkpt lat="47.68579" lon="5.96739">
        <ele>261</ele>
        <time>2010-01-01T01:58:17Z</time>
      </trkpt>
      <trkpt lat="47.68576" lon="5.96736">
        <ele>261</ele>
        <time>2010-01-01T01:58:19Z</time>
      </trkpt>
      <trkpt lat="47.68572" lon="5.96733">
        <ele>261</ele>
        <time>2010-01-01T01:58:20Z</time>
      </trkpt>
      <trkpt lat="47.68569" lon="5.9673">
        <ele>261</ele>
        <time>2010-01-01T01:58:22Z</time>
      </trkpt>
      <trkpt lat="47.68565" lon="5.96727">
        <ele>261</ele>
        <time>2010-01-01T01:58:23Z</time>
      </trkpt>
      <trkpt lat="47.68562" lon="5.96725">
        <ele>261</ele>
        <time>2010-01-01T01:58:25Z</time>
      </trkpt>
      <trkpt lat="47.68558" lon="5.96722">
        <ele>261</ele>
        <time>2010-01-01T01:58:27Z</time>
      </trkpt>
      <trkpt lat="47.68554" lon="5.96719">
        <ele>261</ele>
        <time>2010-01-01T01:58:28Z</time>
      </trkpt>
      <trkpt lat="47.6855" lon="5.96717">
        <ele>261</ele>
        <time>2010-01-01T01:58:30Z</time>
      </trkpt>
      <trkpt lat="47.68546" lon="5.96715">
        <ele>261</ele>
        <time>2010-01-01T01:58:32Z</time>
      </trkpt>
      <trkpt lat="47.68543" lon="5.96714">
        <ele>261</ele>
        <time>2010-01-01T01:58:33Z</time>
      </trkpt>
      <trkpt lat="47.68539" lon="5.96712">
        <ele>261</ele>
        <time>2010-01-01T01:58:35Z</time>
      </trkpt>
      <trkpt lat="47.68535" lon="5.96711">
        <ele>261</ele>
        <time>2010-01-01T01:58:36Z</time>
      </trkpt>
      <trkpt lat="47.68532" lon="5.9671">
        <ele>261</ele>
        <time>2010-01-01T01:58:38Z</time>
      </trkpt>
      <trkpt lat="47.68528" lon="5.96708">
        <ele>261</ele>
        <time>2010-01-01T01:58:39Z</time>
      </trkpt>
      <trkpt lat="47.68524" lon="5.96707">
        <ele>261</ele>
        <time>2010-01-01T01:58:41Z</time>
      </trkpt>
      <trkpt lat="47.6852" lon="5.96706">
        <ele>261</ele>
        <time>2010-01-01T01:58:42Z</time>
      </trkpt>
      <trkpt lat="47.68516" lon="5.96705">
        <ele>261</ele>
        <time>2010-01-01T01:58:44Z</time>
      </trkpt>
      <trkpt lat="47.68513" lon="5.96703">
        <ele>261</ele>
        <time>2010-01-01T01:58:45Z</time>
      </trkpt>
      <trkpt lat="47.68509" lon="5.96702">
        <ele>261</ele>
        <time>2010-01-01T01:58:47Z</time>
      </trkpt>
      <trkpt lat="47.68505" lon="5.96701">
        <ele>261</ele>
        <time>2010-01-01T01:58:49Z</time>
      </trkpt>
      <trkpt lat="47.68501" lon="5.96701">
        <ele>261</ele>
        <time>2010-01-01T01:58:50Z</time>
      </trkpt>
      <trkpt lat="47.68497" lon="5.967">
        <ele>261</ele>
        <time>2010-01-01T01:58:52Z</time>
      </trkpt>
      <trkpt lat="47.68493" lon="5.967">
        <ele>261</ele>
        <time>2010-01-01T01:58:53Z</time>
      </trkpt>
      <trkpt lat="47.68489" lon="5.967">
        <ele>261</ele>
        <time>2010-01-01T01:58:55Z</time>
      </trkpt>
      <trkpt lat="47.68485" lon="5.967">
        <ele>261</ele>
        <time>2010-01-01T01:58:57Z</time>
      </trkpt>
      <trkpt lat="47.68481" lon="5.96699">
        <ele>261</ele>
        <time>2010-01-01T01:58:58Z</time>
      </trkpt>
      <trkpt lat="47.68478" lon="5.96698">
        <ele>261</ele>
        <time>2010-01-01T01:59:00Z</time>
      </trkpt>
      <trkpt lat="47.68474" lon="5.96697">
        <ele>261</ele>
        <time>2010-01-01T01:59:01Z</time>
      </trkpt>
      <trkpt lat="47.68471" lon="5.96696">
        <ele>261</ele>
        <time>2010-01-01T01:59:02Z</time>
      </trkpt>
      <trkpt lat="47.68467" lon="5.96695">
        <ele>261</ele>
        <time>2010-01-01T01:59:04Z</time>
      </trkpt>
      <trkpt lat="47.68463" lon="5.96693">
        <ele>261</ele>
        <time>2010-01-01T01:59:06Z</time>
      </trkpt>
      <trkpt lat="47.6846" lon="5.9669">
        <ele>261</ele>
        <time>2010-01-01T01:59:07Z</time>
      </trkpt>
      <trkpt lat="47.68457" lon="5.96688">
        <ele>261</ele>
        <time>2010-01-01T01:59:08Z</time>
      </trkpt>
      <trkpt lat="47.68454" lon="5.96685">
        <ele>261</ele>
        <time>2010-01-01T01:59:10Z</time>
      </trkpt>
      <trkpt lat="47.68451" lon="5.96682">
        <ele>261</ele>
        <time>2010-01-01T01:59:11Z</time>
      </trkpt>
      <trkpt lat="47.68449" lon="5.96678">
        <ele>261</ele>
        <time>2010-01-01T01:59:13Z</time>
      </trkpt>
      <trkpt lat="47.68446" lon="5.96674">
        <ele>261</ele>
        <time>2010-01-01T01:59:14Z</time>
      </trkpt>
      <trkpt lat="47.68444" lon="5.96669">
        <ele>261</ele>
        <time>2010-01-01T01:59:16Z</time>
      </trkpt>
      <trkpt lat="47.68441" lon="5.96665">
        <ele>261</ele>
        <time>2010-01-01T01:59:17Z</time>
      </trkpt>
      <trkpt lat="47.68438" lon="5.9666">
        <ele>261</ele>
        <time>2010-01-01T01:59:19Z</time>
      </trkpt>
      <trkpt lat="47.68435" lon="5.96656">
        <ele>261</ele>
        <time>2010-01-01T01:59:21Z</time>
      </trkpt>
      <trkpt lat="47.68432" lon="5.96651">
        <ele>261</ele>
        <time>2010-01-01T01:59:23Z</time>
      </trkpt>
      <trkpt lat="47.68429" lon="5.96646">
        <ele>261</ele>
        <time>2010-01-01T01:59:24Z</time>
      </trkpt>
      <trkpt lat="47.68426" lon="5.96641">
        <ele>261</ele>
        <time>2010-01-01T01:59:26Z</time>
      </trkpt>
      <trkpt lat="47.68422" lon="5.96636">
        <ele>261</ele>
        <time>2010-01-01T01:59:28Z</time>
      </trkpt>
      <trkpt lat="47.68419" lon="5.96632">
        <ele>261</ele>
        <time>2010-01-01T01:59:30Z</time>
      </trkpt>
      <trkpt lat="47.68416" lon="5.96628">
        <ele>260</ele>
        <time>2010-01-01T01:59:32Z</time>
      </trkpt>
      <trkpt lat="47.68413" lon="5.96623">
        <ele>260</ele>
        <time>2010-01-01T01:59:33Z</time>
      </trkpt>
      <trkpt lat="47.68409" lon="5.96617">
        <ele>260</ele>
        <time>2010-01-01T01:59:35Z</time>
      </trkpt>
      <trkpt lat="47.68406" lon="5.96612">
        <ele>259</ele>
        <time>2010-01-01T01:59:37Z</time>
      </trkpt>
      <trkpt lat="47.68403" lon="5.96607">
        <ele>259</ele>
        <time>2010-01-01T01:59:39Z</time>
      </trkpt>
      <trkpt lat="47.68399" lon="5.96601">
        <ele>259</ele>
        <time>2010-01-01T01:59:41Z</time>
      </trkpt>
      <trkpt lat="47.68396" lon="5.96596">
        <ele>259</ele>
        <time>2010-01-01T01:59:43Z</time>
      </trkpt>
      <trkpt lat="47.68392" lon="5.96591">
        <ele>259</ele>
        <time>2010-01-01T01:59:45Z</time>
      </trkpt>
      <trkpt lat="47.68389" lon="5.96586">
        <ele>259</ele>
        <time>2010-01-01T01:59:47Z</time>
      </trkpt>
      <trkpt lat="47.68385" lon="5.96581">
        <ele>259</ele>
        <time>2010-01-01T01:59:49Z</time>
      </trkpt>
      <trkpt lat="47.68382" lon="5.96576">
        <ele>259</ele>
        <time>2010-01-01T01:59:51Z</time>
      </trkpt>
      <trkpt lat="47.68378" lon="5.96571">
        <ele>259</ele>
        <time>2010-01-01T01:59:53Z</time>
      </trkpt>
      <trkpt lat="47.68375" lon="5.96566">
        <ele>259</ele>
        <time>2010-01-01T01:59:55Z</time>
      </trkpt>
      <trkpt lat="47.68371" lon="5.9656">
        <ele>258</ele>
        <time>2010-01-01T01:59:57Z</time>
      </trkpt>
      <trkpt lat="47.68367" lon="5.96554">
        <ele>258</ele>
        <time>2010-01-01T01:59:59Z</time>
      </trkpt>
      <trkpt lat="47.68363" lon="5.96549">
        <ele>257</ele>
        <time>2010-01-01T02:00:02Z</time>
      </trkpt>
      <trkpt lat="47.68359" lon="5.96543">
        <ele>257</ele>
        <time>2010-01-01T02:00:04Z</time>
      </trkpt>
      <trkpt lat="47.68356" lon="5.96537">
        <ele>257</ele>
        <time>2010-01-01T02:00:06Z</time>
      </trkpt>
      <trkpt lat="47.68352" lon="5.96532">
        <ele>257</ele>
        <time>2010-01-01T02:00:08Z</time>
      </trkpt>
      <trkpt lat="47.68349" lon="5.96527">
        <ele>257</ele>
        <time>2010-01-01T02:00:10Z</time>
      </trkpt>
      <trkpt lat="47.68345" lon="5.96521">
        <ele>257</ele>
        <time>2010-01-01T02:00:12Z</time>
      </trkpt>
      <trkpt lat="47.68342" lon="5.96516">
        <ele>257</ele>
        <time>2010-01-01T02:00:14Z</time>
      </trkpt>
      <trkpt lat="47.68338" lon="5.96511">
        <ele>257</ele>
        <time>2010-01-01T02:00:16Z</time>
      </trkpt>
      <trkpt lat="47.68335" lon="5.96507">
        <ele>257</ele>
        <time>2010-01-01T02:00:17Z</time>
      </trkpt>
      <trkpt lat="47.68332" lon="5.96502">
        <ele>257</ele>
        <time>2010-01-01T02:00:19Z</time>
      </trkpt>
      <trkpt lat="47.68329" lon="5.96497">
        <ele>257</ele>
        <time>2010-01-01T02:00:21Z</time>
      </trkpt>
      <trkpt lat="47.68327" lon="5.96493">
        <ele>257</ele>
        <time>2010-01-01T02:00:23Z</time>
      </trkpt>
      <trkpt lat="47.68323" lon="5.96489">
        <ele>257</ele>
        <time>2010-01-01T02:00:24Z</time>
      </trkpt>
      <trkpt lat="47.6832" lon="5.96485">
        <ele>257</ele>
        <time>2010-01-01T02:00:26Z</time>
      </trkpt>
      <trkpt lat="47.68317" lon="5.96481">
        <ele>257</ele>
        <time>2010-01-01T02:00:27Z</time>
      </trkpt>
      <trkpt lat="47.68315" lon="5.96476">
        <ele>257</ele>
        <time>2010-01-01T02:00:29Z</time>
      </trkpt>
      <trkpt lat="47.68312" lon="5.96472">
        <ele>257</ele>
        <time>2010-01-01T02:00:31Z</time>
      </trkpt>
      <trkpt lat="47.68309" lon="5.96469">
        <ele>257</ele>
        <time>2010-01-01T02:00:32Z</time>
      </trkpt>
      <trkpt lat="47.68305" lon="5.96466">
        <ele>257</ele>
        <time>2010-01-01T02:00:34Z</time>
      </trkpt>
      <trkpt lat="47.68301" lon="5.96464">
        <ele>257</ele>
        <time>2010-01-01T02:00:36Z</time>
      </trkpt>
      <trkpt lat="47.68297" lon="5.96463">
        <ele>257</ele>
        <time>2010-01-01T02:00:37Z</time>
      </trkpt>
      <trkpt lat="47.68293" lon="5.96463">
        <ele>257</ele>
        <time>2010-01-01T02:00:39Z</time>
      </trkpt>
      <trkpt lat="47.68288" lon="5.96464">
        <ele>257</ele>
        <time>2010-01-01T02:00:41Z</time>
      </trkpt>
      <trkpt lat="47.68284" lon="5.96465">
        <ele>257</ele>
        <time>2010-01-01T02:00:42Z</time>
      </trkpt>
      <trkpt lat="47.6828" lon="5.96467">
        <ele>257</ele>
        <time>2010-01-01T02:00:44Z</time>
      </trkpt>
      <trkpt lat="47.68275" lon="5.96468">
        <ele>257</ele>
        <time>2010-01-01T02:00:46Z</time>
      </trkpt>
      <trkpt lat="47.68271" lon="5.96469">
        <ele>257</ele>
        <time>2010-01-01T02:00:48Z</time>
      </trkpt>
      <trkpt lat="47.68266" lon="5.9647">
        <ele>257</ele>
        <time>2010-01-01T02:00:50Z</time>
      </trkpt>
      <trkpt lat="47.68262" lon="5.96471">
        <ele>257</ele>
        <time>2010-01-01T02:00:51Z</time>
      </trkpt>
      <trkpt lat="47.68257" lon="5.96472">
        <ele>257</ele>
        <time>2010-01-01T02:00:53Z</time>
      </trkpt>
      <trkpt lat="47.68252" lon="5.96473">
        <ele>257</ele>
        <time>2010-01-01T02:00:55Z</time>
      </trkpt>
      <trkpt lat="47.68248" lon="5.96474">
        <ele>257</ele>
        <time>2010-01-01T02:00:57Z</time>
      </trkpt>
      <trkpt lat="47.68243" lon="5.96475">
        <ele>257</ele>
        <time>2010-01-01T02:00:59Z</time>
      </trkpt>
      <trkpt lat="47.68238" lon="5.96476">
        <ele>257</ele>
        <time>2010-01-01T02:01:01Z</time>
      </trkpt>
      <trkpt lat="47.68233" lon="5.96477">
        <ele>257</ele>
        <time>2010-01-01T02:01:03Z</time>
      </trkpt>
      <trkpt lat="47.68229" lon="5.96478">
        <ele>257</ele>
        <time>2010-01-01T02:01:05Z</time>
      </trkpt>
      <trkpt lat="47.68224" lon="5.9648">
        <ele>257</ele>
        <time>2010-01-01T02:01:07Z</time>
      </trkpt>
      <trkpt lat="47.68219" lon="5.96481">
        <ele>257</ele>
        <time>2010-01-01T02:01:09Z</time>
      </trkpt>
      <trkpt lat="47.68214" lon="5.96482">
        <ele>257</ele>
        <time>2010-01-01T02:01:11Z</time>
      </trkpt>
      <trkpt lat="47.68209" lon="5.96483">
        <ele>257</ele>
        <time>2010-01-01T02:01:13Z</time>
      </trkpt>
      <trkpt lat="47.68205" lon="5.96484">
        <ele>257</ele>
        <time>2010-01-01T02:01:15Z</time>
      </trkpt>
      <trkpt lat="47.682" lon="5.96485">
        <ele>257</ele>
        <time>2010-01-01T02:01:17Z</time>
      </trkpt>
      <trkpt lat="47.68195" lon="5.96486">
        <ele>257</ele>
        <time>2010-01-01T02:01:18Z</time>
      </trkpt>
      <trkpt lat="47.68191" lon="5.96487">
        <ele>257</ele>
        <time>2010-01-01T02:01:20Z</time>
      </trkpt>
      <trkpt lat="47.68186" lon="5.96488">
        <ele>257</ele>
        <time>2010-01-01T02:01:22Z</time>
      </trkpt>
      <trkpt lat="47.68181" lon="5.9649">
        <ele>257</ele>
        <time>2010-01-01T02:01:24Z</time>
      </trkpt>
      <trkpt lat="47.68176" lon="5.96491">
        <ele>257</ele>
        <time>2010-01-01T02:01:26Z</time>
      </trkpt>
      <trkpt lat="47.68172" lon="5.96492">
        <ele>257</ele>
        <time>2010-01-01T02:01:28Z</time>
      </trkpt>
      <trkpt lat="47.68168" lon="5.96493">
        <ele>257</ele>
        <time>2010-01-01T02:01:30Z</time>
      </trkpt>
      <trkpt lat="47.68163" lon="5.96494">
        <ele>257</ele>
        <time>2010-01-01T02:01:31Z</time>
      </trkpt>
      <trkpt lat="47.68159" lon="5.96495">
        <ele>257</ele>
        <time>2010-01-01T02:01:33Z</time>
      </trkpt>
      <trkpt lat="47.68155" lon="5.96496">
        <ele>257</ele>
        <time>2010-01-01T02:01:35Z</time>
      </trkpt>
      <trkpt lat="47.68151" lon="5.96497">
        <ele>257</ele>
        <time>2010-01-01T02:01:36Z</time>
      </trkpt>
      <trkpt lat="47.68147" lon="5.96498">
        <ele>257</ele>
        <time>2010-01-01T02:01:38Z</time>
      </trkpt>
      <trkpt lat="47.68143" lon="5.96499">
        <ele>257</ele>
        <time>2010-01-01T02:01:40Z</time>
      </trkpt>
      <trkpt lat="47.68139" lon="5.96499">
        <ele>257</ele>
        <time>2010-01-01T02:01:41Z</time>
      </trkpt>
      <trkpt lat="47.68135" lon="5.965">
        <ele>257</ele>
        <time>2010-01-01T02:01:43Z</time>
      </trkpt>
      <trkpt lat="47.68132" lon="5.96501">
        <ele>257</ele>
        <time>2010-01-01T02:01:44Z</time>
      </trkpt>
      <trkpt lat="47.68128" lon="5.96502">
        <ele>257</ele>
        <time>2010-01-01T02:01:46Z</time>
      </trkpt>
      <trkpt lat="47.68124" lon="5.96503">
        <ele>257</ele>
        <time>2010-01-01T02:01:47Z</time>
      </trkpt>
      <trkpt lat="47.6812" lon="5.96504">
        <ele>257</ele>
        <time>2010-01-01T02:01:49Z</time>
      </trkpt>
      <trkpt lat="47.68116" lon="5.96505">
        <ele>257</ele>
        <time>2010-01-01T02:01:50Z</time>
      </trkpt>
      <trkpt lat="47.68112" lon="5.96506">
        <ele>257</ele>
        <time>2010-01-01T02:01:52Z</time>
      </trkpt>
      <trkpt lat="47.68108" lon="5.96507">
        <ele>257</ele>
        <time>2010-01-01T02:01:54Z</time>
      </trkpt>
      <trkpt lat="47.68104" lon="5.96508">
        <ele>257</ele>
        <time>2010-01-01T02:01:55Z</time>
      </trkpt>
      <trkpt lat="47.681" lon="5.96509">
        <ele>257</ele>
        <time>2010-01-01T02:01:57Z</time>
      </trkpt>
      <trkpt lat="47.68096" lon="5.96511">
        <ele>257</ele>
        <time>2010-01-01T02:01:59Z</time>
      </trkpt>
      <trkpt lat="47.68092" lon="5.96512">
        <ele>257</ele>
        <time>2010-01-01T02:02:00Z</time>
      </trkpt>
      <trkpt lat="47.68088" lon="5.96513">
        <ele>257</ele>
        <time>2010-01-01T02:02:02Z</time>
      </trkpt>
      <trkpt lat="47.68084" lon="5.96515">
        <ele>257</ele>
        <time>2010-01-01T02:02:04Z</time>
      </trkpt>
      <trkpt lat="47.68079" lon="5.96516">
        <ele>257</ele>
        <time>2010-01-01T02:02:06Z</time>
      </trkpt>
      <trkpt lat="47.68075" lon="5.96517">
        <ele>257</ele>
        <time>2010-01-01T02:02:07Z</time>
      </trkpt>
      <trkpt lat="47.68071" lon="5.96519">
        <ele>257</ele>
        <time>2010-01-01T02:02:09Z</time>
      </trkpt>
      <trkpt lat="47.68066" lon="5.9652">
        <ele>257</ele>
        <time>2010-01-01T02:02:11Z</time>
      </trkpt>
      <trkpt lat="47.68062" lon="5.96521">
        <ele>257</ele>
        <time>2010-01-01T02:02:13Z</time>
      </trkpt>
      <trkpt lat="47.68057" lon="5.96522">
        <ele>257</ele>
        <time>2010-01-01T02:02:14Z</time>
      </trkpt>
      <trkpt lat="47.68053" lon="5.96523">
        <ele>257</ele>
        <time>2010-01-01T02:02:16Z</time>
      </trkpt>
      <trkpt lat="47.68048" lon="5.96523">
        <ele>257</ele>
        <time>2010-01-01T02:02:18Z</time>
      </trkpt>
      <trkpt lat="47.68042" lon="5.96524">
        <ele>257</ele>
        <time>2010-01-01T02:02:21Z</time>
      </trkpt>
      <trkpt lat="47.68037" lon="5.96526">
        <ele>256</ele>
        <time>2010-01-01T02:02:23Z</time>
      </trkpt>
      <trkpt lat="47.68032" lon="5.96529">
        <ele>255</ele>
        <time>2010-01-01T02:02:25Z</time>
      </trkpt>
      <trkpt lat="47.68027" lon="5.96531">
        <ele>255</ele>
        <time>2010-01-01T02:02:27Z</time>
      </trkpt>
      <trkpt lat="47.68022" lon="5.96533">
        <ele>255</ele>
        <time>2010-01-01T02:02:29Z</time>
      </trkpt>
      <trkpt lat="47.68016" lon="5.96535">
        <ele>255</ele>
        <time>2010-01-01T02:02:31Z</time>
      </trkpt>
      <trkpt lat="47.68011" lon="5.96536">
        <ele>255</ele>
        <time>2010-01-01T02:02:34Z</time>
      </trkpt>
      <trkpt lat="47.68005" lon="5.96537">
        <ele>254</ele>
        <time>2010-01-01T02:02:36Z</time>
      </trkpt>
      <trkpt lat="47.67999" lon="5.96539">
        <ele>254</ele>
        <time>2010-01-01T02:02:38Z</time>
      </trkpt>
      <trkpt lat="47.67994" lon="5.96541">
        <ele>253</ele>
        <time>2010-01-01T02:02:40Z</time>
      </trkpt>
      <trkpt lat="47.67988" lon="5.96543">
        <ele>253</ele>
        <time>2010-01-01T02:02:43Z</time>
      </trkpt>
      <trkpt lat="47.67983" lon="5.96545">
        <ele>253</ele>
        <time>2010-01-01T02:02:45Z</time>
      </trkpt>
      <trkpt lat="47.67977" lon="5.96547">
        <ele>253</ele>
        <time>2010-01-01T02:02:47Z</time>
      </trkpt>
      <trkpt lat="47.67971" lon="5.96549">
        <ele>253</ele>
        <time>2010-01-01T02:02:50Z</time>
      </trkpt>
      <trkpt lat="47.67966" lon="5.96551">
        <ele>253</ele>
        <time>2010-01-01T02:02:52Z</time>
      </trkpt>
      <trkpt lat="47.6796" lon="5.96554">
        <ele>252</ele>
        <time>2010-01-01T02:02:54Z</time>
      </trkpt>
      <trkpt lat="47.67955" lon="5.96556">
        <ele>252</ele>
        <time>2010-01-01T02:02:57Z</time>
      </trkpt>
      <trkpt lat="47.67949" lon="5.96558">
        <ele>251</ele>
        <time>2010-01-01T02:02:59Z</time>
      </trkpt>
      <trkpt lat="47.67942" lon="5.9656">
        <ele>251</ele>
        <time>2010-01-01T02:03:02Z</time>
      </trkpt>
      <trkpt lat="47.67936" lon="5.96563">
        <ele>250</ele>
        <time>2010-01-01T02:03:04Z</time>
      </trkpt>
      <trkpt lat="47.6793" lon="5.96565">
        <ele>250</ele>
        <time>2010-01-01T02:03:07Z</time>
      </trkpt>
      <trkpt lat="47.67924" lon="5.96568">
        <ele>250</ele>
        <time>2010-01-01T02:03:09Z</time>
      </trkpt>
      <trkpt lat="47.67917" lon="5.9657">
        <ele>249</ele>
        <time>2010-01-01T02:03:12Z</time>
      </trkpt>
      <trkpt lat="47.67911" lon="5.96574">
        <ele>249</ele>
        <time>2010-01-01T02:03:15Z</time>
      </trkpt>
      <trkpt lat="47.67904" lon="5.96577">
        <ele>249</ele>
        <time>2010-01-01T02:03:18Z</time>
      </trkpt>
      <trkpt lat="47.67898" lon="5.9658">
        <ele>248</ele>
        <time>2010-01-01T02:03:20Z</time>
      </trkpt>
      <trkpt lat="47.67891" lon="5.96582">
        <ele>248</ele>
        <time>2010-01-01T02:03:23Z</time>
      </trkpt>
      <trkpt lat="47.67884" lon="5.96583">
        <ele>247</ele>
        <time>2010-01-01T02:03:26Z</time>
      </trkpt>
      <trkpt lat="47.67877" lon="5.96583">
        <ele>246</ele>
        <time>2010-01-01T02:03:29Z</time>
      </trkpt>
      <trkpt lat="47.67871" lon="5.96581">
        <ele>246</ele>
        <time>2010-01-01T02:03:31Z</time>
      </trkpt>
      <trkpt lat="47.67866" lon="5.96577">
        <ele>246</ele>
        <time>2010-01-01T02:03:34Z</time>
      </trkpt>
      <trkpt lat="47.67861" lon="5.96572">
        <ele>246</ele>
        <time>2010-01-01T02:03:36Z</time>
      </trkpt>
      <trkpt lat="47.67856" lon="5.96567">
        <ele>246</ele>
        <time>2010-01-01T02:03:38Z</time>
      </trkpt>
      <trkpt lat="47.67851" lon="5.96562">
        <ele>246</ele>
        <time>2010-01-01T02:03:40Z</time>
      </trkpt>
      <trkpt lat="47.67847" lon="5.96558">
        <ele>246</ele>
        <time>2010-01-01T02:03:43Z</time>
      </trkpt>
      <trkpt lat="47.67844" lon="5.96553">
        <ele>246</ele>
        <time>2010-01-01T02:03:44Z</time>
      </trkpt>
      <trkpt lat="47.67839" lon="5.96549">
        <ele>246</ele>
        <time>2010-01-01T02:03:46Z</time>
      </trkpt>
      <trkpt lat="47.67836" lon="5.96546">
        <ele>246</ele>
        <time>2010-01-01T02:03:48Z</time>
      </trkpt>
      <trkpt lat="47.67833" lon="5.96544">
        <ele>246</ele>
        <time>2010-01-01T02:03:49Z</time>
      </trkpt>
      <trkpt lat="47.6783" lon="5.96541">
        <ele>246</ele>
        <time>2010-01-01T02:03:51Z</time>
      </trkpt>
      <trkpt lat="47.67826" lon="5.96539">
        <ele>246</ele>
        <time>2010-01-01T02:03:52Z</time>
      </trkpt>
      <trkpt lat="47.67823" lon="5.96537">
        <ele>246</ele>
        <time>2010-01-01T02:03:54Z</time>
      </trkpt>
      <trkpt lat="47.67819" lon="5.96534">
        <ele>246</ele>
        <time>2010-01-01T02:03:56Z</time>
      </trkpt>
      <trkpt lat="47.67815" lon="5.96531">
        <ele>246</ele>
        <time>2010-01-01T02:03:57Z</time>
      </trkpt>
      <trkpt lat="47.67811" lon="5.96529">
        <ele>246</ele>
        <time>2010-01-01T02:03:59Z</time>
      </trkpt>
      <trkpt lat="47.67807" lon="5.96526">
        <ele>246</ele>
        <time>2010-01-01T02:04:01Z</time>
      </trkpt>
      <trkpt lat="47.67803" lon="5.96524">
        <ele>246</ele>
        <time>2010-01-01T02:04:03Z</time>
      </trkpt>
      <trkpt lat="47.67799" lon="5.96522">
        <ele>246</ele>
        <time>2010-01-01T02:04:04Z</time>
      </trkpt>
      <trkpt lat="47.67796" lon="5.9652">
        <ele>246</ele>
        <time>2010-01-01T02:04:06Z</time>
      </trkpt>
      <trkpt lat="47.67792" lon="5.96517">
        <ele>246</ele>
        <time>2010-01-01T02:04:07Z</time>
      </trkpt>
      <trkpt lat="47.67789" lon="5.96515">
        <ele>246</ele>
        <time>2010-01-01T02:04:09Z</time>
      </trkpt>
      <trkpt lat="47.67785" lon="5.96513">
        <ele>246</ele>
        <time>2010-01-01T02:04:10Z</time>
      </trkpt>
      <trkpt lat="47.67781" lon="5.9651">
        <ele>246</ele>
        <time>2010-01-01T02:04:12Z</time>
      </trkpt>
      <trkpt lat="47.67778" lon="5.96508">
        <ele>246</ele>
        <time>2010-01-01T02:04:14Z</time>
      </trkpt>
      <trkpt lat="47.67774" lon="5.96505">
        <ele>246</ele>
        <time>2010-01-01T02:04:15Z</time>
      </trkpt>
      <trkpt lat="47.6777" lon="5.96501">
        <ele>246</ele>
        <time>2010-01-01T02:04:17Z</time>
      </trkpt>
      <trkpt lat="47.67766" lon="5.96498">
        <ele>246</ele>
        <time>2010-01-01T02:04:19Z</time>
      </trkpt>
      <trkpt lat="47.67762" lon="5.96494">
        <ele>246</ele>
        <time>2010-01-01T02:04:21Z</time>
      </trkpt>
      <trkpt lat="47.67758" lon="5.96491">
        <ele>246</ele>
        <time>2010-01-01T02:04:23Z</time>
      </trkpt>
      <trkpt lat="47.67754" lon="5.96487">
        <ele>246</ele>
        <time>2010-01-01T02:04:25Z</time>
      </trkpt>
      <trkpt lat="47.6775" lon="5.96483">
        <ele>246</ele>
        <time>2010-01-01T02:04:26Z</time>
      </trkpt>
      <trkpt lat="47.67746" lon="5.9648">
        <ele>246</ele>
        <time>2010-01-01T02:04:28Z</time>
      </trkpt>
      <trkpt lat="47.67742" lon="5.96476">
        <ele>246</ele>
        <time>2010-01-01T02:04:30Z</time>
      </trkpt>
      <trkpt lat="47.67738" lon="5.96472">
        <ele>246</ele>
        <time>2010-01-01T02:04:32Z</time>
      </trkpt>
      <trkpt lat="47.67733" lon="5.96469">
        <ele>246</ele>
        <time>2010-01-01T02:04:34Z</time>
      </trkpt>
      <trkpt lat="47.67729" lon="5.96465">
        <ele>246</ele>
        <time>2010-01-01T02:04:36Z</time>
      </trkpt>
      <trkpt lat="47.67725" lon="5.96462">
        <ele>246</ele>
        <time>2010-01-01T02:04:38Z</time>
      </trkpt>
      <trkpt lat="47.6772" lon="5.96459">
        <ele>246</ele>
        <time>2010-01-01T02:04:40Z</time>
      </trkpt>
      <trkpt lat="47.67715" lon="5.96456">
        <ele>246</ele>
        <time>2010-01-01T02:04:42Z</time>
      </trkpt>
      <trkpt lat="47.67711" lon="5.96453">
        <ele>246</ele>
        <time>2010-01-01T02:04:44Z</time>
      </trkpt>
      <trkpt lat="47.67706" lon="5.9645">
        <ele>246</ele>
        <time>2010-01-01T02:04:46Z</time>
      </trkpt>
      <trkpt lat="47.67701" lon="5.96448">
        <ele>246</ele>
        <time>2010-01-01T02:04:48Z</time>
      </trkpt>
      <trkpt lat="47.67697" lon="5.96446">
        <ele>246</ele>
        <time>2010-01-01T02:04:50Z</time>
      </trkpt>
      <trkpt lat="47.67692" lon="5.96444">
        <ele>246</ele>
        <time>2010-01-01T02:04:52Z</time>
      </trkpt>
      <trkpt lat="47.67687" lon="5.96442">
        <ele>246</ele>
        <time>2010-01-01T02:04:54Z</time>
      </trkpt>
      <trkpt lat="47.67683" lon="5.9644">
        <ele>246</ele>
        <time>2010-01-01T02:04:56Z</time>
      </trkpt>
      <trkpt lat="47.67678" lon="5.96438">
        <ele>246</ele>
        <time>2010-01-01T02:04:58Z</time>
      </trkpt>
      <trkpt lat="47.67673" lon="5.96436">
        <ele>246</ele>
        <time>2010-01-01T02:05:00Z</time>
      </trkpt>
      <trkpt lat="47.67669" lon="5.96434">
        <ele>246</ele>
        <time>2010-01-01T02:05:02Z</time>
      </trkpt>
      <trkpt lat="47.67664" lon="5.96433">
        <ele>246</ele>
        <time>2010-01-01T02:05:04Z</time>
      </trkpt>
      <trkpt lat="47.6766" lon="5.96431">
        <ele>246</ele>
        <time>2010-01-01T02:05:05Z</time>
      </trkpt>
      <trkpt lat="47.67655" lon="5.9643">
        <ele>246</ele>
        <time>2010-01-01T02:05:07Z</time>
      </trkpt>
      <trkpt lat="47.67651" lon="5.96428">
        <ele>246</ele>
        <time>2010-01-01T02:05:09Z</time>
      </trkpt>
      <trkpt lat="47.67647" lon="5.96427">
        <ele>246</ele>
        <time>2010-01-01T02:05:11Z</time>
      </trkpt>
      <trkpt lat="47.67643" lon="5.96427">
        <ele>246</ele>
        <time>2010-01-01T02:05:12Z</time>
      </trkpt>
      <trkpt lat="47.67638" lon="5.96426">
        <ele>246</ele>
        <time>2010-01-01T02:05:14Z</time>
      </trkpt>
      <trkpt lat="47.67634" lon="5.96426">
        <ele>246</ele>
        <time>2010-01-01T02:05:16Z</time>
      </trkpt>
      <trkpt lat="47.6763" lon="5.96426">
        <ele>246</ele>
        <time>2010-01-01T02:05:17Z</time>
      </trkpt>
      <trkpt lat="47.67626" lon="5.96427">
        <ele>246</ele>
        <time>2010-01-01T02:05:19Z</time>
      </trkpt>
      <trkpt lat="47.67622" lon="5.96427">
        <ele>246</ele>
        <time>2010-01-01T02:05:21Z</time>
      </trkpt>
      <trkpt lat="47.67618" lon="5.96428">
        <ele>246</ele>
        <time>2010-01-01T02:05:22Z</time>
      </trkpt>
      <trkpt lat="47.67614" lon="5.96429">
        <ele>246</ele>
        <time>2010-01-01T02:05:24Z</time>
      </trkpt>
      <trkpt lat="47.6761" lon="5.9643">
        <ele>246</ele>
        <time>2010-01-01T02:05:26Z</time>
      </trkpt>
      <trkpt lat="47.67606" lon="5.96432">
        <ele>246</ele>
        <time>2010-01-01T02:05:27Z</time>
      </trkpt>
      <trkpt lat="47.67601" lon="5.96434">
        <ele>246</ele>
        <time>2010-01-01T02:05:29Z</time>
      </trkpt>
      <trkpt lat="47.67597" lon="5.96437">
        <ele>246</ele>
        <time>2010-01-01T02:05:31Z</time>
      </trkpt>
      <trkpt lat="47.67593" lon="5.96439">
        <ele>246</ele>
        <time>2010-01-01T02:05:33Z</time>
      </trkpt>
      <trkpt lat="47.67589" lon="5.96442">
        <ele>246</ele>
        <time>2010-01-01T02:05:35Z</time>
      </trkpt>
      <trkpt lat="47.67585" lon="5.96445">
        <ele>246</ele>
        <time>2010-01-01T02:05:37Z</time>
      </trkpt>
      <trkpt lat="47.67581" lon="5.96448">
        <ele>246</ele>
        <time>2010-01-01T02:05:38Z</time>
      </trkpt>
      <trkpt lat="47.67577" lon="5.96451">
        <ele>246</ele>
        <time>2010-01-01T02:05:40Z</time>
      </trkpt>
      <trkpt lat="47.67573" lon="5.96454">
        <ele>246</ele>
        <time>2010-01-01T02:05:42Z</time>
      </trkpt>
      <trkpt lat="47.67568" lon="5.96457">
        <ele>246</ele>
        <time>2010-01-01T02:05:44Z</time>
      </trkpt>
      <trkpt lat="47.67564" lon="5.96461">
        <ele>246</ele>
        <time>2010-01-01T02:05:46Z</time>
      </trkpt>
      <trkpt lat="47.67559" lon="5.96464">
        <ele>246</ele>
        <time>2010-01-01T02:05:48Z</time>
      </trkpt>
      <trkpt lat="47.67554" lon="5.96468">
        <ele>246</ele>
        <time>2010-01-01T02:05:50Z</time>
      </trkpt>
      <trkpt lat="47.67549" lon="5.96472">
        <ele>246</ele>
        <time>2010-01-01T02:05:53Z</time>
      </trkpt>
      <trkpt lat="47.67543" lon="5.96475">
        <ele>246</ele>
        <time>2010-01-01T02:05:55Z</time>
      </trkpt>
      <trkpt lat="47.67538" lon="5.96479">
        <ele>246</ele>
        <time>2010-01-01T02:05:57Z</time>
      </trkpt>
      <trkpt lat="47.67532" lon="5.96482">
        <ele>246</ele>
        <time>2010-01-01T02:06:00Z</time>
      </trkpt>
      <trkpt lat="47.67527" lon="5.96485">
        <ele>245</ele>
        <time>2010-01-01T02:06:02Z</time>
      </trkpt>
      <trkpt lat="47.67521" lon="5.96489">
        <ele>245</ele>
        <time>2010-01-01T02:06:05Z</time>
      </trkpt>
      <trkpt lat="47.67515" lon="5.96492">
        <ele>244</ele>
        <time>2010-01-01T02:06:07Z</time>
      </trkpt>
      <trkpt lat="47.67509" lon="5.96495">
        <ele>244</ele>
        <time>2010-01-01T02:06:10Z</time>
      </trkpt>
      <trkpt lat="47.67503" lon="5.96498">
        <ele>244</ele>
        <time>2010-01-01T02:06:12Z</time>
      </trkpt>
      <trkpt lat="47.67497" lon="5.965">
        <ele>244</ele>
        <time>2010-01-01T02:06:15Z</time>
      </trkpt>
      <trkpt lat="47.67491" lon="5.96503">
        <ele>243</ele>
        <time>2010-01-01T02:06:17Z</time>
      </trkpt>
      <trkpt lat="47.67485" lon="5.96505">
        <ele>243</ele>
        <time>2010-01-01T02:06:20Z</time>
      </trkpt>
      <trkpt lat="47.67479" lon="5.96507">
        <ele>242</ele>
        <time>2010-01-01T02:06:22Z</time>
      </trkpt>
      <trkpt lat="47.67472" lon="5.96509">
        <ele>242</ele>
        <time>2010-01-01T02:06:25Z</time>
      </trkpt>
      <trkpt lat="47.67465" lon="5.9651">
        <ele>242</ele>
        <time>2010-01-01T02:06:28Z</time>
      </trkpt>
      <trkpt lat="47.67458" lon="5.96511">
        <ele>241</ele>
        <time>2010-01-01T02:06:31Z</time>
      </trkpt>
      <trkpt lat="47.67451" lon="5.96512">
        <ele>241</ele>
        <time>2010-01-01T02:06:34Z</time>
      </trkpt>
      <trkpt lat="47.67444" lon="5.96513">
        <ele>240</ele>
        <time>2010-01-01T02:06:36Z</time>
      </trkpt>
      <trkpt lat="47.67436" lon="5.96515">
        <ele>240</ele>
        <time>2010-01-01T02:06:39Z</time>
      </trkpt>
      <trkpt lat="47.67429" lon="5.96517">
        <ele>239</ele>
        <time>2010-01-01T02:06:43Z</time>
      </trkpt>
      <trkpt lat="47.67421" lon="5.96521">
        <ele>239</ele>
        <time>2010-01-01T02:06:46Z</time>
      </trkpt>
      <trkpt lat="47.67414" lon="5.96525">
        <ele>238</ele>
        <time>2010-01-01T02:06:49Z</time>
      </trkpt>
      <trkpt lat="47.67407" lon="5.96531">
        <ele>238</ele>
        <time>2010-01-01T02:06:52Z</time>
      </trkpt>
      <trkpt lat="47.674" lon="5.96537">
        <ele>237</ele>
        <time>2010-01-01T02:06:55Z</time>
      </trkpt>
      <trkpt lat="47.67394" lon="5.96544">
        <ele>237</ele>
        <time>2010-01-01T02:06:58Z</time>
      </trkpt>
      <trkpt lat="47.67388" lon="5.96551">
        <ele>236</ele>
        <time>2010-01-01T02:07:01Z</time>
      </trkpt>
      <trkpt lat="47.67381" lon="5.96558">
        <ele>236</ele>
        <time>2010-01-01T02:07:05Z</time>
      </trkpt>
      <trkpt lat="47.67375" lon="5.96565">
        <ele>235</ele>
        <time>2010-01-01T02:07:08Z</time>
      </trkpt>
      <trkpt lat="47.67368" lon="5.96571">
        <ele>235</ele>
        <time>2010-01-01T02:07:11Z</time>
      </trkpt>
      <trkpt lat="47.67361" lon="5.96577">
        <ele>235</ele>
        <time>2010-01-01T02:07:14Z</time>
      </trkpt>
      <trkpt lat="47.67354" lon="5.96582">
        <ele>234</ele>
        <time>2010-01-01T02:07:18Z</time>
      </trkpt>
      <trkpt lat="47.67346" lon="5.96586">
        <ele>234</ele>
        <time>2010-01-01T02:07:21Z</time>
      </trkpt>
      <trkpt lat="47.67339" lon="5.96589">
        <ele>233</ele>
        <time>2010-01-01T02:07:24Z</time>
      </trkpt>
      <trkpt lat="47.67331" lon="5.96591">
        <ele>233</ele>
        <time>2010-01-01T02:07:27Z</time>
      </trkpt>
      <trkpt lat="47.67323" lon="5.96593">
        <ele>233</ele>
        <time>2010-01-01T02:07:30Z</time>
      </trkpt>
      <trkpt lat="47.67316" lon="5.96594">
        <ele>232</ele>
        <time>2010-01-01T02:07:33Z</time>
      </trkpt>
      <trkpt lat="47.67309" lon="5.96595">
        <ele>232</ele>
        <time>2010-01-01T02:07:36Z</time>
      </trkpt>
      <trkpt lat="47.67303" lon="5.96596">
        <ele>231</ele>
        <time>2010-01-01T02:07:38Z</time>
      </trkpt>
      <trkpt lat="47.67297" lon="5.96597">
        <ele>231</ele>
        <time>2010-01-01T02:07:41Z</time>
      </trkpt>
      <trkpt lat="47.67292" lon="5.96598">
        <ele>230</ele>
        <time>2010-01-01T02:07:43Z</time>
      </trkpt>
      <trkpt lat="47.67288" lon="5.96598">
        <ele>230</ele>
        <time>2010-01-01T02:07:44Z</time>
      </trkpt>
      <trkpt lat="47.67284" lon="5.96599">
        <ele>230</ele>
        <time>2010-01-01T02:07:46Z</time>
      </trkpt>
      <trkpt lat="47.6728" lon="5.96599">
        <ele>230</ele>
        <time>2010-01-01T02:07:47Z</time>
      </trkpt>
      <trkpt lat="47.67277" lon="5.966">
        <ele>230</ele>
        <time>2010-01-01T02:07:49Z</time>
      </trkpt>
      <trkpt lat="47.67274" lon="5.966">
        <ele>229</ele>
        <time>2010-01-01T02:07:50Z</time>
      </trkpt>
      <trkpt lat="47.67271" lon="5.96601">
        <ele>229</ele>
        <time>2010-01-01T02:07:51Z</time>
      </trkpt>
      <trkpt lat="47.67268" lon="5.96602">
        <ele>228</ele>
        <time>2010-01-01T02:07:52Z</time>
      </trkpt>
      <trkpt lat="47.67265" lon="5.96602">
        <ele>228</ele>
        <time>2010-01-01T02:07:54Z</time>
      </trkpt>
      <trkpt lat="47.67261" lon="5.96603">
        <ele>228</ele>
        <time>2010-01-01T02:07:55Z</time>
      </trkpt>
      <trkpt lat="47.67258" lon="5.96603">
        <ele>228</ele>
        <time>2010-01-01T02:07:56Z</time>
      </trkpt>
      <trkpt lat="47.67254" lon="5.96602">
        <ele>228</ele>
        <time>2010-01-01T02:07:58Z</time>
      </trkpt>
      <trkpt lat="47.67251" lon="5.96601">
        <ele>228</ele>
        <time>2010-01-01T02:07:59Z</time>
      </trkpt>
      <trkpt lat="47.67247" lon="5.96601">
        <ele>227</ele>
        <time>2010-01-01T02:08:01Z</time>
      </trkpt>
      <trkpt lat="47.67244" lon="5.966">
        <ele>227</ele>
        <time>2010-01-01T02:08:02Z</time>
      </trkpt>
      <trkpt lat="47.6724" lon="5.96599">
        <ele>227</ele>
        <time>2010-01-01T02:08:03Z</time>
      </trkpt>
      <trkpt lat="47.67237" lon="5.96598">
        <ele>226</ele>
        <time>2010-01-01T02:08:05Z</time>
      </trkpt>
      <trkpt lat="47.67234" lon="5.96597">
        <ele>226</ele>
        <time>2010-01-01T02:08:06Z</time>
      </trkpt>
      <trkpt lat="47.6723" lon="5.96596">
        <ele>226</ele>
        <time>2010-01-01T02:08:08Z</time>
      </trkpt>
      <trkpt lat="47.67227" lon="5.96595">
        <ele>226</ele>
        <time>2010-01-01T02:08:09Z</time>
      </trkpt>
      <trkpt lat="47.67224" lon="5.96594">
        <ele>226</ele>
        <time>2010-01-01T02:08:10Z</time>
      </trkpt>
      <trkpt lat="47.6722" lon="5.96592">
        <ele>226</ele>
        <time>2010-01-01T02:08:12Z</time>
      </trkpt>
      <trkpt lat="47.67217" lon="5.96591">
        <ele>226</ele>
        <time>2010-01-01T02:08:13Z</time>
      </trkpt>
      <trkpt lat="47.67214" lon="5.9659">
        <ele>226</ele>
        <time>2010-01-01T02:08:14Z</time>
      </trkpt>
      <trkpt lat="47.67211" lon="5.96589">
        <ele>226</ele>
        <time>2010-01-01T02:08:16Z</time>
      </trkpt>
      <trkpt lat="47.67208" lon="5.96588">
        <ele>226</ele>
        <time>2010-01-01T02:08:17Z</time>
      </trkpt>
      <trkpt lat="47.67204" lon="5.96587">
        <ele>226</ele>
        <time>2010-01-01T02:08:18Z</time>
      </trkpt>
      <trkpt lat="47.67201" lon="5.96587">
        <ele>225</ele>
        <time>2010-01-01T02:08:19Z</time>
      </trkpt>
      <trkpt lat="47.67198" lon="5.96585">
        <ele>225</ele>
        <time>2010-01-01T02:08:21Z</time>
      </trkpt>
      <trkpt lat="47.67195" lon="5.96584">
        <ele>225</ele>
        <time>2010-01-01T02:08:22Z</time>
      </trkpt>
      <trkpt lat="47.67192" lon="5.96583">
        <ele>224</ele>
        <time>2010-01-01T02:08:23Z</time>
      </trkpt>
      <trkpt lat="47.67189" lon="5.96583">
        <ele>224</ele>
        <time>2010-01-01T02:08:25Z</time>
      </trkpt>
      <trkpt lat="47.67186" lon="5.96582">
        <ele>224</ele>
        <time>2010-01-01T02:08:26Z</time>
      </trkpt>
      <trkpt lat="47.67183" lon="5.96581">
        <ele>224</ele>
        <time>2010-01-01T02:08:27Z</time>
      </trkpt>
      <trkpt lat="47.6718" lon="5.96579">
        <ele>224</ele>
        <time>2010-01-01T02:08:28Z</time>
      </trkpt>
      <trkpt lat="47.67177" lon="5.96579">
        <ele>224</ele>
        <time>2010-01-01T02:08:29Z</time>
      </trkpt>
      <trkpt lat="47.67174" lon="5.96579">
        <ele>224</ele>
        <time>2010-01-01T02:08:31Z</time>
      </trkpt>
      <trkpt lat="47.67171" lon="5.96578">
        <ele>224</ele>
        <time>2010-01-01T02:08:32Z</time>
      </trkpt>
      <trkpt lat="47.67168" lon="5.96578">
        <ele>224</ele>
        <time>2010-01-01T02:08:33Z</time>
      </trkpt>
      <trkpt lat="47.67165" lon="5.96577">
        <ele>224</ele>
        <time>2010-01-01T02:08:34Z</time>
      </trkpt>
      <trkpt lat="47.67162" lon="5.96576">
        <ele>224</ele>
        <time>2010-01-01T02:08:36Z</time>
      </trkpt>
      <trkpt lat="47.67159" lon="5.96576">
        <ele>223</ele>
        <time>2010-01-01T02:08:37Z</time>
      </trkpt>
      <trkpt lat="47.67156" lon="5.96576">
        <ele>223</ele>
        <time>2010-01-01T02:08:38Z</time>
      </trkpt>
      <trkpt lat="47.67153" lon="5.96575">
        <ele>223</ele>
        <time>2010-01-01T02:08:39Z</time>
      </trkpt>
      <trkpt lat="47.6715" lon="5.96575">
        <ele>222</ele>
        <time>2010-01-01T02:08:40Z</time>
      </trkpt>
      <trkpt lat="47.67148" lon="5.96574">
        <ele>222</ele>
        <time>2010-01-01T02:08:41Z</time>
      </trkpt>
      <trkpt lat="47.67145" lon="5.96572">
        <ele>222</ele>
        <time>2010-01-01T02:08:42Z</time>
      </trkpt>
      <trkpt lat="47.67143" lon="5.96572">
        <ele>222</ele>
        <time>2010-01-01T02:08:43Z</time>
      </trkpt>
      <trkpt lat="47.67141" lon="5.9657">
        <ele>222</ele>
        <time>2010-01-01T02:08:44Z</time>
      </trkpt>
      <trkpt lat="47.67138" lon="5.96569">
        <ele>222</ele>
        <time>2010-01-01T02:08:45Z</time>
      </trkpt>
      <trkpt lat="47.67136" lon="5.96568">
        <ele>222</ele>
        <time>2010-01-01T02:08:46Z</time>
      </trkpt>
      <trkpt lat="47.67133" lon="5.96566">
        <ele>222</ele>
        <time>2010-01-01T02:08:48Z</time>
      </trkpt>
      <trkpt lat="47.67129" lon="5.96564">
        <ele>222</ele>
        <time>2010-01-01T02:08:49Z</time>
      </trkpt>
      <trkpt lat="47.67126" lon="5.96562">
        <ele>222</ele>
        <time>2010-01-01T02:08:50Z</time>
      </trkpt>
      <trkpt lat="47.67122" lon="5.9656">
        <ele>222</ele>
        <time>2010-01-01T02:08:52Z</time>
      </trkpt>
      <trkpt lat="47.67119" lon="5.96559">
        <ele>221</ele>
        <time>2010-01-01T02:08:53Z</time>
      </trkpt>
      <trkpt lat="47.67116" lon="5.96557">
        <ele>220</ele>
        <time>2010-01-01T02:08:55Z</time>
      </trkpt>
      <trkpt lat="47.67113" lon="5.96555">
        <ele>220</ele>
        <time>2010-01-01T02:08:56Z</time>
      </trkpt>
      <trkpt lat="47.6711" lon="5.96553">
        <ele>220</ele>
        <time>2010-01-01T02:08:57Z</time>
      </trkpt>
      <trkpt lat="47.67107" lon="5.96551">
        <ele>220</ele>
        <time>2010-01-01T02:08:59Z</time>
      </trkpt>
      <trkpt lat="47.67103" lon="5.96549">
        <ele>220</ele>
        <time>2010-01-01T02:09:00Z</time>
      </trkpt>
      <trkpt lat="47.67099" lon="5.96546">
        <ele>220</ele>
        <time>2010-01-01T02:09:02Z</time>
      </trkpt>
      <trkpt lat="47.67095" lon="5.96544">
        <ele>220</ele>
        <time>2010-01-01T02:09:04Z</time>
      </trkpt>
      <trkpt lat="47.67092" lon="5.96541">
        <ele>220</ele>
        <time>2010-01-01T02:09:05Z</time>
      </trkpt>
      <trkpt lat="47.67088" lon="5.96538">
        <ele>220</ele>
        <time>2010-01-01T02:09:07Z</time>
      </trkpt>
      <trkpt lat="47.67084" lon="5.96535">
        <ele>219</ele>
        <time>2010-01-01T02:09:09Z</time>
      </trkpt>
      <trkpt lat="47.6708" lon="5.96532">
        <ele>219</ele>
        <time>2010-01-01T02:09:11Z</time>
      </trkpt>
      <trkpt lat="47.67076" lon="5.96529">
        <ele>218</ele>
        <time>2010-01-01T02:09:12Z</time>
      </trkpt>
      <trkpt lat="47.67072" lon="5.96527">
        <ele>218</ele>
        <time>2010-01-01T02:09:14Z</time>
      </trkpt>
      <trkpt lat="47.67068" lon="5.96524">
        <ele>218</ele>
        <time>2010-01-01T02:09:16Z</time>
      </trkpt>
      <trkpt lat="47.67065" lon="5.96521">
        <ele>218</ele>
        <time>2010-01-01T02:09:17Z</time>
      </trkpt>
      <trkpt lat="47.67061" lon="5.96519">
        <ele>218</ele>
        <time>2010-01-01T02:09:19Z</time>
      </trkpt>
      <trkpt lat="47.67056" lon="5.96517">
        <ele>218</ele>
        <time>2010-01-01T02:09:21Z</time>
      </trkpt>
      <trkpt lat="47.67052" lon="5.96515">
        <ele>218</ele>
        <time>2010-01-01T02:09:23Z</time>
      </trkpt>
      <trkpt lat="47.67048" lon="5.96512">
        <ele>218</ele>
        <time>2010-01-01T02:09:24Z</time>
      </trkpt>
      <trkpt lat="47.67044" lon="5.9651">
        <ele>218</ele>
        <time>2010-01-01T02:09:26Z</time>
      </trkpt>
      <trkpt lat="47.6704" lon="5.96508">
        <ele>218</ele>
        <time>2010-01-01T02:09:28Z</time>
      </trkpt>
      <trkpt lat="47.67036" lon="5.96505">
        <ele>217</ele>
        <time>2010-01-01T02:09:30Z</time>
      </trkpt>
      <trkpt lat="47.67032" lon="5.96503">
        <ele>217</ele>
        <time>2010-01-01T02:09:31Z</time>
      </trkpt>
      <trkpt lat="47.67029" lon="5.96501">
        <ele>216</ele>
        <time>2010-01-01T02:09:33Z</time>
      </trkpt>
      <trkpt lat="47.67026" lon="5.96499">
        <ele>216</ele>
        <time>2010-01-01T02:09:34Z</time>
      </trkpt>
      <trkpt lat="47.67023" lon="5.96498">
        <ele>216</ele>
        <time>2010-01-01T02:09:35Z</time>
      </trkpt>
      <trkpt lat="47.67021" lon="5.96496">
        <ele>216</ele>
        <time>2010-01-01T02:09:36Z</time>
      </trkpt>
      <trkpt lat="47.6702" lon="5.96495">
        <ele>216</ele>
        <time>2010-01-01T02:09:37Z</time>
      </trkpt>
      <trkpt lat="47.67018" lon="5.96493">
        <ele>216</ele>
        <time>2010-01-01T02:09:38Z</time>
      </trkpt>
      <trkpt lat="47.67017" lon="5.96489">
        <ele>216</ele>
        <time>2010-01-01T02:09:39Z</time>
      </trkpt>
      <trkpt lat="47.67016" lon="5.96485">
        <ele>216</ele>
        <time>2010-01-01T02:09:40Z</time>
      </trkpt>
      <trkpt lat="47.67017" lon="5.96481">
        <ele>216</ele>
        <time>2010-01-01T02:09:41Z</time>
      </trkpt>
      <trkpt lat="47.67019" lon="5.96477">
        <ele>216</ele>
        <time>2010-01-01T02:09:42Z</time>
      </trkpt>
      <trkpt lat="47.6702" lon="5.96473">
        <ele>216</ele>
        <time>2010-01-01T02:09:44Z</time>
      </trkpt>
      <trkpt lat="47.67022" lon="5.96469">
        <ele>216</ele>
        <time>2010-01-01T02:09:45Z</time>
      </trkpt>
      <trkpt lat="47.67023" lon="5.96465">
        <ele>216</ele>
        <time>2010-01-01T02:09:46Z</time>
      </trkpt>
      <trkpt lat="47.67024" lon="5.96461">
        <ele>216</ele>
        <time>2010-01-01T02:09:47Z</time>
      </trkpt>
      <trkpt lat="47.67026" lon="5.96458">
        <ele>216</ele>
        <time>2010-01-01T02:09:48Z</time>
      </trkpt>
      <trkpt lat="47.67027" lon="5.96456">
        <ele>216</ele>
        <time>2010-01-01T02:09:49Z</time>
      </trkpt>
      <trkpt lat="47.67028" lon="5.96454">
        <ele>216</ele>
        <time>2010-01-01T02:09:49Z</time>
      </trkpt>
      <trkpt lat="47.67029" lon="5.96452">
        <ele>216</ele>
        <time>2010-01-01T02:09:50Z</time>
      </trkpt>
      <trkpt lat="47.6703" lon="5.96452">
        <ele>216</ele>
        <time>2010-01-01T02:09:50Z</time>
      </trkpt>
      <trkpt lat="47.6703" lon="5.96452">
        <ele>216</ele>
        <time>2010-01-01T02:09:51Z</time>
      </trkpt>
      <trkpt lat="47.6703" lon="5.96451">
        <ele>216</ele>
        <time>2010-01-01T02:09:51Z</time>
      </trkpt>
      <trkpt lat="47.67028" lon="5.96448">
        <ele>216</ele>
        <time>2010-01-01T02:09:52Z</time>
      </trkpt>
      <trkpt lat="47.67025" lon="5.96444">
        <ele>216</ele>
        <time>2010-01-01T02:09:53Z</time>
      </trkpt>
      <trkpt lat="47.67022" lon="5.9644">
        <ele>216</ele>
        <time>2010-01-01T02:09:55Z</time>
      </trkpt>
      <trkpt lat="47.67019" lon="5.96437">
        <ele>216</ele>
        <time>2010-01-01T02:09:57Z</time>
      </trkpt>
      <trkpt lat="47.67015" lon="5.96433">
        <ele>216</ele>
        <time>2010-01-01T02:09:58Z</time>
      </trkpt>
      <trkpt lat="47.67012" lon="5.96429">
        <ele>216</ele>
        <time>2010-01-01T02:10:00Z</time>
      </trkpt>
      <trkpt lat="47.67008" lon="5.96425">
        <ele>216</ele>
        <time>2010-01-01T02:10:02Z</time>
      </trkpt>
      <trkpt lat="47.67004" lon="5.96422">
        <ele>216</ele>
        <time>2010-01-01T02:10:04Z</time>
      </trkpt>
      <trkpt lat="47.66999" lon="5.96418">
        <ele>216</ele>
        <time>2010-01-01T02:10:06Z</time>
      </trkpt>
      <trkpt lat="47.66995" lon="5.96415">
        <ele>216</ele>
        <time>2010-01-01T02:10:08Z</time>
      </trkpt>
      <trkpt lat="47.6699" lon="5.96411">
        <ele>216</ele>
        <time>2010-01-01T02:10:10Z</time>
      </trkpt>
      <trkpt lat="47.66986" lon="5.96407">
        <ele>216</ele>
        <time>2010-01-01T02:10:12Z</time>
      </trkpt>
      <trkpt lat="47.66981" lon="5.96402">
        <ele>215</ele>
        <time>2010-01-01T02:10:14Z</time>
      </trkpt>
      <trkpt lat="47.66976" lon="5.96398">
        <ele>215</ele>
        <time>2010-01-01T02:10:17Z</time>
      </trkpt>
      <trkpt lat="47.66971" lon="5.96394">
        <ele>215</ele>
        <time>2010-01-01T02:10:19Z</time>
      </trkpt>
      <trkpt lat="47.66967" lon="5.96389">
        <ele>214</ele>
        <time>2010-01-01T02:10:21Z</time>
      </trkpt>
      <trkpt lat="47.66961" lon="5.96384">
        <ele>214</ele>
        <time>2010-01-01T02:10:24Z</time>
      </trkpt>
      <trkpt lat="47.66956" lon="5.96378">
        <ele>214</ele>
        <time>2010-01-01T02:10:26Z</time>
      </trkpt>
      <trkpt lat="47.66951" lon="5.96373">
        <ele>214</ele>
        <time>2010-01-01T02:10:29Z</time>
      </trkpt>
      <trkpt lat="47.66946" lon="5.96368">
        <ele>214</ele>
        <time>2010-01-01T02:10:31Z</time>
      </trkpt>
      <trkpt lat="47.66941" lon="5.96363">
        <ele>214</ele>
        <time>2010-01-01T02:10:34Z</time>
      </trkpt>
      <trkpt lat="47.66936" lon="5.96359">
        <ele>213</ele>
        <time>2010-01-01T02:10:36Z</time>
      </trkpt>
      <trkpt lat="47.66931" lon="5.96354">
        <ele>213</ele>
        <time>2010-01-01T02:10:38Z</time>
      </trkpt>
      <trkpt lat="47.66925" lon="5.96349">
        <ele>212</ele>
        <time>2010-01-01T02:10:41Z</time>
      </trkpt>
      <trkpt lat="47.6692" lon="5.96344">
        <ele>212</ele>
        <time>2010-01-01T02:10:43Z</time>
      </trkpt>
      <trkpt lat="47.66914" lon="5.96339">
        <ele>212</ele>
        <time>2010-01-01T02:10:46Z</time>
      </trkpt>
      <trkpt lat="47.66908" lon="5.96334">
        <ele>212</ele>
        <time>2010-01-01T02:10:49Z</time>
      </trkpt>
      <trkpt lat="47.66903" lon="5.96328">
        <ele>211</ele>
        <time>2010-01-01T02:10:51Z</time>
      </trkpt>
      <trkpt lat="47.66897" lon="5.96324">
        <ele>211</ele>
        <time>2010-01-01T02:10:54Z</time>
      </trkpt>
      <trkpt lat="47.66892" lon="5.9632">
        <ele>210</ele>
        <time>2010-01-01T02:10:56Z</time>
      </trkpt>
      <trkpt lat="47.66887" lon="5.96316">
        <ele>210</ele>
        <time>2010-01-01T02:10:59Z</time>
      </trkpt>
      <trkpt lat="47.66881" lon="5.96312">
        <ele>210</ele>
        <time>2010-01-01T02:11:01Z</time>
      </trkpt>
      <trkpt lat="47.66876" lon="5.96308">
        <ele>210</ele>
        <time>2010-01-01T02:11:04Z</time>
      </trkpt>
      <trkpt lat="47.6687" lon="5.96306">
        <ele>210</ele>
        <time>2010-01-01T02:11:06Z</time>
      </trkpt>
      <trkpt lat="47.66864" lon="5.96305">
        <ele>209</ele>
        <time>2010-01-01T02:11:08Z</time>
      </trkpt>
      <trkpt lat="47.66858" lon="5.96305">
        <ele>209</ele>
        <time>2010-01-01T02:11:11Z</time>
      </trkpt>
      <trkpt lat="47.66853" lon="5.96306">
        <ele>208</ele>
        <time>2010-01-01T02:11:13Z</time>
      </trkpt>
      <trkpt lat="47.66848" lon="5.96307">
        <ele>208</ele>
        <time>2010-01-01T02:11:15Z</time>
      </trkpt>
      <trkpt lat="47.66844" lon="5.96309">
        <ele>208</ele>
        <time>2010-01-01T02:11:17Z</time>
      </trkpt>
      <trkpt lat="47.6684" lon="5.96311">
        <ele>208</ele>
        <time>2010-01-01T02:11:18Z</time>
      </trkpt>
      <trkpt lat="47.66836" lon="5.96314">
        <ele>208</ele>
        <time>2010-01-01T02:11:20Z</time>
      </trkpt>
      <trkpt lat="47.66833" lon="5.96317">
        <ele>208</ele>
        <time>2010-01-01T02:11:22Z</time>
      </trkpt>
      <trkpt lat="47.66829" lon="5.96321">
        <ele>208</ele>
        <time>2010-01-01T02:11:23Z</time>
      </trkpt>
      <trkpt lat="47.66826" lon="5.96327">
        <ele>208</ele>
        <time>2010-01-01T02:11:25Z</time>
      </trkpt>
      <trkpt lat="47.66823" lon="5.96332">
        <ele>207</ele>
        <time>2010-01-01T02:11:27Z</time>
      </trkpt>
      <trkpt lat="47.6682" lon="5.96339">
        <ele>207</ele>
        <time>2010-01-01T02:11:29Z</time>
      </trkpt>
      <trkpt lat="47.66816" lon="5.96346">
        <ele>206</ele>
        <time>2010-01-01T02:11:32Z</time>
      </trkpt>
      <trkpt lat="47.66813" lon="5.96353">
        <ele>206</ele>
        <time>2010-01-01T02:11:34Z</time>
      </trkpt>
      <trkpt lat="47.6681" lon="5.96361">
        <ele>205</ele>
        <time>2010-01-01T02:11:37Z</time>
      </trkpt>
      <trkpt lat="47.66807" lon="5.9637">
        <ele>205</ele>
        <time>2010-01-01T02:11:39Z</time>
      </trkpt>
      <trkpt lat="47.66804" lon="5.96379">
        <ele>205</ele>
        <time>2010-01-01T02:11:42Z</time>
      </trkpt>
      <trkpt lat="47.668" lon="5.96388">
        <ele>205</ele>
        <time>2010-01-01T02:11:45Z</time>
      </trkpt>
      <trkpt lat="47.66796" lon="5.96396">
        <ele>205</ele>
        <time>2010-01-01T02:11:48Z</time>
      </trkpt>
      <trkpt lat="47.66793" lon="5.96403">
        <ele>204</ele>
        <time>2010-01-01T02:11:50Z</time>
      </trkpt>
      <trkpt lat="47.66791" lon="5.96409">
        <ele>203</ele>
        <time>2010-01-01T02:11:52Z</time>
      </trkpt>
      <trkpt lat="47.66792" lon="5.96415">
        <ele>203</ele>
        <time>2010-01-01T02:11:53Z</time>
      </trkpt>
      <trkpt lat="47.66794" lon="5.96421">
        <ele>203</ele>
        <time>2010-01-01T02:11:55Z</time>
      </trkpt>
      <trkpt lat="47.66797" lon="5.96423">
        <ele>203</ele>
        <time>2010-01-01T02:11:56Z</time>
      </trkpt>
      <trkpt lat="47.668" lon="5.96424">
        <ele>202</ele>
        <time>2010-01-01T02:11:58Z</time>
      </trkpt>
      <trkpt lat="47.66804" lon="5.96424">
        <ele>202</ele>
        <time>2010-01-01T02:11:59Z</time>
      </trkpt>
      <trkpt lat="47.66806" lon="5.96426">
        <ele>201</ele>
        <time>2010-01-01T02:12:00Z</time>
      </trkpt>
      <trkpt lat="47.66805" lon="5.96429">
        <ele>201</ele>
        <time>2010-01-01T02:12:01Z</time>
      </trkpt>
      <trkpt lat="47.66805" lon="5.96431">
        <ele>201</ele>
        <time>2010-01-01T02:12:02Z</time>
      </trkpt>
      <trkpt lat="47.66804" lon="5.96434">
        <ele>201</ele>
        <time>2010-01-01T02:12:02Z</time>
      </trkpt>
      <trkpt lat="47.66804" lon="5.96437">
        <ele>201</ele>
        <time>2010-01-01T02:12:03Z</time>
      </trkpt>
      <trkpt lat="47.66805" lon="5.96439">
        <ele>201</ele>
        <time>2010-01-01T02:12:04Z</time>
      </trkpt>
      <trkpt lat="47.66805" lon="5.96441">
        <ele>201</ele>
        <time>2010-01-01T02:12:04Z</time>
      </trkpt>
      <trkpt lat="47.66805" lon="5.96442">
        <ele>201</ele>
        <time>2010-01-01T02:12:05Z</time>
      </trkpt>
      <trkpt lat="47.66805" lon="5.96442">
        <ele>201</ele>
        <time>2010-01-01T02:12:05Z</time>
      </trkpt>
      <trkpt lat="47.66805" lon="5.96443">
        <ele>201</ele>
        <time>2010-01-01T02:12:05Z</time>
      </trkpt>
      <trkpt lat="47.66805" lon="5.96442">
        <ele>201</ele>
        <time>2010-01-01T02:12:05Z</time>
      </trkpt>
      <trkpt lat="47.66805" lon="5.96443">
        <ele>201</ele>
        <time>2010-01-01T02:12:05Z</time>
      </trkpt>
      <trkpt lat="47.66804" lon="5.96443">
        <ele>201</ele>
        <time>2010-01-01T02:12:05Z</time>
      </trkpt>
      <trkpt lat="47.66804" lon="5.96444">
        <ele>201</ele>
        <time>2010-01-01T02:12:06Z</time>
      </trkpt>
      <trkpt lat="47.66804" lon="5.96444">
        <ele>201</ele>
        <time>2010-01-01T02:12:06Z</time>
      </trkpt>
      <trkpt lat="47.66804" lon="5.96444">
        <ele>201</ele>
        <time>2010-01-01T02:12:06Z</time>
      </trkpt>
      <trkpt lat="47.66803" lon="5.96445">
        <ele>201</ele>
        <time>2010-01-01T02:12:06Z</time>
      </trkpt>
      <trkpt lat="47.66803" lon="5.96446">
        <ele>201</ele>
        <time>2010-01-01T02:12:06Z</time>
      </trkpt>
      <trkpt lat="47.66803" lon="5.96446">
        <ele>201</ele>
        <time>2010-01-01T02:12:06Z</time>
      </trkpt>
      <trkpt lat="47.66803" lon="5.96446">
        <ele>201</ele>
        <time>2010-01-01T02:12:07Z</time>
      </trkpt>
      <trkpt lat="47.66804" lon="5.96445">
        <ele>201</ele>
        <time>2010-01-01T02:12:07Z</time>
      </trkpt>
      <trkpt lat="47.66804" lon="5.96444">
        <ele>201</ele>
        <time>2010-01-01T02:12:07Z</time>
      </trkpt>
      <trkpt lat="47.66805" lon="5.96442">
        <ele>201</ele>
        <time>2010-01-01T02:12:08Z</time>
      </trkpt>
      <trkpt lat="47.66805" lon="5.9644">
        <ele>201</ele>
        <time>2010-01-01T02:12:08Z</time>
      </trkpt>
      <trkpt lat="47.66805" lon="5.9644">
        <ele>201</ele>
        <time>2010-01-01T02:12:09Z</time>
      </trkpt>
      <trkpt lat="47.66805" lon="5.96438">
        <ele>201</ele>
        <time>2010-01-01T02:12:09Z</time>
      </trkpt>
      <trkpt lat="47.66805" lon="5.96437">
        <ele>201</ele>
        <time>2010-01-01T02:12:09Z</time>
      </trkpt>
      <trkpt lat="47.66805" lon="5.96435">
        <ele>201</ele>
        <time>2010-01-01T02:12:10Z</time>
      </trkpt>
      <trkpt lat="47.66804" lon="5.96433">
        <ele>201</ele>
        <time>2010-01-01T02:12:10Z</time>
      </trkpt>
      <trkpt lat="47.66804" lon="5.96431">
        <ele>201</ele>
        <time>2010-01-01T02:12:11Z</time>
      </trkpt>
      <trkpt lat="47.66804" lon="5.9643">
        <ele>201</ele>
        <time>2010-01-01T02:12:11Z</time>
      </trkpt>
      <trkpt lat="47.66804" lon="5.96429">
        <ele>201</ele>
        <time>2010-01-01T02:12:11Z</time>
      </trkpt>
      <trkpt lat="47.66803" lon="5.96427">
        <ele>201</ele>
        <time>2010-01-01T02:12:12Z</time>
      </trkpt>
      <trkpt lat="47.66802" lon="5.96425">
        <ele>201</ele>
        <time>2010-01-01T02:12:13Z</time>
      </trkpt>
      <trkpt lat="47.668" lon="5.96422">
        <ele>201</ele>
        <time>2010-01-01T02:12:14Z</time>
      </trkpt>
      <trkpt lat="47.66799" lon="5.9642">
        <ele>201</ele>
        <time>2010-01-01T02:12:15Z</time>
      </trkpt>
      <trkpt lat="47.66797" lon="5.96419">
        <ele>201</ele>
        <time>2010-01-01T02:12:15Z</time>
      </trkpt>
      <trkpt lat="47.66795" lon="5.96417">
        <ele>201</ele>
        <time>2010-01-01T02:12:17Z</time>
      </trkpt>
      <trkpt lat="47.66792" lon="5.96415">
        <ele>201</ele>
        <time>2010-01-01T02:12:18Z</time>
      </trkpt>
      <trkpt lat="47.66791" lon="5.96412">
        <ele>201</ele>
        <time>2010-01-01T02:12:19Z</time>
      </trkpt>
      <trkpt lat="47.66789" lon="5.9641">
        <ele>201</ele>
        <time>2010-01-01T02:12:20Z</time>
      </trkpt>
      <trkpt lat="47.66786" lon="5.9641">
        <ele>201</ele>
        <time>2010-01-01T02:12:21Z</time>
      </trkpt>
      <trkpt lat="47.66783" lon="5.96411">
        <ele>201</ele>
        <time>2010-01-01T02:12:22Z</time>
      </trkpt>
      <trkpt lat="47.6678" lon="5.96412">
        <ele>201</ele>
        <time>2010-01-01T02:12:23Z</time>
      </trkpt>
      <trkpt lat="47.66777" lon="5.96413">
        <ele>201</ele>
        <time>2010-01-01T02:12:24Z</time>
      </trkpt>
      <trkpt lat="47.66773" lon="5.96413">
        <ele>201</ele>
        <time>2010-01-01T02:12:26Z</time>
      </trkpt>
      <trkpt lat="47.66769" lon="5.96413">
        <ele>201</ele>
        <time>2010-01-01T02:12:27Z</time>
      </trkpt>
      <trkpt lat="47.66765" lon="5.96414">
        <ele>201</ele>
        <time>2010-01-01T02:12:29Z</time>
      </trkpt>
      <trkpt lat="47.6676" lon="5.96416">
        <ele>201</ele>
        <time>2010-01-01T02:12:31Z</time>
      </trkpt>
      <trkpt lat="47.66755" lon="5.96418">
        <ele>201</ele>
        <time>2010-01-01T02:12:33Z</time>
      </trkpt>
      <trkpt lat="47.6675" lon="5.9642">
        <ele>201</ele>
        <time>2010-01-01T02:12:35Z</time>
      </trkpt>
      <trkpt lat="47.66746" lon="5.96424">
        <ele>200</ele>
        <time>2010-01-01T02:12:37Z</time>
      </trkpt>
      <trkpt lat="47.66741" lon="5.96428">
        <ele>200</ele>
        <time>2010-01-01T02:12:40Z</time>
      </trkpt>
      <trkpt lat="47.66735" lon="5.96434">
        <ele>200</ele>
        <time>2010-01-01T02:12:42Z</time>
      </trkpt>
      <trkpt lat="47.6673" lon="5.9644">
        <ele>199</ele>
        <time>2010-01-01T02:12:45Z</time>
      </trkpt>
      <trkpt lat="47.66725" lon="5.96446">
        <ele>199</ele>
        <time>2010-01-01T02:12:48Z</time>
      </trkpt>
      <trkpt lat="47.66719" lon="5.96453">
        <ele>199</ele>
        <time>2010-01-01T02:12:50Z</time>
      </trkpt>
      <trkpt lat="47.66714" lon="5.9646">
        <ele>199</ele>
        <time>2010-01-01T02:12:54Z</time>
      </trkpt>
      <trkpt lat="47.66708" lon="5.96468">
        <ele>198</ele>
        <time>2010-01-01T02:12:57Z</time>
      </trkpt>
      <trkpt lat="47.66703" lon="5.96475">
        <ele>198</ele>
        <time>2010-01-01T02:12:59Z</time>
      </trkpt>
      <trkpt lat="47.66697" lon="5.96483">
        <ele>197</ele>
        <time>2010-01-01T02:13:03Z</time>
      </trkpt>
      <trkpt lat="47.66692" lon="5.96491">
        <ele>197</ele>
        <time>2010-01-01T02:13:06Z</time>
      </trkpt>
      <trkpt lat="47.66687" lon="5.96499">
        <ele>196</ele>
        <time>2010-01-01T02:13:08Z</time>
      </trkpt>
      <trkpt lat="47.66682" lon="5.96507">
        <ele>196</ele>
        <time>2010-01-01T02:13:11Z</time>
      </trkpt>
      <trkpt lat="47.66677" lon="5.96515">
        <ele>196</ele>
        <time>2010-01-01T02:13:14Z</time>
      </trkpt>
      <trkpt lat="47.66672" lon="5.96522">
        <ele>195</ele>
        <time>2010-01-01T02:13:17Z</time>
      </trkpt>
      <trkpt lat="47.66668" lon="5.9653">
        <ele>195</ele>
        <time>2010-01-01T02:13:20Z</time>
      </trkpt>
      <trkpt lat="47.66663" lon="5.96537">
        <ele>195</ele>
        <time>2010-01-01T02:13:22Z</time>
      </trkpt>
      <trkpt lat="47.66659" lon="5.96544">
        <ele>195</ele>
        <time>2010-01-01T02:13:25Z</time>
      </trkpt>
      <trkpt lat="47.66655" lon="5.96551">
        <ele>195</ele>
        <time>2010-01-01T02:13:27Z</time>
      </trkpt>
      <trkpt lat="47.66651" lon="5.96557">
        <ele>195</ele>
        <time>2010-01-01T02:13:30Z</time>
      </trkpt>
      <trkpt lat="47.66647" lon="5.96564">
        <ele>195</ele>
        <time>2010-01-01T02:13:32Z</time>
      </trkpt>
      <trkpt lat="47.66643" lon="5.9657">
        <ele>195</ele>
        <time>2010-01-01T02:13:35Z</time>
      </trkpt>
      <trkpt lat="47.66639" lon="5.96576">
        <ele>195</ele>
        <time>2010-01-01T02:13:37Z</time>
      </trkpt>
      <trkpt lat="47.66636" lon="5.96583">
        <ele>195</ele>
        <time>2010-01-01T02:13:39Z</time>
      </trkpt>
      <trkpt lat="47.66632" lon="5.9659">
        <ele>195</ele>
        <time>2010-01-01T02:13:41Z</time>
      </trkpt>
      <trkpt lat="47.66628" lon="5.96596">
        <ele>195</ele>
        <time>2010-01-01T02:13:44Z</time>
      </trkpt>
      <trkpt lat="47.66624" lon="5.96603">
        <ele>195</ele>
        <time>2010-01-01T02:13:46Z</time>
      </trkpt>
      <trkpt lat="47.6662" lon="5.96609">
        <ele>195</ele>
        <time>2010-01-01T02:13:49Z</time>
      </trkpt>
      <trkpt lat="47.66616" lon="5.96616">
        <ele>195</ele>
        <time>2010-01-01T02:13:51Z</time>
      </trkpt>
      <trkpt lat="47.66612" lon="5.96622">
        <ele>195</ele>
        <time>2010-01-01T02:13:53Z</time>
      </trkpt>
      <trkpt lat="47.66608" lon="5.96628">
        <ele>195</ele>
        <time>2010-01-01T02:13:56Z</time>
      </trkpt>
      <trkpt lat="47.66604" lon="5.96634">
        <ele>195</ele>
        <time>2010-01-01T02:13:58Z</time>
      </trkpt>
      <trkpt lat="47.666" lon="5.96641">
        <ele>195</ele>
        <time>2010-01-01T02:14:00Z</time>
      </trkpt>
      <trkpt lat="47.66596" lon="5.96647">
        <ele>195</ele>
        <time>2010-01-01T02:14:02Z</time>
      </trkpt>
      <trkpt lat="47.66593" lon="5.96652">
        <ele>195</ele>
        <time>2010-01-01T02:14:04Z</time>
      </trkpt>
      <trkpt lat="47.66589" lon="5.96658">
        <ele>195</ele>
        <time>2010-01-01T02:14:07Z</time>
      </trkpt>
      <trkpt lat="47.66585" lon="5.96664">
        <ele>195</ele>
        <time>2010-01-01T02:14:09Z</time>
      </trkpt>
      <trkpt lat="47.66581" lon="5.9667">
        <ele>195</ele>
        <time>2010-01-01T02:14:11Z</time>
      </trkpt>
      <trkpt lat="47.66578" lon="5.96676">
        <ele>195</ele>
        <time>2010-01-01T02:14:13Z</time>
      </trkpt>
      <trkpt lat="47.66574" lon="5.96682">
        <ele>195</ele>
        <time>2010-01-01T02:14:15Z</time>
      </trkpt>
      <trkpt lat="47.66571" lon="5.96688">
        <ele>195</ele>
        <time>2010-01-01T02:14:18Z</time>
      </trkpt>
      <trkpt lat="47.66567" lon="5.96695">
        <ele>195</ele>
        <time>2010-01-01T02:14:20Z</time>
      </trkpt>
      <trkpt lat="47.66564" lon="5.96701">
        <ele>195</ele>
        <time>2010-01-01T02:14:22Z</time>
      </trkpt>
      <trkpt lat="47.6656" lon="5.96707">
        <ele>195</ele>
        <time>2010-01-01T02:14:24Z</time>
      </trkpt>
      <trkpt lat="47.66556" lon="5.96712">
        <ele>195</ele>
        <time>2010-01-01T02:14:26Z</time>
      </trkpt>
      <trkpt lat="47.66552" lon="5.96719">
        <ele>195</ele>
        <time>2010-01-01T02:14:29Z</time>
      </trkpt>
      <trkpt lat="47.66548" lon="5.96725">
        <ele>195</ele>
        <time>2010-01-01T02:14:31Z</time>
      </trkpt>
      <trkpt lat="47.66545" lon="5.96731">
        <ele>195</ele>
        <time>2010-01-01T02:14:33Z</time>
      </trkpt>
      <trkpt lat="47.66541" lon="5.96737">
        <ele>195</ele>
        <time>2010-01-01T02:14:35Z</time>
      </trkpt>
      <trkpt lat="47.66537" lon="5.96743">
        <ele>195</ele>
        <time>2010-01-01T02:14:37Z</time>
      </trkpt>
      <trkpt lat="47.66534" lon="5.96749">
        <ele>195</ele>
        <time>2010-01-01T02:14:40Z</time>
      </trkpt>
      <trkpt lat="47.6653" lon="5.96755">
        <ele>195</ele>
        <time>2010-01-01T02:14:42Z</time>
      </trkpt>
      <trkpt lat="47.66526" lon="5.96761">
        <ele>195</ele>
        <time>2010-01-01T02:14:44Z</time>
      </trkpt>
      <trkpt lat="47.66523" lon="5.96767">
        <ele>195</ele>
        <time>2010-01-01T02:14:46Z</time>
      </trkpt>
      <trkpt lat="47.6652" lon="5.96773">
        <ele>195</ele>
        <time>2010-01-01T02:14:48Z</time>
      </trkpt>
      <trkpt lat="47.66517" lon="5.96779">
        <ele>195</ele>
        <time>2010-01-01T02:14:50Z</time>
      </trkpt>
      <trkpt lat="47.66513" lon="5.96784">
        <ele>195</ele>
        <time>2010-01-01T02:14:52Z</time>
      </trkpt>
      <trkpt lat="47.6651" lon="5.96788">
        <ele>195</ele>
        <time>2010-01-01T02:14:54Z</time>
      </trkpt>
      <trkpt lat="47.66507" lon="5.96792">
        <ele>195</ele>
        <time>2010-01-01T02:14:56Z</time>
      </trkpt>
      <trkpt lat="47.66504" lon="5.96796">
        <ele>195</ele>
        <time>2010-01-01T02:14:57Z</time>
      </trkpt>
      <trkpt lat="47.66501" lon="5.968">
        <ele>195</ele>
        <time>2010-01-01T02:14:59Z</time>
      </trkpt>
      <trkpt lat="47.66499" lon="5.96803">
        <ele>195</ele>
        <time>2010-01-01T02:15:00Z</time>
      </trkpt>
      <trkpt lat="47.66496" lon="5.96805">
        <ele>195</ele>
        <time>2010-01-01T02:15:01Z</time>
      </trkpt>
      <trkpt lat="47.66494" lon="5.96805">
        <ele>195</ele>
        <time>2010-01-01T02:15:02Z</time>
      </trkpt>
      <trkpt lat="47.66493" lon="5.96803">
        <ele>195</ele>
        <time>2010-01-01T02:15:03Z</time>
      </trkpt>
      <trkpt lat="47.66491" lon="5.96801">
        <ele>195</ele>
        <time>2010-01-01T02:15:04Z</time>
      </trkpt>
      <trkpt lat="47.6649" lon="5.96798">
        <ele>195</ele>
        <time>2010-01-01T02:15:04Z</time>
      </trkpt>
      <trkpt lat="47.6649" lon="5.96795">
        <ele>195</ele>
        <time>2010-01-01T02:15:05Z</time>
      </trkpt>
      <trkpt lat="47.6649" lon="5.96795">
        <ele>195</ele>
        <time>2010-01-01T02:15:05Z</time>
      </trkpt>
    </trkseg>
  </trk>
</gpx>